<?xml version="1.0" encoding="UTF-8" standalone="no" ?>
<gpx xmlns="http://www.topografix.com/GPX/1/1" xmlns:xsi="http://www.w3.org/2001/XMLSchema-instance" xsi:schemaLocation="http://www.topografix.com/GPX/1/1 http://www.topografix.com/GPX/1/1/gpx.xsd" version="1.1" creator="VisuGPX - https://www.visugpx.com">
  <metadata>
    <name>Grande Traversée des Alpes J3</name>
    <desc><![CDATA[Grande Traversée des Alpes jour 3]]></desc>
  </metadata>
  <trk>
    <name><![CDATA[Gr5 J3]]></name>
    <desc><![CDATA[]]></desc>
    <trkseg>
      <trkpt lat="46.22665" lon="6.77332">
        <ele>1744</ele>
        <time>2016-07-04T06:12:43.899Z</time>
      </trkpt>
      <trkpt lat="46.22664" lon="6.7733">
        <ele>1741</ele>
        <time>2016-07-04T06:14:24.000Z</time>
      </trkpt>
      <trkpt lat="46.22664" lon="6.7733">
        <ele>1741</ele>
        <time>2016-07-04T06:14:25.000Z</time>
      </trkpt>
      <trkpt lat="46.22663" lon="6.77332">
        <ele>1738</ele>
        <time>2016-07-04T06:14:31.000Z</time>
      </trkpt>
      <trkpt lat="46.22663" lon="6.77332">
        <ele>1738</ele>
        <time>2016-07-04T06:14:32.000Z</time>
      </trkpt>
      <trkpt lat="46.22661" lon="6.77344">
        <ele>1736</ele>
        <time>2016-07-04T06:14:39.000Z</time>
      </trkpt>
      <trkpt lat="46.22661" lon="6.77346">
        <ele>1737</ele>
        <time>2016-07-04T06:14:40.000Z</time>
      </trkpt>
      <trkpt lat="46.22654" lon="6.77351">
        <ele>1737</ele>
        <time>2016-07-04T06:14:47.000Z</time>
      </trkpt>
      <trkpt lat="46.22653" lon="6.77352">
        <ele>1736</ele>
        <time>2016-07-04T06:14:48.000Z</time>
      </trkpt>
      <trkpt lat="46.22646" lon="6.77359">
        <ele>1737</ele>
        <time>2016-07-04T06:14:54.000Z</time>
      </trkpt>
      <trkpt lat="46.22644" lon="6.77359">
        <ele>1737</ele>
        <time>2016-07-04T06:14:55.000Z</time>
      </trkpt>
      <trkpt lat="46.22638" lon="6.77362">
        <ele>1734</ele>
        <time>2016-07-04T06:15:03.000Z</time>
      </trkpt>
      <trkpt lat="46.22636" lon="6.77362">
        <ele>1732</ele>
        <time>2016-07-04T06:15:04.000Z</time>
      </trkpt>
      <trkpt lat="46.22627" lon="6.77365">
        <ele>1731</ele>
        <time>2016-07-04T06:15:11.000Z</time>
      </trkpt>
      <trkpt lat="46.22626" lon="6.77366">
        <ele>1731</ele>
        <time>2016-07-04T06:15:12.000Z</time>
      </trkpt>
      <trkpt lat="46.22618" lon="6.77368">
        <ele>1731</ele>
        <time>2016-07-04T06:15:16.000Z</time>
      </trkpt>
      <trkpt lat="46.22616" lon="6.77369">
        <ele>1731</ele>
        <time>2016-07-04T06:15:17.000Z</time>
      </trkpt>
      <trkpt lat="46.22609" lon="6.77377">
        <ele>1726</ele>
        <time>2016-07-04T06:15:25.000Z</time>
      </trkpt>
      <trkpt lat="46.22609" lon="6.77378">
        <ele>1727</ele>
        <time>2016-07-04T06:15:26.000Z</time>
      </trkpt>
      <trkpt lat="46.22604" lon="6.77387">
        <ele>1725</ele>
        <time>2016-07-04T06:15:33.000Z</time>
      </trkpt>
      <trkpt lat="46.22603" lon="6.77388">
        <ele>1725</ele>
        <time>2016-07-04T06:15:34.000Z</time>
      </trkpt>
      <trkpt lat="46.22596" lon="6.77394">
        <ele>1726</ele>
        <time>2016-07-04T06:15:47.000Z</time>
      </trkpt>
      <trkpt lat="46.22595" lon="6.77394">
        <ele>1726</ele>
        <time>2016-07-04T06:15:48.000Z</time>
      </trkpt>
      <trkpt lat="46.22588" lon="6.77399">
        <ele>1726</ele>
        <time>2016-07-04T06:15:56.000Z</time>
      </trkpt>
      <trkpt lat="46.22586" lon="6.774">
        <ele>1726</ele>
        <time>2016-07-04T06:15:57.000Z</time>
      </trkpt>
      <trkpt lat="46.22581" lon="6.77409">
        <ele>1727</ele>
        <time>2016-07-04T06:16:08.000Z</time>
      </trkpt>
      <trkpt lat="46.2258" lon="6.77409">
        <ele>1726</ele>
        <time>2016-07-04T06:16:09.000Z</time>
      </trkpt>
      <trkpt lat="46.22571" lon="6.77413">
        <ele>1730</ele>
        <time>2016-07-04T06:16:23.000Z</time>
      </trkpt>
      <trkpt lat="46.2257" lon="6.77413">
        <ele>1730</ele>
        <time>2016-07-04T06:16:24.000Z</time>
      </trkpt>
      <trkpt lat="46.22563" lon="6.77409">
        <ele>1735</ele>
        <time>2016-07-04T06:16:33.000Z</time>
      </trkpt>
      <trkpt lat="46.22561" lon="6.77409">
        <ele>1736</ele>
        <time>2016-07-04T06:16:34.000Z</time>
      </trkpt>
      <trkpt lat="46.22554" lon="6.77414">
        <ele>1735</ele>
        <time>2016-07-04T06:16:42.000Z</time>
      </trkpt>
      <trkpt lat="46.22553" lon="6.77415">
        <ele>1735</ele>
        <time>2016-07-04T06:16:43.000Z</time>
      </trkpt>
      <trkpt lat="46.22545" lon="6.77413">
        <ele>1735</ele>
        <time>2016-07-04T06:16:52.000Z</time>
      </trkpt>
      <trkpt lat="46.22543" lon="6.77411">
        <ele>1735</ele>
        <time>2016-07-04T06:16:53.000Z</time>
      </trkpt>
      <trkpt lat="46.22536" lon="6.77418">
        <ele>1738</ele>
        <time>2016-07-04T06:17:00.000Z</time>
      </trkpt>
      <trkpt lat="46.22535" lon="6.77417">
        <ele>1739</ele>
        <time>2016-07-04T06:17:01.000Z</time>
      </trkpt>
      <trkpt lat="46.22526" lon="6.77416">
        <ele>1736</ele>
        <time>2016-07-04T06:17:09.000Z</time>
      </trkpt>
      <trkpt lat="46.22525" lon="6.77415">
        <ele>1733</ele>
        <time>2016-07-04T06:17:10.000Z</time>
      </trkpt>
      <trkpt lat="46.22516" lon="6.77416">
        <ele>1735</ele>
        <time>2016-07-04T06:17:22.000Z</time>
      </trkpt>
      <trkpt lat="46.22515" lon="6.77415">
        <ele>1735</ele>
        <time>2016-07-04T06:17:23.000Z</time>
      </trkpt>
      <trkpt lat="46.22508" lon="6.7741">
        <ele>1738</ele>
        <time>2016-07-04T06:17:40.000Z</time>
      </trkpt>
      <trkpt lat="46.22506" lon="6.77407">
        <ele>1740</ele>
        <time>2016-07-04T06:17:41.000Z</time>
      </trkpt>
      <trkpt lat="46.22498" lon="6.77406">
        <ele>1741</ele>
        <time>2016-07-04T06:17:53.000Z</time>
      </trkpt>
      <trkpt lat="46.22496" lon="6.77406">
        <ele>1742</ele>
        <time>2016-07-04T06:17:54.000Z</time>
      </trkpt>
      <trkpt lat="46.22488" lon="6.77404">
        <ele>1741</ele>
        <time>2016-07-04T06:18:06.000Z</time>
      </trkpt>
      <trkpt lat="46.22486" lon="6.77403">
        <ele>1741</ele>
        <time>2016-07-04T06:18:07.000Z</time>
      </trkpt>
      <trkpt lat="46.22478" lon="6.77401">
        <ele>1742</ele>
        <time>2016-07-04T06:18:15.000Z</time>
      </trkpt>
      <trkpt lat="46.22477" lon="6.77401">
        <ele>1741</ele>
        <time>2016-07-04T06:18:16.000Z</time>
      </trkpt>
      <trkpt lat="46.22469" lon="6.77398">
        <ele>1750</ele>
        <time>2016-07-04T06:18:28.000Z</time>
      </trkpt>
      <trkpt lat="46.22468" lon="6.77399">
        <ele>1750</ele>
        <time>2016-07-04T06:18:29.000Z</time>
      </trkpt>
      <trkpt lat="46.22459" lon="6.77401">
        <ele>1756</ele>
        <time>2016-07-04T06:18:42.000Z</time>
      </trkpt>
      <trkpt lat="46.22459" lon="6.77401">
        <ele>1756</ele>
        <time>2016-07-04T06:18:43.000Z</time>
      </trkpt>
      <trkpt lat="46.22451" lon="6.77405">
        <ele>1758</ele>
        <time>2016-07-04T06:18:55.000Z</time>
      </trkpt>
      <trkpt lat="46.2245" lon="6.77405">
        <ele>1758</ele>
        <time>2016-07-04T06:18:56.000Z</time>
      </trkpt>
      <trkpt lat="46.22442" lon="6.77404">
        <ele>1755</ele>
        <time>2016-07-04T06:19:11.000Z</time>
      </trkpt>
      <trkpt lat="46.22441" lon="6.77402">
        <ele>1757</ele>
        <time>2016-07-04T06:19:12.000Z</time>
      </trkpt>
      <trkpt lat="46.22432" lon="6.77404">
        <ele>1762</ele>
        <time>2016-07-04T06:19:33.000Z</time>
      </trkpt>
      <trkpt lat="46.22432" lon="6.77405">
        <ele>1762</ele>
        <time>2016-07-04T06:19:34.000Z</time>
      </trkpt>
      <trkpt lat="46.22423" lon="6.77408">
        <ele>1760</ele>
        <time>2016-07-04T06:19:43.000Z</time>
      </trkpt>
      <trkpt lat="46.22422" lon="6.77408">
        <ele>1760</ele>
        <time>2016-07-04T06:19:44.000Z</time>
      </trkpt>
      <trkpt lat="46.22414" lon="6.77409">
        <ele>1760</ele>
        <time>2016-07-04T06:19:50.000Z</time>
      </trkpt>
      <trkpt lat="46.22413" lon="6.77408">
        <ele>1762</ele>
        <time>2016-07-04T06:19:51.000Z</time>
      </trkpt>
      <trkpt lat="46.22404" lon="6.77409">
        <ele>1762</ele>
        <time>2016-07-04T06:19:58.000Z</time>
      </trkpt>
      <trkpt lat="46.22402" lon="6.7741">
        <ele>1762</ele>
        <time>2016-07-04T06:19:59.000Z</time>
      </trkpt>
      <trkpt lat="46.22395" lon="6.7741">
        <ele>1762</ele>
        <time>2016-07-04T06:20:06.000Z</time>
      </trkpt>
      <trkpt lat="46.22393" lon="6.7741">
        <ele>1762</ele>
        <time>2016-07-04T06:20:07.000Z</time>
      </trkpt>
      <trkpt lat="46.22385" lon="6.77417">
        <ele>1761</ele>
        <time>2016-07-04T06:20:16.000Z</time>
      </trkpt>
      <trkpt lat="46.22384" lon="6.77418">
        <ele>1761</ele>
        <time>2016-07-04T06:20:17.000Z</time>
      </trkpt>
      <trkpt lat="46.22376" lon="6.77419">
        <ele>1764</ele>
        <time>2016-07-04T06:20:27.000Z</time>
      </trkpt>
      <trkpt lat="46.22375" lon="6.77419">
        <ele>1764</ele>
        <time>2016-07-04T06:20:28.000Z</time>
      </trkpt>
      <trkpt lat="46.22366" lon="6.77419">
        <ele>1766</ele>
        <time>2016-07-04T06:20:38.000Z</time>
      </trkpt>
      <trkpt lat="46.22366" lon="6.77417">
        <ele>1770</ele>
        <time>2016-07-04T06:20:39.000Z</time>
      </trkpt>
      <trkpt lat="46.22358" lon="6.77421">
        <ele>1771</ele>
        <time>2016-07-04T06:20:47.000Z</time>
      </trkpt>
      <trkpt lat="46.22357" lon="6.77421">
        <ele>1770</ele>
        <time>2016-07-04T06:20:48.000Z</time>
      </trkpt>
      <trkpt lat="46.22349" lon="6.77426">
        <ele>1769</ele>
        <time>2016-07-04T06:20:54.000Z</time>
      </trkpt>
      <trkpt lat="46.22348" lon="6.77426">
        <ele>1768</ele>
        <time>2016-07-04T06:20:55.000Z</time>
      </trkpt>
      <trkpt lat="46.22341" lon="6.7743">
        <ele>1767</ele>
        <time>2016-07-04T06:21:03.000Z</time>
      </trkpt>
      <trkpt lat="46.22339" lon="6.7743">
        <ele>1767</ele>
        <time>2016-07-04T06:21:04.000Z</time>
      </trkpt>
      <trkpt lat="46.22332" lon="6.77439">
        <ele>1767</ele>
        <time>2016-07-04T06:21:11.000Z</time>
      </trkpt>
      <trkpt lat="46.22332" lon="6.7744">
        <ele>1768</ele>
        <time>2016-07-04T06:21:12.000Z</time>
      </trkpt>
      <trkpt lat="46.22324" lon="6.77446">
        <ele>1770</ele>
        <time>2016-07-04T06:21:19.000Z</time>
      </trkpt>
      <trkpt lat="46.22324" lon="6.77446">
        <ele>1770</ele>
        <time>2016-07-04T06:21:20.000Z</time>
      </trkpt>
      <trkpt lat="46.22316" lon="6.77454">
        <ele>1772</ele>
        <time>2016-07-04T06:21:31.000Z</time>
      </trkpt>
      <trkpt lat="46.22315" lon="6.77454">
        <ele>1773</ele>
        <time>2016-07-04T06:21:32.000Z</time>
      </trkpt>
      <trkpt lat="46.22308" lon="6.77462">
        <ele>1778</ele>
        <time>2016-07-04T06:21:51.000Z</time>
      </trkpt>
      <trkpt lat="46.22307" lon="6.77462">
        <ele>1779</ele>
        <time>2016-07-04T06:21:52.000Z</time>
      </trkpt>
      <trkpt lat="46.223" lon="6.77468">
        <ele>1779</ele>
        <time>2016-07-04T06:22:02.000Z</time>
      </trkpt>
      <trkpt lat="46.22299" lon="6.77469">
        <ele>1779</ele>
        <time>2016-07-04T06:22:03.000Z</time>
      </trkpt>
      <trkpt lat="46.22293" lon="6.77479">
        <ele>1780</ele>
        <time>2016-07-04T06:22:15.000Z</time>
      </trkpt>
      <trkpt lat="46.22292" lon="6.77479">
        <ele>1780</ele>
        <time>2016-07-04T06:22:16.000Z</time>
      </trkpt>
      <trkpt lat="46.22284" lon="6.7748">
        <ele>1782</ele>
        <time>2016-07-04T06:22:26.000Z</time>
      </trkpt>
      <trkpt lat="46.22283" lon="6.77481">
        <ele>1783</ele>
        <time>2016-07-04T06:22:27.000Z</time>
      </trkpt>
      <trkpt lat="46.22276" lon="6.7748">
        <ele>1788</ele>
        <time>2016-07-04T06:22:44.000Z</time>
      </trkpt>
      <trkpt lat="46.22274" lon="6.77479">
        <ele>1789</ele>
        <time>2016-07-04T06:22:45.000Z</time>
      </trkpt>
      <trkpt lat="46.22267" lon="6.77473">
        <ele>1790</ele>
        <time>2016-07-04T06:22:54.000Z</time>
      </trkpt>
      <trkpt lat="46.22266" lon="6.77472">
        <ele>1791</ele>
        <time>2016-07-04T06:22:55.000Z</time>
      </trkpt>
      <trkpt lat="46.2226" lon="6.77463">
        <ele>1789</ele>
        <time>2016-07-04T06:23:07.000Z</time>
      </trkpt>
      <trkpt lat="46.22259" lon="6.77462">
        <ele>1789</ele>
        <time>2016-07-04T06:23:08.000Z</time>
      </trkpt>
      <trkpt lat="46.2225" lon="6.77459">
        <ele>1791</ele>
        <time>2016-07-04T06:23:19.000Z</time>
      </trkpt>
      <trkpt lat="46.2225" lon="6.7746">
        <ele>1792</ele>
        <time>2016-07-04T06:23:20.000Z</time>
      </trkpt>
      <trkpt lat="46.22241" lon="6.7746">
        <ele>1796</ele>
        <time>2016-07-04T06:23:32.000Z</time>
      </trkpt>
      <trkpt lat="46.2224" lon="6.7746">
        <ele>1797</ele>
        <time>2016-07-04T06:23:33.000Z</time>
      </trkpt>
      <trkpt lat="46.22232" lon="6.77456">
        <ele>1799</ele>
        <time>2016-07-04T06:23:44.000Z</time>
      </trkpt>
      <trkpt lat="46.22231" lon="6.77456">
        <ele>1799</ele>
        <time>2016-07-04T06:23:45.000Z</time>
      </trkpt>
      <trkpt lat="46.22223" lon="6.77455">
        <ele>1804</ele>
        <time>2016-07-04T06:23:55.000Z</time>
      </trkpt>
      <trkpt lat="46.22221" lon="6.77453">
        <ele>1806</ele>
        <time>2016-07-04T06:23:56.000Z</time>
      </trkpt>
      <trkpt lat="46.22213" lon="6.77451">
        <ele>1807</ele>
        <time>2016-07-04T06:24:04.000Z</time>
      </trkpt>
      <trkpt lat="46.22212" lon="6.77451">
        <ele>1808</ele>
        <time>2016-07-04T06:24:05.000Z</time>
      </trkpt>
      <trkpt lat="46.22203" lon="6.77451">
        <ele>1808</ele>
        <time>2016-07-04T06:24:23.000Z</time>
      </trkpt>
      <trkpt lat="46.22203" lon="6.7745">
        <ele>1808</ele>
        <time>2016-07-04T06:24:24.000Z</time>
      </trkpt>
      <trkpt lat="46.22195" lon="6.77446">
        <ele>1814</ele>
        <time>2016-07-04T06:24:47.000Z</time>
      </trkpt>
      <trkpt lat="46.22194" lon="6.77446">
        <ele>1814</ele>
        <time>2016-07-04T06:24:48.000Z</time>
      </trkpt>
      <trkpt lat="46.22185" lon="6.77448">
        <ele>1817</ele>
        <time>2016-07-04T06:24:59.000Z</time>
      </trkpt>
      <trkpt lat="46.22184" lon="6.77449">
        <ele>1816</ele>
        <time>2016-07-04T06:25:00.000Z</time>
      </trkpt>
      <trkpt lat="46.22176" lon="6.77448">
        <ele>1818</ele>
        <time>2016-07-04T06:25:27.000Z</time>
      </trkpt>
      <trkpt lat="46.22175" lon="6.77448">
        <ele>1817</ele>
        <time>2016-07-04T06:25:28.000Z</time>
      </trkpt>
      <trkpt lat="46.22169" lon="6.77438">
        <ele>1818</ele>
        <time>2016-07-04T06:25:36.000Z</time>
      </trkpt>
      <trkpt lat="46.22168" lon="6.77438">
        <ele>1817</ele>
        <time>2016-07-04T06:25:37.000Z</time>
      </trkpt>
      <trkpt lat="46.22161" lon="6.77432">
        <ele>1822</ele>
        <time>2016-07-04T06:25:54.000Z</time>
      </trkpt>
      <trkpt lat="46.22159" lon="6.77433">
        <ele>1821</ele>
        <time>2016-07-04T06:25:55.000Z</time>
      </trkpt>
      <trkpt lat="46.22152" lon="6.77432">
        <ele>1824</ele>
        <time>2016-07-04T06:26:05.000Z</time>
      </trkpt>
      <trkpt lat="46.2215" lon="6.77432">
        <ele>1823</ele>
        <time>2016-07-04T06:26:06.000Z</time>
      </trkpt>
      <trkpt lat="46.22146" lon="6.77422">
        <ele>1822</ele>
        <time>2016-07-04T06:26:18.000Z</time>
      </trkpt>
      <trkpt lat="46.22146" lon="6.7742">
        <ele>1822</ele>
        <time>2016-07-04T06:26:19.000Z</time>
      </trkpt>
      <trkpt lat="46.22144" lon="6.77408">
        <ele>1823</ele>
        <time>2016-07-04T06:26:31.000Z</time>
      </trkpt>
      <trkpt lat="46.22144" lon="6.77406">
        <ele>1824</ele>
        <time>2016-07-04T06:26:32.000Z</time>
      </trkpt>
      <trkpt lat="46.22139" lon="6.77396">
        <ele>1821</ele>
        <time>2016-07-04T06:26:52.000Z</time>
      </trkpt>
      <trkpt lat="46.22139" lon="6.77394">
        <ele>1821</ele>
        <time>2016-07-04T06:26:53.000Z</time>
      </trkpt>
      <trkpt lat="46.22139" lon="6.77382">
        <ele>1820</ele>
        <time>2016-07-04T06:27:03.000Z</time>
      </trkpt>
      <trkpt lat="46.2214" lon="6.77381">
        <ele>1822</ele>
        <time>2016-07-04T06:27:04.000Z</time>
      </trkpt>
      <trkpt lat="46.22139" lon="6.77368">
        <ele>1821</ele>
        <time>2016-07-04T06:27:20.000Z</time>
      </trkpt>
      <trkpt lat="46.2214" lon="6.77366">
        <ele>1822</ele>
        <time>2016-07-04T06:27:21.000Z</time>
      </trkpt>
      <trkpt lat="46.22145" lon="6.77357">
        <ele>1826</ele>
        <time>2016-07-04T06:27:27.000Z</time>
      </trkpt>
      <trkpt lat="46.22146" lon="6.77356">
        <ele>1826</ele>
        <time>2016-07-04T06:27:28.000Z</time>
      </trkpt>
      <trkpt lat="46.2215" lon="6.77344">
        <ele>1826</ele>
        <time>2016-07-04T06:27:38.000Z</time>
      </trkpt>
      <trkpt lat="46.2215" lon="6.77344">
        <ele>1827</ele>
        <time>2016-07-04T06:27:39.000Z</time>
      </trkpt>
      <trkpt lat="46.22154" lon="6.77334">
        <ele>1829</ele>
        <time>2016-07-04T06:27:50.000Z</time>
      </trkpt>
      <trkpt lat="46.22156" lon="6.77333">
        <ele>1830</ele>
        <time>2016-07-04T06:27:51.000Z</time>
      </trkpt>
      <trkpt lat="46.2216" lon="6.77326">
        <ele>1831</ele>
        <time>2016-07-04T06:27:58.000Z</time>
      </trkpt>
      <trkpt lat="46.22163" lon="6.77325">
        <ele>1831</ele>
        <time>2016-07-04T06:27:59.000Z</time>
      </trkpt>
      <trkpt lat="46.22167" lon="6.77316">
        <ele>1831</ele>
        <time>2016-07-04T06:28:12.000Z</time>
      </trkpt>
      <trkpt lat="46.22168" lon="6.77314">
        <ele>1831</ele>
        <time>2016-07-04T06:28:13.000Z</time>
      </trkpt>
      <trkpt lat="46.22167" lon="6.77302">
        <ele>1840</ele>
        <time>2016-07-04T06:30:39.000Z</time>
      </trkpt>
      <trkpt lat="46.22166" lon="6.773">
        <ele>1840</ele>
        <time>2016-07-04T06:30:40.000Z</time>
      </trkpt>
      <trkpt lat="46.22158" lon="6.77296">
        <ele>1836</ele>
        <time>2016-07-04T06:30:48.000Z</time>
      </trkpt>
      <trkpt lat="46.22157" lon="6.77297">
        <ele>1836</ele>
        <time>2016-07-04T06:30:49.000Z</time>
      </trkpt>
      <trkpt lat="46.22149" lon="6.77294">
        <ele>1836</ele>
        <time>2016-07-04T06:30:55.000Z</time>
      </trkpt>
      <trkpt lat="46.22147" lon="6.77293">
        <ele>1836</ele>
        <time>2016-07-04T06:30:56.000Z</time>
      </trkpt>
      <trkpt lat="46.2214" lon="6.77292">
        <ele>1839</ele>
        <time>2016-07-04T06:31:02.000Z</time>
      </trkpt>
      <trkpt lat="46.22138" lon="6.77292">
        <ele>1839</ele>
        <time>2016-07-04T06:31:03.000Z</time>
      </trkpt>
      <trkpt lat="46.22129" lon="6.77291">
        <ele>1839</ele>
        <time>2016-07-04T06:31:11.000Z</time>
      </trkpt>
      <trkpt lat="46.22128" lon="6.77291">
        <ele>1839</ele>
        <time>2016-07-04T06:31:12.000Z</time>
      </trkpt>
      <trkpt lat="46.2212" lon="6.77289">
        <ele>1837</ele>
        <time>2016-07-04T06:31:19.000Z</time>
      </trkpt>
      <trkpt lat="46.22119" lon="6.77289">
        <ele>1838</ele>
        <time>2016-07-04T06:31:20.000Z</time>
      </trkpt>
      <trkpt lat="46.2211" lon="6.77291">
        <ele>1841</ele>
        <time>2016-07-04T06:31:35.000Z</time>
      </trkpt>
      <trkpt lat="46.22109" lon="6.77291">
        <ele>1841</ele>
        <time>2016-07-04T06:31:36.000Z</time>
      </trkpt>
      <trkpt lat="46.22101" lon="6.77293">
        <ele>1842</ele>
        <time>2016-07-04T06:31:42.000Z</time>
      </trkpt>
      <trkpt lat="46.221" lon="6.77293">
        <ele>1843</ele>
        <time>2016-07-04T06:31:43.000Z</time>
      </trkpt>
      <trkpt lat="46.22092" lon="6.77297">
        <ele>1841</ele>
        <time>2016-07-04T06:31:50.000Z</time>
      </trkpt>
      <trkpt lat="46.2209" lon="6.77298">
        <ele>1843</ele>
        <time>2016-07-04T06:31:51.000Z</time>
      </trkpt>
      <trkpt lat="46.22082" lon="6.77303">
        <ele>1841</ele>
        <time>2016-07-04T06:31:57.000Z</time>
      </trkpt>
      <trkpt lat="46.22081" lon="6.77304">
        <ele>1841</ele>
        <time>2016-07-04T06:31:58.000Z</time>
      </trkpt>
      <trkpt lat="46.22074" lon="6.77309">
        <ele>1843</ele>
        <time>2016-07-04T06:32:05.000Z</time>
      </trkpt>
      <trkpt lat="46.22072" lon="6.7731">
        <ele>1842</ele>
        <time>2016-07-04T06:32:06.000Z</time>
      </trkpt>
      <trkpt lat="46.22065" lon="6.77317">
        <ele>1843</ele>
        <time>2016-07-04T06:32:14.000Z</time>
      </trkpt>
      <trkpt lat="46.22064" lon="6.77318">
        <ele>1844</ele>
        <time>2016-07-04T06:32:15.000Z</time>
      </trkpt>
      <trkpt lat="46.22057" lon="6.77325">
        <ele>1844</ele>
        <time>2016-07-04T06:32:22.000Z</time>
      </trkpt>
      <trkpt lat="46.22057" lon="6.77325">
        <ele>1843</ele>
        <time>2016-07-04T06:32:23.000Z</time>
      </trkpt>
      <trkpt lat="46.2205" lon="6.77333">
        <ele>1840</ele>
        <time>2016-07-04T06:32:30.000Z</time>
      </trkpt>
      <trkpt lat="46.22049" lon="6.77334">
        <ele>1840</ele>
        <time>2016-07-04T06:32:31.000Z</time>
      </trkpt>
      <trkpt lat="46.22041" lon="6.77339">
        <ele>1842</ele>
        <time>2016-07-04T06:32:37.000Z</time>
      </trkpt>
      <trkpt lat="46.2204" lon="6.7734">
        <ele>1842</ele>
        <time>2016-07-04T06:32:38.000Z</time>
      </trkpt>
      <trkpt lat="46.22034" lon="6.77349">
        <ele>1842</ele>
        <time>2016-07-04T06:32:46.000Z</time>
      </trkpt>
      <trkpt lat="46.22033" lon="6.7735">
        <ele>1843</ele>
        <time>2016-07-04T06:32:47.000Z</time>
      </trkpt>
      <trkpt lat="46.22025" lon="6.77353">
        <ele>1843</ele>
        <time>2016-07-04T06:32:52.000Z</time>
      </trkpt>
      <trkpt lat="46.22024" lon="6.77354">
        <ele>1844</ele>
        <time>2016-07-04T06:32:53.000Z</time>
      </trkpt>
      <trkpt lat="46.22017" lon="6.77361">
        <ele>1841</ele>
        <time>2016-07-04T06:32:59.000Z</time>
      </trkpt>
      <trkpt lat="46.22016" lon="6.77363">
        <ele>1840</ele>
        <time>2016-07-04T06:33:00.000Z</time>
      </trkpt>
      <trkpt lat="46.2201" lon="6.77371">
        <ele>1840</ele>
        <time>2016-07-04T06:33:07.000Z</time>
      </trkpt>
      <trkpt lat="46.22009" lon="6.77371">
        <ele>1840</ele>
        <time>2016-07-04T06:33:08.000Z</time>
      </trkpt>
      <trkpt lat="46.22002" lon="6.77378">
        <ele>1840</ele>
        <time>2016-07-04T06:33:15.000Z</time>
      </trkpt>
      <trkpt lat="46.22001" lon="6.77379">
        <ele>1841</ele>
        <time>2016-07-04T06:33:16.000Z</time>
      </trkpt>
      <trkpt lat="46.21996" lon="6.77385">
        <ele>1842</ele>
        <time>2016-07-04T06:33:21.000Z</time>
      </trkpt>
      <trkpt lat="46.21993" lon="6.77387">
        <ele>1843</ele>
        <time>2016-07-04T06:33:22.000Z</time>
      </trkpt>
      <trkpt lat="46.21986" lon="6.77393">
        <ele>1846</ele>
        <time>2016-07-04T06:33:28.000Z</time>
      </trkpt>
      <trkpt lat="46.21984" lon="6.77394">
        <ele>1847</ele>
        <time>2016-07-04T06:33:29.000Z</time>
      </trkpt>
      <trkpt lat="46.2198" lon="6.77404">
        <ele>1846</ele>
        <time>2016-07-04T06:33:37.000Z</time>
      </trkpt>
      <trkpt lat="46.21979" lon="6.77405">
        <ele>1846</ele>
        <time>2016-07-04T06:33:38.000Z</time>
      </trkpt>
      <trkpt lat="46.21972" lon="6.77411">
        <ele>1846</ele>
        <time>2016-07-04T06:33:43.000Z</time>
      </trkpt>
      <trkpt lat="46.21971" lon="6.77412">
        <ele>1846</ele>
        <time>2016-07-04T06:33:44.000Z</time>
      </trkpt>
      <trkpt lat="46.21963" lon="6.77417">
        <ele>1844</ele>
        <time>2016-07-04T06:33:51.000Z</time>
      </trkpt>
      <trkpt lat="46.21962" lon="6.77419">
        <ele>1843</ele>
        <time>2016-07-04T06:33:52.000Z</time>
      </trkpt>
      <trkpt lat="46.21956" lon="6.77425">
        <ele>1844</ele>
        <time>2016-07-04T06:33:57.000Z</time>
      </trkpt>
      <trkpt lat="46.21955" lon="6.77427">
        <ele>1844</ele>
        <time>2016-07-04T06:33:58.000Z</time>
      </trkpt>
      <trkpt lat="46.21949" lon="6.77435">
        <ele>1841</ele>
        <time>2016-07-04T06:34:06.000Z</time>
      </trkpt>
      <trkpt lat="46.21948" lon="6.77435">
        <ele>1842</ele>
        <time>2016-07-04T06:34:07.000Z</time>
      </trkpt>
      <trkpt lat="46.21942" lon="6.77443">
        <ele>1841</ele>
        <time>2016-07-04T06:34:13.000Z</time>
      </trkpt>
      <trkpt lat="46.21941" lon="6.77445">
        <ele>1841</ele>
        <time>2016-07-04T06:34:14.000Z</time>
      </trkpt>
      <trkpt lat="46.21935" lon="6.7745">
        <ele>1841</ele>
        <time>2016-07-04T06:34:20.000Z</time>
      </trkpt>
      <trkpt lat="46.21933" lon="6.77453">
        <ele>1841</ele>
        <time>2016-07-04T06:34:21.000Z</time>
      </trkpt>
      <trkpt lat="46.21927" lon="6.77461">
        <ele>1843</ele>
        <time>2016-07-04T06:34:27.000Z</time>
      </trkpt>
      <trkpt lat="46.21926" lon="6.77463">
        <ele>1843</ele>
        <time>2016-07-04T06:34:28.000Z</time>
      </trkpt>
      <trkpt lat="46.2192" lon="6.77472">
        <ele>1841</ele>
        <time>2016-07-04T06:34:36.000Z</time>
      </trkpt>
      <trkpt lat="46.2192" lon="6.77473">
        <ele>1841</ele>
        <time>2016-07-04T06:34:37.000Z</time>
      </trkpt>
      <trkpt lat="46.21914" lon="6.77482">
        <ele>1843</ele>
        <time>2016-07-04T06:34:46.000Z</time>
      </trkpt>
      <trkpt lat="46.21912" lon="6.77484">
        <ele>1843</ele>
        <time>2016-07-04T06:34:47.000Z</time>
      </trkpt>
      <trkpt lat="46.21908" lon="6.77493">
        <ele>1843</ele>
        <time>2016-07-04T06:34:53.000Z</time>
      </trkpt>
      <trkpt lat="46.21907" lon="6.77494">
        <ele>1842</ele>
        <time>2016-07-04T06:34:54.000Z</time>
      </trkpt>
      <trkpt lat="46.21901" lon="6.77504">
        <ele>1842</ele>
        <time>2016-07-04T06:35:02.000Z</time>
      </trkpt>
      <trkpt lat="46.21901" lon="6.77505">
        <ele>1842</ele>
        <time>2016-07-04T06:35:03.000Z</time>
      </trkpt>
      <trkpt lat="46.21894" lon="6.77513">
        <ele>1845</ele>
        <time>2016-07-04T06:35:10.000Z</time>
      </trkpt>
      <trkpt lat="46.21894" lon="6.77516">
        <ele>1845</ele>
        <time>2016-07-04T06:35:11.000Z</time>
      </trkpt>
      <trkpt lat="46.2189" lon="6.77525">
        <ele>1848</ele>
        <time>2016-07-04T06:35:17.000Z</time>
      </trkpt>
      <trkpt lat="46.21889" lon="6.77528">
        <ele>1848</ele>
        <time>2016-07-04T06:35:18.000Z</time>
      </trkpt>
      <trkpt lat="46.21885" lon="6.77539">
        <ele>1846</ele>
        <time>2016-07-04T06:35:26.000Z</time>
      </trkpt>
      <trkpt lat="46.21885" lon="6.7754">
        <ele>1846</ele>
        <time>2016-07-04T06:35:27.000Z</time>
      </trkpt>
      <trkpt lat="46.21881" lon="6.7755">
        <ele>1850</ele>
        <time>2016-07-04T06:35:33.000Z</time>
      </trkpt>
      <trkpt lat="46.21881" lon="6.77552">
        <ele>1849</ele>
        <time>2016-07-04T06:35:34.000Z</time>
      </trkpt>
      <trkpt lat="46.21878" lon="6.77563">
        <ele>1845</ele>
        <time>2016-07-04T06:35:41.000Z</time>
      </trkpt>
      <trkpt lat="46.21877" lon="6.77564">
        <ele>1845</ele>
        <time>2016-07-04T06:35:42.000Z</time>
      </trkpt>
      <trkpt lat="46.21874" lon="6.77575">
        <ele>1847</ele>
        <time>2016-07-04T06:35:49.000Z</time>
      </trkpt>
      <trkpt lat="46.21874" lon="6.77578">
        <ele>1847</ele>
        <time>2016-07-04T06:35:50.000Z</time>
      </trkpt>
      <trkpt lat="46.21868" lon="6.77587">
        <ele>1845</ele>
        <time>2016-07-04T06:35:57.000Z</time>
      </trkpt>
      <trkpt lat="46.21867" lon="6.77589">
        <ele>1845</ele>
        <time>2016-07-04T06:35:58.000Z</time>
      </trkpt>
      <trkpt lat="46.21863" lon="6.77599">
        <ele>1850</ele>
        <time>2016-07-04T06:36:03.000Z</time>
      </trkpt>
      <trkpt lat="46.21862" lon="6.77601">
        <ele>1850</ele>
        <time>2016-07-04T06:36:04.000Z</time>
      </trkpt>
      <trkpt lat="46.21858" lon="6.77612">
        <ele>1851</ele>
        <time>2016-07-04T06:36:10.000Z</time>
      </trkpt>
      <trkpt lat="46.21857" lon="6.77614">
        <ele>1850</ele>
        <time>2016-07-04T06:36:11.000Z</time>
      </trkpt>
      <trkpt lat="46.21851" lon="6.77622">
        <ele>1852</ele>
        <time>2016-07-04T06:36:19.000Z</time>
      </trkpt>
      <trkpt lat="46.2185" lon="6.77624">
        <ele>1852</ele>
        <time>2016-07-04T06:36:20.000Z</time>
      </trkpt>
      <trkpt lat="46.21845" lon="6.77633">
        <ele>1852</ele>
        <time>2016-07-04T06:36:27.000Z</time>
      </trkpt>
      <trkpt lat="46.21844" lon="6.77636">
        <ele>1853</ele>
        <time>2016-07-04T06:36:28.000Z</time>
      </trkpt>
      <trkpt lat="46.2184" lon="6.77644">
        <ele>1855</ele>
        <time>2016-07-04T06:36:34.000Z</time>
      </trkpt>
      <trkpt lat="46.21838" lon="6.77645">
        <ele>1855</ele>
        <time>2016-07-04T06:36:35.000Z</time>
      </trkpt>
      <trkpt lat="46.21834" lon="6.77657">
        <ele>1855</ele>
        <time>2016-07-04T06:36:43.000Z</time>
      </trkpt>
      <trkpt lat="46.21832" lon="6.77658">
        <ele>1855</ele>
        <time>2016-07-04T06:36:44.000Z</time>
      </trkpt>
      <trkpt lat="46.21826" lon="6.77668">
        <ele>1855</ele>
        <time>2016-07-04T06:36:49.000Z</time>
      </trkpt>
      <trkpt lat="46.21826" lon="6.77669">
        <ele>1856</ele>
        <time>2016-07-04T06:36:50.000Z</time>
      </trkpt>
      <trkpt lat="46.21823" lon="6.77679">
        <ele>1857</ele>
        <time>2016-07-04T06:36:55.000Z</time>
      </trkpt>
      <trkpt lat="46.21821" lon="6.77681">
        <ele>1857</ele>
        <time>2016-07-04T06:36:56.000Z</time>
      </trkpt>
      <trkpt lat="46.21817" lon="6.77691">
        <ele>1859</ele>
        <time>2016-07-04T06:37:01.000Z</time>
      </trkpt>
      <trkpt lat="46.21816" lon="6.77693">
        <ele>1859</ele>
        <time>2016-07-04T06:37:02.000Z</time>
      </trkpt>
      <trkpt lat="46.21813" lon="6.77704">
        <ele>1863</ele>
        <time>2016-07-04T06:37:10.000Z</time>
      </trkpt>
      <trkpt lat="46.21813" lon="6.77705">
        <ele>1864</ele>
        <time>2016-07-04T06:37:11.000Z</time>
      </trkpt>
      <trkpt lat="46.21809" lon="6.77716">
        <ele>1864</ele>
        <time>2016-07-04T06:37:18.000Z</time>
      </trkpt>
      <trkpt lat="46.21808" lon="6.77717">
        <ele>1864</ele>
        <time>2016-07-04T06:37:19.000Z</time>
      </trkpt>
      <trkpt lat="46.21803" lon="6.77726">
        <ele>1863</ele>
        <time>2016-07-04T06:37:25.000Z</time>
      </trkpt>
      <trkpt lat="46.21802" lon="6.77727">
        <ele>1863</ele>
        <time>2016-07-04T06:37:26.000Z</time>
      </trkpt>
      <trkpt lat="46.21796" lon="6.77736">
        <ele>1863</ele>
        <time>2016-07-04T06:37:34.000Z</time>
      </trkpt>
      <trkpt lat="46.21795" lon="6.77737">
        <ele>1863</ele>
        <time>2016-07-04T06:37:35.000Z</time>
      </trkpt>
      <trkpt lat="46.21788" lon="6.77745">
        <ele>1865</ele>
        <time>2016-07-04T06:37:41.000Z</time>
      </trkpt>
      <trkpt lat="46.21788" lon="6.77746">
        <ele>1865</ele>
        <time>2016-07-04T06:37:42.000Z</time>
      </trkpt>
      <trkpt lat="46.21782" lon="6.77753">
        <ele>1864</ele>
        <time>2016-07-04T06:38:40.000Z</time>
      </trkpt>
      <trkpt lat="46.2178" lon="6.77753">
        <ele>1865</ele>
        <time>2016-07-04T06:38:41.000Z</time>
      </trkpt>
      <trkpt lat="46.21772" lon="6.77758">
        <ele>1864</ele>
        <time>2016-07-04T06:38:48.000Z</time>
      </trkpt>
      <trkpt lat="46.21771" lon="6.7776">
        <ele>1864</ele>
        <time>2016-07-04T06:38:49.000Z</time>
      </trkpt>
      <trkpt lat="46.21765" lon="6.77767">
        <ele>1865</ele>
        <time>2016-07-04T06:38:54.000Z</time>
      </trkpt>
      <trkpt lat="46.21764" lon="6.77768">
        <ele>1865</ele>
        <time>2016-07-04T06:38:55.000Z</time>
      </trkpt>
      <trkpt lat="46.21757" lon="6.77775">
        <ele>1865</ele>
        <time>2016-07-04T06:39:01.000Z</time>
      </trkpt>
      <trkpt lat="46.21756" lon="6.77776">
        <ele>1864</ele>
        <time>2016-07-04T06:39:02.000Z</time>
      </trkpt>
      <trkpt lat="46.21749" lon="6.77783">
        <ele>1865</ele>
        <time>2016-07-04T06:39:08.000Z</time>
      </trkpt>
      <trkpt lat="46.21748" lon="6.77785">
        <ele>1865</ele>
        <time>2016-07-04T06:39:09.000Z</time>
      </trkpt>
      <trkpt lat="46.21739" lon="6.77789">
        <ele>1866</ele>
        <time>2016-07-04T06:39:17.000Z</time>
      </trkpt>
      <trkpt lat="46.21738" lon="6.77789">
        <ele>1866</ele>
        <time>2016-07-04T06:39:18.000Z</time>
      </trkpt>
      <trkpt lat="46.2173" lon="6.77796">
        <ele>1866</ele>
        <time>2016-07-04T06:39:23.000Z</time>
      </trkpt>
      <trkpt lat="46.21729" lon="6.77797">
        <ele>1866</ele>
        <time>2016-07-04T06:39:24.000Z</time>
      </trkpt>
      <trkpt lat="46.21721" lon="6.77802">
        <ele>1868</ele>
        <time>2016-07-04T06:39:30.000Z</time>
      </trkpt>
      <trkpt lat="46.2172" lon="6.77803">
        <ele>1868</ele>
        <time>2016-07-04T06:39:31.000Z</time>
      </trkpt>
      <trkpt lat="46.21713" lon="6.77809">
        <ele>1871</ele>
        <time>2016-07-04T06:39:36.000Z</time>
      </trkpt>
      <trkpt lat="46.21712" lon="6.77809">
        <ele>1869</ele>
        <time>2016-07-04T06:39:37.000Z</time>
      </trkpt>
      <trkpt lat="46.21705" lon="6.77815">
        <ele>1867</ele>
        <time>2016-07-04T06:39:44.000Z</time>
      </trkpt>
      <trkpt lat="46.21703" lon="6.77816">
        <ele>1868</ele>
        <time>2016-07-04T06:39:45.000Z</time>
      </trkpt>
      <trkpt lat="46.21695" lon="6.77821">
        <ele>1866</ele>
        <time>2016-07-04T06:39:52.000Z</time>
      </trkpt>
      <trkpt lat="46.21694" lon="6.77823">
        <ele>1867</ele>
        <time>2016-07-04T06:39:53.000Z</time>
      </trkpt>
      <trkpt lat="46.21686" lon="6.77828">
        <ele>1867</ele>
        <time>2016-07-04T06:39:58.000Z</time>
      </trkpt>
      <trkpt lat="46.21685" lon="6.77829">
        <ele>1868</ele>
        <time>2016-07-04T06:39:59.000Z</time>
      </trkpt>
      <trkpt lat="46.21678" lon="6.77834">
        <ele>1867</ele>
        <time>2016-07-04T06:40:06.000Z</time>
      </trkpt>
      <trkpt lat="46.21675" lon="6.77835">
        <ele>1867</ele>
        <time>2016-07-04T06:40:07.000Z</time>
      </trkpt>
      <trkpt lat="46.21668" lon="6.77839">
        <ele>1866</ele>
        <time>2016-07-04T06:40:15.000Z</time>
      </trkpt>
      <trkpt lat="46.21666" lon="6.7784">
        <ele>1866</ele>
        <time>2016-07-04T06:40:16.000Z</time>
      </trkpt>
      <trkpt lat="46.21658" lon="6.77844">
        <ele>1868</ele>
        <time>2016-07-04T06:40:23.000Z</time>
      </trkpt>
      <trkpt lat="46.21657" lon="6.77844">
        <ele>1870</ele>
        <time>2016-07-04T06:40:24.000Z</time>
      </trkpt>
      <trkpt lat="46.21649" lon="6.77846">
        <ele>1871</ele>
        <time>2016-07-04T06:40:29.000Z</time>
      </trkpt>
      <trkpt lat="46.21648" lon="6.77847">
        <ele>1871</ele>
        <time>2016-07-04T06:40:30.000Z</time>
      </trkpt>
      <trkpt lat="46.2164" lon="6.77852">
        <ele>1874</ele>
        <time>2016-07-04T06:40:37.000Z</time>
      </trkpt>
      <trkpt lat="46.21639" lon="6.77851">
        <ele>1874</ele>
        <time>2016-07-04T06:40:38.000Z</time>
      </trkpt>
      <trkpt lat="46.21632" lon="6.77859">
        <ele>1876</ele>
        <time>2016-07-04T06:40:45.000Z</time>
      </trkpt>
      <trkpt lat="46.21632" lon="6.7786">
        <ele>1875</ele>
        <time>2016-07-04T06:40:46.000Z</time>
      </trkpt>
      <trkpt lat="46.21625" lon="6.77868">
        <ele>1874</ele>
        <time>2016-07-04T06:40:54.000Z</time>
      </trkpt>
      <trkpt lat="46.21624" lon="6.7787">
        <ele>1874</ele>
        <time>2016-07-04T06:40:55.000Z</time>
      </trkpt>
      <trkpt lat="46.21618" lon="6.77878">
        <ele>1873</ele>
        <time>2016-07-04T06:41:01.000Z</time>
      </trkpt>
      <trkpt lat="46.21617" lon="6.77879">
        <ele>1872</ele>
        <time>2016-07-04T06:41:02.000Z</time>
      </trkpt>
      <trkpt lat="46.21611" lon="6.77889">
        <ele>1871</ele>
        <time>2016-07-04T06:41:09.000Z</time>
      </trkpt>
      <trkpt lat="46.21611" lon="6.7789">
        <ele>1873</ele>
        <time>2016-07-04T06:41:10.000Z</time>
      </trkpt>
      <trkpt lat="46.21603" lon="6.77896">
        <ele>1876</ele>
        <time>2016-07-04T06:41:16.000Z</time>
      </trkpt>
      <trkpt lat="46.21603" lon="6.77897">
        <ele>1877</ele>
        <time>2016-07-04T06:41:17.000Z</time>
      </trkpt>
      <trkpt lat="46.21598" lon="6.77907">
        <ele>1877</ele>
        <time>2016-07-04T06:41:23.000Z</time>
      </trkpt>
      <trkpt lat="46.21596" lon="6.77909">
        <ele>1877</ele>
        <time>2016-07-04T06:41:24.000Z</time>
      </trkpt>
      <trkpt lat="46.21589" lon="6.77916">
        <ele>1877</ele>
        <time>2016-07-04T06:41:31.000Z</time>
      </trkpt>
      <trkpt lat="46.21587" lon="6.77918">
        <ele>1879</ele>
        <time>2016-07-04T06:41:32.000Z</time>
      </trkpt>
      <trkpt lat="46.21582" lon="6.77927">
        <ele>1879</ele>
        <time>2016-07-04T06:41:37.000Z</time>
      </trkpt>
      <trkpt lat="46.21581" lon="6.77928">
        <ele>1878</ele>
        <time>2016-07-04T06:41:38.000Z</time>
      </trkpt>
      <trkpt lat="46.21575" lon="6.77938">
        <ele>1878</ele>
        <time>2016-07-04T06:41:46.000Z</time>
      </trkpt>
      <trkpt lat="46.21574" lon="6.7794">
        <ele>1877</ele>
        <time>2016-07-04T06:41:47.000Z</time>
      </trkpt>
      <trkpt lat="46.21569" lon="6.77949">
        <ele>1878</ele>
        <time>2016-07-04T06:41:53.000Z</time>
      </trkpt>
      <trkpt lat="46.21568" lon="6.77951">
        <ele>1877</ele>
        <time>2016-07-04T06:41:54.000Z</time>
      </trkpt>
      <trkpt lat="46.21564" lon="6.77962">
        <ele>1875</ele>
        <time>2016-07-04T06:42:02.000Z</time>
      </trkpt>
      <trkpt lat="46.21564" lon="6.77963">
        <ele>1876</ele>
        <time>2016-07-04T06:42:03.000Z</time>
      </trkpt>
      <trkpt lat="46.21561" lon="6.77975">
        <ele>1876</ele>
        <time>2016-07-04T06:42:10.000Z</time>
      </trkpt>
      <trkpt lat="46.21561" lon="6.77976">
        <ele>1876</ele>
        <time>2016-07-04T06:42:11.000Z</time>
      </trkpt>
      <trkpt lat="46.21557" lon="6.77988">
        <ele>1874</ele>
        <time>2016-07-04T06:42:17.000Z</time>
      </trkpt>
      <trkpt lat="46.21557" lon="6.7799">
        <ele>1875</ele>
        <time>2016-07-04T06:42:18.000Z</time>
      </trkpt>
      <trkpt lat="46.21553" lon="6.78001">
        <ele>1876</ele>
        <time>2016-07-04T06:42:24.000Z</time>
      </trkpt>
      <trkpt lat="46.21552" lon="6.78002">
        <ele>1876</ele>
        <time>2016-07-04T06:42:25.000Z</time>
      </trkpt>
      <trkpt lat="46.21546" lon="6.78011">
        <ele>1873</ele>
        <time>2016-07-04T06:42:32.000Z</time>
      </trkpt>
      <trkpt lat="46.21545" lon="6.78013">
        <ele>1874</ele>
        <time>2016-07-04T06:42:33.000Z</time>
      </trkpt>
      <trkpt lat="46.21544" lon="6.78025">
        <ele>1874</ele>
        <time>2016-07-04T06:42:39.000Z</time>
      </trkpt>
      <trkpt lat="46.21544" lon="6.78028">
        <ele>1873</ele>
        <time>2016-07-04T06:42:40.000Z</time>
      </trkpt>
      <trkpt lat="46.21543" lon="6.7804">
        <ele>1876</ele>
        <time>2016-07-04T06:42:47.000Z</time>
      </trkpt>
      <trkpt lat="46.21542" lon="6.78042">
        <ele>1876</ele>
        <time>2016-07-04T06:42:48.000Z</time>
      </trkpt>
      <trkpt lat="46.21539" lon="6.78053">
        <ele>1874</ele>
        <time>2016-07-04T06:42:54.000Z</time>
      </trkpt>
      <trkpt lat="46.21538" lon="6.78056">
        <ele>1874</ele>
        <time>2016-07-04T06:42:55.000Z</time>
      </trkpt>
      <trkpt lat="46.21538" lon="6.78068">
        <ele>1873</ele>
        <time>2016-07-04T06:43:01.000Z</time>
      </trkpt>
      <trkpt lat="46.21538" lon="6.7807">
        <ele>1873</ele>
        <time>2016-07-04T06:43:02.000Z</time>
      </trkpt>
      <trkpt lat="46.21537" lon="6.78081">
        <ele>1872</ele>
        <time>2016-07-04T06:43:08.000Z</time>
      </trkpt>
      <trkpt lat="46.21537" lon="6.78083">
        <ele>1873</ele>
        <time>2016-07-04T06:43:09.000Z</time>
      </trkpt>
      <trkpt lat="46.21533" lon="6.78095">
        <ele>1872</ele>
        <time>2016-07-04T06:43:16.000Z</time>
      </trkpt>
      <trkpt lat="46.21533" lon="6.78096">
        <ele>1872</ele>
        <time>2016-07-04T06:43:17.000Z</time>
      </trkpt>
      <trkpt lat="46.21529" lon="6.78105">
        <ele>1871</ele>
        <time>2016-07-04T06:43:24.000Z</time>
      </trkpt>
      <trkpt lat="46.21529" lon="6.78108">
        <ele>1871</ele>
        <time>2016-07-04T06:43:25.000Z</time>
      </trkpt>
      <trkpt lat="46.21527" lon="6.78119">
        <ele>1871</ele>
        <time>2016-07-04T06:43:31.000Z</time>
      </trkpt>
      <trkpt lat="46.21527" lon="6.78121">
        <ele>1871</ele>
        <time>2016-07-04T06:43:32.000Z</time>
      </trkpt>
      <trkpt lat="46.21524" lon="6.78131">
        <ele>1871</ele>
        <time>2016-07-04T06:43:37.000Z</time>
      </trkpt>
      <trkpt lat="46.21523" lon="6.78135">
        <ele>1871</ele>
        <time>2016-07-04T06:43:38.000Z</time>
      </trkpt>
      <trkpt lat="46.21522" lon="6.78146">
        <ele>1873</ele>
        <time>2016-07-04T06:43:44.000Z</time>
      </trkpt>
      <trkpt lat="46.21521" lon="6.78148">
        <ele>1873</ele>
        <time>2016-07-04T06:43:45.000Z</time>
      </trkpt>
      <trkpt lat="46.2152" lon="6.78157">
        <ele>1875</ele>
        <time>2016-07-04T06:43:49.000Z</time>
      </trkpt>
      <trkpt lat="46.21519" lon="6.7816">
        <ele>1873</ele>
        <time>2016-07-04T06:43:50.000Z</time>
      </trkpt>
      <trkpt lat="46.21517" lon="6.78173">
        <ele>1873</ele>
        <time>2016-07-04T06:43:57.000Z</time>
      </trkpt>
      <trkpt lat="46.21517" lon="6.78175">
        <ele>1873</ele>
        <time>2016-07-04T06:43:58.000Z</time>
      </trkpt>
      <trkpt lat="46.21517" lon="6.78186">
        <ele>1870</ele>
        <time>2016-07-04T06:44:04.000Z</time>
      </trkpt>
      <trkpt lat="46.21517" lon="6.78189">
        <ele>1870</ele>
        <time>2016-07-04T06:44:05.000Z</time>
      </trkpt>
      <trkpt lat="46.21514" lon="6.782">
        <ele>1875</ele>
        <time>2016-07-04T06:44:10.000Z</time>
      </trkpt>
      <trkpt lat="46.21513" lon="6.78201">
        <ele>1876</ele>
        <time>2016-07-04T06:44:11.000Z</time>
      </trkpt>
      <trkpt lat="46.21508" lon="6.78211">
        <ele>1874</ele>
        <time>2016-07-04T06:44:18.000Z</time>
      </trkpt>
      <trkpt lat="46.21508" lon="6.78213">
        <ele>1873</ele>
        <time>2016-07-04T06:44:19.000Z</time>
      </trkpt>
      <trkpt lat="46.21503" lon="6.78222">
        <ele>1873</ele>
        <time>2016-07-04T06:44:24.000Z</time>
      </trkpt>
      <trkpt lat="46.21502" lon="6.78224">
        <ele>1874</ele>
        <time>2016-07-04T06:44:25.000Z</time>
      </trkpt>
      <trkpt lat="46.21499" lon="6.78235">
        <ele>1874</ele>
        <time>2016-07-04T06:44:33.000Z</time>
      </trkpt>
      <trkpt lat="46.21498" lon="6.78236">
        <ele>1875</ele>
        <time>2016-07-04T06:44:34.000Z</time>
      </trkpt>
      <trkpt lat="46.21496" lon="6.78247">
        <ele>1878</ele>
        <time>2016-07-04T06:44:40.000Z</time>
      </trkpt>
      <trkpt lat="46.21495" lon="6.78249">
        <ele>1878</ele>
        <time>2016-07-04T06:44:41.000Z</time>
      </trkpt>
      <trkpt lat="46.21492" lon="6.7826">
        <ele>1879</ele>
        <time>2016-07-04T06:44:47.000Z</time>
      </trkpt>
      <trkpt lat="46.21491" lon="6.78261">
        <ele>1879</ele>
        <time>2016-07-04T06:44:48.000Z</time>
      </trkpt>
      <trkpt lat="46.21485" lon="6.78269">
        <ele>1878</ele>
        <time>2016-07-04T06:44:53.000Z</time>
      </trkpt>
      <trkpt lat="46.21484" lon="6.78271">
        <ele>1878</ele>
        <time>2016-07-04T06:44:54.000Z</time>
      </trkpt>
      <trkpt lat="46.21478" lon="6.78281">
        <ele>1879</ele>
        <time>2016-07-04T06:45:00.000Z</time>
      </trkpt>
      <trkpt lat="46.21478" lon="6.78282">
        <ele>1878</ele>
        <time>2016-07-04T06:45:01.000Z</time>
      </trkpt>
      <trkpt lat="46.21474" lon="6.78293">
        <ele>1876</ele>
        <time>2016-07-04T06:45:10.000Z</time>
      </trkpt>
      <trkpt lat="46.21473" lon="6.78295">
        <ele>1876</ele>
        <time>2016-07-04T06:45:11.000Z</time>
      </trkpt>
      <trkpt lat="46.21466" lon="6.78302">
        <ele>1875</ele>
        <time>2016-07-04T06:45:16.000Z</time>
      </trkpt>
      <trkpt lat="46.21465" lon="6.78303">
        <ele>1875</ele>
        <time>2016-07-04T06:45:17.000Z</time>
      </trkpt>
      <trkpt lat="46.21459" lon="6.78312">
        <ele>1875</ele>
        <time>2016-07-04T06:45:22.000Z</time>
      </trkpt>
      <trkpt lat="46.21458" lon="6.78312">
        <ele>1874</ele>
        <time>2016-07-04T06:45:23.000Z</time>
      </trkpt>
      <trkpt lat="46.21451" lon="6.78319">
        <ele>1875</ele>
        <time>2016-07-04T06:45:30.000Z</time>
      </trkpt>
      <trkpt lat="46.2145" lon="6.7832">
        <ele>1875</ele>
        <time>2016-07-04T06:45:31.000Z</time>
      </trkpt>
      <trkpt lat="46.21444" lon="6.78326">
        <ele>1875</ele>
        <time>2016-07-04T06:45:36.000Z</time>
      </trkpt>
      <trkpt lat="46.21443" lon="6.78328">
        <ele>1875</ele>
        <time>2016-07-04T06:45:37.000Z</time>
      </trkpt>
      <trkpt lat="46.21436" lon="6.78336">
        <ele>1876</ele>
        <time>2016-07-04T06:45:44.000Z</time>
      </trkpt>
      <trkpt lat="46.21434" lon="6.78338">
        <ele>1877</ele>
        <time>2016-07-04T06:45:45.000Z</time>
      </trkpt>
      <trkpt lat="46.21427" lon="6.78346">
        <ele>1875</ele>
        <time>2016-07-04T06:45:52.000Z</time>
      </trkpt>
      <trkpt lat="46.21426" lon="6.78347">
        <ele>1876</ele>
        <time>2016-07-04T06:45:53.000Z</time>
      </trkpt>
      <trkpt lat="46.21418" lon="6.78352">
        <ele>1877</ele>
        <time>2016-07-04T06:46:00.000Z</time>
      </trkpt>
      <trkpt lat="46.21417" lon="6.78353">
        <ele>1876</ele>
        <time>2016-07-04T06:46:01.000Z</time>
      </trkpt>
      <trkpt lat="46.21409" lon="6.7836">
        <ele>1875</ele>
        <time>2016-07-04T06:46:06.000Z</time>
      </trkpt>
      <trkpt lat="46.21408" lon="6.78362">
        <ele>1875</ele>
        <time>2016-07-04T06:46:07.000Z</time>
      </trkpt>
      <trkpt lat="46.21401" lon="6.7837">
        <ele>1873</ele>
        <time>2016-07-04T06:46:14.000Z</time>
      </trkpt>
      <trkpt lat="46.214" lon="6.7837">
        <ele>1874</ele>
        <time>2016-07-04T06:46:15.000Z</time>
      </trkpt>
      <trkpt lat="46.21393" lon="6.78376">
        <ele>1875</ele>
        <time>2016-07-04T06:46:20.000Z</time>
      </trkpt>
      <trkpt lat="46.21392" lon="6.78378">
        <ele>1875</ele>
        <time>2016-07-04T06:46:21.000Z</time>
      </trkpt>
      <trkpt lat="46.21385" lon="6.78386">
        <ele>1877</ele>
        <time>2016-07-04T06:46:27.000Z</time>
      </trkpt>
      <trkpt lat="46.21384" lon="6.78387">
        <ele>1877</ele>
        <time>2016-07-04T06:46:28.000Z</time>
      </trkpt>
      <trkpt lat="46.21377" lon="6.78394">
        <ele>1874</ele>
        <time>2016-07-04T06:46:36.000Z</time>
      </trkpt>
      <trkpt lat="46.21375" lon="6.78394">
        <ele>1874</ele>
        <time>2016-07-04T06:46:37.000Z</time>
      </trkpt>
      <trkpt lat="46.21369" lon="6.78403">
        <ele>1876</ele>
        <time>2016-07-04T06:46:43.000Z</time>
      </trkpt>
      <trkpt lat="46.21368" lon="6.78405">
        <ele>1875</ele>
        <time>2016-07-04T06:46:44.000Z</time>
      </trkpt>
      <trkpt lat="46.21361" lon="6.78412">
        <ele>1877</ele>
        <time>2016-07-04T06:46:50.000Z</time>
      </trkpt>
      <trkpt lat="46.2136" lon="6.78413">
        <ele>1877</ele>
        <time>2016-07-04T06:46:51.000Z</time>
      </trkpt>
      <trkpt lat="46.21353" lon="6.7842">
        <ele>1875</ele>
        <time>2016-07-04T06:46:55.000Z</time>
      </trkpt>
      <trkpt lat="46.21351" lon="6.78421">
        <ele>1875</ele>
        <time>2016-07-04T06:46:56.000Z</time>
      </trkpt>
      <trkpt lat="46.21344" lon="6.78428">
        <ele>1873</ele>
        <time>2016-07-04T06:47:03.000Z</time>
      </trkpt>
      <trkpt lat="46.21344" lon="6.78429">
        <ele>1872</ele>
        <time>2016-07-04T06:47:04.000Z</time>
      </trkpt>
      <trkpt lat="46.21337" lon="6.78437">
        <ele>1873</ele>
        <time>2016-07-04T06:47:10.000Z</time>
      </trkpt>
      <trkpt lat="46.21336" lon="6.78438">
        <ele>1874</ele>
        <time>2016-07-04T06:47:11.000Z</time>
      </trkpt>
      <trkpt lat="46.21329" lon="6.78444">
        <ele>1877</ele>
        <time>2016-07-04T06:47:17.000Z</time>
      </trkpt>
      <trkpt lat="46.21329" lon="6.78447">
        <ele>1876</ele>
        <time>2016-07-04T06:47:18.000Z</time>
      </trkpt>
      <trkpt lat="46.21322" lon="6.78455">
        <ele>1876</ele>
        <time>2016-07-04T06:47:27.000Z</time>
      </trkpt>
      <trkpt lat="46.21321" lon="6.78455">
        <ele>1877</ele>
        <time>2016-07-04T06:47:28.000Z</time>
      </trkpt>
      <trkpt lat="46.21313" lon="6.78458">
        <ele>1879</ele>
        <time>2016-07-04T06:47:33.000Z</time>
      </trkpt>
      <trkpt lat="46.21312" lon="6.78459">
        <ele>1879</ele>
        <time>2016-07-04T06:47:34.000Z</time>
      </trkpt>
      <trkpt lat="46.21303" lon="6.78463">
        <ele>1879</ele>
        <time>2016-07-04T06:47:39.000Z</time>
      </trkpt>
      <trkpt lat="46.21301" lon="6.78464">
        <ele>1879</ele>
        <time>2016-07-04T06:47:40.000Z</time>
      </trkpt>
      <trkpt lat="46.21294" lon="6.78466">
        <ele>1880</ele>
        <time>2016-07-04T06:47:44.000Z</time>
      </trkpt>
      <trkpt lat="46.21292" lon="6.78468">
        <ele>1880</ele>
        <time>2016-07-04T06:47:45.000Z</time>
      </trkpt>
      <trkpt lat="46.21284" lon="6.78472">
        <ele>1879</ele>
        <time>2016-07-04T06:47:52.000Z</time>
      </trkpt>
      <trkpt lat="46.21283" lon="6.78472">
        <ele>1880</ele>
        <time>2016-07-04T06:47:53.000Z</time>
      </trkpt>
      <trkpt lat="46.21275" lon="6.78475">
        <ele>1879</ele>
        <time>2016-07-04T06:47:59.000Z</time>
      </trkpt>
      <trkpt lat="46.21274" lon="6.78475">
        <ele>1879</ele>
        <time>2016-07-04T06:48:00.000Z</time>
      </trkpt>
      <trkpt lat="46.21266" lon="6.78478">
        <ele>1881</ele>
        <time>2016-07-04T06:48:05.000Z</time>
      </trkpt>
      <trkpt lat="46.21264" lon="6.78478">
        <ele>1881</ele>
        <time>2016-07-04T06:48:06.000Z</time>
      </trkpt>
      <trkpt lat="46.21257" lon="6.78484">
        <ele>1878</ele>
        <time>2016-07-04T06:48:11.000Z</time>
      </trkpt>
      <trkpt lat="46.21255" lon="6.78485">
        <ele>1879</ele>
        <time>2016-07-04T06:48:12.000Z</time>
      </trkpt>
      <trkpt lat="46.21248" lon="6.7849">
        <ele>1880</ele>
        <time>2016-07-04T06:48:17.000Z</time>
      </trkpt>
      <trkpt lat="46.21246" lon="6.78491">
        <ele>1880</ele>
        <time>2016-07-04T06:48:18.000Z</time>
      </trkpt>
      <trkpt lat="46.2124" lon="6.78497">
        <ele>1880</ele>
        <time>2016-07-04T06:48:22.000Z</time>
      </trkpt>
      <trkpt lat="46.21239" lon="6.78498">
        <ele>1880</ele>
        <time>2016-07-04T06:48:23.000Z</time>
      </trkpt>
      <trkpt lat="46.21232" lon="6.78506">
        <ele>1880</ele>
        <time>2016-07-04T06:48:29.000Z</time>
      </trkpt>
      <trkpt lat="46.21231" lon="6.78507">
        <ele>1881</ele>
        <time>2016-07-04T06:48:30.000Z</time>
      </trkpt>
      <trkpt lat="46.21224" lon="6.78514">
        <ele>1877</ele>
        <time>2016-07-04T06:48:38.000Z</time>
      </trkpt>
      <trkpt lat="46.21223" lon="6.78514">
        <ele>1878</ele>
        <time>2016-07-04T06:48:39.000Z</time>
      </trkpt>
      <trkpt lat="46.21216" lon="6.78524">
        <ele>1879</ele>
        <time>2016-07-04T06:48:45.000Z</time>
      </trkpt>
      <trkpt lat="46.21215" lon="6.78526">
        <ele>1877</ele>
        <time>2016-07-04T06:48:46.000Z</time>
      </trkpt>
      <trkpt lat="46.21209" lon="6.78533">
        <ele>1875</ele>
        <time>2016-07-04T06:48:51.000Z</time>
      </trkpt>
      <trkpt lat="46.21208" lon="6.78534">
        <ele>1875</ele>
        <time>2016-07-04T06:48:52.000Z</time>
      </trkpt>
      <trkpt lat="46.212" lon="6.78536">
        <ele>1877</ele>
        <time>2016-07-04T06:48:56.000Z</time>
      </trkpt>
      <trkpt lat="46.21198" lon="6.78537">
        <ele>1877</ele>
        <time>2016-07-04T06:48:57.000Z</time>
      </trkpt>
      <trkpt lat="46.2119" lon="6.78539">
        <ele>1876</ele>
        <time>2016-07-04T06:49:05.000Z</time>
      </trkpt>
      <trkpt lat="46.21189" lon="6.78539">
        <ele>1877</ele>
        <time>2016-07-04T06:49:06.000Z</time>
      </trkpt>
      <trkpt lat="46.21182" lon="6.78547">
        <ele>1874</ele>
        <time>2016-07-04T06:49:14.000Z</time>
      </trkpt>
      <trkpt lat="46.21181" lon="6.78548">
        <ele>1874</ele>
        <time>2016-07-04T06:49:15.000Z</time>
      </trkpt>
      <trkpt lat="46.21178" lon="6.78559">
        <ele>1875</ele>
        <time>2016-07-04T06:49:23.000Z</time>
      </trkpt>
      <trkpt lat="46.21177" lon="6.78561">
        <ele>1874</ele>
        <time>2016-07-04T06:49:24.000Z</time>
      </trkpt>
      <trkpt lat="46.21174" lon="6.78573">
        <ele>1875</ele>
        <time>2016-07-04T06:49:30.000Z</time>
      </trkpt>
      <trkpt lat="46.21174" lon="6.78575">
        <ele>1874</ele>
        <time>2016-07-04T06:49:31.000Z</time>
      </trkpt>
      <trkpt lat="46.21172" lon="6.78587">
        <ele>1870</ele>
        <time>2016-07-04T06:49:36.000Z</time>
      </trkpt>
      <trkpt lat="46.21172" lon="6.78589">
        <ele>1870</ele>
        <time>2016-07-04T06:49:37.000Z</time>
      </trkpt>
      <trkpt lat="46.2117" lon="6.786">
        <ele>1869</ele>
        <time>2016-07-04T06:49:41.000Z</time>
      </trkpt>
      <trkpt lat="46.2117" lon="6.78602">
        <ele>1869</ele>
        <time>2016-07-04T06:49:42.000Z</time>
      </trkpt>
      <trkpt lat="46.21168" lon="6.78614">
        <ele>1868</ele>
        <time>2016-07-04T06:49:47.000Z</time>
      </trkpt>
      <trkpt lat="46.21168" lon="6.78616">
        <ele>1868</ele>
        <time>2016-07-04T06:49:48.000Z</time>
      </trkpt>
      <trkpt lat="46.21164" lon="6.78625">
        <ele>1869</ele>
        <time>2016-07-04T06:49:53.000Z</time>
      </trkpt>
      <trkpt lat="46.21163" lon="6.78627">
        <ele>1869</ele>
        <time>2016-07-04T06:49:54.000Z</time>
      </trkpt>
      <trkpt lat="46.21161" lon="6.78637">
        <ele>1870</ele>
        <time>2016-07-04T06:49:59.000Z</time>
      </trkpt>
      <trkpt lat="46.21159" lon="6.7864">
        <ele>1870</ele>
        <time>2016-07-04T06:50:00.000Z</time>
      </trkpt>
      <trkpt lat="46.21155" lon="6.78649">
        <ele>1873</ele>
        <time>2016-07-04T06:50:04.000Z</time>
      </trkpt>
      <trkpt lat="46.21154" lon="6.78652">
        <ele>1872</ele>
        <time>2016-07-04T06:50:05.000Z</time>
      </trkpt>
      <trkpt lat="46.21147" lon="6.78661">
        <ele>1873</ele>
        <time>2016-07-04T06:50:14.000Z</time>
      </trkpt>
      <trkpt lat="46.21146" lon="6.78662">
        <ele>1872</ele>
        <time>2016-07-04T06:50:15.000Z</time>
      </trkpt>
      <trkpt lat="46.21141" lon="6.78673">
        <ele>1872</ele>
        <time>2016-07-04T06:50:22.000Z</time>
      </trkpt>
      <trkpt lat="46.21141" lon="6.78674">
        <ele>1872</ele>
        <time>2016-07-04T06:50:23.000Z</time>
      </trkpt>
      <trkpt lat="46.21135" lon="6.78681">
        <ele>1873</ele>
        <time>2016-07-04T06:50:27.000Z</time>
      </trkpt>
      <trkpt lat="46.21134" lon="6.78683">
        <ele>1875</ele>
        <time>2016-07-04T06:50:28.000Z</time>
      </trkpt>
      <trkpt lat="46.21129" lon="6.78691">
        <ele>1876</ele>
        <time>2016-07-04T06:50:32.000Z</time>
      </trkpt>
      <trkpt lat="46.21128" lon="6.78693">
        <ele>1875</ele>
        <time>2016-07-04T06:50:33.000Z</time>
      </trkpt>
      <trkpt lat="46.21121" lon="6.787">
        <ele>1874</ele>
        <time>2016-07-04T06:50:40.000Z</time>
      </trkpt>
      <trkpt lat="46.2112" lon="6.78701">
        <ele>1874</ele>
        <time>2016-07-04T06:50:41.000Z</time>
      </trkpt>
      <trkpt lat="46.21114" lon="6.78708">
        <ele>1870</ele>
        <time>2016-07-04T06:50:46.000Z</time>
      </trkpt>
      <trkpt lat="46.21112" lon="6.78709">
        <ele>1872</ele>
        <time>2016-07-04T06:50:47.000Z</time>
      </trkpt>
      <trkpt lat="46.21106" lon="6.78715">
        <ele>1874</ele>
        <time>2016-07-04T06:50:51.000Z</time>
      </trkpt>
      <trkpt lat="46.21105" lon="6.78716">
        <ele>1874</ele>
        <time>2016-07-04T06:50:52.000Z</time>
      </trkpt>
      <trkpt lat="46.21098" lon="6.78724">
        <ele>1874</ele>
        <time>2016-07-04T06:51:00.000Z</time>
      </trkpt>
      <trkpt lat="46.21096" lon="6.78724">
        <ele>1874</ele>
        <time>2016-07-04T06:51:01.000Z</time>
      </trkpt>
      <trkpt lat="46.21089" lon="6.78726">
        <ele>1875</ele>
        <time>2016-07-04T06:51:04.000Z</time>
      </trkpt>
      <trkpt lat="46.21087" lon="6.78726">
        <ele>1875</ele>
        <time>2016-07-04T06:51:05.000Z</time>
      </trkpt>
      <trkpt lat="46.21079" lon="6.7873">
        <ele>1874</ele>
        <time>2016-07-04T06:51:11.000Z</time>
      </trkpt>
      <trkpt lat="46.21078" lon="6.78731">
        <ele>1874</ele>
        <time>2016-07-04T06:51:12.000Z</time>
      </trkpt>
      <trkpt lat="46.21072" lon="6.78735">
        <ele>1872</ele>
        <time>2016-07-04T06:51:17.000Z</time>
      </trkpt>
      <trkpt lat="46.2107" lon="6.78736">
        <ele>1870</ele>
        <time>2016-07-04T06:51:18.000Z</time>
      </trkpt>
      <trkpt lat="46.21062" lon="6.78742">
        <ele>1869</ele>
        <time>2016-07-04T06:51:24.000Z</time>
      </trkpt>
      <trkpt lat="46.2106" lon="6.78743">
        <ele>1870</ele>
        <time>2016-07-04T06:51:25.000Z</time>
      </trkpt>
      <trkpt lat="46.21055" lon="6.78751">
        <ele>1871</ele>
        <time>2016-07-04T06:51:30.000Z</time>
      </trkpt>
      <trkpt lat="46.21053" lon="6.78751">
        <ele>1870</ele>
        <time>2016-07-04T06:51:31.000Z</time>
      </trkpt>
      <trkpt lat="46.21047" lon="6.7876">
        <ele>1866</ele>
        <time>2016-07-04T06:51:39.000Z</time>
      </trkpt>
      <trkpt lat="46.21047" lon="6.78762">
        <ele>1865</ele>
        <time>2016-07-04T06:51:40.000Z</time>
      </trkpt>
      <trkpt lat="46.2104" lon="6.78769">
        <ele>1869</ele>
        <time>2016-07-04T06:51:46.000Z</time>
      </trkpt>
      <trkpt lat="46.21038" lon="6.7877">
        <ele>1869</ele>
        <time>2016-07-04T06:51:47.000Z</time>
      </trkpt>
      <trkpt lat="46.2103" lon="6.78776">
        <ele>1868</ele>
        <time>2016-07-04T06:51:55.000Z</time>
      </trkpt>
      <trkpt lat="46.21029" lon="6.78776">
        <ele>1868</ele>
        <time>2016-07-04T06:51:56.000Z</time>
      </trkpt>
      <trkpt lat="46.21021" lon="6.7878">
        <ele>1868</ele>
        <time>2016-07-04T06:52:01.000Z</time>
      </trkpt>
      <trkpt lat="46.21019" lon="6.7878">
        <ele>1868</ele>
        <time>2016-07-04T06:52:02.000Z</time>
      </trkpt>
      <trkpt lat="46.21013" lon="6.78786">
        <ele>1872</ele>
        <time>2016-07-04T06:52:06.000Z</time>
      </trkpt>
      <trkpt lat="46.21011" lon="6.78788">
        <ele>1872</ele>
        <time>2016-07-04T06:52:07.000Z</time>
      </trkpt>
      <trkpt lat="46.21004" lon="6.78794">
        <ele>1871</ele>
        <time>2016-07-04T06:52:15.000Z</time>
      </trkpt>
      <trkpt lat="46.21003" lon="6.78794">
        <ele>1871</ele>
        <time>2016-07-04T06:52:16.000Z</time>
      </trkpt>
      <trkpt lat="46.20997" lon="6.78801">
        <ele>1870</ele>
        <time>2016-07-04T06:52:22.000Z</time>
      </trkpt>
      <trkpt lat="46.20996" lon="6.78803">
        <ele>1870</ele>
        <time>2016-07-04T06:52:23.000Z</time>
      </trkpt>
      <trkpt lat="46.2099" lon="6.78811">
        <ele>1871</ele>
        <time>2016-07-04T06:52:29.000Z</time>
      </trkpt>
      <trkpt lat="46.20989" lon="6.78813">
        <ele>1871</ele>
        <time>2016-07-04T06:52:30.000Z</time>
      </trkpt>
      <trkpt lat="46.20983" lon="6.78819">
        <ele>1872</ele>
        <time>2016-07-04T06:52:34.000Z</time>
      </trkpt>
      <trkpt lat="46.20982" lon="6.7882">
        <ele>1872</ele>
        <time>2016-07-04T06:52:35.000Z</time>
      </trkpt>
      <trkpt lat="46.20974" lon="6.78826">
        <ele>1871</ele>
        <time>2016-07-04T06:52:39.000Z</time>
      </trkpt>
      <trkpt lat="46.20973" lon="6.78827">
        <ele>1871</ele>
        <time>2016-07-04T06:52:40.000Z</time>
      </trkpt>
      <trkpt lat="46.20966" lon="6.78834">
        <ele>1869</ele>
        <time>2016-07-04T06:52:47.000Z</time>
      </trkpt>
      <trkpt lat="46.20965" lon="6.78834">
        <ele>1870</ele>
        <time>2016-07-04T06:52:48.000Z</time>
      </trkpt>
      <trkpt lat="46.20958" lon="6.78834">
        <ele>1869</ele>
        <time>2016-07-04T06:52:53.000Z</time>
      </trkpt>
      <trkpt lat="46.20955" lon="6.78834">
        <ele>1869</ele>
        <time>2016-07-04T06:52:54.000Z</time>
      </trkpt>
      <trkpt lat="46.20947" lon="6.78831">
        <ele>1866</ele>
        <time>2016-07-04T06:53:02.000Z</time>
      </trkpt>
      <trkpt lat="46.20946" lon="6.78829">
        <ele>1866</ele>
        <time>2016-07-04T06:53:03.000Z</time>
      </trkpt>
      <trkpt lat="46.20939" lon="6.78822">
        <ele>1866</ele>
        <time>2016-07-04T06:53:08.000Z</time>
      </trkpt>
      <trkpt lat="46.20938" lon="6.7882">
        <ele>1866</ele>
        <time>2016-07-04T06:53:09.000Z</time>
      </trkpt>
      <trkpt lat="46.2093" lon="6.78815">
        <ele>1866</ele>
        <time>2016-07-04T06:53:17.000Z</time>
      </trkpt>
      <trkpt lat="46.20928" lon="6.78814">
        <ele>1865</ele>
        <time>2016-07-04T06:53:18.000Z</time>
      </trkpt>
      <trkpt lat="46.2092" lon="6.7881">
        <ele>1866</ele>
        <time>2016-07-04T06:53:25.000Z</time>
      </trkpt>
      <trkpt lat="46.20918" lon="6.78807">
        <ele>1867</ele>
        <time>2016-07-04T06:53:26.000Z</time>
      </trkpt>
      <trkpt lat="46.2091" lon="6.78803">
        <ele>1870</ele>
        <time>2016-07-04T06:53:31.000Z</time>
      </trkpt>
      <trkpt lat="46.20908" lon="6.78801">
        <ele>1870</ele>
        <time>2016-07-04T06:53:32.000Z</time>
      </trkpt>
      <trkpt lat="46.209" lon="6.788">
        <ele>1867</ele>
        <time>2016-07-04T06:53:39.000Z</time>
      </trkpt>
      <trkpt lat="46.20898" lon="6.78799">
        <ele>1867</ele>
        <time>2016-07-04T06:53:40.000Z</time>
      </trkpt>
      <trkpt lat="46.2089" lon="6.78798">
        <ele>1868</ele>
        <time>2016-07-04T06:53:49.000Z</time>
      </trkpt>
      <trkpt lat="46.20888" lon="6.78799">
        <ele>1868</ele>
        <time>2016-07-04T06:53:50.000Z</time>
      </trkpt>
      <trkpt lat="46.2088" lon="6.78801">
        <ele>1869</ele>
        <time>2016-07-04T06:53:57.000Z</time>
      </trkpt>
      <trkpt lat="46.20878" lon="6.78801">
        <ele>1870</ele>
        <time>2016-07-04T06:53:58.000Z</time>
      </trkpt>
      <trkpt lat="46.20869" lon="6.78801">
        <ele>1870</ele>
        <time>2016-07-04T06:54:05.000Z</time>
      </trkpt>
      <trkpt lat="46.20868" lon="6.78801">
        <ele>1869</ele>
        <time>2016-07-04T06:54:06.000Z</time>
      </trkpt>
      <trkpt lat="46.2086" lon="6.78803">
        <ele>1869</ele>
        <time>2016-07-04T06:54:12.000Z</time>
      </trkpt>
      <trkpt lat="46.20859" lon="6.78803">
        <ele>1868</ele>
        <time>2016-07-04T06:54:13.000Z</time>
      </trkpt>
      <trkpt lat="46.20852" lon="6.78808">
        <ele>1867</ele>
        <time>2016-07-04T06:54:18.000Z</time>
      </trkpt>
      <trkpt lat="46.2085" lon="6.78808">
        <ele>1867</ele>
        <time>2016-07-04T06:54:19.000Z</time>
      </trkpt>
      <trkpt lat="46.20842" lon="6.78812">
        <ele>1867</ele>
        <time>2016-07-04T06:54:25.000Z</time>
      </trkpt>
      <trkpt lat="46.20841" lon="6.78812">
        <ele>1868</ele>
        <time>2016-07-04T06:54:26.000Z</time>
      </trkpt>
      <trkpt lat="46.20833" lon="6.78816">
        <ele>1864</ele>
        <time>2016-07-04T06:54:35.000Z</time>
      </trkpt>
      <trkpt lat="46.20832" lon="6.78817">
        <ele>1864</ele>
        <time>2016-07-04T06:54:36.000Z</time>
      </trkpt>
      <trkpt lat="46.20824" lon="6.78821">
        <ele>1862</ele>
        <time>2016-07-04T06:54:41.000Z</time>
      </trkpt>
      <trkpt lat="46.20822" lon="6.78821">
        <ele>1863</ele>
        <time>2016-07-04T06:54:42.000Z</time>
      </trkpt>
      <trkpt lat="46.20814" lon="6.78822">
        <ele>1865</ele>
        <time>2016-07-04T06:54:47.000Z</time>
      </trkpt>
      <trkpt lat="46.20812" lon="6.78822">
        <ele>1865</ele>
        <time>2016-07-04T06:54:48.000Z</time>
      </trkpt>
      <trkpt lat="46.20804" lon="6.78818">
        <ele>1863</ele>
        <time>2016-07-04T06:54:55.000Z</time>
      </trkpt>
      <trkpt lat="46.20803" lon="6.78817">
        <ele>1863</ele>
        <time>2016-07-04T06:54:56.000Z</time>
      </trkpt>
      <trkpt lat="46.20794" lon="6.78814">
        <ele>1863</ele>
        <time>2016-07-04T06:55:04.000Z</time>
      </trkpt>
      <trkpt lat="46.20792" lon="6.78814">
        <ele>1864</ele>
        <time>2016-07-04T06:55:05.000Z</time>
      </trkpt>
      <trkpt lat="46.20784" lon="6.78813">
        <ele>1863</ele>
        <time>2016-07-04T06:55:11.000Z</time>
      </trkpt>
      <trkpt lat="46.20783" lon="6.78812">
        <ele>1863</ele>
        <time>2016-07-04T06:55:12.000Z</time>
      </trkpt>
      <trkpt lat="46.20775" lon="6.78808">
        <ele>1865</ele>
        <time>2016-07-04T06:55:18.000Z</time>
      </trkpt>
      <trkpt lat="46.20773" lon="6.78808">
        <ele>1865</ele>
        <time>2016-07-04T06:55:19.000Z</time>
      </trkpt>
      <trkpt lat="46.20765" lon="6.78807">
        <ele>1863</ele>
        <time>2016-07-04T06:55:27.000Z</time>
      </trkpt>
      <trkpt lat="46.20764" lon="6.78807">
        <ele>1864</ele>
        <time>2016-07-04T06:55:28.000Z</time>
      </trkpt>
      <trkpt lat="46.20757" lon="6.78813">
        <ele>1863</ele>
        <time>2016-07-04T06:55:50.000Z</time>
      </trkpt>
      <trkpt lat="46.20755" lon="6.78814">
        <ele>1864</ele>
        <time>2016-07-04T06:55:51.000Z</time>
      </trkpt>
      <trkpt lat="46.20747" lon="6.78819">
        <ele>1867</ele>
        <time>2016-07-04T06:55:58.000Z</time>
      </trkpt>
      <trkpt lat="46.20746" lon="6.7882">
        <ele>1866</ele>
        <time>2016-07-04T06:55:59.000Z</time>
      </trkpt>
      <trkpt lat="46.20742" lon="6.78831">
        <ele>1872</ele>
        <time>2016-07-04T06:56:08.000Z</time>
      </trkpt>
      <trkpt lat="46.20743" lon="6.78833">
        <ele>1871</ele>
        <time>2016-07-04T06:56:09.000Z</time>
      </trkpt>
      <trkpt lat="46.20739" lon="6.78843">
        <ele>1868</ele>
        <time>2016-07-04T06:56:19.000Z</time>
      </trkpt>
      <trkpt lat="46.20737" lon="6.78844">
        <ele>1867</ele>
        <time>2016-07-04T06:56:20.000Z</time>
      </trkpt>
      <trkpt lat="46.20732" lon="6.78853">
        <ele>1865</ele>
        <time>2016-07-04T06:56:27.000Z</time>
      </trkpt>
      <trkpt lat="46.20731" lon="6.78855">
        <ele>1866</ele>
        <time>2016-07-04T06:56:28.000Z</time>
      </trkpt>
      <trkpt lat="46.20726" lon="6.78865">
        <ele>1866</ele>
        <time>2016-07-04T06:56:35.000Z</time>
      </trkpt>
      <trkpt lat="46.20726" lon="6.78867">
        <ele>1868</ele>
        <time>2016-07-04T06:56:36.000Z</time>
      </trkpt>
      <trkpt lat="46.20723" lon="6.78879">
        <ele>1869</ele>
        <time>2016-07-04T06:56:44.000Z</time>
      </trkpt>
      <trkpt lat="46.20722" lon="6.7888">
        <ele>1870</ele>
        <time>2016-07-04T06:56:45.000Z</time>
      </trkpt>
      <trkpt lat="46.20717" lon="6.78889">
        <ele>1872</ele>
        <time>2016-07-04T06:56:50.000Z</time>
      </trkpt>
      <trkpt lat="46.20717" lon="6.7889">
        <ele>1872</ele>
        <time>2016-07-04T06:56:51.000Z</time>
      </trkpt>
      <trkpt lat="46.20712" lon="6.789">
        <ele>1872</ele>
        <time>2016-07-04T06:56:58.000Z</time>
      </trkpt>
      <trkpt lat="46.20712" lon="6.78901">
        <ele>1872</ele>
        <time>2016-07-04T06:56:59.000Z</time>
      </trkpt>
      <trkpt lat="46.20709" lon="6.78912">
        <ele>1872</ele>
        <time>2016-07-04T06:57:06.000Z</time>
      </trkpt>
      <trkpt lat="46.20708" lon="6.78914">
        <ele>1871</ele>
        <time>2016-07-04T06:57:07.000Z</time>
      </trkpt>
      <trkpt lat="46.20704" lon="6.78924">
        <ele>1871</ele>
        <time>2016-07-04T06:57:13.000Z</time>
      </trkpt>
      <trkpt lat="46.20703" lon="6.78926">
        <ele>1871</ele>
        <time>2016-07-04T06:57:14.000Z</time>
      </trkpt>
      <trkpt lat="46.20702" lon="6.78938">
        <ele>1870</ele>
        <time>2016-07-04T06:57:21.000Z</time>
      </trkpt>
      <trkpt lat="46.20702" lon="6.78939">
        <ele>1869</ele>
        <time>2016-07-04T06:57:22.000Z</time>
      </trkpt>
      <trkpt lat="46.207" lon="6.78951">
        <ele>1868</ele>
        <time>2016-07-04T06:57:33.000Z</time>
      </trkpt>
      <trkpt lat="46.207" lon="6.78953">
        <ele>1870</ele>
        <time>2016-07-04T06:57:34.000Z</time>
      </trkpt>
      <trkpt lat="46.207" lon="6.78965">
        <ele>1870</ele>
        <time>2016-07-04T06:57:43.000Z</time>
      </trkpt>
      <trkpt lat="46.207" lon="6.78967">
        <ele>1870</ele>
        <time>2016-07-04T06:57:44.000Z</time>
      </trkpt>
      <trkpt lat="46.20691" lon="6.78972">
        <ele>1870</ele>
        <time>2016-07-04T06:57:51.000Z</time>
      </trkpt>
      <trkpt lat="46.2069" lon="6.78972">
        <ele>1871</ele>
        <time>2016-07-04T06:57:52.000Z</time>
      </trkpt>
      <trkpt lat="46.20682" lon="6.78978">
        <ele>1877</ele>
        <time>2016-07-04T06:58:02.000Z</time>
      </trkpt>
      <trkpt lat="46.20682" lon="6.7898">
        <ele>1877</ele>
        <time>2016-07-04T06:58:03.000Z</time>
      </trkpt>
      <trkpt lat="46.20679" lon="6.78983">
        <ele>1877</ele>
        <time>2016-07-04T06:58:07.000Z</time>
      </trkpt>
      <trkpt lat="46.20678" lon="6.78984">
        <ele>1877</ele>
        <time>2016-07-04T06:58:08.000Z</time>
      </trkpt>
      <trkpt lat="46.20677" lon="6.78984">
        <ele>1877</ele>
        <time>2016-07-04T06:58:09.000Z</time>
      </trkpt>
      <trkpt lat="46.20669" lon="6.78988">
        <ele>1876</ele>
        <time>2016-07-04T06:58:20.000Z</time>
      </trkpt>
      <trkpt lat="46.20668" lon="6.78989">
        <ele>1876</ele>
        <time>2016-07-04T06:58:21.000Z</time>
      </trkpt>
      <trkpt lat="46.20659" lon="6.78993">
        <ele>1879</ele>
        <time>2016-07-04T06:58:30.000Z</time>
      </trkpt>
      <trkpt lat="46.20658" lon="6.78994">
        <ele>1879</ele>
        <time>2016-07-04T06:58:31.000Z</time>
      </trkpt>
      <trkpt lat="46.20651" lon="6.79001">
        <ele>1881</ele>
        <time>2016-07-04T06:58:40.000Z</time>
      </trkpt>
      <trkpt lat="46.2065" lon="6.79003">
        <ele>1882</ele>
        <time>2016-07-04T06:58:41.000Z</time>
      </trkpt>
      <trkpt lat="46.20642" lon="6.79008">
        <ele>1884</ele>
        <time>2016-07-04T06:58:48.000Z</time>
      </trkpt>
      <trkpt lat="46.20641" lon="6.79009">
        <ele>1883</ele>
        <time>2016-07-04T06:58:49.000Z</time>
      </trkpt>
      <trkpt lat="46.20635" lon="6.79016">
        <ele>1882</ele>
        <time>2016-07-04T06:58:59.000Z</time>
      </trkpt>
      <trkpt lat="46.20633" lon="6.79016">
        <ele>1882</ele>
        <time>2016-07-04T06:59:00.000Z</time>
      </trkpt>
      <trkpt lat="46.20626" lon="6.79023">
        <ele>1884</ele>
        <time>2016-07-04T06:59:09.000Z</time>
      </trkpt>
      <trkpt lat="46.20625" lon="6.79023">
        <ele>1884</ele>
        <time>2016-07-04T06:59:10.000Z</time>
      </trkpt>
      <trkpt lat="46.20619" lon="6.79031">
        <ele>1888</ele>
        <time>2016-07-04T06:59:21.000Z</time>
      </trkpt>
      <trkpt lat="46.20618" lon="6.79032">
        <ele>1889</ele>
        <time>2016-07-04T06:59:22.000Z</time>
      </trkpt>
      <trkpt lat="46.20612" lon="6.7904">
        <ele>1891</ele>
        <time>2016-07-04T06:59:31.000Z</time>
      </trkpt>
      <trkpt lat="46.20611" lon="6.79041">
        <ele>1891</ele>
        <time>2016-07-04T06:59:32.000Z</time>
      </trkpt>
      <trkpt lat="46.20606" lon="6.7905">
        <ele>1890</ele>
        <time>2016-07-04T06:59:39.000Z</time>
      </trkpt>
      <trkpt lat="46.20604" lon="6.79051">
        <ele>1889</ele>
        <time>2016-07-04T06:59:40.000Z</time>
      </trkpt>
      <trkpt lat="46.20598" lon="6.7906">
        <ele>1890</ele>
        <time>2016-07-04T06:59:49.000Z</time>
      </trkpt>
      <trkpt lat="46.20597" lon="6.79061">
        <ele>1892</ele>
        <time>2016-07-04T06:59:50.000Z</time>
      </trkpt>
      <trkpt lat="46.20591" lon="6.7907">
        <ele>1895</ele>
        <time>2016-07-04T06:59:59.000Z</time>
      </trkpt>
      <trkpt lat="46.20591" lon="6.7907">
        <ele>1895</ele>
        <time>2016-07-04T07:00:00.000Z</time>
      </trkpt>
      <trkpt lat="46.20589" lon="6.79082">
        <ele>1895</ele>
        <time>2016-07-04T07:00:15.000Z</time>
      </trkpt>
      <trkpt lat="46.20589" lon="6.79083">
        <ele>1895</ele>
        <time>2016-07-04T07:00:16.000Z</time>
      </trkpt>
      <trkpt lat="46.20585" lon="6.79094">
        <ele>1897</ele>
        <time>2016-07-04T07:00:23.000Z</time>
      </trkpt>
      <trkpt lat="46.20585" lon="6.79096">
        <ele>1896</ele>
        <time>2016-07-04T07:00:24.000Z</time>
      </trkpt>
      <trkpt lat="46.2058" lon="6.79104">
        <ele>1896</ele>
        <time>2016-07-04T07:00:29.000Z</time>
      </trkpt>
      <trkpt lat="46.20579" lon="6.79106">
        <ele>1896</ele>
        <time>2016-07-04T07:00:30.000Z</time>
      </trkpt>
      <trkpt lat="46.20574" lon="6.79114">
        <ele>1895</ele>
        <time>2016-07-04T07:00:38.000Z</time>
      </trkpt>
      <trkpt lat="46.20572" lon="6.79116">
        <ele>1893</ele>
        <time>2016-07-04T07:00:39.000Z</time>
      </trkpt>
      <trkpt lat="46.20565" lon="6.79122">
        <ele>1892</ele>
        <time>2016-07-04T07:00:46.000Z</time>
      </trkpt>
      <trkpt lat="46.20563" lon="6.79123">
        <ele>1891</ele>
        <time>2016-07-04T07:00:47.000Z</time>
      </trkpt>
      <trkpt lat="46.20557" lon="6.79132">
        <ele>1890</ele>
        <time>2016-07-04T07:00:55.000Z</time>
      </trkpt>
      <trkpt lat="46.20556" lon="6.79131">
        <ele>1891</ele>
        <time>2016-07-04T07:00:56.000Z</time>
      </trkpt>
      <trkpt lat="46.20551" lon="6.79141">
        <ele>1889</ele>
        <time>2016-07-04T07:01:02.000Z</time>
      </trkpt>
      <trkpt lat="46.2055" lon="6.79142">
        <ele>1890</ele>
        <time>2016-07-04T07:01:03.000Z</time>
      </trkpt>
      <trkpt lat="46.20542" lon="6.79147">
        <ele>1892</ele>
        <time>2016-07-04T07:01:11.000Z</time>
      </trkpt>
      <trkpt lat="46.20541" lon="6.79149">
        <ele>1891</ele>
        <time>2016-07-04T07:01:12.000Z</time>
      </trkpt>
      <trkpt lat="46.20535" lon="6.79154">
        <ele>1894</ele>
        <time>2016-07-04T07:01:19.000Z</time>
      </trkpt>
      <trkpt lat="46.20533" lon="6.79155">
        <ele>1894</ele>
        <time>2016-07-04T07:01:20.000Z</time>
      </trkpt>
      <trkpt lat="46.20527" lon="6.79164">
        <ele>1895</ele>
        <time>2016-07-04T07:01:27.000Z</time>
      </trkpt>
      <trkpt lat="46.20526" lon="6.79165">
        <ele>1894</ele>
        <time>2016-07-04T07:01:28.000Z</time>
      </trkpt>
      <trkpt lat="46.20519" lon="6.79169">
        <ele>1896</ele>
        <time>2016-07-04T07:01:34.000Z</time>
      </trkpt>
      <trkpt lat="46.20517" lon="6.7917">
        <ele>1896</ele>
        <time>2016-07-04T07:01:35.000Z</time>
      </trkpt>
      <trkpt lat="46.20511" lon="6.79177">
        <ele>1895</ele>
        <time>2016-07-04T07:01:41.000Z</time>
      </trkpt>
      <trkpt lat="46.2051" lon="6.79178">
        <ele>1895</ele>
        <time>2016-07-04T07:01:42.000Z</time>
      </trkpt>
      <trkpt lat="46.20503" lon="6.79183">
        <ele>1895</ele>
        <time>2016-07-04T07:01:48.000Z</time>
      </trkpt>
      <trkpt lat="46.20501" lon="6.79183">
        <ele>1895</ele>
        <time>2016-07-04T07:01:49.000Z</time>
      </trkpt>
      <trkpt lat="46.20493" lon="6.79185">
        <ele>1897</ele>
        <time>2016-07-04T07:01:57.000Z</time>
      </trkpt>
      <trkpt lat="46.20492" lon="6.79186">
        <ele>1898</ele>
        <time>2016-07-04T07:01:58.000Z</time>
      </trkpt>
      <trkpt lat="46.20485" lon="6.7919">
        <ele>1902</ele>
        <time>2016-07-04T07:02:07.000Z</time>
      </trkpt>
      <trkpt lat="46.20483" lon="6.79189">
        <ele>1901</ele>
        <time>2016-07-04T07:02:08.000Z</time>
      </trkpt>
      <trkpt lat="46.20476" lon="6.79195">
        <ele>1900</ele>
        <time>2016-07-04T07:02:17.000Z</time>
      </trkpt>
      <trkpt lat="46.20475" lon="6.79196">
        <ele>1900</ele>
        <time>2016-07-04T07:02:18.000Z</time>
      </trkpt>
      <trkpt lat="46.20467" lon="6.79199">
        <ele>1898</ele>
        <time>2016-07-04T07:02:25.000Z</time>
      </trkpt>
      <trkpt lat="46.20466" lon="6.79199">
        <ele>1899</ele>
        <time>2016-07-04T07:02:26.000Z</time>
      </trkpt>
      <trkpt lat="46.20458" lon="6.79204">
        <ele>1902</ele>
        <time>2016-07-04T07:02:36.000Z</time>
      </trkpt>
      <trkpt lat="46.20458" lon="6.79205">
        <ele>1901</ele>
        <time>2016-07-04T07:02:37.000Z</time>
      </trkpt>
      <trkpt lat="46.20451" lon="6.79212">
        <ele>1905</ele>
        <time>2016-07-04T07:02:48.000Z</time>
      </trkpt>
      <trkpt lat="46.2045" lon="6.79213">
        <ele>1906</ele>
        <time>2016-07-04T07:02:49.000Z</time>
      </trkpt>
      <trkpt lat="46.20442" lon="6.79215">
        <ele>1908</ele>
        <time>2016-07-04T07:02:58.000Z</time>
      </trkpt>
      <trkpt lat="46.2044" lon="6.79215">
        <ele>1908</ele>
        <time>2016-07-04T07:02:59.000Z</time>
      </trkpt>
      <trkpt lat="46.20432" lon="6.7922">
        <ele>1906</ele>
        <time>2016-07-04T07:03:08.000Z</time>
      </trkpt>
      <trkpt lat="46.20431" lon="6.7922">
        <ele>1906</ele>
        <time>2016-07-04T07:03:09.000Z</time>
      </trkpt>
      <trkpt lat="46.20423" lon="6.79224">
        <ele>1908</ele>
        <time>2016-07-04T07:03:16.000Z</time>
      </trkpt>
      <trkpt lat="46.20423" lon="6.79224">
        <ele>1908</ele>
        <time>2016-07-04T07:03:17.000Z</time>
      </trkpt>
      <trkpt lat="46.20415" lon="6.79226">
        <ele>1912</ele>
        <time>2016-07-04T07:03:25.000Z</time>
      </trkpt>
      <trkpt lat="46.20414" lon="6.79226">
        <ele>1912</ele>
        <time>2016-07-04T07:03:26.000Z</time>
      </trkpt>
      <trkpt lat="46.20405" lon="6.79232">
        <ele>1916</ele>
        <time>2016-07-04T07:03:34.000Z</time>
      </trkpt>
      <trkpt lat="46.20404" lon="6.79232">
        <ele>1916</ele>
        <time>2016-07-04T07:03:35.000Z</time>
      </trkpt>
      <trkpt lat="46.20395" lon="6.79232">
        <ele>1916</ele>
        <time>2016-07-04T07:03:44.000Z</time>
      </trkpt>
      <trkpt lat="46.20393" lon="6.79232">
        <ele>1917</ele>
        <time>2016-07-04T07:03:45.000Z</time>
      </trkpt>
      <trkpt lat="46.20385" lon="6.79235">
        <ele>1919</ele>
        <time>2016-07-04T07:03:53.000Z</time>
      </trkpt>
      <trkpt lat="46.20383" lon="6.79234">
        <ele>1919</ele>
        <time>2016-07-04T07:03:54.000Z</time>
      </trkpt>
      <trkpt lat="46.20376" lon="6.79239">
        <ele>1917</ele>
        <time>2016-07-04T07:04:01.000Z</time>
      </trkpt>
      <trkpt lat="46.20374" lon="6.7924">
        <ele>1918</ele>
        <time>2016-07-04T07:04:02.000Z</time>
      </trkpt>
      <trkpt lat="46.20367" lon="6.79247">
        <ele>1924</ele>
        <time>2016-07-04T07:04:10.000Z</time>
      </trkpt>
      <trkpt lat="46.20366" lon="6.79247">
        <ele>1923</ele>
        <time>2016-07-04T07:04:11.000Z</time>
      </trkpt>
      <trkpt lat="46.20358" lon="6.79245">
        <ele>1920</ele>
        <time>2016-07-04T07:04:21.000Z</time>
      </trkpt>
      <trkpt lat="46.20357" lon="6.79246">
        <ele>1920</ele>
        <time>2016-07-04T07:04:22.000Z</time>
      </trkpt>
      <trkpt lat="46.20348" lon="6.79245">
        <ele>1917</ele>
        <time>2016-07-04T07:04:28.000Z</time>
      </trkpt>
      <trkpt lat="46.20346" lon="6.79246">
        <ele>1919</ele>
        <time>2016-07-04T07:04:29.000Z</time>
      </trkpt>
      <trkpt lat="46.20338" lon="6.7925">
        <ele>1918</ele>
        <time>2016-07-04T07:04:36.000Z</time>
      </trkpt>
      <trkpt lat="46.20337" lon="6.79252">
        <ele>1919</ele>
        <time>2016-07-04T07:04:37.000Z</time>
      </trkpt>
      <trkpt lat="46.20332" lon="6.79262">
        <ele>1920</ele>
        <time>2016-07-04T07:04:41.000Z</time>
      </trkpt>
      <trkpt lat="46.20331" lon="6.79264">
        <ele>1921</ele>
        <time>2016-07-04T07:04:42.000Z</time>
      </trkpt>
      <trkpt lat="46.20325" lon="6.79271">
        <ele>1916</ele>
        <time>2016-07-04T07:04:50.000Z</time>
      </trkpt>
      <trkpt lat="46.20323" lon="6.79272">
        <ele>1915</ele>
        <time>2016-07-04T07:04:51.000Z</time>
      </trkpt>
      <trkpt lat="46.20318" lon="6.7928">
        <ele>1918</ele>
        <time>2016-07-04T07:04:56.000Z</time>
      </trkpt>
      <trkpt lat="46.20316" lon="6.79281">
        <ele>1917</ele>
        <time>2016-07-04T07:04:57.000Z</time>
      </trkpt>
      <trkpt lat="46.2031" lon="6.79289">
        <ele>1918</ele>
        <time>2016-07-04T07:05:04.000Z</time>
      </trkpt>
      <trkpt lat="46.20309" lon="6.79289">
        <ele>1916</ele>
        <time>2016-07-04T07:05:05.000Z</time>
      </trkpt>
      <trkpt lat="46.20303" lon="6.79298">
        <ele>1916</ele>
        <time>2016-07-04T07:05:12.000Z</time>
      </trkpt>
      <trkpt lat="46.20302" lon="6.79299">
        <ele>1916</ele>
        <time>2016-07-04T07:05:13.000Z</time>
      </trkpt>
      <trkpt lat="46.20296" lon="6.79307">
        <ele>1913</ele>
        <time>2016-07-04T07:05:19.000Z</time>
      </trkpt>
      <trkpt lat="46.20295" lon="6.79308">
        <ele>1913</ele>
        <time>2016-07-04T07:05:20.000Z</time>
      </trkpt>
      <trkpt lat="46.2029" lon="6.79316">
        <ele>1916</ele>
        <time>2016-07-04T07:05:27.000Z</time>
      </trkpt>
      <trkpt lat="46.20289" lon="6.79318">
        <ele>1916</ele>
        <time>2016-07-04T07:05:28.000Z</time>
      </trkpt>
      <trkpt lat="46.20282" lon="6.79325">
        <ele>1914</ele>
        <time>2016-07-04T07:05:36.000Z</time>
      </trkpt>
      <trkpt lat="46.2028" lon="6.79327">
        <ele>1914</ele>
        <time>2016-07-04T07:05:37.000Z</time>
      </trkpt>
      <trkpt lat="46.20274" lon="6.79335">
        <ele>1915</ele>
        <time>2016-07-04T07:05:44.000Z</time>
      </trkpt>
      <trkpt lat="46.20273" lon="6.79337">
        <ele>1915</ele>
        <time>2016-07-04T07:05:45.000Z</time>
      </trkpt>
      <trkpt lat="46.20267" lon="6.79346">
        <ele>1915</ele>
        <time>2016-07-04T07:05:54.000Z</time>
      </trkpt>
      <trkpt lat="46.20266" lon="6.79347">
        <ele>1917</ele>
        <time>2016-07-04T07:05:55.000Z</time>
      </trkpt>
      <trkpt lat="46.20261" lon="6.79357">
        <ele>1916</ele>
        <time>2016-07-04T07:06:05.000Z</time>
      </trkpt>
      <trkpt lat="46.20259" lon="6.79359">
        <ele>1916</ele>
        <time>2016-07-04T07:06:06.000Z</time>
      </trkpt>
      <trkpt lat="46.20255" lon="6.79368">
        <ele>1920</ele>
        <time>2016-07-04T07:06:14.000Z</time>
      </trkpt>
      <trkpt lat="46.20254" lon="6.7937">
        <ele>1920</ele>
        <time>2016-07-04T07:06:15.000Z</time>
      </trkpt>
      <trkpt lat="46.20249" lon="6.7938">
        <ele>1920</ele>
        <time>2016-07-04T07:06:23.000Z</time>
      </trkpt>
      <trkpt lat="46.20249" lon="6.79381">
        <ele>1921</ele>
        <time>2016-07-04T07:06:24.000Z</time>
      </trkpt>
      <trkpt lat="46.20243" lon="6.7939">
        <ele>1925</ele>
        <time>2016-07-04T07:06:33.000Z</time>
      </trkpt>
      <trkpt lat="46.20243" lon="6.79391">
        <ele>1926</ele>
        <time>2016-07-04T07:06:34.000Z</time>
      </trkpt>
      <trkpt lat="46.20238" lon="6.79401">
        <ele>1927</ele>
        <time>2016-07-04T07:06:42.000Z</time>
      </trkpt>
      <trkpt lat="46.20237" lon="6.79402">
        <ele>1927</ele>
        <time>2016-07-04T07:06:43.000Z</time>
      </trkpt>
      <trkpt lat="46.20231" lon="6.79411">
        <ele>1926</ele>
        <time>2016-07-04T07:06:52.000Z</time>
      </trkpt>
      <trkpt lat="46.2023" lon="6.79412">
        <ele>1927</ele>
        <time>2016-07-04T07:06:53.000Z</time>
      </trkpt>
      <trkpt lat="46.20225" lon="6.79422">
        <ele>1928</ele>
        <time>2016-07-04T07:07:04.000Z</time>
      </trkpt>
      <trkpt lat="46.20224" lon="6.79423">
        <ele>1927</ele>
        <time>2016-07-04T07:07:05.000Z</time>
      </trkpt>
      <trkpt lat="46.20218" lon="6.7943">
        <ele>1929</ele>
        <time>2016-07-04T07:07:12.000Z</time>
      </trkpt>
      <trkpt lat="46.20216" lon="6.79431">
        <ele>1928</ele>
        <time>2016-07-04T07:07:13.000Z</time>
      </trkpt>
      <trkpt lat="46.20211" lon="6.7944">
        <ele>1933</ele>
        <time>2016-07-04T07:07:24.000Z</time>
      </trkpt>
      <trkpt lat="46.2021" lon="6.79441">
        <ele>1933</ele>
        <time>2016-07-04T07:07:25.000Z</time>
      </trkpt>
      <trkpt lat="46.20204" lon="6.79448">
        <ele>1933</ele>
        <time>2016-07-04T07:07:35.000Z</time>
      </trkpt>
      <trkpt lat="46.20203" lon="6.79449">
        <ele>1933</ele>
        <time>2016-07-04T07:07:36.000Z</time>
      </trkpt>
      <trkpt lat="46.20196" lon="6.79458">
        <ele>1934</ele>
        <time>2016-07-04T07:07:46.000Z</time>
      </trkpt>
      <trkpt lat="46.20195" lon="6.7946">
        <ele>1935</ele>
        <time>2016-07-04T07:07:47.000Z</time>
      </trkpt>
      <trkpt lat="46.20191" lon="6.7947">
        <ele>1933</ele>
        <time>2016-07-04T07:07:57.000Z</time>
      </trkpt>
      <trkpt lat="46.20191" lon="6.79472">
        <ele>1934</ele>
        <time>2016-07-04T07:07:58.000Z</time>
      </trkpt>
      <trkpt lat="46.20186" lon="6.79481">
        <ele>1933</ele>
        <time>2016-07-04T07:08:07.000Z</time>
      </trkpt>
      <trkpt lat="46.20185" lon="6.79483">
        <ele>1931</ele>
        <time>2016-07-04T07:08:08.000Z</time>
      </trkpt>
      <trkpt lat="46.2018" lon="6.79494">
        <ele>1933</ele>
        <time>2016-07-04T07:08:17.000Z</time>
      </trkpt>
      <trkpt lat="46.20179" lon="6.79494">
        <ele>1933</ele>
        <time>2016-07-04T07:08:18.000Z</time>
      </trkpt>
      <trkpt lat="46.20172" lon="6.795">
        <ele>1933</ele>
        <time>2016-07-04T07:08:23.000Z</time>
      </trkpt>
      <trkpt lat="46.20171" lon="6.79502">
        <ele>1932</ele>
        <time>2016-07-04T07:08:24.000Z</time>
      </trkpt>
      <trkpt lat="46.20166" lon="6.79511">
        <ele>1934</ele>
        <time>2016-07-04T07:08:31.000Z</time>
      </trkpt>
      <trkpt lat="46.20164" lon="6.79512">
        <ele>1935</ele>
        <time>2016-07-04T07:08:32.000Z</time>
      </trkpt>
      <trkpt lat="46.20159" lon="6.79523">
        <ele>1939</ele>
        <time>2016-07-04T07:08:41.000Z</time>
      </trkpt>
      <trkpt lat="46.20159" lon="6.79524">
        <ele>1939</ele>
        <time>2016-07-04T07:08:42.000Z</time>
      </trkpt>
      <trkpt lat="46.20155" lon="6.79534">
        <ele>1941</ele>
        <time>2016-07-04T07:08:49.000Z</time>
      </trkpt>
      <trkpt lat="46.20154" lon="6.79535">
        <ele>1940</ele>
        <time>2016-07-04T07:08:50.000Z</time>
      </trkpt>
      <trkpt lat="46.20151" lon="6.79547">
        <ele>1942</ele>
        <time>2016-07-04T07:08:59.000Z</time>
      </trkpt>
      <trkpt lat="46.20151" lon="6.79549">
        <ele>1941</ele>
        <time>2016-07-04T07:09:00.000Z</time>
      </trkpt>
      <trkpt lat="46.20147" lon="6.79559">
        <ele>1947</ele>
        <time>2016-07-04T07:09:08.000Z</time>
      </trkpt>
      <trkpt lat="46.20147" lon="6.79561">
        <ele>1948</ele>
        <time>2016-07-04T07:09:09.000Z</time>
      </trkpt>
      <trkpt lat="46.20142" lon="6.79571">
        <ele>1951</ele>
        <time>2016-07-04T07:09:18.000Z</time>
      </trkpt>
      <trkpt lat="46.20141" lon="6.79572">
        <ele>1951</ele>
        <time>2016-07-04T07:09:19.000Z</time>
      </trkpt>
      <trkpt lat="46.20137" lon="6.79583">
        <ele>1951</ele>
        <time>2016-07-04T07:09:28.000Z</time>
      </trkpt>
      <trkpt lat="46.20136" lon="6.79585">
        <ele>1951</ele>
        <time>2016-07-04T07:09:29.000Z</time>
      </trkpt>
      <trkpt lat="46.20132" lon="6.79593">
        <ele>1950</ele>
        <time>2016-07-04T07:09:37.000Z</time>
      </trkpt>
      <trkpt lat="46.2013" lon="6.79595">
        <ele>1951</ele>
        <time>2016-07-04T07:09:38.000Z</time>
      </trkpt>
      <trkpt lat="46.20123" lon="6.79601">
        <ele>1954</ele>
        <time>2016-07-04T07:09:46.000Z</time>
      </trkpt>
      <trkpt lat="46.20122" lon="6.79601">
        <ele>1955</ele>
        <time>2016-07-04T07:09:47.000Z</time>
      </trkpt>
      <trkpt lat="46.20114" lon="6.79604">
        <ele>1958</ele>
        <time>2016-07-04T07:09:56.000Z</time>
      </trkpt>
      <trkpt lat="46.20113" lon="6.79606">
        <ele>1957</ele>
        <time>2016-07-04T07:09:57.000Z</time>
      </trkpt>
      <trkpt lat="46.20106" lon="6.7961">
        <ele>1959</ele>
        <time>2016-07-04T07:10:03.000Z</time>
      </trkpt>
      <trkpt lat="46.20105" lon="6.79611">
        <ele>1958</ele>
        <time>2016-07-04T07:10:04.000Z</time>
      </trkpt>
      <trkpt lat="46.20101" lon="6.79621">
        <ele>1961</ele>
        <time>2016-07-04T07:10:12.000Z</time>
      </trkpt>
      <trkpt lat="46.201" lon="6.79622">
        <ele>1962</ele>
        <time>2016-07-04T07:10:13.000Z</time>
      </trkpt>
      <trkpt lat="46.20092" lon="6.79624">
        <ele>1963</ele>
        <time>2016-07-04T07:10:21.000Z</time>
      </trkpt>
      <trkpt lat="46.2009" lon="6.79624">
        <ele>1962</ele>
        <time>2016-07-04T07:10:22.000Z</time>
      </trkpt>
      <trkpt lat="46.20082" lon="6.79629">
        <ele>1965</ele>
        <time>2016-07-04T07:10:31.000Z</time>
      </trkpt>
      <trkpt lat="46.20081" lon="6.79631">
        <ele>1966</ele>
        <time>2016-07-04T07:10:32.000Z</time>
      </trkpt>
      <trkpt lat="46.20074" lon="6.79638">
        <ele>1966</ele>
        <time>2016-07-04T07:10:39.000Z</time>
      </trkpt>
      <trkpt lat="46.20072" lon="6.79638">
        <ele>1967</ele>
        <time>2016-07-04T07:10:40.000Z</time>
      </trkpt>
      <trkpt lat="46.20066" lon="6.79644">
        <ele>1968</ele>
        <time>2016-07-04T07:10:48.000Z</time>
      </trkpt>
      <trkpt lat="46.20065" lon="6.79645">
        <ele>1966</ele>
        <time>2016-07-04T07:10:49.000Z</time>
      </trkpt>
      <trkpt lat="46.20056" lon="6.79645">
        <ele>1965</ele>
        <time>2016-07-04T07:11:01.000Z</time>
      </trkpt>
      <trkpt lat="46.20055" lon="6.79645">
        <ele>1965</ele>
        <time>2016-07-04T07:11:02.000Z</time>
      </trkpt>
      <trkpt lat="46.20047" lon="6.79642">
        <ele>1967</ele>
        <time>2016-07-04T07:11:15.000Z</time>
      </trkpt>
      <trkpt lat="46.20046" lon="6.79641">
        <ele>1967</ele>
        <time>2016-07-04T07:11:16.000Z</time>
      </trkpt>
      <trkpt lat="46.20037" lon="6.7964">
        <ele>1968</ele>
        <time>2016-07-04T07:11:23.000Z</time>
      </trkpt>
      <trkpt lat="46.20037" lon="6.7964">
        <ele>1967</ele>
        <time>2016-07-04T07:11:24.000Z</time>
      </trkpt>
      <trkpt lat="46.2003" lon="6.79647">
        <ele>1967</ele>
        <time>2016-07-04T07:11:34.000Z</time>
      </trkpt>
      <trkpt lat="46.20029" lon="6.79649">
        <ele>1966</ele>
        <time>2016-07-04T07:11:35.000Z</time>
      </trkpt>
      <trkpt lat="46.20024" lon="6.79659">
        <ele>1967</ele>
        <time>2016-07-04T07:11:43.000Z</time>
      </trkpt>
      <trkpt lat="46.20024" lon="6.7966">
        <ele>1968</ele>
        <time>2016-07-04T07:11:44.000Z</time>
      </trkpt>
      <trkpt lat="46.20019" lon="6.7967">
        <ele>1973</ele>
        <time>2016-07-04T07:11:52.000Z</time>
      </trkpt>
      <trkpt lat="46.20019" lon="6.79671">
        <ele>1974</ele>
        <time>2016-07-04T07:11:53.000Z</time>
      </trkpt>
      <trkpt lat="46.20013" lon="6.79681">
        <ele>1972</ele>
        <time>2016-07-04T07:12:03.000Z</time>
      </trkpt>
      <trkpt lat="46.20013" lon="6.79683">
        <ele>1972</ele>
        <time>2016-07-04T07:12:04.000Z</time>
      </trkpt>
      <trkpt lat="46.2001" lon="6.79695">
        <ele>1976</ele>
        <time>2016-07-04T07:12:13.000Z</time>
      </trkpt>
      <trkpt lat="46.2001" lon="6.79696">
        <ele>1975</ele>
        <time>2016-07-04T07:12:14.000Z</time>
      </trkpt>
      <trkpt lat="46.20004" lon="6.79705">
        <ele>1975</ele>
        <time>2016-07-04T07:12:24.000Z</time>
      </trkpt>
      <trkpt lat="46.20003" lon="6.79706">
        <ele>1974</ele>
        <time>2016-07-04T07:12:25.000Z</time>
      </trkpt>
      <trkpt lat="46.19999" lon="6.79715">
        <ele>1975</ele>
        <time>2016-07-04T07:12:34.000Z</time>
      </trkpt>
      <trkpt lat="46.19999" lon="6.79717">
        <ele>1974</ele>
        <time>2016-07-04T07:12:35.000Z</time>
      </trkpt>
      <trkpt lat="46.19994" lon="6.79727">
        <ele>1982</ele>
        <time>2016-07-04T07:12:48.000Z</time>
      </trkpt>
      <trkpt lat="46.19994" lon="6.79729">
        <ele>1981</ele>
        <time>2016-07-04T07:12:49.000Z</time>
      </trkpt>
      <trkpt lat="46.1999" lon="6.79739">
        <ele>1984</ele>
        <time>2016-07-04T07:12:59.000Z</time>
      </trkpt>
      <trkpt lat="46.19989" lon="6.7974">
        <ele>1983</ele>
        <time>2016-07-04T07:13:00.000Z</time>
      </trkpt>
      <trkpt lat="46.19981" lon="6.79747">
        <ele>1985</ele>
        <time>2016-07-04T07:13:13.000Z</time>
      </trkpt>
      <trkpt lat="46.1998" lon="6.79748">
        <ele>1985</ele>
        <time>2016-07-04T07:13:14.000Z</time>
      </trkpt>
      <trkpt lat="46.19974" lon="6.79756">
        <ele>1986</ele>
        <time>2016-07-04T07:13:23.000Z</time>
      </trkpt>
      <trkpt lat="46.19973" lon="6.79758">
        <ele>1987</ele>
        <time>2016-07-04T07:13:24.000Z</time>
      </trkpt>
      <trkpt lat="46.19968" lon="6.79767">
        <ele>1988</ele>
        <time>2016-07-04T07:13:40.000Z</time>
      </trkpt>
      <trkpt lat="46.19967" lon="6.79767">
        <ele>1988</ele>
        <time>2016-07-04T07:13:41.000Z</time>
      </trkpt>
      <trkpt lat="46.19959" lon="6.79773">
        <ele>1989</ele>
        <time>2016-07-04T07:13:47.000Z</time>
      </trkpt>
      <trkpt lat="46.19958" lon="6.79774">
        <ele>1989</ele>
        <time>2016-07-04T07:13:48.000Z</time>
      </trkpt>
      <trkpt lat="46.1995" lon="6.79772">
        <ele>1991</ele>
        <time>2016-07-04T07:13:57.000Z</time>
      </trkpt>
      <trkpt lat="46.1995" lon="6.79772">
        <ele>1991</ele>
        <time>2016-07-04T07:13:58.000Z</time>
      </trkpt>
      <trkpt lat="46.19941" lon="6.79776">
        <ele>1991</ele>
        <time>2016-07-04T07:14:07.000Z</time>
      </trkpt>
      <trkpt lat="46.1994" lon="6.79776">
        <ele>1990</ele>
        <time>2016-07-04T07:14:08.000Z</time>
      </trkpt>
      <trkpt lat="46.19933" lon="6.79781">
        <ele>1993</ele>
        <time>2016-07-04T07:14:17.000Z</time>
      </trkpt>
      <trkpt lat="46.19932" lon="6.79782">
        <ele>1994</ele>
        <time>2016-07-04T07:14:18.000Z</time>
      </trkpt>
      <trkpt lat="46.19923" lon="6.79784">
        <ele>1996</ele>
        <time>2016-07-04T07:14:29.000Z</time>
      </trkpt>
      <trkpt lat="46.19922" lon="6.79785">
        <ele>1995</ele>
        <time>2016-07-04T07:14:30.000Z</time>
      </trkpt>
      <trkpt lat="46.19916" lon="6.79792">
        <ele>1993</ele>
        <time>2016-07-04T07:14:37.000Z</time>
      </trkpt>
      <trkpt lat="46.19915" lon="6.79792">
        <ele>1993</ele>
        <time>2016-07-04T07:14:38.000Z</time>
      </trkpt>
      <trkpt lat="46.19907" lon="6.79796">
        <ele>1993</ele>
        <time>2016-07-04T07:14:53.000Z</time>
      </trkpt>
      <trkpt lat="46.19906" lon="6.79798">
        <ele>1994</ele>
        <time>2016-07-04T07:14:54.000Z</time>
      </trkpt>
      <trkpt lat="46.19901" lon="6.79806">
        <ele>1997</ele>
        <time>2016-07-04T07:15:03.000Z</time>
      </trkpt>
      <trkpt lat="46.19899" lon="6.79807">
        <ele>1996</ele>
        <time>2016-07-04T07:15:04.000Z</time>
      </trkpt>
      <trkpt lat="46.19895" lon="6.79816">
        <ele>1996</ele>
        <time>2016-07-04T07:15:10.000Z</time>
      </trkpt>
      <trkpt lat="46.19894" lon="6.79818">
        <ele>1996</ele>
        <time>2016-07-04T07:15:11.000Z</time>
      </trkpt>
      <trkpt lat="46.1989" lon="6.79829">
        <ele>1999</ele>
        <time>2016-07-04T07:15:18.000Z</time>
      </trkpt>
      <trkpt lat="46.19889" lon="6.79831">
        <ele>1999</ele>
        <time>2016-07-04T07:15:19.000Z</time>
      </trkpt>
      <trkpt lat="46.19884" lon="6.79839">
        <ele>2001</ele>
        <time>2016-07-04T07:15:25.000Z</time>
      </trkpt>
      <trkpt lat="46.19883" lon="6.79841">
        <ele>2002</ele>
        <time>2016-07-04T07:15:26.000Z</time>
      </trkpt>
      <trkpt lat="46.19879" lon="6.79848">
        <ele>2003</ele>
        <time>2016-07-04T07:15:33.000Z</time>
      </trkpt>
      <trkpt lat="46.19878" lon="6.79851">
        <ele>2003</ele>
        <time>2016-07-04T07:15:34.000Z</time>
      </trkpt>
      <trkpt lat="46.19875" lon="6.79863">
        <ele>2008</ele>
        <time>2016-07-04T07:15:42.000Z</time>
      </trkpt>
      <trkpt lat="46.19875" lon="6.79864">
        <ele>2009</ele>
        <time>2016-07-04T07:15:43.000Z</time>
      </trkpt>
      <trkpt lat="46.19872" lon="6.79874">
        <ele>2009</ele>
        <time>2016-07-04T07:15:49.000Z</time>
      </trkpt>
      <trkpt lat="46.1987" lon="6.79876">
        <ele>2010</ele>
        <time>2016-07-04T07:15:50.000Z</time>
      </trkpt>
      <trkpt lat="46.19866" lon="6.79887">
        <ele>2010</ele>
        <time>2016-07-04T07:15:59.000Z</time>
      </trkpt>
      <trkpt lat="46.19866" lon="6.79888">
        <ele>2009</ele>
        <time>2016-07-04T07:16:00.000Z</time>
      </trkpt>
      <trkpt lat="46.19864" lon="6.799">
        <ele>2012</ele>
        <time>2016-07-04T07:16:10.000Z</time>
      </trkpt>
      <trkpt lat="46.19863" lon="6.79901">
        <ele>2011</ele>
        <time>2016-07-04T07:16:11.000Z</time>
      </trkpt>
      <trkpt lat="46.1986" lon="6.79912">
        <ele>2012</ele>
        <time>2016-07-04T07:16:19.000Z</time>
      </trkpt>
      <trkpt lat="46.19859" lon="6.79913">
        <ele>2011</ele>
        <time>2016-07-04T07:16:20.000Z</time>
      </trkpt>
      <trkpt lat="46.19855" lon="6.79924">
        <ele>2007</ele>
        <time>2016-07-04T07:16:29.000Z</time>
      </trkpt>
      <trkpt lat="46.19855" lon="6.79926">
        <ele>2008</ele>
        <time>2016-07-04T07:16:30.000Z</time>
      </trkpt>
      <trkpt lat="46.19852" lon="6.79935">
        <ele>2007</ele>
        <time>2016-07-04T07:16:37.000Z</time>
      </trkpt>
      <trkpt lat="46.19849" lon="6.79937">
        <ele>2004</ele>
        <time>2016-07-04T07:16:38.000Z</time>
      </trkpt>
      <trkpt lat="46.19846" lon="6.79948">
        <ele>2009</ele>
        <time>2016-07-04T07:16:46.000Z</time>
      </trkpt>
      <trkpt lat="46.19846" lon="6.7995">
        <ele>2009</ele>
        <time>2016-07-04T07:16:47.000Z</time>
      </trkpt>
      <trkpt lat="46.19842" lon="6.79961">
        <ele>2010</ele>
        <time>2016-07-04T07:16:55.000Z</time>
      </trkpt>
      <trkpt lat="46.19842" lon="6.79963">
        <ele>2010</ele>
        <time>2016-07-04T07:16:56.000Z</time>
      </trkpt>
      <trkpt lat="46.19837" lon="6.79972">
        <ele>2011</ele>
        <time>2016-07-04T07:17:04.000Z</time>
      </trkpt>
      <trkpt lat="46.19836" lon="6.79975">
        <ele>2012</ele>
        <time>2016-07-04T07:17:05.000Z</time>
      </trkpt>
      <trkpt lat="46.19831" lon="6.79984">
        <ele>2014</ele>
        <time>2016-07-04T07:17:14.000Z</time>
      </trkpt>
      <trkpt lat="46.19831" lon="6.79986">
        <ele>2014</ele>
        <time>2016-07-04T07:17:15.000Z</time>
      </trkpt>
      <trkpt lat="46.19827" lon="6.79997">
        <ele>2018</ele>
        <time>2016-07-04T07:17:22.000Z</time>
      </trkpt>
      <trkpt lat="46.19827" lon="6.79999">
        <ele>2016</ele>
        <time>2016-07-04T07:17:23.000Z</time>
      </trkpt>
      <trkpt lat="46.19826" lon="6.8001">
        <ele>2015</ele>
        <time>2016-07-04T07:17:34.000Z</time>
      </trkpt>
      <trkpt lat="46.19825" lon="6.80012">
        <ele>2016</ele>
        <time>2016-07-04T07:17:35.000Z</time>
      </trkpt>
      <trkpt lat="46.1982" lon="6.80022">
        <ele>2015</ele>
        <time>2016-07-04T07:17:41.000Z</time>
      </trkpt>
      <trkpt lat="46.19819" lon="6.80023">
        <ele>2015</ele>
        <time>2016-07-04T07:17:42.000Z</time>
      </trkpt>
      <trkpt lat="46.19819" lon="6.80035">
        <ele>2017</ele>
        <time>2016-07-04T07:17:51.000Z</time>
      </trkpt>
      <trkpt lat="46.19818" lon="6.80036">
        <ele>2017</ele>
        <time>2016-07-04T07:17:52.000Z</time>
      </trkpt>
      <trkpt lat="46.19811" lon="6.80044">
        <ele>2013</ele>
        <time>2016-07-04T07:18:02.000Z</time>
      </trkpt>
      <trkpt lat="46.19811" lon="6.80044">
        <ele>2013</ele>
        <time>2016-07-04T07:18:03.000Z</time>
      </trkpt>
      <trkpt lat="46.19804" lon="6.80054">
        <ele>2016</ele>
        <time>2016-07-04T07:18:11.000Z</time>
      </trkpt>
      <trkpt lat="46.19804" lon="6.80055">
        <ele>2016</ele>
        <time>2016-07-04T07:18:12.000Z</time>
      </trkpt>
      <trkpt lat="46.19801" lon="6.80066">
        <ele>2016</ele>
        <time>2016-07-04T07:18:22.000Z</time>
      </trkpt>
      <trkpt lat="46.198" lon="6.80068">
        <ele>2016</ele>
        <time>2016-07-04T07:18:23.000Z</time>
      </trkpt>
      <trkpt lat="46.19799" lon="6.80079">
        <ele>2014</ele>
        <time>2016-07-04T07:18:29.000Z</time>
      </trkpt>
      <trkpt lat="46.19799" lon="6.80081">
        <ele>2014</ele>
        <time>2016-07-04T07:18:30.000Z</time>
      </trkpt>
      <trkpt lat="46.198" lon="6.80093">
        <ele>2015</ele>
        <time>2016-07-04T07:18:37.000Z</time>
      </trkpt>
      <trkpt lat="46.198" lon="6.80095">
        <ele>2015</ele>
        <time>2016-07-04T07:18:38.000Z</time>
      </trkpt>
      <trkpt lat="46.19798" lon="6.80107">
        <ele>2017</ele>
        <time>2016-07-04T07:18:46.000Z</time>
      </trkpt>
      <trkpt lat="46.19798" lon="6.80109">
        <ele>2014</ele>
        <time>2016-07-04T07:18:47.000Z</time>
      </trkpt>
      <trkpt lat="46.19803" lon="6.80119">
        <ele>2014</ele>
        <time>2016-07-04T07:18:53.000Z</time>
      </trkpt>
      <trkpt lat="46.19803" lon="6.8012">
        <ele>2014</ele>
        <time>2016-07-04T07:18:54.000Z</time>
      </trkpt>
      <trkpt lat="46.19801" lon="6.80133">
        <ele>2016</ele>
        <time>2016-07-04T07:19:02.000Z</time>
      </trkpt>
      <trkpt lat="46.19801" lon="6.80135">
        <ele>2016</ele>
        <time>2016-07-04T07:19:03.000Z</time>
      </trkpt>
      <trkpt lat="46.19796" lon="6.80145">
        <ele>2019</ele>
        <time>2016-07-04T07:19:11.000Z</time>
      </trkpt>
      <trkpt lat="46.19796" lon="6.80147">
        <ele>2018</ele>
        <time>2016-07-04T07:19:12.000Z</time>
      </trkpt>
      <trkpt lat="46.19794" lon="6.80158">
        <ele>2022</ele>
        <time>2016-07-04T07:19:24.000Z</time>
      </trkpt>
      <trkpt lat="46.19794" lon="6.8016">
        <ele>2021</ele>
        <time>2016-07-04T07:19:25.000Z</time>
      </trkpt>
      <trkpt lat="46.19795" lon="6.80172">
        <ele>2018</ele>
        <time>2016-07-04T07:19:34.000Z</time>
      </trkpt>
      <trkpt lat="46.19795" lon="6.80173">
        <ele>2018</ele>
        <time>2016-07-04T07:19:35.000Z</time>
      </trkpt>
      <trkpt lat="46.19793" lon="6.80185">
        <ele>2020</ele>
        <time>2016-07-04T07:19:45.000Z</time>
      </trkpt>
      <trkpt lat="46.19793" lon="6.80186">
        <ele>2021</ele>
        <time>2016-07-04T07:19:46.000Z</time>
      </trkpt>
      <trkpt lat="46.19795" lon="6.80198">
        <ele>2024</ele>
        <time>2016-07-04T07:19:55.000Z</time>
      </trkpt>
      <trkpt lat="46.19795" lon="6.802">
        <ele>2025</ele>
        <time>2016-07-04T07:19:56.000Z</time>
      </trkpt>
      <trkpt lat="46.19795" lon="6.80211">
        <ele>2029</ele>
        <time>2016-07-04T07:20:04.000Z</time>
      </trkpt>
      <trkpt lat="46.19795" lon="6.80213">
        <ele>2027</ele>
        <time>2016-07-04T07:20:05.000Z</time>
      </trkpt>
      <trkpt lat="46.19794" lon="6.80226">
        <ele>2034</ele>
        <time>2016-07-04T07:20:15.000Z</time>
      </trkpt>
      <trkpt lat="46.19793" lon="6.80228">
        <ele>2033</ele>
        <time>2016-07-04T07:20:16.000Z</time>
      </trkpt>
      <trkpt lat="46.19789" lon="6.8024">
        <ele>2032</ele>
        <time>2016-07-04T07:20:24.000Z</time>
      </trkpt>
      <trkpt lat="46.19789" lon="6.80241">
        <ele>2032</ele>
        <time>2016-07-04T07:20:25.000Z</time>
      </trkpt>
      <trkpt lat="46.19784" lon="6.80251">
        <ele>2031</ele>
        <time>2016-07-04T07:20:33.000Z</time>
      </trkpt>
      <trkpt lat="46.19783" lon="6.80252">
        <ele>2031</ele>
        <time>2016-07-04T07:20:34.000Z</time>
      </trkpt>
      <trkpt lat="46.19778" lon="6.80261">
        <ele>2029</ele>
        <time>2016-07-04T07:20:44.000Z</time>
      </trkpt>
      <trkpt lat="46.19777" lon="6.80262">
        <ele>2029</ele>
        <time>2016-07-04T07:20:45.000Z</time>
      </trkpt>
      <trkpt lat="46.19773" lon="6.80271">
        <ele>2031</ele>
        <time>2016-07-04T07:20:53.000Z</time>
      </trkpt>
      <trkpt lat="46.19772" lon="6.80274">
        <ele>2031</ele>
        <time>2016-07-04T07:20:54.000Z</time>
      </trkpt>
      <trkpt lat="46.1977" lon="6.80286">
        <ele>2033</ele>
        <time>2016-07-04T07:21:02.000Z</time>
      </trkpt>
      <trkpt lat="46.19769" lon="6.80287">
        <ele>2033</ele>
        <time>2016-07-04T07:21:03.000Z</time>
      </trkpt>
      <trkpt lat="46.19764" lon="6.80297">
        <ele>2032</ele>
        <time>2016-07-04T07:21:10.000Z</time>
      </trkpt>
      <trkpt lat="46.19764" lon="6.80299">
        <ele>2032</ele>
        <time>2016-07-04T07:21:11.000Z</time>
      </trkpt>
      <trkpt lat="46.19761" lon="6.80311">
        <ele>2038</ele>
        <time>2016-07-04T07:21:21.000Z</time>
      </trkpt>
      <trkpt lat="46.19761" lon="6.80312">
        <ele>2038</ele>
        <time>2016-07-04T07:21:22.000Z</time>
      </trkpt>
      <trkpt lat="46.19757" lon="6.80321">
        <ele>2041</ele>
        <time>2016-07-04T07:21:28.000Z</time>
      </trkpt>
      <trkpt lat="46.19756" lon="6.80323">
        <ele>2041</ele>
        <time>2016-07-04T07:21:29.000Z</time>
      </trkpt>
      <trkpt lat="46.19751" lon="6.80333">
        <ele>2041</ele>
        <time>2016-07-04T07:21:40.000Z</time>
      </trkpt>
      <trkpt lat="46.1975" lon="6.80335">
        <ele>2041</ele>
        <time>2016-07-04T07:21:41.000Z</time>
      </trkpt>
      <trkpt lat="46.19745" lon="6.80346">
        <ele>2042</ele>
        <time>2016-07-04T07:21:49.000Z</time>
      </trkpt>
      <trkpt lat="46.19745" lon="6.80348">
        <ele>2042</ele>
        <time>2016-07-04T07:21:50.000Z</time>
      </trkpt>
      <trkpt lat="46.19742" lon="6.80358">
        <ele>2041</ele>
        <time>2016-07-04T07:21:56.000Z</time>
      </trkpt>
      <trkpt lat="46.19741" lon="6.8036">
        <ele>2042</ele>
        <time>2016-07-04T07:21:57.000Z</time>
      </trkpt>
      <trkpt lat="46.19736" lon="6.8037">
        <ele>2041</ele>
        <time>2016-07-04T07:22:07.000Z</time>
      </trkpt>
      <trkpt lat="46.19736" lon="6.80372">
        <ele>2041</ele>
        <time>2016-07-04T07:22:08.000Z</time>
      </trkpt>
      <trkpt lat="46.19736" lon="6.80384">
        <ele>2039</ele>
        <time>2016-07-04T07:22:17.000Z</time>
      </trkpt>
      <trkpt lat="46.19735" lon="6.80385">
        <ele>2039</ele>
        <time>2016-07-04T07:22:18.000Z</time>
      </trkpt>
      <trkpt lat="46.19731" lon="6.80395">
        <ele>2042</ele>
        <time>2016-07-04T07:22:26.000Z</time>
      </trkpt>
      <trkpt lat="46.1973" lon="6.80396">
        <ele>2041</ele>
        <time>2016-07-04T07:22:27.000Z</time>
      </trkpt>
      <trkpt lat="46.19727" lon="6.80407">
        <ele>2043</ele>
        <time>2016-07-04T07:22:37.000Z</time>
      </trkpt>
      <trkpt lat="46.19726" lon="6.80409">
        <ele>2043</ele>
        <time>2016-07-04T07:22:38.000Z</time>
      </trkpt>
      <trkpt lat="46.19722" lon="6.8042">
        <ele>2042</ele>
        <time>2016-07-04T07:22:48.000Z</time>
      </trkpt>
      <trkpt lat="46.19721" lon="6.8042">
        <ele>2041</ele>
        <time>2016-07-04T07:22:49.000Z</time>
      </trkpt>
      <trkpt lat="46.19716" lon="6.80429">
        <ele>2044</ele>
        <time>2016-07-04T07:22:56.000Z</time>
      </trkpt>
      <trkpt lat="46.19715" lon="6.8043">
        <ele>2044</ele>
        <time>2016-07-04T07:22:57.000Z</time>
      </trkpt>
      <trkpt lat="46.19711" lon="6.80441">
        <ele>2047</ele>
        <time>2016-07-04T07:23:06.000Z</time>
      </trkpt>
      <trkpt lat="46.19712" lon="6.80443">
        <ele>2047</ele>
        <time>2016-07-04T07:23:07.000Z</time>
      </trkpt>
      <trkpt lat="46.19711" lon="6.80455">
        <ele>2053</ele>
        <time>2016-07-04T07:23:19.000Z</time>
      </trkpt>
      <trkpt lat="46.1971" lon="6.80456">
        <ele>2054</ele>
        <time>2016-07-04T07:23:20.000Z</time>
      </trkpt>
      <trkpt lat="46.19707" lon="6.80468">
        <ele>2054</ele>
        <time>2016-07-04T07:23:33.000Z</time>
      </trkpt>
      <trkpt lat="46.19707" lon="6.80469">
        <ele>2054</ele>
        <time>2016-07-04T07:23:34.000Z</time>
      </trkpt>
      <trkpt lat="46.19703" lon="6.80479">
        <ele>2055</ele>
        <time>2016-07-04T07:23:41.000Z</time>
      </trkpt>
      <trkpt lat="46.19702" lon="6.80481">
        <ele>2056</ele>
        <time>2016-07-04T07:23:42.000Z</time>
      </trkpt>
      <trkpt lat="46.197" lon="6.80492">
        <ele>2053</ele>
        <time>2016-07-04T07:23:48.000Z</time>
      </trkpt>
      <trkpt lat="46.19699" lon="6.80494">
        <ele>2053</ele>
        <time>2016-07-04T07:23:49.000Z</time>
      </trkpt>
      <trkpt lat="46.19697" lon="6.80506">
        <ele>2053</ele>
        <time>2016-07-04T07:23:56.000Z</time>
      </trkpt>
      <trkpt lat="46.19697" lon="6.80507">
        <ele>2053</ele>
        <time>2016-07-04T07:23:57.000Z</time>
      </trkpt>
      <trkpt lat="46.19694" lon="6.80518">
        <ele>2054</ele>
        <time>2016-07-04T07:24:03.000Z</time>
      </trkpt>
      <trkpt lat="46.19694" lon="6.80521">
        <ele>2055</ele>
        <time>2016-07-04T07:24:04.000Z</time>
      </trkpt>
      <trkpt lat="46.1969" lon="6.80532">
        <ele>2054</ele>
        <time>2016-07-04T07:24:10.000Z</time>
      </trkpt>
      <trkpt lat="46.1969" lon="6.80532">
        <ele>2054</ele>
        <time>2016-07-04T07:24:11.000Z</time>
      </trkpt>
      <trkpt lat="46.19685" lon="6.80542">
        <ele>2056</ele>
        <time>2016-07-04T07:24:18.000Z</time>
      </trkpt>
      <trkpt lat="46.19684" lon="6.80544">
        <ele>2056</ele>
        <time>2016-07-04T07:24:19.000Z</time>
      </trkpt>
      <trkpt lat="46.19681" lon="6.80553">
        <ele>2053</ele>
        <time>2016-07-04T07:24:27.000Z</time>
      </trkpt>
      <trkpt lat="46.1968" lon="6.80556">
        <ele>2053</ele>
        <time>2016-07-04T07:24:28.000Z</time>
      </trkpt>
      <trkpt lat="46.19677" lon="6.80563">
        <ele>2049</ele>
        <time>2016-07-04T07:24:45.000Z</time>
      </trkpt>
      <trkpt lat="46.19677" lon="6.80563">
        <ele>2049</ele>
        <time>2016-07-04T07:24:46.000Z</time>
      </trkpt>
      <trkpt lat="46.19677" lon="6.80563">
        <ele>2049</ele>
        <time>2016-07-04T07:25:15.000Z</time>
      </trkpt>
      <trkpt lat="46.19677" lon="6.80563">
        <ele>2049</ele>
        <time>2016-07-04T07:25:16.000Z</time>
      </trkpt>
      <trkpt lat="46.19674" lon="6.80575">
        <ele>2053</ele>
        <time>2016-07-04T07:25:32.000Z</time>
      </trkpt>
      <trkpt lat="46.19674" lon="6.80577">
        <ele>2053</ele>
        <time>2016-07-04T07:25:33.000Z</time>
      </trkpt>
      <trkpt lat="46.19672" lon="6.8059">
        <ele>2055</ele>
        <time>2016-07-04T07:25:55.000Z</time>
      </trkpt>
      <trkpt lat="46.19672" lon="6.80591">
        <ele>2054</ele>
        <time>2016-07-04T07:25:56.000Z</time>
      </trkpt>
      <trkpt lat="46.19671" lon="6.80603">
        <ele>2057</ele>
        <time>2016-07-04T07:26:07.000Z</time>
      </trkpt>
      <trkpt lat="46.19671" lon="6.80605">
        <ele>2057</ele>
        <time>2016-07-04T07:26:08.000Z</time>
      </trkpt>
      <trkpt lat="46.19671" lon="6.80618">
        <ele>2055</ele>
        <time>2016-07-04T07:26:16.000Z</time>
      </trkpt>
      <trkpt lat="46.19671" lon="6.80619">
        <ele>2055</ele>
        <time>2016-07-04T07:26:17.000Z</time>
      </trkpt>
      <trkpt lat="46.19666" lon="6.8063">
        <ele>2056</ele>
        <time>2016-07-04T07:26:23.000Z</time>
      </trkpt>
      <trkpt lat="46.19666" lon="6.80632">
        <ele>2056</ele>
        <time>2016-07-04T07:26:24.000Z</time>
      </trkpt>
      <trkpt lat="46.19662" lon="6.80643">
        <ele>2057</ele>
        <time>2016-07-04T07:26:30.000Z</time>
      </trkpt>
      <trkpt lat="46.1966" lon="6.80645">
        <ele>2057</ele>
        <time>2016-07-04T07:26:31.000Z</time>
      </trkpt>
      <trkpt lat="46.19658" lon="6.80656">
        <ele>2057</ele>
        <time>2016-07-04T07:26:38.000Z</time>
      </trkpt>
      <trkpt lat="46.19657" lon="6.80658">
        <ele>2057</ele>
        <time>2016-07-04T07:26:39.000Z</time>
      </trkpt>
      <trkpt lat="46.19656" lon="6.80669">
        <ele>2055</ele>
        <time>2016-07-04T07:26:45.000Z</time>
      </trkpt>
      <trkpt lat="46.19656" lon="6.80671">
        <ele>2054</ele>
        <time>2016-07-04T07:26:46.000Z</time>
      </trkpt>
      <trkpt lat="46.19657" lon="6.80683">
        <ele>2052</ele>
        <time>2016-07-04T07:26:53.000Z</time>
      </trkpt>
      <trkpt lat="46.19657" lon="6.80684">
        <ele>2051</ele>
        <time>2016-07-04T07:26:54.000Z</time>
      </trkpt>
      <trkpt lat="46.19661" lon="6.80695">
        <ele>2049</ele>
        <time>2016-07-04T07:27:02.000Z</time>
      </trkpt>
      <trkpt lat="46.19661" lon="6.80698">
        <ele>2049</ele>
        <time>2016-07-04T07:27:03.000Z</time>
      </trkpt>
      <trkpt lat="46.19664" lon="6.80708">
        <ele>2050</ele>
        <time>2016-07-04T07:27:10.000Z</time>
      </trkpt>
      <trkpt lat="46.19665" lon="6.8071">
        <ele>2050</ele>
        <time>2016-07-04T07:27:11.000Z</time>
      </trkpt>
      <trkpt lat="46.19669" lon="6.80719">
        <ele>2049</ele>
        <time>2016-07-04T07:27:19.000Z</time>
      </trkpt>
      <trkpt lat="46.1967" lon="6.80721">
        <ele>2050</ele>
        <time>2016-07-04T07:27:20.000Z</time>
      </trkpt>
      <trkpt lat="46.19669" lon="6.80733">
        <ele>2050</ele>
        <time>2016-07-04T07:27:26.000Z</time>
      </trkpt>
      <trkpt lat="46.19669" lon="6.80734">
        <ele>2050</ele>
        <time>2016-07-04T07:27:27.000Z</time>
      </trkpt>
      <trkpt lat="46.19669" lon="6.80746">
        <ele>2051</ele>
        <time>2016-07-04T07:27:34.000Z</time>
      </trkpt>
      <trkpt lat="46.19668" lon="6.80749">
        <ele>2051</ele>
        <time>2016-07-04T07:27:35.000Z</time>
      </trkpt>
      <trkpt lat="46.19666" lon="6.8076">
        <ele>2051</ele>
        <time>2016-07-04T07:27:40.000Z</time>
      </trkpt>
      <trkpt lat="46.19666" lon="6.80763">
        <ele>2050</ele>
        <time>2016-07-04T07:27:41.000Z</time>
      </trkpt>
      <trkpt lat="46.19662" lon="6.80774">
        <ele>2052</ele>
        <time>2016-07-04T07:27:47.000Z</time>
      </trkpt>
      <trkpt lat="46.19662" lon="6.80776">
        <ele>2051</ele>
        <time>2016-07-04T07:27:48.000Z</time>
      </trkpt>
      <trkpt lat="46.19659" lon="6.80785">
        <ele>2053</ele>
        <time>2016-07-04T07:27:54.000Z</time>
      </trkpt>
      <trkpt lat="46.19658" lon="6.80788">
        <ele>2052</ele>
        <time>2016-07-04T07:27:55.000Z</time>
      </trkpt>
      <trkpt lat="46.19657" lon="6.80801">
        <ele>2051</ele>
        <time>2016-07-04T07:28:03.000Z</time>
      </trkpt>
      <trkpt lat="46.19657" lon="6.80802">
        <ele>2053</ele>
        <time>2016-07-04T07:28:04.000Z</time>
      </trkpt>
      <trkpt lat="46.19655" lon="6.80814">
        <ele>2051</ele>
        <time>2016-07-04T07:28:13.000Z</time>
      </trkpt>
      <trkpt lat="46.19655" lon="6.80815">
        <ele>2050</ele>
        <time>2016-07-04T07:28:14.000Z</time>
      </trkpt>
      <trkpt lat="46.19648" lon="6.80822">
        <ele>2049</ele>
        <time>2016-07-04T07:28:23.000Z</time>
      </trkpt>
      <trkpt lat="46.19647" lon="6.80824">
        <ele>2049</ele>
        <time>2016-07-04T07:28:24.000Z</time>
      </trkpt>
      <trkpt lat="46.19645" lon="6.80836">
        <ele>2049</ele>
        <time>2016-07-04T07:28:32.000Z</time>
      </trkpt>
      <trkpt lat="46.19645" lon="6.80837">
        <ele>2048</ele>
        <time>2016-07-04T07:28:33.000Z</time>
      </trkpt>
      <trkpt lat="46.19647" lon="6.80849">
        <ele>2044</ele>
        <time>2016-07-04T07:28:41.000Z</time>
      </trkpt>
      <trkpt lat="46.19647" lon="6.80852">
        <ele>2045</ele>
        <time>2016-07-04T07:28:42.000Z</time>
      </trkpt>
      <trkpt lat="46.19649" lon="6.80864">
        <ele>2038</ele>
        <time>2016-07-04T07:29:00.000Z</time>
      </trkpt>
      <trkpt lat="46.19649" lon="6.80864">
        <ele>2038</ele>
        <time>2016-07-04T07:29:01.000Z</time>
      </trkpt>
      <trkpt lat="46.19653" lon="6.80874">
        <ele>2040</ele>
        <time>2016-07-04T07:29:14.000Z</time>
      </trkpt>
      <trkpt lat="46.19653" lon="6.80877">
        <ele>2040</ele>
        <time>2016-07-04T07:29:15.000Z</time>
      </trkpt>
      <trkpt lat="46.19655" lon="6.80887">
        <ele>2037</ele>
        <time>2016-07-04T07:29:23.000Z</time>
      </trkpt>
      <trkpt lat="46.19656" lon="6.8089">
        <ele>2038</ele>
        <time>2016-07-04T07:29:24.000Z</time>
      </trkpt>
      <trkpt lat="46.19659" lon="6.80901">
        <ele>2039</ele>
        <time>2016-07-04T07:29:34.000Z</time>
      </trkpt>
      <trkpt lat="46.19659" lon="6.80903">
        <ele>2040</ele>
        <time>2016-07-04T07:29:35.000Z</time>
      </trkpt>
      <trkpt lat="46.19658" lon="6.80915">
        <ele>2042</ele>
        <time>2016-07-04T07:29:44.000Z</time>
      </trkpt>
      <trkpt lat="46.19658" lon="6.80917">
        <ele>2041</ele>
        <time>2016-07-04T07:29:45.000Z</time>
      </trkpt>
      <trkpt lat="46.19656" lon="6.80927">
        <ele>2042</ele>
        <time>2016-07-04T07:29:50.000Z</time>
      </trkpt>
      <trkpt lat="46.19654" lon="6.8093">
        <ele>2043</ele>
        <time>2016-07-04T07:29:51.000Z</time>
      </trkpt>
      <trkpt lat="46.19651" lon="6.8094">
        <ele>2044</ele>
        <time>2016-07-04T07:29:57.000Z</time>
      </trkpt>
      <trkpt lat="46.19651" lon="6.80942">
        <ele>2043</ele>
        <time>2016-07-04T07:29:58.000Z</time>
      </trkpt>
      <trkpt lat="46.19653" lon="6.80954">
        <ele>2046</ele>
        <time>2016-07-04T07:30:06.000Z</time>
      </trkpt>
      <trkpt lat="46.19653" lon="6.80956">
        <ele>2045</ele>
        <time>2016-07-04T07:30:07.000Z</time>
      </trkpt>
      <trkpt lat="46.19653" lon="6.80968">
        <ele>2043</ele>
        <time>2016-07-04T07:30:14.000Z</time>
      </trkpt>
      <trkpt lat="46.19653" lon="6.80969">
        <ele>2045</ele>
        <time>2016-07-04T07:30:15.000Z</time>
      </trkpt>
      <trkpt lat="46.19651" lon="6.80982">
        <ele>2046</ele>
        <time>2016-07-04T07:30:23.000Z</time>
      </trkpt>
      <trkpt lat="46.19651" lon="6.80983">
        <ele>2045</ele>
        <time>2016-07-04T07:30:24.000Z</time>
      </trkpt>
      <trkpt lat="46.19653" lon="6.80995">
        <ele>2045</ele>
        <time>2016-07-04T07:30:37.000Z</time>
      </trkpt>
      <trkpt lat="46.19654" lon="6.80997">
        <ele>2045</ele>
        <time>2016-07-04T07:30:38.000Z</time>
      </trkpt>
      <trkpt lat="46.19656" lon="6.81009">
        <ele>2041</ele>
        <time>2016-07-04T07:30:45.000Z</time>
      </trkpt>
      <trkpt lat="46.19656" lon="6.81011">
        <ele>2042</ele>
        <time>2016-07-04T07:30:46.000Z</time>
      </trkpt>
      <trkpt lat="46.19656" lon="6.81023">
        <ele>2044</ele>
        <time>2016-07-04T07:30:52.000Z</time>
      </trkpt>
      <trkpt lat="46.19656" lon="6.81026">
        <ele>2044</ele>
        <time>2016-07-04T07:30:53.000Z</time>
      </trkpt>
      <trkpt lat="46.19657" lon="6.81037">
        <ele>2044</ele>
        <time>2016-07-04T07:31:02.000Z</time>
      </trkpt>
      <trkpt lat="46.19657" lon="6.81039">
        <ele>2044</ele>
        <time>2016-07-04T07:31:03.000Z</time>
      </trkpt>
      <trkpt lat="46.19657" lon="6.8105">
        <ele>2045</ele>
        <time>2016-07-04T07:31:09.000Z</time>
      </trkpt>
      <trkpt lat="46.19658" lon="6.81052">
        <ele>2045</ele>
        <time>2016-07-04T07:31:10.000Z</time>
      </trkpt>
      <trkpt lat="46.19657" lon="6.81065">
        <ele>2043</ele>
        <time>2016-07-04T07:31:17.000Z</time>
      </trkpt>
      <trkpt lat="46.19656" lon="6.81067">
        <ele>2043</ele>
        <time>2016-07-04T07:31:18.000Z</time>
      </trkpt>
      <trkpt lat="46.19657" lon="6.81078">
        <ele>2048</ele>
        <time>2016-07-04T07:31:25.000Z</time>
      </trkpt>
      <trkpt lat="46.19657" lon="6.8108">
        <ele>2051</ele>
        <time>2016-07-04T07:31:26.000Z</time>
      </trkpt>
      <trkpt lat="46.19656" lon="6.81091">
        <ele>2053</ele>
        <time>2016-07-04T07:31:34.000Z</time>
      </trkpt>
      <trkpt lat="46.19656" lon="6.81094">
        <ele>2051</ele>
        <time>2016-07-04T07:31:35.000Z</time>
      </trkpt>
      <trkpt lat="46.19653" lon="6.81105">
        <ele>2050</ele>
        <time>2016-07-04T07:31:44.000Z</time>
      </trkpt>
      <trkpt lat="46.19652" lon="6.81108">
        <ele>2050</ele>
        <time>2016-07-04T07:31:45.000Z</time>
      </trkpt>
      <trkpt lat="46.19647" lon="6.81118">
        <ele>2046</ele>
        <time>2016-07-04T07:31:54.000Z</time>
      </trkpt>
      <trkpt lat="46.19647" lon="6.8112">
        <ele>2046</ele>
        <time>2016-07-04T07:31:55.000Z</time>
      </trkpt>
      <trkpt lat="46.19641" lon="6.81126">
        <ele>2045</ele>
        <time>2016-07-04T07:32:02.000Z</time>
      </trkpt>
      <trkpt lat="46.19639" lon="6.81128">
        <ele>2041</ele>
        <time>2016-07-04T07:32:03.000Z</time>
      </trkpt>
      <trkpt lat="46.19636" lon="6.81139">
        <ele>2044</ele>
        <time>2016-07-04T07:32:12.000Z</time>
      </trkpt>
      <trkpt lat="46.19635" lon="6.8114">
        <ele>2043</ele>
        <time>2016-07-04T07:32:13.000Z</time>
      </trkpt>
      <trkpt lat="46.19635" lon="6.81153">
        <ele>2038</ele>
        <time>2016-07-04T07:32:25.000Z</time>
      </trkpt>
      <trkpt lat="46.19635" lon="6.81155">
        <ele>2038</ele>
        <time>2016-07-04T07:32:26.000Z</time>
      </trkpt>
      <trkpt lat="46.19633" lon="6.81166">
        <ele>2039</ele>
        <time>2016-07-04T07:32:32.000Z</time>
      </trkpt>
      <trkpt lat="46.19632" lon="6.81168">
        <ele>2040</ele>
        <time>2016-07-04T07:32:33.000Z</time>
      </trkpt>
      <trkpt lat="46.19631" lon="6.81179">
        <ele>2040</ele>
        <time>2016-07-04T07:32:41.000Z</time>
      </trkpt>
      <trkpt lat="46.19631" lon="6.81182">
        <ele>2040</ele>
        <time>2016-07-04T07:32:42.000Z</time>
      </trkpt>
      <trkpt lat="46.19628" lon="6.81193">
        <ele>2036</ele>
        <time>2016-07-04T07:32:48.000Z</time>
      </trkpt>
      <trkpt lat="46.19628" lon="6.81195">
        <ele>2036</ele>
        <time>2016-07-04T07:32:49.000Z</time>
      </trkpt>
      <trkpt lat="46.19627" lon="6.81207">
        <ele>2036</ele>
        <time>2016-07-04T07:32:55.000Z</time>
      </trkpt>
      <trkpt lat="46.19626" lon="6.81208">
        <ele>2037</ele>
        <time>2016-07-04T07:32:56.000Z</time>
      </trkpt>
      <trkpt lat="46.19628" lon="6.81219">
        <ele>2037</ele>
        <time>2016-07-04T07:33:03.000Z</time>
      </trkpt>
      <trkpt lat="46.19628" lon="6.81221">
        <ele>2037</ele>
        <time>2016-07-04T07:33:04.000Z</time>
      </trkpt>
      <trkpt lat="46.19627" lon="6.81232">
        <ele>2039</ele>
        <time>2016-07-04T07:33:11.000Z</time>
      </trkpt>
      <trkpt lat="46.19627" lon="6.81234">
        <ele>2040</ele>
        <time>2016-07-04T07:33:12.000Z</time>
      </trkpt>
      <trkpt lat="46.19627" lon="6.81246">
        <ele>2039</ele>
        <time>2016-07-04T07:33:22.000Z</time>
      </trkpt>
      <trkpt lat="46.19627" lon="6.81247">
        <ele>2040</ele>
        <time>2016-07-04T07:33:23.000Z</time>
      </trkpt>
      <trkpt lat="46.1963" lon="6.81259">
        <ele>2039</ele>
        <time>2016-07-04T07:33:32.000Z</time>
      </trkpt>
      <trkpt lat="46.1963" lon="6.8126">
        <ele>2039</ele>
        <time>2016-07-04T07:33:33.000Z</time>
      </trkpt>
      <trkpt lat="46.19633" lon="6.81272">
        <ele>2042</ele>
        <time>2016-07-04T07:33:40.000Z</time>
      </trkpt>
      <trkpt lat="46.19634" lon="6.81273">
        <ele>2042</ele>
        <time>2016-07-04T07:33:41.000Z</time>
      </trkpt>
      <trkpt lat="46.19635" lon="6.81285">
        <ele>2040</ele>
        <time>2016-07-04T07:33:49.000Z</time>
      </trkpt>
      <trkpt lat="46.19636" lon="6.81286">
        <ele>2040</ele>
        <time>2016-07-04T07:33:50.000Z</time>
      </trkpt>
      <trkpt lat="46.1964" lon="6.81296">
        <ele>2039</ele>
        <time>2016-07-04T07:33:57.000Z</time>
      </trkpt>
      <trkpt lat="46.1964" lon="6.81299">
        <ele>2039</ele>
        <time>2016-07-04T07:33:58.000Z</time>
      </trkpt>
      <trkpt lat="46.19646" lon="6.81307">
        <ele>2039</ele>
        <time>2016-07-04T07:34:07.000Z</time>
      </trkpt>
      <trkpt lat="46.19648" lon="6.81308">
        <ele>2039</ele>
        <time>2016-07-04T07:34:08.000Z</time>
      </trkpt>
      <trkpt lat="46.19649" lon="6.81307">
        <ele>2035</ele>
        <time>2016-07-04T07:34:25.000Z</time>
      </trkpt>
      <trkpt lat="46.19649" lon="6.81307">
        <ele>2035</ele>
        <time>2016-07-04T07:34:26.000Z</time>
      </trkpt>
      <trkpt lat="46.19647" lon="6.8131">
        <ele>2033</ele>
        <time>2016-07-04T07:34:57.000Z</time>
      </trkpt>
      <trkpt lat="46.19647" lon="6.8131">
        <ele>2033</ele>
        <time>2016-07-04T07:34:58.000Z</time>
      </trkpt>
      <trkpt lat="46.19648" lon="6.81321">
        <ele>2027</ele>
        <time>2016-07-04T07:35:28.000Z</time>
      </trkpt>
      <trkpt lat="46.19649" lon="6.81323">
        <ele>2027</ele>
        <time>2016-07-04T07:35:29.000Z</time>
      </trkpt>
      <trkpt lat="46.19652" lon="6.81333">
        <ele>2025</ele>
        <time>2016-07-04T07:35:34.000Z</time>
      </trkpt>
      <trkpt lat="46.19654" lon="6.81335">
        <ele>2027</ele>
        <time>2016-07-04T07:35:35.000Z</time>
      </trkpt>
      <trkpt lat="46.1966" lon="6.81343">
        <ele>2027</ele>
        <time>2016-07-04T07:35:41.000Z</time>
      </trkpt>
      <trkpt lat="46.1966" lon="6.81346">
        <ele>2027</ele>
        <time>2016-07-04T07:35:42.000Z</time>
      </trkpt>
      <trkpt lat="46.19664" lon="6.81357">
        <ele>2027</ele>
        <time>2016-07-04T07:35:48.000Z</time>
      </trkpt>
      <trkpt lat="46.19665" lon="6.81358">
        <ele>2026</ele>
        <time>2016-07-04T07:35:49.000Z</time>
      </trkpt>
      <trkpt lat="46.19671" lon="6.81365">
        <ele>2029</ele>
        <time>2016-07-04T07:35:55.000Z</time>
      </trkpt>
      <trkpt lat="46.19672" lon="6.81368">
        <ele>2029</ele>
        <time>2016-07-04T07:35:56.000Z</time>
      </trkpt>
      <trkpt lat="46.19675" lon="6.81379">
        <ele>2029</ele>
        <time>2016-07-04T07:36:02.000Z</time>
      </trkpt>
      <trkpt lat="46.19676" lon="6.8138">
        <ele>2030</ele>
        <time>2016-07-04T07:36:03.000Z</time>
      </trkpt>
      <trkpt lat="46.19679" lon="6.81391">
        <ele>2029</ele>
        <time>2016-07-04T07:36:09.000Z</time>
      </trkpt>
      <trkpt lat="46.1968" lon="6.81393">
        <ele>2029</ele>
        <time>2016-07-04T07:36:10.000Z</time>
      </trkpt>
      <trkpt lat="46.19685" lon="6.81402">
        <ele>2028</ele>
        <time>2016-07-04T07:36:16.000Z</time>
      </trkpt>
      <trkpt lat="46.19686" lon="6.81404">
        <ele>2027</ele>
        <time>2016-07-04T07:36:17.000Z</time>
      </trkpt>
      <trkpt lat="46.19687" lon="6.81416">
        <ele>2022</ele>
        <time>2016-07-04T07:36:23.000Z</time>
      </trkpt>
      <trkpt lat="46.19687" lon="6.81417">
        <ele>2021</ele>
        <time>2016-07-04T07:36:24.000Z</time>
      </trkpt>
      <trkpt lat="46.19688" lon="6.8143">
        <ele>2017</ele>
        <time>2016-07-04T07:36:31.000Z</time>
      </trkpt>
      <trkpt lat="46.19689" lon="6.81432">
        <ele>2018</ele>
        <time>2016-07-04T07:36:32.000Z</time>
      </trkpt>
      <trkpt lat="46.19685" lon="6.81443">
        <ele>2018</ele>
        <time>2016-07-04T07:36:39.000Z</time>
      </trkpt>
      <trkpt lat="46.19684" lon="6.81445">
        <ele>2018</ele>
        <time>2016-07-04T07:36:40.000Z</time>
      </trkpt>
      <trkpt lat="46.19683" lon="6.81457">
        <ele>2018</ele>
        <time>2016-07-04T07:36:48.000Z</time>
      </trkpt>
      <trkpt lat="46.19683" lon="6.81459">
        <ele>2018</ele>
        <time>2016-07-04T07:36:49.000Z</time>
      </trkpt>
      <trkpt lat="46.19686" lon="6.8147">
        <ele>2021</ele>
        <time>2016-07-04T07:36:56.000Z</time>
      </trkpt>
      <trkpt lat="46.19687" lon="6.81471">
        <ele>2022</ele>
        <time>2016-07-04T07:36:57.000Z</time>
      </trkpt>
      <trkpt lat="46.19692" lon="6.8148">
        <ele>2020</ele>
        <time>2016-07-04T07:37:04.000Z</time>
      </trkpt>
      <trkpt lat="46.19692" lon="6.81484">
        <ele>2022</ele>
        <time>2016-07-04T07:37:05.000Z</time>
      </trkpt>
      <trkpt lat="46.19694" lon="6.81496">
        <ele>2023</ele>
        <time>2016-07-04T07:37:12.000Z</time>
      </trkpt>
      <trkpt lat="46.19695" lon="6.81498">
        <ele>2023</ele>
        <time>2016-07-04T07:37:13.000Z</time>
      </trkpt>
      <trkpt lat="46.19694" lon="6.81509">
        <ele>2027</ele>
        <time>2016-07-04T07:37:19.000Z</time>
      </trkpt>
      <trkpt lat="46.19694" lon="6.81512">
        <ele>2026</ele>
        <time>2016-07-04T07:37:20.000Z</time>
      </trkpt>
      <trkpt lat="46.19697" lon="6.81524">
        <ele>2024</ele>
        <time>2016-07-04T07:37:29.000Z</time>
      </trkpt>
      <trkpt lat="46.19698" lon="6.81524">
        <ele>2024</ele>
        <time>2016-07-04T07:37:30.000Z</time>
      </trkpt>
      <trkpt lat="46.19702" lon="6.81534">
        <ele>2028</ele>
        <time>2016-07-04T07:37:38.000Z</time>
      </trkpt>
      <trkpt lat="46.19703" lon="6.81535">
        <ele>2028</ele>
        <time>2016-07-04T07:37:39.000Z</time>
      </trkpt>
      <trkpt lat="46.19709" lon="6.81543">
        <ele>2026</ele>
        <time>2016-07-04T07:37:45.000Z</time>
      </trkpt>
      <trkpt lat="46.1971" lon="6.81544">
        <ele>2026</ele>
        <time>2016-07-04T07:37:46.000Z</time>
      </trkpt>
      <trkpt lat="46.19715" lon="6.81554">
        <ele>2027</ele>
        <time>2016-07-04T07:37:53.000Z</time>
      </trkpt>
      <trkpt lat="46.19716" lon="6.81557">
        <ele>2028</ele>
        <time>2016-07-04T07:37:54.000Z</time>
      </trkpt>
      <trkpt lat="46.19715" lon="6.81568">
        <ele>2030</ele>
        <time>2016-07-04T07:38:01.000Z</time>
      </trkpt>
      <trkpt lat="46.19714" lon="6.8157">
        <ele>2029</ele>
        <time>2016-07-04T07:38:02.000Z</time>
      </trkpt>
      <trkpt lat="46.19711" lon="6.81581">
        <ele>2031</ele>
        <time>2016-07-04T07:38:12.000Z</time>
      </trkpt>
      <trkpt lat="46.19711" lon="6.81582">
        <ele>2032</ele>
        <time>2016-07-04T07:38:13.000Z</time>
      </trkpt>
      <trkpt lat="46.19709" lon="6.81594">
        <ele>2031</ele>
        <time>2016-07-04T07:38:20.000Z</time>
      </trkpt>
      <trkpt lat="46.19708" lon="6.81594">
        <ele>2031</ele>
        <time>2016-07-04T07:38:21.000Z</time>
      </trkpt>
      <trkpt lat="46.19707" lon="6.81607">
        <ele>2029</ele>
        <time>2016-07-04T07:38:29.000Z</time>
      </trkpt>
      <trkpt lat="46.19707" lon="6.81607">
        <ele>2030</ele>
        <time>2016-07-04T07:38:30.000Z</time>
      </trkpt>
      <trkpt lat="46.19706" lon="6.8162">
        <ele>2027</ele>
        <time>2016-07-04T07:38:37.000Z</time>
      </trkpt>
      <trkpt lat="46.19706" lon="6.8162">
        <ele>2027</ele>
        <time>2016-07-04T07:38:38.000Z</time>
      </trkpt>
      <trkpt lat="46.19706" lon="6.8163">
        <ele>2027</ele>
        <time>2016-07-04T07:38:43.000Z</time>
      </trkpt>
      <trkpt lat="46.19706" lon="6.81633">
        <ele>2026</ele>
        <time>2016-07-04T07:38:44.000Z</time>
      </trkpt>
      <trkpt lat="46.19705" lon="6.81645">
        <ele>2027</ele>
        <time>2016-07-04T07:38:51.000Z</time>
      </trkpt>
      <trkpt lat="46.19705" lon="6.81646">
        <ele>2028</ele>
        <time>2016-07-04T07:38:52.000Z</time>
      </trkpt>
      <trkpt lat="46.19706" lon="6.81658">
        <ele>2027</ele>
        <time>2016-07-04T07:38:58.000Z</time>
      </trkpt>
      <trkpt lat="46.19706" lon="6.8166">
        <ele>2028</ele>
        <time>2016-07-04T07:38:59.000Z</time>
      </trkpt>
      <trkpt lat="46.19706" lon="6.81672">
        <ele>2027</ele>
        <time>2016-07-04T07:39:06.000Z</time>
      </trkpt>
      <trkpt lat="46.19705" lon="6.81673">
        <ele>2027</ele>
        <time>2016-07-04T07:39:07.000Z</time>
      </trkpt>
      <trkpt lat="46.19706" lon="6.81685">
        <ele>2033</ele>
        <time>2016-07-04T07:39:14.000Z</time>
      </trkpt>
      <trkpt lat="46.19707" lon="6.81687">
        <ele>2033</ele>
        <time>2016-07-04T07:39:15.000Z</time>
      </trkpt>
      <trkpt lat="46.19706" lon="6.81699">
        <ele>2032</ele>
        <time>2016-07-04T07:39:19.000Z</time>
      </trkpt>
      <trkpt lat="46.19706" lon="6.81701">
        <ele>2033</ele>
        <time>2016-07-04T07:39:20.000Z</time>
      </trkpt>
      <trkpt lat="46.19709" lon="6.81713">
        <ele>2036</ele>
        <time>2016-07-04T07:39:26.000Z</time>
      </trkpt>
      <trkpt lat="46.19709" lon="6.81717">
        <ele>2037</ele>
        <time>2016-07-04T07:39:27.000Z</time>
      </trkpt>
      <trkpt lat="46.19705" lon="6.81728">
        <ele>2033</ele>
        <time>2016-07-04T07:39:35.000Z</time>
      </trkpt>
      <trkpt lat="46.19705" lon="6.81729">
        <ele>2033</ele>
        <time>2016-07-04T07:39:36.000Z</time>
      </trkpt>
      <trkpt lat="46.197" lon="6.8174">
        <ele>2031</ele>
        <time>2016-07-04T07:39:44.000Z</time>
      </trkpt>
      <trkpt lat="46.197" lon="6.81742">
        <ele>2031</ele>
        <time>2016-07-04T07:39:45.000Z</time>
      </trkpt>
      <trkpt lat="46.19696" lon="6.81752">
        <ele>2030</ele>
        <time>2016-07-04T07:39:52.000Z</time>
      </trkpt>
      <trkpt lat="46.19696" lon="6.81754">
        <ele>2030</ele>
        <time>2016-07-04T07:39:53.000Z</time>
      </trkpt>
      <trkpt lat="46.19692" lon="6.81765">
        <ele>2031</ele>
        <time>2016-07-04T07:39:59.000Z</time>
      </trkpt>
      <trkpt lat="46.19691" lon="6.81766">
        <ele>2031</ele>
        <time>2016-07-04T07:40:00.000Z</time>
      </trkpt>
      <trkpt lat="46.19688" lon="6.81778">
        <ele>2029</ele>
        <time>2016-07-04T07:40:05.000Z</time>
      </trkpt>
      <trkpt lat="46.19688" lon="6.81779">
        <ele>2031</ele>
        <time>2016-07-04T07:40:06.000Z</time>
      </trkpt>
      <trkpt lat="46.19686" lon="6.8179">
        <ele>2032</ele>
        <time>2016-07-04T07:40:13.000Z</time>
      </trkpt>
      <trkpt lat="46.19687" lon="6.81792">
        <ele>2029</ele>
        <time>2016-07-04T07:40:14.000Z</time>
      </trkpt>
      <trkpt lat="46.19686" lon="6.81805">
        <ele>2031</ele>
        <time>2016-07-04T07:40:22.000Z</time>
      </trkpt>
      <trkpt lat="46.19686" lon="6.81808">
        <ele>2029</ele>
        <time>2016-07-04T07:40:23.000Z</time>
      </trkpt>
      <trkpt lat="46.19682" lon="6.81817">
        <ele>2031</ele>
        <time>2016-07-04T07:40:32.000Z</time>
      </trkpt>
      <trkpt lat="46.19681" lon="6.8182">
        <ele>2030</ele>
        <time>2016-07-04T07:40:33.000Z</time>
      </trkpt>
      <trkpt lat="46.19678" lon="6.8183">
        <ele>2030</ele>
        <time>2016-07-04T07:40:40.000Z</time>
      </trkpt>
      <trkpt lat="46.19677" lon="6.81831">
        <ele>2030</ele>
        <time>2016-07-04T07:40:41.000Z</time>
      </trkpt>
      <trkpt lat="46.19673" lon="6.81842">
        <ele>2032</ele>
        <time>2016-07-04T07:40:47.000Z</time>
      </trkpt>
      <trkpt lat="46.19673" lon="6.81844">
        <ele>2030</ele>
        <time>2016-07-04T07:40:48.000Z</time>
      </trkpt>
      <trkpt lat="46.19669" lon="6.81854">
        <ele>2033</ele>
        <time>2016-07-04T07:40:56.000Z</time>
      </trkpt>
      <trkpt lat="46.19668" lon="6.81856">
        <ele>2033</ele>
        <time>2016-07-04T07:40:57.000Z</time>
      </trkpt>
      <trkpt lat="46.19661" lon="6.81864">
        <ele>2037</ele>
        <time>2016-07-04T07:41:04.000Z</time>
      </trkpt>
      <trkpt lat="46.1966" lon="6.81865">
        <ele>2037</ele>
        <time>2016-07-04T07:41:05.000Z</time>
      </trkpt>
      <trkpt lat="46.19654" lon="6.81875">
        <ele>2037</ele>
        <time>2016-07-04T07:41:12.000Z</time>
      </trkpt>
      <trkpt lat="46.19654" lon="6.81876">
        <ele>2036</ele>
        <time>2016-07-04T07:41:13.000Z</time>
      </trkpt>
      <trkpt lat="46.1965" lon="6.81886">
        <ele>2033</ele>
        <time>2016-07-04T07:41:20.000Z</time>
      </trkpt>
      <trkpt lat="46.1965" lon="6.81887">
        <ele>2033</ele>
        <time>2016-07-04T07:41:21.000Z</time>
      </trkpt>
      <trkpt lat="46.19647" lon="6.81899">
        <ele>2037</ele>
        <time>2016-07-04T07:41:31.000Z</time>
      </trkpt>
      <trkpt lat="46.19646" lon="6.819">
        <ele>2038</ele>
        <time>2016-07-04T07:41:32.000Z</time>
      </trkpt>
      <trkpt lat="46.19644" lon="6.81911">
        <ele>2039</ele>
        <time>2016-07-04T07:41:39.000Z</time>
      </trkpt>
      <trkpt lat="46.19644" lon="6.81913">
        <ele>2036</ele>
        <time>2016-07-04T07:41:40.000Z</time>
      </trkpt>
      <trkpt lat="46.19641" lon="6.81924">
        <ele>2039</ele>
        <time>2016-07-04T07:41:48.000Z</time>
      </trkpt>
      <trkpt lat="46.19641" lon="6.81926">
        <ele>2040</ele>
        <time>2016-07-04T07:41:49.000Z</time>
      </trkpt>
      <trkpt lat="46.19636" lon="6.81935">
        <ele>2044</ele>
        <time>2016-07-04T07:41:56.000Z</time>
      </trkpt>
      <trkpt lat="46.19635" lon="6.81938">
        <ele>2045</ele>
        <time>2016-07-04T07:41:57.000Z</time>
      </trkpt>
      <trkpt lat="46.19629" lon="6.81946">
        <ele>2041</ele>
        <time>2016-07-04T07:42:04.000Z</time>
      </trkpt>
      <trkpt lat="46.19628" lon="6.81947">
        <ele>2041</ele>
        <time>2016-07-04T07:42:05.000Z</time>
      </trkpt>
      <trkpt lat="46.19622" lon="6.81954">
        <ele>2037</ele>
        <time>2016-07-04T07:42:13.000Z</time>
      </trkpt>
      <trkpt lat="46.19621" lon="6.81955">
        <ele>2040</ele>
        <time>2016-07-04T07:42:14.000Z</time>
      </trkpt>
      <trkpt lat="46.19614" lon="6.81964">
        <ele>2038</ele>
        <time>2016-07-04T07:42:21.000Z</time>
      </trkpt>
      <trkpt lat="46.19614" lon="6.81965">
        <ele>2038</ele>
        <time>2016-07-04T07:42:22.000Z</time>
      </trkpt>
      <trkpt lat="46.19608" lon="6.81973">
        <ele>2034</ele>
        <time>2016-07-04T07:42:29.000Z</time>
      </trkpt>
      <trkpt lat="46.19606" lon="6.81974">
        <ele>2034</ele>
        <time>2016-07-04T07:42:30.000Z</time>
      </trkpt>
      <trkpt lat="46.19598" lon="6.81979">
        <ele>2032</ele>
        <time>2016-07-04T07:42:36.000Z</time>
      </trkpt>
      <trkpt lat="46.19597" lon="6.81979">
        <ele>2033</ele>
        <time>2016-07-04T07:42:37.000Z</time>
      </trkpt>
      <trkpt lat="46.1959" lon="6.81985">
        <ele>2033</ele>
        <time>2016-07-04T07:42:44.000Z</time>
      </trkpt>
      <trkpt lat="46.19589" lon="6.81986">
        <ele>2032</ele>
        <time>2016-07-04T07:42:45.000Z</time>
      </trkpt>
      <trkpt lat="46.19581" lon="6.8199">
        <ele>2030</ele>
        <time>2016-07-04T07:42:52.000Z</time>
      </trkpt>
      <trkpt lat="46.19579" lon="6.8199">
        <ele>2031</ele>
        <time>2016-07-04T07:42:53.000Z</time>
      </trkpt>
      <trkpt lat="46.19571" lon="6.81994">
        <ele>2037</ele>
        <time>2016-07-04T07:43:10.000Z</time>
      </trkpt>
      <trkpt lat="46.19571" lon="6.81994">
        <ele>2037</ele>
        <time>2016-07-04T07:43:11.000Z</time>
      </trkpt>
      <trkpt lat="46.19563" lon="6.81996">
        <ele>2036</ele>
        <time>2016-07-04T07:43:17.000Z</time>
      </trkpt>
      <trkpt lat="46.19561" lon="6.81996">
        <ele>2036</ele>
        <time>2016-07-04T07:43:18.000Z</time>
      </trkpt>
      <trkpt lat="46.19553" lon="6.82001">
        <ele>2037</ele>
        <time>2016-07-04T07:43:26.000Z</time>
      </trkpt>
      <trkpt lat="46.19552" lon="6.82002">
        <ele>2037</ele>
        <time>2016-07-04T07:43:27.000Z</time>
      </trkpt>
      <trkpt lat="46.19546" lon="6.82011">
        <ele>2031</ele>
        <time>2016-07-04T07:43:36.000Z</time>
      </trkpt>
      <trkpt lat="46.19546" lon="6.82012">
        <ele>2032</ele>
        <time>2016-07-04T07:43:37.000Z</time>
      </trkpt>
      <trkpt lat="46.19538" lon="6.82018">
        <ele>2032</ele>
        <time>2016-07-04T07:43:44.000Z</time>
      </trkpt>
      <trkpt lat="46.19537" lon="6.82018">
        <ele>2032</ele>
        <time>2016-07-04T07:43:45.000Z</time>
      </trkpt>
      <trkpt lat="46.1953" lon="6.82025">
        <ele>2032</ele>
        <time>2016-07-04T07:43:52.000Z</time>
      </trkpt>
      <trkpt lat="46.19529" lon="6.82025">
        <ele>2032</ele>
        <time>2016-07-04T07:43:53.000Z</time>
      </trkpt>
      <trkpt lat="46.19522" lon="6.82031">
        <ele>2030</ele>
        <time>2016-07-04T07:44:00.000Z</time>
      </trkpt>
      <trkpt lat="46.19521" lon="6.82032">
        <ele>2030</ele>
        <time>2016-07-04T07:44:01.000Z</time>
      </trkpt>
      <trkpt lat="46.19513" lon="6.82038">
        <ele>2031</ele>
        <time>2016-07-04T07:44:11.000Z</time>
      </trkpt>
      <trkpt lat="46.19512" lon="6.82039">
        <ele>2030</ele>
        <time>2016-07-04T07:44:12.000Z</time>
      </trkpt>
      <trkpt lat="46.19504" lon="6.82044">
        <ele>2032</ele>
        <time>2016-07-04T07:44:22.000Z</time>
      </trkpt>
      <trkpt lat="46.19503" lon="6.82045">
        <ele>2032</ele>
        <time>2016-07-04T07:44:23.000Z</time>
      </trkpt>
      <trkpt lat="46.19496" lon="6.8205">
        <ele>2035</ele>
        <time>2016-07-04T07:44:30.000Z</time>
      </trkpt>
      <trkpt lat="46.19494" lon="6.82051">
        <ele>2036</ele>
        <time>2016-07-04T07:44:31.000Z</time>
      </trkpt>
      <trkpt lat="46.19486" lon="6.82055">
        <ele>2037</ele>
        <time>2016-07-04T07:44:41.000Z</time>
      </trkpt>
      <trkpt lat="46.19485" lon="6.82054">
        <ele>2037</ele>
        <time>2016-07-04T07:44:42.000Z</time>
      </trkpt>
      <trkpt lat="46.19478" lon="6.82059">
        <ele>2043</ele>
        <time>2016-07-04T07:44:52.000Z</time>
      </trkpt>
      <trkpt lat="46.19476" lon="6.8206">
        <ele>2043</ele>
        <time>2016-07-04T07:44:53.000Z</time>
      </trkpt>
      <trkpt lat="46.19468" lon="6.82062">
        <ele>2043</ele>
        <time>2016-07-04T07:45:03.000Z</time>
      </trkpt>
      <trkpt lat="46.19467" lon="6.82063">
        <ele>2045</ele>
        <time>2016-07-04T07:45:04.000Z</time>
      </trkpt>
      <trkpt lat="46.19458" lon="6.82061">
        <ele>2055</ele>
        <time>2016-07-04T07:45:18.000Z</time>
      </trkpt>
      <trkpt lat="46.19458" lon="6.82061">
        <ele>2056</ele>
        <time>2016-07-04T07:45:19.000Z</time>
      </trkpt>
      <trkpt lat="46.1945" lon="6.82057">
        <ele>2067</ele>
        <time>2016-07-04T07:47:24.000Z</time>
      </trkpt>
      <trkpt lat="46.19449" lon="6.82058">
        <ele>2067</ele>
        <time>2016-07-04T07:47:25.000Z</time>
      </trkpt>
      <trkpt lat="46.1944" lon="6.82059">
        <ele>2071</ele>
        <time>2016-07-04T07:47:35.000Z</time>
      </trkpt>
      <trkpt lat="46.1944" lon="6.8206">
        <ele>2072</ele>
        <time>2016-07-04T07:47:36.000Z</time>
      </trkpt>
      <trkpt lat="46.19432" lon="6.82066">
        <ele>2076</ele>
        <time>2016-07-04T07:47:50.000Z</time>
      </trkpt>
      <trkpt lat="46.19431" lon="6.82066">
        <ele>2076</ele>
        <time>2016-07-04T07:47:51.000Z</time>
      </trkpt>
      <trkpt lat="46.19423" lon="6.82069">
        <ele>2075</ele>
        <time>2016-07-04T07:48:01.000Z</time>
      </trkpt>
      <trkpt lat="46.19422" lon="6.82069">
        <ele>2077</ele>
        <time>2016-07-04T07:48:02.000Z</time>
      </trkpt>
      <trkpt lat="46.19415" lon="6.82073">
        <ele>2079</ele>
        <time>2016-07-04T07:48:13.000Z</time>
      </trkpt>
      <trkpt lat="46.19414" lon="6.82073">
        <ele>2081</ele>
        <time>2016-07-04T07:48:14.000Z</time>
      </trkpt>
      <trkpt lat="46.19405" lon="6.82075">
        <ele>2077</ele>
        <time>2016-07-04T07:48:26.000Z</time>
      </trkpt>
      <trkpt lat="46.19404" lon="6.82074">
        <ele>2080</ele>
        <time>2016-07-04T07:48:27.000Z</time>
      </trkpt>
      <trkpt lat="46.19396" lon="6.82077">
        <ele>2081</ele>
        <time>2016-07-04T07:48:37.000Z</time>
      </trkpt>
      <trkpt lat="46.19395" lon="6.82079">
        <ele>2080</ele>
        <time>2016-07-04T07:48:38.000Z</time>
      </trkpt>
      <trkpt lat="46.19386" lon="6.82081">
        <ele>2080</ele>
        <time>2016-07-04T07:48:48.000Z</time>
      </trkpt>
      <trkpt lat="46.19385" lon="6.82081">
        <ele>2079</ele>
        <time>2016-07-04T07:48:49.000Z</time>
      </trkpt>
      <trkpt lat="46.19377" lon="6.8208">
        <ele>2077</ele>
        <time>2016-07-04T07:48:55.000Z</time>
      </trkpt>
      <trkpt lat="46.19375" lon="6.8208">
        <ele>2076</ele>
        <time>2016-07-04T07:48:56.000Z</time>
      </trkpt>
      <trkpt lat="46.19367" lon="6.82084">
        <ele>2080</ele>
        <time>2016-07-04T07:49:09.000Z</time>
      </trkpt>
      <trkpt lat="46.19366" lon="6.82084">
        <ele>2079</ele>
        <time>2016-07-04T07:49:10.000Z</time>
      </trkpt>
      <trkpt lat="46.19358" lon="6.82089">
        <ele>2083</ele>
        <time>2016-07-04T07:49:20.000Z</time>
      </trkpt>
      <trkpt lat="46.19357" lon="6.82089">
        <ele>2083</ele>
        <time>2016-07-04T07:49:21.000Z</time>
      </trkpt>
      <trkpt lat="46.19349" lon="6.82091">
        <ele>2086</ele>
        <time>2016-07-04T07:49:31.000Z</time>
      </trkpt>
      <trkpt lat="46.19348" lon="6.82095">
        <ele>2082</ele>
        <time>2016-07-04T07:49:32.000Z</time>
      </trkpt>
      <trkpt lat="46.19341" lon="6.82101">
        <ele>2084</ele>
        <time>2016-07-04T07:49:44.000Z</time>
      </trkpt>
      <trkpt lat="46.19339" lon="6.82098">
        <ele>2087</ele>
        <time>2016-07-04T07:49:45.000Z</time>
      </trkpt>
      <trkpt lat="46.1933" lon="6.821">
        <ele>2094</ele>
        <time>2016-07-04T07:50:05.000Z</time>
      </trkpt>
      <trkpt lat="46.19329" lon="6.82101">
        <ele>2093</ele>
        <time>2016-07-04T07:50:06.000Z</time>
      </trkpt>
      <trkpt lat="46.1932" lon="6.82096">
        <ele>2096</ele>
        <time>2016-07-04T07:50:14.000Z</time>
      </trkpt>
      <trkpt lat="46.19319" lon="6.82095">
        <ele>2095</ele>
        <time>2016-07-04T07:50:15.000Z</time>
      </trkpt>
      <trkpt lat="46.19311" lon="6.82092">
        <ele>2096</ele>
        <time>2016-07-04T07:50:25.000Z</time>
      </trkpt>
      <trkpt lat="46.1931" lon="6.82092">
        <ele>2097</ele>
        <time>2016-07-04T07:50:26.000Z</time>
      </trkpt>
      <trkpt lat="46.19303" lon="6.82098">
        <ele>2097</ele>
        <time>2016-07-04T07:50:39.000Z</time>
      </trkpt>
      <trkpt lat="46.19301" lon="6.82098">
        <ele>2098</ele>
        <time>2016-07-04T07:50:40.000Z</time>
      </trkpt>
      <trkpt lat="46.19294" lon="6.82105">
        <ele>2096</ele>
        <time>2016-07-04T07:50:51.000Z</time>
      </trkpt>
      <trkpt lat="46.19294" lon="6.82107">
        <ele>2097</ele>
        <time>2016-07-04T07:50:52.000Z</time>
      </trkpt>
      <trkpt lat="46.19286" lon="6.82113">
        <ele>2096</ele>
        <time>2016-07-04T07:51:02.000Z</time>
      </trkpt>
      <trkpt lat="46.19286" lon="6.82114">
        <ele>2097</ele>
        <time>2016-07-04T07:51:03.000Z</time>
      </trkpt>
      <trkpt lat="46.19279" lon="6.82114">
        <ele>2099</ele>
        <time>2016-07-04T07:51:10.000Z</time>
      </trkpt>
      <trkpt lat="46.19276" lon="6.82112">
        <ele>2100</ele>
        <time>2016-07-04T07:51:13.000Z</time>
      </trkpt>
      <trkpt lat="46.19269" lon="6.82108">
        <ele>2104</ele>
        <time>2016-07-04T07:51:24.000Z</time>
      </trkpt>
      <trkpt lat="46.19267" lon="6.82107">
        <ele>2104</ele>
        <time>2016-07-04T07:51:25.000Z</time>
      </trkpt>
      <trkpt lat="46.19259" lon="6.82103">
        <ele>2108</ele>
        <time>2016-07-04T07:51:39.000Z</time>
      </trkpt>
      <trkpt lat="46.19258" lon="6.82102">
        <ele>2109</ele>
        <time>2016-07-04T07:51:40.000Z</time>
      </trkpt>
      <trkpt lat="46.19253" lon="6.82093">
        <ele>2112</ele>
        <time>2016-07-04T07:51:50.000Z</time>
      </trkpt>
      <trkpt lat="46.19252" lon="6.82093">
        <ele>2112</ele>
        <time>2016-07-04T07:51:51.000Z</time>
      </trkpt>
      <trkpt lat="46.19244" lon="6.82086">
        <ele>2118</ele>
        <time>2016-07-04T07:53:01.000Z</time>
      </trkpt>
      <trkpt lat="46.19244" lon="6.82085">
        <ele>2118</ele>
        <time>2016-07-04T07:53:02.000Z</time>
      </trkpt>
      <trkpt lat="46.19237" lon="6.82077">
        <ele>2122</ele>
        <time>2016-07-04T07:53:13.000Z</time>
      </trkpt>
      <trkpt lat="46.19237" lon="6.82076">
        <ele>2123</ele>
        <time>2016-07-04T07:53:14.000Z</time>
      </trkpt>
      <trkpt lat="46.19232" lon="6.82065">
        <ele>2124</ele>
        <time>2016-07-04T07:53:27.000Z</time>
      </trkpt>
      <trkpt lat="46.19231" lon="6.82063">
        <ele>2122</ele>
        <time>2016-07-04T07:53:28.000Z</time>
      </trkpt>
      <trkpt lat="46.19224" lon="6.82058">
        <ele>2120</ele>
        <time>2016-07-04T07:53:36.000Z</time>
      </trkpt>
      <trkpt lat="46.19222" lon="6.82058">
        <ele>2118</ele>
        <time>2016-07-04T07:53:37.000Z</time>
      </trkpt>
      <trkpt lat="46.19221" lon="6.82069">
        <ele>2120</ele>
        <time>2016-07-04T07:53:45.000Z</time>
      </trkpt>
      <trkpt lat="46.19222" lon="6.82071">
        <ele>2120</ele>
        <time>2016-07-04T07:53:46.000Z</time>
      </trkpt>
      <trkpt lat="46.19224" lon="6.82081">
        <ele>2121</ele>
        <time>2016-07-04T07:53:55.000Z</time>
      </trkpt>
      <trkpt lat="46.19224" lon="6.82081">
        <ele>2123</ele>
        <time>2016-07-04T07:53:56.000Z</time>
      </trkpt>
      <trkpt lat="46.19224" lon="6.82081">
        <ele>2123</ele>
        <time>2016-07-04T07:53:57.000Z</time>
      </trkpt>
      <trkpt lat="46.19224" lon="6.82093">
        <ele>2126</ele>
        <time>2016-07-04T07:54:09.000Z</time>
      </trkpt>
      <trkpt lat="46.19224" lon="6.82095">
        <ele>2126</ele>
        <time>2016-07-04T07:54:10.000Z</time>
      </trkpt>
      <trkpt lat="46.19223" lon="6.82107">
        <ele>2123</ele>
        <time>2016-07-04T07:54:19.000Z</time>
      </trkpt>
      <trkpt lat="46.19223" lon="6.82109">
        <ele>2123</ele>
        <time>2016-07-04T07:54:20.000Z</time>
      </trkpt>
      <trkpt lat="46.19224" lon="6.82122">
        <ele>2123</ele>
        <time>2016-07-04T07:54:32.000Z</time>
      </trkpt>
      <trkpt lat="46.19223" lon="6.82124">
        <ele>2124</ele>
        <time>2016-07-04T07:54:33.000Z</time>
      </trkpt>
      <trkpt lat="46.19215" lon="6.82124">
        <ele>2129</ele>
        <time>2016-07-04T07:54:44.000Z</time>
      </trkpt>
      <trkpt lat="46.19214" lon="6.82124">
        <ele>2128</ele>
        <time>2016-07-04T07:54:45.000Z</time>
      </trkpt>
      <trkpt lat="46.19206" lon="6.82122">
        <ele>2132</ele>
        <time>2016-07-04T07:54:57.000Z</time>
      </trkpt>
      <trkpt lat="46.19205" lon="6.82122">
        <ele>2133</ele>
        <time>2016-07-04T07:54:58.000Z</time>
      </trkpt>
      <trkpt lat="46.19197" lon="6.82125">
        <ele>2141</ele>
        <time>2016-07-04T07:55:25.000Z</time>
      </trkpt>
      <trkpt lat="46.19196" lon="6.82126">
        <ele>2141</ele>
        <time>2016-07-04T07:55:26.000Z</time>
      </trkpt>
      <trkpt lat="46.19188" lon="6.82126">
        <ele>2152</ele>
        <time>2016-07-04T07:56:02.000Z</time>
      </trkpt>
      <trkpt lat="46.19187" lon="6.82128">
        <ele>2153</ele>
        <time>2016-07-04T07:56:03.000Z</time>
      </trkpt>
      <trkpt lat="46.19178" lon="6.82124">
        <ele>2151</ele>
        <time>2016-07-04T07:56:12.000Z</time>
      </trkpt>
      <trkpt lat="46.19177" lon="6.82124">
        <ele>2150</ele>
        <time>2016-07-04T07:56:13.000Z</time>
      </trkpt>
      <trkpt lat="46.19181" lon="6.82135">
        <ele>2148</ele>
        <time>2016-07-04T08:00:57.000Z</time>
      </trkpt>
      <trkpt lat="46.19182" lon="6.82138">
        <ele>2150</ele>
        <time>2016-07-04T08:00:58.000Z</time>
      </trkpt>
      <trkpt lat="46.19184" lon="6.8215">
        <ele>2146</ele>
        <time>2016-07-04T08:01:06.000Z</time>
      </trkpt>
      <trkpt lat="46.19184" lon="6.82151">
        <ele>2146</ele>
        <time>2016-07-04T08:01:07.000Z</time>
      </trkpt>
      <trkpt lat="46.19189" lon="6.82162">
        <ele>2146</ele>
        <time>2016-07-04T08:01:20.000Z</time>
      </trkpt>
      <trkpt lat="46.19188" lon="6.82164">
        <ele>2147</ele>
        <time>2016-07-04T08:01:21.000Z</time>
      </trkpt>
      <trkpt lat="46.19188" lon="6.82175">
        <ele>2145</ele>
        <time>2016-07-04T08:01:30.000Z</time>
      </trkpt>
      <trkpt lat="46.19189" lon="6.82178">
        <ele>2145</ele>
        <time>2016-07-04T08:01:31.000Z</time>
      </trkpt>
      <trkpt lat="46.19193" lon="6.82188">
        <ele>2143</ele>
        <time>2016-07-04T08:01:40.000Z</time>
      </trkpt>
      <trkpt lat="46.19193" lon="6.8219">
        <ele>2142</ele>
        <time>2016-07-04T08:01:41.000Z</time>
      </trkpt>
      <trkpt lat="46.19195" lon="6.82202">
        <ele>2138</ele>
        <time>2016-07-04T08:01:48.000Z</time>
      </trkpt>
      <trkpt lat="46.19194" lon="6.82203">
        <ele>2138</ele>
        <time>2016-07-04T08:01:49.000Z</time>
      </trkpt>
      <trkpt lat="46.19193" lon="6.82216">
        <ele>2133</ele>
        <time>2016-07-04T08:01:57.000Z</time>
      </trkpt>
      <trkpt lat="46.19193" lon="6.82217">
        <ele>2132</ele>
        <time>2016-07-04T08:01:58.000Z</time>
      </trkpt>
      <trkpt lat="46.19188" lon="6.82225">
        <ele>2133</ele>
        <time>2016-07-04T08:02:02.000Z</time>
      </trkpt>
      <trkpt lat="46.19187" lon="6.82227">
        <ele>2133</ele>
        <time>2016-07-04T08:02:03.000Z</time>
      </trkpt>
      <trkpt lat="46.19188" lon="6.82239">
        <ele>2131</ele>
        <time>2016-07-04T08:02:15.000Z</time>
      </trkpt>
      <trkpt lat="46.19188" lon="6.8224">
        <ele>2131</ele>
        <time>2016-07-04T08:02:16.000Z</time>
      </trkpt>
      <trkpt lat="46.19187" lon="6.82252">
        <ele>2128</ele>
        <time>2016-07-04T08:02:24.000Z</time>
      </trkpt>
      <trkpt lat="46.19185" lon="6.82253">
        <ele>2129</ele>
        <time>2016-07-04T08:02:25.000Z</time>
      </trkpt>
      <trkpt lat="46.1918" lon="6.82264">
        <ele>2129</ele>
        <time>2016-07-04T08:02:34.000Z</time>
      </trkpt>
      <trkpt lat="46.1918" lon="6.82265">
        <ele>2128</ele>
        <time>2016-07-04T08:02:35.000Z</time>
      </trkpt>
      <trkpt lat="46.19178" lon="6.82277">
        <ele>2126</ele>
        <time>2016-07-04T08:02:43.000Z</time>
      </trkpt>
      <trkpt lat="46.19176" lon="6.8228">
        <ele>2126</ele>
        <time>2016-07-04T08:02:44.000Z</time>
      </trkpt>
      <trkpt lat="46.19173" lon="6.82291">
        <ele>2127</ele>
        <time>2016-07-04T08:02:54.000Z</time>
      </trkpt>
      <trkpt lat="46.19173" lon="6.82293">
        <ele>2127</ele>
        <time>2016-07-04T08:02:55.000Z</time>
      </trkpt>
      <trkpt lat="46.19169" lon="6.82304">
        <ele>2125</ele>
        <time>2016-07-04T08:03:03.000Z</time>
      </trkpt>
      <trkpt lat="46.1917" lon="6.82306">
        <ele>2125</ele>
        <time>2016-07-04T08:03:04.000Z</time>
      </trkpt>
      <trkpt lat="46.19167" lon="6.82318">
        <ele>2127</ele>
        <time>2016-07-04T08:03:14.000Z</time>
      </trkpt>
      <trkpt lat="46.19166" lon="6.82319">
        <ele>2127</ele>
        <time>2016-07-04T08:03:15.000Z</time>
      </trkpt>
      <trkpt lat="46.19164" lon="6.82329">
        <ele>2127</ele>
        <time>2016-07-04T08:03:20.000Z</time>
      </trkpt>
      <trkpt lat="46.19164" lon="6.82332">
        <ele>2126</ele>
        <time>2016-07-04T08:03:21.000Z</time>
      </trkpt>
      <trkpt lat="46.19158" lon="6.82341">
        <ele>2128</ele>
        <time>2016-07-04T08:03:28.000Z</time>
      </trkpt>
      <trkpt lat="46.19157" lon="6.82343">
        <ele>2128</ele>
        <time>2016-07-04T08:03:29.000Z</time>
      </trkpt>
      <trkpt lat="46.19156" lon="6.82356">
        <ele>2123</ele>
        <time>2016-07-04T08:03:39.000Z</time>
      </trkpt>
      <trkpt lat="46.19156" lon="6.82357">
        <ele>2123</ele>
        <time>2016-07-04T08:03:40.000Z</time>
      </trkpt>
      <trkpt lat="46.19151" lon="6.82367">
        <ele>2124</ele>
        <time>2016-07-04T08:03:50.000Z</time>
      </trkpt>
      <trkpt lat="46.19151" lon="6.82369">
        <ele>2123</ele>
        <time>2016-07-04T08:03:51.000Z</time>
      </trkpt>
      <trkpt lat="46.19148" lon="6.82379">
        <ele>2121</ele>
        <time>2016-07-04T08:04:00.000Z</time>
      </trkpt>
      <trkpt lat="46.19148" lon="6.82382">
        <ele>2121</ele>
        <time>2016-07-04T08:04:01.000Z</time>
      </trkpt>
      <trkpt lat="46.19145" lon="6.82393">
        <ele>2118</ele>
        <time>2016-07-04T08:04:10.000Z</time>
      </trkpt>
      <trkpt lat="46.19145" lon="6.82394">
        <ele>2118</ele>
        <time>2016-07-04T08:04:11.000Z</time>
      </trkpt>
      <trkpt lat="46.19143" lon="6.82407">
        <ele>2111</ele>
        <time>2016-07-04T08:04:20.000Z</time>
      </trkpt>
      <trkpt lat="46.19141" lon="6.82409">
        <ele>2111</ele>
        <time>2016-07-04T08:04:21.000Z</time>
      </trkpt>
      <trkpt lat="46.19138" lon="6.82419">
        <ele>2110</ele>
        <time>2016-07-04T08:04:32.000Z</time>
      </trkpt>
      <trkpt lat="46.19137" lon="6.82422">
        <ele>2110</ele>
        <time>2016-07-04T08:04:33.000Z</time>
      </trkpt>
      <trkpt lat="46.19135" lon="6.8241">
        <ele>2107</ele>
        <time>2016-07-04T08:04:47.000Z</time>
      </trkpt>
      <trkpt lat="46.19135" lon="6.82407">
        <ele>2107</ele>
        <time>2016-07-04T08:04:48.000Z</time>
      </trkpt>
      <trkpt lat="46.19132" lon="6.82397">
        <ele>2105</ele>
        <time>2016-07-04T08:04:57.000Z</time>
      </trkpt>
      <trkpt lat="46.19132" lon="6.82395">
        <ele>2106</ele>
        <time>2016-07-04T08:04:58.000Z</time>
      </trkpt>
      <trkpt lat="46.19131" lon="6.82384">
        <ele>2103</ele>
        <time>2016-07-04T08:05:07.000Z</time>
      </trkpt>
      <trkpt lat="46.19131" lon="6.82382">
        <ele>2102</ele>
        <time>2016-07-04T08:05:08.000Z</time>
      </trkpt>
      <trkpt lat="46.19128" lon="6.8237">
        <ele>2099</ele>
        <time>2016-07-04T08:05:15.000Z</time>
      </trkpt>
      <trkpt lat="46.19127" lon="6.82368">
        <ele>2098</ele>
        <time>2016-07-04T08:05:16.000Z</time>
      </trkpt>
      <trkpt lat="46.19121" lon="6.82358">
        <ele>2094</ele>
        <time>2016-07-04T08:05:25.000Z</time>
      </trkpt>
      <trkpt lat="46.19121" lon="6.82357">
        <ele>2094</ele>
        <time>2016-07-04T08:05:26.000Z</time>
      </trkpt>
      <trkpt lat="46.19116" lon="6.82347">
        <ele>2093</ele>
        <time>2016-07-04T08:05:36.000Z</time>
      </trkpt>
      <trkpt lat="46.19116" lon="6.82346">
        <ele>2093</ele>
        <time>2016-07-04T08:05:37.000Z</time>
      </trkpt>
      <trkpt lat="46.19112" lon="6.82334">
        <ele>2091</ele>
        <time>2016-07-04T08:05:46.000Z</time>
      </trkpt>
      <trkpt lat="46.19112" lon="6.82333">
        <ele>2090</ele>
        <time>2016-07-04T08:05:47.000Z</time>
      </trkpt>
      <trkpt lat="46.19106" lon="6.82324">
        <ele>2093</ele>
        <time>2016-07-04T08:06:00.000Z</time>
      </trkpt>
      <trkpt lat="46.19106" lon="6.82323">
        <ele>2090</ele>
        <time>2016-07-04T08:06:01.000Z</time>
      </trkpt>
      <trkpt lat="46.191" lon="6.82314">
        <ele>2084</ele>
        <time>2016-07-04T08:06:17.000Z</time>
      </trkpt>
      <trkpt lat="46.19099" lon="6.82314">
        <ele>2084</ele>
        <time>2016-07-04T08:06:18.000Z</time>
      </trkpt>
      <trkpt lat="46.19095" lon="6.82303">
        <ele>2081</ele>
        <time>2016-07-04T08:06:27.000Z</time>
      </trkpt>
      <trkpt lat="46.19095" lon="6.82302">
        <ele>2080</ele>
        <time>2016-07-04T08:06:28.000Z</time>
      </trkpt>
      <trkpt lat="46.19089" lon="6.82292">
        <ele>2079</ele>
        <time>2016-07-04T08:06:35.000Z</time>
      </trkpt>
      <trkpt lat="46.19088" lon="6.82291">
        <ele>2079</ele>
        <time>2016-07-04T08:06:36.000Z</time>
      </trkpt>
      <trkpt lat="46.19083" lon="6.8228">
        <ele>2074</ele>
        <time>2016-07-04T08:06:47.000Z</time>
      </trkpt>
      <trkpt lat="46.19083" lon="6.82279">
        <ele>2074</ele>
        <time>2016-07-04T08:06:48.000Z</time>
      </trkpt>
      <trkpt lat="46.19076" lon="6.82271">
        <ele>2073</ele>
        <time>2016-07-04T08:06:58.000Z</time>
      </trkpt>
      <trkpt lat="46.19076" lon="6.8227">
        <ele>2072</ele>
        <time>2016-07-04T08:06:59.000Z</time>
      </trkpt>
      <trkpt lat="46.19075" lon="6.82258">
        <ele>2073</ele>
        <time>2016-07-04T08:07:08.000Z</time>
      </trkpt>
      <trkpt lat="46.19075" lon="6.82257">
        <ele>2074</ele>
        <time>2016-07-04T08:07:09.000Z</time>
      </trkpt>
      <trkpt lat="46.19078" lon="6.82246">
        <ele>2076</ele>
        <time>2016-07-04T08:07:18.000Z</time>
      </trkpt>
      <trkpt lat="46.19078" lon="6.82245">
        <ele>2075</ele>
        <time>2016-07-04T08:07:19.000Z</time>
      </trkpt>
      <trkpt lat="46.19079" lon="6.82233">
        <ele>2074</ele>
        <time>2016-07-04T08:07:27.000Z</time>
      </trkpt>
      <trkpt lat="46.19079" lon="6.82231">
        <ele>2074</ele>
        <time>2016-07-04T08:07:28.000Z</time>
      </trkpt>
      <trkpt lat="46.19076" lon="6.8222">
        <ele>2074</ele>
        <time>2016-07-04T08:07:37.000Z</time>
      </trkpt>
      <trkpt lat="46.19075" lon="6.82219">
        <ele>2074</ele>
        <time>2016-07-04T08:07:38.000Z</time>
      </trkpt>
      <trkpt lat="46.19072" lon="6.82208">
        <ele>2074</ele>
        <time>2016-07-04T08:07:46.000Z</time>
      </trkpt>
      <trkpt lat="46.19071" lon="6.82207">
        <ele>2073</ele>
        <time>2016-07-04T08:07:47.000Z</time>
      </trkpt>
      <trkpt lat="46.19064" lon="6.82199">
        <ele>2070</ele>
        <time>2016-07-04T08:07:59.000Z</time>
      </trkpt>
      <trkpt lat="46.19063" lon="6.82198">
        <ele>2069</ele>
        <time>2016-07-04T08:08:00.000Z</time>
      </trkpt>
      <trkpt lat="46.19057" lon="6.82189">
        <ele>2067</ele>
        <time>2016-07-04T08:08:07.000Z</time>
      </trkpt>
      <trkpt lat="46.19057" lon="6.82189">
        <ele>2067</ele>
        <time>2016-07-04T08:08:08.000Z</time>
      </trkpt>
      <trkpt lat="46.1905" lon="6.82182">
        <ele>2064</ele>
        <time>2016-07-04T08:08:15.000Z</time>
      </trkpt>
      <trkpt lat="46.19049" lon="6.8218">
        <ele>2065</ele>
        <time>2016-07-04T08:08:16.000Z</time>
      </trkpt>
      <trkpt lat="46.19043" lon="6.82172">
        <ele>2062</ele>
        <time>2016-07-04T08:08:26.000Z</time>
      </trkpt>
      <trkpt lat="46.19042" lon="6.82171">
        <ele>2062</ele>
        <time>2016-07-04T08:08:27.000Z</time>
      </trkpt>
      <trkpt lat="46.19034" lon="6.82165">
        <ele>2062</ele>
        <time>2016-07-04T08:08:38.000Z</time>
      </trkpt>
      <trkpt lat="46.19033" lon="6.82164">
        <ele>2063</ele>
        <time>2016-07-04T08:08:39.000Z</time>
      </trkpt>
      <trkpt lat="46.19028" lon="6.82158">
        <ele>2057</ele>
        <time>2016-07-04T08:08:47.000Z</time>
      </trkpt>
      <trkpt lat="46.19026" lon="6.82155">
        <ele>2054</ele>
        <time>2016-07-04T08:08:48.000Z</time>
      </trkpt>
      <trkpt lat="46.19018" lon="6.8215">
        <ele>2054</ele>
        <time>2016-07-04T08:08:58.000Z</time>
      </trkpt>
      <trkpt lat="46.19017" lon="6.82151">
        <ele>2055</ele>
        <time>2016-07-04T08:08:59.000Z</time>
      </trkpt>
      <trkpt lat="46.1901" lon="6.82147">
        <ele>2053</ele>
        <time>2016-07-04T08:09:06.000Z</time>
      </trkpt>
      <trkpt lat="46.19008" lon="6.82146">
        <ele>2053</ele>
        <time>2016-07-04T08:09:07.000Z</time>
      </trkpt>
      <trkpt lat="46.19" lon="6.82141">
        <ele>2053</ele>
        <time>2016-07-04T08:09:13.000Z</time>
      </trkpt>
      <trkpt lat="46.18999" lon="6.8214">
        <ele>2053</ele>
        <time>2016-07-04T08:09:14.000Z</time>
      </trkpt>
      <trkpt lat="46.18992" lon="6.82138">
        <ele>2046</ele>
        <time>2016-07-04T08:09:24.000Z</time>
      </trkpt>
      <trkpt lat="46.1899" lon="6.82137">
        <ele>2046</ele>
        <time>2016-07-04T08:09:25.000Z</time>
      </trkpt>
      <trkpt lat="46.18983" lon="6.82132">
        <ele>2049</ele>
        <time>2016-07-04T08:09:32.000Z</time>
      </trkpt>
      <trkpt lat="46.18982" lon="6.82131">
        <ele>2049</ele>
        <time>2016-07-04T08:09:33.000Z</time>
      </trkpt>
      <trkpt lat="46.18975" lon="6.82126">
        <ele>2054</ele>
        <time>2016-07-04T08:09:39.000Z</time>
      </trkpt>
      <trkpt lat="46.18973" lon="6.82125">
        <ele>2055</ele>
        <time>2016-07-04T08:09:40.000Z</time>
      </trkpt>
      <trkpt lat="46.18966" lon="6.82119">
        <ele>2055</ele>
        <time>2016-07-04T08:09:48.000Z</time>
      </trkpt>
      <trkpt lat="46.18965" lon="6.82119">
        <ele>2055</ele>
        <time>2016-07-04T08:09:49.000Z</time>
      </trkpt>
      <trkpt lat="46.18957" lon="6.82113">
        <ele>2055</ele>
        <time>2016-07-04T08:09:58.000Z</time>
      </trkpt>
      <trkpt lat="46.18956" lon="6.82113">
        <ele>2055</ele>
        <time>2016-07-04T08:09:59.000Z</time>
      </trkpt>
      <trkpt lat="46.18948" lon="6.82115">
        <ele>2057</ele>
        <time>2016-07-04T08:10:05.000Z</time>
      </trkpt>
      <trkpt lat="46.18946" lon="6.82114">
        <ele>2057</ele>
        <time>2016-07-04T08:10:06.000Z</time>
      </trkpt>
      <trkpt lat="46.18938" lon="6.82109">
        <ele>2056</ele>
        <time>2016-07-04T08:10:13.000Z</time>
      </trkpt>
      <trkpt lat="46.18936" lon="6.82109">
        <ele>2057</ele>
        <time>2016-07-04T08:10:14.000Z</time>
      </trkpt>
      <trkpt lat="46.18929" lon="6.82105">
        <ele>2056</ele>
        <time>2016-07-04T08:10:21.000Z</time>
      </trkpt>
      <trkpt lat="46.18927" lon="6.82104">
        <ele>2057</ele>
        <time>2016-07-04T08:10:22.000Z</time>
      </trkpt>
      <trkpt lat="46.18919" lon="6.821">
        <ele>2059</ele>
        <time>2016-07-04T08:10:29.000Z</time>
      </trkpt>
      <trkpt lat="46.18918" lon="6.82101">
        <ele>2059</ele>
        <time>2016-07-04T08:10:30.000Z</time>
      </trkpt>
      <trkpt lat="46.1891" lon="6.82099">
        <ele>2058</ele>
        <time>2016-07-04T08:10:36.000Z</time>
      </trkpt>
      <trkpt lat="46.18909" lon="6.82098">
        <ele>2058</ele>
        <time>2016-07-04T08:10:37.000Z</time>
      </trkpt>
      <trkpt lat="46.18901" lon="6.82092">
        <ele>2058</ele>
        <time>2016-07-04T08:10:44.000Z</time>
      </trkpt>
      <trkpt lat="46.18899" lon="6.82091">
        <ele>2059</ele>
        <time>2016-07-04T08:10:45.000Z</time>
      </trkpt>
      <trkpt lat="46.1889" lon="6.8209">
        <ele>2060</ele>
        <time>2016-07-04T08:10:54.000Z</time>
      </trkpt>
      <trkpt lat="46.18889" lon="6.8209">
        <ele>2060</ele>
        <time>2016-07-04T08:10:55.000Z</time>
      </trkpt>
      <trkpt lat="46.1888" lon="6.82092">
        <ele>2059</ele>
        <time>2016-07-04T08:11:07.000Z</time>
      </trkpt>
      <trkpt lat="46.18879" lon="6.82093">
        <ele>2060</ele>
        <time>2016-07-04T08:11:08.000Z</time>
      </trkpt>
      <trkpt lat="46.18871" lon="6.82097">
        <ele>2059</ele>
        <time>2016-07-04T08:11:15.000Z</time>
      </trkpt>
      <trkpt lat="46.1887" lon="6.82097">
        <ele>2060</ele>
        <time>2016-07-04T08:11:16.000Z</time>
      </trkpt>
      <trkpt lat="46.18862" lon="6.82099">
        <ele>2057</ele>
        <time>2016-07-04T08:11:23.000Z</time>
      </trkpt>
      <trkpt lat="46.18861" lon="6.82099">
        <ele>2056</ele>
        <time>2016-07-04T08:11:24.000Z</time>
      </trkpt>
      <trkpt lat="46.18852" lon="6.82097">
        <ele>2053</ele>
        <time>2016-07-04T08:11:33.000Z</time>
      </trkpt>
      <trkpt lat="46.18851" lon="6.82097">
        <ele>2053</ele>
        <time>2016-07-04T08:11:34.000Z</time>
      </trkpt>
      <trkpt lat="46.18844" lon="6.82102">
        <ele>2054</ele>
        <time>2016-07-04T08:11:41.000Z</time>
      </trkpt>
      <trkpt lat="46.18842" lon="6.82104">
        <ele>2055</ele>
        <time>2016-07-04T08:11:42.000Z</time>
      </trkpt>
      <trkpt lat="46.18835" lon="6.82109">
        <ele>2054</ele>
        <time>2016-07-04T08:11:52.000Z</time>
      </trkpt>
      <trkpt lat="46.18833" lon="6.82111">
        <ele>2056</ele>
        <time>2016-07-04T08:11:53.000Z</time>
      </trkpt>
      <trkpt lat="46.18825" lon="6.8211">
        <ele>2050</ele>
        <time>2016-07-04T08:12:02.000Z</time>
      </trkpt>
      <trkpt lat="46.18824" lon="6.82109">
        <ele>2049</ele>
        <time>2016-07-04T08:12:03.000Z</time>
      </trkpt>
      <trkpt lat="46.18816" lon="6.82109">
        <ele>2041</ele>
        <time>2016-07-04T08:12:12.000Z</time>
      </trkpt>
      <trkpt lat="46.18815" lon="6.82109">
        <ele>2041</ele>
        <time>2016-07-04T08:12:13.000Z</time>
      </trkpt>
      <trkpt lat="46.18807" lon="6.82107">
        <ele>2038</ele>
        <time>2016-07-04T08:12:21.000Z</time>
      </trkpt>
      <trkpt lat="46.18805" lon="6.82108">
        <ele>2039</ele>
        <time>2016-07-04T08:12:22.000Z</time>
      </trkpt>
      <trkpt lat="46.18797" lon="6.82104">
        <ele>2035</ele>
        <time>2016-07-04T08:12:29.000Z</time>
      </trkpt>
      <trkpt lat="46.18796" lon="6.82104">
        <ele>2035</ele>
        <time>2016-07-04T08:12:30.000Z</time>
      </trkpt>
      <trkpt lat="46.18787" lon="6.82103">
        <ele>2032</ele>
        <time>2016-07-04T08:12:38.000Z</time>
      </trkpt>
      <trkpt lat="46.18785" lon="6.82103">
        <ele>2033</ele>
        <time>2016-07-04T08:12:39.000Z</time>
      </trkpt>
      <trkpt lat="46.18776" lon="6.82103">
        <ele>2029</ele>
        <time>2016-07-04T08:12:48.000Z</time>
      </trkpt>
      <trkpt lat="46.18775" lon="6.82102">
        <ele>2028</ele>
        <time>2016-07-04T08:12:49.000Z</time>
      </trkpt>
      <trkpt lat="46.18768" lon="6.821">
        <ele>2029</ele>
        <time>2016-07-04T08:12:55.000Z</time>
      </trkpt>
      <trkpt lat="46.18766" lon="6.82099">
        <ele>2031</ele>
        <time>2016-07-04T08:12:56.000Z</time>
      </trkpt>
      <trkpt lat="46.18758" lon="6.82097">
        <ele>2029</ele>
        <time>2016-07-04T08:13:02.000Z</time>
      </trkpt>
      <trkpt lat="46.18756" lon="6.82096">
        <ele>2029</ele>
        <time>2016-07-04T08:13:03.000Z</time>
      </trkpt>
      <trkpt lat="46.18748" lon="6.82094">
        <ele>2031</ele>
        <time>2016-07-04T08:13:11.000Z</time>
      </trkpt>
      <trkpt lat="46.18746" lon="6.82094">
        <ele>2031</ele>
        <time>2016-07-04T08:13:12.000Z</time>
      </trkpt>
      <trkpt lat="46.18738" lon="6.8209">
        <ele>2026</ele>
        <time>2016-07-04T08:13:21.000Z</time>
      </trkpt>
      <trkpt lat="46.18738" lon="6.8209">
        <ele>2026</ele>
        <time>2016-07-04T08:13:22.000Z</time>
      </trkpt>
      <trkpt lat="46.18729" lon="6.82091">
        <ele>2024</ele>
        <time>2016-07-04T08:13:31.000Z</time>
      </trkpt>
      <trkpt lat="46.18728" lon="6.8209">
        <ele>2024</ele>
        <time>2016-07-04T08:13:32.000Z</time>
      </trkpt>
      <trkpt lat="46.1872" lon="6.82085">
        <ele>2021</ele>
        <time>2016-07-04T08:13:40.000Z</time>
      </trkpt>
      <trkpt lat="46.18719" lon="6.82084">
        <ele>2021</ele>
        <time>2016-07-04T08:13:41.000Z</time>
      </trkpt>
      <trkpt lat="46.18711" lon="6.82087">
        <ele>2024</ele>
        <time>2016-07-04T08:13:51.000Z</time>
      </trkpt>
      <trkpt lat="46.18709" lon="6.82087">
        <ele>2025</ele>
        <time>2016-07-04T08:13:52.000Z</time>
      </trkpt>
      <trkpt lat="46.18701" lon="6.82091">
        <ele>2025</ele>
        <time>2016-07-04T08:14:04.000Z</time>
      </trkpt>
      <trkpt lat="46.187" lon="6.82091">
        <ele>2025</ele>
        <time>2016-07-04T08:14:05.000Z</time>
      </trkpt>
      <trkpt lat="46.18692" lon="6.82096">
        <ele>2029</ele>
        <time>2016-07-04T08:14:11.000Z</time>
      </trkpt>
      <trkpt lat="46.18691" lon="6.82096">
        <ele>2028</ele>
        <time>2016-07-04T08:14:12.000Z</time>
      </trkpt>
      <trkpt lat="46.18683" lon="6.82099">
        <ele>2030</ele>
        <time>2016-07-04T08:14:21.000Z</time>
      </trkpt>
      <trkpt lat="46.18681" lon="6.821">
        <ele>2029</ele>
        <time>2016-07-04T08:14:22.000Z</time>
      </trkpt>
      <trkpt lat="46.18676" lon="6.82108">
        <ele>2032</ele>
        <time>2016-07-04T08:14:38.000Z</time>
      </trkpt>
      <trkpt lat="46.18675" lon="6.82109">
        <ele>2032</ele>
        <time>2016-07-04T08:14:39.000Z</time>
      </trkpt>
      <trkpt lat="46.1867" lon="6.82116">
        <ele>2032</ele>
        <time>2016-07-04T08:14:44.000Z</time>
      </trkpt>
      <trkpt lat="46.18668" lon="6.82118">
        <ele>2033</ele>
        <time>2016-07-04T08:14:45.000Z</time>
      </trkpt>
      <trkpt lat="46.18667" lon="6.8213">
        <ele>2027</ele>
        <time>2016-07-04T08:14:57.000Z</time>
      </trkpt>
      <trkpt lat="46.18666" lon="6.82132">
        <ele>2026</ele>
        <time>2016-07-04T08:14:58.000Z</time>
      </trkpt>
      <trkpt lat="46.18665" lon="6.82144">
        <ele>2023</ele>
        <time>2016-07-04T08:15:09.000Z</time>
      </trkpt>
      <trkpt lat="46.18665" lon="6.82145">
        <ele>2022</ele>
        <time>2016-07-04T08:15:10.000Z</time>
      </trkpt>
      <trkpt lat="46.18664" lon="6.82155">
        <ele>2021</ele>
        <time>2016-07-04T08:15:17.000Z</time>
      </trkpt>
      <trkpt lat="46.18663" lon="6.82159">
        <ele>2022</ele>
        <time>2016-07-04T08:15:18.000Z</time>
      </trkpt>
      <trkpt lat="46.18666" lon="6.82169">
        <ele>2022</ele>
        <time>2016-07-04T08:15:27.000Z</time>
      </trkpt>
      <trkpt lat="46.18666" lon="6.82171">
        <ele>2021</ele>
        <time>2016-07-04T08:15:28.000Z</time>
      </trkpt>
      <trkpt lat="46.18665" lon="6.82184">
        <ele>2021</ele>
        <time>2016-07-04T08:15:36.000Z</time>
      </trkpt>
      <trkpt lat="46.18665" lon="6.82185">
        <ele>2021</ele>
        <time>2016-07-04T08:15:37.000Z</time>
      </trkpt>
      <trkpt lat="46.18662" lon="6.82196">
        <ele>2016</ele>
        <time>2016-07-04T08:15:45.000Z</time>
      </trkpt>
      <trkpt lat="46.18661" lon="6.82198">
        <ele>2017</ele>
        <time>2016-07-04T08:15:46.000Z</time>
      </trkpt>
      <trkpt lat="46.18658" lon="6.82207">
        <ele>2018</ele>
        <time>2016-07-04T08:15:52.000Z</time>
      </trkpt>
      <trkpt lat="46.18657" lon="6.8221">
        <ele>2018</ele>
        <time>2016-07-04T08:15:53.000Z</time>
      </trkpt>
      <trkpt lat="46.18653" lon="6.82218">
        <ele>2016</ele>
        <time>2016-07-04T08:16:02.000Z</time>
      </trkpt>
      <trkpt lat="46.18653" lon="6.82223">
        <ele>2017</ele>
        <time>2016-07-04T08:16:03.000Z</time>
      </trkpt>
      <trkpt lat="46.18647" lon="6.82233">
        <ele>2019</ele>
        <time>2016-07-04T08:16:08.000Z</time>
      </trkpt>
      <trkpt lat="46.18646" lon="6.82234">
        <ele>2019</ele>
        <time>2016-07-04T08:16:09.000Z</time>
      </trkpt>
      <trkpt lat="46.18642" lon="6.82242">
        <ele>2015</ele>
        <time>2016-07-04T08:16:18.000Z</time>
      </trkpt>
      <trkpt lat="46.18641" lon="6.82244">
        <ele>2016</ele>
        <time>2016-07-04T08:16:19.000Z</time>
      </trkpt>
      <trkpt lat="46.18635" lon="6.82246">
        <ele>2015</ele>
        <time>2016-07-04T08:16:30.000Z</time>
      </trkpt>
      <trkpt lat="46.18635" lon="6.82246">
        <ele>2014</ele>
        <time>2016-07-04T08:16:31.000Z</time>
      </trkpt>
      <trkpt lat="46.18635" lon="6.82246">
        <ele>2015</ele>
        <time>2016-07-04T08:16:32.000Z</time>
      </trkpt>
      <trkpt lat="46.18634" lon="6.82246">
        <ele>2015</ele>
        <time>2016-07-04T08:16:33.000Z</time>
      </trkpt>
      <trkpt lat="46.18626" lon="6.82244">
        <ele>2010</ele>
        <time>2016-07-04T08:16:43.000Z</time>
      </trkpt>
      <trkpt lat="46.18625" lon="6.82243">
        <ele>2010</ele>
        <time>2016-07-04T08:16:44.000Z</time>
      </trkpt>
      <trkpt lat="46.18616" lon="6.82241">
        <ele>2011</ele>
        <time>2016-07-04T08:16:52.000Z</time>
      </trkpt>
      <trkpt lat="46.18616" lon="6.8224">
        <ele>2011</ele>
        <time>2016-07-04T08:16:53.000Z</time>
      </trkpt>
      <trkpt lat="46.18608" lon="6.82236">
        <ele>2009</ele>
        <time>2016-07-04T08:17:03.000Z</time>
      </trkpt>
      <trkpt lat="46.18606" lon="6.82235">
        <ele>2009</ele>
        <time>2016-07-04T08:17:04.000Z</time>
      </trkpt>
      <trkpt lat="46.18597" lon="6.82235">
        <ele>2006</ele>
        <time>2016-07-04T08:17:17.000Z</time>
      </trkpt>
      <trkpt lat="46.18596" lon="6.82235">
        <ele>2006</ele>
        <time>2016-07-04T08:17:18.000Z</time>
      </trkpt>
      <trkpt lat="46.18587" lon="6.82237">
        <ele>2004</ele>
        <time>2016-07-04T08:17:29.000Z</time>
      </trkpt>
      <trkpt lat="46.18586" lon="6.82236">
        <ele>2005</ele>
        <time>2016-07-04T08:17:30.000Z</time>
      </trkpt>
      <trkpt lat="46.18578" lon="6.82233">
        <ele>2004</ele>
        <time>2016-07-04T08:17:40.000Z</time>
      </trkpt>
      <trkpt lat="46.18576" lon="6.82233">
        <ele>2004</ele>
        <time>2016-07-04T08:17:41.000Z</time>
      </trkpt>
      <trkpt lat="46.18569" lon="6.82229">
        <ele>2005</ele>
        <time>2016-07-04T08:17:49.000Z</time>
      </trkpt>
      <trkpt lat="46.18567" lon="6.82227">
        <ele>2005</ele>
        <time>2016-07-04T08:17:50.000Z</time>
      </trkpt>
      <trkpt lat="46.1856" lon="6.8222">
        <ele>2002</ele>
        <time>2016-07-04T08:18:01.000Z</time>
      </trkpt>
      <trkpt lat="46.1856" lon="6.82219">
        <ele>2002</ele>
        <time>2016-07-04T08:18:02.000Z</time>
      </trkpt>
      <trkpt lat="46.18556" lon="6.82218">
        <ele>2003</ele>
        <time>2016-07-04T08:18:06.000Z</time>
      </trkpt>
      <trkpt lat="46.18556" lon="6.82218">
        <ele>2003</ele>
        <time>2016-07-04T08:18:07.000Z</time>
      </trkpt>
      <trkpt lat="46.18556" lon="6.82218">
        <ele>2003</ele>
        <time>2016-07-04T08:18:08.000Z</time>
      </trkpt>
      <trkpt lat="46.18556" lon="6.82218">
        <ele>2003</ele>
        <time>2016-07-04T08:18:09.000Z</time>
      </trkpt>
      <trkpt lat="46.1855" lon="6.8221">
        <ele>2002</ele>
        <time>2016-07-04T08:18:19.000Z</time>
      </trkpt>
      <trkpt lat="46.1855" lon="6.82209">
        <ele>2003</ele>
        <time>2016-07-04T08:18:20.000Z</time>
      </trkpt>
      <trkpt lat="46.18544" lon="6.822">
        <ele>1993</ele>
        <time>2016-07-04T08:21:08.000Z</time>
      </trkpt>
      <trkpt lat="46.18543" lon="6.822">
        <ele>1992</ele>
        <time>2016-07-04T08:21:09.000Z</time>
      </trkpt>
      <trkpt lat="46.18535" lon="6.82194">
        <ele>1989</ele>
        <time>2016-07-04T08:21:20.000Z</time>
      </trkpt>
      <trkpt lat="46.18535" lon="6.82194">
        <ele>1989</ele>
        <time>2016-07-04T08:21:21.000Z</time>
      </trkpt>
      <trkpt lat="46.18527" lon="6.82186">
        <ele>1987</ele>
        <time>2016-07-04T08:21:31.000Z</time>
      </trkpt>
      <trkpt lat="46.18527" lon="6.82186">
        <ele>1986</ele>
        <time>2016-07-04T08:21:32.000Z</time>
      </trkpt>
      <trkpt lat="46.18521" lon="6.82178">
        <ele>1983</ele>
        <time>2016-07-04T08:21:46.000Z</time>
      </trkpt>
      <trkpt lat="46.1852" lon="6.82177">
        <ele>1983</ele>
        <time>2016-07-04T08:21:47.000Z</time>
      </trkpt>
      <trkpt lat="46.18512" lon="6.82174">
        <ele>1980</ele>
        <time>2016-07-04T08:21:56.000Z</time>
      </trkpt>
      <trkpt lat="46.18511" lon="6.82173">
        <ele>1980</ele>
        <time>2016-07-04T08:21:57.000Z</time>
      </trkpt>
      <trkpt lat="46.18503" lon="6.82176">
        <ele>1977</ele>
        <time>2016-07-04T08:22:07.000Z</time>
      </trkpt>
      <trkpt lat="46.18502" lon="6.82176">
        <ele>1976</ele>
        <time>2016-07-04T08:22:08.000Z</time>
      </trkpt>
      <trkpt lat="46.18493" lon="6.82177">
        <ele>1973</ele>
        <time>2016-07-04T08:22:18.000Z</time>
      </trkpt>
      <trkpt lat="46.18492" lon="6.82176">
        <ele>1973</ele>
        <time>2016-07-04T08:22:19.000Z</time>
      </trkpt>
      <trkpt lat="46.18484" lon="6.82173">
        <ele>1970</ele>
        <time>2016-07-04T08:22:30.000Z</time>
      </trkpt>
      <trkpt lat="46.18483" lon="6.82172">
        <ele>1970</ele>
        <time>2016-07-04T08:22:31.000Z</time>
      </trkpt>
      <trkpt lat="46.18474" lon="6.82174">
        <ele>1966</ele>
        <time>2016-07-04T08:22:46.000Z</time>
      </trkpt>
      <trkpt lat="46.18473" lon="6.82174">
        <ele>1966</ele>
        <time>2016-07-04T08:22:47.000Z</time>
      </trkpt>
      <trkpt lat="46.18465" lon="6.82176">
        <ele>1965</ele>
        <time>2016-07-04T08:22:56.000Z</time>
      </trkpt>
      <trkpt lat="46.18464" lon="6.82176">
        <ele>1964</ele>
        <time>2016-07-04T08:22:57.000Z</time>
      </trkpt>
      <trkpt lat="46.18456" lon="6.82176">
        <ele>1961</ele>
        <time>2016-07-04T08:23:08.000Z</time>
      </trkpt>
      <trkpt lat="46.18455" lon="6.82177">
        <ele>1960</ele>
        <time>2016-07-04T08:23:09.000Z</time>
      </trkpt>
      <trkpt lat="46.18447" lon="6.82181">
        <ele>1954</ele>
        <time>2016-07-04T08:23:21.000Z</time>
      </trkpt>
      <trkpt lat="46.18446" lon="6.82181">
        <ele>1952</ele>
        <time>2016-07-04T08:23:22.000Z</time>
      </trkpt>
      <trkpt lat="46.18439" lon="6.8219">
        <ele>1949</ele>
        <time>2016-07-04T08:23:34.000Z</time>
      </trkpt>
      <trkpt lat="46.18437" lon="6.82189">
        <ele>1950</ele>
        <time>2016-07-04T08:23:35.000Z</time>
      </trkpt>
      <trkpt lat="46.18429" lon="6.82191">
        <ele>1948</ele>
        <time>2016-07-04T08:23:45.000Z</time>
      </trkpt>
      <trkpt lat="46.18427" lon="6.82191">
        <ele>1950</ele>
        <time>2016-07-04T08:23:46.000Z</time>
      </trkpt>
      <trkpt lat="46.18419" lon="6.82192">
        <ele>1948</ele>
        <time>2016-07-04T08:23:56.000Z</time>
      </trkpt>
      <trkpt lat="46.18418" lon="6.82192">
        <ele>1948</ele>
        <time>2016-07-04T08:23:57.000Z</time>
      </trkpt>
      <trkpt lat="46.1841" lon="6.82196">
        <ele>1944</ele>
        <time>2016-07-04T08:24:06.000Z</time>
      </trkpt>
      <trkpt lat="46.18409" lon="6.82197">
        <ele>1944</ele>
        <time>2016-07-04T08:24:07.000Z</time>
      </trkpt>
      <trkpt lat="46.18401" lon="6.82196">
        <ele>1944</ele>
        <time>2016-07-04T08:24:16.000Z</time>
      </trkpt>
      <trkpt lat="46.184" lon="6.82196">
        <ele>1943</ele>
        <time>2016-07-04T08:24:17.000Z</time>
      </trkpt>
      <trkpt lat="46.18391" lon="6.82199">
        <ele>1943</ele>
        <time>2016-07-04T08:24:27.000Z</time>
      </trkpt>
      <trkpt lat="46.1839" lon="6.82199">
        <ele>1943</ele>
        <time>2016-07-04T08:24:28.000Z</time>
      </trkpt>
      <trkpt lat="46.18382" lon="6.82204">
        <ele>1940</ele>
        <time>2016-07-04T08:24:36.000Z</time>
      </trkpt>
      <trkpt lat="46.18381" lon="6.82205">
        <ele>1939</ele>
        <time>2016-07-04T08:24:37.000Z</time>
      </trkpt>
      <trkpt lat="46.18374" lon="6.82208">
        <ele>1938</ele>
        <time>2016-07-04T08:24:43.000Z</time>
      </trkpt>
      <trkpt lat="46.18372" lon="6.82208">
        <ele>1939</ele>
        <time>2016-07-04T08:24:44.000Z</time>
      </trkpt>
      <trkpt lat="46.18363" lon="6.82208">
        <ele>1938</ele>
        <time>2016-07-04T08:24:50.000Z</time>
      </trkpt>
      <trkpt lat="46.18362" lon="6.82207">
        <ele>1938</ele>
        <time>2016-07-04T08:24:51.000Z</time>
      </trkpt>
      <trkpt lat="46.18354" lon="6.82209">
        <ele>1939</ele>
        <time>2016-07-04T08:24:55.000Z</time>
      </trkpt>
      <trkpt lat="46.18352" lon="6.8221">
        <ele>1939</ele>
        <time>2016-07-04T08:24:56.000Z</time>
      </trkpt>
      <trkpt lat="46.18344" lon="6.8221">
        <ele>1937</ele>
        <time>2016-07-04T08:25:04.000Z</time>
      </trkpt>
      <trkpt lat="46.18342" lon="6.82212">
        <ele>1937</ele>
        <time>2016-07-04T08:25:05.000Z</time>
      </trkpt>
      <trkpt lat="46.18334" lon="6.82214">
        <ele>1936</ele>
        <time>2016-07-04T08:25:15.000Z</time>
      </trkpt>
      <trkpt lat="46.18333" lon="6.82215">
        <ele>1936</ele>
        <time>2016-07-04T08:25:16.000Z</time>
      </trkpt>
      <trkpt lat="46.18325" lon="6.82216">
        <ele>1934</ele>
        <time>2016-07-04T08:25:25.000Z</time>
      </trkpt>
      <trkpt lat="46.18324" lon="6.82217">
        <ele>1933</ele>
        <time>2016-07-04T08:25:26.000Z</time>
      </trkpt>
      <trkpt lat="46.18315" lon="6.8222">
        <ele>1935</ele>
        <time>2016-07-04T08:25:33.000Z</time>
      </trkpt>
      <trkpt lat="46.18314" lon="6.8222">
        <ele>1935</ele>
        <time>2016-07-04T08:25:34.000Z</time>
      </trkpt>
      <trkpt lat="46.18306" lon="6.82224">
        <ele>1930</ele>
        <time>2016-07-04T08:25:44.000Z</time>
      </trkpt>
      <trkpt lat="46.18305" lon="6.82224">
        <ele>1930</ele>
        <time>2016-07-04T08:25:45.000Z</time>
      </trkpt>
      <trkpt lat="46.18298" lon="6.8223">
        <ele>1923</ele>
        <time>2016-07-04T08:26:01.000Z</time>
      </trkpt>
      <trkpt lat="46.18296" lon="6.82231">
        <ele>1922</ele>
        <time>2016-07-04T08:26:02.000Z</time>
      </trkpt>
      <trkpt lat="46.18288" lon="6.82234">
        <ele>1919</ele>
        <time>2016-07-04T08:26:14.000Z</time>
      </trkpt>
      <trkpt lat="46.18287" lon="6.82234">
        <ele>1920</ele>
        <time>2016-07-04T08:26:15.000Z</time>
      </trkpt>
      <trkpt lat="46.18281" lon="6.82242">
        <ele>1915</ele>
        <time>2016-07-04T08:26:25.000Z</time>
      </trkpt>
      <trkpt lat="46.1828" lon="6.82242">
        <ele>1915</ele>
        <time>2016-07-04T08:26:26.000Z</time>
      </trkpt>
      <trkpt lat="46.18272" lon="6.82247">
        <ele>1915</ele>
        <time>2016-07-04T08:26:35.000Z</time>
      </trkpt>
      <trkpt lat="46.18271" lon="6.82248">
        <ele>1914</ele>
        <time>2016-07-04T08:26:36.000Z</time>
      </trkpt>
      <trkpt lat="46.18263" lon="6.82251">
        <ele>1912</ele>
        <time>2016-07-04T08:26:45.000Z</time>
      </trkpt>
      <trkpt lat="46.18261" lon="6.82251">
        <ele>1912</ele>
        <time>2016-07-04T08:26:46.000Z</time>
      </trkpt>
      <trkpt lat="46.18255" lon="6.82258">
        <ele>1912</ele>
        <time>2016-07-04T08:26:59.000Z</time>
      </trkpt>
      <trkpt lat="46.18254" lon="6.82259">
        <ele>1912</ele>
        <time>2016-07-04T08:27:00.000Z</time>
      </trkpt>
      <trkpt lat="46.18253" lon="6.82271">
        <ele>1913</ele>
        <time>2016-07-04T08:27:08.000Z</time>
      </trkpt>
      <trkpt lat="46.18254" lon="6.82272">
        <ele>1913</ele>
        <time>2016-07-04T08:27:09.000Z</time>
      </trkpt>
      <trkpt lat="46.18259" lon="6.82281">
        <ele>1913</ele>
        <time>2016-07-04T08:27:16.000Z</time>
      </trkpt>
      <trkpt lat="46.1826" lon="6.82282">
        <ele>1913</ele>
        <time>2016-07-04T08:27:17.000Z</time>
      </trkpt>
      <trkpt lat="46.18267" lon="6.8229">
        <ele>1913</ele>
        <time>2016-07-04T08:27:26.000Z</time>
      </trkpt>
      <trkpt lat="46.18268" lon="6.82291">
        <ele>1913</ele>
        <time>2016-07-04T08:27:27.000Z</time>
      </trkpt>
      <trkpt lat="46.18275" lon="6.82294">
        <ele>1912</ele>
        <time>2016-07-04T08:27:33.000Z</time>
      </trkpt>
      <trkpt lat="46.18277" lon="6.82297">
        <ele>1911</ele>
        <time>2016-07-04T08:27:34.000Z</time>
      </trkpt>
      <trkpt lat="46.18285" lon="6.82301">
        <ele>1908</ele>
        <time>2016-07-04T08:27:41.000Z</time>
      </trkpt>
      <trkpt lat="46.18286" lon="6.82302">
        <ele>1908</ele>
        <time>2016-07-04T08:27:42.000Z</time>
      </trkpt>
      <trkpt lat="46.18288" lon="6.82313">
        <ele>1906</ele>
        <time>2016-07-04T08:27:48.000Z</time>
      </trkpt>
      <trkpt lat="46.18289" lon="6.82314">
        <ele>1907</ele>
        <time>2016-07-04T08:27:49.000Z</time>
      </trkpt>
      <trkpt lat="46.18293" lon="6.82323">
        <ele>1904</ele>
        <time>2016-07-04T08:27:56.000Z</time>
      </trkpt>
      <trkpt lat="46.18294" lon="6.82325">
        <ele>1903</ele>
        <time>2016-07-04T08:27:57.000Z</time>
      </trkpt>
      <trkpt lat="46.183" lon="6.82333">
        <ele>1901</ele>
        <time>2016-07-04T08:28:05.000Z</time>
      </trkpt>
      <trkpt lat="46.18301" lon="6.82333">
        <ele>1901</ele>
        <time>2016-07-04T08:28:06.000Z</time>
      </trkpt>
      <trkpt lat="46.18306" lon="6.82343">
        <ele>1902</ele>
        <time>2016-07-04T08:28:14.000Z</time>
      </trkpt>
      <trkpt lat="46.18306" lon="6.82344">
        <ele>1902</ele>
        <time>2016-07-04T08:28:15.000Z</time>
      </trkpt>
      <trkpt lat="46.18309" lon="6.82356">
        <ele>1899</ele>
        <time>2016-07-04T08:28:24.000Z</time>
      </trkpt>
      <trkpt lat="46.18309" lon="6.82357">
        <ele>1899</ele>
        <time>2016-07-04T08:28:25.000Z</time>
      </trkpt>
      <trkpt lat="46.18311" lon="6.82368">
        <ele>1897</ele>
        <time>2016-07-04T08:28:35.000Z</time>
      </trkpt>
      <trkpt lat="46.18312" lon="6.82369">
        <ele>1897</ele>
        <time>2016-07-04T08:28:36.000Z</time>
      </trkpt>
      <trkpt lat="46.18312" lon="6.82382">
        <ele>1897</ele>
        <time>2016-07-04T08:28:46.000Z</time>
      </trkpt>
      <trkpt lat="46.18313" lon="6.82384">
        <ele>1898</ele>
        <time>2016-07-04T08:28:47.000Z</time>
      </trkpt>
      <trkpt lat="46.18314" lon="6.82396">
        <ele>1898</ele>
        <time>2016-07-04T08:29:06.000Z</time>
      </trkpt>
      <trkpt lat="46.18314" lon="6.82398">
        <ele>1898</ele>
        <time>2016-07-04T08:29:07.000Z</time>
      </trkpt>
      <trkpt lat="46.18319" lon="6.82406">
        <ele>1899</ele>
        <time>2016-07-04T08:29:14.000Z</time>
      </trkpt>
      <trkpt lat="46.18319" lon="6.82405">
        <ele>1898</ele>
        <time>2016-07-04T08:29:15.000Z</time>
      </trkpt>
      <trkpt lat="46.18318" lon="6.82404">
        <ele>1897</ele>
        <time>2016-07-04T08:29:16.000Z</time>
      </trkpt>
      <trkpt lat="46.1831" lon="6.82402">
        <ele>1897</ele>
        <time>2016-07-04T08:29:24.000Z</time>
      </trkpt>
      <trkpt lat="46.18309" lon="6.82402">
        <ele>1898</ele>
        <time>2016-07-04T08:29:25.000Z</time>
      </trkpt>
      <trkpt lat="46.18301" lon="6.82396">
        <ele>1895</ele>
        <time>2016-07-04T08:29:36.000Z</time>
      </trkpt>
      <trkpt lat="46.183" lon="6.82395">
        <ele>1895</ele>
        <time>2016-07-04T08:29:37.000Z</time>
      </trkpt>
      <trkpt lat="46.18293" lon="6.8239">
        <ele>1886</ele>
        <time>2016-07-04T08:29:47.000Z</time>
      </trkpt>
      <trkpt lat="46.18292" lon="6.8239">
        <ele>1885</ele>
        <time>2016-07-04T08:29:48.000Z</time>
      </trkpt>
      <trkpt lat="46.18283" lon="6.82393">
        <ele>1885</ele>
        <time>2016-07-04T08:29:56.000Z</time>
      </trkpt>
      <trkpt lat="46.18282" lon="6.82392">
        <ele>1884</ele>
        <time>2016-07-04T08:29:57.000Z</time>
      </trkpt>
      <trkpt lat="46.18277" lon="6.82383">
        <ele>1884</ele>
        <time>2016-07-04T08:30:05.000Z</time>
      </trkpt>
      <trkpt lat="46.18275" lon="6.82382">
        <ele>1883</ele>
        <time>2016-07-04T08:30:06.000Z</time>
      </trkpt>
      <trkpt lat="46.18269" lon="6.82375">
        <ele>1887</ele>
        <time>2016-07-04T08:30:17.000Z</time>
      </trkpt>
      <trkpt lat="46.18267" lon="6.82375">
        <ele>1886</ele>
        <time>2016-07-04T08:30:18.000Z</time>
      </trkpt>
      <trkpt lat="46.18263" lon="6.82373">
        <ele>1887</ele>
        <time>2016-07-04T08:30:23.000Z</time>
      </trkpt>
      <trkpt lat="46.18257" lon="6.82372">
        <ele>1893</ele>
        <time>2016-07-04T08:30:24.000Z</time>
      </trkpt>
      <trkpt lat="46.1825" lon="6.82369">
        <ele>1895</ele>
        <time>2016-07-04T08:30:31.000Z</time>
      </trkpt>
      <trkpt lat="46.18248" lon="6.82368">
        <ele>1895</ele>
        <time>2016-07-04T08:30:32.000Z</time>
      </trkpt>
      <trkpt lat="46.18241" lon="6.82361">
        <ele>1895</ele>
        <time>2016-07-04T08:30:41.000Z</time>
      </trkpt>
      <trkpt lat="46.18241" lon="6.8236">
        <ele>1894</ele>
        <time>2016-07-04T08:30:42.000Z</time>
      </trkpt>
      <trkpt lat="46.18235" lon="6.82351">
        <ele>1894</ele>
        <time>2016-07-04T08:30:51.000Z</time>
      </trkpt>
      <trkpt lat="46.18234" lon="6.82349">
        <ele>1895</ele>
        <time>2016-07-04T08:30:52.000Z</time>
      </trkpt>
      <trkpt lat="46.18231" lon="6.82338">
        <ele>1895</ele>
        <time>2016-07-04T08:31:00.000Z</time>
      </trkpt>
      <trkpt lat="46.1823" lon="6.82336">
        <ele>1894</ele>
        <time>2016-07-04T08:31:01.000Z</time>
      </trkpt>
      <trkpt lat="46.18223" lon="6.82329">
        <ele>1897</ele>
        <time>2016-07-04T08:31:08.000Z</time>
      </trkpt>
      <trkpt lat="46.18222" lon="6.82327">
        <ele>1896</ele>
        <time>2016-07-04T08:31:09.000Z</time>
      </trkpt>
      <trkpt lat="46.18214" lon="6.82323">
        <ele>1894</ele>
        <time>2016-07-04T08:31:15.000Z</time>
      </trkpt>
      <trkpt lat="46.18213" lon="6.82323">
        <ele>1894</ele>
        <time>2016-07-04T08:31:16.000Z</time>
      </trkpt>
      <trkpt lat="46.18204" lon="6.82324">
        <ele>1891</ele>
        <time>2016-07-04T08:31:25.000Z</time>
      </trkpt>
      <trkpt lat="46.18203" lon="6.82324">
        <ele>1891</ele>
        <time>2016-07-04T08:31:26.000Z</time>
      </trkpt>
      <trkpt lat="46.18196" lon="6.82331">
        <ele>1891</ele>
        <time>2016-07-04T08:31:34.000Z</time>
      </trkpt>
      <trkpt lat="46.18195" lon="6.82332">
        <ele>1891</ele>
        <time>2016-07-04T08:31:35.000Z</time>
      </trkpt>
      <trkpt lat="46.18189" lon="6.82342">
        <ele>1889</ele>
        <time>2016-07-04T08:31:44.000Z</time>
      </trkpt>
      <trkpt lat="46.18189" lon="6.82343">
        <ele>1889</ele>
        <time>2016-07-04T08:31:45.000Z</time>
      </trkpt>
      <trkpt lat="46.18185" lon="6.82354">
        <ele>1887</ele>
        <time>2016-07-04T08:31:54.000Z</time>
      </trkpt>
      <trkpt lat="46.18184" lon="6.82356">
        <ele>1887</ele>
        <time>2016-07-04T08:31:55.000Z</time>
      </trkpt>
      <trkpt lat="46.18178" lon="6.82362">
        <ele>1887</ele>
        <time>2016-07-04T08:32:01.000Z</time>
      </trkpt>
      <trkpt lat="46.18177" lon="6.82363">
        <ele>1888</ele>
        <time>2016-07-04T08:32:02.000Z</time>
      </trkpt>
      <trkpt lat="46.18169" lon="6.82369">
        <ele>1887</ele>
        <time>2016-07-04T08:32:11.000Z</time>
      </trkpt>
      <trkpt lat="46.18169" lon="6.8237">
        <ele>1888</ele>
        <time>2016-07-04T08:32:12.000Z</time>
      </trkpt>
      <trkpt lat="46.18163" lon="6.82378">
        <ele>1885</ele>
        <time>2016-07-04T08:32:17.000Z</time>
      </trkpt>
      <trkpt lat="46.18162" lon="6.8238">
        <ele>1886</ele>
        <time>2016-07-04T08:32:18.000Z</time>
      </trkpt>
      <trkpt lat="46.18157" lon="6.8239">
        <ele>1885</ele>
        <time>2016-07-04T08:32:27.000Z</time>
      </trkpt>
      <trkpt lat="46.18157" lon="6.82392">
        <ele>1886</ele>
        <time>2016-07-04T08:32:28.000Z</time>
      </trkpt>
      <trkpt lat="46.18153" lon="6.82403">
        <ele>1883</ele>
        <time>2016-07-04T08:32:36.000Z</time>
      </trkpt>
      <trkpt lat="46.18152" lon="6.82404">
        <ele>1883</ele>
        <time>2016-07-04T08:32:37.000Z</time>
      </trkpt>
      <trkpt lat="46.1815" lon="6.82415">
        <ele>1884</ele>
        <time>2016-07-04T08:32:42.000Z</time>
      </trkpt>
      <trkpt lat="46.18149" lon="6.82416">
        <ele>1884</ele>
        <time>2016-07-04T08:32:43.000Z</time>
      </trkpt>
      <trkpt lat="46.18144" lon="6.82424">
        <ele>1883</ele>
        <time>2016-07-04T08:32:49.000Z</time>
      </trkpt>
      <trkpt lat="46.18142" lon="6.82425">
        <ele>1883</ele>
        <time>2016-07-04T08:32:50.000Z</time>
      </trkpt>
      <trkpt lat="46.18134" lon="6.8243">
        <ele>1884</ele>
        <time>2016-07-04T08:32:59.000Z</time>
      </trkpt>
      <trkpt lat="46.18133" lon="6.8243">
        <ele>1884</ele>
        <time>2016-07-04T08:33:00.000Z</time>
      </trkpt>
      <trkpt lat="46.18124" lon="6.82432">
        <ele>1882</ele>
        <time>2016-07-04T08:33:07.000Z</time>
      </trkpt>
      <trkpt lat="46.18123" lon="6.82431">
        <ele>1882</ele>
        <time>2016-07-04T08:33:08.000Z</time>
      </trkpt>
      <trkpt lat="46.18115" lon="6.82435">
        <ele>1880</ele>
        <time>2016-07-04T08:33:15.000Z</time>
      </trkpt>
      <trkpt lat="46.18114" lon="6.82435">
        <ele>1881</ele>
        <time>2016-07-04T08:33:16.000Z</time>
      </trkpt>
      <trkpt lat="46.18106" lon="6.82434">
        <ele>1878</ele>
        <time>2016-07-04T08:33:25.000Z</time>
      </trkpt>
      <trkpt lat="46.18105" lon="6.82434">
        <ele>1877</ele>
        <time>2016-07-04T08:33:26.000Z</time>
      </trkpt>
      <trkpt lat="46.18097" lon="6.82435">
        <ele>1875</ele>
        <time>2016-07-04T08:33:33.000Z</time>
      </trkpt>
      <trkpt lat="46.18096" lon="6.82436">
        <ele>1875</ele>
        <time>2016-07-04T08:33:34.000Z</time>
      </trkpt>
      <trkpt lat="46.18088" lon="6.8244">
        <ele>1875</ele>
        <time>2016-07-04T08:33:39.000Z</time>
      </trkpt>
      <trkpt lat="46.18087" lon="6.82441">
        <ele>1874</ele>
        <time>2016-07-04T08:33:40.000Z</time>
      </trkpt>
      <trkpt lat="46.18079" lon="6.82444">
        <ele>1875</ele>
        <time>2016-07-04T08:33:47.000Z</time>
      </trkpt>
      <trkpt lat="46.18078" lon="6.82444">
        <ele>1875</ele>
        <time>2016-07-04T08:33:48.000Z</time>
      </trkpt>
      <trkpt lat="46.1807" lon="6.82448">
        <ele>1875</ele>
        <time>2016-07-04T08:33:55.000Z</time>
      </trkpt>
      <trkpt lat="46.18069" lon="6.82448">
        <ele>1875</ele>
        <time>2016-07-04T08:33:56.000Z</time>
      </trkpt>
      <trkpt lat="46.1806" lon="6.82447">
        <ele>1876</ele>
        <time>2016-07-04T08:34:02.000Z</time>
      </trkpt>
      <trkpt lat="46.18059" lon="6.82447">
        <ele>1877</ele>
        <time>2016-07-04T08:34:03.000Z</time>
      </trkpt>
      <trkpt lat="46.18051" lon="6.82448">
        <ele>1877</ele>
        <time>2016-07-04T08:34:09.000Z</time>
      </trkpt>
      <trkpt lat="46.1805" lon="6.82447">
        <ele>1876</ele>
        <time>2016-07-04T08:34:10.000Z</time>
      </trkpt>
      <trkpt lat="46.18042" lon="6.82452">
        <ele>1875</ele>
        <time>2016-07-04T08:34:18.000Z</time>
      </trkpt>
      <trkpt lat="46.1804" lon="6.82452">
        <ele>1875</ele>
        <time>2016-07-04T08:34:19.000Z</time>
      </trkpt>
      <trkpt lat="46.18033" lon="6.82458">
        <ele>1876</ele>
        <time>2016-07-04T08:34:26.000Z</time>
      </trkpt>
      <trkpt lat="46.18033" lon="6.8246">
        <ele>1874</ele>
        <time>2016-07-04T08:34:27.000Z</time>
      </trkpt>
      <trkpt lat="46.18024" lon="6.82465">
        <ele>1876</ele>
        <time>2016-07-04T08:34:35.000Z</time>
      </trkpt>
      <trkpt lat="46.18023" lon="6.82466">
        <ele>1876</ele>
        <time>2016-07-04T08:34:36.000Z</time>
      </trkpt>
      <trkpt lat="46.18016" lon="6.8247">
        <ele>1877</ele>
        <time>2016-07-04T08:34:42.000Z</time>
      </trkpt>
      <trkpt lat="46.18015" lon="6.82472">
        <ele>1879</ele>
        <time>2016-07-04T08:34:43.000Z</time>
      </trkpt>
      <trkpt lat="46.18007" lon="6.82474">
        <ele>1877</ele>
        <time>2016-07-04T08:34:51.000Z</time>
      </trkpt>
      <trkpt lat="46.18006" lon="6.82475">
        <ele>1877</ele>
        <time>2016-07-04T08:34:52.000Z</time>
      </trkpt>
      <trkpt lat="46.17998" lon="6.82479">
        <ele>1878</ele>
        <time>2016-07-04T08:35:00.000Z</time>
      </trkpt>
      <trkpt lat="46.17996" lon="6.8248">
        <ele>1878</ele>
        <time>2016-07-04T08:35:01.000Z</time>
      </trkpt>
      <trkpt lat="46.17989" lon="6.82485">
        <ele>1878</ele>
        <time>2016-07-04T08:35:07.000Z</time>
      </trkpt>
      <trkpt lat="46.17987" lon="6.82486">
        <ele>1879</ele>
        <time>2016-07-04T08:35:08.000Z</time>
      </trkpt>
      <trkpt lat="46.1798" lon="6.8249">
        <ele>1878</ele>
        <time>2016-07-04T08:35:16.000Z</time>
      </trkpt>
      <trkpt lat="46.17979" lon="6.8249">
        <ele>1878</ele>
        <time>2016-07-04T08:35:17.000Z</time>
      </trkpt>
      <trkpt lat="46.17973" lon="6.82501">
        <ele>1876</ele>
        <time>2016-07-04T08:35:26.000Z</time>
      </trkpt>
      <trkpt lat="46.17973" lon="6.82502">
        <ele>1876</ele>
        <time>2016-07-04T08:35:27.000Z</time>
      </trkpt>
      <trkpt lat="46.17968" lon="6.82512">
        <ele>1877</ele>
        <time>2016-07-04T08:35:34.000Z</time>
      </trkpt>
      <trkpt lat="46.17967" lon="6.82513">
        <ele>1878</ele>
        <time>2016-07-04T08:35:35.000Z</time>
      </trkpt>
      <trkpt lat="46.17961" lon="6.8252">
        <ele>1877</ele>
        <time>2016-07-04T08:35:42.000Z</time>
      </trkpt>
      <trkpt lat="46.1796" lon="6.82523">
        <ele>1877</ele>
        <time>2016-07-04T08:35:43.000Z</time>
      </trkpt>
      <trkpt lat="46.17957" lon="6.82534">
        <ele>1881</ele>
        <time>2016-07-04T08:35:54.000Z</time>
      </trkpt>
      <trkpt lat="46.17956" lon="6.82536">
        <ele>1882</ele>
        <time>2016-07-04T08:35:55.000Z</time>
      </trkpt>
      <trkpt lat="46.17949" lon="6.82542">
        <ele>1879</ele>
        <time>2016-07-04T08:36:02.000Z</time>
      </trkpt>
      <trkpt lat="46.17948" lon="6.82543">
        <ele>1879</ele>
        <time>2016-07-04T08:36:03.000Z</time>
      </trkpt>
      <trkpt lat="46.17941" lon="6.8255">
        <ele>1878</ele>
        <time>2016-07-04T08:36:12.000Z</time>
      </trkpt>
      <trkpt lat="46.17939" lon="6.82551">
        <ele>1878</ele>
        <time>2016-07-04T08:36:13.000Z</time>
      </trkpt>
      <trkpt lat="46.17932" lon="6.82557">
        <ele>1878</ele>
        <time>2016-07-04T08:36:20.000Z</time>
      </trkpt>
      <trkpt lat="46.17931" lon="6.82559">
        <ele>1878</ele>
        <time>2016-07-04T08:36:21.000Z</time>
      </trkpt>
      <trkpt lat="46.17923" lon="6.82557">
        <ele>1875</ele>
        <time>2016-07-04T08:36:50.000Z</time>
      </trkpt>
      <trkpt lat="46.17922" lon="6.82556">
        <ele>1875</ele>
        <time>2016-07-04T08:36:51.000Z</time>
      </trkpt>
      <trkpt lat="46.17915" lon="6.82549">
        <ele>1877</ele>
        <time>2016-07-04T08:36:59.000Z</time>
      </trkpt>
      <trkpt lat="46.17914" lon="6.82547">
        <ele>1876</ele>
        <time>2016-07-04T08:37:00.000Z</time>
      </trkpt>
      <trkpt lat="46.17909" lon="6.82537">
        <ele>1878</ele>
        <time>2016-07-04T08:37:07.000Z</time>
      </trkpt>
      <trkpt lat="46.17908" lon="6.82536">
        <ele>1878</ele>
        <time>2016-07-04T08:37:08.000Z</time>
      </trkpt>
      <trkpt lat="46.17902" lon="6.82525">
        <ele>1878</ele>
        <time>2016-07-04T08:37:17.000Z</time>
      </trkpt>
      <trkpt lat="46.17901" lon="6.82524">
        <ele>1877</ele>
        <time>2016-07-04T08:37:18.000Z</time>
      </trkpt>
      <trkpt lat="46.17896" lon="6.82516">
        <ele>1877</ele>
        <time>2016-07-04T08:37:24.000Z</time>
      </trkpt>
      <trkpt lat="46.17895" lon="6.82514">
        <ele>1879</ele>
        <time>2016-07-04T08:37:25.000Z</time>
      </trkpt>
      <trkpt lat="46.17894" lon="6.82501">
        <ele>1879</ele>
        <time>2016-07-04T08:37:32.000Z</time>
      </trkpt>
      <trkpt lat="46.17894" lon="6.825">
        <ele>1879</ele>
        <time>2016-07-04T08:37:33.000Z</time>
      </trkpt>
      <trkpt lat="46.17894" lon="6.82488">
        <ele>1879</ele>
        <time>2016-07-04T08:37:41.000Z</time>
      </trkpt>
      <trkpt lat="46.17894" lon="6.82486">
        <ele>1879</ele>
        <time>2016-07-04T08:37:42.000Z</time>
      </trkpt>
      <trkpt lat="46.17894" lon="6.82473">
        <ele>1878</ele>
        <time>2016-07-04T08:37:48.000Z</time>
      </trkpt>
      <trkpt lat="46.17893" lon="6.82472">
        <ele>1878</ele>
        <time>2016-07-04T08:37:49.000Z</time>
      </trkpt>
      <trkpt lat="46.17892" lon="6.82459">
        <ele>1880</ele>
        <time>2016-07-04T08:37:57.000Z</time>
      </trkpt>
      <trkpt lat="46.17892" lon="6.82458">
        <ele>1880</ele>
        <time>2016-07-04T08:37:58.000Z</time>
      </trkpt>
      <trkpt lat="46.17889" lon="6.82447">
        <ele>1881</ele>
        <time>2016-07-04T08:38:06.000Z</time>
      </trkpt>
      <trkpt lat="46.17889" lon="6.82445">
        <ele>1881</ele>
        <time>2016-07-04T08:38:07.000Z</time>
      </trkpt>
      <trkpt lat="46.17885" lon="6.82435">
        <ele>1886</ele>
        <time>2016-07-04T08:38:14.000Z</time>
      </trkpt>
      <trkpt lat="46.17884" lon="6.82433">
        <ele>1887</ele>
        <time>2016-07-04T08:38:15.000Z</time>
      </trkpt>
      <trkpt lat="46.17884" lon="6.82421">
        <ele>1887</ele>
        <time>2016-07-04T08:38:24.000Z</time>
      </trkpt>
      <trkpt lat="46.17884" lon="6.82419">
        <ele>1888</ele>
        <time>2016-07-04T08:38:25.000Z</time>
      </trkpt>
      <trkpt lat="46.17882" lon="6.82406">
        <ele>1887</ele>
        <time>2016-07-04T08:38:32.000Z</time>
      </trkpt>
      <trkpt lat="46.17883" lon="6.82405">
        <ele>1886</ele>
        <time>2016-07-04T08:38:33.000Z</time>
      </trkpt>
      <trkpt lat="46.17881" lon="6.82392">
        <ele>1886</ele>
        <time>2016-07-04T08:38:41.000Z</time>
      </trkpt>
      <trkpt lat="46.17881" lon="6.8239">
        <ele>1886</ele>
        <time>2016-07-04T08:38:42.000Z</time>
      </trkpt>
      <trkpt lat="46.1788" lon="6.82379">
        <ele>1886</ele>
        <time>2016-07-04T08:38:50.000Z</time>
      </trkpt>
      <trkpt lat="46.17879" lon="6.82377">
        <ele>1885</ele>
        <time>2016-07-04T08:38:51.000Z</time>
      </trkpt>
      <trkpt lat="46.17881" lon="6.82365">
        <ele>1888</ele>
        <time>2016-07-04T08:38:59.000Z</time>
      </trkpt>
      <trkpt lat="46.17881" lon="6.82364">
        <ele>1889</ele>
        <time>2016-07-04T08:39:00.000Z</time>
      </trkpt>
      <trkpt lat="46.17882" lon="6.82351">
        <ele>1891</ele>
        <time>2016-07-04T08:39:11.000Z</time>
      </trkpt>
      <trkpt lat="46.17882" lon="6.82349">
        <ele>1891</ele>
        <time>2016-07-04T08:39:12.000Z</time>
      </trkpt>
      <trkpt lat="46.17883" lon="6.82337">
        <ele>1892</ele>
        <time>2016-07-04T08:39:22.000Z</time>
      </trkpt>
      <trkpt lat="46.17883" lon="6.82335">
        <ele>1892</ele>
        <time>2016-07-04T08:39:23.000Z</time>
      </trkpt>
      <trkpt lat="46.17882" lon="6.82323">
        <ele>1892</ele>
        <time>2016-07-04T08:39:29.000Z</time>
      </trkpt>
      <trkpt lat="46.17882" lon="6.82321">
        <ele>1892</ele>
        <time>2016-07-04T08:39:30.000Z</time>
      </trkpt>
      <trkpt lat="46.17881" lon="6.82311">
        <ele>1891</ele>
        <time>2016-07-04T08:39:37.000Z</time>
      </trkpt>
      <trkpt lat="46.1788" lon="6.82308">
        <ele>1891</ele>
        <time>2016-07-04T08:39:38.000Z</time>
      </trkpt>
      <trkpt lat="46.17876" lon="6.82298">
        <ele>1890</ele>
        <time>2016-07-04T08:39:44.000Z</time>
      </trkpt>
      <trkpt lat="46.17875" lon="6.82296">
        <ele>1891</ele>
        <time>2016-07-04T08:39:45.000Z</time>
      </trkpt>
      <trkpt lat="46.17873" lon="6.82284">
        <ele>1891</ele>
        <time>2016-07-04T08:39:54.000Z</time>
      </trkpt>
      <trkpt lat="46.17872" lon="6.82284">
        <ele>1891</ele>
        <time>2016-07-04T08:39:55.000Z</time>
      </trkpt>
      <trkpt lat="46.17873" lon="6.82271">
        <ele>1892</ele>
        <time>2016-07-04T08:40:21.000Z</time>
      </trkpt>
      <trkpt lat="46.17873" lon="6.8227">
        <ele>1892</ele>
        <time>2016-07-04T08:40:22.000Z</time>
      </trkpt>
      <trkpt lat="46.17872" lon="6.82259">
        <ele>1888</ele>
        <time>2016-07-04T08:40:28.000Z</time>
      </trkpt>
      <trkpt lat="46.17871" lon="6.82257">
        <ele>1888</ele>
        <time>2016-07-04T08:40:29.000Z</time>
      </trkpt>
      <trkpt lat="46.17869" lon="6.82245">
        <ele>1890</ele>
        <time>2016-07-04T08:40:37.000Z</time>
      </trkpt>
      <trkpt lat="46.17868" lon="6.82244">
        <ele>1891</ele>
        <time>2016-07-04T08:40:38.000Z</time>
      </trkpt>
      <trkpt lat="46.17863" lon="6.82234">
        <ele>1895</ele>
        <time>2016-07-04T08:40:46.000Z</time>
      </trkpt>
      <trkpt lat="46.17863" lon="6.82232">
        <ele>1895</ele>
        <time>2016-07-04T08:40:47.000Z</time>
      </trkpt>
      <trkpt lat="46.17859" lon="6.8222">
        <ele>1894</ele>
        <time>2016-07-04T08:40:56.000Z</time>
      </trkpt>
      <trkpt lat="46.1786" lon="6.82219">
        <ele>1894</ele>
        <time>2016-07-04T08:40:57.000Z</time>
      </trkpt>
      <trkpt lat="46.17858" lon="6.82207">
        <ele>1894</ele>
        <time>2016-07-04T08:41:05.000Z</time>
      </trkpt>
      <trkpt lat="46.17857" lon="6.82205">
        <ele>1894</ele>
        <time>2016-07-04T08:41:06.000Z</time>
      </trkpt>
      <trkpt lat="46.17856" lon="6.82193">
        <ele>1895</ele>
        <time>2016-07-04T08:41:13.000Z</time>
      </trkpt>
      <trkpt lat="46.17855" lon="6.82191">
        <ele>1895</ele>
        <time>2016-07-04T08:41:14.000Z</time>
      </trkpt>
      <trkpt lat="46.17853" lon="6.82179">
        <ele>1892</ele>
        <time>2016-07-04T08:41:20.000Z</time>
      </trkpt>
      <trkpt lat="46.17852" lon="6.82177">
        <ele>1893</ele>
        <time>2016-07-04T08:41:21.000Z</time>
      </trkpt>
      <trkpt lat="46.17848" lon="6.82166">
        <ele>1895</ele>
        <time>2016-07-04T08:41:27.000Z</time>
      </trkpt>
      <trkpt lat="46.17847" lon="6.82165">
        <ele>1896</ele>
        <time>2016-07-04T08:41:28.000Z</time>
      </trkpt>
      <trkpt lat="46.17842" lon="6.82155">
        <ele>1895</ele>
        <time>2016-07-04T08:41:36.000Z</time>
      </trkpt>
      <trkpt lat="46.17841" lon="6.82155">
        <ele>1894</ele>
        <time>2016-07-04T08:41:37.000Z</time>
      </trkpt>
      <trkpt lat="46.17836" lon="6.82145">
        <ele>1897</ele>
        <time>2016-07-04T08:41:43.000Z</time>
      </trkpt>
      <trkpt lat="46.17836" lon="6.82143">
        <ele>1896</ele>
        <time>2016-07-04T08:41:44.000Z</time>
      </trkpt>
      <trkpt lat="46.17832" lon="6.82133">
        <ele>1895</ele>
        <time>2016-07-04T08:41:50.000Z</time>
      </trkpt>
      <trkpt lat="46.17832" lon="6.82131">
        <ele>1895</ele>
        <time>2016-07-04T08:41:51.000Z</time>
      </trkpt>
      <trkpt lat="46.17828" lon="6.8212">
        <ele>1897</ele>
        <time>2016-07-04T08:41:58.000Z</time>
      </trkpt>
      <trkpt lat="46.17828" lon="6.82118">
        <ele>1898</ele>
        <time>2016-07-04T08:41:59.000Z</time>
      </trkpt>
      <trkpt lat="46.17824" lon="6.82107">
        <ele>1899</ele>
        <time>2016-07-04T08:42:05.000Z</time>
      </trkpt>
      <trkpt lat="46.17824" lon="6.82106">
        <ele>1899</ele>
        <time>2016-07-04T08:42:06.000Z</time>
      </trkpt>
      <trkpt lat="46.17819" lon="6.82096">
        <ele>1898</ele>
        <time>2016-07-04T08:42:11.000Z</time>
      </trkpt>
      <trkpt lat="46.17818" lon="6.82095">
        <ele>1898</ele>
        <time>2016-07-04T08:42:12.000Z</time>
      </trkpt>
      <trkpt lat="46.17813" lon="6.82085">
        <ele>1897</ele>
        <time>2016-07-04T08:42:20.000Z</time>
      </trkpt>
      <trkpt lat="46.17813" lon="6.82083">
        <ele>1897</ele>
        <time>2016-07-04T08:42:21.000Z</time>
      </trkpt>
      <trkpt lat="46.17807" lon="6.82073">
        <ele>1897</ele>
        <time>2016-07-04T08:42:28.000Z</time>
      </trkpt>
      <trkpt lat="46.17806" lon="6.82072">
        <ele>1898</ele>
        <time>2016-07-04T08:42:29.000Z</time>
      </trkpt>
      <trkpt lat="46.17801" lon="6.82062">
        <ele>1899</ele>
        <time>2016-07-04T08:42:36.000Z</time>
      </trkpt>
      <trkpt lat="46.17801" lon="6.8206">
        <ele>1899</ele>
        <time>2016-07-04T08:42:37.000Z</time>
      </trkpt>
      <trkpt lat="46.17798" lon="6.82049">
        <ele>1899</ele>
        <time>2016-07-04T08:42:43.000Z</time>
      </trkpt>
      <trkpt lat="46.17799" lon="6.82047">
        <ele>1898</ele>
        <time>2016-07-04T08:42:44.000Z</time>
      </trkpt>
      <trkpt lat="46.17801" lon="6.82036">
        <ele>1901</ele>
        <time>2016-07-04T08:42:50.000Z</time>
      </trkpt>
      <trkpt lat="46.17801" lon="6.82034">
        <ele>1900</ele>
        <time>2016-07-04T08:42:51.000Z</time>
      </trkpt>
      <trkpt lat="46.178" lon="6.82023">
        <ele>1900</ele>
        <time>2016-07-04T08:42:56.000Z</time>
      </trkpt>
      <trkpt lat="46.178" lon="6.8202">
        <ele>1900</ele>
        <time>2016-07-04T08:42:57.000Z</time>
      </trkpt>
      <trkpt lat="46.178" lon="6.82008">
        <ele>1897</ele>
        <time>2016-07-04T08:43:05.000Z</time>
      </trkpt>
      <trkpt lat="46.178" lon="6.82007">
        <ele>1895</ele>
        <time>2016-07-04T08:43:06.000Z</time>
      </trkpt>
      <trkpt lat="46.17799" lon="6.81995">
        <ele>1897</ele>
        <time>2016-07-04T08:43:12.000Z</time>
      </trkpt>
      <trkpt lat="46.17799" lon="6.81993">
        <ele>1897</ele>
        <time>2016-07-04T08:43:13.000Z</time>
      </trkpt>
      <trkpt lat="46.17795" lon="6.81982">
        <ele>1896</ele>
        <time>2016-07-04T08:43:21.000Z</time>
      </trkpt>
      <trkpt lat="46.17795" lon="6.8198">
        <ele>1896</ele>
        <time>2016-07-04T08:43:22.000Z</time>
      </trkpt>
      <trkpt lat="46.17792" lon="6.81967">
        <ele>1896</ele>
        <time>2016-07-04T08:43:28.000Z</time>
      </trkpt>
      <trkpt lat="46.17792" lon="6.81967">
        <ele>1895</ele>
        <time>2016-07-04T08:43:29.000Z</time>
      </trkpt>
      <trkpt lat="46.1779" lon="6.81958">
        <ele>1891</ele>
        <time>2016-07-04T08:43:36.000Z</time>
      </trkpt>
      <trkpt lat="46.17788" lon="6.81955">
        <ele>1890</ele>
        <time>2016-07-04T08:43:37.000Z</time>
      </trkpt>
      <trkpt lat="46.17785" lon="6.81944">
        <ele>1889</ele>
        <time>2016-07-04T08:43:44.000Z</time>
      </trkpt>
      <trkpt lat="46.17785" lon="6.81942">
        <ele>1889</ele>
        <time>2016-07-04T08:43:45.000Z</time>
      </trkpt>
      <trkpt lat="46.17784" lon="6.8193">
        <ele>1894</ele>
        <time>2016-07-04T08:43:50.000Z</time>
      </trkpt>
      <trkpt lat="46.17784" lon="6.81928">
        <ele>1894</ele>
        <time>2016-07-04T08:43:51.000Z</time>
      </trkpt>
      <trkpt lat="46.17784" lon="6.81917">
        <ele>1893</ele>
        <time>2016-07-04T08:43:56.000Z</time>
      </trkpt>
      <trkpt lat="46.17785" lon="6.81914">
        <ele>1893</ele>
        <time>2016-07-04T08:43:57.000Z</time>
      </trkpt>
      <trkpt lat="46.17785" lon="6.81902">
        <ele>1896</ele>
        <time>2016-07-04T08:44:04.000Z</time>
      </trkpt>
      <trkpt lat="46.17785" lon="6.81899">
        <ele>1896</ele>
        <time>2016-07-04T08:44:05.000Z</time>
      </trkpt>
      <trkpt lat="46.17786" lon="6.81888">
        <ele>1895</ele>
        <time>2016-07-04T08:44:12.000Z</time>
      </trkpt>
      <trkpt lat="46.17786" lon="6.81886">
        <ele>1896</ele>
        <time>2016-07-04T08:44:13.000Z</time>
      </trkpt>
      <trkpt lat="46.17787" lon="6.81875">
        <ele>1896</ele>
        <time>2016-07-04T08:44:18.000Z</time>
      </trkpt>
      <trkpt lat="46.17787" lon="6.81873">
        <ele>1896</ele>
        <time>2016-07-04T08:44:19.000Z</time>
      </trkpt>
      <trkpt lat="46.17786" lon="6.8186">
        <ele>1895</ele>
        <time>2016-07-04T08:44:26.000Z</time>
      </trkpt>
      <trkpt lat="46.17785" lon="6.81859">
        <ele>1896</ele>
        <time>2016-07-04T08:44:27.000Z</time>
      </trkpt>
      <trkpt lat="46.17784" lon="6.81848">
        <ele>1895</ele>
        <time>2016-07-04T08:44:33.000Z</time>
      </trkpt>
      <trkpt lat="46.17783" lon="6.81846">
        <ele>1896</ele>
        <time>2016-07-04T08:44:34.000Z</time>
      </trkpt>
      <trkpt lat="46.1778" lon="6.81834">
        <ele>1896</ele>
        <time>2016-07-04T08:44:43.000Z</time>
      </trkpt>
      <trkpt lat="46.17781" lon="6.81833">
        <ele>1895</ele>
        <time>2016-07-04T08:44:44.000Z</time>
      </trkpt>
      <trkpt lat="46.17783" lon="6.81821">
        <ele>1893</ele>
        <time>2016-07-04T08:44:52.000Z</time>
      </trkpt>
      <trkpt lat="46.17784" lon="6.81818">
        <ele>1894</ele>
        <time>2016-07-04T08:44:53.000Z</time>
      </trkpt>
      <trkpt lat="46.17787" lon="6.81807">
        <ele>1896</ele>
        <time>2016-07-04T08:44:59.000Z</time>
      </trkpt>
      <trkpt lat="46.17786" lon="6.81805">
        <ele>1896</ele>
        <time>2016-07-04T08:45:00.000Z</time>
      </trkpt>
      <trkpt lat="46.17789" lon="6.81795">
        <ele>1896</ele>
        <time>2016-07-04T08:45:04.000Z</time>
      </trkpt>
      <trkpt lat="46.1779" lon="6.81793">
        <ele>1896</ele>
        <time>2016-07-04T08:45:05.000Z</time>
      </trkpt>
      <trkpt lat="46.17789" lon="6.81781">
        <ele>1897</ele>
        <time>2016-07-04T08:45:12.000Z</time>
      </trkpt>
      <trkpt lat="46.17788" lon="6.81779">
        <ele>1897</ele>
        <time>2016-07-04T08:45:13.000Z</time>
      </trkpt>
      <trkpt lat="46.17783" lon="6.81769">
        <ele>1896</ele>
        <time>2016-07-04T08:45:18.000Z</time>
      </trkpt>
      <trkpt lat="46.17783" lon="6.81768">
        <ele>1895</ele>
        <time>2016-07-04T08:45:19.000Z</time>
      </trkpt>
      <trkpt lat="46.17778" lon="6.81758">
        <ele>1898</ele>
        <time>2016-07-04T08:45:26.000Z</time>
      </trkpt>
      <trkpt lat="46.17777" lon="6.81756">
        <ele>1897</ele>
        <time>2016-07-04T08:45:27.000Z</time>
      </trkpt>
      <trkpt lat="46.17773" lon="6.81744">
        <ele>1896</ele>
        <time>2016-07-04T08:45:34.000Z</time>
      </trkpt>
      <trkpt lat="46.17772" lon="6.81742">
        <ele>1895</ele>
        <time>2016-07-04T08:45:35.000Z</time>
      </trkpt>
      <trkpt lat="46.17768" lon="6.81731">
        <ele>1894</ele>
        <time>2016-07-04T08:45:41.000Z</time>
      </trkpt>
      <trkpt lat="46.17768" lon="6.81729">
        <ele>1893</ele>
        <time>2016-07-04T08:45:42.000Z</time>
      </trkpt>
      <trkpt lat="46.17762" lon="6.8172">
        <ele>1893</ele>
        <time>2016-07-04T08:45:50.000Z</time>
      </trkpt>
      <trkpt lat="46.17762" lon="6.81718">
        <ele>1893</ele>
        <time>2016-07-04T08:45:51.000Z</time>
      </trkpt>
      <trkpt lat="46.17756" lon="6.81709">
        <ele>1895</ele>
        <time>2016-07-04T08:45:58.000Z</time>
      </trkpt>
      <trkpt lat="46.17755" lon="6.81707">
        <ele>1894</ele>
        <time>2016-07-04T08:45:59.000Z</time>
      </trkpt>
      <trkpt lat="46.17749" lon="6.81698">
        <ele>1897</ele>
        <time>2016-07-04T08:46:08.000Z</time>
      </trkpt>
      <trkpt lat="46.17748" lon="6.81697">
        <ele>1897</ele>
        <time>2016-07-04T08:46:09.000Z</time>
      </trkpt>
      <trkpt lat="46.17743" lon="6.81688">
        <ele>1898</ele>
        <time>2016-07-04T08:46:16.000Z</time>
      </trkpt>
      <trkpt lat="46.17742" lon="6.81686">
        <ele>1898</ele>
        <time>2016-07-04T08:46:17.000Z</time>
      </trkpt>
      <trkpt lat="46.17741" lon="6.81674">
        <ele>1891</ele>
        <time>2016-07-04T08:46:25.000Z</time>
      </trkpt>
      <trkpt lat="46.1774" lon="6.81672">
        <ele>1891</ele>
        <time>2016-07-04T08:46:26.000Z</time>
      </trkpt>
      <trkpt lat="46.17735" lon="6.81663">
        <ele>1894</ele>
        <time>2016-07-04T08:46:33.000Z</time>
      </trkpt>
      <trkpt lat="46.17734" lon="6.8166">
        <ele>1895</ele>
        <time>2016-07-04T08:46:34.000Z</time>
      </trkpt>
      <trkpt lat="46.17731" lon="6.81649">
        <ele>1894</ele>
        <time>2016-07-04T08:46:40.000Z</time>
      </trkpt>
      <trkpt lat="46.17731" lon="6.81646">
        <ele>1895</ele>
        <time>2016-07-04T08:46:41.000Z</time>
      </trkpt>
      <trkpt lat="46.17729" lon="6.81635">
        <ele>1895</ele>
        <time>2016-07-04T08:46:48.000Z</time>
      </trkpt>
      <trkpt lat="46.17729" lon="6.81632">
        <ele>1894</ele>
        <time>2016-07-04T08:46:49.000Z</time>
      </trkpt>
      <trkpt lat="46.1773" lon="6.81622">
        <ele>1894</ele>
        <time>2016-07-04T08:46:56.000Z</time>
      </trkpt>
      <trkpt lat="46.17731" lon="6.81619">
        <ele>1894</ele>
        <time>2016-07-04T08:46:57.000Z</time>
      </trkpt>
      <trkpt lat="46.17733" lon="6.81608">
        <ele>1890</ele>
        <time>2016-07-04T08:47:02.000Z</time>
      </trkpt>
      <trkpt lat="46.17733" lon="6.81606">
        <ele>1889</ele>
        <time>2016-07-04T08:47:03.000Z</time>
      </trkpt>
      <trkpt lat="46.17736" lon="6.81596">
        <ele>1891</ele>
        <time>2016-07-04T08:47:08.000Z</time>
      </trkpt>
      <trkpt lat="46.17736" lon="6.81594">
        <ele>1891</ele>
        <time>2016-07-04T08:47:09.000Z</time>
      </trkpt>
      <trkpt lat="46.1774" lon="6.81582">
        <ele>1887</ele>
        <time>2016-07-04T08:47:19.000Z</time>
      </trkpt>
      <trkpt lat="46.1774" lon="6.81581">
        <ele>1887</ele>
        <time>2016-07-04T08:47:20.000Z</time>
      </trkpt>
      <trkpt lat="46.17741" lon="6.8157">
        <ele>1887</ele>
        <time>2016-07-04T08:47:31.000Z</time>
      </trkpt>
      <trkpt lat="46.17741" lon="6.81567">
        <ele>1887</ele>
        <time>2016-07-04T08:47:32.000Z</time>
      </trkpt>
      <trkpt lat="46.17743" lon="6.81555">
        <ele>1886</ele>
        <time>2016-07-04T08:47:39.000Z</time>
      </trkpt>
      <trkpt lat="46.17743" lon="6.81554">
        <ele>1886</ele>
        <time>2016-07-04T08:47:40.000Z</time>
      </trkpt>
      <trkpt lat="46.17746" lon="6.81541">
        <ele>1889</ele>
        <time>2016-07-04T08:47:46.000Z</time>
      </trkpt>
      <trkpt lat="46.17746" lon="6.8154">
        <ele>1890</ele>
        <time>2016-07-04T08:47:47.000Z</time>
      </trkpt>
      <trkpt lat="46.17745" lon="6.81529">
        <ele>1892</ele>
        <time>2016-07-04T08:47:53.000Z</time>
      </trkpt>
      <trkpt lat="46.17746" lon="6.81527">
        <ele>1892</ele>
        <time>2016-07-04T08:47:54.000Z</time>
      </trkpt>
      <trkpt lat="46.17749" lon="6.81515">
        <ele>1890</ele>
        <time>2016-07-04T08:48:02.000Z</time>
      </trkpt>
      <trkpt lat="46.17749" lon="6.81514">
        <ele>1891</ele>
        <time>2016-07-04T08:48:03.000Z</time>
      </trkpt>
      <trkpt lat="46.17751" lon="6.81504">
        <ele>1890</ele>
        <time>2016-07-04T08:48:07.000Z</time>
      </trkpt>
      <trkpt lat="46.17751" lon="6.81501">
        <ele>1889</ele>
        <time>2016-07-04T08:48:08.000Z</time>
      </trkpt>
      <trkpt lat="46.17751" lon="6.81489">
        <ele>1892</ele>
        <time>2016-07-04T08:48:17.000Z</time>
      </trkpt>
      <trkpt lat="46.17751" lon="6.81486">
        <ele>1893</ele>
        <time>2016-07-04T08:48:18.000Z</time>
      </trkpt>
      <trkpt lat="46.17752" lon="6.81475">
        <ele>1891</ele>
        <time>2016-07-04T08:48:22.000Z</time>
      </trkpt>
      <trkpt lat="46.17752" lon="6.81473">
        <ele>1892</ele>
        <time>2016-07-04T08:48:23.000Z</time>
      </trkpt>
      <trkpt lat="46.17753" lon="6.81461">
        <ele>1891</ele>
        <time>2016-07-04T08:48:31.000Z</time>
      </trkpt>
      <trkpt lat="46.17753" lon="6.81459">
        <ele>1891</ele>
        <time>2016-07-04T08:48:32.000Z</time>
      </trkpt>
      <trkpt lat="46.17752" lon="6.8145">
        <ele>1891</ele>
        <time>2016-07-04T08:52:30.000Z</time>
      </trkpt>
      <trkpt lat="46.17752" lon="6.8145">
        <ele>1891</ele>
        <time>2016-07-04T08:52:31.000Z</time>
      </trkpt>
      <trkpt lat="46.17751" lon="6.8145">
        <ele>1891</ele>
        <time>2016-07-04T08:52:32.000Z</time>
      </trkpt>
      <trkpt lat="46.17747" lon="6.8144">
        <ele>1889</ele>
        <time>2016-07-04T08:55:02.000Z</time>
      </trkpt>
      <trkpt lat="46.17746" lon="6.81438">
        <ele>1888</ele>
        <time>2016-07-04T08:55:03.000Z</time>
      </trkpt>
      <trkpt lat="46.17745" lon="6.81427">
        <ele>1889</ele>
        <time>2016-07-04T08:55:10.000Z</time>
      </trkpt>
      <trkpt lat="46.17744" lon="6.81424">
        <ele>1889</ele>
        <time>2016-07-04T08:55:11.000Z</time>
      </trkpt>
      <trkpt lat="46.17739" lon="6.81416">
        <ele>1880</ele>
        <time>2016-07-04T08:55:17.000Z</time>
      </trkpt>
      <trkpt lat="46.17738" lon="6.81414">
        <ele>1877</ele>
        <time>2016-07-04T08:55:18.000Z</time>
      </trkpt>
      <trkpt lat="46.17735" lon="6.81403">
        <ele>1873</ele>
        <time>2016-07-04T08:55:29.000Z</time>
      </trkpt>
      <trkpt lat="46.17734" lon="6.81402">
        <ele>1873</ele>
        <time>2016-07-04T08:55:30.000Z</time>
      </trkpt>
      <trkpt lat="46.17727" lon="6.81395">
        <ele>1874</ele>
        <time>2016-07-04T08:55:38.000Z</time>
      </trkpt>
      <trkpt lat="46.17725" lon="6.81395">
        <ele>1873</ele>
        <time>2016-07-04T08:55:39.000Z</time>
      </trkpt>
      <trkpt lat="46.17717" lon="6.81392">
        <ele>1878</ele>
        <time>2016-07-04T08:55:44.000Z</time>
      </trkpt>
      <trkpt lat="46.17716" lon="6.81392">
        <ele>1879</ele>
        <time>2016-07-04T08:55:45.000Z</time>
      </trkpt>
      <trkpt lat="46.17708" lon="6.81388">
        <ele>1873</ele>
        <time>2016-07-04T08:55:53.000Z</time>
      </trkpt>
      <trkpt lat="46.17707" lon="6.81388">
        <ele>1874</ele>
        <time>2016-07-04T08:55:54.000Z</time>
      </trkpt>
      <trkpt lat="46.17699" lon="6.81386">
        <ele>1876</ele>
        <time>2016-07-04T08:56:01.000Z</time>
      </trkpt>
      <trkpt lat="46.17697" lon="6.81384">
        <ele>1877</ele>
        <time>2016-07-04T08:56:02.000Z</time>
      </trkpt>
      <trkpt lat="46.1769" lon="6.81379">
        <ele>1878</ele>
        <time>2016-07-04T08:56:08.000Z</time>
      </trkpt>
      <trkpt lat="46.17688" lon="6.81379">
        <ele>1879</ele>
        <time>2016-07-04T08:56:09.000Z</time>
      </trkpt>
      <trkpt lat="46.1768" lon="6.81376">
        <ele>1885</ele>
        <time>2016-07-04T08:56:14.000Z</time>
      </trkpt>
      <trkpt lat="46.17679" lon="6.81376">
        <ele>1886</ele>
        <time>2016-07-04T08:56:15.000Z</time>
      </trkpt>
      <trkpt lat="46.17672" lon="6.81371">
        <ele>1887</ele>
        <time>2016-07-04T08:56:23.000Z</time>
      </trkpt>
      <trkpt lat="46.1767" lon="6.81371">
        <ele>1887</ele>
        <time>2016-07-04T08:56:24.000Z</time>
      </trkpt>
      <trkpt lat="46.17663" lon="6.81363">
        <ele>1888</ele>
        <time>2016-07-04T08:56:32.000Z</time>
      </trkpt>
      <trkpt lat="46.17662" lon="6.81361">
        <ele>1888</ele>
        <time>2016-07-04T08:56:33.000Z</time>
      </trkpt>
      <trkpt lat="46.17655" lon="6.81354">
        <ele>1891</ele>
        <time>2016-07-04T08:56:41.000Z</time>
      </trkpt>
      <trkpt lat="46.17654" lon="6.81353">
        <ele>1891</ele>
        <time>2016-07-04T08:56:42.000Z</time>
      </trkpt>
      <trkpt lat="46.17645" lon="6.81351">
        <ele>1891</ele>
        <time>2016-07-04T08:56:51.000Z</time>
      </trkpt>
      <trkpt lat="46.17644" lon="6.8135">
        <ele>1892</ele>
        <time>2016-07-04T08:56:52.000Z</time>
      </trkpt>
      <trkpt lat="46.17637" lon="6.81344">
        <ele>1886</ele>
        <time>2016-07-04T08:57:00.000Z</time>
      </trkpt>
      <trkpt lat="46.17636" lon="6.81342">
        <ele>1887</ele>
        <time>2016-07-04T08:57:01.000Z</time>
      </trkpt>
      <trkpt lat="46.17629" lon="6.81334">
        <ele>1888</ele>
        <time>2016-07-04T08:57:08.000Z</time>
      </trkpt>
      <trkpt lat="46.17628" lon="6.81333">
        <ele>1887</ele>
        <time>2016-07-04T08:57:09.000Z</time>
      </trkpt>
      <trkpt lat="46.17621" lon="6.81325">
        <ele>1890</ele>
        <time>2016-07-04T08:57:16.000Z</time>
      </trkpt>
      <trkpt lat="46.17619" lon="6.81324">
        <ele>1892</ele>
        <time>2016-07-04T08:57:17.000Z</time>
      </trkpt>
      <trkpt lat="46.17613" lon="6.81317">
        <ele>1894</ele>
        <time>2016-07-04T08:57:24.000Z</time>
      </trkpt>
      <trkpt lat="46.17611" lon="6.81317">
        <ele>1895</ele>
        <time>2016-07-04T08:57:25.000Z</time>
      </trkpt>
      <trkpt lat="46.17606" lon="6.81314">
        <ele>1897</ele>
        <time>2016-07-04T08:57:32.000Z</time>
      </trkpt>
      <trkpt lat="46.17606" lon="6.81313">
        <ele>1896</ele>
        <time>2016-07-04T08:57:33.000Z</time>
      </trkpt>
      <trkpt lat="46.17603" lon="6.81313">
        <ele>1896</ele>
        <time>2016-07-04T08:57:34.000Z</time>
      </trkpt>
      <trkpt lat="46.17596" lon="6.81308">
        <ele>1895</ele>
        <time>2016-07-04T08:57:38.000Z</time>
      </trkpt>
      <trkpt lat="46.17593" lon="6.81308">
        <ele>1896</ele>
        <time>2016-07-04T08:57:39.000Z</time>
      </trkpt>
      <trkpt lat="46.17585" lon="6.81304">
        <ele>1897</ele>
        <time>2016-07-04T08:57:44.000Z</time>
      </trkpt>
      <trkpt lat="46.17584" lon="6.81305">
        <ele>1896</ele>
        <time>2016-07-04T08:57:45.000Z</time>
      </trkpt>
      <trkpt lat="46.17576" lon="6.81301">
        <ele>1895</ele>
        <time>2016-07-04T08:57:50.000Z</time>
      </trkpt>
      <trkpt lat="46.17575" lon="6.81301">
        <ele>1896</ele>
        <time>2016-07-04T08:57:51.000Z</time>
      </trkpt>
      <trkpt lat="46.17569" lon="6.81296">
        <ele>1895</ele>
        <time>2016-07-04T08:57:59.000Z</time>
      </trkpt>
      <trkpt lat="46.17567" lon="6.81295">
        <ele>1895</ele>
        <time>2016-07-04T08:58:00.000Z</time>
      </trkpt>
      <trkpt lat="46.17559" lon="6.81292">
        <ele>1895</ele>
        <time>2016-07-04T08:58:07.000Z</time>
      </trkpt>
      <trkpt lat="46.17557" lon="6.8129">
        <ele>1895</ele>
        <time>2016-07-04T08:58:08.000Z</time>
      </trkpt>
      <trkpt lat="46.17548" lon="6.81289">
        <ele>1899</ele>
        <time>2016-07-04T08:58:17.000Z</time>
      </trkpt>
      <trkpt lat="46.17547" lon="6.81289">
        <ele>1898</ele>
        <time>2016-07-04T08:58:18.000Z</time>
      </trkpt>
      <trkpt lat="46.17539" lon="6.81289">
        <ele>1900</ele>
        <time>2016-07-04T08:58:24.000Z</time>
      </trkpt>
      <trkpt lat="46.17537" lon="6.81288">
        <ele>1901</ele>
        <time>2016-07-04T08:58:25.000Z</time>
      </trkpt>
      <trkpt lat="46.17529" lon="6.81289">
        <ele>1898</ele>
        <time>2016-07-04T08:58:29.000Z</time>
      </trkpt>
      <trkpt lat="46.17527" lon="6.81289">
        <ele>1900</ele>
        <time>2016-07-04T08:58:30.000Z</time>
      </trkpt>
      <trkpt lat="46.17518" lon="6.81291">
        <ele>1899</ele>
        <time>2016-07-04T08:58:37.000Z</time>
      </trkpt>
      <trkpt lat="46.17516" lon="6.81291">
        <ele>1899</ele>
        <time>2016-07-04T08:58:38.000Z</time>
      </trkpt>
      <trkpt lat="46.17509" lon="6.81296">
        <ele>1899</ele>
        <time>2016-07-04T08:58:43.000Z</time>
      </trkpt>
      <trkpt lat="46.17506" lon="6.81296">
        <ele>1901</ele>
        <time>2016-07-04T08:58:44.000Z</time>
      </trkpt>
      <trkpt lat="46.17498" lon="6.813">
        <ele>1896</ele>
        <time>2016-07-04T08:58:51.000Z</time>
      </trkpt>
      <trkpt lat="46.17496" lon="6.81301">
        <ele>1896</ele>
        <time>2016-07-04T08:58:52.000Z</time>
      </trkpt>
      <trkpt lat="46.1749" lon="6.81311">
        <ele>1893</ele>
        <time>2016-07-04T08:59:01.000Z</time>
      </trkpt>
      <trkpt lat="46.17489" lon="6.81313">
        <ele>1893</ele>
        <time>2016-07-04T08:59:02.000Z</time>
      </trkpt>
      <trkpt lat="46.17483" lon="6.81321">
        <ele>1887</ele>
        <time>2016-07-04T08:59:11.000Z</time>
      </trkpt>
      <trkpt lat="46.17481" lon="6.81323">
        <ele>1886</ele>
        <time>2016-07-04T08:59:12.000Z</time>
      </trkpt>
      <trkpt lat="46.17475" lon="6.81332">
        <ele>1882</ele>
        <time>2016-07-04T08:59:19.000Z</time>
      </trkpt>
      <trkpt lat="46.17475" lon="6.81333">
        <ele>1882</ele>
        <time>2016-07-04T08:59:20.000Z</time>
      </trkpt>
      <trkpt lat="46.1747" lon="6.81342">
        <ele>1887</ele>
        <time>2016-07-04T08:59:26.000Z</time>
      </trkpt>
      <trkpt lat="46.17469" lon="6.81344">
        <ele>1887</ele>
        <time>2016-07-04T08:59:27.000Z</time>
      </trkpt>
      <trkpt lat="46.17465" lon="6.81355">
        <ele>1885</ele>
        <time>2016-07-04T08:59:33.000Z</time>
      </trkpt>
      <trkpt lat="46.17464" lon="6.81355">
        <ele>1884</ele>
        <time>2016-07-04T08:59:34.000Z</time>
      </trkpt>
      <trkpt lat="46.17457" lon="6.8136">
        <ele>1885</ele>
        <time>2016-07-04T08:59:41.000Z</time>
      </trkpt>
      <trkpt lat="46.17457" lon="6.81362">
        <ele>1885</ele>
        <time>2016-07-04T08:59:42.000Z</time>
      </trkpt>
      <trkpt lat="46.17454" lon="6.81374">
        <ele>1883</ele>
        <time>2016-07-04T08:59:54.000Z</time>
      </trkpt>
      <trkpt lat="46.17453" lon="6.81375">
        <ele>1883</ele>
        <time>2016-07-04T08:59:55.000Z</time>
      </trkpt>
      <trkpt lat="46.17446" lon="6.81381">
        <ele>1880</ele>
        <time>2016-07-04T09:00:04.000Z</time>
      </trkpt>
      <trkpt lat="46.17445" lon="6.81382">
        <ele>1879</ele>
        <time>2016-07-04T09:00:05.000Z</time>
      </trkpt>
      <trkpt lat="46.17439" lon="6.81391">
        <ele>1881</ele>
        <time>2016-07-04T09:00:12.000Z</time>
      </trkpt>
      <trkpt lat="46.17438" lon="6.81394">
        <ele>1883</ele>
        <time>2016-07-04T09:00:13.000Z</time>
      </trkpt>
      <trkpt lat="46.17434" lon="6.81404">
        <ele>1879</ele>
        <time>2016-07-04T09:00:18.000Z</time>
      </trkpt>
      <trkpt lat="46.17434" lon="6.81407">
        <ele>1881</ele>
        <time>2016-07-04T09:00:19.000Z</time>
      </trkpt>
      <trkpt lat="46.17428" lon="6.81415">
        <ele>1880</ele>
        <time>2016-07-04T09:00:24.000Z</time>
      </trkpt>
      <trkpt lat="46.17427" lon="6.81418">
        <ele>1879</ele>
        <time>2016-07-04T09:00:25.000Z</time>
      </trkpt>
      <trkpt lat="46.17421" lon="6.81427">
        <ele>1881</ele>
        <time>2016-07-04T09:00:34.000Z</time>
      </trkpt>
      <trkpt lat="46.17419" lon="6.81428">
        <ele>1882</ele>
        <time>2016-07-04T09:00:35.000Z</time>
      </trkpt>
      <trkpt lat="46.17414" lon="6.81436">
        <ele>1883</ele>
        <time>2016-07-04T09:00:42.000Z</time>
      </trkpt>
      <trkpt lat="46.17412" lon="6.81437">
        <ele>1883</ele>
        <time>2016-07-04T09:00:43.000Z</time>
      </trkpt>
      <trkpt lat="46.17406" lon="6.81446">
        <ele>1882</ele>
        <time>2016-07-04T09:00:48.000Z</time>
      </trkpt>
      <trkpt lat="46.17405" lon="6.81447">
        <ele>1882</ele>
        <time>2016-07-04T09:00:49.000Z</time>
      </trkpt>
      <trkpt lat="46.174" lon="6.81455">
        <ele>1881</ele>
        <time>2016-07-04T09:00:53.000Z</time>
      </trkpt>
      <trkpt lat="46.17399" lon="6.81457">
        <ele>1880</ele>
        <time>2016-07-04T09:00:54.000Z</time>
      </trkpt>
      <trkpt lat="46.17393" lon="6.81464">
        <ele>1880</ele>
        <time>2016-07-04T09:01:02.000Z</time>
      </trkpt>
      <trkpt lat="46.17392" lon="6.81466">
        <ele>1880</ele>
        <time>2016-07-04T09:01:03.000Z</time>
      </trkpt>
      <trkpt lat="46.17383" lon="6.8147">
        <ele>1877</ele>
        <time>2016-07-04T09:01:08.000Z</time>
      </trkpt>
      <trkpt lat="46.17383" lon="6.81472">
        <ele>1876</ele>
        <time>2016-07-04T09:01:09.000Z</time>
      </trkpt>
      <trkpt lat="46.17375" lon="6.81476">
        <ele>1874</ele>
        <time>2016-07-04T09:01:16.000Z</time>
      </trkpt>
      <trkpt lat="46.17373" lon="6.81477">
        <ele>1874</ele>
        <time>2016-07-04T09:01:17.000Z</time>
      </trkpt>
      <trkpt lat="46.17365" lon="6.81482">
        <ele>1872</ele>
        <time>2016-07-04T09:01:25.000Z</time>
      </trkpt>
      <trkpt lat="46.17365" lon="6.81484">
        <ele>1869</ele>
        <time>2016-07-04T09:01:26.000Z</time>
      </trkpt>
      <trkpt lat="46.17358" lon="6.81489">
        <ele>1869</ele>
        <time>2016-07-04T09:01:33.000Z</time>
      </trkpt>
      <trkpt lat="46.17356" lon="6.81489">
        <ele>1869</ele>
        <time>2016-07-04T09:01:34.000Z</time>
      </trkpt>
      <trkpt lat="46.17349" lon="6.81496">
        <ele>1867</ele>
        <time>2016-07-04T09:01:40.000Z</time>
      </trkpt>
      <trkpt lat="46.17348" lon="6.81497">
        <ele>1868</ele>
        <time>2016-07-04T09:01:41.000Z</time>
      </trkpt>
      <trkpt lat="46.17341" lon="6.81505">
        <ele>1869</ele>
        <time>2016-07-04T09:01:47.000Z</time>
      </trkpt>
      <trkpt lat="46.17341" lon="6.81508">
        <ele>1864</ele>
        <time>2016-07-04T09:01:48.000Z</time>
      </trkpt>
      <trkpt lat="46.17334" lon="6.81516">
        <ele>1858</ele>
        <time>2016-07-04T09:01:56.000Z</time>
      </trkpt>
      <trkpt lat="46.17332" lon="6.81517">
        <ele>1858</ele>
        <time>2016-07-04T09:01:57.000Z</time>
      </trkpt>
      <trkpt lat="46.1733" lon="6.81528">
        <ele>1854</ele>
        <time>2016-07-04T09:02:01.000Z</time>
      </trkpt>
      <trkpt lat="46.17329" lon="6.8153">
        <ele>1854</ele>
        <time>2016-07-04T09:02:02.000Z</time>
      </trkpt>
      <trkpt lat="46.17323" lon="6.81539">
        <ele>1862</ele>
        <time>2016-07-04T09:02:08.000Z</time>
      </trkpt>
      <trkpt lat="46.17322" lon="6.8154">
        <ele>1861</ele>
        <time>2016-07-04T09:02:09.000Z</time>
      </trkpt>
      <trkpt lat="46.17319" lon="6.81551">
        <ele>1859</ele>
        <time>2016-07-04T09:02:16.000Z</time>
      </trkpt>
      <trkpt lat="46.17317" lon="6.81552">
        <ele>1860</ele>
        <time>2016-07-04T09:02:17.000Z</time>
      </trkpt>
      <trkpt lat="46.17314" lon="6.81562">
        <ele>1861</ele>
        <time>2016-07-04T09:02:23.000Z</time>
      </trkpt>
      <trkpt lat="46.17313" lon="6.81565">
        <ele>1860</ele>
        <time>2016-07-04T09:02:24.000Z</time>
      </trkpt>
      <trkpt lat="46.17309" lon="6.81574">
        <ele>1863</ele>
        <time>2016-07-04T09:02:32.000Z</time>
      </trkpt>
      <trkpt lat="46.17308" lon="6.81575">
        <ele>1863</ele>
        <time>2016-07-04T09:02:33.000Z</time>
      </trkpt>
      <trkpt lat="46.17303" lon="6.81584">
        <ele>1862</ele>
        <time>2016-07-04T09:02:42.000Z</time>
      </trkpt>
      <trkpt lat="46.17301" lon="6.81585">
        <ele>1862</ele>
        <time>2016-07-04T09:02:43.000Z</time>
      </trkpt>
      <trkpt lat="46.17293" lon="6.81587">
        <ele>1862</ele>
        <time>2016-07-04T09:02:48.000Z</time>
      </trkpt>
      <trkpt lat="46.17292" lon="6.81587">
        <ele>1861</ele>
        <time>2016-07-04T09:02:49.000Z</time>
      </trkpt>
      <trkpt lat="46.17283" lon="6.81585">
        <ele>1863</ele>
        <time>2016-07-04T09:02:58.000Z</time>
      </trkpt>
      <trkpt lat="46.17282" lon="6.81584">
        <ele>1862</ele>
        <time>2016-07-04T09:02:59.000Z</time>
      </trkpt>
      <trkpt lat="46.17273" lon="6.81582">
        <ele>1863</ele>
        <time>2016-07-04T09:03:08.000Z</time>
      </trkpt>
      <trkpt lat="46.17272" lon="6.81581">
        <ele>1863</ele>
        <time>2016-07-04T09:03:09.000Z</time>
      </trkpt>
      <trkpt lat="46.17263" lon="6.81582">
        <ele>1864</ele>
        <time>2016-07-04T09:03:18.000Z</time>
      </trkpt>
      <trkpt lat="46.17262" lon="6.81582">
        <ele>1864</ele>
        <time>2016-07-04T09:03:19.000Z</time>
      </trkpt>
      <trkpt lat="46.17254" lon="6.81581">
        <ele>1863</ele>
        <time>2016-07-04T09:03:26.000Z</time>
      </trkpt>
      <trkpt lat="46.17252" lon="6.81581">
        <ele>1864</ele>
        <time>2016-07-04T09:03:27.000Z</time>
      </trkpt>
      <trkpt lat="46.17243" lon="6.81584">
        <ele>1869</ele>
        <time>2016-07-04T09:03:35.000Z</time>
      </trkpt>
      <trkpt lat="46.17242" lon="6.81583">
        <ele>1870</ele>
        <time>2016-07-04T09:03:36.000Z</time>
      </trkpt>
      <trkpt lat="46.17235" lon="6.81586">
        <ele>1865</ele>
        <time>2016-07-04T09:03:44.000Z</time>
      </trkpt>
      <trkpt lat="46.17233" lon="6.81586">
        <ele>1865</ele>
        <time>2016-07-04T09:03:45.000Z</time>
      </trkpt>
      <trkpt lat="46.17225" lon="6.81585">
        <ele>1866</ele>
        <time>2016-07-04T09:03:50.000Z</time>
      </trkpt>
      <trkpt lat="46.17222" lon="6.81584">
        <ele>1864</ele>
        <time>2016-07-04T09:03:51.000Z</time>
      </trkpt>
      <trkpt lat="46.17214" lon="6.81585">
        <ele>1864</ele>
        <time>2016-07-04T09:03:58.000Z</time>
      </trkpt>
      <trkpt lat="46.17212" lon="6.81584">
        <ele>1866</ele>
        <time>2016-07-04T09:03:59.000Z</time>
      </trkpt>
      <trkpt lat="46.17204" lon="6.8158">
        <ele>1867</ele>
        <time>2016-07-04T09:04:06.000Z</time>
      </trkpt>
      <trkpt lat="46.17203" lon="6.81579">
        <ele>1867</ele>
        <time>2016-07-04T09:04:07.000Z</time>
      </trkpt>
      <trkpt lat="46.17194" lon="6.81577">
        <ele>1867</ele>
        <time>2016-07-04T09:04:13.000Z</time>
      </trkpt>
      <trkpt lat="46.17192" lon="6.81578">
        <ele>1868</ele>
        <time>2016-07-04T09:04:14.000Z</time>
      </trkpt>
      <trkpt lat="46.17185" lon="6.81576">
        <ele>1871</ele>
        <time>2016-07-04T09:04:24.000Z</time>
      </trkpt>
      <trkpt lat="46.1718" lon="6.81575">
        <ele>1868</ele>
        <time>2016-07-04T09:04:25.000Z</time>
      </trkpt>
      <trkpt lat="46.17173" lon="6.81574">
        <ele>1868</ele>
        <time>2016-07-04T09:04:29.000Z</time>
      </trkpt>
      <trkpt lat="46.17171" lon="6.81576">
        <ele>1869</ele>
        <time>2016-07-04T09:04:30.000Z</time>
      </trkpt>
      <trkpt lat="46.17164" lon="6.81582">
        <ele>1864</ele>
        <time>2016-07-04T09:04:36.000Z</time>
      </trkpt>
      <trkpt lat="46.17162" lon="6.81583">
        <ele>1864</ele>
        <time>2016-07-04T09:04:37.000Z</time>
      </trkpt>
      <trkpt lat="46.17159" lon="6.81593">
        <ele>1865</ele>
        <time>2016-07-04T09:04:44.000Z</time>
      </trkpt>
      <trkpt lat="46.17159" lon="6.81595">
        <ele>1864</ele>
        <time>2016-07-04T09:04:45.000Z</time>
      </trkpt>
      <trkpt lat="46.17159" lon="6.81607">
        <ele>1864</ele>
        <time>2016-07-04T09:04:50.000Z</time>
      </trkpt>
      <trkpt lat="46.17159" lon="6.81609">
        <ele>1865</ele>
        <time>2016-07-04T09:04:51.000Z</time>
      </trkpt>
      <trkpt lat="46.17157" lon="6.8162">
        <ele>1865</ele>
        <time>2016-07-04T09:04:58.000Z</time>
      </trkpt>
      <trkpt lat="46.17156" lon="6.81622">
        <ele>1865</ele>
        <time>2016-07-04T09:04:59.000Z</time>
      </trkpt>
      <trkpt lat="46.1715" lon="6.81631">
        <ele>1865</ele>
        <time>2016-07-04T09:05:05.000Z</time>
      </trkpt>
      <trkpt lat="46.17149" lon="6.81632">
        <ele>1864</ele>
        <time>2016-07-04T09:05:06.000Z</time>
      </trkpt>
      <trkpt lat="46.17141" lon="6.81636">
        <ele>1868</ele>
        <time>2016-07-04T09:05:13.000Z</time>
      </trkpt>
      <trkpt lat="46.1714" lon="6.81637">
        <ele>1868</ele>
        <time>2016-07-04T09:05:14.000Z</time>
      </trkpt>
      <trkpt lat="46.17131" lon="6.8164">
        <ele>1869</ele>
        <time>2016-07-04T09:05:21.000Z</time>
      </trkpt>
      <trkpt lat="46.1713" lon="6.81639">
        <ele>1868</ele>
        <time>2016-07-04T09:05:22.000Z</time>
      </trkpt>
      <trkpt lat="46.17123" lon="6.81644">
        <ele>1868</ele>
        <time>2016-07-04T09:05:29.000Z</time>
      </trkpt>
      <trkpt lat="46.17121" lon="6.81645">
        <ele>1868</ele>
        <time>2016-07-04T09:05:30.000Z</time>
      </trkpt>
      <trkpt lat="46.17114" lon="6.81648">
        <ele>1867</ele>
        <time>2016-07-04T09:05:37.000Z</time>
      </trkpt>
      <trkpt lat="46.17112" lon="6.8165">
        <ele>1868</ele>
        <time>2016-07-04T09:05:38.000Z</time>
      </trkpt>
      <trkpt lat="46.17105" lon="6.81654">
        <ele>1869</ele>
        <time>2016-07-04T09:05:46.000Z</time>
      </trkpt>
      <trkpt lat="46.17104" lon="6.81655">
        <ele>1870</ele>
        <time>2016-07-04T09:05:47.000Z</time>
      </trkpt>
      <trkpt lat="46.17095" lon="6.81657">
        <ele>1871</ele>
        <time>2016-07-04T09:05:53.000Z</time>
      </trkpt>
      <trkpt lat="46.17094" lon="6.81657">
        <ele>1870</ele>
        <time>2016-07-04T09:05:54.000Z</time>
      </trkpt>
      <trkpt lat="46.17086" lon="6.8166">
        <ele>1862</ele>
        <time>2016-07-04T09:06:02.000Z</time>
      </trkpt>
      <trkpt lat="46.17084" lon="6.81659">
        <ele>1862</ele>
        <time>2016-07-04T09:06:03.000Z</time>
      </trkpt>
      <trkpt lat="46.17076" lon="6.81661">
        <ele>1864</ele>
        <time>2016-07-04T09:06:08.000Z</time>
      </trkpt>
      <trkpt lat="46.17075" lon="6.81662">
        <ele>1863</ele>
        <time>2016-07-04T09:06:09.000Z</time>
      </trkpt>
      <trkpt lat="46.17068" lon="6.81667">
        <ele>1867</ele>
        <time>2016-07-04T09:06:16.000Z</time>
      </trkpt>
      <trkpt lat="46.17065" lon="6.81667">
        <ele>1867</ele>
        <time>2016-07-04T09:06:17.000Z</time>
      </trkpt>
      <trkpt lat="46.17057" lon="6.81669">
        <ele>1868</ele>
        <time>2016-07-04T09:06:22.000Z</time>
      </trkpt>
      <trkpt lat="46.17056" lon="6.81668">
        <ele>1868</ele>
        <time>2016-07-04T09:06:23.000Z</time>
      </trkpt>
      <trkpt lat="46.17048" lon="6.81669">
        <ele>1866</ele>
        <time>2016-07-04T09:06:29.000Z</time>
      </trkpt>
      <trkpt lat="46.17046" lon="6.8167">
        <ele>1865</ele>
        <time>2016-07-04T09:06:30.000Z</time>
      </trkpt>
      <trkpt lat="46.17038" lon="6.81672">
        <ele>1866</ele>
        <time>2016-07-04T09:06:37.000Z</time>
      </trkpt>
      <trkpt lat="46.17036" lon="6.81672">
        <ele>1866</ele>
        <time>2016-07-04T09:06:38.000Z</time>
      </trkpt>
      <trkpt lat="46.17027" lon="6.81671">
        <ele>1867</ele>
        <time>2016-07-04T09:06:48.000Z</time>
      </trkpt>
      <trkpt lat="46.17027" lon="6.81672">
        <ele>1867</ele>
        <time>2016-07-04T09:06:49.000Z</time>
      </trkpt>
      <trkpt lat="46.17021" lon="6.81664">
        <ele>1870</ele>
        <time>2016-07-04T09:07:05.000Z</time>
      </trkpt>
      <trkpt lat="46.17019" lon="6.81663">
        <ele>1869</ele>
        <time>2016-07-04T09:07:06.000Z</time>
      </trkpt>
      <trkpt lat="46.17012" lon="6.81656">
        <ele>1869</ele>
        <time>2016-07-04T09:07:11.000Z</time>
      </trkpt>
      <trkpt lat="46.17012" lon="6.81654">
        <ele>1870</ele>
        <time>2016-07-04T09:07:12.000Z</time>
      </trkpt>
      <trkpt lat="46.17006" lon="6.81646">
        <ele>1868</ele>
        <time>2016-07-04T09:07:17.000Z</time>
      </trkpt>
      <trkpt lat="46.17005" lon="6.81644">
        <ele>1868</ele>
        <time>2016-07-04T09:07:18.000Z</time>
      </trkpt>
      <trkpt lat="46.16998" lon="6.81636">
        <ele>1868</ele>
        <time>2016-07-04T09:07:24.000Z</time>
      </trkpt>
      <trkpt lat="46.16997" lon="6.81635">
        <ele>1868</ele>
        <time>2016-07-04T09:07:25.000Z</time>
      </trkpt>
      <trkpt lat="46.16991" lon="6.81627">
        <ele>1868</ele>
        <time>2016-07-04T09:07:31.000Z</time>
      </trkpt>
      <trkpt lat="46.1699" lon="6.81626">
        <ele>1869</ele>
        <time>2016-07-04T09:07:32.000Z</time>
      </trkpt>
      <trkpt lat="46.16982" lon="6.81621">
        <ele>1872</ele>
        <time>2016-07-04T09:07:40.000Z</time>
      </trkpt>
      <trkpt lat="46.16982" lon="6.81621">
        <ele>1872</ele>
        <time>2016-07-04T09:07:41.000Z</time>
      </trkpt>
      <trkpt lat="46.16977" lon="6.81612">
        <ele>1872</ele>
        <time>2016-07-04T09:07:46.000Z</time>
      </trkpt>
      <trkpt lat="46.16976" lon="6.8161">
        <ele>1871</ele>
        <time>2016-07-04T09:07:47.000Z</time>
      </trkpt>
      <trkpt lat="46.16971" lon="6.81601">
        <ele>1870</ele>
        <time>2016-07-04T09:07:51.000Z</time>
      </trkpt>
      <trkpt lat="46.16969" lon="6.81601">
        <ele>1869</ele>
        <time>2016-07-04T09:07:52.000Z</time>
      </trkpt>
      <trkpt lat="46.16967" lon="6.81591">
        <ele>1867</ele>
        <time>2016-07-04T09:07:58.000Z</time>
      </trkpt>
      <trkpt lat="46.16966" lon="6.81588">
        <ele>1867</ele>
        <time>2016-07-04T09:07:59.000Z</time>
      </trkpt>
      <trkpt lat="46.16965" lon="6.81576">
        <ele>1865</ele>
        <time>2016-07-04T09:08:05.000Z</time>
      </trkpt>
      <trkpt lat="46.16965" lon="6.81573">
        <ele>1864</ele>
        <time>2016-07-04T09:08:06.000Z</time>
      </trkpt>
      <trkpt lat="46.16969" lon="6.81563">
        <ele>1860</ele>
        <time>2016-07-04T09:08:24.000Z</time>
      </trkpt>
      <trkpt lat="46.1697" lon="6.81562">
        <ele>1860</ele>
        <time>2016-07-04T09:08:25.000Z</time>
      </trkpt>
      <trkpt lat="46.16971" lon="6.81552">
        <ele>1861</ele>
        <time>2016-07-04T09:08:29.000Z</time>
      </trkpt>
      <trkpt lat="46.16971" lon="6.81548">
        <ele>1862</ele>
        <time>2016-07-04T09:08:30.000Z</time>
      </trkpt>
      <trkpt lat="46.16968" lon="6.81537">
        <ele>1864</ele>
        <time>2016-07-04T09:08:36.000Z</time>
      </trkpt>
      <trkpt lat="46.16968" lon="6.81536">
        <ele>1865</ele>
        <time>2016-07-04T09:08:37.000Z</time>
      </trkpt>
      <trkpt lat="46.16966" lon="6.81523">
        <ele>1867</ele>
        <time>2016-07-04T09:08:43.000Z</time>
      </trkpt>
      <trkpt lat="46.16966" lon="6.81521">
        <ele>1868</ele>
        <time>2016-07-04T09:08:44.000Z</time>
      </trkpt>
      <trkpt lat="46.16964" lon="6.8151">
        <ele>1869</ele>
        <time>2016-07-04T09:08:49.000Z</time>
      </trkpt>
      <trkpt lat="46.16963" lon="6.81507">
        <ele>1868</ele>
        <time>2016-07-04T09:08:50.000Z</time>
      </trkpt>
      <trkpt lat="46.16959" lon="6.81496">
        <ele>1868</ele>
        <time>2016-07-04T09:08:57.000Z</time>
      </trkpt>
      <trkpt lat="46.16957" lon="6.81496">
        <ele>1866</ele>
        <time>2016-07-04T09:08:58.000Z</time>
      </trkpt>
      <trkpt lat="46.16954" lon="6.81484">
        <ele>1865</ele>
        <time>2016-07-04T09:09:03.000Z</time>
      </trkpt>
      <trkpt lat="46.16954" lon="6.81483">
        <ele>1863</ele>
        <time>2016-07-04T09:09:04.000Z</time>
      </trkpt>
      <trkpt lat="46.16947" lon="6.81475">
        <ele>1864</ele>
        <time>2016-07-04T09:09:10.000Z</time>
      </trkpt>
      <trkpt lat="46.16948" lon="6.81472">
        <ele>1863</ele>
        <time>2016-07-04T09:09:11.000Z</time>
      </trkpt>
      <trkpt lat="46.16942" lon="6.81465">
        <ele>1864</ele>
        <time>2016-07-04T09:09:17.000Z</time>
      </trkpt>
      <trkpt lat="46.16941" lon="6.81463">
        <ele>1864</ele>
        <time>2016-07-04T09:09:18.000Z</time>
      </trkpt>
      <trkpt lat="46.16935" lon="6.81454">
        <ele>1864</ele>
        <time>2016-07-04T09:09:24.000Z</time>
      </trkpt>
      <trkpt lat="46.16935" lon="6.81452">
        <ele>1864</ele>
        <time>2016-07-04T09:09:25.000Z</time>
      </trkpt>
      <trkpt lat="46.16932" lon="6.81441">
        <ele>1862</ele>
        <time>2016-07-04T09:09:31.000Z</time>
      </trkpt>
      <trkpt lat="46.1693" lon="6.8144">
        <ele>1863</ele>
        <time>2016-07-04T09:09:32.000Z</time>
      </trkpt>
      <trkpt lat="46.16925" lon="6.8143">
        <ele>1863</ele>
        <time>2016-07-04T09:09:39.000Z</time>
      </trkpt>
      <trkpt lat="46.16924" lon="6.81428">
        <ele>1863</ele>
        <time>2016-07-04T09:09:40.000Z</time>
      </trkpt>
      <trkpt lat="46.16918" lon="6.8142">
        <ele>1864</ele>
        <time>2016-07-04T09:09:45.000Z</time>
      </trkpt>
      <trkpt lat="46.16917" lon="6.81418">
        <ele>1863</ele>
        <time>2016-07-04T09:09:46.000Z</time>
      </trkpt>
      <trkpt lat="46.16913" lon="6.81407">
        <ele>1863</ele>
        <time>2016-07-04T09:10:05.000Z</time>
      </trkpt>
      <trkpt lat="46.16911" lon="6.81405">
        <ele>1862</ele>
        <time>2016-07-04T09:10:06.000Z</time>
      </trkpt>
      <trkpt lat="46.16905" lon="6.81398">
        <ele>1863</ele>
        <time>2016-07-04T09:10:12.000Z</time>
      </trkpt>
      <trkpt lat="46.16904" lon="6.81395">
        <ele>1860</ele>
        <time>2016-07-04T09:10:13.000Z</time>
      </trkpt>
      <trkpt lat="46.16897" lon="6.81388">
        <ele>1859</ele>
        <time>2016-07-04T09:10:18.000Z</time>
      </trkpt>
      <trkpt lat="46.16897" lon="6.81388">
        <ele>1858</ele>
        <time>2016-07-04T09:10:19.000Z</time>
      </trkpt>
      <trkpt lat="46.16891" lon="6.81379">
        <ele>1854</ele>
        <time>2016-07-04T09:10:25.000Z</time>
      </trkpt>
      <trkpt lat="46.1689" lon="6.81377">
        <ele>1851</ele>
        <time>2016-07-04T09:10:26.000Z</time>
      </trkpt>
      <trkpt lat="46.16886" lon="6.81367">
        <ele>1852</ele>
        <time>2016-07-04T09:10:33.000Z</time>
      </trkpt>
      <trkpt lat="46.16886" lon="6.81364">
        <ele>1852</ele>
        <time>2016-07-04T09:10:34.000Z</time>
      </trkpt>
      <trkpt lat="46.16883" lon="6.81353">
        <ele>1854</ele>
        <time>2016-07-04T09:10:41.000Z</time>
      </trkpt>
      <trkpt lat="46.16883" lon="6.81351">
        <ele>1853</ele>
        <time>2016-07-04T09:10:42.000Z</time>
      </trkpt>
      <trkpt lat="46.1688" lon="6.81339">
        <ele>1853</ele>
        <time>2016-07-04T09:10:49.000Z</time>
      </trkpt>
      <trkpt lat="46.16879" lon="6.81338">
        <ele>1854</ele>
        <time>2016-07-04T09:10:50.000Z</time>
      </trkpt>
      <trkpt lat="46.16873" lon="6.81329">
        <ele>1856</ele>
        <time>2016-07-04T09:10:58.000Z</time>
      </trkpt>
      <trkpt lat="46.16872" lon="6.81328">
        <ele>1855</ele>
        <time>2016-07-04T09:10:59.000Z</time>
      </trkpt>
      <trkpt lat="46.16866" lon="6.81322">
        <ele>1857</ele>
        <time>2016-07-04T09:11:07.000Z</time>
      </trkpt>
      <trkpt lat="46.16864" lon="6.81319">
        <ele>1857</ele>
        <time>2016-07-04T09:11:08.000Z</time>
      </trkpt>
      <trkpt lat="46.16858" lon="6.81308">
        <ele>1856</ele>
        <time>2016-07-04T09:11:17.000Z</time>
      </trkpt>
      <trkpt lat="46.16857" lon="6.81307">
        <ele>1854</ele>
        <time>2016-07-04T09:11:18.000Z</time>
      </trkpt>
      <trkpt lat="46.16851" lon="6.81299">
        <ele>1849</ele>
        <time>2016-07-04T09:11:22.000Z</time>
      </trkpt>
      <trkpt lat="46.16851" lon="6.81297">
        <ele>1850</ele>
        <time>2016-07-04T09:11:23.000Z</time>
      </trkpt>
      <trkpt lat="46.16847" lon="6.81286">
        <ele>1852</ele>
        <time>2016-07-04T09:11:31.000Z</time>
      </trkpt>
      <trkpt lat="46.16847" lon="6.81284">
        <ele>1851</ele>
        <time>2016-07-04T09:11:32.000Z</time>
      </trkpt>
      <trkpt lat="46.16841" lon="6.81276">
        <ele>1849</ele>
        <time>2016-07-04T09:11:37.000Z</time>
      </trkpt>
      <trkpt lat="46.1684" lon="6.81274">
        <ele>1848</ele>
        <time>2016-07-04T09:11:38.000Z</time>
      </trkpt>
      <trkpt lat="46.16835" lon="6.81265">
        <ele>1847</ele>
        <time>2016-07-04T09:11:44.000Z</time>
      </trkpt>
      <trkpt lat="46.16834" lon="6.81262">
        <ele>1847</ele>
        <time>2016-07-04T09:11:45.000Z</time>
      </trkpt>
      <trkpt lat="46.16831" lon="6.81251">
        <ele>1849</ele>
        <time>2016-07-04T09:11:52.000Z</time>
      </trkpt>
      <trkpt lat="46.16831" lon="6.8125">
        <ele>1849</ele>
        <time>2016-07-04T09:11:53.000Z</time>
      </trkpt>
      <trkpt lat="46.16826" lon="6.81241">
        <ele>1846</ele>
        <time>2016-07-04T09:11:57.000Z</time>
      </trkpt>
      <trkpt lat="46.16825" lon="6.81239">
        <ele>1846</ele>
        <time>2016-07-04T09:11:58.000Z</time>
      </trkpt>
      <trkpt lat="46.16818" lon="6.81234">
        <ele>1844</ele>
        <time>2016-07-04T09:12:06.000Z</time>
      </trkpt>
      <trkpt lat="46.16816" lon="6.81233">
        <ele>1845</ele>
        <time>2016-07-04T09:12:07.000Z</time>
      </trkpt>
      <trkpt lat="46.16808" lon="6.81234">
        <ele>1844</ele>
        <time>2016-07-04T09:12:12.000Z</time>
      </trkpt>
      <trkpt lat="46.16806" lon="6.81233">
        <ele>1846</ele>
        <time>2016-07-04T09:12:13.000Z</time>
      </trkpt>
      <trkpt lat="46.16798" lon="6.81228">
        <ele>1842</ele>
        <time>2016-07-04T09:12:21.000Z</time>
      </trkpt>
      <trkpt lat="46.16798" lon="6.81228">
        <ele>1843</ele>
        <time>2016-07-04T09:12:22.000Z</time>
      </trkpt>
      <trkpt lat="46.16792" lon="6.8122">
        <ele>1844</ele>
        <time>2016-07-04T09:12:31.000Z</time>
      </trkpt>
      <trkpt lat="46.16791" lon="6.81218">
        <ele>1844</ele>
        <time>2016-07-04T09:12:32.000Z</time>
      </trkpt>
      <trkpt lat="46.16786" lon="6.81209">
        <ele>1845</ele>
        <time>2016-07-04T09:12:37.000Z</time>
      </trkpt>
      <trkpt lat="46.16785" lon="6.81207">
        <ele>1845</ele>
        <time>2016-07-04T09:12:38.000Z</time>
      </trkpt>
      <trkpt lat="46.16777" lon="6.812">
        <ele>1845</ele>
        <time>2016-07-04T09:12:45.000Z</time>
      </trkpt>
      <trkpt lat="46.16777" lon="6.81198">
        <ele>1845</ele>
        <time>2016-07-04T09:12:46.000Z</time>
      </trkpt>
      <trkpt lat="46.16769" lon="6.81193">
        <ele>1848</ele>
        <time>2016-07-04T09:12:55.000Z</time>
      </trkpt>
      <trkpt lat="46.16767" lon="6.81193">
        <ele>1848</ele>
        <time>2016-07-04T09:12:56.000Z</time>
      </trkpt>
      <trkpt lat="46.1676" lon="6.81188">
        <ele>1847</ele>
        <time>2016-07-04T09:13:01.000Z</time>
      </trkpt>
      <trkpt lat="46.16759" lon="6.81187">
        <ele>1846</ele>
        <time>2016-07-04T09:13:02.000Z</time>
      </trkpt>
      <trkpt lat="46.16751" lon="6.81182">
        <ele>1845</ele>
        <time>2016-07-04T09:13:07.000Z</time>
      </trkpt>
      <trkpt lat="46.16748" lon="6.8118">
        <ele>1845</ele>
        <time>2016-07-04T09:13:08.000Z</time>
      </trkpt>
      <trkpt lat="46.1674" lon="6.81174">
        <ele>1843</ele>
        <time>2016-07-04T09:13:18.000Z</time>
      </trkpt>
      <trkpt lat="46.16738" lon="6.81172">
        <ele>1843</ele>
        <time>2016-07-04T09:13:19.000Z</time>
      </trkpt>
      <trkpt lat="46.16733" lon="6.81168">
        <ele>1842</ele>
        <time>2016-07-04T09:13:26.000Z</time>
      </trkpt>
      <trkpt lat="46.16732" lon="6.81168">
        <ele>1843</ele>
        <time>2016-07-04T09:13:27.000Z</time>
      </trkpt>
      <trkpt lat="46.1673" lon="6.81165">
        <ele>1842</ele>
        <time>2016-07-04T09:13:33.000Z</time>
      </trkpt>
      <trkpt lat="46.16729" lon="6.81165">
        <ele>1842</ele>
        <time>2016-07-04T09:13:34.000Z</time>
      </trkpt>
      <trkpt lat="46.16724" lon="6.81159">
        <ele>1846</ele>
        <time>2016-07-04T09:14:21.000Z</time>
      </trkpt>
      <trkpt lat="46.16722" lon="6.81156">
        <ele>1846</ele>
        <time>2016-07-04T09:14:22.000Z</time>
      </trkpt>
      <trkpt lat="46.16718" lon="6.81147">
        <ele>1842</ele>
        <time>2016-07-04T09:14:26.000Z</time>
      </trkpt>
      <trkpt lat="46.16717" lon="6.81145">
        <ele>1841</ele>
        <time>2016-07-04T09:14:27.000Z</time>
      </trkpt>
      <trkpt lat="46.16712" lon="6.81135">
        <ele>1839</ele>
        <time>2016-07-04T09:14:37.000Z</time>
      </trkpt>
      <trkpt lat="46.1671" lon="6.81132">
        <ele>1837</ele>
        <time>2016-07-04T09:14:38.000Z</time>
      </trkpt>
      <trkpt lat="46.16705" lon="6.81122">
        <ele>1838</ele>
        <time>2016-07-04T09:14:45.000Z</time>
      </trkpt>
      <trkpt lat="46.16704" lon="6.81121">
        <ele>1837</ele>
        <time>2016-07-04T09:14:46.000Z</time>
      </trkpt>
      <trkpt lat="46.16701" lon="6.81109">
        <ele>1837</ele>
        <time>2016-07-04T09:14:53.000Z</time>
      </trkpt>
      <trkpt lat="46.167" lon="6.81107">
        <ele>1836</ele>
        <time>2016-07-04T09:14:54.000Z</time>
      </trkpt>
      <trkpt lat="46.16695" lon="6.81097">
        <ele>1837</ele>
        <time>2016-07-04T09:15:02.000Z</time>
      </trkpt>
      <trkpt lat="46.16694" lon="6.81094">
        <ele>1837</ele>
        <time>2016-07-04T09:15:03.000Z</time>
      </trkpt>
      <trkpt lat="46.16689" lon="6.81084">
        <ele>1838</ele>
        <time>2016-07-04T09:15:09.000Z</time>
      </trkpt>
      <trkpt lat="46.16687" lon="6.81082">
        <ele>1838</ele>
        <time>2016-07-04T09:15:10.000Z</time>
      </trkpt>
      <trkpt lat="46.1668" lon="6.81074">
        <ele>1833</ele>
        <time>2016-07-04T09:15:19.000Z</time>
      </trkpt>
      <trkpt lat="46.16679" lon="6.81073">
        <ele>1833</ele>
        <time>2016-07-04T09:15:20.000Z</time>
      </trkpt>
      <trkpt lat="46.16673" lon="6.81067">
        <ele>1834</ele>
        <time>2016-07-04T09:15:24.000Z</time>
      </trkpt>
      <trkpt lat="46.16671" lon="6.81066">
        <ele>1834</ele>
        <time>2016-07-04T09:15:25.000Z</time>
      </trkpt>
      <trkpt lat="46.16664" lon="6.81061">
        <ele>1836</ele>
        <time>2016-07-04T09:15:33.000Z</time>
      </trkpt>
      <trkpt lat="46.16663" lon="6.8106">
        <ele>1836</ele>
        <time>2016-07-04T09:15:34.000Z</time>
      </trkpt>
      <trkpt lat="46.16656" lon="6.81054">
        <ele>1835</ele>
        <time>2016-07-04T09:15:40.000Z</time>
      </trkpt>
      <trkpt lat="46.16655" lon="6.81053">
        <ele>1835</ele>
        <time>2016-07-04T09:15:41.000Z</time>
      </trkpt>
      <trkpt lat="46.16648" lon="6.81045">
        <ele>1835</ele>
        <time>2016-07-04T09:15:50.000Z</time>
      </trkpt>
      <trkpt lat="46.16647" lon="6.81044">
        <ele>1834</ele>
        <time>2016-07-04T09:15:51.000Z</time>
      </trkpt>
      <trkpt lat="46.16643" lon="6.81034">
        <ele>1836</ele>
        <time>2016-07-04T09:16:00.000Z</time>
      </trkpt>
      <trkpt lat="46.16642" lon="6.81033">
        <ele>1836</ele>
        <time>2016-07-04T09:16:01.000Z</time>
      </trkpt>
      <trkpt lat="46.16635" lon="6.81024">
        <ele>1836</ele>
        <time>2016-07-04T09:16:26.000Z</time>
      </trkpt>
      <trkpt lat="46.16635" lon="6.81024">
        <ele>1836</ele>
        <time>2016-07-04T09:16:27.000Z</time>
      </trkpt>
      <trkpt lat="46.16626" lon="6.8102">
        <ele>1834</ele>
        <time>2016-07-04T09:16:42.000Z</time>
      </trkpt>
      <trkpt lat="46.16626" lon="6.8102">
        <ele>1834</ele>
        <time>2016-07-04T09:16:43.000Z</time>
      </trkpt>
      <trkpt lat="46.16621" lon="6.81013">
        <ele>1835</ele>
        <time>2016-07-04T09:16:47.000Z</time>
      </trkpt>
      <trkpt lat="46.16619" lon="6.8101">
        <ele>1836</ele>
        <time>2016-07-04T09:16:48.000Z</time>
      </trkpt>
      <trkpt lat="46.1661" lon="6.81008">
        <ele>1829</ele>
        <time>2016-07-04T09:16:57.000Z</time>
      </trkpt>
      <trkpt lat="46.1661" lon="6.81008">
        <ele>1830</ele>
        <time>2016-07-04T09:16:58.000Z</time>
      </trkpt>
      <trkpt lat="46.16603" lon="6.81">
        <ele>1829</ele>
        <time>2016-07-04T09:17:06.000Z</time>
      </trkpt>
      <trkpt lat="46.16602" lon="6.80999">
        <ele>1829</ele>
        <time>2016-07-04T09:17:07.000Z</time>
      </trkpt>
      <trkpt lat="46.16596" lon="6.80989">
        <ele>1833</ele>
        <time>2016-07-04T09:17:13.000Z</time>
      </trkpt>
      <trkpt lat="46.16595" lon="6.80987">
        <ele>1833</ele>
        <time>2016-07-04T09:17:14.000Z</time>
      </trkpt>
      <trkpt lat="46.16596" lon="6.80975">
        <ele>1826</ele>
        <time>2016-07-04T09:17:21.000Z</time>
      </trkpt>
      <trkpt lat="46.16594" lon="6.80974">
        <ele>1828</ele>
        <time>2016-07-04T09:17:22.000Z</time>
      </trkpt>
      <trkpt lat="46.16595" lon="6.80961">
        <ele>1834</ele>
        <time>2016-07-04T09:17:33.000Z</time>
      </trkpt>
      <trkpt lat="46.16596" lon="6.80959">
        <ele>1834</ele>
        <time>2016-07-04T09:17:34.000Z</time>
      </trkpt>
      <trkpt lat="46.16597" lon="6.80947">
        <ele>1834</ele>
        <time>2016-07-04T09:17:40.000Z</time>
      </trkpt>
      <trkpt lat="46.16597" lon="6.80946">
        <ele>1833</ele>
        <time>2016-07-04T09:17:41.000Z</time>
      </trkpt>
      <trkpt lat="46.16601" lon="6.80935">
        <ele>1833</ele>
        <time>2016-07-04T09:17:50.000Z</time>
      </trkpt>
      <trkpt lat="46.16602" lon="6.80933">
        <ele>1832</ele>
        <time>2016-07-04T09:17:51.000Z</time>
      </trkpt>
      <trkpt lat="46.16605" lon="6.80922">
        <ele>1831</ele>
        <time>2016-07-04T09:18:00.000Z</time>
      </trkpt>
      <trkpt lat="46.16605" lon="6.8092">
        <ele>1831</ele>
        <time>2016-07-04T09:18:01.000Z</time>
      </trkpt>
      <trkpt lat="46.16608" lon="6.80909">
        <ele>1827</ele>
        <time>2016-07-04T09:18:11.000Z</time>
      </trkpt>
      <trkpt lat="46.16609" lon="6.80908">
        <ele>1830</ele>
        <time>2016-07-04T09:18:12.000Z</time>
      </trkpt>
      <trkpt lat="46.16611" lon="6.80897">
        <ele>1829</ele>
        <time>2016-07-04T09:18:19.000Z</time>
      </trkpt>
      <trkpt lat="46.16612" lon="6.80895">
        <ele>1829</ele>
        <time>2016-07-04T09:18:20.000Z</time>
      </trkpt>
      <trkpt lat="46.16616" lon="6.80884">
        <ele>1830</ele>
        <time>2016-07-04T09:18:25.000Z</time>
      </trkpt>
      <trkpt lat="46.16617" lon="6.80883">
        <ele>1829</ele>
        <time>2016-07-04T09:18:26.000Z</time>
      </trkpt>
      <trkpt lat="46.16621" lon="6.80874">
        <ele>1830</ele>
        <time>2016-07-04T09:18:34.000Z</time>
      </trkpt>
      <trkpt lat="46.16622" lon="6.80872">
        <ele>1830</ele>
        <time>2016-07-04T09:18:35.000Z</time>
      </trkpt>
      <trkpt lat="46.16616" lon="6.80866">
        <ele>1825</ele>
        <time>2016-07-04T09:19:20.000Z</time>
      </trkpt>
      <trkpt lat="46.16614" lon="6.80867">
        <ele>1825</ele>
        <time>2016-07-04T09:19:21.000Z</time>
      </trkpt>
      <trkpt lat="46.16607" lon="6.80865">
        <ele>1825</ele>
        <time>2016-07-04T09:19:29.000Z</time>
      </trkpt>
      <trkpt lat="46.16605" lon="6.80865">
        <ele>1825</ele>
        <time>2016-07-04T09:19:30.000Z</time>
      </trkpt>
      <trkpt lat="46.16597" lon="6.80864">
        <ele>1821</ele>
        <time>2016-07-04T09:19:39.000Z</time>
      </trkpt>
      <trkpt lat="46.16596" lon="6.80864">
        <ele>1821</ele>
        <time>2016-07-04T09:19:40.000Z</time>
      </trkpt>
      <trkpt lat="46.1659" lon="6.80855">
        <ele>1822</ele>
        <time>2016-07-04T09:19:47.000Z</time>
      </trkpt>
      <trkpt lat="46.16589" lon="6.80854">
        <ele>1822</ele>
        <time>2016-07-04T09:19:48.000Z</time>
      </trkpt>
      <trkpt lat="46.16585" lon="6.80845">
        <ele>1819</ele>
        <time>2016-07-04T09:19:56.000Z</time>
      </trkpt>
      <trkpt lat="46.16584" lon="6.80843">
        <ele>1819</ele>
        <time>2016-07-04T09:19:57.000Z</time>
      </trkpt>
      <trkpt lat="46.16579" lon="6.80835">
        <ele>1820</ele>
        <time>2016-07-04T09:20:08.000Z</time>
      </trkpt>
      <trkpt lat="46.16578" lon="6.80833">
        <ele>1820</ele>
        <time>2016-07-04T09:20:09.000Z</time>
      </trkpt>
      <trkpt lat="46.16574" lon="6.80821">
        <ele>1819</ele>
        <time>2016-07-04T09:20:21.000Z</time>
      </trkpt>
      <trkpt lat="46.16573" lon="6.80821">
        <ele>1818</ele>
        <time>2016-07-04T09:20:22.000Z</time>
      </trkpt>
      <trkpt lat="46.16566" lon="6.80812">
        <ele>1814</ele>
        <time>2016-07-04T09:20:32.000Z</time>
      </trkpt>
      <trkpt lat="46.16565" lon="6.80813">
        <ele>1812</ele>
        <time>2016-07-04T09:20:33.000Z</time>
      </trkpt>
      <trkpt lat="46.16556" lon="6.80817">
        <ele>1809</ele>
        <time>2016-07-04T09:20:44.000Z</time>
      </trkpt>
      <trkpt lat="46.16556" lon="6.80818">
        <ele>1811</ele>
        <time>2016-07-04T09:20:45.000Z</time>
      </trkpt>
      <trkpt lat="46.16551" lon="6.80808">
        <ele>1804</ele>
        <time>2016-07-04T09:21:16.000Z</time>
      </trkpt>
      <trkpt lat="46.1655" lon="6.80806">
        <ele>1805</ele>
        <time>2016-07-04T09:21:17.000Z</time>
      </trkpt>
      <trkpt lat="46.16547" lon="6.80797">
        <ele>1809</ele>
        <time>2016-07-04T09:21:24.000Z</time>
      </trkpt>
      <trkpt lat="46.16546" lon="6.80793">
        <ele>1811</ele>
        <time>2016-07-04T09:21:25.000Z</time>
      </trkpt>
      <trkpt lat="46.16543" lon="6.80783">
        <ele>1811</ele>
        <time>2016-07-04T09:21:30.000Z</time>
      </trkpt>
      <trkpt lat="46.16543" lon="6.8078">
        <ele>1810</ele>
        <time>2016-07-04T09:21:31.000Z</time>
      </trkpt>
      <trkpt lat="46.16542" lon="6.8077">
        <ele>1805</ele>
        <time>2016-07-04T09:21:51.000Z</time>
      </trkpt>
      <trkpt lat="46.16541" lon="6.80764">
        <ele>1804</ele>
        <time>2016-07-04T09:21:52.000Z</time>
      </trkpt>
      <trkpt lat="46.16536" lon="6.80754">
        <ele>1803</ele>
        <time>2016-07-04T09:21:57.000Z</time>
      </trkpt>
      <trkpt lat="46.16536" lon="6.80753">
        <ele>1803</ele>
        <time>2016-07-04T09:21:58.000Z</time>
      </trkpt>
      <trkpt lat="46.16532" lon="6.80743">
        <ele>1799</ele>
        <time>2016-07-04T09:22:15.000Z</time>
      </trkpt>
      <trkpt lat="46.16531" lon="6.80738">
        <ele>1798</ele>
        <time>2016-07-04T09:22:16.000Z</time>
      </trkpt>
      <trkpt lat="46.16532" lon="6.80727">
        <ele>1801</ele>
        <time>2016-07-04T09:22:19.000Z</time>
      </trkpt>
      <trkpt lat="46.16533" lon="6.80724">
        <ele>1803</ele>
        <time>2016-07-04T09:22:20.000Z</time>
      </trkpt>
      <trkpt lat="46.16531" lon="6.80713">
        <ele>1800</ele>
        <time>2016-07-04T09:22:26.000Z</time>
      </trkpt>
      <trkpt lat="46.1653" lon="6.80711">
        <ele>1801</ele>
        <time>2016-07-04T09:22:27.000Z</time>
      </trkpt>
      <trkpt lat="46.16526" lon="6.80702">
        <ele>1795</ele>
        <time>2016-07-04T09:22:38.000Z</time>
      </trkpt>
      <trkpt lat="46.16525" lon="6.807">
        <ele>1794</ele>
        <time>2016-07-04T09:22:39.000Z</time>
      </trkpt>
      <trkpt lat="46.16521" lon="6.8069">
        <ele>1790</ele>
        <time>2016-07-04T09:22:48.000Z</time>
      </trkpt>
      <trkpt lat="46.1652" lon="6.80689">
        <ele>1792</ele>
        <time>2016-07-04T09:22:49.000Z</time>
      </trkpt>
      <trkpt lat="46.16517" lon="6.80678">
        <ele>1791</ele>
        <time>2016-07-04T09:22:58.000Z</time>
      </trkpt>
      <trkpt lat="46.16517" lon="6.80676">
        <ele>1791</ele>
        <time>2016-07-04T09:22:59.000Z</time>
      </trkpt>
      <trkpt lat="46.16516" lon="6.80668">
        <ele>1790</ele>
        <time>2016-07-04T09:23:03.000Z</time>
      </trkpt>
      <trkpt lat="46.16515" lon="6.80664">
        <ele>1790</ele>
        <time>2016-07-04T09:23:04.000Z</time>
      </trkpt>
      <trkpt lat="46.16515" lon="6.80651">
        <ele>1783</ele>
        <time>2016-07-04T09:23:23.000Z</time>
      </trkpt>
      <trkpt lat="46.16515" lon="6.8065">
        <ele>1783</ele>
        <time>2016-07-04T09:23:24.000Z</time>
      </trkpt>
      <trkpt lat="46.16513" lon="6.80638">
        <ele>1781</ele>
        <time>2016-07-04T09:23:33.000Z</time>
      </trkpt>
      <trkpt lat="46.16513" lon="6.80636">
        <ele>1781</ele>
        <time>2016-07-04T09:23:34.000Z</time>
      </trkpt>
      <trkpt lat="46.16513" lon="6.80624">
        <ele>1779</ele>
        <time>2016-07-04T09:23:41.000Z</time>
      </trkpt>
      <trkpt lat="46.16513" lon="6.80623">
        <ele>1780</ele>
        <time>2016-07-04T09:23:42.000Z</time>
      </trkpt>
      <trkpt lat="46.16513" lon="6.8061">
        <ele>1782</ele>
        <time>2016-07-04T09:23:50.000Z</time>
      </trkpt>
      <trkpt lat="46.16514" lon="6.80607">
        <ele>1783</ele>
        <time>2016-07-04T09:23:51.000Z</time>
      </trkpt>
      <trkpt lat="46.16512" lon="6.80595">
        <ele>1784</ele>
        <time>2016-07-04T09:23:57.000Z</time>
      </trkpt>
      <trkpt lat="46.1651" lon="6.80593">
        <ele>1782</ele>
        <time>2016-07-04T09:23:58.000Z</time>
      </trkpt>
      <trkpt lat="46.1651" lon="6.80581">
        <ele>1783</ele>
        <time>2016-07-04T09:24:04.000Z</time>
      </trkpt>
      <trkpt lat="46.1651" lon="6.80578">
        <ele>1781</ele>
        <time>2016-07-04T09:24:05.000Z</time>
      </trkpt>
      <trkpt lat="46.16511" lon="6.80565">
        <ele>1781</ele>
        <time>2016-07-04T09:24:12.000Z</time>
      </trkpt>
      <trkpt lat="46.16512" lon="6.80563">
        <ele>1780</ele>
        <time>2016-07-04T09:24:13.000Z</time>
      </trkpt>
      <trkpt lat="46.16507" lon="6.80553">
        <ele>1777</ele>
        <time>2016-07-04T09:24:35.000Z</time>
      </trkpt>
      <trkpt lat="46.16506" lon="6.80552">
        <ele>1777</ele>
        <time>2016-07-04T09:24:36.000Z</time>
      </trkpt>
      <trkpt lat="46.165" lon="6.80542">
        <ele>1779</ele>
        <time>2016-07-04T09:24:48.000Z</time>
      </trkpt>
      <trkpt lat="46.16499" lon="6.80539">
        <ele>1780</ele>
        <time>2016-07-04T09:24:49.000Z</time>
      </trkpt>
      <trkpt lat="46.16494" lon="6.80529">
        <ele>1779</ele>
        <time>2016-07-04T09:24:59.000Z</time>
      </trkpt>
      <trkpt lat="46.16493" lon="6.80527">
        <ele>1781</ele>
        <time>2016-07-04T09:25:00.000Z</time>
      </trkpt>
      <trkpt lat="46.16488" lon="6.80518">
        <ele>1779</ele>
        <time>2016-07-04T09:25:10.000Z</time>
      </trkpt>
      <trkpt lat="46.16486" lon="6.80513">
        <ele>1779</ele>
        <time>2016-07-04T09:25:11.000Z</time>
      </trkpt>
      <trkpt lat="46.16485" lon="6.80503">
        <ele>1777</ele>
        <time>2016-07-04T09:25:14.000Z</time>
      </trkpt>
      <trkpt lat="46.16484" lon="6.80499">
        <ele>1777</ele>
        <time>2016-07-04T09:25:15.000Z</time>
      </trkpt>
      <trkpt lat="46.16485" lon="6.80486">
        <ele>1779</ele>
        <time>2016-07-04T09:25:24.000Z</time>
      </trkpt>
      <trkpt lat="46.16485" lon="6.80484">
        <ele>1778</ele>
        <time>2016-07-04T09:25:25.000Z</time>
      </trkpt>
      <trkpt lat="46.16485" lon="6.80473">
        <ele>1772</ele>
        <time>2016-07-04T09:25:33.000Z</time>
      </trkpt>
      <trkpt lat="46.16482" lon="6.80472">
        <ele>1772</ele>
        <time>2016-07-04T09:25:34.000Z</time>
      </trkpt>
      <trkpt lat="46.16476" lon="6.8048">
        <ele>1764</ele>
        <time>2016-07-04T09:25:47.000Z</time>
      </trkpt>
      <trkpt lat="46.16474" lon="6.80479">
        <ele>1764</ele>
        <time>2016-07-04T09:25:48.000Z</time>
      </trkpt>
      <trkpt lat="46.16465" lon="6.80481">
        <ele>1760</ele>
        <time>2016-07-04T09:25:56.000Z</time>
      </trkpt>
      <trkpt lat="46.16464" lon="6.80482">
        <ele>1760</ele>
        <time>2016-07-04T09:25:57.000Z</time>
      </trkpt>
      <trkpt lat="46.16456" lon="6.80482">
        <ele>1758</ele>
        <time>2016-07-04T09:26:08.000Z</time>
      </trkpt>
      <trkpt lat="46.16454" lon="6.80481">
        <ele>1756</ele>
        <time>2016-07-04T09:26:09.000Z</time>
      </trkpt>
      <trkpt lat="46.16446" lon="6.80485">
        <ele>1752</ele>
        <time>2016-07-04T09:26:23.000Z</time>
      </trkpt>
      <trkpt lat="46.16445" lon="6.80485">
        <ele>1752</ele>
        <time>2016-07-04T09:26:24.000Z</time>
      </trkpt>
      <trkpt lat="46.16438" lon="6.80492">
        <ele>1756</ele>
        <time>2016-07-04T09:26:38.000Z</time>
      </trkpt>
      <trkpt lat="46.16438" lon="6.80494">
        <ele>1758</ele>
        <time>2016-07-04T09:26:39.000Z</time>
      </trkpt>
      <trkpt lat="46.16437" lon="6.80506">
        <ele>1757</ele>
        <time>2016-07-04T09:26:50.000Z</time>
      </trkpt>
      <trkpt lat="46.16437" lon="6.80506">
        <ele>1757</ele>
        <time>2016-07-04T09:26:51.000Z</time>
      </trkpt>
      <trkpt lat="46.1644" lon="6.80519">
        <ele>1755</ele>
        <time>2016-07-04T09:27:01.000Z</time>
      </trkpt>
      <trkpt lat="46.1644" lon="6.8052">
        <ele>1754</ele>
        <time>2016-07-04T09:27:02.000Z</time>
      </trkpt>
      <trkpt lat="46.16441" lon="6.80533">
        <ele>1756</ele>
        <time>2016-07-04T09:27:11.000Z</time>
      </trkpt>
      <trkpt lat="46.16441" lon="6.80535">
        <ele>1755</ele>
        <time>2016-07-04T09:27:12.000Z</time>
      </trkpt>
      <trkpt lat="46.1644" lon="6.80547">
        <ele>1753</ele>
        <time>2016-07-04T09:27:23.000Z</time>
      </trkpt>
      <trkpt lat="46.16439" lon="6.80548">
        <ele>1753</ele>
        <time>2016-07-04T09:27:24.000Z</time>
      </trkpt>
      <trkpt lat="46.16432" lon="6.80553">
        <ele>1751</ele>
        <time>2016-07-04T09:27:34.000Z</time>
      </trkpt>
      <trkpt lat="46.16429" lon="6.80554">
        <ele>1751</ele>
        <time>2016-07-04T09:27:35.000Z</time>
      </trkpt>
      <trkpt lat="46.16421" lon="6.80549">
        <ele>1745</ele>
        <time>2016-07-04T09:28:01.000Z</time>
      </trkpt>
      <trkpt lat="46.16421" lon="6.80548">
        <ele>1745</ele>
        <time>2016-07-04T09:28:02.000Z</time>
      </trkpt>
      <trkpt lat="46.16416" lon="6.80538">
        <ele>1747</ele>
        <time>2016-07-04T09:28:23.000Z</time>
      </trkpt>
      <trkpt lat="46.16416" lon="6.80536">
        <ele>1748</ele>
        <time>2016-07-04T09:28:24.000Z</time>
      </trkpt>
      <trkpt lat="46.16413" lon="6.80526">
        <ele>1744</ele>
        <time>2016-07-04T09:28:36.000Z</time>
      </trkpt>
      <trkpt lat="46.16411" lon="6.80524">
        <ele>1742</ele>
        <time>2016-07-04T09:28:37.000Z</time>
      </trkpt>
      <trkpt lat="46.16407" lon="6.80513">
        <ele>1740</ele>
        <time>2016-07-04T09:28:52.000Z</time>
      </trkpt>
      <trkpt lat="46.16405" lon="6.80512">
        <ele>1739</ele>
        <time>2016-07-04T09:28:53.000Z</time>
      </trkpt>
      <trkpt lat="46.16401" lon="6.80503">
        <ele>1738</ele>
        <time>2016-07-04T09:28:58.000Z</time>
      </trkpt>
      <trkpt lat="46.164" lon="6.80501">
        <ele>1737</ele>
        <time>2016-07-04T09:28:59.000Z</time>
      </trkpt>
      <trkpt lat="46.16394" lon="6.80493">
        <ele>1738</ele>
        <time>2016-07-04T09:29:05.000Z</time>
      </trkpt>
      <trkpt lat="46.16393" lon="6.80492">
        <ele>1738</ele>
        <time>2016-07-04T09:29:06.000Z</time>
      </trkpt>
      <trkpt lat="46.16389" lon="6.80481">
        <ele>1738</ele>
        <time>2016-07-04T09:29:11.000Z</time>
      </trkpt>
      <trkpt lat="46.16388" lon="6.8048">
        <ele>1737</ele>
        <time>2016-07-04T09:29:12.000Z</time>
      </trkpt>
      <trkpt lat="46.16384" lon="6.8047">
        <ele>1735</ele>
        <time>2016-07-04T09:29:18.000Z</time>
      </trkpt>
      <trkpt lat="46.16383" lon="6.80467">
        <ele>1735</ele>
        <time>2016-07-04T09:29:19.000Z</time>
      </trkpt>
      <trkpt lat="46.16379" lon="6.80457">
        <ele>1732</ele>
        <time>2016-07-04T09:29:24.000Z</time>
      </trkpt>
      <trkpt lat="46.16379" lon="6.80456">
        <ele>1732</ele>
        <time>2016-07-04T09:29:25.000Z</time>
      </trkpt>
      <trkpt lat="46.16375" lon="6.80445">
        <ele>1730</ele>
        <time>2016-07-04T09:29:32.000Z</time>
      </trkpt>
      <trkpt lat="46.16375" lon="6.80443">
        <ele>1730</ele>
        <time>2016-07-04T09:29:33.000Z</time>
      </trkpt>
      <trkpt lat="46.16371" lon="6.80432">
        <ele>1729</ele>
        <time>2016-07-04T09:29:41.000Z</time>
      </trkpt>
      <trkpt lat="46.16371" lon="6.80431">
        <ele>1728</ele>
        <time>2016-07-04T09:29:42.000Z</time>
      </trkpt>
      <trkpt lat="46.16363" lon="6.80427">
        <ele>1723</ele>
        <time>2016-07-04T09:29:52.000Z</time>
      </trkpt>
      <trkpt lat="46.16363" lon="6.80426">
        <ele>1723</ele>
        <time>2016-07-04T09:29:53.000Z</time>
      </trkpt>
      <trkpt lat="46.16356" lon="6.8042">
        <ele>1722</ele>
        <time>2016-07-04T09:30:03.000Z</time>
      </trkpt>
      <trkpt lat="46.16354" lon="6.80418">
        <ele>1723</ele>
        <time>2016-07-04T09:30:04.000Z</time>
      </trkpt>
      <trkpt lat="46.16347" lon="6.80412">
        <ele>1720</ele>
        <time>2016-07-04T09:30:15.000Z</time>
      </trkpt>
      <trkpt lat="46.16346" lon="6.80411">
        <ele>1720</ele>
        <time>2016-07-04T09:30:16.000Z</time>
      </trkpt>
      <trkpt lat="46.16338" lon="6.80404">
        <ele>1719</ele>
        <time>2016-07-04T09:30:24.000Z</time>
      </trkpt>
      <trkpt lat="46.16338" lon="6.80403">
        <ele>1719</ele>
        <time>2016-07-04T09:30:25.000Z</time>
      </trkpt>
      <trkpt lat="46.16334" lon="6.80391">
        <ele>1719</ele>
        <time>2016-07-04T09:30:34.000Z</time>
      </trkpt>
      <trkpt lat="46.16334" lon="6.80389">
        <ele>1719</ele>
        <time>2016-07-04T09:30:35.000Z</time>
      </trkpt>
      <trkpt lat="46.16331" lon="6.8038">
        <ele>1719</ele>
        <time>2016-07-04T09:30:42.000Z</time>
      </trkpt>
      <trkpt lat="46.1633" lon="6.80378">
        <ele>1719</ele>
        <time>2016-07-04T09:30:43.000Z</time>
      </trkpt>
      <trkpt lat="46.16324" lon="6.80369">
        <ele>1720</ele>
        <time>2016-07-04T09:30:50.000Z</time>
      </trkpt>
      <trkpt lat="46.16324" lon="6.80368">
        <ele>1720</ele>
        <time>2016-07-04T09:30:51.000Z</time>
      </trkpt>
      <trkpt lat="46.16316" lon="6.80362">
        <ele>1719</ele>
        <time>2016-07-04T09:30:59.000Z</time>
      </trkpt>
      <trkpt lat="46.16314" lon="6.8036">
        <ele>1718</ele>
        <time>2016-07-04T09:31:00.000Z</time>
      </trkpt>
      <trkpt lat="46.16308" lon="6.80354">
        <ele>1720</ele>
        <time>2016-07-04T09:31:08.000Z</time>
      </trkpt>
      <trkpt lat="46.16306" lon="6.80354">
        <ele>1719</ele>
        <time>2016-07-04T09:31:09.000Z</time>
      </trkpt>
      <trkpt lat="46.16298" lon="6.80349">
        <ele>1721</ele>
        <time>2016-07-04T09:31:17.000Z</time>
      </trkpt>
      <trkpt lat="46.16297" lon="6.80349">
        <ele>1720</ele>
        <time>2016-07-04T09:31:18.000Z</time>
      </trkpt>
      <trkpt lat="46.1629" lon="6.80342">
        <ele>1722</ele>
        <time>2016-07-04T09:31:24.000Z</time>
      </trkpt>
      <trkpt lat="46.16289" lon="6.80341">
        <ele>1722</ele>
        <time>2016-07-04T09:31:25.000Z</time>
      </trkpt>
      <trkpt lat="46.16283" lon="6.80331">
        <ele>1725</ele>
        <time>2016-07-04T09:31:32.000Z</time>
      </trkpt>
      <trkpt lat="46.16282" lon="6.8033">
        <ele>1725</ele>
        <time>2016-07-04T09:31:33.000Z</time>
      </trkpt>
      <trkpt lat="46.16277" lon="6.80319">
        <ele>1726</ele>
        <time>2016-07-04T09:31:39.000Z</time>
      </trkpt>
      <trkpt lat="46.16276" lon="6.80319">
        <ele>1726</ele>
        <time>2016-07-04T09:31:40.000Z</time>
      </trkpt>
      <trkpt lat="46.16272" lon="6.80308">
        <ele>1725</ele>
        <time>2016-07-04T09:31:47.000Z</time>
      </trkpt>
      <trkpt lat="46.16271" lon="6.80307">
        <ele>1726</ele>
        <time>2016-07-04T09:31:48.000Z</time>
      </trkpt>
      <trkpt lat="46.16265" lon="6.80298">
        <ele>1726</ele>
        <time>2016-07-04T09:31:54.000Z</time>
      </trkpt>
      <trkpt lat="46.16264" lon="6.80297">
        <ele>1729</ele>
        <time>2016-07-04T09:31:55.000Z</time>
      </trkpt>
      <trkpt lat="46.16257" lon="6.80289">
        <ele>1732</ele>
        <time>2016-07-04T09:32:01.000Z</time>
      </trkpt>
      <trkpt lat="46.16256" lon="6.80288">
        <ele>1733</ele>
        <time>2016-07-04T09:32:02.000Z</time>
      </trkpt>
      <trkpt lat="46.16249" lon="6.80279">
        <ele>1734</ele>
        <time>2016-07-04T09:32:10.000Z</time>
      </trkpt>
      <trkpt lat="46.16249" lon="6.80279">
        <ele>1733</ele>
        <time>2016-07-04T09:32:11.000Z</time>
      </trkpt>
      <trkpt lat="46.16243" lon="6.8027">
        <ele>1733</ele>
        <time>2016-07-04T09:32:19.000Z</time>
      </trkpt>
      <trkpt lat="46.16242" lon="6.80268">
        <ele>1733</ele>
        <time>2016-07-04T09:32:20.000Z</time>
      </trkpt>
      <trkpt lat="46.16237" lon="6.80259">
        <ele>1732</ele>
        <time>2016-07-04T09:32:28.000Z</time>
      </trkpt>
      <trkpt lat="46.16236" lon="6.80258">
        <ele>1733</ele>
        <time>2016-07-04T09:32:29.000Z</time>
      </trkpt>
      <trkpt lat="46.16229" lon="6.80251">
        <ele>1733</ele>
        <time>2016-07-04T09:32:35.000Z</time>
      </trkpt>
      <trkpt lat="46.16227" lon="6.8025">
        <ele>1732</ele>
        <time>2016-07-04T09:32:36.000Z</time>
      </trkpt>
      <trkpt lat="46.16219" lon="6.80247">
        <ele>1733</ele>
        <time>2016-07-04T09:32:44.000Z</time>
      </trkpt>
      <trkpt lat="46.16217" lon="6.80246">
        <ele>1733</ele>
        <time>2016-07-04T09:32:45.000Z</time>
      </trkpt>
      <trkpt lat="46.1621" lon="6.80239">
        <ele>1734</ele>
        <time>2016-07-04T09:32:52.000Z</time>
      </trkpt>
      <trkpt lat="46.16209" lon="6.80238">
        <ele>1733</ele>
        <time>2016-07-04T09:32:53.000Z</time>
      </trkpt>
      <trkpt lat="46.16202" lon="6.80232">
        <ele>1731</ele>
        <time>2016-07-04T09:33:02.000Z</time>
      </trkpt>
      <trkpt lat="46.16201" lon="6.80231">
        <ele>1732</ele>
        <time>2016-07-04T09:33:03.000Z</time>
      </trkpt>
      <trkpt lat="46.16193" lon="6.80225">
        <ele>1732</ele>
        <time>2016-07-04T09:33:10.000Z</time>
      </trkpt>
      <trkpt lat="46.16192" lon="6.80223">
        <ele>1732</ele>
        <time>2016-07-04T09:33:11.000Z</time>
      </trkpt>
      <trkpt lat="46.16184" lon="6.80217">
        <ele>1732</ele>
        <time>2016-07-04T09:33:19.000Z</time>
      </trkpt>
      <trkpt lat="46.16183" lon="6.80217">
        <ele>1732</ele>
        <time>2016-07-04T09:33:20.000Z</time>
      </trkpt>
      <trkpt lat="46.16177" lon="6.80211">
        <ele>1728</ele>
        <time>2016-07-04T09:33:27.000Z</time>
      </trkpt>
      <trkpt lat="46.16176" lon="6.80209">
        <ele>1727</ele>
        <time>2016-07-04T09:33:28.000Z</time>
      </trkpt>
      <trkpt lat="46.1617" lon="6.802">
        <ele>1721</ele>
        <time>2016-07-04T09:33:35.000Z</time>
      </trkpt>
      <trkpt lat="46.16168" lon="6.80199">
        <ele>1720</ele>
        <time>2016-07-04T09:33:36.000Z</time>
      </trkpt>
      <trkpt lat="46.16161" lon="6.80195">
        <ele>1721</ele>
        <time>2016-07-04T09:33:44.000Z</time>
      </trkpt>
      <trkpt lat="46.1616" lon="6.80195">
        <ele>1720</ele>
        <time>2016-07-04T09:33:45.000Z</time>
      </trkpt>
      <trkpt lat="46.16153" lon="6.80189">
        <ele>1722</ele>
        <time>2016-07-04T09:33:51.000Z</time>
      </trkpt>
      <trkpt lat="46.16152" lon="6.80188">
        <ele>1722</ele>
        <time>2016-07-04T09:33:52.000Z</time>
      </trkpt>
      <trkpt lat="46.16143" lon="6.80188">
        <ele>1718</ele>
        <time>2016-07-04T09:34:00.000Z</time>
      </trkpt>
      <trkpt lat="46.16142" lon="6.80187">
        <ele>1718</ele>
        <time>2016-07-04T09:34:01.000Z</time>
      </trkpt>
      <trkpt lat="46.16134" lon="6.80185">
        <ele>1716</ele>
        <time>2016-07-04T09:34:06.000Z</time>
      </trkpt>
      <trkpt lat="46.16133" lon="6.80185">
        <ele>1716</ele>
        <time>2016-07-04T09:34:07.000Z</time>
      </trkpt>
      <trkpt lat="46.16125" lon="6.80182">
        <ele>1716</ele>
        <time>2016-07-04T09:34:12.000Z</time>
      </trkpt>
      <trkpt lat="46.16124" lon="6.80182">
        <ele>1717</ele>
        <time>2016-07-04T09:34:13.000Z</time>
      </trkpt>
      <trkpt lat="46.16116" lon="6.80183">
        <ele>1719</ele>
        <time>2016-07-04T09:34:22.000Z</time>
      </trkpt>
      <trkpt lat="46.16115" lon="6.80182">
        <ele>1719</ele>
        <time>2016-07-04T09:34:23.000Z</time>
      </trkpt>
      <trkpt lat="46.16106" lon="6.80183">
        <ele>1723</ele>
        <time>2016-07-04T09:34:28.000Z</time>
      </trkpt>
      <trkpt lat="46.16105" lon="6.80184">
        <ele>1722</ele>
        <time>2016-07-04T09:34:29.000Z</time>
      </trkpt>
      <trkpt lat="46.16097" lon="6.80185">
        <ele>1725</ele>
        <time>2016-07-04T09:34:36.000Z</time>
      </trkpt>
      <trkpt lat="46.16096" lon="6.80186">
        <ele>1725</ele>
        <time>2016-07-04T09:34:37.000Z</time>
      </trkpt>
      <trkpt lat="46.16088" lon="6.80189">
        <ele>1725</ele>
        <time>2016-07-04T09:34:44.000Z</time>
      </trkpt>
      <trkpt lat="46.16087" lon="6.8019">
        <ele>1725</ele>
        <time>2016-07-04T09:34:45.000Z</time>
      </trkpt>
      <trkpt lat="46.16079" lon="6.80191">
        <ele>1726</ele>
        <time>2016-07-04T09:34:50.000Z</time>
      </trkpt>
      <trkpt lat="46.16078" lon="6.80192">
        <ele>1725</ele>
        <time>2016-07-04T09:34:51.000Z</time>
      </trkpt>
      <trkpt lat="46.1607" lon="6.80198">
        <ele>1725</ele>
        <time>2016-07-04T09:35:00.000Z</time>
      </trkpt>
      <trkpt lat="46.16069" lon="6.80199">
        <ele>1725</ele>
        <time>2016-07-04T09:35:01.000Z</time>
      </trkpt>
      <trkpt lat="46.16062" lon="6.80202">
        <ele>1727</ele>
        <time>2016-07-04T09:35:10.000Z</time>
      </trkpt>
      <trkpt lat="46.16061" lon="6.80203">
        <ele>1728</ele>
        <time>2016-07-04T09:35:11.000Z</time>
      </trkpt>
      <trkpt lat="46.16055" lon="6.80209">
        <ele>1728</ele>
        <time>2016-07-04T09:35:16.000Z</time>
      </trkpt>
      <trkpt lat="46.16054" lon="6.80212">
        <ele>1727</ele>
        <time>2016-07-04T09:35:17.000Z</time>
      </trkpt>
      <trkpt lat="46.16046" lon="6.80218">
        <ele>1725</ele>
        <time>2016-07-04T09:35:24.000Z</time>
      </trkpt>
      <trkpt lat="46.16045" lon="6.8022">
        <ele>1724</ele>
        <time>2016-07-04T09:35:25.000Z</time>
      </trkpt>
      <trkpt lat="46.16038" lon="6.80226">
        <ele>1723</ele>
        <time>2016-07-04T09:35:31.000Z</time>
      </trkpt>
      <trkpt lat="46.16037" lon="6.80228">
        <ele>1723</ele>
        <time>2016-07-04T09:35:32.000Z</time>
      </trkpt>
      <trkpt lat="46.1603" lon="6.80236">
        <ele>1721</ele>
        <time>2016-07-04T09:35:38.000Z</time>
      </trkpt>
      <trkpt lat="46.16029" lon="6.80239">
        <ele>1720</ele>
        <time>2016-07-04T09:35:39.000Z</time>
      </trkpt>
      <trkpt lat="46.16022" lon="6.80245">
        <ele>1718</ele>
        <time>2016-07-04T09:35:45.000Z</time>
      </trkpt>
      <trkpt lat="46.16021" lon="6.80246">
        <ele>1719</ele>
        <time>2016-07-04T09:35:46.000Z</time>
      </trkpt>
      <trkpt lat="46.16012" lon="6.80247">
        <ele>1717</ele>
        <time>2016-07-04T09:36:06.000Z</time>
      </trkpt>
      <trkpt lat="46.16012" lon="6.80247">
        <ele>1717</ele>
        <time>2016-07-04T09:36:07.000Z</time>
      </trkpt>
      <trkpt lat="46.16005" lon="6.8024">
        <ele>1716</ele>
        <time>2016-07-04T09:36:21.000Z</time>
      </trkpt>
      <trkpt lat="46.16004" lon="6.80239">
        <ele>1716</ele>
        <time>2016-07-04T09:36:22.000Z</time>
      </trkpt>
      <trkpt lat="46.15996" lon="6.80234">
        <ele>1716</ele>
        <time>2016-07-04T09:36:30.000Z</time>
      </trkpt>
      <trkpt lat="46.15995" lon="6.80234">
        <ele>1715</ele>
        <time>2016-07-04T09:36:31.000Z</time>
      </trkpt>
      <trkpt lat="46.15987" lon="6.80233">
        <ele>1716</ele>
        <time>2016-07-04T09:36:38.000Z</time>
      </trkpt>
      <trkpt lat="46.15985" lon="6.80232">
        <ele>1716</ele>
        <time>2016-07-04T09:36:39.000Z</time>
      </trkpt>
      <trkpt lat="46.15977" lon="6.80229">
        <ele>1714</ele>
        <time>2016-07-04T09:36:46.000Z</time>
      </trkpt>
      <trkpt lat="46.15976" lon="6.80229">
        <ele>1714</ele>
        <time>2016-07-04T09:36:47.000Z</time>
      </trkpt>
      <trkpt lat="46.15968" lon="6.80229">
        <ele>1707</ele>
        <time>2016-07-04T09:36:54.000Z</time>
      </trkpt>
      <trkpt lat="46.15966" lon="6.80228">
        <ele>1708</ele>
        <time>2016-07-04T09:36:55.000Z</time>
      </trkpt>
      <trkpt lat="46.15958" lon="6.80225">
        <ele>1709</ele>
        <time>2016-07-04T09:37:03.000Z</time>
      </trkpt>
      <trkpt lat="46.15957" lon="6.80225">
        <ele>1709</ele>
        <time>2016-07-04T09:37:04.000Z</time>
      </trkpt>
      <trkpt lat="46.1595" lon="6.80219">
        <ele>1710</ele>
        <time>2016-07-04T09:37:10.000Z</time>
      </trkpt>
      <trkpt lat="46.15948" lon="6.80217">
        <ele>1712</ele>
        <time>2016-07-04T09:37:11.000Z</time>
      </trkpt>
      <trkpt lat="46.15941" lon="6.80213">
        <ele>1709</ele>
        <time>2016-07-04T09:37:17.000Z</time>
      </trkpt>
      <trkpt lat="46.15939" lon="6.80213">
        <ele>1708</ele>
        <time>2016-07-04T09:37:18.000Z</time>
      </trkpt>
      <trkpt lat="46.1593" lon="6.80214">
        <ele>1704</ele>
        <time>2016-07-04T09:37:25.000Z</time>
      </trkpt>
      <trkpt lat="46.15929" lon="6.80214">
        <ele>1704</ele>
        <time>2016-07-04T09:37:26.000Z</time>
      </trkpt>
      <trkpt lat="46.1592" lon="6.80214">
        <ele>1706</ele>
        <time>2016-07-04T09:37:38.000Z</time>
      </trkpt>
      <trkpt lat="46.15919" lon="6.80214">
        <ele>1707</ele>
        <time>2016-07-04T09:37:39.000Z</time>
      </trkpt>
      <trkpt lat="46.1591" lon="6.80214">
        <ele>1708</ele>
        <time>2016-07-04T09:37:48.000Z</time>
      </trkpt>
      <trkpt lat="46.15909" lon="6.80214">
        <ele>1708</ele>
        <time>2016-07-04T09:37:49.000Z</time>
      </trkpt>
      <trkpt lat="46.15901" lon="6.80214">
        <ele>1703</ele>
        <time>2016-07-04T09:38:00.000Z</time>
      </trkpt>
      <trkpt lat="46.159" lon="6.80214">
        <ele>1703</ele>
        <time>2016-07-04T09:38:01.000Z</time>
      </trkpt>
      <trkpt lat="46.15892" lon="6.80207">
        <ele>1705</ele>
        <time>2016-07-04T09:38:11.000Z</time>
      </trkpt>
      <trkpt lat="46.15891" lon="6.80206">
        <ele>1706</ele>
        <time>2016-07-04T09:38:12.000Z</time>
      </trkpt>
      <trkpt lat="46.15887" lon="6.80196">
        <ele>1704</ele>
        <time>2016-07-04T09:38:26.000Z</time>
      </trkpt>
      <trkpt lat="46.15886" lon="6.80194">
        <ele>1706</ele>
        <time>2016-07-04T09:38:27.000Z</time>
      </trkpt>
      <trkpt lat="46.15882" lon="6.80185">
        <ele>1704</ele>
        <time>2016-07-04T09:38:37.000Z</time>
      </trkpt>
      <trkpt lat="46.15881" lon="6.80184">
        <ele>1704</ele>
        <time>2016-07-04T09:38:38.000Z</time>
      </trkpt>
      <trkpt lat="46.15876" lon="6.80174">
        <ele>1703</ele>
        <time>2016-07-04T09:38:46.000Z</time>
      </trkpt>
      <trkpt lat="46.15875" lon="6.80173">
        <ele>1703</ele>
        <time>2016-07-04T09:38:47.000Z</time>
      </trkpt>
      <trkpt lat="46.15869" lon="6.80165">
        <ele>1702</ele>
        <time>2016-07-04T09:38:58.000Z</time>
      </trkpt>
      <trkpt lat="46.15868" lon="6.80163">
        <ele>1702</ele>
        <time>2016-07-04T09:38:59.000Z</time>
      </trkpt>
      <trkpt lat="46.15862" lon="6.80153">
        <ele>1701</ele>
        <time>2016-07-04T09:39:07.000Z</time>
      </trkpt>
      <trkpt lat="46.1586" lon="6.80154">
        <ele>1698</ele>
        <time>2016-07-04T09:39:08.000Z</time>
      </trkpt>
      <trkpt lat="46.15855" lon="6.80145">
        <ele>1695</ele>
        <time>2016-07-04T09:39:16.000Z</time>
      </trkpt>
      <trkpt lat="46.15854" lon="6.80143">
        <ele>1693</ele>
        <time>2016-07-04T09:39:17.000Z</time>
      </trkpt>
      <trkpt lat="46.15847" lon="6.80135">
        <ele>1691</ele>
        <time>2016-07-04T09:39:24.000Z</time>
      </trkpt>
      <trkpt lat="46.15847" lon="6.80134">
        <ele>1691</ele>
        <time>2016-07-04T09:39:25.000Z</time>
      </trkpt>
      <trkpt lat="46.15842" lon="6.80124">
        <ele>1691</ele>
        <time>2016-07-04T09:39:33.000Z</time>
      </trkpt>
      <trkpt lat="46.15841" lon="6.80123">
        <ele>1691</ele>
        <time>2016-07-04T09:39:34.000Z</time>
      </trkpt>
      <trkpt lat="46.15834" lon="6.80116">
        <ele>1693</ele>
        <time>2016-07-04T09:39:42.000Z</time>
      </trkpt>
      <trkpt lat="46.15833" lon="6.80115">
        <ele>1693</ele>
        <time>2016-07-04T09:39:43.000Z</time>
      </trkpt>
      <trkpt lat="46.15827" lon="6.80107">
        <ele>1693</ele>
        <time>2016-07-04T09:39:49.000Z</time>
      </trkpt>
      <trkpt lat="46.15825" lon="6.80105">
        <ele>1692</ele>
        <time>2016-07-04T09:39:50.000Z</time>
      </trkpt>
      <trkpt lat="46.15819" lon="6.80097">
        <ele>1694</ele>
        <time>2016-07-04T09:39:58.000Z</time>
      </trkpt>
      <trkpt lat="46.15818" lon="6.80096">
        <ele>1695</ele>
        <time>2016-07-04T09:39:59.000Z</time>
      </trkpt>
      <trkpt lat="46.1581" lon="6.80089">
        <ele>1694</ele>
        <time>2016-07-04T09:40:06.000Z</time>
      </trkpt>
      <trkpt lat="46.1581" lon="6.80089">
        <ele>1693</ele>
        <time>2016-07-04T09:40:07.000Z</time>
      </trkpt>
      <trkpt lat="46.15808" lon="6.80088">
        <ele>1693</ele>
        <time>2016-07-04T09:40:10.000Z</time>
      </trkpt>
      <trkpt lat="46.15808" lon="6.80089">
        <ele>1695</ele>
        <time>2016-07-04T09:40:11.000Z</time>
      </trkpt>
      <trkpt lat="46.15808" lon="6.80089">
        <ele>1696</ele>
        <time>2016-07-04T09:40:12.000Z</time>
      </trkpt>
      <trkpt lat="46.15808" lon="6.80088">
        <ele>1696</ele>
        <time>2016-07-04T09:40:13.000Z</time>
      </trkpt>
      <trkpt lat="46.15808" lon="6.80089">
        <ele>1698</ele>
        <time>2016-07-04T09:40:56.000Z</time>
      </trkpt>
      <trkpt lat="46.15808" lon="6.80089">
        <ele>1698</ele>
        <time>2016-07-04T09:40:57.000Z</time>
      </trkpt>
      <trkpt lat="46.15806" lon="6.80077">
        <ele>1701</ele>
        <time>2016-07-04T09:52:31.000Z</time>
      </trkpt>
      <trkpt lat="46.15806" lon="6.80076">
        <ele>1698</ele>
        <time>2016-07-04T09:52:32.000Z</time>
      </trkpt>
      <trkpt lat="46.15801" lon="6.80066">
        <ele>1698</ele>
        <time>2016-07-04T09:52:41.000Z</time>
      </trkpt>
      <trkpt lat="46.158" lon="6.80065">
        <ele>1698</ele>
        <time>2016-07-04T09:52:42.000Z</time>
      </trkpt>
      <trkpt lat="46.15797" lon="6.80055">
        <ele>1702</ele>
        <time>2016-07-04T09:52:49.000Z</time>
      </trkpt>
      <trkpt lat="46.15796" lon="6.80053">
        <ele>1703</ele>
        <time>2016-07-04T09:52:50.000Z</time>
      </trkpt>
      <trkpt lat="46.15789" lon="6.80045">
        <ele>1704</ele>
        <time>2016-07-04T09:52:58.000Z</time>
      </trkpt>
      <trkpt lat="46.15789" lon="6.80044">
        <ele>1704</ele>
        <time>2016-07-04T09:52:59.000Z</time>
      </trkpt>
      <trkpt lat="46.15787" lon="6.80031">
        <ele>1706</ele>
        <time>2016-07-04T09:53:09.000Z</time>
      </trkpt>
      <trkpt lat="46.15787" lon="6.80029">
        <ele>1706</ele>
        <time>2016-07-04T09:53:10.000Z</time>
      </trkpt>
      <trkpt lat="46.1578" lon="6.80022">
        <ele>1706</ele>
        <time>2016-07-04T09:53:20.000Z</time>
      </trkpt>
      <trkpt lat="46.15779" lon="6.80021">
        <ele>1707</ele>
        <time>2016-07-04T09:53:21.000Z</time>
      </trkpt>
      <trkpt lat="46.15773" lon="6.80012">
        <ele>1710</ele>
        <time>2016-07-04T09:53:29.000Z</time>
      </trkpt>
      <trkpt lat="46.15772" lon="6.80011">
        <ele>1708</ele>
        <time>2016-07-04T09:53:30.000Z</time>
      </trkpt>
      <trkpt lat="46.15767" lon="6.80004">
        <ele>1714</ele>
        <time>2016-07-04T09:53:40.000Z</time>
      </trkpt>
      <trkpt lat="46.15766" lon="6.80002">
        <ele>1714</ele>
        <time>2016-07-04T09:53:41.000Z</time>
      </trkpt>
      <trkpt lat="46.15758" lon="6.79996">
        <ele>1709</ele>
        <time>2016-07-04T09:53:49.000Z</time>
      </trkpt>
      <trkpt lat="46.15757" lon="6.79994">
        <ele>1709</ele>
        <time>2016-07-04T09:53:50.000Z</time>
      </trkpt>
      <trkpt lat="46.15751" lon="6.79987">
        <ele>1707</ele>
        <time>2016-07-04T09:53:56.000Z</time>
      </trkpt>
      <trkpt lat="46.15749" lon="6.79985">
        <ele>1708</ele>
        <time>2016-07-04T09:53:57.000Z</time>
      </trkpt>
      <trkpt lat="46.15742" lon="6.79981">
        <ele>1712</ele>
        <time>2016-07-04T09:54:05.000Z</time>
      </trkpt>
      <trkpt lat="46.1574" lon="6.7998">
        <ele>1712</ele>
        <time>2016-07-04T09:54:06.000Z</time>
      </trkpt>
      <trkpt lat="46.15733" lon="6.79973">
        <ele>1713</ele>
        <time>2016-07-04T09:54:15.000Z</time>
      </trkpt>
      <trkpt lat="46.15733" lon="6.79972">
        <ele>1712</ele>
        <time>2016-07-04T09:54:16.000Z</time>
      </trkpt>
      <trkpt lat="46.15728" lon="6.79962">
        <ele>1708</ele>
        <time>2016-07-04T09:54:22.000Z</time>
      </trkpt>
      <trkpt lat="46.15727" lon="6.79962">
        <ele>1709</ele>
        <time>2016-07-04T09:54:23.000Z</time>
      </trkpt>
      <trkpt lat="46.1572" lon="6.79956">
        <ele>1711</ele>
        <time>2016-07-04T09:54:34.000Z</time>
      </trkpt>
      <trkpt lat="46.15719" lon="6.79954">
        <ele>1710</ele>
        <time>2016-07-04T09:54:35.000Z</time>
      </trkpt>
      <trkpt lat="46.15711" lon="6.79948">
        <ele>1715</ele>
        <time>2016-07-04T09:54:46.000Z</time>
      </trkpt>
      <trkpt lat="46.1571" lon="6.79948">
        <ele>1716</ele>
        <time>2016-07-04T09:54:47.000Z</time>
      </trkpt>
      <trkpt lat="46.15703" lon="6.79944">
        <ele>1707</ele>
        <time>2016-07-04T09:55:00.000Z</time>
      </trkpt>
      <trkpt lat="46.15702" lon="6.79943">
        <ele>1707</ele>
        <time>2016-07-04T09:55:01.000Z</time>
      </trkpt>
      <trkpt lat="46.15694" lon="6.79937">
        <ele>1714</ele>
        <time>2016-07-04T09:55:09.000Z</time>
      </trkpt>
      <trkpt lat="46.15693" lon="6.79935">
        <ele>1715</ele>
        <time>2016-07-04T09:55:10.000Z</time>
      </trkpt>
      <trkpt lat="46.15684" lon="6.79931">
        <ele>1719</ele>
        <time>2016-07-04T09:55:23.000Z</time>
      </trkpt>
      <trkpt lat="46.15684" lon="6.7993">
        <ele>1718</ele>
        <time>2016-07-04T09:55:24.000Z</time>
      </trkpt>
      <trkpt lat="46.15676" lon="6.79925">
        <ele>1721</ele>
        <time>2016-07-04T09:55:34.000Z</time>
      </trkpt>
      <trkpt lat="46.15675" lon="6.79925">
        <ele>1721</ele>
        <time>2016-07-04T09:55:35.000Z</time>
      </trkpt>
      <trkpt lat="46.15668" lon="6.79932">
        <ele>1721</ele>
        <time>2016-07-04T09:55:46.000Z</time>
      </trkpt>
      <trkpt lat="46.15668" lon="6.79933">
        <ele>1721</ele>
        <time>2016-07-04T09:55:47.000Z</time>
      </trkpt>
      <trkpt lat="46.15665" lon="6.79945">
        <ele>1733</ele>
        <time>2016-07-04T09:55:57.000Z</time>
      </trkpt>
      <trkpt lat="46.15666" lon="6.79947">
        <ele>1731</ele>
        <time>2016-07-04T09:55:58.000Z</time>
      </trkpt>
      <trkpt lat="46.15663" lon="6.79959">
        <ele>1733</ele>
        <time>2016-07-04T09:56:07.000Z</time>
      </trkpt>
      <trkpt lat="46.15663" lon="6.7996">
        <ele>1732</ele>
        <time>2016-07-04T09:56:08.000Z</time>
      </trkpt>
      <trkpt lat="46.15657" lon="6.79965">
        <ele>1736</ele>
        <time>2016-07-04T09:56:18.000Z</time>
      </trkpt>
      <trkpt lat="46.15655" lon="6.79967">
        <ele>1737</ele>
        <time>2016-07-04T09:56:19.000Z</time>
      </trkpt>
      <trkpt lat="46.15648" lon="6.79972">
        <ele>1738</ele>
        <time>2016-07-04T09:56:26.000Z</time>
      </trkpt>
      <trkpt lat="46.15646" lon="6.79973">
        <ele>1738</ele>
        <time>2016-07-04T09:56:27.000Z</time>
      </trkpt>
      <trkpt lat="46.15637" lon="6.79974">
        <ele>1746</ele>
        <time>2016-07-04T09:56:38.000Z</time>
      </trkpt>
      <trkpt lat="46.15636" lon="6.79974">
        <ele>1747</ele>
        <time>2016-07-04T09:56:39.000Z</time>
      </trkpt>
      <trkpt lat="46.15628" lon="6.79974">
        <ele>1747</ele>
        <time>2016-07-04T09:56:47.000Z</time>
      </trkpt>
      <trkpt lat="46.15627" lon="6.79974">
        <ele>1746</ele>
        <time>2016-07-04T09:56:48.000Z</time>
      </trkpt>
      <trkpt lat="46.15618" lon="6.79974">
        <ele>1745</ele>
        <time>2016-07-04T09:56:59.000Z</time>
      </trkpt>
      <trkpt lat="46.15617" lon="6.79974">
        <ele>1745</ele>
        <time>2016-07-04T09:57:00.000Z</time>
      </trkpt>
      <trkpt lat="46.15609" lon="6.79968">
        <ele>1750</ele>
        <time>2016-07-04T09:57:13.000Z</time>
      </trkpt>
      <trkpt lat="46.15609" lon="6.79968">
        <ele>1751</ele>
        <time>2016-07-04T09:57:14.000Z</time>
      </trkpt>
      <trkpt lat="46.15611" lon="6.79957">
        <ele>1752</ele>
        <time>2016-07-04T09:57:25.000Z</time>
      </trkpt>
      <trkpt lat="46.15612" lon="6.79956">
        <ele>1753</ele>
        <time>2016-07-04T09:57:26.000Z</time>
      </trkpt>
      <trkpt lat="46.15617" lon="6.79946">
        <ele>1753</ele>
        <time>2016-07-04T09:57:40.000Z</time>
      </trkpt>
      <trkpt lat="46.15617" lon="6.79945">
        <ele>1753</ele>
        <time>2016-07-04T09:57:41.000Z</time>
      </trkpt>
      <trkpt lat="46.15615" lon="6.79932">
        <ele>1754</ele>
        <time>2016-07-04T09:58:01.000Z</time>
      </trkpt>
      <trkpt lat="46.15614" lon="6.79931">
        <ele>1754</ele>
        <time>2016-07-04T09:58:02.000Z</time>
      </trkpt>
      <trkpt lat="46.1561" lon="6.7992">
        <ele>1756</ele>
        <time>2016-07-04T09:58:09.000Z</time>
      </trkpt>
      <trkpt lat="46.15611" lon="6.79918">
        <ele>1756</ele>
        <time>2016-07-04T09:58:10.000Z</time>
      </trkpt>
      <trkpt lat="46.15614" lon="6.79908">
        <ele>1758</ele>
        <time>2016-07-04T09:58:22.000Z</time>
      </trkpt>
      <trkpt lat="46.15614" lon="6.79906">
        <ele>1760</ele>
        <time>2016-07-04T09:58:23.000Z</time>
      </trkpt>
      <trkpt lat="46.15611" lon="6.79895">
        <ele>1757</ele>
        <time>2016-07-04T09:58:37.000Z</time>
      </trkpt>
      <trkpt lat="46.15612" lon="6.79894">
        <ele>1760</ele>
        <time>2016-07-04T09:58:38.000Z</time>
      </trkpt>
      <trkpt lat="46.15606" lon="6.79884">
        <ele>1756</ele>
        <time>2016-07-04T09:58:50.000Z</time>
      </trkpt>
      <trkpt lat="46.15606" lon="6.79882">
        <ele>1756</ele>
        <time>2016-07-04T09:58:51.000Z</time>
      </trkpt>
      <trkpt lat="46.15598" lon="6.79875">
        <ele>1753</ele>
        <time>2016-07-04T09:59:01.000Z</time>
      </trkpt>
      <trkpt lat="46.15597" lon="6.79875">
        <ele>1754</ele>
        <time>2016-07-04T09:59:02.000Z</time>
      </trkpt>
      <trkpt lat="46.1559" lon="6.79868">
        <ele>1756</ele>
        <time>2016-07-04T09:59:10.000Z</time>
      </trkpt>
      <trkpt lat="46.15589" lon="6.79867">
        <ele>1756</ele>
        <time>2016-07-04T09:59:11.000Z</time>
      </trkpt>
      <trkpt lat="46.15581" lon="6.79866">
        <ele>1760</ele>
        <time>2016-07-04T09:59:20.000Z</time>
      </trkpt>
      <trkpt lat="46.15579" lon="6.79865">
        <ele>1760</ele>
        <time>2016-07-04T09:59:21.000Z</time>
      </trkpt>
      <trkpt lat="46.15572" lon="6.79861">
        <ele>1763</ele>
        <time>2016-07-04T09:59:30.000Z</time>
      </trkpt>
      <trkpt lat="46.1557" lon="6.7986">
        <ele>1763</ele>
        <time>2016-07-04T09:59:31.000Z</time>
      </trkpt>
      <trkpt lat="46.15569" lon="6.79848">
        <ele>1764</ele>
        <time>2016-07-04T09:59:57.000Z</time>
      </trkpt>
      <trkpt lat="46.1557" lon="6.79847">
        <ele>1765</ele>
        <time>2016-07-04T09:59:58.000Z</time>
      </trkpt>
      <trkpt lat="46.15573" lon="6.79836">
        <ele>1769</ele>
        <time>2016-07-04T10:00:08.000Z</time>
      </trkpt>
      <trkpt lat="46.15573" lon="6.79834">
        <ele>1771</ele>
        <time>2016-07-04T10:00:09.000Z</time>
      </trkpt>
      <trkpt lat="46.15567" lon="6.79826">
        <ele>1774</ele>
        <time>2016-07-04T10:00:38.000Z</time>
      </trkpt>
      <trkpt lat="46.15566" lon="6.79825">
        <ele>1774</ele>
        <time>2016-07-04T10:00:39.000Z</time>
      </trkpt>
      <trkpt lat="46.15561" lon="6.79818">
        <ele>1775</ele>
        <time>2016-07-04T10:00:48.000Z</time>
      </trkpt>
      <trkpt lat="46.1556" lon="6.79817">
        <ele>1774</ele>
        <time>2016-07-04T10:00:49.000Z</time>
      </trkpt>
      <trkpt lat="46.15553" lon="6.79808">
        <ele>1779</ele>
        <time>2016-07-04T10:00:54.000Z</time>
      </trkpt>
      <trkpt lat="46.15552" lon="6.79806">
        <ele>1780</ele>
        <time>2016-07-04T10:00:55.000Z</time>
      </trkpt>
      <trkpt lat="46.15547" lon="6.79797">
        <ele>1785</ele>
        <time>2016-07-04T10:01:03.000Z</time>
      </trkpt>
      <trkpt lat="46.15546" lon="6.79795">
        <ele>1785</ele>
        <time>2016-07-04T10:01:04.000Z</time>
      </trkpt>
      <trkpt lat="46.1554" lon="6.79786">
        <ele>1786</ele>
        <time>2016-07-04T10:01:20.000Z</time>
      </trkpt>
      <trkpt lat="46.1554" lon="6.79786">
        <ele>1787</ele>
        <time>2016-07-04T10:01:21.000Z</time>
      </trkpt>
      <trkpt lat="46.15534" lon="6.79778">
        <ele>1791</ele>
        <time>2016-07-04T10:01:32.000Z</time>
      </trkpt>
      <trkpt lat="46.15534" lon="6.79776">
        <ele>1791</ele>
        <time>2016-07-04T10:01:33.000Z</time>
      </trkpt>
      <trkpt lat="46.1553" lon="6.79765">
        <ele>1795</ele>
        <time>2016-07-04T10:01:42.000Z</time>
      </trkpt>
      <trkpt lat="46.15531" lon="6.79762">
        <ele>1800</ele>
        <time>2016-07-04T10:01:43.000Z</time>
      </trkpt>
      <trkpt lat="46.15523" lon="6.79756">
        <ele>1799</ele>
        <time>2016-07-04T10:01:55.000Z</time>
      </trkpt>
      <trkpt lat="46.15522" lon="6.79755">
        <ele>1799</ele>
        <time>2016-07-04T10:01:56.000Z</time>
      </trkpt>
      <trkpt lat="46.15515" lon="6.79749">
        <ele>1796</ele>
        <time>2016-07-04T10:02:07.000Z</time>
      </trkpt>
      <trkpt lat="46.15514" lon="6.79748">
        <ele>1796</ele>
        <time>2016-07-04T10:02:08.000Z</time>
      </trkpt>
      <trkpt lat="46.15507" lon="6.79745">
        <ele>1797</ele>
        <time>2016-07-04T10:02:16.000Z</time>
      </trkpt>
      <trkpt lat="46.15505" lon="6.79744">
        <ele>1796</ele>
        <time>2016-07-04T10:02:17.000Z</time>
      </trkpt>
      <trkpt lat="46.15497" lon="6.79744">
        <ele>1798</ele>
        <time>2016-07-04T10:02:25.000Z</time>
      </trkpt>
      <trkpt lat="46.15495" lon="6.79743">
        <ele>1798</ele>
        <time>2016-07-04T10:02:26.000Z</time>
      </trkpt>
      <trkpt lat="46.15486" lon="6.79742">
        <ele>1797</ele>
        <time>2016-07-04T10:02:43.000Z</time>
      </trkpt>
      <trkpt lat="46.15486" lon="6.79743">
        <ele>1799</ele>
        <time>2016-07-04T10:02:44.000Z</time>
      </trkpt>
      <trkpt lat="46.15478" lon="6.79741">
        <ele>1797</ele>
        <time>2016-07-04T10:02:55.000Z</time>
      </trkpt>
      <trkpt lat="46.15476" lon="6.79741">
        <ele>1795</ele>
        <time>2016-07-04T10:02:56.000Z</time>
      </trkpt>
      <trkpt lat="46.15467" lon="6.7974">
        <ele>1799</ele>
        <time>2016-07-04T10:03:08.000Z</time>
      </trkpt>
      <trkpt lat="46.15467" lon="6.7974">
        <ele>1798</ele>
        <time>2016-07-04T10:03:09.000Z</time>
      </trkpt>
      <trkpt lat="46.15459" lon="6.79737">
        <ele>1799</ele>
        <time>2016-07-04T10:03:19.000Z</time>
      </trkpt>
      <trkpt lat="46.15457" lon="6.79737">
        <ele>1800</ele>
        <time>2016-07-04T10:03:20.000Z</time>
      </trkpt>
      <trkpt lat="46.15449" lon="6.79738">
        <ele>1802</ele>
        <time>2016-07-04T10:03:29.000Z</time>
      </trkpt>
      <trkpt lat="46.15448" lon="6.79738">
        <ele>1802</ele>
        <time>2016-07-04T10:03:30.000Z</time>
      </trkpt>
      <trkpt lat="46.1544" lon="6.79741">
        <ele>1809</ele>
        <time>2016-07-04T10:03:37.000Z</time>
      </trkpt>
      <trkpt lat="46.15439" lon="6.79741">
        <ele>1809</ele>
        <time>2016-07-04T10:03:38.000Z</time>
      </trkpt>
      <trkpt lat="46.15431" lon="6.79742">
        <ele>1812</ele>
        <time>2016-07-04T10:03:49.000Z</time>
      </trkpt>
      <trkpt lat="46.15429" lon="6.79743">
        <ele>1812</ele>
        <time>2016-07-04T10:03:50.000Z</time>
      </trkpt>
      <trkpt lat="46.1542" lon="6.79741">
        <ele>1808</ele>
        <time>2016-07-04T10:04:04.000Z</time>
      </trkpt>
      <trkpt lat="46.15419" lon="6.79742">
        <ele>1807</ele>
        <time>2016-07-04T10:04:05.000Z</time>
      </trkpt>
      <trkpt lat="46.15411" lon="6.7974">
        <ele>1807</ele>
        <time>2016-07-04T10:04:16.000Z</time>
      </trkpt>
      <trkpt lat="46.1541" lon="6.79739">
        <ele>1807</ele>
        <time>2016-07-04T10:04:17.000Z</time>
      </trkpt>
      <trkpt lat="46.15402" lon="6.79732">
        <ele>1806</ele>
        <time>2016-07-04T10:04:28.000Z</time>
      </trkpt>
      <trkpt lat="46.15402" lon="6.79732">
        <ele>1806</ele>
        <time>2016-07-04T10:04:29.000Z</time>
      </trkpt>
      <trkpt lat="46.15395" lon="6.79733">
        <ele>1808</ele>
        <time>2016-07-04T10:04:39.000Z</time>
      </trkpt>
      <trkpt lat="46.15392" lon="6.79732">
        <ele>1808</ele>
        <time>2016-07-04T10:04:40.000Z</time>
      </trkpt>
      <trkpt lat="46.15384" lon="6.79726">
        <ele>1808</ele>
        <time>2016-07-04T10:04:48.000Z</time>
      </trkpt>
      <trkpt lat="46.15383" lon="6.79725">
        <ele>1808</ele>
        <time>2016-07-04T10:04:49.000Z</time>
      </trkpt>
      <trkpt lat="46.15375" lon="6.79723">
        <ele>1811</ele>
        <time>2016-07-04T10:04:55.000Z</time>
      </trkpt>
      <trkpt lat="46.15374" lon="6.79722">
        <ele>1811</ele>
        <time>2016-07-04T10:04:56.000Z</time>
      </trkpt>
      <trkpt lat="46.15367" lon="6.79715">
        <ele>1813</ele>
        <time>2016-07-04T10:05:05.000Z</time>
      </trkpt>
      <trkpt lat="46.15366" lon="6.79714">
        <ele>1813</ele>
        <time>2016-07-04T10:05:06.000Z</time>
      </trkpt>
      <trkpt lat="46.15358" lon="6.79708">
        <ele>1822</ele>
        <time>2016-07-04T10:05:21.000Z</time>
      </trkpt>
      <trkpt lat="46.15356" lon="6.79707">
        <ele>1822</ele>
        <time>2016-07-04T10:05:22.000Z</time>
      </trkpt>
      <trkpt lat="46.15349" lon="6.797">
        <ele>1820</ele>
        <time>2016-07-04T10:05:29.000Z</time>
      </trkpt>
      <trkpt lat="46.15348" lon="6.79699">
        <ele>1822</ele>
        <time>2016-07-04T10:05:30.000Z</time>
      </trkpt>
      <trkpt lat="46.1534" lon="6.79699">
        <ele>1821</ele>
        <time>2016-07-04T10:05:38.000Z</time>
      </trkpt>
      <trkpt lat="46.15339" lon="6.797">
        <ele>1820</ele>
        <time>2016-07-04T10:05:39.000Z</time>
      </trkpt>
      <trkpt lat="46.15335" lon="6.79711">
        <ele>1820</ele>
        <time>2016-07-04T10:05:51.000Z</time>
      </trkpt>
      <trkpt lat="46.15334" lon="6.79712">
        <ele>1819</ele>
        <time>2016-07-04T10:05:52.000Z</time>
      </trkpt>
      <trkpt lat="46.15331" lon="6.79723">
        <ele>1818</ele>
        <time>2016-07-04T10:06:05.000Z</time>
      </trkpt>
      <trkpt lat="46.1533" lon="6.79724">
        <ele>1820</ele>
        <time>2016-07-04T10:06:06.000Z</time>
      </trkpt>
      <trkpt lat="46.15329" lon="6.79735">
        <ele>1821</ele>
        <time>2016-07-04T10:06:19.000Z</time>
      </trkpt>
      <trkpt lat="46.15329" lon="6.79737">
        <ele>1821</ele>
        <time>2016-07-04T10:06:20.000Z</time>
      </trkpt>
      <trkpt lat="46.15323" lon="6.79747">
        <ele>1824</ele>
        <time>2016-07-04T10:06:36.000Z</time>
      </trkpt>
      <trkpt lat="46.15323" lon="6.79748">
        <ele>1825</ele>
        <time>2016-07-04T10:06:37.000Z</time>
      </trkpt>
      <trkpt lat="46.15314" lon="6.7975">
        <ele>1827</ele>
        <time>2016-07-04T10:06:51.000Z</time>
      </trkpt>
      <trkpt lat="46.15314" lon="6.79749">
        <ele>1827</ele>
        <time>2016-07-04T10:06:52.000Z</time>
      </trkpt>
      <trkpt lat="46.15312" lon="6.79737">
        <ele>1831</ele>
        <time>2016-07-04T10:07:04.000Z</time>
      </trkpt>
      <trkpt lat="46.15312" lon="6.79736">
        <ele>1832</ele>
        <time>2016-07-04T10:07:05.000Z</time>
      </trkpt>
      <trkpt lat="46.15313" lon="6.79723">
        <ele>1826</ele>
        <time>2016-07-04T10:07:16.000Z</time>
      </trkpt>
      <trkpt lat="46.15313" lon="6.79722">
        <ele>1827</ele>
        <time>2016-07-04T10:07:17.000Z</time>
      </trkpt>
      <trkpt lat="46.1531" lon="6.7971">
        <ele>1825</ele>
        <time>2016-07-04T10:07:28.000Z</time>
      </trkpt>
      <trkpt lat="46.1531" lon="6.79708">
        <ele>1825</ele>
        <time>2016-07-04T10:07:29.000Z</time>
      </trkpt>
      <trkpt lat="46.15301" lon="6.79708">
        <ele>1833</ele>
        <time>2016-07-04T10:07:45.000Z</time>
      </trkpt>
      <trkpt lat="46.15301" lon="6.79707">
        <ele>1835</ele>
        <time>2016-07-04T10:07:46.000Z</time>
      </trkpt>
      <trkpt lat="46.15298" lon="6.79718">
        <ele>1835</ele>
        <time>2016-07-04T10:09:36.000Z</time>
      </trkpt>
      <trkpt lat="46.15297" lon="6.79719">
        <ele>1834</ele>
        <time>2016-07-04T10:09:37.000Z</time>
      </trkpt>
      <trkpt lat="46.1529" lon="6.79727">
        <ele>1832</ele>
        <time>2016-07-04T10:09:48.000Z</time>
      </trkpt>
      <trkpt lat="46.1529" lon="6.79729">
        <ele>1834</ele>
        <time>2016-07-04T10:09:49.000Z</time>
      </trkpt>
      <trkpt lat="46.15285" lon="6.79719">
        <ele>1840</ele>
        <time>2016-07-04T10:10:07.000Z</time>
      </trkpt>
      <trkpt lat="46.15285" lon="6.79716">
        <ele>1839</ele>
        <time>2016-07-04T10:10:08.000Z</time>
      </trkpt>
      <trkpt lat="46.15288" lon="6.79705">
        <ele>1841</ele>
        <time>2016-07-04T10:10:16.000Z</time>
      </trkpt>
      <trkpt lat="46.15289" lon="6.79704">
        <ele>1842</ele>
        <time>2016-07-04T10:10:17.000Z</time>
      </trkpt>
      <trkpt lat="46.15287" lon="6.79691">
        <ele>1845</ele>
        <time>2016-07-04T10:10:32.000Z</time>
      </trkpt>
      <trkpt lat="46.15287" lon="6.7969">
        <ele>1845</ele>
        <time>2016-07-04T10:10:33.000Z</time>
      </trkpt>
      <trkpt lat="46.15286" lon="6.79678">
        <ele>1851</ele>
        <time>2016-07-04T10:10:42.000Z</time>
      </trkpt>
      <trkpt lat="46.15286" lon="6.79677">
        <ele>1852</ele>
        <time>2016-07-04T10:10:43.000Z</time>
      </trkpt>
      <trkpt lat="46.15283" lon="6.79665">
        <ele>1853</ele>
        <time>2016-07-04T10:10:51.000Z</time>
      </trkpt>
      <trkpt lat="46.15282" lon="6.79664">
        <ele>1853</ele>
        <time>2016-07-04T10:10:52.000Z</time>
      </trkpt>
      <trkpt lat="46.15274" lon="6.79667">
        <ele>1854</ele>
        <time>2016-07-04T10:11:04.000Z</time>
      </trkpt>
      <trkpt lat="46.15273" lon="6.79669">
        <ele>1856</ele>
        <time>2016-07-04T10:11:05.000Z</time>
      </trkpt>
      <trkpt lat="46.15273" lon="6.79681">
        <ele>1860</ele>
        <time>2016-07-04T10:11:15.000Z</time>
      </trkpt>
      <trkpt lat="46.15273" lon="6.79684">
        <ele>1861</ele>
        <time>2016-07-04T10:11:16.000Z</time>
      </trkpt>
      <trkpt lat="46.15265" lon="6.79682">
        <ele>1857</ele>
        <time>2016-07-04T10:11:27.000Z</time>
      </trkpt>
      <trkpt lat="46.15264" lon="6.79679">
        <ele>1858</ele>
        <time>2016-07-04T10:11:28.000Z</time>
      </trkpt>
      <trkpt lat="46.15265" lon="6.79667">
        <ele>1864</ele>
        <time>2016-07-04T10:11:40.000Z</time>
      </trkpt>
      <trkpt lat="46.15265" lon="6.79665">
        <ele>1863</ele>
        <time>2016-07-04T10:11:41.000Z</time>
      </trkpt>
      <trkpt lat="46.15263" lon="6.79656">
        <ele>1863</ele>
        <time>2016-07-04T10:11:50.000Z</time>
      </trkpt>
      <trkpt lat="46.15261" lon="6.79653">
        <ele>1858</ele>
        <time>2016-07-04T10:11:51.000Z</time>
      </trkpt>
      <trkpt lat="46.15254" lon="6.79645">
        <ele>1860</ele>
        <time>2016-07-04T10:12:12.000Z</time>
      </trkpt>
      <trkpt lat="46.15252" lon="6.79644">
        <ele>1860</ele>
        <time>2016-07-04T10:12:13.000Z</time>
      </trkpt>
      <trkpt lat="46.15245" lon="6.79639">
        <ele>1863</ele>
        <time>2016-07-04T10:12:22.000Z</time>
      </trkpt>
      <trkpt lat="46.15243" lon="6.79638">
        <ele>1862</ele>
        <time>2016-07-04T10:12:23.000Z</time>
      </trkpt>
      <trkpt lat="46.15234" lon="6.79636">
        <ele>1864</ele>
        <time>2016-07-04T10:12:31.000Z</time>
      </trkpt>
      <trkpt lat="46.15234" lon="6.79638">
        <ele>1864</ele>
        <time>2016-07-04T10:12:32.000Z</time>
      </trkpt>
      <trkpt lat="46.15233" lon="6.79651">
        <ele>1868</ele>
        <time>2016-07-04T10:12:45.000Z</time>
      </trkpt>
      <trkpt lat="46.15233" lon="6.79651">
        <ele>1869</ele>
        <time>2016-07-04T10:12:46.000Z</time>
      </trkpt>
      <trkpt lat="46.15226" lon="6.79659">
        <ele>1873</ele>
        <time>2016-07-04T10:12:58.000Z</time>
      </trkpt>
      <trkpt lat="46.15225" lon="6.79659">
        <ele>1873</ele>
        <time>2016-07-04T10:12:59.000Z</time>
      </trkpt>
      <trkpt lat="46.15217" lon="6.79652">
        <ele>1871</ele>
        <time>2016-07-04T10:13:20.000Z</time>
      </trkpt>
      <trkpt lat="46.15217" lon="6.79652">
        <ele>1871</ele>
        <time>2016-07-04T10:13:21.000Z</time>
      </trkpt>
      <trkpt lat="46.1521" lon="6.79647">
        <ele>1872</ele>
        <time>2016-07-04T10:13:26.000Z</time>
      </trkpt>
      <trkpt lat="46.15209" lon="6.79647">
        <ele>1873</ele>
        <time>2016-07-04T10:13:27.000Z</time>
      </trkpt>
      <trkpt lat="46.152" lon="6.79649">
        <ele>1882</ele>
        <time>2016-07-04T10:13:38.000Z</time>
      </trkpt>
      <trkpt lat="46.15199" lon="6.79649">
        <ele>1880</ele>
        <time>2016-07-04T10:13:39.000Z</time>
      </trkpt>
      <trkpt lat="46.15193" lon="6.79658">
        <ele>1883</ele>
        <time>2016-07-04T10:13:48.000Z</time>
      </trkpt>
      <trkpt lat="46.15192" lon="6.79658">
        <ele>1883</ele>
        <time>2016-07-04T10:13:49.000Z</time>
      </trkpt>
      <trkpt lat="46.15184" lon="6.79658">
        <ele>1883</ele>
        <time>2016-07-04T10:14:12.000Z</time>
      </trkpt>
      <trkpt lat="46.15182" lon="6.79658">
        <ele>1884</ele>
        <time>2016-07-04T10:14:13.000Z</time>
      </trkpt>
      <trkpt lat="46.15174" lon="6.79652">
        <ele>1888</ele>
        <time>2016-07-04T10:14:30.000Z</time>
      </trkpt>
      <trkpt lat="46.15173" lon="6.79652">
        <ele>1888</ele>
        <time>2016-07-04T10:14:31.000Z</time>
      </trkpt>
      <trkpt lat="46.15166" lon="6.79654">
        <ele>1889</ele>
        <time>2016-07-04T10:14:38.000Z</time>
      </trkpt>
      <trkpt lat="46.15164" lon="6.79655">
        <ele>1888</ele>
        <time>2016-07-04T10:14:39.000Z</time>
      </trkpt>
      <trkpt lat="46.15156" lon="6.79659">
        <ele>1886</ele>
        <time>2016-07-04T10:14:46.000Z</time>
      </trkpt>
      <trkpt lat="46.15155" lon="6.7966">
        <ele>1886</ele>
        <time>2016-07-04T10:14:47.000Z</time>
      </trkpt>
      <trkpt lat="46.1515" lon="6.79669">
        <ele>1884</ele>
        <time>2016-07-04T10:14:59.000Z</time>
      </trkpt>
      <trkpt lat="46.15149" lon="6.79669">
        <ele>1883</ele>
        <time>2016-07-04T10:15:00.000Z</time>
      </trkpt>
      <trkpt lat="46.15144" lon="6.79679">
        <ele>1891</ele>
        <time>2016-07-04T10:15:09.000Z</time>
      </trkpt>
      <trkpt lat="46.15144" lon="6.79683">
        <ele>1889</ele>
        <time>2016-07-04T10:15:10.000Z</time>
      </trkpt>
      <trkpt lat="46.15143" lon="6.79695">
        <ele>1889</ele>
        <time>2016-07-04T10:15:18.000Z</time>
      </trkpt>
      <trkpt lat="46.15142" lon="6.79696">
        <ele>1890</ele>
        <time>2016-07-04T10:15:19.000Z</time>
      </trkpt>
      <trkpt lat="46.15135" lon="6.79701">
        <ele>1893</ele>
        <time>2016-07-04T10:15:31.000Z</time>
      </trkpt>
      <trkpt lat="46.15133" lon="6.79701">
        <ele>1893</ele>
        <time>2016-07-04T10:15:32.000Z</time>
      </trkpt>
      <trkpt lat="46.15126" lon="6.79697">
        <ele>1899</ele>
        <time>2016-07-04T10:15:44.000Z</time>
      </trkpt>
      <trkpt lat="46.15125" lon="6.79696">
        <ele>1900</ele>
        <time>2016-07-04T10:15:45.000Z</time>
      </trkpt>
      <trkpt lat="46.15118" lon="6.79688">
        <ele>1901</ele>
        <time>2016-07-04T10:15:55.000Z</time>
      </trkpt>
      <trkpt lat="46.15117" lon="6.79687">
        <ele>1900</ele>
        <time>2016-07-04T10:15:56.000Z</time>
      </trkpt>
      <trkpt lat="46.15111" lon="6.79679">
        <ele>1906</ele>
        <time>2016-07-04T10:16:08.000Z</time>
      </trkpt>
      <trkpt lat="46.15109" lon="6.7968">
        <ele>1907</ele>
        <time>2016-07-04T10:16:09.000Z</time>
      </trkpt>
      <trkpt lat="46.15102" lon="6.79673">
        <ele>1902</ele>
        <time>2016-07-04T10:16:20.000Z</time>
      </trkpt>
      <trkpt lat="46.15102" lon="6.79671">
        <ele>1902</ele>
        <time>2016-07-04T10:16:21.000Z</time>
      </trkpt>
      <trkpt lat="46.15095" lon="6.79664">
        <ele>1906</ele>
        <time>2016-07-04T10:16:40.000Z</time>
      </trkpt>
      <trkpt lat="46.15094" lon="6.79663">
        <ele>1907</ele>
        <time>2016-07-04T10:16:41.000Z</time>
      </trkpt>
      <trkpt lat="46.15093" lon="6.7965">
        <ele>1910</ele>
        <time>2016-07-04T10:16:51.000Z</time>
      </trkpt>
      <trkpt lat="46.15094" lon="6.79649">
        <ele>1909</ele>
        <time>2016-07-04T10:16:52.000Z</time>
      </trkpt>
      <trkpt lat="46.15092" lon="6.79636">
        <ele>1907</ele>
        <time>2016-07-04T10:17:00.000Z</time>
      </trkpt>
      <trkpt lat="46.15092" lon="6.79635">
        <ele>1907</ele>
        <time>2016-07-04T10:17:01.000Z</time>
      </trkpt>
      <trkpt lat="46.15092" lon="6.79622">
        <ele>1907</ele>
        <time>2016-07-04T10:17:15.000Z</time>
      </trkpt>
      <trkpt lat="46.15092" lon="6.7962">
        <ele>1907</ele>
        <time>2016-07-04T10:17:16.000Z</time>
      </trkpt>
      <trkpt lat="46.15089" lon="6.79609">
        <ele>1910</ele>
        <time>2016-07-04T10:17:38.000Z</time>
      </trkpt>
      <trkpt lat="46.15087" lon="6.79609">
        <ele>1911</ele>
        <time>2016-07-04T10:17:39.000Z</time>
      </trkpt>
      <trkpt lat="46.15078" lon="6.7961">
        <ele>1915</ele>
        <time>2016-07-04T10:17:48.000Z</time>
      </trkpt>
      <trkpt lat="46.15076" lon="6.79609">
        <ele>1916</ele>
        <time>2016-07-04T10:17:49.000Z</time>
      </trkpt>
      <trkpt lat="46.15069" lon="6.79604">
        <ele>1916</ele>
        <time>2016-07-04T10:18:02.000Z</time>
      </trkpt>
      <trkpt lat="46.15067" lon="6.79601">
        <ele>1916</ele>
        <time>2016-07-04T10:18:03.000Z</time>
      </trkpt>
      <trkpt lat="46.15062" lon="6.79591">
        <ele>1919</ele>
        <time>2016-07-04T10:18:09.000Z</time>
      </trkpt>
      <trkpt lat="46.15062" lon="6.79589">
        <ele>1918</ele>
        <time>2016-07-04T10:18:10.000Z</time>
      </trkpt>
      <trkpt lat="46.15054" lon="6.79584">
        <ele>1920</ele>
        <time>2016-07-04T10:18:21.000Z</time>
      </trkpt>
      <trkpt lat="46.15053" lon="6.79584">
        <ele>1920</ele>
        <time>2016-07-04T10:18:22.000Z</time>
      </trkpt>
      <trkpt lat="46.15045" lon="6.79585">
        <ele>1921</ele>
        <time>2016-07-04T10:18:34.000Z</time>
      </trkpt>
      <trkpt lat="46.15043" lon="6.79586">
        <ele>1921</ele>
        <time>2016-07-04T10:18:35.000Z</time>
      </trkpt>
      <trkpt lat="46.15035" lon="6.79589">
        <ele>1922</ele>
        <time>2016-07-04T10:18:45.000Z</time>
      </trkpt>
      <trkpt lat="46.15033" lon="6.79588">
        <ele>1923</ele>
        <time>2016-07-04T10:18:46.000Z</time>
      </trkpt>
      <trkpt lat="46.15027" lon="6.79581">
        <ele>1918</ele>
        <time>2016-07-04T10:18:57.000Z</time>
      </trkpt>
      <trkpt lat="46.15026" lon="6.79579">
        <ele>1918</ele>
        <time>2016-07-04T10:18:58.000Z</time>
      </trkpt>
      <trkpt lat="46.15024" lon="6.79567">
        <ele>1919</ele>
        <time>2016-07-04T10:19:12.000Z</time>
      </trkpt>
      <trkpt lat="46.15023" lon="6.79566">
        <ele>1919</ele>
        <time>2016-07-04T10:19:13.000Z</time>
      </trkpt>
      <trkpt lat="46.15018" lon="6.79558">
        <ele>1917</ele>
        <time>2016-07-04T10:19:18.000Z</time>
      </trkpt>
      <trkpt lat="46.15017" lon="6.79554">
        <ele>1921</ele>
        <time>2016-07-04T10:19:19.000Z</time>
      </trkpt>
      <trkpt lat="46.1501" lon="6.79552">
        <ele>1920</ele>
        <time>2016-07-04T10:19:27.000Z</time>
      </trkpt>
      <trkpt lat="46.15008" lon="6.79551">
        <ele>1918</ele>
        <time>2016-07-04T10:19:28.000Z</time>
      </trkpt>
      <trkpt lat="46.15" lon="6.79549">
        <ele>1916</ele>
        <time>2016-07-04T10:19:36.000Z</time>
      </trkpt>
      <trkpt lat="46.14999" lon="6.79548">
        <ele>1915</ele>
        <time>2016-07-04T10:19:37.000Z</time>
      </trkpt>
      <trkpt lat="46.15004" lon="6.79538">
        <ele>1921</ele>
        <time>2016-07-04T10:19:47.000Z</time>
      </trkpt>
      <trkpt lat="46.15004" lon="6.79536">
        <ele>1922</ele>
        <time>2016-07-04T10:19:48.000Z</time>
      </trkpt>
      <trkpt lat="46.1501" lon="6.79527">
        <ele>1922</ele>
        <time>2016-07-04T10:19:59.000Z</time>
      </trkpt>
      <trkpt lat="46.15011" lon="6.79526">
        <ele>1923</ele>
        <time>2016-07-04T10:20:00.000Z</time>
      </trkpt>
      <trkpt lat="46.15015" lon="6.79515">
        <ele>1924</ele>
        <time>2016-07-04T10:20:08.000Z</time>
      </trkpt>
      <trkpt lat="46.15016" lon="6.79514">
        <ele>1924</ele>
        <time>2016-07-04T10:20:09.000Z</time>
      </trkpt>
      <trkpt lat="46.15016" lon="6.79501">
        <ele>1922</ele>
        <time>2016-07-04T10:20:20.000Z</time>
      </trkpt>
      <trkpt lat="46.15016" lon="6.795">
        <ele>1922</ele>
        <time>2016-07-04T10:20:21.000Z</time>
      </trkpt>
      <trkpt lat="46.15018" lon="6.79487">
        <ele>1928</ele>
        <time>2016-07-04T10:20:32.000Z</time>
      </trkpt>
      <trkpt lat="46.15018" lon="6.79487">
        <ele>1928</ele>
        <time>2016-07-04T10:20:33.000Z</time>
      </trkpt>
      <trkpt lat="46.15013" lon="6.79477">
        <ele>1926</ele>
        <time>2016-07-04T10:20:47.000Z</time>
      </trkpt>
      <trkpt lat="46.15011" lon="6.79476">
        <ele>1926</ele>
        <time>2016-07-04T10:20:48.000Z</time>
      </trkpt>
      <trkpt lat="46.15003" lon="6.79471">
        <ele>1928</ele>
        <time>2016-07-04T10:20:59.000Z</time>
      </trkpt>
      <trkpt lat="46.15002" lon="6.79471">
        <ele>1928</ele>
        <time>2016-07-04T10:21:00.000Z</time>
      </trkpt>
      <trkpt lat="46.14995" lon="6.79476">
        <ele>1931</ele>
        <time>2016-07-04T10:21:13.000Z</time>
      </trkpt>
      <trkpt lat="46.14994" lon="6.79477">
        <ele>1929</ele>
        <time>2016-07-04T10:21:14.000Z</time>
      </trkpt>
      <trkpt lat="46.14987" lon="6.79485">
        <ele>1931</ele>
        <time>2016-07-04T10:21:27.000Z</time>
      </trkpt>
      <trkpt lat="46.14986" lon="6.79485">
        <ele>1930</ele>
        <time>2016-07-04T10:21:28.000Z</time>
      </trkpt>
      <trkpt lat="46.1498" lon="6.79493">
        <ele>1930</ele>
        <time>2016-07-04T10:21:42.000Z</time>
      </trkpt>
      <trkpt lat="46.14979" lon="6.79495">
        <ele>1930</ele>
        <time>2016-07-04T10:21:43.000Z</time>
      </trkpt>
      <trkpt lat="46.14971" lon="6.79501">
        <ele>1932</ele>
        <time>2016-07-04T10:21:53.000Z</time>
      </trkpt>
      <trkpt lat="46.14971" lon="6.79502">
        <ele>1933</ele>
        <time>2016-07-04T10:21:54.000Z</time>
      </trkpt>
      <trkpt lat="46.14962" lon="6.79505">
        <ele>1937</ele>
        <time>2016-07-04T10:22:08.000Z</time>
      </trkpt>
      <trkpt lat="46.14961" lon="6.79505">
        <ele>1937</ele>
        <time>2016-07-04T10:22:09.000Z</time>
      </trkpt>
      <trkpt lat="46.14956" lon="6.79496">
        <ele>1938</ele>
        <time>2016-07-04T10:22:21.000Z</time>
      </trkpt>
      <trkpt lat="46.14956" lon="6.79494">
        <ele>1938</ele>
        <time>2016-07-04T10:22:22.000Z</time>
      </trkpt>
      <trkpt lat="46.14957" lon="6.79482">
        <ele>1943</ele>
        <time>2016-07-04T10:22:37.000Z</time>
      </trkpt>
      <trkpt lat="46.14957" lon="6.79481">
        <ele>1943</ele>
        <time>2016-07-04T10:22:38.000Z</time>
      </trkpt>
      <trkpt lat="46.14957" lon="6.79468">
        <ele>1945</ele>
        <time>2016-07-04T10:23:01.000Z</time>
      </trkpt>
      <trkpt lat="46.14957" lon="6.79466">
        <ele>1946</ele>
        <time>2016-07-04T10:23:02.000Z</time>
      </trkpt>
      <trkpt lat="46.14954" lon="6.79455">
        <ele>1944</ele>
        <time>2016-07-04T10:23:10.000Z</time>
      </trkpt>
      <trkpt lat="46.14953" lon="6.79454">
        <ele>1943</ele>
        <time>2016-07-04T10:23:11.000Z</time>
      </trkpt>
      <trkpt lat="46.14951" lon="6.79442">
        <ele>1947</ele>
        <time>2016-07-04T10:23:17.000Z</time>
      </trkpt>
      <trkpt lat="46.1495" lon="6.79441">
        <ele>1946</ele>
        <time>2016-07-04T10:23:18.000Z</time>
      </trkpt>
      <trkpt lat="46.14951" lon="6.79429">
        <ele>1949</ele>
        <time>2016-07-04T10:23:28.000Z</time>
      </trkpt>
      <trkpt lat="46.1495" lon="6.79428">
        <ele>1948</ele>
        <time>2016-07-04T10:23:29.000Z</time>
      </trkpt>
      <trkpt lat="46.14949" lon="6.79415">
        <ele>1949</ele>
        <time>2016-07-04T10:23:41.000Z</time>
      </trkpt>
      <trkpt lat="46.14949" lon="6.79414">
        <ele>1949</ele>
        <time>2016-07-04T10:23:42.000Z</time>
      </trkpt>
      <trkpt lat="46.14951" lon="6.79402">
        <ele>1953</ele>
        <time>2016-07-04T10:23:56.000Z</time>
      </trkpt>
      <trkpt lat="46.14951" lon="6.79401">
        <ele>1954</ele>
        <time>2016-07-04T10:23:57.000Z</time>
      </trkpt>
      <trkpt lat="46.14954" lon="6.79389">
        <ele>1956</ele>
        <time>2016-07-04T10:24:10.000Z</time>
      </trkpt>
      <trkpt lat="46.14954" lon="6.79389">
        <ele>1956</ele>
        <time>2016-07-04T10:24:11.000Z</time>
      </trkpt>
      <trkpt lat="46.14957" lon="6.79377">
        <ele>1961</ele>
        <time>2016-07-04T10:24:25.000Z</time>
      </trkpt>
      <trkpt lat="46.14958" lon="6.79376">
        <ele>1962</ele>
        <time>2016-07-04T10:24:26.000Z</time>
      </trkpt>
      <trkpt lat="46.14963" lon="6.79367">
        <ele>1960</ele>
        <time>2016-07-04T10:24:33.000Z</time>
      </trkpt>
      <trkpt lat="46.14964" lon="6.79367">
        <ele>1962</ele>
        <time>2016-07-04T10:24:34.000Z</time>
      </trkpt>
      <trkpt lat="46.14969" lon="6.79357">
        <ele>1957</ele>
        <time>2016-07-04T10:24:47.000Z</time>
      </trkpt>
      <trkpt lat="46.1497" lon="6.79356">
        <ele>1958</ele>
        <time>2016-07-04T10:24:48.000Z</time>
      </trkpt>
      <trkpt lat="46.14976" lon="6.79347">
        <ele>1962</ele>
        <time>2016-07-04T10:25:02.000Z</time>
      </trkpt>
      <trkpt lat="46.14977" lon="6.79346">
        <ele>1963</ele>
        <time>2016-07-04T10:25:03.000Z</time>
      </trkpt>
      <trkpt lat="46.14981" lon="6.7934">
        <ele>1963</ele>
        <time>2016-07-04T10:25:27.000Z</time>
      </trkpt>
      <trkpt lat="46.14982" lon="6.7934">
        <ele>1963</ele>
        <time>2016-07-04T10:25:28.000Z</time>
      </trkpt>
      <trkpt lat="46.14982" lon="6.7934">
        <ele>1963</ele>
        <time>2016-07-04T10:25:29.000Z</time>
      </trkpt>
      <trkpt lat="46.14982" lon="6.79338">
        <ele>1967</ele>
        <time>2016-07-04T10:25:30.000Z</time>
      </trkpt>
      <trkpt lat="46.14988" lon="6.79332">
        <ele>1969</ele>
        <time>2016-07-04T10:25:39.000Z</time>
      </trkpt>
      <trkpt lat="46.1499" lon="6.79331">
        <ele>1969</ele>
        <time>2016-07-04T10:25:40.000Z</time>
      </trkpt>
      <trkpt lat="46.14996" lon="6.79322">
        <ele>1967</ele>
        <time>2016-07-04T10:25:51.000Z</time>
      </trkpt>
      <trkpt lat="46.14997" lon="6.79322">
        <ele>1967</ele>
        <time>2016-07-04T10:25:52.000Z</time>
      </trkpt>
      <trkpt lat="46.15003" lon="6.79316">
        <ele>1972</ele>
        <time>2016-07-04T10:25:59.000Z</time>
      </trkpt>
      <trkpt lat="46.15005" lon="6.79315">
        <ele>1972</ele>
        <time>2016-07-04T10:26:00.000Z</time>
      </trkpt>
      <trkpt lat="46.15012" lon="6.79307">
        <ele>1971</ele>
        <time>2016-07-04T10:26:10.000Z</time>
      </trkpt>
      <trkpt lat="46.15015" lon="6.79306">
        <ele>1971</ele>
        <time>2016-07-04T10:26:11.000Z</time>
      </trkpt>
      <trkpt lat="46.15022" lon="6.79301">
        <ele>1969</ele>
        <time>2016-07-04T10:26:28.000Z</time>
      </trkpt>
      <trkpt lat="46.15023" lon="6.79301">
        <ele>1969</ele>
        <time>2016-07-04T10:26:29.000Z</time>
      </trkpt>
      <trkpt lat="46.15025" lon="6.79289">
        <ele>1971</ele>
        <time>2016-07-04T10:26:44.000Z</time>
      </trkpt>
      <trkpt lat="46.15025" lon="6.79288">
        <ele>1971</ele>
        <time>2016-07-04T10:26:45.000Z</time>
      </trkpt>
      <trkpt lat="46.15025" lon="6.79279">
        <ele>1974</ele>
        <time>2016-07-04T10:29:54.000Z</time>
      </trkpt>
      <trkpt lat="46.15025" lon="6.79279">
        <ele>1974</ele>
        <time>2016-07-04T10:29:55.000Z</time>
      </trkpt>
      <trkpt lat="46.15024" lon="6.79278">
        <ele>1974</ele>
        <time>2016-07-04T10:30:23.000Z</time>
      </trkpt>
      <trkpt lat="46.15024" lon="6.79278">
        <ele>1974</ele>
        <time>2016-07-04T10:30:24.000Z</time>
      </trkpt>
      <trkpt lat="46.15016" lon="6.79275">
        <ele>1968</ele>
        <time>2016-07-04T10:30:42.000Z</time>
      </trkpt>
      <trkpt lat="46.15015" lon="6.79276">
        <ele>1968</ele>
        <time>2016-07-04T10:30:43.000Z</time>
      </trkpt>
      <trkpt lat="46.15007" lon="6.79272">
        <ele>1965</ele>
        <time>2016-07-04T10:30:51.000Z</time>
      </trkpt>
      <trkpt lat="46.15005" lon="6.79271">
        <ele>1965</ele>
        <time>2016-07-04T10:30:52.000Z</time>
      </trkpt>
      <trkpt lat="46.14997" lon="6.79272">
        <ele>1966</ele>
        <time>2016-07-04T10:31:02.000Z</time>
      </trkpt>
      <trkpt lat="46.14995" lon="6.79271">
        <ele>1966</ele>
        <time>2016-07-04T10:31:03.000Z</time>
      </trkpt>
      <trkpt lat="46.14987" lon="6.79272">
        <ele>1968</ele>
        <time>2016-07-04T10:31:11.000Z</time>
      </trkpt>
      <trkpt lat="46.14986" lon="6.79271">
        <ele>1968</ele>
        <time>2016-07-04T10:31:12.000Z</time>
      </trkpt>
      <trkpt lat="46.14978" lon="6.79264">
        <ele>1968</ele>
        <time>2016-07-04T10:31:20.000Z</time>
      </trkpt>
      <trkpt lat="46.14978" lon="6.79264">
        <ele>1968</ele>
        <time>2016-07-04T10:31:21.000Z</time>
      </trkpt>
      <trkpt lat="46.14969" lon="6.79264">
        <ele>1966</ele>
        <time>2016-07-04T10:31:34.000Z</time>
      </trkpt>
      <trkpt lat="46.14968" lon="6.79264">
        <ele>1966</ele>
        <time>2016-07-04T10:31:35.000Z</time>
      </trkpt>
      <trkpt lat="46.14959" lon="6.79265">
        <ele>1961</ele>
        <time>2016-07-04T10:31:42.000Z</time>
      </trkpt>
      <trkpt lat="46.14958" lon="6.79264">
        <ele>1962</ele>
        <time>2016-07-04T10:31:43.000Z</time>
      </trkpt>
      <trkpt lat="46.14949" lon="6.79263">
        <ele>1964</ele>
        <time>2016-07-04T10:31:50.000Z</time>
      </trkpt>
      <trkpt lat="46.14948" lon="6.79262">
        <ele>1965</ele>
        <time>2016-07-04T10:31:51.000Z</time>
      </trkpt>
      <trkpt lat="46.1494" lon="6.79258">
        <ele>1964</ele>
        <time>2016-07-04T10:31:59.000Z</time>
      </trkpt>
      <trkpt lat="46.14938" lon="6.79258">
        <ele>1963</ele>
        <time>2016-07-04T10:32:00.000Z</time>
      </trkpt>
      <trkpt lat="46.1493" lon="6.79255">
        <ele>1960</ele>
        <time>2016-07-04T10:32:08.000Z</time>
      </trkpt>
      <trkpt lat="46.14929" lon="6.79255">
        <ele>1961</ele>
        <time>2016-07-04T10:32:09.000Z</time>
      </trkpt>
      <trkpt lat="46.14923" lon="6.79246">
        <ele>1960</ele>
        <time>2016-07-04T10:32:17.000Z</time>
      </trkpt>
      <trkpt lat="46.14922" lon="6.79245">
        <ele>1959</ele>
        <time>2016-07-04T10:32:18.000Z</time>
      </trkpt>
      <trkpt lat="46.14916" lon="6.79237">
        <ele>1960</ele>
        <time>2016-07-04T10:32:26.000Z</time>
      </trkpt>
      <trkpt lat="46.14915" lon="6.79236">
        <ele>1960</ele>
        <time>2016-07-04T10:32:27.000Z</time>
      </trkpt>
      <trkpt lat="46.14911" lon="6.79225">
        <ele>1959</ele>
        <time>2016-07-04T10:32:36.000Z</time>
      </trkpt>
      <trkpt lat="46.1491" lon="6.79223">
        <ele>1959</ele>
        <time>2016-07-04T10:32:37.000Z</time>
      </trkpt>
      <trkpt lat="46.14902" lon="6.79217">
        <ele>1957</ele>
        <time>2016-07-04T10:32:47.000Z</time>
      </trkpt>
      <trkpt lat="46.14901" lon="6.79218">
        <ele>1957</ele>
        <time>2016-07-04T10:32:48.000Z</time>
      </trkpt>
      <trkpt lat="46.14892" lon="6.79216">
        <ele>1956</ele>
        <time>2016-07-04T10:32:57.000Z</time>
      </trkpt>
      <trkpt lat="46.14891" lon="6.79215">
        <ele>1956</ele>
        <time>2016-07-04T10:32:58.000Z</time>
      </trkpt>
      <trkpt lat="46.14885" lon="6.79207">
        <ele>1955</ele>
        <time>2016-07-04T10:33:06.000Z</time>
      </trkpt>
      <trkpt lat="46.14885" lon="6.79206">
        <ele>1956</ele>
        <time>2016-07-04T10:33:07.000Z</time>
      </trkpt>
      <trkpt lat="46.1488" lon="6.79195">
        <ele>1955</ele>
        <time>2016-07-04T10:33:14.000Z</time>
      </trkpt>
      <trkpt lat="46.14878" lon="6.79195">
        <ele>1955</ele>
        <time>2016-07-04T10:33:15.000Z</time>
      </trkpt>
      <trkpt lat="46.1487" lon="6.79198">
        <ele>1951</ele>
        <time>2016-07-04T10:33:25.000Z</time>
      </trkpt>
      <trkpt lat="46.14869" lon="6.79198">
        <ele>1950</ele>
        <time>2016-07-04T10:33:26.000Z</time>
      </trkpt>
      <trkpt lat="46.14861" lon="6.79196">
        <ele>1950</ele>
        <time>2016-07-04T10:33:41.000Z</time>
      </trkpt>
      <trkpt lat="46.1486" lon="6.79195">
        <ele>1950</ele>
        <time>2016-07-04T10:33:42.000Z</time>
      </trkpt>
      <trkpt lat="46.14855" lon="6.79187">
        <ele>1949</ele>
        <time>2016-07-04T10:33:50.000Z</time>
      </trkpt>
      <trkpt lat="46.14854" lon="6.79185">
        <ele>1949</ele>
        <time>2016-07-04T10:33:51.000Z</time>
      </trkpt>
      <trkpt lat="46.14848" lon="6.79176">
        <ele>1947</ele>
        <time>2016-07-04T10:34:03.000Z</time>
      </trkpt>
      <trkpt lat="46.14848" lon="6.79174">
        <ele>1947</ele>
        <time>2016-07-04T10:34:04.000Z</time>
      </trkpt>
      <trkpt lat="46.14841" lon="6.79165">
        <ele>1947</ele>
        <time>2016-07-04T10:34:14.000Z</time>
      </trkpt>
      <trkpt lat="46.1484" lon="6.79165">
        <ele>1946</ele>
        <time>2016-07-04T10:34:15.000Z</time>
      </trkpt>
      <trkpt lat="46.14833" lon="6.7916">
        <ele>1945</ele>
        <time>2016-07-04T10:34:25.000Z</time>
      </trkpt>
      <trkpt lat="46.14832" lon="6.79159">
        <ele>1945</ele>
        <time>2016-07-04T10:34:26.000Z</time>
      </trkpt>
      <trkpt lat="46.14825" lon="6.79152">
        <ele>1942</ele>
        <time>2016-07-04T10:34:34.000Z</time>
      </trkpt>
      <trkpt lat="46.14824" lon="6.79151">
        <ele>1942</ele>
        <time>2016-07-04T10:34:35.000Z</time>
      </trkpt>
      <trkpt lat="46.1482" lon="6.7914">
        <ele>1939</ele>
        <time>2016-07-04T10:34:45.000Z</time>
      </trkpt>
      <trkpt lat="46.1482" lon="6.79139">
        <ele>1939</ele>
        <time>2016-07-04T10:34:46.000Z</time>
      </trkpt>
      <trkpt lat="46.14817" lon="6.79127">
        <ele>1937</ele>
        <time>2016-07-04T10:34:57.000Z</time>
      </trkpt>
      <trkpt lat="46.14817" lon="6.79126">
        <ele>1937</ele>
        <time>2016-07-04T10:34:58.000Z</time>
      </trkpt>
      <trkpt lat="46.14812" lon="6.79116">
        <ele>1935</ele>
        <time>2016-07-04T10:35:08.000Z</time>
      </trkpt>
      <trkpt lat="46.14811" lon="6.79115">
        <ele>1935</ele>
        <time>2016-07-04T10:35:09.000Z</time>
      </trkpt>
      <trkpt lat="46.14804" lon="6.79108">
        <ele>1933</ele>
        <time>2016-07-04T10:35:20.000Z</time>
      </trkpt>
      <trkpt lat="46.14804" lon="6.79107">
        <ele>1932</ele>
        <time>2016-07-04T10:35:21.000Z</time>
      </trkpt>
      <trkpt lat="46.14799" lon="6.79098">
        <ele>1932</ele>
        <time>2016-07-04T10:35:30.000Z</time>
      </trkpt>
      <trkpt lat="46.14798" lon="6.79097">
        <ele>1931</ele>
        <time>2016-07-04T10:35:31.000Z</time>
      </trkpt>
      <trkpt lat="46.14791" lon="6.79093">
        <ele>1924</ele>
        <time>2016-07-04T10:36:59.000Z</time>
      </trkpt>
      <trkpt lat="46.14789" lon="6.79094">
        <ele>1922</ele>
        <time>2016-07-04T10:37:00.000Z</time>
      </trkpt>
      <trkpt lat="46.14782" lon="6.79087">
        <ele>1925</ele>
        <time>2016-07-04T10:37:08.000Z</time>
      </trkpt>
      <trkpt lat="46.14781" lon="6.79086">
        <ele>1925</ele>
        <time>2016-07-04T10:37:09.000Z</time>
      </trkpt>
      <trkpt lat="46.14773" lon="6.7908">
        <ele>1924</ele>
        <time>2016-07-04T10:37:18.000Z</time>
      </trkpt>
      <trkpt lat="46.14772" lon="6.79078">
        <ele>1924</ele>
        <time>2016-07-04T10:37:19.000Z</time>
      </trkpt>
      <trkpt lat="46.1477" lon="6.79066">
        <ele>1921</ele>
        <time>2016-07-04T10:37:30.000Z</time>
      </trkpt>
      <trkpt lat="46.1477" lon="6.79065">
        <ele>1921</ele>
        <time>2016-07-04T10:37:31.000Z</time>
      </trkpt>
      <trkpt lat="46.14766" lon="6.79054">
        <ele>1918</ele>
        <time>2016-07-04T10:37:42.000Z</time>
      </trkpt>
      <trkpt lat="46.14766" lon="6.79053">
        <ele>1918</ele>
        <time>2016-07-04T10:37:43.000Z</time>
      </trkpt>
      <trkpt lat="46.14761" lon="6.79043">
        <ele>1918</ele>
        <time>2016-07-04T10:37:51.000Z</time>
      </trkpt>
      <trkpt lat="46.1476" lon="6.79042">
        <ele>1918</ele>
        <time>2016-07-04T10:37:52.000Z</time>
      </trkpt>
      <trkpt lat="46.14755" lon="6.79032">
        <ele>1918</ele>
        <time>2016-07-04T10:38:01.000Z</time>
      </trkpt>
      <trkpt lat="46.14755" lon="6.79031">
        <ele>1917</ele>
        <time>2016-07-04T10:38:02.000Z</time>
      </trkpt>
      <trkpt lat="46.14753" lon="6.79018">
        <ele>1915</ele>
        <time>2016-07-04T10:38:13.000Z</time>
      </trkpt>
      <trkpt lat="46.14754" lon="6.79017">
        <ele>1914</ele>
        <time>2016-07-04T10:38:14.000Z</time>
      </trkpt>
      <trkpt lat="46.14758" lon="6.79006">
        <ele>1912</ele>
        <time>2016-07-04T10:38:25.000Z</time>
      </trkpt>
      <trkpt lat="46.1476" lon="6.79005">
        <ele>1912</ele>
        <time>2016-07-04T10:38:26.000Z</time>
      </trkpt>
      <trkpt lat="46.14768" lon="6.79005">
        <ele>1905</ele>
        <time>2016-07-04T10:38:38.000Z</time>
      </trkpt>
      <trkpt lat="46.1477" lon="6.79005">
        <ele>1906</ele>
        <time>2016-07-04T10:38:39.000Z</time>
      </trkpt>
      <trkpt lat="46.14778" lon="6.79006">
        <ele>1906</ele>
        <time>2016-07-04T10:38:49.000Z</time>
      </trkpt>
      <trkpt lat="46.1478" lon="6.79006">
        <ele>1906</ele>
        <time>2016-07-04T10:38:50.000Z</time>
      </trkpt>
      <trkpt lat="46.14787" lon="6.79">
        <ele>1896</ele>
        <time>2016-07-04T10:39:09.000Z</time>
      </trkpt>
      <trkpt lat="46.14788" lon="6.78999">
        <ele>1896</ele>
        <time>2016-07-04T10:39:10.000Z</time>
      </trkpt>
      <trkpt lat="46.14795" lon="6.78992">
        <ele>1894</ele>
        <time>2016-07-04T10:39:18.000Z</time>
      </trkpt>
      <trkpt lat="46.14796" lon="6.78991">
        <ele>1895</ele>
        <time>2016-07-04T10:39:19.000Z</time>
      </trkpt>
      <trkpt lat="46.14798" lon="6.7898">
        <ele>1894</ele>
        <time>2016-07-04T10:39:31.000Z</time>
      </trkpt>
      <trkpt lat="46.14797" lon="6.78978">
        <ele>1894</ele>
        <time>2016-07-04T10:39:32.000Z</time>
      </trkpt>
      <trkpt lat="46.14794" lon="6.78966">
        <ele>1889</ele>
        <time>2016-07-04T10:39:42.000Z</time>
      </trkpt>
      <trkpt lat="46.14794" lon="6.78965">
        <ele>1889</ele>
        <time>2016-07-04T10:39:43.000Z</time>
      </trkpt>
      <trkpt lat="46.14788" lon="6.78957">
        <ele>1886</ele>
        <time>2016-07-04T10:39:53.000Z</time>
      </trkpt>
      <trkpt lat="46.14787" lon="6.78957">
        <ele>1888</ele>
        <time>2016-07-04T10:39:54.000Z</time>
      </trkpt>
      <trkpt lat="46.1478" lon="6.7895">
        <ele>1887</ele>
        <time>2016-07-04T10:40:05.000Z</time>
      </trkpt>
      <trkpt lat="46.14779" lon="6.7895">
        <ele>1887</ele>
        <time>2016-07-04T10:40:06.000Z</time>
      </trkpt>
      <trkpt lat="46.14771" lon="6.78946">
        <ele>1885</ele>
        <time>2016-07-04T10:40:16.000Z</time>
      </trkpt>
      <trkpt lat="46.14769" lon="6.78947">
        <ele>1884</ele>
        <time>2016-07-04T10:40:17.000Z</time>
      </trkpt>
      <trkpt lat="46.14761" lon="6.78943">
        <ele>1881</ele>
        <time>2016-07-04T10:40:29.000Z</time>
      </trkpt>
      <trkpt lat="46.14761" lon="6.78944">
        <ele>1880</ele>
        <time>2016-07-04T10:40:30.000Z</time>
      </trkpt>
      <trkpt lat="46.14754" lon="6.78936">
        <ele>1877</ele>
        <time>2016-07-04T10:40:45.000Z</time>
      </trkpt>
      <trkpt lat="46.14753" lon="6.78936">
        <ele>1877</ele>
        <time>2016-07-04T10:40:46.000Z</time>
      </trkpt>
      <trkpt lat="46.14748" lon="6.78926">
        <ele>1878</ele>
        <time>2016-07-04T10:40:54.000Z</time>
      </trkpt>
      <trkpt lat="46.14747" lon="6.78924">
        <ele>1878</ele>
        <time>2016-07-04T10:40:55.000Z</time>
      </trkpt>
      <trkpt lat="46.14739" lon="6.78919">
        <ele>1877</ele>
        <time>2016-07-04T10:41:06.000Z</time>
      </trkpt>
      <trkpt lat="46.14739" lon="6.78917">
        <ele>1877</ele>
        <time>2016-07-04T10:41:07.000Z</time>
      </trkpt>
      <trkpt lat="46.14732" lon="6.7891">
        <ele>1875</ele>
        <time>2016-07-04T10:41:15.000Z</time>
      </trkpt>
      <trkpt lat="46.14731" lon="6.78909">
        <ele>1875</ele>
        <time>2016-07-04T10:41:16.000Z</time>
      </trkpt>
      <trkpt lat="46.14728" lon="6.78897">
        <ele>1873</ele>
        <time>2016-07-04T10:41:26.000Z</time>
      </trkpt>
      <trkpt lat="46.14727" lon="6.78896">
        <ele>1873</ele>
        <time>2016-07-04T10:41:27.000Z</time>
      </trkpt>
      <trkpt lat="46.14724" lon="6.78884">
        <ele>1873</ele>
        <time>2016-07-04T10:41:37.000Z</time>
      </trkpt>
      <trkpt lat="46.14723" lon="6.78884">
        <ele>1874</ele>
        <time>2016-07-04T10:41:38.000Z</time>
      </trkpt>
      <trkpt lat="46.14717" lon="6.78877">
        <ele>1869</ele>
        <time>2016-07-04T10:41:48.000Z</time>
      </trkpt>
      <trkpt lat="46.14716" lon="6.78877">
        <ele>1868</ele>
        <time>2016-07-04T10:41:49.000Z</time>
      </trkpt>
      <trkpt lat="46.14707" lon="6.78872">
        <ele>1867</ele>
        <time>2016-07-04T10:42:00.000Z</time>
      </trkpt>
      <trkpt lat="46.14707" lon="6.78875">
        <ele>1864</ele>
        <time>2016-07-04T10:42:01.000Z</time>
      </trkpt>
      <trkpt lat="46.14698" lon="6.78873">
        <ele>1863</ele>
        <time>2016-07-04T10:42:13.000Z</time>
      </trkpt>
      <trkpt lat="46.14698" lon="6.78873">
        <ele>1861</ele>
        <time>2016-07-04T10:42:14.000Z</time>
      </trkpt>
      <trkpt lat="46.14695" lon="6.78862">
        <ele>1858</ele>
        <time>2016-07-04T10:42:31.000Z</time>
      </trkpt>
      <trkpt lat="46.14695" lon="6.7886">
        <ele>1859</ele>
        <time>2016-07-04T10:42:32.000Z</time>
      </trkpt>
      <trkpt lat="46.14692" lon="6.78849">
        <ele>1858</ele>
        <time>2016-07-04T10:42:44.000Z</time>
      </trkpt>
      <trkpt lat="46.1469" lon="6.78849">
        <ele>1858</ele>
        <time>2016-07-04T10:42:45.000Z</time>
      </trkpt>
      <trkpt lat="46.14688" lon="6.78838">
        <ele>1854</ele>
        <time>2016-07-04T10:42:58.000Z</time>
      </trkpt>
      <trkpt lat="46.14687" lon="6.78836">
        <ele>1853</ele>
        <time>2016-07-04T10:42:59.000Z</time>
      </trkpt>
      <trkpt lat="46.14685" lon="6.78824">
        <ele>1853</ele>
        <time>2016-07-04T10:43:09.000Z</time>
      </trkpt>
      <trkpt lat="46.14684" lon="6.78822">
        <ele>1853</ele>
        <time>2016-07-04T10:43:10.000Z</time>
      </trkpt>
      <trkpt lat="46.14678" lon="6.78812">
        <ele>1849</ele>
        <time>2016-07-04T10:43:21.000Z</time>
      </trkpt>
      <trkpt lat="46.14678" lon="6.78811">
        <ele>1849</ele>
        <time>2016-07-04T10:43:22.000Z</time>
      </trkpt>
      <trkpt lat="46.1467" lon="6.78807">
        <ele>1846</ele>
        <time>2016-07-04T10:43:29.000Z</time>
      </trkpt>
      <trkpt lat="46.14669" lon="6.78807">
        <ele>1846</ele>
        <time>2016-07-04T10:43:30.000Z</time>
      </trkpt>
      <trkpt lat="46.14661" lon="6.78804">
        <ele>1846</ele>
        <time>2016-07-04T10:43:38.000Z</time>
      </trkpt>
      <trkpt lat="46.1466" lon="6.78804">
        <ele>1846</ele>
        <time>2016-07-04T10:43:39.000Z</time>
      </trkpt>
      <trkpt lat="46.14653" lon="6.78797">
        <ele>1842</ele>
        <time>2016-07-04T10:43:51.000Z</time>
      </trkpt>
      <trkpt lat="46.14652" lon="6.78797">
        <ele>1841</ele>
        <time>2016-07-04T10:43:52.000Z</time>
      </trkpt>
      <trkpt lat="46.14646" lon="6.78788">
        <ele>1841</ele>
        <time>2016-07-04T10:44:00.000Z</time>
      </trkpt>
      <trkpt lat="46.14646" lon="6.78786">
        <ele>1843</ele>
        <time>2016-07-04T10:44:01.000Z</time>
      </trkpt>
      <trkpt lat="46.14645" lon="6.78774">
        <ele>1838</ele>
        <time>2016-07-04T10:44:13.000Z</time>
      </trkpt>
      <trkpt lat="46.14647" lon="6.7877">
        <ele>1838</ele>
        <time>2016-07-04T10:44:14.000Z</time>
      </trkpt>
      <trkpt lat="46.1465" lon="6.78758">
        <ele>1839</ele>
        <time>2016-07-04T10:44:23.000Z</time>
      </trkpt>
      <trkpt lat="46.1465" lon="6.78757">
        <ele>1839</ele>
        <time>2016-07-04T10:44:24.000Z</time>
      </trkpt>
      <trkpt lat="46.14648" lon="6.78745">
        <ele>1838</ele>
        <time>2016-07-04T10:44:34.000Z</time>
      </trkpt>
      <trkpt lat="46.14648" lon="6.78743">
        <ele>1837</ele>
        <time>2016-07-04T10:44:35.000Z</time>
      </trkpt>
      <trkpt lat="46.14645" lon="6.78732">
        <ele>1832</ele>
        <time>2016-07-04T10:44:46.000Z</time>
      </trkpt>
      <trkpt lat="46.14646" lon="6.7873">
        <ele>1831</ele>
        <time>2016-07-04T10:44:47.000Z</time>
      </trkpt>
      <trkpt lat="46.1464" lon="6.78722">
        <ele>1828</ele>
        <time>2016-07-04T10:44:59.000Z</time>
      </trkpt>
      <trkpt lat="46.1464" lon="6.7872">
        <ele>1827</ele>
        <time>2016-07-04T10:45:00.000Z</time>
      </trkpt>
      <trkpt lat="46.14639" lon="6.78707">
        <ele>1828</ele>
        <time>2016-07-04T10:45:11.000Z</time>
      </trkpt>
      <trkpt lat="46.1464" lon="6.78705">
        <ele>1828</ele>
        <time>2016-07-04T10:45:12.000Z</time>
      </trkpt>
      <trkpt lat="46.14639" lon="6.78694">
        <ele>1827</ele>
        <time>2016-07-04T10:45:19.000Z</time>
      </trkpt>
      <trkpt lat="46.14639" lon="6.78691">
        <ele>1827</ele>
        <time>2016-07-04T10:45:20.000Z</time>
      </trkpt>
      <trkpt lat="46.14638" lon="6.78679">
        <ele>1824</ele>
        <time>2016-07-04T10:45:31.000Z</time>
      </trkpt>
      <trkpt lat="46.14638" lon="6.78678">
        <ele>1824</ele>
        <time>2016-07-04T10:45:32.000Z</time>
      </trkpt>
      <trkpt lat="46.14635" lon="6.78667">
        <ele>1815</ele>
        <time>2016-07-04T10:45:45.000Z</time>
      </trkpt>
      <trkpt lat="46.14635" lon="6.78665">
        <ele>1815</ele>
        <time>2016-07-04T10:45:46.000Z</time>
      </trkpt>
      <trkpt lat="46.14633" lon="6.78653">
        <ele>1814</ele>
        <time>2016-07-04T10:45:54.000Z</time>
      </trkpt>
      <trkpt lat="46.14633" lon="6.78651">
        <ele>1814</ele>
        <time>2016-07-04T10:45:55.000Z</time>
      </trkpt>
      <trkpt lat="46.14628" lon="6.7864">
        <ele>1814</ele>
        <time>2016-07-04T10:46:02.000Z</time>
      </trkpt>
      <trkpt lat="46.14629" lon="6.78638">
        <ele>1815</ele>
        <time>2016-07-04T10:46:03.000Z</time>
      </trkpt>
      <trkpt lat="46.14626" lon="6.78627">
        <ele>1811</ele>
        <time>2016-07-04T10:46:13.000Z</time>
      </trkpt>
      <trkpt lat="46.14626" lon="6.78625">
        <ele>1813</ele>
        <time>2016-07-04T10:46:14.000Z</time>
      </trkpt>
      <trkpt lat="46.14624" lon="6.78614">
        <ele>1815</ele>
        <time>2016-07-04T10:46:22.000Z</time>
      </trkpt>
      <trkpt lat="46.14623" lon="6.78612">
        <ele>1815</ele>
        <time>2016-07-04T10:46:23.000Z</time>
      </trkpt>
      <trkpt lat="46.1462" lon="6.78601">
        <ele>1811</ele>
        <time>2016-07-04T10:46:34.000Z</time>
      </trkpt>
      <trkpt lat="46.1462" lon="6.78598">
        <ele>1811</ele>
        <time>2016-07-04T10:46:35.000Z</time>
      </trkpt>
      <trkpt lat="46.14618" lon="6.78585">
        <ele>1807</ele>
        <time>2016-07-04T10:46:45.000Z</time>
      </trkpt>
      <trkpt lat="46.14618" lon="6.78585">
        <ele>1806</ele>
        <time>2016-07-04T10:46:46.000Z</time>
      </trkpt>
      <trkpt lat="46.14616" lon="6.78573">
        <ele>1801</ele>
        <time>2016-07-04T10:46:56.000Z</time>
      </trkpt>
      <trkpt lat="46.14616" lon="6.78571">
        <ele>1803</ele>
        <time>2016-07-04T10:46:57.000Z</time>
      </trkpt>
      <trkpt lat="46.14613" lon="6.78559">
        <ele>1801</ele>
        <time>2016-07-04T10:47:06.000Z</time>
      </trkpt>
      <trkpt lat="46.14613" lon="6.78557">
        <ele>1802</ele>
        <time>2016-07-04T10:47:07.000Z</time>
      </trkpt>
      <trkpt lat="46.1461" lon="6.78545">
        <ele>1804</ele>
        <time>2016-07-04T10:47:12.000Z</time>
      </trkpt>
      <trkpt lat="46.1461" lon="6.78544">
        <ele>1804</ele>
        <time>2016-07-04T10:47:13.000Z</time>
      </trkpt>
      <trkpt lat="46.14607" lon="6.78532">
        <ele>1805</ele>
        <time>2016-07-04T10:47:20.000Z</time>
      </trkpt>
      <trkpt lat="46.14606" lon="6.7853">
        <ele>1806</ele>
        <time>2016-07-04T10:47:21.000Z</time>
      </trkpt>
      <trkpt lat="46.14606" lon="6.78521">
        <ele>1802</ele>
        <time>2016-07-04T10:48:55.000Z</time>
      </trkpt>
      <trkpt lat="46.14606" lon="6.78521">
        <ele>1802</ele>
        <time>2016-07-04T10:48:56.000Z</time>
      </trkpt>
      <trkpt lat="46.1461" lon="6.78521">
        <ele>1809</ele>
        <time>2016-07-04T10:50:12.000Z</time>
      </trkpt>
      <trkpt lat="46.1461" lon="6.78521">
        <ele>1809</ele>
        <time>2016-07-04T10:50:13.000Z</time>
      </trkpt>
      <trkpt lat="46.14609" lon="6.78521">
        <ele>1801</ele>
        <time>2016-07-04T11:13:39.000Z</time>
      </trkpt>
      <trkpt lat="46.14609" lon="6.78521">
        <ele>1801</ele>
        <time>2016-07-04T11:13:40.000Z</time>
      </trkpt>
      <trkpt lat="46.1461" lon="6.78521">
        <ele>1799</ele>
        <time>2016-07-04T11:17:59.000Z</time>
      </trkpt>
      <trkpt lat="46.1461" lon="6.78521">
        <ele>1800</ele>
        <time>2016-07-04T11:18:00.000Z</time>
      </trkpt>
      <trkpt lat="46.1461" lon="6.78521">
        <ele>1807</ele>
        <time>2016-07-04T11:27:32.000Z</time>
      </trkpt>
      <trkpt lat="46.1461" lon="6.78521">
        <ele>1807</ele>
        <time>2016-07-04T11:27:33.000Z</time>
      </trkpt>
      <trkpt lat="46.1461" lon="6.78521">
        <ele>1806</ele>
        <time>2016-07-04T11:27:42.000Z</time>
      </trkpt>
      <trkpt lat="46.1461" lon="6.78521">
        <ele>1806</ele>
        <time>2016-07-04T11:27:43.000Z</time>
      </trkpt>
      <trkpt lat="46.14609" lon="6.78522">
        <ele>1805</ele>
        <time>2016-07-04T11:31:27.000Z</time>
      </trkpt>
      <trkpt lat="46.14609" lon="6.78522">
        <ele>1805</ele>
        <time>2016-07-04T11:31:28.000Z</time>
      </trkpt>
      <trkpt lat="46.1461" lon="6.78521">
        <ele>1802</ele>
        <time>2016-07-04T11:32:02.000Z</time>
      </trkpt>
      <trkpt lat="46.1461" lon="6.78521">
        <ele>1802</ele>
        <time>2016-07-04T11:32:03.000Z</time>
      </trkpt>
      <trkpt lat="46.1461" lon="6.78526">
        <ele>1802</ele>
        <time>2016-07-04T11:36:42.000Z</time>
      </trkpt>
      <trkpt lat="46.1461" lon="6.78526">
        <ele>1802</ele>
        <time>2016-07-04T11:36:43.000Z</time>
      </trkpt>
      <trkpt lat="46.14608" lon="6.78521">
        <ele>1806</ele>
        <time>2016-07-04T11:38:55.000Z</time>
      </trkpt>
      <trkpt lat="46.14608" lon="6.78521">
        <ele>1806</ele>
        <time>2016-07-04T11:38:56.000Z</time>
      </trkpt>
      <trkpt lat="46.14608" lon="6.78521">
        <ele>1806</ele>
        <time>2016-07-04T11:38:57.000Z</time>
      </trkpt>
      <trkpt lat="46.14609" lon="6.78525">
        <ele>1805</ele>
        <time>2016-07-04T11:38:58.000Z</time>
      </trkpt>
      <trkpt lat="46.1461" lon="6.78525">
        <ele>1805</ele>
        <time>2016-07-04T11:38:59.000Z</time>
      </trkpt>
      <trkpt lat="46.14608" lon="6.78521">
        <ele>1806</ele>
        <time>2016-07-04T11:41:57.000Z</time>
      </trkpt>
      <trkpt lat="46.14608" lon="6.78521">
        <ele>1806</ele>
        <time>2016-07-04T11:41:58.000Z</time>
      </trkpt>
      <trkpt lat="46.1461" lon="6.78521">
        <ele>1805</ele>
        <time>2016-07-04T11:42:49.000Z</time>
      </trkpt>
      <trkpt lat="46.1461" lon="6.78521">
        <ele>1805</ele>
        <time>2016-07-04T11:42:50.000Z</time>
      </trkpt>
      <trkpt lat="46.14612" lon="6.78533">
        <ele>1808</ele>
        <time>2016-07-04T11:44:53.000Z</time>
      </trkpt>
      <trkpt lat="46.14613" lon="6.78534">
        <ele>1809</ele>
        <time>2016-07-04T11:44:54.000Z</time>
      </trkpt>
      <trkpt lat="46.14611" lon="6.78546">
        <ele>1805</ele>
        <time>2016-07-04T11:45:04.000Z</time>
      </trkpt>
      <trkpt lat="46.14612" lon="6.78547">
        <ele>1806</ele>
        <time>2016-07-04T11:45:05.000Z</time>
      </trkpt>
      <trkpt lat="46.14618" lon="6.78539">
        <ele>1801</ele>
        <time>2016-07-04T11:45:18.000Z</time>
      </trkpt>
      <trkpt lat="46.14619" lon="6.78537">
        <ele>1802</ele>
        <time>2016-07-04T11:45:19.000Z</time>
      </trkpt>
      <trkpt lat="46.14619" lon="6.78526">
        <ele>1802</ele>
        <time>2016-07-04T11:45:28.000Z</time>
      </trkpt>
      <trkpt lat="46.14621" lon="6.78524">
        <ele>1803</ele>
        <time>2016-07-04T11:45:29.000Z</time>
      </trkpt>
      <trkpt lat="46.1462" lon="6.78512">
        <ele>1803</ele>
        <time>2016-07-04T11:45:37.000Z</time>
      </trkpt>
      <trkpt lat="46.14622" lon="6.7851">
        <ele>1805</ele>
        <time>2016-07-04T11:45:38.000Z</time>
      </trkpt>
      <trkpt lat="46.14621" lon="6.78497">
        <ele>1806</ele>
        <time>2016-07-04T11:45:45.000Z</time>
      </trkpt>
      <trkpt lat="46.14621" lon="6.78496">
        <ele>1805</ele>
        <time>2016-07-04T11:45:46.000Z</time>
      </trkpt>
      <trkpt lat="46.14614" lon="6.78486">
        <ele>1799</ele>
        <time>2016-07-04T11:45:54.000Z</time>
      </trkpt>
      <trkpt lat="46.14615" lon="6.78483">
        <ele>1801</ele>
        <time>2016-07-04T11:45:55.000Z</time>
      </trkpt>
      <trkpt lat="46.14609" lon="6.78473">
        <ele>1798</ele>
        <time>2016-07-04T11:46:04.000Z</time>
      </trkpt>
      <trkpt lat="46.1461" lon="6.78472">
        <ele>1799</ele>
        <time>2016-07-04T11:46:05.000Z</time>
      </trkpt>
      <trkpt lat="46.14606" lon="6.78461">
        <ele>1796</ele>
        <time>2016-07-04T11:46:14.000Z</time>
      </trkpt>
      <trkpt lat="46.14606" lon="6.78459">
        <ele>1796</ele>
        <time>2016-07-04T11:46:15.000Z</time>
      </trkpt>
      <trkpt lat="46.14603" lon="6.78449">
        <ele>1796</ele>
        <time>2016-07-04T11:46:22.000Z</time>
      </trkpt>
      <trkpt lat="46.14601" lon="6.78447">
        <ele>1795</ele>
        <time>2016-07-04T11:46:23.000Z</time>
      </trkpt>
      <trkpt lat="46.14596" lon="6.78438">
        <ele>1794</ele>
        <time>2016-07-04T11:46:30.000Z</time>
      </trkpt>
      <trkpt lat="46.14596" lon="6.78436">
        <ele>1794</ele>
        <time>2016-07-04T11:46:31.000Z</time>
      </trkpt>
      <trkpt lat="46.14596" lon="6.78423">
        <ele>1794</ele>
        <time>2016-07-04T11:46:39.000Z</time>
      </trkpt>
      <trkpt lat="46.14595" lon="6.78421">
        <ele>1795</ele>
        <time>2016-07-04T11:46:40.000Z</time>
      </trkpt>
      <trkpt lat="46.14589" lon="6.78411">
        <ele>1795</ele>
        <time>2016-07-04T11:46:51.000Z</time>
      </trkpt>
      <trkpt lat="46.14587" lon="6.78409">
        <ele>1794</ele>
        <time>2016-07-04T11:46:52.000Z</time>
      </trkpt>
      <trkpt lat="46.14581" lon="6.784">
        <ele>1788</ele>
        <time>2016-07-04T11:46:59.000Z</time>
      </trkpt>
      <trkpt lat="46.14579" lon="6.784">
        <ele>1788</ele>
        <time>2016-07-04T11:47:00.000Z</time>
      </trkpt>
      <trkpt lat="46.14577" lon="6.78388">
        <ele>1785</ele>
        <time>2016-07-04T11:47:07.000Z</time>
      </trkpt>
      <trkpt lat="46.14576" lon="6.78387">
        <ele>1785</ele>
        <time>2016-07-04T11:47:08.000Z</time>
      </trkpt>
      <trkpt lat="46.14571" lon="6.78378">
        <ele>1786</ele>
        <time>2016-07-04T11:47:18.000Z</time>
      </trkpt>
      <trkpt lat="46.1457" lon="6.78377">
        <ele>1785</ele>
        <time>2016-07-04T11:47:19.000Z</time>
      </trkpt>
      <trkpt lat="46.14562" lon="6.7838">
        <ele>1783</ele>
        <time>2016-07-04T11:47:25.000Z</time>
      </trkpt>
      <trkpt lat="46.1456" lon="6.78379">
        <ele>1782</ele>
        <time>2016-07-04T11:47:26.000Z</time>
      </trkpt>
      <trkpt lat="46.14551" lon="6.78381">
        <ele>1782</ele>
        <time>2016-07-04T11:47:37.000Z</time>
      </trkpt>
      <trkpt lat="46.1455" lon="6.78384">
        <ele>1783</ele>
        <time>2016-07-04T11:47:38.000Z</time>
      </trkpt>
      <trkpt lat="46.14549" lon="6.78372">
        <ele>1777</ele>
        <time>2016-07-04T11:47:52.000Z</time>
      </trkpt>
      <trkpt lat="46.1455" lon="6.78371">
        <ele>1776</ele>
        <time>2016-07-04T11:47:53.000Z</time>
      </trkpt>
      <trkpt lat="46.14552" lon="6.7836">
        <ele>1767</ele>
        <time>2016-07-04T11:48:04.000Z</time>
      </trkpt>
      <trkpt lat="46.14552" lon="6.78358">
        <ele>1766</ele>
        <time>2016-07-04T11:48:05.000Z</time>
      </trkpt>
      <trkpt lat="46.14547" lon="6.78349">
        <ele>1762</ele>
        <time>2016-07-04T11:48:14.000Z</time>
      </trkpt>
      <trkpt lat="46.14547" lon="6.78346">
        <ele>1763</ele>
        <time>2016-07-04T11:48:15.000Z</time>
      </trkpt>
      <trkpt lat="46.14548" lon="6.78334">
        <ele>1759</ele>
        <time>2016-07-04T11:48:26.000Z</time>
      </trkpt>
      <trkpt lat="46.14549" lon="6.78333">
        <ele>1759</ele>
        <time>2016-07-04T11:48:27.000Z</time>
      </trkpt>
      <trkpt lat="46.14542" lon="6.7833">
        <ele>1757</ele>
        <time>2016-07-04T11:48:33.000Z</time>
      </trkpt>
      <trkpt lat="46.1454" lon="6.7833">
        <ele>1757</ele>
        <time>2016-07-04T11:48:34.000Z</time>
      </trkpt>
      <trkpt lat="46.14531" lon="6.7833">
        <ele>1753</ele>
        <time>2016-07-04T11:48:42.000Z</time>
      </trkpt>
      <trkpt lat="46.1453" lon="6.78329">
        <ele>1753</ele>
        <time>2016-07-04T11:48:43.000Z</time>
      </trkpt>
      <trkpt lat="46.14522" lon="6.78328">
        <ele>1752</ele>
        <time>2016-07-04T11:48:52.000Z</time>
      </trkpt>
      <trkpt lat="46.1452" lon="6.78326">
        <ele>1754</ele>
        <time>2016-07-04T11:48:53.000Z</time>
      </trkpt>
      <trkpt lat="46.14522" lon="6.78313">
        <ele>1752</ele>
        <time>2016-07-04T11:49:06.000Z</time>
      </trkpt>
      <trkpt lat="46.14523" lon="6.78312">
        <ele>1752</ele>
        <time>2016-07-04T11:49:07.000Z</time>
      </trkpt>
      <trkpt lat="46.14525" lon="6.78301">
        <ele>1753</ele>
        <time>2016-07-04T11:49:12.000Z</time>
      </trkpt>
      <trkpt lat="46.14525" lon="6.78299">
        <ele>1753</ele>
        <time>2016-07-04T11:49:13.000Z</time>
      </trkpt>
      <trkpt lat="46.1453" lon="6.78288">
        <ele>1755</ele>
        <time>2016-07-04T11:49:19.000Z</time>
      </trkpt>
      <trkpt lat="46.1453" lon="6.78286">
        <ele>1754</ele>
        <time>2016-07-04T11:49:20.000Z</time>
      </trkpt>
      <trkpt lat="46.14537" lon="6.78289">
        <ele>1753</ele>
        <time>2016-07-04T11:49:31.000Z</time>
      </trkpt>
      <trkpt lat="46.14539" lon="6.7829">
        <ele>1754</ele>
        <time>2016-07-04T11:49:32.000Z</time>
      </trkpt>
      <trkpt lat="46.14547" lon="6.78296">
        <ele>1756</ele>
        <time>2016-07-04T11:49:38.000Z</time>
      </trkpt>
      <trkpt lat="46.14548" lon="6.78297">
        <ele>1756</ele>
        <time>2016-07-04T11:49:39.000Z</time>
      </trkpt>
      <trkpt lat="46.14555" lon="6.78299">
        <ele>1757</ele>
        <time>2016-07-04T11:49:43.000Z</time>
      </trkpt>
      <trkpt lat="46.14557" lon="6.78301">
        <ele>1758</ele>
        <time>2016-07-04T11:49:44.000Z</time>
      </trkpt>
      <trkpt lat="46.14565" lon="6.78305">
        <ele>1760</ele>
        <time>2016-07-04T11:49:50.000Z</time>
      </trkpt>
      <trkpt lat="46.14566" lon="6.78304">
        <ele>1760</ele>
        <time>2016-07-04T11:49:51.000Z</time>
      </trkpt>
      <trkpt lat="46.14573" lon="6.78297">
        <ele>1759</ele>
        <time>2016-07-04T11:49:57.000Z</time>
      </trkpt>
      <trkpt lat="46.14575" lon="6.78296">
        <ele>1760</ele>
        <time>2016-07-04T11:49:58.000Z</time>
      </trkpt>
      <trkpt lat="46.14575" lon="6.78283">
        <ele>1758</ele>
        <time>2016-07-04T11:50:06.000Z</time>
      </trkpt>
      <trkpt lat="46.14575" lon="6.78281">
        <ele>1759</ele>
        <time>2016-07-04T11:50:07.000Z</time>
      </trkpt>
      <trkpt lat="46.1457" lon="6.78271">
        <ele>1748</ele>
        <time>2016-07-04T11:50:13.000Z</time>
      </trkpt>
      <trkpt lat="46.1457" lon="6.78269">
        <ele>1747</ele>
        <time>2016-07-04T11:50:14.000Z</time>
      </trkpt>
      <trkpt lat="46.14577" lon="6.78262">
        <ele>1739</ele>
        <time>2016-07-04T11:50:27.000Z</time>
      </trkpt>
      <trkpt lat="46.14578" lon="6.78261">
        <ele>1739</ele>
        <time>2016-07-04T11:50:28.000Z</time>
      </trkpt>
      <trkpt lat="46.14585" lon="6.78254">
        <ele>1741</ele>
        <time>2016-07-04T11:50:35.000Z</time>
      </trkpt>
      <trkpt lat="46.14587" lon="6.78252">
        <ele>1741</ele>
        <time>2016-07-04T11:50:36.000Z</time>
      </trkpt>
      <trkpt lat="46.1459" lon="6.78242">
        <ele>1741</ele>
        <time>2016-07-04T11:50:43.000Z</time>
      </trkpt>
      <trkpt lat="46.1459" lon="6.7824">
        <ele>1740</ele>
        <time>2016-07-04T11:50:44.000Z</time>
      </trkpt>
      <trkpt lat="46.14586" lon="6.78228">
        <ele>1739</ele>
        <time>2016-07-04T11:50:50.000Z</time>
      </trkpt>
      <trkpt lat="46.14587" lon="6.78226">
        <ele>1739</ele>
        <time>2016-07-04T11:50:51.000Z</time>
      </trkpt>
      <trkpt lat="46.14578" lon="6.78224">
        <ele>1730</ele>
        <time>2016-07-04T11:51:01.000Z</time>
      </trkpt>
      <trkpt lat="46.14578" lon="6.78222">
        <ele>1730</ele>
        <time>2016-07-04T11:51:02.000Z</time>
      </trkpt>
      <trkpt lat="46.14574" lon="6.78213">
        <ele>1733</ele>
        <time>2016-07-04T11:51:07.000Z</time>
      </trkpt>
      <trkpt lat="46.1457" lon="6.78211">
        <ele>1732</ele>
        <time>2016-07-04T11:51:08.000Z</time>
      </trkpt>
      <trkpt lat="46.14564" lon="6.78204">
        <ele>1725</ele>
        <time>2016-07-04T11:51:20.000Z</time>
      </trkpt>
      <trkpt lat="46.14563" lon="6.78201">
        <ele>1724</ele>
        <time>2016-07-04T11:51:21.000Z</time>
      </trkpt>
      <trkpt lat="46.14556" lon="6.78193">
        <ele>1714</ele>
        <time>2016-07-04T11:51:29.000Z</time>
      </trkpt>
      <trkpt lat="46.14556" lon="6.78192">
        <ele>1714</ele>
        <time>2016-07-04T11:51:30.000Z</time>
      </trkpt>
      <trkpt lat="46.1455" lon="6.78183">
        <ele>1711</ele>
        <time>2016-07-04T11:51:44.000Z</time>
      </trkpt>
      <trkpt lat="46.1455" lon="6.78182">
        <ele>1711</ele>
        <time>2016-07-04T11:51:45.000Z</time>
      </trkpt>
      <trkpt lat="46.14547" lon="6.7817">
        <ele>1716</ele>
        <time>2016-07-04T11:51:54.000Z</time>
      </trkpt>
      <trkpt lat="46.14548" lon="6.78169">
        <ele>1717</ele>
        <time>2016-07-04T11:51:55.000Z</time>
      </trkpt>
      <trkpt lat="46.14557" lon="6.78167">
        <ele>1718</ele>
        <time>2016-07-04T11:52:06.000Z</time>
      </trkpt>
      <trkpt lat="46.14558" lon="6.78167">
        <ele>1717</ele>
        <time>2016-07-04T11:52:07.000Z</time>
      </trkpt>
      <trkpt lat="46.14558" lon="6.78155">
        <ele>1712</ele>
        <time>2016-07-04T11:52:27.000Z</time>
      </trkpt>
      <trkpt lat="46.14557" lon="6.78153">
        <ele>1711</ele>
        <time>2016-07-04T11:52:28.000Z</time>
      </trkpt>
      <trkpt lat="46.14554" lon="6.78141">
        <ele>1705</ele>
        <time>2016-07-04T11:52:38.000Z</time>
      </trkpt>
      <trkpt lat="46.14551" lon="6.78138">
        <ele>1701</ele>
        <time>2016-07-04T11:52:39.000Z</time>
      </trkpt>
      <trkpt lat="46.1455" lon="6.78133">
        <ele>1703</ele>
        <time>2016-07-04T11:52:46.000Z</time>
      </trkpt>
      <trkpt lat="46.1455" lon="6.78133">
        <ele>1703</ele>
        <time>2016-07-04T11:52:47.000Z</time>
      </trkpt>
      <trkpt lat="46.14549" lon="6.78132">
        <ele>1699</ele>
        <time>2016-07-04T11:52:48.000Z</time>
      </trkpt>
      <trkpt lat="46.14557" lon="6.78125">
        <ele>1706</ele>
        <time>2016-07-04T11:53:00.000Z</time>
      </trkpt>
      <trkpt lat="46.14557" lon="6.78125">
        <ele>1708</ele>
        <time>2016-07-04T11:53:01.000Z</time>
      </trkpt>
      <trkpt lat="46.14566" lon="6.78125">
        <ele>1711</ele>
        <time>2016-07-04T11:53:15.000Z</time>
      </trkpt>
      <trkpt lat="46.14567" lon="6.78126">
        <ele>1711</ele>
        <time>2016-07-04T11:53:16.000Z</time>
      </trkpt>
      <trkpt lat="46.14573" lon="6.78134">
        <ele>1713</ele>
        <time>2016-07-04T11:53:20.000Z</time>
      </trkpt>
      <trkpt lat="46.14574" lon="6.78135">
        <ele>1713</ele>
        <time>2016-07-04T11:53:21.000Z</time>
      </trkpt>
      <trkpt lat="46.1458" lon="6.78143">
        <ele>1715</ele>
        <time>2016-07-04T11:53:27.000Z</time>
      </trkpt>
      <trkpt lat="46.14581" lon="6.78144">
        <ele>1715</ele>
        <time>2016-07-04T11:53:28.000Z</time>
      </trkpt>
      <trkpt lat="46.14589" lon="6.78151">
        <ele>1712</ele>
        <time>2016-07-04T11:53:40.000Z</time>
      </trkpt>
      <trkpt lat="46.14589" lon="6.78153">
        <ele>1712</ele>
        <time>2016-07-04T11:53:41.000Z</time>
      </trkpt>
      <trkpt lat="46.14597" lon="6.78156">
        <ele>1713</ele>
        <time>2016-07-04T11:53:52.000Z</time>
      </trkpt>
      <trkpt lat="46.14599" lon="6.78156">
        <ele>1711</ele>
        <time>2016-07-04T11:53:53.000Z</time>
      </trkpt>
      <trkpt lat="46.14599" lon="6.78145">
        <ele>1700</ele>
        <time>2016-07-04T11:54:00.000Z</time>
      </trkpt>
      <trkpt lat="46.14598" lon="6.78143">
        <ele>1698</ele>
        <time>2016-07-04T11:54:01.000Z</time>
      </trkpt>
      <trkpt lat="46.14598" lon="6.78139">
        <ele>1698</ele>
        <time>2016-07-04T11:54:06.000Z</time>
      </trkpt>
      <trkpt lat="46.14599" lon="6.78139">
        <ele>1699</ele>
        <time>2016-07-04T11:54:07.000Z</time>
      </trkpt>
      <trkpt lat="46.14599" lon="6.78136">
        <ele>1699</ele>
        <time>2016-07-04T11:54:08.000Z</time>
      </trkpt>
      <trkpt lat="46.14602" lon="6.78124">
        <ele>1696</ele>
        <time>2016-07-04T11:54:14.000Z</time>
      </trkpt>
      <trkpt lat="46.146" lon="6.78123">
        <ele>1695</ele>
        <time>2016-07-04T11:54:15.000Z</time>
      </trkpt>
      <trkpt lat="46.14599" lon="6.78111">
        <ele>1696</ele>
        <time>2016-07-04T11:54:19.000Z</time>
      </trkpt>
      <trkpt lat="46.14599" lon="6.78109">
        <ele>1694</ele>
        <time>2016-07-04T11:54:20.000Z</time>
      </trkpt>
      <trkpt lat="46.14605" lon="6.781">
        <ele>1693</ele>
        <time>2016-07-04T11:54:30.000Z</time>
      </trkpt>
      <trkpt lat="46.14608" lon="6.78098">
        <ele>1695</ele>
        <time>2016-07-04T11:54:31.000Z</time>
      </trkpt>
      <trkpt lat="46.14609" lon="6.78085">
        <ele>1695</ele>
        <time>2016-07-04T11:54:37.000Z</time>
      </trkpt>
      <trkpt lat="46.1461" lon="6.78085">
        <ele>1695</ele>
        <time>2016-07-04T11:54:38.000Z</time>
      </trkpt>
      <trkpt lat="46.14606" lon="6.78075">
        <ele>1696</ele>
        <time>2016-07-04T11:54:48.000Z</time>
      </trkpt>
      <trkpt lat="46.14604" lon="6.78074">
        <ele>1694</ele>
        <time>2016-07-04T11:54:49.000Z</time>
      </trkpt>
      <trkpt lat="46.14599" lon="6.78064">
        <ele>1692</ele>
        <time>2016-07-04T11:54:54.000Z</time>
      </trkpt>
      <trkpt lat="46.14596" lon="6.78064">
        <ele>1689</ele>
        <time>2016-07-04T11:54:55.000Z</time>
      </trkpt>
      <trkpt lat="46.14589" lon="6.78056">
        <ele>1678</ele>
        <time>2016-07-04T11:55:07.000Z</time>
      </trkpt>
      <trkpt lat="46.14588" lon="6.78056">
        <ele>1678</ele>
        <time>2016-07-04T11:55:08.000Z</time>
      </trkpt>
      <trkpt lat="46.1458" lon="6.78052">
        <ele>1671</ele>
        <time>2016-07-04T11:55:15.000Z</time>
      </trkpt>
      <trkpt lat="46.14579" lon="6.78051">
        <ele>1670</ele>
        <time>2016-07-04T11:55:16.000Z</time>
      </trkpt>
      <trkpt lat="46.14572" lon="6.78048">
        <ele>1666</ele>
        <time>2016-07-04T11:55:21.000Z</time>
      </trkpt>
      <trkpt lat="46.1457" lon="6.78045">
        <ele>1666</ele>
        <time>2016-07-04T11:55:22.000Z</time>
      </trkpt>
      <trkpt lat="46.14563" lon="6.78039">
        <ele>1664</ele>
        <time>2016-07-04T11:55:31.000Z</time>
      </trkpt>
      <trkpt lat="46.14562" lon="6.78038">
        <ele>1663</ele>
        <time>2016-07-04T11:55:32.000Z</time>
      </trkpt>
      <trkpt lat="46.14554" lon="6.78033">
        <ele>1661</ele>
        <time>2016-07-04T11:55:40.000Z</time>
      </trkpt>
      <trkpt lat="46.14553" lon="6.78032">
        <ele>1661</ele>
        <time>2016-07-04T11:55:41.000Z</time>
      </trkpt>
      <trkpt lat="46.14547" lon="6.78023">
        <ele>1665</ele>
        <time>2016-07-04T11:55:47.000Z</time>
      </trkpt>
      <trkpt lat="46.14547" lon="6.78021">
        <ele>1665</ele>
        <time>2016-07-04T11:55:48.000Z</time>
      </trkpt>
      <trkpt lat="46.1454" lon="6.78013">
        <ele>1662</ele>
        <time>2016-07-04T11:55:56.000Z</time>
      </trkpt>
      <trkpt lat="46.14539" lon="6.78012">
        <ele>1663</ele>
        <time>2016-07-04T11:55:57.000Z</time>
      </trkpt>
      <trkpt lat="46.14543" lon="6.78003">
        <ele>1665</ele>
        <time>2016-07-04T11:56:04.000Z</time>
      </trkpt>
      <trkpt lat="46.14546" lon="6.78002">
        <ele>1668</ele>
        <time>2016-07-04T11:56:05.000Z</time>
      </trkpt>
      <trkpt lat="46.14549" lon="6.77992">
        <ele>1671</ele>
        <time>2016-07-04T11:56:14.000Z</time>
      </trkpt>
      <trkpt lat="46.14551" lon="6.77989">
        <ele>1672</ele>
        <time>2016-07-04T11:56:15.000Z</time>
      </trkpt>
      <trkpt lat="46.14559" lon="6.77984">
        <ele>1672</ele>
        <time>2016-07-04T11:56:21.000Z</time>
      </trkpt>
      <trkpt lat="46.1456" lon="6.77983">
        <ele>1673</ele>
        <time>2016-07-04T11:56:22.000Z</time>
      </trkpt>
      <trkpt lat="46.14569" lon="6.77985">
        <ele>1663</ele>
        <time>2016-07-04T11:56:44.000Z</time>
      </trkpt>
      <trkpt lat="46.1457" lon="6.77985">
        <ele>1662</ele>
        <time>2016-07-04T11:56:45.000Z</time>
      </trkpt>
      <trkpt lat="46.14578" lon="6.77989">
        <ele>1660</ele>
        <time>2016-07-04T11:56:51.000Z</time>
      </trkpt>
      <trkpt lat="46.14579" lon="6.7799">
        <ele>1661</ele>
        <time>2016-07-04T11:56:52.000Z</time>
      </trkpt>
      <trkpt lat="46.14585" lon="6.78">
        <ele>1656</ele>
        <time>2016-07-04T11:57:09.000Z</time>
      </trkpt>
      <trkpt lat="46.14585" lon="6.78">
        <ele>1656</ele>
        <time>2016-07-04T11:57:10.000Z</time>
      </trkpt>
      <trkpt lat="46.14594" lon="6.77997">
        <ele>1656</ele>
        <time>2016-07-04T11:57:30.000Z</time>
      </trkpt>
      <trkpt lat="46.14596" lon="6.77996">
        <ele>1657</ele>
        <time>2016-07-04T11:57:31.000Z</time>
      </trkpt>
      <trkpt lat="46.14604" lon="6.77995">
        <ele>1658</ele>
        <time>2016-07-04T11:57:36.000Z</time>
      </trkpt>
      <trkpt lat="46.14606" lon="6.77995">
        <ele>1659</ele>
        <time>2016-07-04T11:57:37.000Z</time>
      </trkpt>
      <trkpt lat="46.14598" lon="6.77994">
        <ele>1649</ele>
        <time>2016-07-04T11:58:51.000Z</time>
      </trkpt>
      <trkpt lat="46.14597" lon="6.77992">
        <ele>1649</ele>
        <time>2016-07-04T11:58:52.000Z</time>
      </trkpt>
      <trkpt lat="46.14592" lon="6.77983">
        <ele>1645</ele>
        <time>2016-07-04T11:58:58.000Z</time>
      </trkpt>
      <trkpt lat="46.14591" lon="6.7798">
        <ele>1645</ele>
        <time>2016-07-04T11:58:59.000Z</time>
      </trkpt>
      <trkpt lat="46.14588" lon="6.77969">
        <ele>1644</ele>
        <time>2016-07-04T11:59:12.000Z</time>
      </trkpt>
      <trkpt lat="46.14586" lon="6.77968">
        <ele>1644</ele>
        <time>2016-07-04T11:59:13.000Z</time>
      </trkpt>
      <trkpt lat="46.14585" lon="6.77956">
        <ele>1648</ele>
        <time>2016-07-04T11:59:29.000Z</time>
      </trkpt>
      <trkpt lat="46.14583" lon="6.77953">
        <ele>1647</ele>
        <time>2016-07-04T11:59:30.000Z</time>
      </trkpt>
      <trkpt lat="46.14578" lon="6.77942">
        <ele>1643</ele>
        <time>2016-07-04T11:59:33.000Z</time>
      </trkpt>
      <trkpt lat="46.14573" lon="6.77941">
        <ele>1640</ele>
        <time>2016-07-04T11:59:34.000Z</time>
      </trkpt>
      <trkpt lat="46.14565" lon="6.77935">
        <ele>1633</ele>
        <time>2016-07-04T11:59:40.000Z</time>
      </trkpt>
      <trkpt lat="46.14564" lon="6.77934">
        <ele>1632</ele>
        <time>2016-07-04T11:59:41.000Z</time>
      </trkpt>
      <trkpt lat="46.14558" lon="6.77926">
        <ele>1629</ele>
        <time>2016-07-04T11:59:54.000Z</time>
      </trkpt>
      <trkpt lat="46.14556" lon="6.77923">
        <ele>1628</ele>
        <time>2016-07-04T11:59:55.000Z</time>
      </trkpt>
      <trkpt lat="46.1455" lon="6.77917">
        <ele>1625</ele>
        <time>2016-07-04T12:00:00.000Z</time>
      </trkpt>
      <trkpt lat="46.14548" lon="6.77916">
        <ele>1625</ele>
        <time>2016-07-04T12:00:01.000Z</time>
      </trkpt>
      <trkpt lat="46.14544" lon="6.77907">
        <ele>1626</ele>
        <time>2016-07-04T12:00:06.000Z</time>
      </trkpt>
      <trkpt lat="46.14541" lon="6.77903">
        <ele>1624</ele>
        <time>2016-07-04T12:00:07.000Z</time>
      </trkpt>
      <trkpt lat="46.14534" lon="6.77897">
        <ele>1624</ele>
        <time>2016-07-04T12:00:12.000Z</time>
      </trkpt>
      <trkpt lat="46.14532" lon="6.77896">
        <ele>1623</ele>
        <time>2016-07-04T12:00:13.000Z</time>
      </trkpt>
      <trkpt lat="46.14524" lon="6.77895">
        <ele>1622</ele>
        <time>2016-07-04T12:00:19.000Z</time>
      </trkpt>
      <trkpt lat="46.14522" lon="6.77895">
        <ele>1623</ele>
        <time>2016-07-04T12:00:20.000Z</time>
      </trkpt>
      <trkpt lat="46.14514" lon="6.77896">
        <ele>1621</ele>
        <time>2016-07-04T12:00:26.000Z</time>
      </trkpt>
      <trkpt lat="46.14512" lon="6.77897">
        <ele>1620</ele>
        <time>2016-07-04T12:00:27.000Z</time>
      </trkpt>
      <trkpt lat="46.14504" lon="6.77896">
        <ele>1620</ele>
        <time>2016-07-04T12:00:33.000Z</time>
      </trkpt>
      <trkpt lat="46.14503" lon="6.77896">
        <ele>1619</ele>
        <time>2016-07-04T12:00:34.000Z</time>
      </trkpt>
      <trkpt lat="46.14498" lon="6.77905">
        <ele>1620</ele>
        <time>2016-07-04T12:00:42.000Z</time>
      </trkpt>
      <trkpt lat="46.14496" lon="6.77905">
        <ele>1623</ele>
        <time>2016-07-04T12:00:43.000Z</time>
      </trkpt>
      <trkpt lat="46.1449" lon="6.77911">
        <ele>1624</ele>
        <time>2016-07-04T12:00:50.000Z</time>
      </trkpt>
      <trkpt lat="46.14488" lon="6.77911">
        <ele>1623</ele>
        <time>2016-07-04T12:00:51.000Z</time>
      </trkpt>
      <trkpt lat="46.1448" lon="6.77911">
        <ele>1624</ele>
        <time>2016-07-04T12:00:58.000Z</time>
      </trkpt>
      <trkpt lat="46.14477" lon="6.77914">
        <ele>1623</ele>
        <time>2016-07-04T12:00:59.000Z</time>
      </trkpt>
      <trkpt lat="46.14473" lon="6.77922">
        <ele>1616</ele>
        <time>2016-07-04T12:01:07.000Z</time>
      </trkpt>
      <trkpt lat="46.14471" lon="6.77922">
        <ele>1616</ele>
        <time>2016-07-04T12:01:08.000Z</time>
      </trkpt>
      <trkpt lat="46.14466" lon="6.77932">
        <ele>1609</ele>
        <time>2016-07-04T12:01:19.000Z</time>
      </trkpt>
      <trkpt lat="46.14464" lon="6.77933">
        <ele>1610</ele>
        <time>2016-07-04T12:01:20.000Z</time>
      </trkpt>
      <trkpt lat="46.14459" lon="6.77942">
        <ele>1609</ele>
        <time>2016-07-04T12:01:26.000Z</time>
      </trkpt>
      <trkpt lat="46.14458" lon="6.77943">
        <ele>1609</ele>
        <time>2016-07-04T12:01:27.000Z</time>
      </trkpt>
      <trkpt lat="46.14454" lon="6.77954">
        <ele>1611</ele>
        <time>2016-07-04T12:01:34.000Z</time>
      </trkpt>
      <trkpt lat="46.14454" lon="6.77956">
        <ele>1611</ele>
        <time>2016-07-04T12:01:35.000Z</time>
      </trkpt>
      <trkpt lat="46.14449" lon="6.77967">
        <ele>1615</ele>
        <time>2016-07-04T12:01:42.000Z</time>
      </trkpt>
      <trkpt lat="46.14447" lon="6.77967">
        <ele>1616</ele>
        <time>2016-07-04T12:01:43.000Z</time>
      </trkpt>
      <trkpt lat="46.14443" lon="6.77979">
        <ele>1615</ele>
        <time>2016-07-04T12:01:50.000Z</time>
      </trkpt>
      <trkpt lat="46.14443" lon="6.77981">
        <ele>1614</ele>
        <time>2016-07-04T12:01:51.000Z</time>
      </trkpt>
      <trkpt lat="46.14435" lon="6.77988">
        <ele>1612</ele>
        <time>2016-07-04T12:01:58.000Z</time>
      </trkpt>
      <trkpt lat="46.14435" lon="6.77989">
        <ele>1611</ele>
        <time>2016-07-04T12:01:59.000Z</time>
      </trkpt>
      <trkpt lat="46.1443" lon="6.77997">
        <ele>1610</ele>
        <time>2016-07-04T12:02:05.000Z</time>
      </trkpt>
      <trkpt lat="46.14428" lon="6.77998">
        <ele>1610</ele>
        <time>2016-07-04T12:02:06.000Z</time>
      </trkpt>
      <trkpt lat="46.1443" lon="6.77986">
        <ele>1609</ele>
        <time>2016-07-04T12:02:14.000Z</time>
      </trkpt>
      <trkpt lat="46.1443" lon="6.77983">
        <ele>1610</ele>
        <time>2016-07-04T12:02:15.000Z</time>
      </trkpt>
      <trkpt lat="46.14436" lon="6.77977">
        <ele>1611</ele>
        <time>2016-07-04T12:02:20.000Z</time>
      </trkpt>
      <trkpt lat="46.14438" lon="6.77977">
        <ele>1611</ele>
        <time>2016-07-04T12:02:21.000Z</time>
      </trkpt>
      <trkpt lat="46.14442" lon="6.77966">
        <ele>1611</ele>
        <time>2016-07-04T12:02:28.000Z</time>
      </trkpt>
      <trkpt lat="46.14442" lon="6.77964">
        <ele>1611</ele>
        <time>2016-07-04T12:02:29.000Z</time>
      </trkpt>
      <trkpt lat="46.14444" lon="6.77952">
        <ele>1616</ele>
        <time>2016-07-04T12:02:37.000Z</time>
      </trkpt>
      <trkpt lat="46.14444" lon="6.77951">
        <ele>1617</ele>
        <time>2016-07-04T12:02:38.000Z</time>
      </trkpt>
      <trkpt lat="46.14443" lon="6.77938">
        <ele>1617</ele>
        <time>2016-07-04T12:02:46.000Z</time>
      </trkpt>
      <trkpt lat="46.14444" lon="6.77936">
        <ele>1616</ele>
        <time>2016-07-04T12:02:47.000Z</time>
      </trkpt>
      <trkpt lat="46.14443" lon="6.77925">
        <ele>1617</ele>
        <time>2016-07-04T12:02:52.000Z</time>
      </trkpt>
      <trkpt lat="46.14444" lon="6.77922">
        <ele>1619</ele>
        <time>2016-07-04T12:02:53.000Z</time>
      </trkpt>
      <trkpt lat="46.14443" lon="6.7791">
        <ele>1618</ele>
        <time>2016-07-04T12:03:00.000Z</time>
      </trkpt>
      <trkpt lat="46.14441" lon="6.77909">
        <ele>1617</ele>
        <time>2016-07-04T12:03:01.000Z</time>
      </trkpt>
      <trkpt lat="46.14447" lon="6.77902">
        <ele>1616</ele>
        <time>2016-07-04T12:03:08.000Z</time>
      </trkpt>
      <trkpt lat="46.14449" lon="6.77901">
        <ele>1617</ele>
        <time>2016-07-04T12:03:09.000Z</time>
      </trkpt>
      <trkpt lat="46.14451" lon="6.77888">
        <ele>1610</ele>
        <time>2016-07-04T12:03:18.000Z</time>
      </trkpt>
      <trkpt lat="46.1445" lon="6.77887">
        <ele>1611</ele>
        <time>2016-07-04T12:03:19.000Z</time>
      </trkpt>
      <trkpt lat="46.14457" lon="6.77879">
        <ele>1609</ele>
        <time>2016-07-04T12:03:27.000Z</time>
      </trkpt>
      <trkpt lat="46.14458" lon="6.77877">
        <ele>1609</ele>
        <time>2016-07-04T12:03:28.000Z</time>
      </trkpt>
      <trkpt lat="46.14462" lon="6.77866">
        <ele>1606</ele>
        <time>2016-07-04T12:03:38.000Z</time>
      </trkpt>
      <trkpt lat="46.14462" lon="6.77865">
        <ele>1606</ele>
        <time>2016-07-04T12:03:39.000Z</time>
      </trkpt>
      <trkpt lat="46.14467" lon="6.77856">
        <ele>1609</ele>
        <time>2016-07-04T12:03:45.000Z</time>
      </trkpt>
      <trkpt lat="46.14467" lon="6.77853">
        <ele>1609</ele>
        <time>2016-07-04T12:03:46.000Z</time>
      </trkpt>
      <trkpt lat="46.14473" lon="6.77845">
        <ele>1613</ele>
        <time>2016-07-04T12:03:51.000Z</time>
      </trkpt>
      <trkpt lat="46.14474" lon="6.77844">
        <ele>1613</ele>
        <time>2016-07-04T12:03:52.000Z</time>
      </trkpt>
      <trkpt lat="46.14477" lon="6.77832">
        <ele>1609</ele>
        <time>2016-07-04T12:04:01.000Z</time>
      </trkpt>
      <trkpt lat="46.14477" lon="6.7783">
        <ele>1611</ele>
        <time>2016-07-04T12:04:02.000Z</time>
      </trkpt>
      <trkpt lat="46.14478" lon="6.7782">
        <ele>1607</ele>
        <time>2016-07-04T12:04:09.000Z</time>
      </trkpt>
      <trkpt lat="46.14479" lon="6.77817">
        <ele>1609</ele>
        <time>2016-07-04T12:04:10.000Z</time>
      </trkpt>
      <trkpt lat="46.14487" lon="6.77814">
        <ele>1608</ele>
        <time>2016-07-04T12:04:16.000Z</time>
      </trkpt>
      <trkpt lat="46.14488" lon="6.77812">
        <ele>1608</ele>
        <time>2016-07-04T12:04:17.000Z</time>
      </trkpt>
      <trkpt lat="46.14491" lon="6.77801">
        <ele>1608</ele>
        <time>2016-07-04T12:04:25.000Z</time>
      </trkpt>
      <trkpt lat="46.14492" lon="6.778">
        <ele>1609</ele>
        <time>2016-07-04T12:04:26.000Z</time>
      </trkpt>
      <trkpt lat="46.14485" lon="6.77796">
        <ele>1603</ele>
        <time>2016-07-04T12:04:29.000Z</time>
      </trkpt>
      <trkpt lat="46.14484" lon="6.77796">
        <ele>1603</ele>
        <time>2016-07-04T12:04:30.000Z</time>
      </trkpt>
      <trkpt lat="46.14475" lon="6.77797">
        <ele>1598</ele>
        <time>2016-07-04T12:04:37.000Z</time>
      </trkpt>
      <trkpt lat="46.14474" lon="6.77799">
        <ele>1597</ele>
        <time>2016-07-04T12:04:38.000Z</time>
      </trkpt>
      <trkpt lat="46.14466" lon="6.77803">
        <ele>1596</ele>
        <time>2016-07-04T12:04:45.000Z</time>
      </trkpt>
      <trkpt lat="46.14465" lon="6.77804">
        <ele>1595</ele>
        <time>2016-07-04T12:04:46.000Z</time>
      </trkpt>
      <trkpt lat="46.14459" lon="6.77812">
        <ele>1592</ele>
        <time>2016-07-04T12:04:53.000Z</time>
      </trkpt>
      <trkpt lat="46.14458" lon="6.77814">
        <ele>1592</ele>
        <time>2016-07-04T12:04:54.000Z</time>
      </trkpt>
      <trkpt lat="46.14451" lon="6.77821">
        <ele>1591</ele>
        <time>2016-07-04T12:05:00.000Z</time>
      </trkpt>
      <trkpt lat="46.1445" lon="6.77822">
        <ele>1591</ele>
        <time>2016-07-04T12:05:01.000Z</time>
      </trkpt>
      <trkpt lat="46.14445" lon="6.77832">
        <ele>1588</ele>
        <time>2016-07-04T12:05:07.000Z</time>
      </trkpt>
      <trkpt lat="46.14444" lon="6.77833">
        <ele>1588</ele>
        <time>2016-07-04T12:05:08.000Z</time>
      </trkpt>
      <trkpt lat="46.14438" lon="6.77841">
        <ele>1587</ele>
        <time>2016-07-04T12:05:17.000Z</time>
      </trkpt>
      <trkpt lat="46.14437" lon="6.77844">
        <ele>1586</ele>
        <time>2016-07-04T12:05:18.000Z</time>
      </trkpt>
      <trkpt lat="46.14431" lon="6.77853">
        <ele>1589</ele>
        <time>2016-07-04T12:05:26.000Z</time>
      </trkpt>
      <trkpt lat="46.14431" lon="6.77853">
        <ele>1590</ele>
        <time>2016-07-04T12:05:27.000Z</time>
      </trkpt>
      <trkpt lat="46.14422" lon="6.77858">
        <ele>1590</ele>
        <time>2016-07-04T12:05:34.000Z</time>
      </trkpt>
      <trkpt lat="46.14421" lon="6.77858">
        <ele>1589</ele>
        <time>2016-07-04T12:05:35.000Z</time>
      </trkpt>
      <trkpt lat="46.14416" lon="6.77865">
        <ele>1587</ele>
        <time>2016-07-04T12:05:41.000Z</time>
      </trkpt>
      <trkpt lat="46.14415" lon="6.77868">
        <ele>1586</ele>
        <time>2016-07-04T12:05:42.000Z</time>
      </trkpt>
      <trkpt lat="46.14409" lon="6.77872">
        <ele>1588</ele>
        <time>2016-07-04T12:05:48.000Z</time>
      </trkpt>
      <trkpt lat="46.14409" lon="6.77871">
        <ele>1587</ele>
        <time>2016-07-04T12:05:49.000Z</time>
      </trkpt>
      <trkpt lat="46.14409" lon="6.77872">
        <ele>1586</ele>
        <time>2016-07-04T12:05:50.000Z</time>
      </trkpt>
      <trkpt lat="46.14402" lon="6.77878">
        <ele>1582</ele>
        <time>2016-07-04T12:05:57.000Z</time>
      </trkpt>
      <trkpt lat="46.14401" lon="6.77879">
        <ele>1582</ele>
        <time>2016-07-04T12:05:58.000Z</time>
      </trkpt>
      <trkpt lat="46.14395" lon="6.77888">
        <ele>1583</ele>
        <time>2016-07-04T12:06:09.000Z</time>
      </trkpt>
      <trkpt lat="46.14394" lon="6.77889">
        <ele>1583</ele>
        <time>2016-07-04T12:06:10.000Z</time>
      </trkpt>
      <trkpt lat="46.14392" lon="6.77893">
        <ele>1584</ele>
        <time>2016-07-04T12:06:13.000Z</time>
      </trkpt>
      <trkpt lat="46.14393" lon="6.77893">
        <ele>1581</ele>
        <time>2016-07-04T12:06:14.000Z</time>
      </trkpt>
      <trkpt lat="46.14391" lon="6.77894">
        <ele>1581</ele>
        <time>2016-07-04T12:06:15.000Z</time>
      </trkpt>
      <trkpt lat="46.14385" lon="6.77903">
        <ele>1576</ele>
        <time>2016-07-04T12:06:23.000Z</time>
      </trkpt>
      <trkpt lat="46.14385" lon="6.77904">
        <ele>1577</ele>
        <time>2016-07-04T12:06:24.000Z</time>
      </trkpt>
      <trkpt lat="46.14377" lon="6.7791">
        <ele>1580</ele>
        <time>2016-07-04T12:06:34.000Z</time>
      </trkpt>
      <trkpt lat="46.14376" lon="6.77911">
        <ele>1581</ele>
        <time>2016-07-04T12:06:35.000Z</time>
      </trkpt>
      <trkpt lat="46.14368" lon="6.77913">
        <ele>1582</ele>
        <time>2016-07-04T12:06:41.000Z</time>
      </trkpt>
      <trkpt lat="46.14368" lon="6.77915">
        <ele>1583</ele>
        <time>2016-07-04T12:06:42.000Z</time>
      </trkpt>
      <trkpt lat="46.14362" lon="6.77923">
        <ele>1583</ele>
        <time>2016-07-04T12:06:49.000Z</time>
      </trkpt>
      <trkpt lat="46.14361" lon="6.77925">
        <ele>1583</ele>
        <time>2016-07-04T12:06:50.000Z</time>
      </trkpt>
      <trkpt lat="46.14354" lon="6.77932">
        <ele>1573</ele>
        <time>2016-07-04T12:07:01.000Z</time>
      </trkpt>
      <trkpt lat="46.14353" lon="6.77932">
        <ele>1573</ele>
        <time>2016-07-04T12:07:02.000Z</time>
      </trkpt>
      <trkpt lat="46.14345" lon="6.77932">
        <ele>1577</ele>
        <time>2016-07-04T12:07:08.000Z</time>
      </trkpt>
      <trkpt lat="46.14343" lon="6.77932">
        <ele>1576</ele>
        <time>2016-07-04T12:07:09.000Z</time>
      </trkpt>
      <trkpt lat="46.14339" lon="6.77943">
        <ele>1575</ele>
        <time>2016-07-04T12:07:19.000Z</time>
      </trkpt>
      <trkpt lat="46.14338" lon="6.77943">
        <ele>1575</ele>
        <time>2016-07-04T12:07:20.000Z</time>
      </trkpt>
      <trkpt lat="46.14336" lon="6.77955">
        <ele>1575</ele>
        <time>2016-07-04T12:07:33.000Z</time>
      </trkpt>
      <trkpt lat="46.14338" lon="6.77956">
        <ele>1572</ele>
        <time>2016-07-04T12:07:34.000Z</time>
      </trkpt>
      <trkpt lat="46.14335" lon="6.77966">
        <ele>1568</ele>
        <time>2016-07-04T12:07:42.000Z</time>
      </trkpt>
      <trkpt lat="46.14333" lon="6.77969">
        <ele>1568</ele>
        <time>2016-07-04T12:07:43.000Z</time>
      </trkpt>
      <trkpt lat="46.14326" lon="6.77977">
        <ele>1573</ele>
        <time>2016-07-04T12:07:51.000Z</time>
      </trkpt>
      <trkpt lat="46.14325" lon="6.77975">
        <ele>1573</ele>
        <time>2016-07-04T12:07:52.000Z</time>
      </trkpt>
      <trkpt lat="46.14316" lon="6.77976">
        <ele>1569</ele>
        <time>2016-07-04T12:08:00.000Z</time>
      </trkpt>
      <trkpt lat="46.14315" lon="6.77977">
        <ele>1569</ele>
        <time>2016-07-04T12:08:01.000Z</time>
      </trkpt>
      <trkpt lat="46.14309" lon="6.77986">
        <ele>1570</ele>
        <time>2016-07-04T12:08:10.000Z</time>
      </trkpt>
      <trkpt lat="46.14308" lon="6.7799">
        <ele>1569</ele>
        <time>2016-07-04T12:08:11.000Z</time>
      </trkpt>
      <trkpt lat="46.14302" lon="6.77996">
        <ele>1569</ele>
        <time>2016-07-04T12:08:17.000Z</time>
      </trkpt>
      <trkpt lat="46.14301" lon="6.77999">
        <ele>1569</ele>
        <time>2016-07-04T12:08:18.000Z</time>
      </trkpt>
      <trkpt lat="46.14295" lon="6.78009">
        <ele>1570</ele>
        <time>2016-07-04T12:08:25.000Z</time>
      </trkpt>
      <trkpt lat="46.14294" lon="6.7801">
        <ele>1570</ele>
        <time>2016-07-04T12:08:26.000Z</time>
      </trkpt>
      <trkpt lat="46.14288" lon="6.78016">
        <ele>1570</ele>
        <time>2016-07-04T12:08:33.000Z</time>
      </trkpt>
      <trkpt lat="46.14286" lon="6.78017">
        <ele>1571</ele>
        <time>2016-07-04T12:08:34.000Z</time>
      </trkpt>
      <trkpt lat="46.1428" lon="6.78025">
        <ele>1571</ele>
        <time>2016-07-04T12:08:42.000Z</time>
      </trkpt>
      <trkpt lat="46.14279" lon="6.78026">
        <ele>1571</ele>
        <time>2016-07-04T12:08:43.000Z</time>
      </trkpt>
      <trkpt lat="46.14276" lon="6.78037">
        <ele>1568</ele>
        <time>2016-07-04T12:08:50.000Z</time>
      </trkpt>
      <trkpt lat="46.14275" lon="6.78038">
        <ele>1568</ele>
        <time>2016-07-04T12:08:51.000Z</time>
      </trkpt>
      <trkpt lat="46.1427" lon="6.78048">
        <ele>1568</ele>
        <time>2016-07-04T12:08:59.000Z</time>
      </trkpt>
      <trkpt lat="46.1427" lon="6.7805">
        <ele>1570</ele>
        <time>2016-07-04T12:09:00.000Z</time>
      </trkpt>
      <trkpt lat="46.14267" lon="6.78062">
        <ele>1566</ele>
        <time>2016-07-04T12:09:08.000Z</time>
      </trkpt>
      <trkpt lat="46.14266" lon="6.78064">
        <ele>1566</ele>
        <time>2016-07-04T12:09:09.000Z</time>
      </trkpt>
      <trkpt lat="46.14262" lon="6.78075">
        <ele>1561</ele>
        <time>2016-07-04T12:09:18.000Z</time>
      </trkpt>
      <trkpt lat="46.14261" lon="6.78076">
        <ele>1561</ele>
        <time>2016-07-04T12:09:19.000Z</time>
      </trkpt>
      <trkpt lat="46.14257" lon="6.78085">
        <ele>1557</ele>
        <time>2016-07-04T12:09:27.000Z</time>
      </trkpt>
      <trkpt lat="46.14256" lon="6.78087">
        <ele>1557</ele>
        <time>2016-07-04T12:09:28.000Z</time>
      </trkpt>
      <trkpt lat="46.1425" lon="6.78095">
        <ele>1557</ele>
        <time>2016-07-04T12:09:36.000Z</time>
      </trkpt>
      <trkpt lat="46.14249" lon="6.78098">
        <ele>1557</ele>
        <time>2016-07-04T12:09:37.000Z</time>
      </trkpt>
      <trkpt lat="46.14244" lon="6.78109">
        <ele>1552</ele>
        <time>2016-07-04T12:09:44.000Z</time>
      </trkpt>
      <trkpt lat="46.14244" lon="6.7811">
        <ele>1551</ele>
        <time>2016-07-04T12:09:45.000Z</time>
      </trkpt>
      <trkpt lat="46.14242" lon="6.78122">
        <ele>1545</ele>
        <time>2016-07-04T12:09:53.000Z</time>
      </trkpt>
      <trkpt lat="46.14242" lon="6.78125">
        <ele>1543</ele>
        <time>2016-07-04T12:09:54.000Z</time>
      </trkpt>
      <trkpt lat="46.14238" lon="6.78137">
        <ele>1546</ele>
        <time>2016-07-04T12:10:01.000Z</time>
      </trkpt>
      <trkpt lat="46.14237" lon="6.78138">
        <ele>1547</ele>
        <time>2016-07-04T12:10:02.000Z</time>
      </trkpt>
      <trkpt lat="46.14234" lon="6.78149">
        <ele>1545</ele>
        <time>2016-07-04T12:10:09.000Z</time>
      </trkpt>
      <trkpt lat="46.14234" lon="6.78151">
        <ele>1545</ele>
        <time>2016-07-04T12:10:10.000Z</time>
      </trkpt>
      <trkpt lat="46.14233" lon="6.78163">
        <ele>1544</ele>
        <time>2016-07-04T12:10:16.000Z</time>
      </trkpt>
      <trkpt lat="46.14233" lon="6.78165">
        <ele>1544</ele>
        <time>2016-07-04T12:10:17.000Z</time>
      </trkpt>
      <trkpt lat="46.14233" lon="6.78177">
        <ele>1537</ele>
        <time>2016-07-04T12:10:27.000Z</time>
      </trkpt>
      <trkpt lat="46.14233" lon="6.78179">
        <ele>1537</ele>
        <time>2016-07-04T12:10:28.000Z</time>
      </trkpt>
      <trkpt lat="46.1423" lon="6.7819">
        <ele>1533</ele>
        <time>2016-07-04T12:10:39.000Z</time>
      </trkpt>
      <trkpt lat="46.1423" lon="6.78191">
        <ele>1533</ele>
        <time>2016-07-04T12:10:40.000Z</time>
      </trkpt>
      <trkpt lat="46.14226" lon="6.78199">
        <ele>1533</ele>
        <time>2016-07-04T12:10:48.000Z</time>
      </trkpt>
      <trkpt lat="46.14224" lon="6.78201">
        <ele>1533</ele>
        <time>2016-07-04T12:10:49.000Z</time>
      </trkpt>
      <trkpt lat="46.14225" lon="6.78203">
        <ele>1529</ele>
        <time>2016-07-04T12:10:53.000Z</time>
      </trkpt>
      <trkpt lat="46.14225" lon="6.78204">
        <ele>1528</ele>
        <time>2016-07-04T12:10:54.000Z</time>
      </trkpt>
      <trkpt lat="46.14227" lon="6.7821">
        <ele>1524</ele>
        <time>2016-07-04T12:12:18.000Z</time>
      </trkpt>
      <trkpt lat="46.14227" lon="6.7821">
        <ele>1524</ele>
        <time>2016-07-04T12:12:19.000Z</time>
      </trkpt>
      <trkpt lat="46.14225" lon="6.78207">
        <ele>1530</ele>
        <time>2016-07-04T12:12:40.000Z</time>
      </trkpt>
      <trkpt lat="46.14225" lon="6.78207">
        <ele>1530</ele>
        <time>2016-07-04T12:12:41.000Z</time>
      </trkpt>
      <trkpt lat="46.14227" lon="6.7821">
        <ele>1530</ele>
        <time>2016-07-04T12:12:42.000Z</time>
      </trkpt>
      <trkpt lat="46.14232" lon="6.78208">
        <ele>1521</ele>
        <time>2016-07-04T12:18:14.000Z</time>
      </trkpt>
      <trkpt lat="46.14231" lon="6.78208">
        <ele>1521</ele>
        <time>2016-07-04T12:18:15.000Z</time>
      </trkpt>
      <trkpt lat="46.14228" lon="6.78203">
        <ele>1525</ele>
        <time>2016-07-04T12:18:26.000Z</time>
      </trkpt>
      <trkpt lat="46.14228" lon="6.78203">
        <ele>1525</ele>
        <time>2016-07-04T12:18:27.000Z</time>
      </trkpt>
      <trkpt lat="46.14221" lon="6.78198">
        <ele>1528</ele>
        <time>2016-07-04T12:18:35.000Z</time>
      </trkpt>
      <trkpt lat="46.1422" lon="6.78198">
        <ele>1528</ele>
        <time>2016-07-04T12:18:36.000Z</time>
      </trkpt>
      <trkpt lat="46.14215" lon="6.78208">
        <ele>1529</ele>
        <time>2016-07-04T12:18:44.000Z</time>
      </trkpt>
      <trkpt lat="46.14216" lon="6.7821">
        <ele>1529</ele>
        <time>2016-07-04T12:18:45.000Z</time>
      </trkpt>
      <trkpt lat="46.14211" lon="6.78221">
        <ele>1525</ele>
        <time>2016-07-04T12:18:54.000Z</time>
      </trkpt>
      <trkpt lat="46.14211" lon="6.78221">
        <ele>1525</ele>
        <time>2016-07-04T12:18:55.000Z</time>
      </trkpt>
      <trkpt lat="46.14203" lon="6.78225">
        <ele>1527</ele>
        <time>2016-07-04T12:19:03.000Z</time>
      </trkpt>
      <trkpt lat="46.14202" lon="6.78226">
        <ele>1526</ele>
        <time>2016-07-04T12:19:04.000Z</time>
      </trkpt>
      <trkpt lat="46.14194" lon="6.78223">
        <ele>1528</ele>
        <time>2016-07-04T12:19:15.000Z</time>
      </trkpt>
      <trkpt lat="46.14193" lon="6.78221">
        <ele>1528</ele>
        <time>2016-07-04T12:19:16.000Z</time>
      </trkpt>
      <trkpt lat="46.14185" lon="6.78214">
        <ele>1535</ele>
        <time>2016-07-04T12:19:29.000Z</time>
      </trkpt>
      <trkpt lat="46.14184" lon="6.7821">
        <ele>1535</ele>
        <time>2016-07-04T12:19:30.000Z</time>
      </trkpt>
      <trkpt lat="46.14178" lon="6.78204">
        <ele>1532</ele>
        <time>2016-07-04T12:19:35.000Z</time>
      </trkpt>
      <trkpt lat="46.14176" lon="6.78202">
        <ele>1531</ele>
        <time>2016-07-04T12:19:36.000Z</time>
      </trkpt>
      <trkpt lat="46.14169" lon="6.78197">
        <ele>1533</ele>
        <time>2016-07-04T12:19:41.000Z</time>
      </trkpt>
      <trkpt lat="46.14168" lon="6.78196">
        <ele>1533</ele>
        <time>2016-07-04T12:19:42.000Z</time>
      </trkpt>
      <trkpt lat="46.14161" lon="6.78191">
        <ele>1536</ele>
        <time>2016-07-04T12:19:45.000Z</time>
      </trkpt>
      <trkpt lat="46.14158" lon="6.78188">
        <ele>1536</ele>
        <time>2016-07-04T12:19:46.000Z</time>
      </trkpt>
      <trkpt lat="46.1415" lon="6.7819">
        <ele>1537</ele>
        <time>2016-07-04T12:19:52.000Z</time>
      </trkpt>
      <trkpt lat="46.14149" lon="6.7819">
        <ele>1539</ele>
        <time>2016-07-04T12:19:53.000Z</time>
      </trkpt>
      <trkpt lat="46.14141" lon="6.78196">
        <ele>1542</ele>
        <time>2016-07-04T12:20:01.000Z</time>
      </trkpt>
      <trkpt lat="46.1414" lon="6.78195">
        <ele>1543</ele>
        <time>2016-07-04T12:20:02.000Z</time>
      </trkpt>
      <trkpt lat="46.14132" lon="6.782">
        <ele>1538</ele>
        <time>2016-07-04T12:20:11.000Z</time>
      </trkpt>
      <trkpt lat="46.1413" lon="6.78199">
        <ele>1537</ele>
        <time>2016-07-04T12:20:12.000Z</time>
      </trkpt>
      <trkpt lat="46.14122" lon="6.78196">
        <ele>1532</ele>
        <time>2016-07-04T12:20:20.000Z</time>
      </trkpt>
      <trkpt lat="46.1412" lon="6.78195">
        <ele>1531</ele>
        <time>2016-07-04T12:20:21.000Z</time>
      </trkpt>
      <trkpt lat="46.14114" lon="6.78188">
        <ele>1531</ele>
        <time>2016-07-04T12:20:25.000Z</time>
      </trkpt>
      <trkpt lat="46.14113" lon="6.78187">
        <ele>1531</ele>
        <time>2016-07-04T12:20:26.000Z</time>
      </trkpt>
      <trkpt lat="46.14106" lon="6.78184">
        <ele>1527</ele>
        <time>2016-07-04T12:20:30.000Z</time>
      </trkpt>
      <trkpt lat="46.14104" lon="6.78183">
        <ele>1527</ele>
        <time>2016-07-04T12:20:31.000Z</time>
      </trkpt>
      <trkpt lat="46.14097" lon="6.78178">
        <ele>1527</ele>
        <time>2016-07-04T12:20:37.000Z</time>
      </trkpt>
      <trkpt lat="46.14095" lon="6.78177">
        <ele>1527</ele>
        <time>2016-07-04T12:20:38.000Z</time>
      </trkpt>
      <trkpt lat="46.14093" lon="6.78164">
        <ele>1519</ele>
        <time>2016-07-04T12:20:48.000Z</time>
      </trkpt>
      <trkpt lat="46.14093" lon="6.78162">
        <ele>1520</ele>
        <time>2016-07-04T12:20:49.000Z</time>
      </trkpt>
      <trkpt lat="46.14092" lon="6.7815">
        <ele>1521</ele>
        <time>2016-07-04T12:20:56.000Z</time>
      </trkpt>
      <trkpt lat="46.14092" lon="6.78149">
        <ele>1521</ele>
        <time>2016-07-04T12:20:57.000Z</time>
      </trkpt>
      <trkpt lat="46.14088" lon="6.78137">
        <ele>1524</ele>
        <time>2016-07-04T12:21:03.000Z</time>
      </trkpt>
      <trkpt lat="46.14087" lon="6.78136">
        <ele>1524</ele>
        <time>2016-07-04T12:21:04.000Z</time>
      </trkpt>
      <trkpt lat="46.1408" lon="6.7813">
        <ele>1519</ele>
        <time>2016-07-04T12:21:10.000Z</time>
      </trkpt>
      <trkpt lat="46.14079" lon="6.78129">
        <ele>1518</ele>
        <time>2016-07-04T12:21:11.000Z</time>
      </trkpt>
      <trkpt lat="46.14073" lon="6.78122">
        <ele>1514</ele>
        <time>2016-07-04T12:21:18.000Z</time>
      </trkpt>
      <trkpt lat="46.14072" lon="6.7812">
        <ele>1515</ele>
        <time>2016-07-04T12:21:19.000Z</time>
      </trkpt>
      <trkpt lat="46.14066" lon="6.78111">
        <ele>1513</ele>
        <time>2016-07-04T12:21:26.000Z</time>
      </trkpt>
      <trkpt lat="46.14065" lon="6.78109">
        <ele>1513</ele>
        <time>2016-07-04T12:21:27.000Z</time>
      </trkpt>
      <trkpt lat="46.1406" lon="6.78099">
        <ele>1510</ele>
        <time>2016-07-04T12:21:37.000Z</time>
      </trkpt>
      <trkpt lat="46.14059" lon="6.78098">
        <ele>1510</ele>
        <time>2016-07-04T12:21:38.000Z</time>
      </trkpt>
      <trkpt lat="46.14055" lon="6.78088">
        <ele>1508</ele>
        <time>2016-07-04T12:21:46.000Z</time>
      </trkpt>
      <trkpt lat="46.14054" lon="6.78087">
        <ele>1507</ele>
        <time>2016-07-04T12:21:47.000Z</time>
      </trkpt>
      <trkpt lat="46.14048" lon="6.7808">
        <ele>1505</ele>
        <time>2016-07-04T12:21:55.000Z</time>
      </trkpt>
      <trkpt lat="46.14047" lon="6.78078">
        <ele>1504</ele>
        <time>2016-07-04T12:21:56.000Z</time>
      </trkpt>
      <trkpt lat="46.14039" lon="6.78074">
        <ele>1503</ele>
        <time>2016-07-04T12:22:03.000Z</time>
      </trkpt>
      <trkpt lat="46.14038" lon="6.78073">
        <ele>1502</ele>
        <time>2016-07-04T12:22:04.000Z</time>
      </trkpt>
      <trkpt lat="46.14031" lon="6.78068">
        <ele>1502</ele>
        <time>2016-07-04T12:22:10.000Z</time>
      </trkpt>
      <trkpt lat="46.14029" lon="6.78067">
        <ele>1501</ele>
        <time>2016-07-04T12:22:11.000Z</time>
      </trkpt>
      <trkpt lat="46.14022" lon="6.7806">
        <ele>1501</ele>
        <time>2016-07-04T12:22:16.000Z</time>
      </trkpt>
      <trkpt lat="46.14021" lon="6.7806">
        <ele>1501</ele>
        <time>2016-07-04T12:22:17.000Z</time>
      </trkpt>
      <trkpt lat="46.14013" lon="6.78054">
        <ele>1500</ele>
        <time>2016-07-04T12:22:23.000Z</time>
      </trkpt>
      <trkpt lat="46.14011" lon="6.78052">
        <ele>1500</ele>
        <time>2016-07-04T12:22:24.000Z</time>
      </trkpt>
      <trkpt lat="46.14005" lon="6.78045">
        <ele>1499</ele>
        <time>2016-07-04T12:22:34.000Z</time>
      </trkpt>
      <trkpt lat="46.14005" lon="6.78043">
        <ele>1499</ele>
        <time>2016-07-04T12:22:35.000Z</time>
      </trkpt>
      <trkpt lat="46.13999" lon="6.78034">
        <ele>1498</ele>
        <time>2016-07-04T12:22:46.000Z</time>
      </trkpt>
      <trkpt lat="46.13998" lon="6.78033">
        <ele>1498</ele>
        <time>2016-07-04T12:22:47.000Z</time>
      </trkpt>
      <trkpt lat="46.13995" lon="6.78022">
        <ele>1497</ele>
        <time>2016-07-04T12:22:57.000Z</time>
      </trkpt>
      <trkpt lat="46.13994" lon="6.7802">
        <ele>1497</ele>
        <time>2016-07-04T12:22:58.000Z</time>
      </trkpt>
      <trkpt lat="46.1399" lon="6.78008">
        <ele>1493</ele>
        <time>2016-07-04T12:23:04.000Z</time>
      </trkpt>
      <trkpt lat="46.13989" lon="6.78007">
        <ele>1493</ele>
        <time>2016-07-04T12:23:05.000Z</time>
      </trkpt>
      <trkpt lat="46.13986" lon="6.77995">
        <ele>1493</ele>
        <time>2016-07-04T12:23:13.000Z</time>
      </trkpt>
      <trkpt lat="46.13985" lon="6.77994">
        <ele>1492</ele>
        <time>2016-07-04T12:23:14.000Z</time>
      </trkpt>
      <trkpt lat="46.13983" lon="6.77986">
        <ele>1491</ele>
        <time>2016-07-04T12:23:43.000Z</time>
      </trkpt>
      <trkpt lat="46.13982" lon="6.77986">
        <ele>1491</ele>
        <time>2016-07-04T12:23:44.000Z</time>
      </trkpt>
      <trkpt lat="46.13982" lon="6.77986">
        <ele>1486</ele>
        <time>2016-07-04T12:23:48.000Z</time>
      </trkpt>
      <trkpt lat="46.13982" lon="6.77985">
        <ele>1486</ele>
        <time>2016-07-04T12:23:49.000Z</time>
      </trkpt>
      <trkpt lat="46.13979" lon="6.77975">
        <ele>1488</ele>
        <time>2016-07-04T12:23:58.000Z</time>
      </trkpt>
      <trkpt lat="46.13978" lon="6.77973">
        <ele>1487</ele>
        <time>2016-07-04T12:23:59.000Z</time>
      </trkpt>
      <trkpt lat="46.13975" lon="6.77963">
        <ele>1486</ele>
        <time>2016-07-04T12:24:06.000Z</time>
      </trkpt>
      <trkpt lat="46.13974" lon="6.77961">
        <ele>1486</ele>
        <time>2016-07-04T12:24:07.000Z</time>
      </trkpt>
      <trkpt lat="46.13971" lon="6.7795">
        <ele>1485</ele>
        <time>2016-07-04T12:24:15.000Z</time>
      </trkpt>
      <trkpt lat="46.1397" lon="6.77948">
        <ele>1485</ele>
        <time>2016-07-04T12:24:16.000Z</time>
      </trkpt>
      <trkpt lat="46.13967" lon="6.77938">
        <ele>1483</ele>
        <time>2016-07-04T12:24:22.000Z</time>
      </trkpt>
      <trkpt lat="46.13966" lon="6.77935">
        <ele>1483</ele>
        <time>2016-07-04T12:24:23.000Z</time>
      </trkpt>
      <trkpt lat="46.13963" lon="6.77925">
        <ele>1482</ele>
        <time>2016-07-04T12:24:30.000Z</time>
      </trkpt>
      <trkpt lat="46.13963" lon="6.77922">
        <ele>1482</ele>
        <time>2016-07-04T12:24:31.000Z</time>
      </trkpt>
      <trkpt lat="46.13959" lon="6.77911">
        <ele>1481</ele>
        <time>2016-07-04T12:24:39.000Z</time>
      </trkpt>
      <trkpt lat="46.13958" lon="6.77908">
        <ele>1481</ele>
        <time>2016-07-04T12:24:40.000Z</time>
      </trkpt>
      <trkpt lat="46.13953" lon="6.77899">
        <ele>1481</ele>
        <time>2016-07-04T12:24:47.000Z</time>
      </trkpt>
      <trkpt lat="46.13953" lon="6.77897">
        <ele>1481</ele>
        <time>2016-07-04T12:24:48.000Z</time>
      </trkpt>
      <trkpt lat="46.13949" lon="6.77887">
        <ele>1478</ele>
        <time>2016-07-04T12:24:54.000Z</time>
      </trkpt>
      <trkpt lat="46.13949" lon="6.77884">
        <ele>1479</ele>
        <time>2016-07-04T12:24:55.000Z</time>
      </trkpt>
      <trkpt lat="46.1395" lon="6.7788">
        <ele>1481</ele>
        <time>2016-07-04T12:25:08.000Z</time>
      </trkpt>
      <trkpt lat="46.1395" lon="6.7788">
        <ele>1481</ele>
        <time>2016-07-04T12:25:09.000Z</time>
      </trkpt>
      <trkpt lat="46.1395" lon="6.77879">
        <ele>1479</ele>
        <time>2016-07-04T12:25:10.000Z</time>
      </trkpt>
      <trkpt lat="46.13947" lon="6.77867">
        <ele>1475</ele>
        <time>2016-07-04T12:25:21.000Z</time>
      </trkpt>
      <trkpt lat="46.13947" lon="6.77866">
        <ele>1474</ele>
        <time>2016-07-04T12:25:22.000Z</time>
      </trkpt>
      <trkpt lat="46.13943" lon="6.77861">
        <ele>1476</ele>
        <time>2016-07-04T12:25:27.000Z</time>
      </trkpt>
      <trkpt lat="46.13943" lon="6.77861">
        <ele>1476</ele>
        <time>2016-07-04T12:25:28.000Z</time>
      </trkpt>
      <trkpt lat="46.13943" lon="6.77861">
        <ele>1477</ele>
        <time>2016-07-04T12:25:29.000Z</time>
      </trkpt>
      <trkpt lat="46.13944" lon="6.77849">
        <ele>1477</ele>
        <time>2016-07-04T12:25:43.000Z</time>
      </trkpt>
      <trkpt lat="46.13944" lon="6.77847">
        <ele>1478</ele>
        <time>2016-07-04T12:25:44.000Z</time>
      </trkpt>
      <trkpt lat="46.13942" lon="6.77835">
        <ele>1473</ele>
        <time>2016-07-04T12:25:52.000Z</time>
      </trkpt>
      <trkpt lat="46.13942" lon="6.77833">
        <ele>1473</ele>
        <time>2016-07-04T12:25:53.000Z</time>
      </trkpt>
      <trkpt lat="46.13941" lon="6.77822">
        <ele>1471</ele>
        <time>2016-07-04T12:26:00.000Z</time>
      </trkpt>
      <trkpt lat="46.13941" lon="6.7782">
        <ele>1471</ele>
        <time>2016-07-04T12:26:01.000Z</time>
      </trkpt>
      <trkpt lat="46.13942" lon="6.77808">
        <ele>1469</ele>
        <time>2016-07-04T12:26:09.000Z</time>
      </trkpt>
      <trkpt lat="46.13942" lon="6.77806">
        <ele>1470</ele>
        <time>2016-07-04T12:26:10.000Z</time>
      </trkpt>
      <trkpt lat="46.1394" lon="6.77793">
        <ele>1467</ele>
        <time>2016-07-04T12:26:18.000Z</time>
      </trkpt>
      <trkpt lat="46.1394" lon="6.77791">
        <ele>1467</ele>
        <time>2016-07-04T12:26:19.000Z</time>
      </trkpt>
      <trkpt lat="46.13939" lon="6.77779">
        <ele>1464</ele>
        <time>2016-07-04T12:26:25.000Z</time>
      </trkpt>
      <trkpt lat="46.13939" lon="6.77777">
        <ele>1464</ele>
        <time>2016-07-04T12:26:26.000Z</time>
      </trkpt>
      <trkpt lat="46.1394" lon="6.77765">
        <ele>1463</ele>
        <time>2016-07-04T12:26:34.000Z</time>
      </trkpt>
      <trkpt lat="46.1394" lon="6.77762">
        <ele>1463</ele>
        <time>2016-07-04T12:26:35.000Z</time>
      </trkpt>
      <trkpt lat="46.13941" lon="6.7775">
        <ele>1467</ele>
        <time>2016-07-04T12:26:44.000Z</time>
      </trkpt>
      <trkpt lat="46.1394" lon="6.77748">
        <ele>1465</ele>
        <time>2016-07-04T12:26:45.000Z</time>
      </trkpt>
      <trkpt lat="46.1394" lon="6.77744">
        <ele>1470</ele>
        <time>2016-07-04T12:26:56.000Z</time>
      </trkpt>
      <trkpt lat="46.1394" lon="6.77744">
        <ele>1470</ele>
        <time>2016-07-04T12:26:57.000Z</time>
      </trkpt>
      <trkpt lat="46.1394" lon="6.77744">
        <ele>1470</ele>
        <time>2016-07-04T12:26:58.000Z</time>
      </trkpt>
      <trkpt lat="46.1394" lon="6.77756">
        <ele>1466</ele>
        <time>2016-07-04T12:27:07.000Z</time>
      </trkpt>
      <trkpt lat="46.1394" lon="6.77757">
        <ele>1465</ele>
        <time>2016-07-04T12:27:08.000Z</time>
      </trkpt>
      <trkpt lat="46.13939" lon="6.77769">
        <ele>1462</ele>
        <time>2016-07-04T12:27:16.000Z</time>
      </trkpt>
      <trkpt lat="46.13938" lon="6.7777">
        <ele>1462</ele>
        <time>2016-07-04T12:27:17.000Z</time>
      </trkpt>
      <trkpt lat="46.13931" lon="6.77777">
        <ele>1461</ele>
        <time>2016-07-04T12:27:27.000Z</time>
      </trkpt>
      <trkpt lat="46.1393" lon="6.77777">
        <ele>1461</ele>
        <time>2016-07-04T12:27:28.000Z</time>
      </trkpt>
      <trkpt lat="46.13922" lon="6.77777">
        <ele>1460</ele>
        <time>2016-07-04T12:27:35.000Z</time>
      </trkpt>
      <trkpt lat="46.1392" lon="6.77776">
        <ele>1460</ele>
        <time>2016-07-04T12:27:36.000Z</time>
      </trkpt>
      <trkpt lat="46.13912" lon="6.77778">
        <ele>1459</ele>
        <time>2016-07-04T12:27:42.000Z</time>
      </trkpt>
      <trkpt lat="46.13911" lon="6.77777">
        <ele>1461</ele>
        <time>2016-07-04T12:27:43.000Z</time>
      </trkpt>
      <trkpt lat="46.13903" lon="6.77779">
        <ele>1459</ele>
        <time>2016-07-04T12:27:50.000Z</time>
      </trkpt>
      <trkpt lat="46.13902" lon="6.77778">
        <ele>1458</ele>
        <time>2016-07-04T12:27:51.000Z</time>
      </trkpt>
      <trkpt lat="46.13895" lon="6.77771">
        <ele>1460</ele>
        <time>2016-07-04T12:28:02.000Z</time>
      </trkpt>
      <trkpt lat="46.13895" lon="6.77769">
        <ele>1461</ele>
        <time>2016-07-04T12:28:03.000Z</time>
      </trkpt>
      <trkpt lat="46.13888" lon="6.77762">
        <ele>1460</ele>
        <time>2016-07-04T12:28:11.000Z</time>
      </trkpt>
      <trkpt lat="46.13886" lon="6.77761">
        <ele>1460</ele>
        <time>2016-07-04T12:28:12.000Z</time>
      </trkpt>
      <trkpt lat="46.1388" lon="6.77769">
        <ele>1459</ele>
        <time>2016-07-04T12:28:23.000Z</time>
      </trkpt>
      <trkpt lat="46.13879" lon="6.7777">
        <ele>1458</ele>
        <time>2016-07-04T12:28:24.000Z</time>
      </trkpt>
      <trkpt lat="46.13879" lon="6.77772">
        <ele>1464</ele>
        <time>2016-07-04T12:28:38.000Z</time>
      </trkpt>
      <trkpt lat="46.1388" lon="6.77774">
        <ele>1464</ele>
        <time>2016-07-04T12:28:39.000Z</time>
      </trkpt>
      <trkpt lat="46.1388" lon="6.77774">
        <ele>1464</ele>
        <time>2016-07-04T12:28:51.000Z</time>
      </trkpt>
      <trkpt lat="46.13881" lon="6.77774">
        <ele>1463</ele>
        <time>2016-07-04T12:28:52.000Z</time>
      </trkpt>
      <trkpt lat="46.13876" lon="6.77767">
        <ele>1461</ele>
        <time>2016-07-04T12:29:01.000Z</time>
      </trkpt>
      <trkpt lat="46.13875" lon="6.77765">
        <ele>1461</ele>
        <time>2016-07-04T12:29:02.000Z</time>
      </trkpt>
      <trkpt lat="46.13868" lon="6.77759">
        <ele>1458</ele>
        <time>2016-07-04T12:29:10.000Z</time>
      </trkpt>
      <trkpt lat="46.13866" lon="6.77758">
        <ele>1458</ele>
        <time>2016-07-04T12:29:11.000Z</time>
      </trkpt>
      <trkpt lat="46.13861" lon="6.77751">
        <ele>1454</ele>
        <time>2016-07-04T12:29:20.000Z</time>
      </trkpt>
      <trkpt lat="46.1386" lon="6.77749">
        <ele>1455</ele>
        <time>2016-07-04T12:29:21.000Z</time>
      </trkpt>
      <trkpt lat="46.13853" lon="6.77741">
        <ele>1456</ele>
        <time>2016-07-04T12:29:33.000Z</time>
      </trkpt>
      <trkpt lat="46.13852" lon="6.77741">
        <ele>1457</ele>
        <time>2016-07-04T12:29:34.000Z</time>
      </trkpt>
      <trkpt lat="46.13848" lon="6.7773">
        <ele>1457</ele>
        <time>2016-07-04T12:29:41.000Z</time>
      </trkpt>
      <trkpt lat="46.13847" lon="6.77728">
        <ele>1455</ele>
        <time>2016-07-04T12:29:42.000Z</time>
      </trkpt>
      <trkpt lat="46.13843" lon="6.77718">
        <ele>1458</ele>
        <time>2016-07-04T12:29:53.000Z</time>
      </trkpt>
      <trkpt lat="46.13842" lon="6.77716">
        <ele>1458</ele>
        <time>2016-07-04T12:29:54.000Z</time>
      </trkpt>
      <trkpt lat="46.13835" lon="6.77709">
        <ele>1454</ele>
        <time>2016-07-04T12:30:06.000Z</time>
      </trkpt>
      <trkpt lat="46.13835" lon="6.77708">
        <ele>1454</ele>
        <time>2016-07-04T12:30:07.000Z</time>
      </trkpt>
      <trkpt lat="46.13828" lon="6.77702">
        <ele>1454</ele>
        <time>2016-07-04T12:30:15.000Z</time>
      </trkpt>
      <trkpt lat="46.13827" lon="6.777">
        <ele>1454</ele>
        <time>2016-07-04T12:30:16.000Z</time>
      </trkpt>
      <trkpt lat="46.13819" lon="6.77694">
        <ele>1454</ele>
        <time>2016-07-04T12:30:24.000Z</time>
      </trkpt>
      <trkpt lat="46.13818" lon="6.77693">
        <ele>1453</ele>
        <time>2016-07-04T12:30:25.000Z</time>
      </trkpt>
      <trkpt lat="46.13811" lon="6.77686">
        <ele>1453</ele>
        <time>2016-07-04T12:30:33.000Z</time>
      </trkpt>
      <trkpt lat="46.1381" lon="6.77686">
        <ele>1453</ele>
        <time>2016-07-04T12:30:34.000Z</time>
      </trkpt>
      <trkpt lat="46.13805" lon="6.77677">
        <ele>1457</ele>
        <time>2016-07-04T12:30:40.000Z</time>
      </trkpt>
      <trkpt lat="46.13803" lon="6.77675">
        <ele>1456</ele>
        <time>2016-07-04T12:30:41.000Z</time>
      </trkpt>
      <trkpt lat="46.13794" lon="6.77672">
        <ele>1461</ele>
        <time>2016-07-04T12:30:50.000Z</time>
      </trkpt>
      <trkpt lat="46.13793" lon="6.77672">
        <ele>1460</ele>
        <time>2016-07-04T12:30:51.000Z</time>
      </trkpt>
      <trkpt lat="46.13785" lon="6.77671">
        <ele>1459</ele>
        <time>2016-07-04T12:30:57.000Z</time>
      </trkpt>
      <trkpt lat="46.13784" lon="6.77672">
        <ele>1458</ele>
        <time>2016-07-04T12:30:58.000Z</time>
      </trkpt>
      <trkpt lat="46.13775" lon="6.77676">
        <ele>1456</ele>
        <time>2016-07-04T12:31:07.000Z</time>
      </trkpt>
      <trkpt lat="46.13774" lon="6.77676">
        <ele>1456</ele>
        <time>2016-07-04T12:31:08.000Z</time>
      </trkpt>
      <trkpt lat="46.13765" lon="6.77677">
        <ele>1456</ele>
        <time>2016-07-04T12:31:15.000Z</time>
      </trkpt>
      <trkpt lat="46.13765" lon="6.77677">
        <ele>1456</ele>
        <time>2016-07-04T12:31:16.000Z</time>
      </trkpt>
      <trkpt lat="46.13756" lon="6.77674">
        <ele>1457</ele>
        <time>2016-07-04T12:31:26.000Z</time>
      </trkpt>
      <trkpt lat="46.13755" lon="6.77674">
        <ele>1458</ele>
        <time>2016-07-04T12:31:27.000Z</time>
      </trkpt>
      <trkpt lat="46.13747" lon="6.77675">
        <ele>1459</ele>
        <time>2016-07-04T12:31:40.000Z</time>
      </trkpt>
      <trkpt lat="46.13746" lon="6.77676">
        <ele>1458</ele>
        <time>2016-07-04T12:31:41.000Z</time>
      </trkpt>
      <trkpt lat="46.13737" lon="6.77672">
        <ele>1461</ele>
        <time>2016-07-04T12:31:51.000Z</time>
      </trkpt>
      <trkpt lat="46.13737" lon="6.77673">
        <ele>1462</ele>
        <time>2016-07-04T12:31:52.000Z</time>
      </trkpt>
      <trkpt lat="46.13728" lon="6.77671">
        <ele>1461</ele>
        <time>2016-07-04T12:31:59.000Z</time>
      </trkpt>
      <trkpt lat="46.13727" lon="6.77671">
        <ele>1461</ele>
        <time>2016-07-04T12:32:00.000Z</time>
      </trkpt>
      <trkpt lat="46.13718" lon="6.77669">
        <ele>1460</ele>
        <time>2016-07-04T12:32:08.000Z</time>
      </trkpt>
      <trkpt lat="46.13717" lon="6.77668">
        <ele>1461</ele>
        <time>2016-07-04T12:32:09.000Z</time>
      </trkpt>
      <trkpt lat="46.13709" lon="6.77666">
        <ele>1458</ele>
        <time>2016-07-04T12:32:18.000Z</time>
      </trkpt>
      <trkpt lat="46.13708" lon="6.77666">
        <ele>1458</ele>
        <time>2016-07-04T12:32:19.000Z</time>
      </trkpt>
      <trkpt lat="46.13699" lon="6.77665">
        <ele>1456</ele>
        <time>2016-07-04T12:32:27.000Z</time>
      </trkpt>
      <trkpt lat="46.13698" lon="6.77665">
        <ele>1456</ele>
        <time>2016-07-04T12:32:28.000Z</time>
      </trkpt>
      <trkpt lat="46.1369" lon="6.77659">
        <ele>1457</ele>
        <time>2016-07-04T12:32:38.000Z</time>
      </trkpt>
      <trkpt lat="46.13689" lon="6.77658">
        <ele>1456</ele>
        <time>2016-07-04T12:32:39.000Z</time>
      </trkpt>
      <trkpt lat="46.13684" lon="6.77649">
        <ele>1455</ele>
        <time>2016-07-04T12:32:50.000Z</time>
      </trkpt>
      <trkpt lat="46.13683" lon="6.77647">
        <ele>1455</ele>
        <time>2016-07-04T12:32:51.000Z</time>
      </trkpt>
      <trkpt lat="46.13678" lon="6.77638">
        <ele>1455</ele>
        <time>2016-07-04T12:33:00.000Z</time>
      </trkpt>
      <trkpt lat="46.13678" lon="6.77637">
        <ele>1456</ele>
        <time>2016-07-04T12:33:01.000Z</time>
      </trkpt>
      <trkpt lat="46.13675" lon="6.77627">
        <ele>1457</ele>
        <time>2016-07-04T12:33:08.000Z</time>
      </trkpt>
      <trkpt lat="46.13674" lon="6.77625">
        <ele>1457</ele>
        <time>2016-07-04T12:33:09.000Z</time>
      </trkpt>
      <trkpt lat="46.1367" lon="6.77616">
        <ele>1460</ele>
        <time>2016-07-04T12:33:20.000Z</time>
      </trkpt>
      <trkpt lat="46.13669" lon="6.77614">
        <ele>1459</ele>
        <time>2016-07-04T12:33:21.000Z</time>
      </trkpt>
      <trkpt lat="46.13665" lon="6.77605">
        <ele>1461</ele>
        <time>2016-07-04T12:33:28.000Z</time>
      </trkpt>
      <trkpt lat="46.13664" lon="6.77603">
        <ele>1461</ele>
        <time>2016-07-04T12:33:29.000Z</time>
      </trkpt>
      <trkpt lat="46.13661" lon="6.77592">
        <ele>1464</ele>
        <time>2016-07-04T12:33:42.000Z</time>
      </trkpt>
      <trkpt lat="46.13661" lon="6.77589">
        <ele>1464</ele>
        <time>2016-07-04T12:33:43.000Z</time>
      </trkpt>
      <trkpt lat="46.13661" lon="6.77577">
        <ele>1468</ele>
        <time>2016-07-04T12:33:50.000Z</time>
      </trkpt>
      <trkpt lat="46.13662" lon="6.77575">
        <ele>1468</ele>
        <time>2016-07-04T12:33:51.000Z</time>
      </trkpt>
      <trkpt lat="46.13663" lon="6.77564">
        <ele>1471</ele>
        <time>2016-07-04T12:33:57.000Z</time>
      </trkpt>
      <trkpt lat="46.13664" lon="6.77562">
        <ele>1471</ele>
        <time>2016-07-04T12:33:58.000Z</time>
      </trkpt>
      <trkpt lat="46.13662" lon="6.7755">
        <ele>1471</ele>
        <time>2016-07-04T12:34:07.000Z</time>
      </trkpt>
      <trkpt lat="46.13662" lon="6.77549">
        <ele>1471</ele>
        <time>2016-07-04T12:34:08.000Z</time>
      </trkpt>
      <trkpt lat="46.13662" lon="6.77536">
        <ele>1469</ele>
        <time>2016-07-04T12:34:19.000Z</time>
      </trkpt>
      <trkpt lat="46.13662" lon="6.77534">
        <ele>1469</ele>
        <time>2016-07-04T12:34:20.000Z</time>
      </trkpt>
      <trkpt lat="46.13662" lon="6.77522">
        <ele>1471</ele>
        <time>2016-07-04T12:34:28.000Z</time>
      </trkpt>
      <trkpt lat="46.13663" lon="6.7752">
        <ele>1472</ele>
        <time>2016-07-04T12:34:29.000Z</time>
      </trkpt>
      <trkpt lat="46.13662" lon="6.77508">
        <ele>1472</ele>
        <time>2016-07-04T12:34:42.000Z</time>
      </trkpt>
      <trkpt lat="46.13662" lon="6.77506">
        <ele>1472</ele>
        <time>2016-07-04T12:34:43.000Z</time>
      </trkpt>
      <trkpt lat="46.13662" lon="6.77495">
        <ele>1474</ele>
        <time>2016-07-04T12:34:49.000Z</time>
      </trkpt>
      <trkpt lat="46.13661" lon="6.77492">
        <ele>1474</ele>
        <time>2016-07-04T12:34:50.000Z</time>
      </trkpt>
      <trkpt lat="46.13661" lon="6.77481">
        <ele>1477</ele>
        <time>2016-07-04T12:34:57.000Z</time>
      </trkpt>
      <trkpt lat="46.13662" lon="6.77479">
        <ele>1477</ele>
        <time>2016-07-04T12:34:58.000Z</time>
      </trkpt>
      <trkpt lat="46.13664" lon="6.77468">
        <ele>1479</ele>
        <time>2016-07-04T12:35:06.000Z</time>
      </trkpt>
      <trkpt lat="46.13664" lon="6.77466">
        <ele>1478</ele>
        <time>2016-07-04T12:35:07.000Z</time>
      </trkpt>
      <trkpt lat="46.13667" lon="6.77453">
        <ele>1479</ele>
        <time>2016-07-04T12:35:20.000Z</time>
      </trkpt>
      <trkpt lat="46.13668" lon="6.77452">
        <ele>1480</ele>
        <time>2016-07-04T12:35:21.000Z</time>
      </trkpt>
      <trkpt lat="46.13668" lon="6.77449">
        <ele>1482</ele>
        <time>2016-07-04T12:35:30.000Z</time>
      </trkpt>
      <trkpt lat="46.13668" lon="6.77449">
        <ele>1482</ele>
        <time>2016-07-04T12:35:31.000Z</time>
      </trkpt>
      <trkpt lat="46.1367" lon="6.77452">
        <ele>1482</ele>
        <time>2016-07-04T12:35:40.000Z</time>
      </trkpt>
      <trkpt lat="46.13671" lon="6.77452">
        <ele>1482</ele>
        <time>2016-07-04T12:35:41.000Z</time>
      </trkpt>
      <trkpt lat="46.13669" lon="6.77439">
        <ele>1482</ele>
        <time>2016-07-04T12:35:54.000Z</time>
      </trkpt>
      <trkpt lat="46.13669" lon="6.77437">
        <ele>1482</ele>
        <time>2016-07-04T12:35:55.000Z</time>
      </trkpt>
      <trkpt lat="46.13668" lon="6.77425">
        <ele>1483</ele>
        <time>2016-07-04T12:36:02.000Z</time>
      </trkpt>
      <trkpt lat="46.13668" lon="6.77423">
        <ele>1483</ele>
        <time>2016-07-04T12:36:03.000Z</time>
      </trkpt>
      <trkpt lat="46.13666" lon="6.77411">
        <ele>1485</ele>
        <time>2016-07-04T12:36:12.000Z</time>
      </trkpt>
      <trkpt lat="46.13665" lon="6.77411">
        <ele>1484</ele>
        <time>2016-07-04T12:36:13.000Z</time>
      </trkpt>
      <trkpt lat="46.13662" lon="6.77399">
        <ele>1486</ele>
        <time>2016-07-04T12:36:23.000Z</time>
      </trkpt>
      <trkpt lat="46.13662" lon="6.77398">
        <ele>1486</ele>
        <time>2016-07-04T12:36:24.000Z</time>
      </trkpt>
      <trkpt lat="46.13656" lon="6.7739">
        <ele>1485</ele>
        <time>2016-07-04T12:36:39.000Z</time>
      </trkpt>
      <trkpt lat="46.13655" lon="6.77389">
        <ele>1485</ele>
        <time>2016-07-04T12:36:40.000Z</time>
      </trkpt>
      <trkpt lat="46.13655" lon="6.77386">
        <ele>1486</ele>
        <time>2016-07-04T12:36:47.000Z</time>
      </trkpt>
      <trkpt lat="46.13655" lon="6.77386">
        <ele>1486</ele>
        <time>2016-07-04T12:36:48.000Z</time>
      </trkpt>
      <trkpt lat="46.13655" lon="6.77386">
        <ele>1487</ele>
        <time>2016-07-04T12:36:49.000Z</time>
      </trkpt>
      <trkpt lat="46.13652" lon="6.77388">
        <ele>1486</ele>
        <time>2016-07-04T12:37:02.000Z</time>
      </trkpt>
      <trkpt lat="46.13652" lon="6.77387">
        <ele>1486</ele>
        <time>2016-07-04T12:37:03.000Z</time>
      </trkpt>
      <trkpt lat="46.13652" lon="6.77386">
        <ele>1487</ele>
        <time>2016-07-04T12:37:04.000Z</time>
      </trkpt>
      <trkpt lat="46.13652" lon="6.77385">
        <ele>1487</ele>
        <time>2016-07-04T12:37:05.000Z</time>
      </trkpt>
      <trkpt lat="46.13653" lon="6.77386">
        <ele>1487</ele>
        <time>2016-07-04T12:37:13.000Z</time>
      </trkpt>
      <trkpt lat="46.13654" lon="6.77387">
        <ele>1487</ele>
        <time>2016-07-04T12:37:14.000Z</time>
      </trkpt>
      <trkpt lat="46.13654" lon="6.77388">
        <ele>1487</ele>
        <time>2016-07-04T12:37:16.000Z</time>
      </trkpt>
      <trkpt lat="46.13654" lon="6.77388">
        <ele>1487</ele>
        <time>2016-07-04T12:37:17.000Z</time>
      </trkpt>
      <trkpt lat="46.13654" lon="6.7739">
        <ele>1488</ele>
        <time>2016-07-04T12:37:18.000Z</time>
      </trkpt>
      <trkpt lat="46.13654" lon="6.77389">
        <ele>1488</ele>
        <time>2016-07-04T12:37:19.000Z</time>
      </trkpt>
      <trkpt lat="46.13653" lon="6.77388">
        <ele>1488</ele>
        <time>2016-07-04T12:37:20.000Z</time>
      </trkpt>
      <trkpt lat="46.13653" lon="6.77388">
        <ele>1489</ele>
        <time>2016-07-04T12:37:21.000Z</time>
      </trkpt>
      <trkpt lat="46.13652" lon="6.77375">
        <ele>1484</ele>
        <time>2016-07-04T12:37:51.000Z</time>
      </trkpt>
      <trkpt lat="46.13653" lon="6.77374">
        <ele>1484</ele>
        <time>2016-07-04T12:37:52.000Z</time>
      </trkpt>
      <trkpt lat="46.13649" lon="6.77364">
        <ele>1483</ele>
        <time>2016-07-04T12:38:11.000Z</time>
      </trkpt>
      <trkpt lat="46.13648" lon="6.77363">
        <ele>1483</ele>
        <time>2016-07-04T12:38:12.000Z</time>
      </trkpt>
      <trkpt lat="46.13645" lon="6.77352">
        <ele>1482</ele>
        <time>2016-07-04T12:38:20.000Z</time>
      </trkpt>
      <trkpt lat="46.13644" lon="6.77351">
        <ele>1481</ele>
        <time>2016-07-04T12:38:21.000Z</time>
      </trkpt>
      <trkpt lat="46.13639" lon="6.7734">
        <ele>1482</ele>
        <time>2016-07-04T12:38:30.000Z</time>
      </trkpt>
      <trkpt lat="46.13639" lon="6.77339">
        <ele>1482</ele>
        <time>2016-07-04T12:38:31.000Z</time>
      </trkpt>
      <trkpt lat="46.13633" lon="6.7733">
        <ele>1482</ele>
        <time>2016-07-04T12:38:50.000Z</time>
      </trkpt>
      <trkpt lat="46.13632" lon="6.7733">
        <ele>1481</ele>
        <time>2016-07-04T12:38:51.000Z</time>
      </trkpt>
      <trkpt lat="46.13627" lon="6.7732">
        <ele>1482</ele>
        <time>2016-07-04T12:39:00.000Z</time>
      </trkpt>
      <trkpt lat="46.13627" lon="6.77319">
        <ele>1483</ele>
        <time>2016-07-04T12:39:01.000Z</time>
      </trkpt>
      <trkpt lat="46.13626" lon="6.77307">
        <ele>1481</ele>
        <time>2016-07-04T12:39:14.000Z</time>
      </trkpt>
      <trkpt lat="46.13626" lon="6.77305">
        <ele>1482</ele>
        <time>2016-07-04T12:39:15.000Z</time>
      </trkpt>
      <trkpt lat="46.13624" lon="6.77293">
        <ele>1481</ele>
        <time>2016-07-04T12:39:21.000Z</time>
      </trkpt>
      <trkpt lat="46.13624" lon="6.77291">
        <ele>1482</ele>
        <time>2016-07-04T12:39:22.000Z</time>
      </trkpt>
      <trkpt lat="46.13624" lon="6.77278">
        <ele>1484</ele>
        <time>2016-07-04T12:39:31.000Z</time>
      </trkpt>
      <trkpt lat="46.13624" lon="6.77277">
        <ele>1483</ele>
        <time>2016-07-04T12:39:32.000Z</time>
      </trkpt>
      <trkpt lat="46.13623" lon="6.77264">
        <ele>1487</ele>
        <time>2016-07-04T12:39:43.000Z</time>
      </trkpt>
      <trkpt lat="46.13623" lon="6.77263">
        <ele>1487</ele>
        <time>2016-07-04T12:39:44.000Z</time>
      </trkpt>
      <trkpt lat="46.13624" lon="6.7725">
        <ele>1487</ele>
        <time>2016-07-04T12:39:53.000Z</time>
      </trkpt>
      <trkpt lat="46.13624" lon="6.77249">
        <ele>1486</ele>
        <time>2016-07-04T12:39:54.000Z</time>
      </trkpt>
      <trkpt lat="46.13625" lon="6.77237">
        <ele>1489</ele>
        <time>2016-07-04T12:40:05.000Z</time>
      </trkpt>
      <trkpt lat="46.13625" lon="6.77235">
        <ele>1489</ele>
        <time>2016-07-04T12:40:06.000Z</time>
      </trkpt>
      <trkpt lat="46.13623" lon="6.77224">
        <ele>1493</ele>
        <time>2016-07-04T12:40:17.000Z</time>
      </trkpt>
      <trkpt lat="46.13622" lon="6.77222">
        <ele>1494</ele>
        <time>2016-07-04T12:40:18.000Z</time>
      </trkpt>
      <trkpt lat="46.13625" lon="6.77212">
        <ele>1495</ele>
        <time>2016-07-04T12:40:28.000Z</time>
      </trkpt>
      <trkpt lat="46.13626" lon="6.7721">
        <ele>1496</ele>
        <time>2016-07-04T12:40:29.000Z</time>
      </trkpt>
      <trkpt lat="46.13627" lon="6.77198">
        <ele>1497</ele>
        <time>2016-07-04T12:40:35.000Z</time>
      </trkpt>
      <trkpt lat="46.13627" lon="6.77197">
        <ele>1498</ele>
        <time>2016-07-04T12:40:36.000Z</time>
      </trkpt>
      <trkpt lat="46.1363" lon="6.77184">
        <ele>1499</ele>
        <time>2016-07-04T12:40:45.000Z</time>
      </trkpt>
      <trkpt lat="46.1363" lon="6.77183">
        <ele>1498</ele>
        <time>2016-07-04T12:40:46.000Z</time>
      </trkpt>
      <trkpt lat="46.13633" lon="6.77171">
        <ele>1492</ele>
        <time>2016-07-04T12:40:53.000Z</time>
      </trkpt>
      <trkpt lat="46.13634" lon="6.77171">
        <ele>1491</ele>
        <time>2016-07-04T12:40:54.000Z</time>
      </trkpt>
      <trkpt lat="46.1364" lon="6.77164">
        <ele>1484</ele>
        <time>2016-07-04T12:41:05.000Z</time>
      </trkpt>
      <trkpt lat="46.13641" lon="6.77163">
        <ele>1485</ele>
        <time>2016-07-04T12:41:06.000Z</time>
      </trkpt>
      <trkpt lat="46.13646" lon="6.77153">
        <ele>1488</ele>
        <time>2016-07-04T12:41:15.000Z</time>
      </trkpt>
      <trkpt lat="46.13647" lon="6.77152">
        <ele>1488</ele>
        <time>2016-07-04T12:41:16.000Z</time>
      </trkpt>
      <trkpt lat="46.13651" lon="6.77143">
        <ele>1489</ele>
        <time>2016-07-04T12:41:22.000Z</time>
      </trkpt>
      <trkpt lat="46.13653" lon="6.77142">
        <ele>1489</ele>
        <time>2016-07-04T12:41:23.000Z</time>
      </trkpt>
      <trkpt lat="46.13654" lon="6.7713">
        <ele>1488</ele>
        <time>2016-07-04T12:41:31.000Z</time>
      </trkpt>
      <trkpt lat="46.13651" lon="6.77128">
        <ele>1487</ele>
        <time>2016-07-04T12:41:32.000Z</time>
      </trkpt>
      <trkpt lat="46.13654" lon="6.77116">
        <ele>1495</ele>
        <time>2016-07-04T12:41:45.000Z</time>
      </trkpt>
      <trkpt lat="46.13654" lon="6.77115">
        <ele>1495</ele>
        <time>2016-07-04T12:41:46.000Z</time>
      </trkpt>
      <trkpt lat="46.13652" lon="6.77103">
        <ele>1495</ele>
        <time>2016-07-04T12:41:57.000Z</time>
      </trkpt>
      <trkpt lat="46.13652" lon="6.77103">
        <ele>1495</ele>
        <time>2016-07-04T12:41:58.000Z</time>
      </trkpt>
      <trkpt lat="46.13659" lon="6.77095">
        <ele>1497</ele>
        <time>2016-07-04T12:42:07.000Z</time>
      </trkpt>
      <trkpt lat="46.13662" lon="6.77094">
        <ele>1498</ele>
        <time>2016-07-04T12:42:08.000Z</time>
      </trkpt>
      <trkpt lat="46.13666" lon="6.77084">
        <ele>1498</ele>
        <time>2016-07-04T12:42:18.000Z</time>
      </trkpt>
      <trkpt lat="46.13667" lon="6.77084">
        <ele>1498</ele>
        <time>2016-07-04T12:42:19.000Z</time>
      </trkpt>
      <trkpt lat="46.13662" lon="6.77074">
        <ele>1503</ele>
        <time>2016-07-04T12:42:30.000Z</time>
      </trkpt>
      <trkpt lat="46.13662" lon="6.77072">
        <ele>1505</ele>
        <time>2016-07-04T12:42:31.000Z</time>
      </trkpt>
      <trkpt lat="46.13662" lon="6.7706">
        <ele>1506</ele>
        <time>2016-07-04T12:42:40.000Z</time>
      </trkpt>
      <trkpt lat="46.13662" lon="6.77059">
        <ele>1505</ele>
        <time>2016-07-04T12:42:41.000Z</time>
      </trkpt>
      <trkpt lat="46.13659" lon="6.77048">
        <ele>1502</ele>
        <time>2016-07-04T12:42:49.000Z</time>
      </trkpt>
      <trkpt lat="46.13659" lon="6.77046">
        <ele>1502</ele>
        <time>2016-07-04T12:42:50.000Z</time>
      </trkpt>
      <trkpt lat="46.1366" lon="6.77035">
        <ele>1505</ele>
        <time>2016-07-04T12:42:58.000Z</time>
      </trkpt>
      <trkpt lat="46.13662" lon="6.77034">
        <ele>1505</ele>
        <time>2016-07-04T12:42:59.000Z</time>
      </trkpt>
      <trkpt lat="46.13668" lon="6.77026">
        <ele>1507</ele>
        <time>2016-07-04T12:43:07.000Z</time>
      </trkpt>
      <trkpt lat="46.13671" lon="6.77026">
        <ele>1507</ele>
        <time>2016-07-04T12:43:08.000Z</time>
      </trkpt>
      <trkpt lat="46.13677" lon="6.7702">
        <ele>1509</ele>
        <time>2016-07-04T12:43:19.000Z</time>
      </trkpt>
      <trkpt lat="46.13679" lon="6.7702">
        <ele>1511</ele>
        <time>2016-07-04T12:43:20.000Z</time>
      </trkpt>
      <trkpt lat="46.13681" lon="6.77009">
        <ele>1509</ele>
        <time>2016-07-04T12:43:31.000Z</time>
      </trkpt>
      <trkpt lat="46.13681" lon="6.77007">
        <ele>1510</ele>
        <time>2016-07-04T12:43:32.000Z</time>
      </trkpt>
      <trkpt lat="46.13682" lon="6.76996">
        <ele>1513</ele>
        <time>2016-07-04T12:43:44.000Z</time>
      </trkpt>
      <trkpt lat="46.13682" lon="6.76994">
        <ele>1516</ele>
        <time>2016-07-04T12:43:45.000Z</time>
      </trkpt>
      <trkpt lat="46.13686" lon="6.76985">
        <ele>1522</ele>
        <time>2016-07-04T12:43:53.000Z</time>
      </trkpt>
      <trkpt lat="46.13687" lon="6.76983">
        <ele>1523</ele>
        <time>2016-07-04T12:43:54.000Z</time>
      </trkpt>
      <trkpt lat="46.13687" lon="6.76972">
        <ele>1518</ele>
        <time>2016-07-04T12:44:02.000Z</time>
      </trkpt>
      <trkpt lat="46.13688" lon="6.7697">
        <ele>1520</ele>
        <time>2016-07-04T12:44:03.000Z</time>
      </trkpt>
      <trkpt lat="46.13685" lon="6.7696">
        <ele>1523</ele>
        <time>2016-07-04T12:44:15.000Z</time>
      </trkpt>
      <trkpt lat="46.13684" lon="6.76957">
        <ele>1523</ele>
        <time>2016-07-04T12:44:16.000Z</time>
      </trkpt>
      <trkpt lat="46.1368" lon="6.76947">
        <ele>1519</ele>
        <time>2016-07-04T12:44:24.000Z</time>
      </trkpt>
      <trkpt lat="46.13681" lon="6.76944">
        <ele>1519</ele>
        <time>2016-07-04T12:44:25.000Z</time>
      </trkpt>
      <trkpt lat="46.13677" lon="6.76933">
        <ele>1518</ele>
        <time>2016-07-04T12:44:34.000Z</time>
      </trkpt>
      <trkpt lat="46.13676" lon="6.76931">
        <ele>1519</ele>
        <time>2016-07-04T12:44:35.000Z</time>
      </trkpt>
      <trkpt lat="46.13671" lon="6.76921">
        <ele>1516</ele>
        <time>2016-07-04T12:44:50.000Z</time>
      </trkpt>
      <trkpt lat="46.1367" lon="6.7692">
        <ele>1516</ele>
        <time>2016-07-04T12:44:51.000Z</time>
      </trkpt>
      <trkpt lat="46.13663" lon="6.76911">
        <ele>1509</ele>
        <time>2016-07-04T12:45:08.000Z</time>
      </trkpt>
      <trkpt lat="46.13662" lon="6.76911">
        <ele>1508</ele>
        <time>2016-07-04T12:45:09.000Z</time>
      </trkpt>
      <trkpt lat="46.13656" lon="6.76903">
        <ele>1503</ele>
        <time>2016-07-04T12:45:18.000Z</time>
      </trkpt>
      <trkpt lat="46.13655" lon="6.76902">
        <ele>1504</ele>
        <time>2016-07-04T12:45:19.000Z</time>
      </trkpt>
      <trkpt lat="46.13649" lon="6.76893">
        <ele>1518</ele>
        <time>2016-07-04T12:45:35.000Z</time>
      </trkpt>
      <trkpt lat="46.13649" lon="6.76892">
        <ele>1517</ele>
        <time>2016-07-04T12:45:36.000Z</time>
      </trkpt>
      <trkpt lat="46.13645" lon="6.76892">
        <ele>1511</ele>
        <time>2016-07-04T12:45:42.000Z</time>
      </trkpt>
      <trkpt lat="46.13645" lon="6.76892">
        <ele>1511</ele>
        <time>2016-07-04T12:45:43.000Z</time>
      </trkpt>
      <trkpt lat="46.13645" lon="6.76891">
        <ele>1512</ele>
        <time>2016-07-04T12:45:44.000Z</time>
      </trkpt>
      <trkpt lat="46.13637" lon="6.76886">
        <ele>1510</ele>
        <time>2016-07-04T12:45:52.000Z</time>
      </trkpt>
      <trkpt lat="46.13635" lon="6.76886">
        <ele>1511</ele>
        <time>2016-07-04T12:45:53.000Z</time>
      </trkpt>
      <trkpt lat="46.13633" lon="6.76874">
        <ele>1511</ele>
        <time>2016-07-04T12:47:34.000Z</time>
      </trkpt>
      <trkpt lat="46.13632" lon="6.76871">
        <ele>1510</ele>
        <time>2016-07-04T12:47:35.000Z</time>
      </trkpt>
      <trkpt lat="46.13629" lon="6.7686">
        <ele>1507</ele>
        <time>2016-07-04T12:47:42.000Z</time>
      </trkpt>
      <trkpt lat="46.13629" lon="6.76858">
        <ele>1508</ele>
        <time>2016-07-04T12:47:43.000Z</time>
      </trkpt>
      <trkpt lat="46.13626" lon="6.76846">
        <ele>1502</ele>
        <time>2016-07-04T12:47:52.000Z</time>
      </trkpt>
      <trkpt lat="46.13626" lon="6.76844">
        <ele>1503</ele>
        <time>2016-07-04T12:47:53.000Z</time>
      </trkpt>
      <trkpt lat="46.13623" lon="6.76832">
        <ele>1503</ele>
        <time>2016-07-04T12:48:01.000Z</time>
      </trkpt>
      <trkpt lat="46.13623" lon="6.76831">
        <ele>1503</ele>
        <time>2016-07-04T12:48:02.000Z</time>
      </trkpt>
      <trkpt lat="46.1362" lon="6.76819">
        <ele>1509</ele>
        <time>2016-07-04T12:48:12.000Z</time>
      </trkpt>
      <trkpt lat="46.1362" lon="6.76817">
        <ele>1509</ele>
        <time>2016-07-04T12:48:13.000Z</time>
      </trkpt>
      <trkpt lat="46.13615" lon="6.76806">
        <ele>1509</ele>
        <time>2016-07-04T12:48:22.000Z</time>
      </trkpt>
      <trkpt lat="46.13614" lon="6.76805">
        <ele>1509</ele>
        <time>2016-07-04T12:48:23.000Z</time>
      </trkpt>
      <trkpt lat="46.13607" lon="6.76797">
        <ele>1509</ele>
        <time>2016-07-04T12:48:31.000Z</time>
      </trkpt>
      <trkpt lat="46.13606" lon="6.76796">
        <ele>1509</ele>
        <time>2016-07-04T12:48:32.000Z</time>
      </trkpt>
      <trkpt lat="46.13599" lon="6.76788">
        <ele>1509</ele>
        <time>2016-07-04T12:48:43.000Z</time>
      </trkpt>
      <trkpt lat="46.13598" lon="6.76787">
        <ele>1509</ele>
        <time>2016-07-04T12:48:44.000Z</time>
      </trkpt>
      <trkpt lat="46.13593" lon="6.76776">
        <ele>1514</ele>
        <time>2016-07-04T12:48:57.000Z</time>
      </trkpt>
      <trkpt lat="46.13592" lon="6.76775">
        <ele>1514</ele>
        <time>2016-07-04T12:48:58.000Z</time>
      </trkpt>
      <trkpt lat="46.13594" lon="6.76764">
        <ele>1523</ele>
        <time>2016-07-04T12:49:11.000Z</time>
      </trkpt>
      <trkpt lat="46.13595" lon="6.76762">
        <ele>1523</ele>
        <time>2016-07-04T12:49:12.000Z</time>
      </trkpt>
      <trkpt lat="46.13602" lon="6.76756">
        <ele>1529</ele>
        <time>2016-07-04T12:49:27.000Z</time>
      </trkpt>
      <trkpt lat="46.13603" lon="6.76756">
        <ele>1529</ele>
        <time>2016-07-04T12:49:28.000Z</time>
      </trkpt>
      <trkpt lat="46.13612" lon="6.76757">
        <ele>1534</ele>
        <time>2016-07-04T12:49:37.000Z</time>
      </trkpt>
      <trkpt lat="46.13612" lon="6.76758">
        <ele>1535</ele>
        <time>2016-07-04T12:49:38.000Z</time>
      </trkpt>
      <trkpt lat="46.13621" lon="6.76758">
        <ele>1539</ele>
        <time>2016-07-04T12:49:55.000Z</time>
      </trkpt>
      <trkpt lat="46.13622" lon="6.76756">
        <ele>1538</ele>
        <time>2016-07-04T12:49:56.000Z</time>
      </trkpt>
      <trkpt lat="46.13628" lon="6.76748">
        <ele>1538</ele>
        <time>2016-07-04T12:50:06.000Z</time>
      </trkpt>
      <trkpt lat="46.13629" lon="6.76747">
        <ele>1538</ele>
        <time>2016-07-04T12:50:07.000Z</time>
      </trkpt>
      <trkpt lat="46.13633" lon="6.76738">
        <ele>1538</ele>
        <time>2016-07-04T12:50:16.000Z</time>
      </trkpt>
      <trkpt lat="46.13633" lon="6.76735">
        <ele>1537</ele>
        <time>2016-07-04T12:50:17.000Z</time>
      </trkpt>
      <trkpt lat="46.13641" lon="6.76729">
        <ele>1541</ele>
        <time>2016-07-04T12:50:30.000Z</time>
      </trkpt>
      <trkpt lat="46.13642" lon="6.76729">
        <ele>1541</ele>
        <time>2016-07-04T12:50:31.000Z</time>
      </trkpt>
      <trkpt lat="46.13651" lon="6.76726">
        <ele>1541</ele>
        <time>2016-07-04T12:50:49.000Z</time>
      </trkpt>
      <trkpt lat="46.13653" lon="6.76723">
        <ele>1541</ele>
        <time>2016-07-04T12:50:50.000Z</time>
      </trkpt>
      <trkpt lat="46.1366" lon="6.76721">
        <ele>1544</ele>
        <time>2016-07-04T12:51:38.000Z</time>
      </trkpt>
      <trkpt lat="46.13662" lon="6.76717">
        <ele>1545</ele>
        <time>2016-07-04T12:51:39.000Z</time>
      </trkpt>
      <trkpt lat="46.1367" lon="6.76715">
        <ele>1547</ele>
        <time>2016-07-04T12:51:49.000Z</time>
      </trkpt>
      <trkpt lat="46.13671" lon="6.76716">
        <ele>1547</ele>
        <time>2016-07-04T12:51:50.000Z</time>
      </trkpt>
      <trkpt lat="46.13672" lon="6.76718">
        <ele>1547</ele>
        <time>2016-07-04T12:51:53.000Z</time>
      </trkpt>
      <trkpt lat="46.13672" lon="6.76718">
        <ele>1549</ele>
        <time>2016-07-04T12:51:54.000Z</time>
      </trkpt>
      <trkpt lat="46.13674" lon="6.76719">
        <ele>1547</ele>
        <time>2016-07-04T12:51:55.000Z</time>
      </trkpt>
      <trkpt lat="46.13673" lon="6.76719">
        <ele>1547</ele>
        <time>2016-07-04T12:51:56.000Z</time>
      </trkpt>
      <trkpt lat="46.13673" lon="6.76719">
        <ele>1546</ele>
        <time>2016-07-04T12:51:57.000Z</time>
      </trkpt>
      <trkpt lat="46.13676" lon="6.76712">
        <ele>1548</ele>
        <time>2016-07-04T12:52:03.000Z</time>
      </trkpt>
      <trkpt lat="46.13676" lon="6.76714">
        <ele>1548</ele>
        <time>2016-07-04T12:52:04.000Z</time>
      </trkpt>
      <trkpt lat="46.13677" lon="6.76712">
        <ele>1544</ele>
        <time>2016-07-04T12:52:05.000Z</time>
      </trkpt>
      <trkpt lat="46.13685" lon="6.76712">
        <ele>1543</ele>
        <time>2016-07-04T12:52:11.000Z</time>
      </trkpt>
      <trkpt lat="46.13686" lon="6.76712">
        <ele>1543</ele>
        <time>2016-07-04T12:52:12.000Z</time>
      </trkpt>
      <trkpt lat="46.1369" lon="6.76714">
        <ele>1546</ele>
        <time>2016-07-04T12:52:42.000Z</time>
      </trkpt>
      <trkpt lat="46.13694" lon="6.76718">
        <ele>1546</ele>
        <time>2016-07-04T12:52:43.000Z</time>
      </trkpt>
      <trkpt lat="46.13702" lon="6.7672">
        <ele>1544</ele>
        <time>2016-07-04T12:52:48.000Z</time>
      </trkpt>
      <trkpt lat="46.13703" lon="6.76718">
        <ele>1542</ele>
        <time>2016-07-04T12:52:49.000Z</time>
      </trkpt>
      <trkpt lat="46.13711" lon="6.7671">
        <ele>1546</ele>
        <time>2016-07-04T12:53:00.000Z</time>
      </trkpt>
      <trkpt lat="46.13711" lon="6.7671">
        <ele>1546</ele>
        <time>2016-07-04T12:53:01.000Z</time>
      </trkpt>
      <trkpt lat="46.13711" lon="6.7671">
        <ele>1547</ele>
        <time>2016-07-04T12:53:02.000Z</time>
      </trkpt>
      <trkpt lat="46.13711" lon="6.7671">
        <ele>1547</ele>
        <time>2016-07-04T12:53:03.000Z</time>
      </trkpt>
      <trkpt lat="46.13712" lon="6.76711">
        <ele>1547</ele>
        <time>2016-07-04T12:53:04.000Z</time>
      </trkpt>
      <trkpt lat="46.13712" lon="6.76711">
        <ele>1547</ele>
        <time>2016-07-04T12:53:05.000Z</time>
      </trkpt>
      <trkpt lat="46.13709" lon="6.76699">
        <ele>1548</ele>
        <time>2016-07-04T12:53:17.000Z</time>
      </trkpt>
      <trkpt lat="46.13708" lon="6.76698">
        <ele>1548</ele>
        <time>2016-07-04T12:53:18.000Z</time>
      </trkpt>
      <trkpt lat="46.13706" lon="6.76686">
        <ele>1551</ele>
        <time>2016-07-04T12:53:28.000Z</time>
      </trkpt>
      <trkpt lat="46.13706" lon="6.76685">
        <ele>1552</ele>
        <time>2016-07-04T12:53:29.000Z</time>
      </trkpt>
      <trkpt lat="46.13699" lon="6.76678">
        <ele>1554</ele>
        <time>2016-07-04T12:53:44.000Z</time>
      </trkpt>
      <trkpt lat="46.13699" lon="6.76677">
        <ele>1554</ele>
        <time>2016-07-04T12:53:45.000Z</time>
      </trkpt>
      <trkpt lat="46.13692" lon="6.76668">
        <ele>1556</ele>
        <time>2016-07-04T12:53:52.000Z</time>
      </trkpt>
      <trkpt lat="46.13691" lon="6.76668">
        <ele>1553</ele>
        <time>2016-07-04T12:53:53.000Z</time>
      </trkpt>
      <trkpt lat="46.13683" lon="6.76664">
        <ele>1559</ele>
        <time>2016-07-04T12:54:04.000Z</time>
      </trkpt>
      <trkpt lat="46.13682" lon="6.76663">
        <ele>1560</ele>
        <time>2016-07-04T12:54:05.000Z</time>
      </trkpt>
      <trkpt lat="46.13678" lon="6.76661">
        <ele>1561</ele>
        <time>2016-07-04T12:54:09.000Z</time>
      </trkpt>
      <trkpt lat="46.13679" lon="6.76662">
        <ele>1560</ele>
        <time>2016-07-04T12:54:10.000Z</time>
      </trkpt>
      <trkpt lat="46.13678" lon="6.7666">
        <ele>1560</ele>
        <time>2016-07-04T12:54:11.000Z</time>
      </trkpt>
      <trkpt lat="46.13678" lon="6.76661">
        <ele>1562</ele>
        <time>2016-07-04T12:54:12.000Z</time>
      </trkpt>
      <trkpt lat="46.1367" lon="6.76655">
        <ele>1565</ele>
        <time>2016-07-04T12:54:22.000Z</time>
      </trkpt>
      <trkpt lat="46.1367" lon="6.76653">
        <ele>1565</ele>
        <time>2016-07-04T12:54:23.000Z</time>
      </trkpt>
      <trkpt lat="46.13662" lon="6.76649">
        <ele>1563</ele>
        <time>2016-07-04T12:54:34.000Z</time>
      </trkpt>
      <trkpt lat="46.13661" lon="6.7665">
        <ele>1563</ele>
        <time>2016-07-04T12:54:35.000Z</time>
      </trkpt>
      <trkpt lat="46.13655" lon="6.76647">
        <ele>1569</ele>
        <time>2016-07-04T12:54:43.000Z</time>
      </trkpt>
      <trkpt lat="46.13652" lon="6.76647">
        <ele>1567</ele>
        <time>2016-07-04T12:54:44.000Z</time>
      </trkpt>
      <trkpt lat="46.13646" lon="6.76637">
        <ele>1567</ele>
        <time>2016-07-04T12:54:59.000Z</time>
      </trkpt>
      <trkpt lat="46.13646" lon="6.76637">
        <ele>1568</ele>
        <time>2016-07-04T12:55:00.000Z</time>
      </trkpt>
      <trkpt lat="46.1364" lon="6.76629">
        <ele>1565</ele>
        <time>2016-07-04T12:55:08.000Z</time>
      </trkpt>
      <trkpt lat="46.13638" lon="6.76629">
        <ele>1566</ele>
        <time>2016-07-04T12:55:09.000Z</time>
      </trkpt>
      <trkpt lat="46.13631" lon="6.76623">
        <ele>1561</ele>
        <time>2016-07-04T12:55:15.000Z</time>
      </trkpt>
      <trkpt lat="46.1363" lon="6.76623">
        <ele>1560</ele>
        <time>2016-07-04T12:55:16.000Z</time>
      </trkpt>
      <trkpt lat="46.13622" lon="6.76619">
        <ele>1560</ele>
        <time>2016-07-04T12:55:27.000Z</time>
      </trkpt>
      <trkpt lat="46.13621" lon="6.76618">
        <ele>1560</ele>
        <time>2016-07-04T12:55:28.000Z</time>
      </trkpt>
      <trkpt lat="46.13614" lon="6.7661">
        <ele>1560</ele>
        <time>2016-07-04T12:55:38.000Z</time>
      </trkpt>
      <trkpt lat="46.13613" lon="6.7661">
        <ele>1559</ele>
        <time>2016-07-04T12:55:39.000Z</time>
      </trkpt>
      <trkpt lat="46.13607" lon="6.766">
        <ele>1565</ele>
        <time>2016-07-04T12:55:51.000Z</time>
      </trkpt>
      <trkpt lat="46.13606" lon="6.766">
        <ele>1563</ele>
        <time>2016-07-04T12:55:52.000Z</time>
      </trkpt>
      <trkpt lat="46.13598" lon="6.76601">
        <ele>1566</ele>
        <time>2016-07-04T12:56:15.000Z</time>
      </trkpt>
      <trkpt lat="46.13597" lon="6.76602">
        <ele>1566</ele>
        <time>2016-07-04T12:56:16.000Z</time>
      </trkpt>
      <trkpt lat="46.13589" lon="6.76609">
        <ele>1568</ele>
        <time>2016-07-04T12:56:26.000Z</time>
      </trkpt>
      <trkpt lat="46.13589" lon="6.7661">
        <ele>1568</ele>
        <time>2016-07-04T12:56:27.000Z</time>
      </trkpt>
      <trkpt lat="46.13584" lon="6.76621">
        <ele>1577</ele>
        <time>2016-07-04T12:56:37.000Z</time>
      </trkpt>
      <trkpt lat="46.13584" lon="6.76621">
        <ele>1577</ele>
        <time>2016-07-04T12:56:38.000Z</time>
      </trkpt>
      <trkpt lat="46.13578" lon="6.7663">
        <ele>1577</ele>
        <time>2016-07-04T12:56:46.000Z</time>
      </trkpt>
      <trkpt lat="46.13577" lon="6.7663">
        <ele>1576</ele>
        <time>2016-07-04T12:56:47.000Z</time>
      </trkpt>
      <trkpt lat="46.13569" lon="6.76636">
        <ele>1579</ele>
        <time>2016-07-04T12:56:57.000Z</time>
      </trkpt>
      <trkpt lat="46.13568" lon="6.76636">
        <ele>1580</ele>
        <time>2016-07-04T12:56:58.000Z</time>
      </trkpt>
      <trkpt lat="46.1356" lon="6.76631">
        <ele>1579</ele>
        <time>2016-07-04T12:57:09.000Z</time>
      </trkpt>
      <trkpt lat="46.13559" lon="6.7663">
        <ele>1578</ele>
        <time>2016-07-04T12:57:10.000Z</time>
      </trkpt>
      <trkpt lat="46.13552" lon="6.76625">
        <ele>1578</ele>
        <time>2016-07-04T12:57:18.000Z</time>
      </trkpt>
      <trkpt lat="46.13551" lon="6.76625">
        <ele>1580</ele>
        <time>2016-07-04T12:57:19.000Z</time>
      </trkpt>
      <trkpt lat="46.13542" lon="6.76622">
        <ele>1581</ele>
        <time>2016-07-04T12:57:26.000Z</time>
      </trkpt>
      <trkpt lat="46.13542" lon="6.76621">
        <ele>1584</ele>
        <time>2016-07-04T12:57:27.000Z</time>
      </trkpt>
      <trkpt lat="46.13535" lon="6.76615">
        <ele>1582</ele>
        <time>2016-07-04T12:57:35.000Z</time>
      </trkpt>
      <trkpt lat="46.13534" lon="6.76613">
        <ele>1583</ele>
        <time>2016-07-04T12:57:36.000Z</time>
      </trkpt>
      <trkpt lat="46.13532" lon="6.76601">
        <ele>1583</ele>
        <time>2016-07-04T12:57:44.000Z</time>
      </trkpt>
      <trkpt lat="46.13532" lon="6.766">
        <ele>1583</ele>
        <time>2016-07-04T12:57:45.000Z</time>
      </trkpt>
      <trkpt lat="46.1353" lon="6.76589">
        <ele>1585</ele>
        <time>2016-07-04T12:57:57.000Z</time>
      </trkpt>
      <trkpt lat="46.1353" lon="6.76587">
        <ele>1583</ele>
        <time>2016-07-04T12:57:58.000Z</time>
      </trkpt>
      <trkpt lat="46.13532" lon="6.76574">
        <ele>1583</ele>
        <time>2016-07-04T12:58:10.000Z</time>
      </trkpt>
      <trkpt lat="46.13531" lon="6.76573">
        <ele>1582</ele>
        <time>2016-07-04T12:58:11.000Z</time>
      </trkpt>
      <trkpt lat="46.13527" lon="6.76563">
        <ele>1583</ele>
        <time>2016-07-04T12:58:18.000Z</time>
      </trkpt>
      <trkpt lat="46.13526" lon="6.76559">
        <ele>1581</ele>
        <time>2016-07-04T12:58:19.000Z</time>
      </trkpt>
      <trkpt lat="46.1352" lon="6.76551">
        <ele>1582</ele>
        <time>2016-07-04T12:58:29.000Z</time>
      </trkpt>
      <trkpt lat="46.13519" lon="6.76549">
        <ele>1582</ele>
        <time>2016-07-04T12:58:30.000Z</time>
      </trkpt>
      <trkpt lat="46.13514" lon="6.76539">
        <ele>1582</ele>
        <time>2016-07-04T12:58:39.000Z</time>
      </trkpt>
      <trkpt lat="46.13513" lon="6.76538">
        <ele>1582</ele>
        <time>2016-07-04T12:58:40.000Z</time>
      </trkpt>
      <trkpt lat="46.13509" lon="6.76527">
        <ele>1587</ele>
        <time>2016-07-04T12:58:50.000Z</time>
      </trkpt>
      <trkpt lat="46.13508" lon="6.76527">
        <ele>1587</ele>
        <time>2016-07-04T12:58:51.000Z</time>
      </trkpt>
      <trkpt lat="46.13503" lon="6.76519">
        <ele>1592</ele>
        <time>2016-07-04T12:59:02.000Z</time>
      </trkpt>
      <trkpt lat="46.13501" lon="6.76518">
        <ele>1591</ele>
        <time>2016-07-04T12:59:03.000Z</time>
      </trkpt>
      <trkpt lat="46.13493" lon="6.76514">
        <ele>1596</ele>
        <time>2016-07-04T12:59:16.000Z</time>
      </trkpt>
      <trkpt lat="46.13492" lon="6.76514">
        <ele>1596</ele>
        <time>2016-07-04T12:59:17.000Z</time>
      </trkpt>
      <trkpt lat="46.13484" lon="6.76509">
        <ele>1598</ele>
        <time>2016-07-04T12:59:26.000Z</time>
      </trkpt>
      <trkpt lat="46.13484" lon="6.76508">
        <ele>1599</ele>
        <time>2016-07-04T12:59:27.000Z</time>
      </trkpt>
      <trkpt lat="46.13475" lon="6.76503">
        <ele>1602</ele>
        <time>2016-07-04T12:59:36.000Z</time>
      </trkpt>
      <trkpt lat="46.13475" lon="6.76503">
        <ele>1602</ele>
        <time>2016-07-04T12:59:37.000Z</time>
      </trkpt>
      <trkpt lat="46.13468" lon="6.76495">
        <ele>1601</ele>
        <time>2016-07-04T12:59:48.000Z</time>
      </trkpt>
      <trkpt lat="46.13467" lon="6.76494">
        <ele>1601</ele>
        <time>2016-07-04T12:59:49.000Z</time>
      </trkpt>
      <trkpt lat="46.13461" lon="6.76485">
        <ele>1604</ele>
        <time>2016-07-04T13:00:00.000Z</time>
      </trkpt>
      <trkpt lat="46.13461" lon="6.76484">
        <ele>1605</ele>
        <time>2016-07-04T13:00:01.000Z</time>
      </trkpt>
      <trkpt lat="46.13452" lon="6.76483">
        <ele>1606</ele>
        <time>2016-07-04T13:00:14.000Z</time>
      </trkpt>
      <trkpt lat="46.1345" lon="6.76482">
        <ele>1605</ele>
        <time>2016-07-04T13:00:15.000Z</time>
      </trkpt>
      <trkpt lat="46.13441" lon="6.76478">
        <ele>1604</ele>
        <time>2016-07-04T13:00:20.000Z</time>
      </trkpt>
      <trkpt lat="46.1344" lon="6.76477">
        <ele>1603</ele>
        <time>2016-07-04T13:00:21.000Z</time>
      </trkpt>
      <trkpt lat="46.13432" lon="6.76473">
        <ele>1599</ele>
        <time>2016-07-04T13:00:28.000Z</time>
      </trkpt>
      <trkpt lat="46.13431" lon="6.76472">
        <ele>1599</ele>
        <time>2016-07-04T13:00:29.000Z</time>
      </trkpt>
      <trkpt lat="46.13425" lon="6.76466">
        <ele>1598</ele>
        <time>2016-07-04T13:00:37.000Z</time>
      </trkpt>
      <trkpt lat="46.13423" lon="6.76465">
        <ele>1597</ele>
        <time>2016-07-04T13:00:38.000Z</time>
      </trkpt>
      <trkpt lat="46.13415" lon="6.76459">
        <ele>1586</ele>
        <time>2016-07-04T13:00:52.000Z</time>
      </trkpt>
      <trkpt lat="46.13415" lon="6.76458">
        <ele>1587</ele>
        <time>2016-07-04T13:00:53.000Z</time>
      </trkpt>
      <trkpt lat="46.13408" lon="6.76451">
        <ele>1588</ele>
        <time>2016-07-04T13:01:01.000Z</time>
      </trkpt>
      <trkpt lat="46.13407" lon="6.76451">
        <ele>1588</ele>
        <time>2016-07-04T13:01:02.000Z</time>
      </trkpt>
      <trkpt lat="46.13401" lon="6.76441">
        <ele>1589</ele>
        <time>2016-07-04T13:01:13.000Z</time>
      </trkpt>
      <trkpt lat="46.13401" lon="6.7644">
        <ele>1588</ele>
        <time>2016-07-04T13:01:14.000Z</time>
      </trkpt>
      <trkpt lat="46.13395" lon="6.76431">
        <ele>1585</ele>
        <time>2016-07-04T13:01:22.000Z</time>
      </trkpt>
      <trkpt lat="46.13395" lon="6.7643">
        <ele>1585</ele>
        <time>2016-07-04T13:01:23.000Z</time>
      </trkpt>
      <trkpt lat="46.13387" lon="6.76426">
        <ele>1585</ele>
        <time>2016-07-04T13:01:31.000Z</time>
      </trkpt>
      <trkpt lat="46.13386" lon="6.76425">
        <ele>1592</ele>
        <time>2016-07-04T13:01:32.000Z</time>
      </trkpt>
      <trkpt lat="46.13377" lon="6.76427">
        <ele>1598</ele>
        <time>2016-07-04T13:01:41.000Z</time>
      </trkpt>
      <trkpt lat="46.13376" lon="6.76427">
        <ele>1598</ele>
        <time>2016-07-04T13:01:42.000Z</time>
      </trkpt>
      <trkpt lat="46.13368" lon="6.76432">
        <ele>1597</ele>
        <time>2016-07-04T13:01:50.000Z</time>
      </trkpt>
      <trkpt lat="46.13367" lon="6.76432">
        <ele>1596</ele>
        <time>2016-07-04T13:01:51.000Z</time>
      </trkpt>
      <trkpt lat="46.13359" lon="6.76434">
        <ele>1599</ele>
        <time>2016-07-04T13:01:59.000Z</time>
      </trkpt>
      <trkpt lat="46.13358" lon="6.76434">
        <ele>1600</ele>
        <time>2016-07-04T13:02:00.000Z</time>
      </trkpt>
      <trkpt lat="46.13349" lon="6.76435">
        <ele>1603</ele>
        <time>2016-07-04T13:02:12.000Z</time>
      </trkpt>
      <trkpt lat="46.13348" lon="6.76435">
        <ele>1602</ele>
        <time>2016-07-04T13:02:13.000Z</time>
      </trkpt>
      <trkpt lat="46.1334" lon="6.76434">
        <ele>1599</ele>
        <time>2016-07-04T13:02:22.000Z</time>
      </trkpt>
      <trkpt lat="46.13339" lon="6.76433">
        <ele>1604</ele>
        <time>2016-07-04T13:02:23.000Z</time>
      </trkpt>
      <trkpt lat="46.13331" lon="6.76436">
        <ele>1614</ele>
        <time>2016-07-04T13:02:36.000Z</time>
      </trkpt>
      <trkpt lat="46.1333" lon="6.76435">
        <ele>1613</ele>
        <time>2016-07-04T13:02:37.000Z</time>
      </trkpt>
      <trkpt lat="46.13321" lon="6.76431">
        <ele>1615</ele>
        <time>2016-07-04T13:02:47.000Z</time>
      </trkpt>
      <trkpt lat="46.1332" lon="6.76431">
        <ele>1615</ele>
        <time>2016-07-04T13:02:48.000Z</time>
      </trkpt>
      <trkpt lat="46.13312" lon="6.76429">
        <ele>1615</ele>
        <time>2016-07-04T13:02:58.000Z</time>
      </trkpt>
      <trkpt lat="46.13311" lon="6.76429">
        <ele>1615</ele>
        <time>2016-07-04T13:02:59.000Z</time>
      </trkpt>
      <trkpt lat="46.13302" lon="6.76429">
        <ele>1614</ele>
        <time>2016-07-04T13:03:09.000Z</time>
      </trkpt>
      <trkpt lat="46.13301" lon="6.76429">
        <ele>1613</ele>
        <time>2016-07-04T13:03:10.000Z</time>
      </trkpt>
      <trkpt lat="46.13294" lon="6.76428">
        <ele>1613</ele>
        <time>2016-07-04T13:03:19.000Z</time>
      </trkpt>
      <trkpt lat="46.13292" lon="6.76427">
        <ele>1613</ele>
        <time>2016-07-04T13:03:20.000Z</time>
      </trkpt>
      <trkpt lat="46.13285" lon="6.76425">
        <ele>1611</ele>
        <time>2016-07-04T13:03:29.000Z</time>
      </trkpt>
      <trkpt lat="46.13283" lon="6.76422">
        <ele>1615</ele>
        <time>2016-07-04T13:03:30.000Z</time>
      </trkpt>
      <trkpt lat="46.13275" lon="6.76426">
        <ele>1618</ele>
        <time>2016-07-04T13:03:39.000Z</time>
      </trkpt>
      <trkpt lat="46.13274" lon="6.76427">
        <ele>1617</ele>
        <time>2016-07-04T13:03:40.000Z</time>
      </trkpt>
      <trkpt lat="46.13265" lon="6.76426">
        <ele>1617</ele>
        <time>2016-07-04T13:03:50.000Z</time>
      </trkpt>
      <trkpt lat="46.13265" lon="6.76427">
        <ele>1618</ele>
        <time>2016-07-04T13:03:51.000Z</time>
      </trkpt>
      <trkpt lat="46.13257" lon="6.76423">
        <ele>1622</ele>
        <time>2016-07-04T13:04:00.000Z</time>
      </trkpt>
      <trkpt lat="46.13256" lon="6.76421">
        <ele>1623</ele>
        <time>2016-07-04T13:04:01.000Z</time>
      </trkpt>
      <trkpt lat="46.13247" lon="6.76418">
        <ele>1624</ele>
        <time>2016-07-04T13:04:12.000Z</time>
      </trkpt>
      <trkpt lat="46.13247" lon="6.76418">
        <ele>1624</ele>
        <time>2016-07-04T13:04:13.000Z</time>
      </trkpt>
      <trkpt lat="46.13238" lon="6.76414">
        <ele>1624</ele>
        <time>2016-07-04T13:04:21.000Z</time>
      </trkpt>
      <trkpt lat="46.13238" lon="6.76413">
        <ele>1623</ele>
        <time>2016-07-04T13:04:22.000Z</time>
      </trkpt>
      <trkpt lat="46.13229" lon="6.76415">
        <ele>1629</ele>
        <time>2016-07-04T13:04:32.000Z</time>
      </trkpt>
      <trkpt lat="46.13228" lon="6.76416">
        <ele>1628</ele>
        <time>2016-07-04T13:04:33.000Z</time>
      </trkpt>
      <trkpt lat="46.13222" lon="6.76425">
        <ele>1629</ele>
        <time>2016-07-04T13:04:42.000Z</time>
      </trkpt>
      <trkpt lat="46.1322" lon="6.76425">
        <ele>1630</ele>
        <time>2016-07-04T13:04:43.000Z</time>
      </trkpt>
      <trkpt lat="46.13216" lon="6.76436">
        <ele>1637</ele>
        <time>2016-07-04T13:04:52.000Z</time>
      </trkpt>
      <trkpt lat="46.13215" lon="6.76437">
        <ele>1636</ele>
        <time>2016-07-04T13:04:53.000Z</time>
      </trkpt>
      <trkpt lat="46.13208" lon="6.76442">
        <ele>1637</ele>
        <time>2016-07-04T13:05:02.000Z</time>
      </trkpt>
      <trkpt lat="46.13206" lon="6.76442">
        <ele>1636</ele>
        <time>2016-07-04T13:05:03.000Z</time>
      </trkpt>
      <trkpt lat="46.132" lon="6.76437">
        <ele>1634</ele>
        <time>2016-07-04T13:05:09.000Z</time>
      </trkpt>
      <trkpt lat="46.13199" lon="6.76434">
        <ele>1633</ele>
        <time>2016-07-04T13:05:10.000Z</time>
      </trkpt>
      <trkpt lat="46.13194" lon="6.76425">
        <ele>1637</ele>
        <time>2016-07-04T13:05:27.000Z</time>
      </trkpt>
      <trkpt lat="46.13193" lon="6.76423">
        <ele>1636</ele>
        <time>2016-07-04T13:05:28.000Z</time>
      </trkpt>
      <trkpt lat="46.13189" lon="6.76413">
        <ele>1638</ele>
        <time>2016-07-04T13:05:36.000Z</time>
      </trkpt>
      <trkpt lat="46.13188" lon="6.76412">
        <ele>1638</ele>
        <time>2016-07-04T13:05:37.000Z</time>
      </trkpt>
      <trkpt lat="46.13181" lon="6.76404">
        <ele>1638</ele>
        <time>2016-07-04T13:05:46.000Z</time>
      </trkpt>
      <trkpt lat="46.13181" lon="6.76404">
        <ele>1638</ele>
        <time>2016-07-04T13:05:47.000Z</time>
      </trkpt>
      <trkpt lat="46.13174" lon="6.76395">
        <ele>1638</ele>
        <time>2016-07-04T13:05:55.000Z</time>
      </trkpt>
      <trkpt lat="46.13173" lon="6.76395">
        <ele>1638</ele>
        <time>2016-07-04T13:05:56.000Z</time>
      </trkpt>
      <trkpt lat="46.13166" lon="6.76388">
        <ele>1641</ele>
        <time>2016-07-04T13:06:04.000Z</time>
      </trkpt>
      <trkpt lat="46.13165" lon="6.76388">
        <ele>1642</ele>
        <time>2016-07-04T13:06:05.000Z</time>
      </trkpt>
      <trkpt lat="46.13157" lon="6.76384">
        <ele>1643</ele>
        <time>2016-07-04T13:06:15.000Z</time>
      </trkpt>
      <trkpt lat="46.13155" lon="6.76385">
        <ele>1644</ele>
        <time>2016-07-04T13:06:16.000Z</time>
      </trkpt>
      <trkpt lat="46.13147" lon="6.76385">
        <ele>1647</ele>
        <time>2016-07-04T13:06:26.000Z</time>
      </trkpt>
      <trkpt lat="46.13146" lon="6.76385">
        <ele>1646</ele>
        <time>2016-07-04T13:06:27.000Z</time>
      </trkpt>
      <trkpt lat="46.13141" lon="6.76374">
        <ele>1644</ele>
        <time>2016-07-04T13:06:44.000Z</time>
      </trkpt>
      <trkpt lat="46.13141" lon="6.76373">
        <ele>1643</ele>
        <time>2016-07-04T13:06:45.000Z</time>
      </trkpt>
      <trkpt lat="46.13145" lon="6.76361">
        <ele>1648</ele>
        <time>2016-07-04T13:06:52.000Z</time>
      </trkpt>
      <trkpt lat="46.13145" lon="6.7636">
        <ele>1648</ele>
        <time>2016-07-04T13:06:53.000Z</time>
      </trkpt>
      <trkpt lat="46.13147" lon="6.76349">
        <ele>1655</ele>
        <time>2016-07-04T13:07:00.000Z</time>
      </trkpt>
      <trkpt lat="46.13147" lon="6.76347">
        <ele>1655</ele>
        <time>2016-07-04T13:07:01.000Z</time>
      </trkpt>
      <trkpt lat="46.13147" lon="6.76335">
        <ele>1654</ele>
        <time>2016-07-04T13:07:08.000Z</time>
      </trkpt>
      <trkpt lat="46.13147" lon="6.76334">
        <ele>1656</ele>
        <time>2016-07-04T13:07:09.000Z</time>
      </trkpt>
      <trkpt lat="46.13144" lon="6.76323">
        <ele>1653</ele>
        <time>2016-07-04T13:07:16.000Z</time>
      </trkpt>
      <trkpt lat="46.13144" lon="6.7632">
        <ele>1653</ele>
        <time>2016-07-04T13:07:17.000Z</time>
      </trkpt>
      <trkpt lat="46.13142" lon="6.76309">
        <ele>1658</ele>
        <time>2016-07-04T13:07:27.000Z</time>
      </trkpt>
      <trkpt lat="46.13142" lon="6.76307">
        <ele>1658</ele>
        <time>2016-07-04T13:07:28.000Z</time>
      </trkpt>
      <trkpt lat="46.13142" lon="6.76294">
        <ele>1663</ele>
        <time>2016-07-04T13:07:38.000Z</time>
      </trkpt>
      <trkpt lat="46.13142" lon="6.76293">
        <ele>1663</ele>
        <time>2016-07-04T13:07:39.000Z</time>
      </trkpt>
      <trkpt lat="46.13142" lon="6.76281">
        <ele>1661</ele>
        <time>2016-07-04T13:07:47.000Z</time>
      </trkpt>
      <trkpt lat="46.13141" lon="6.76279">
        <ele>1661</ele>
        <time>2016-07-04T13:07:48.000Z</time>
      </trkpt>
      <trkpt lat="46.13141" lon="6.76266">
        <ele>1663</ele>
        <time>2016-07-04T13:07:57.000Z</time>
      </trkpt>
      <trkpt lat="46.13141" lon="6.76264">
        <ele>1663</ele>
        <time>2016-07-04T13:07:58.000Z</time>
      </trkpt>
      <trkpt lat="46.13139" lon="6.76252">
        <ele>1664</ele>
        <time>2016-07-04T13:08:08.000Z</time>
      </trkpt>
      <trkpt lat="46.13139" lon="6.7625">
        <ele>1666</ele>
        <time>2016-07-04T13:08:09.000Z</time>
      </trkpt>
      <trkpt lat="46.13142" lon="6.76238">
        <ele>1670</ele>
        <time>2016-07-04T13:08:19.000Z</time>
      </trkpt>
      <trkpt lat="46.13142" lon="6.76237">
        <ele>1671</ele>
        <time>2016-07-04T13:08:20.000Z</time>
      </trkpt>
      <trkpt lat="46.13145" lon="6.76226">
        <ele>1673</ele>
        <time>2016-07-04T13:08:28.000Z</time>
      </trkpt>
      <trkpt lat="46.13146" lon="6.76225">
        <ele>1672</ele>
        <time>2016-07-04T13:08:29.000Z</time>
      </trkpt>
      <trkpt lat="46.1315" lon="6.76215">
        <ele>1672</ele>
        <time>2016-07-04T13:08:37.000Z</time>
      </trkpt>
      <trkpt lat="46.13151" lon="6.76213">
        <ele>1672</ele>
        <time>2016-07-04T13:08:38.000Z</time>
      </trkpt>
      <trkpt lat="46.13157" lon="6.76204">
        <ele>1674</ele>
        <time>2016-07-04T13:08:47.000Z</time>
      </trkpt>
      <trkpt lat="46.13158" lon="6.76204">
        <ele>1675</ele>
        <time>2016-07-04T13:08:48.000Z</time>
      </trkpt>
      <trkpt lat="46.13165" lon="6.76197">
        <ele>1681</ele>
        <time>2016-07-04T13:11:33.000Z</time>
      </trkpt>
      <trkpt lat="46.13166" lon="6.76196">
        <ele>1681</ele>
        <time>2016-07-04T13:11:34.000Z</time>
      </trkpt>
      <trkpt lat="46.1317" lon="6.76186">
        <ele>1679</ele>
        <time>2016-07-04T13:11:42.000Z</time>
      </trkpt>
      <trkpt lat="46.13171" lon="6.76184">
        <ele>1678</ele>
        <time>2016-07-04T13:11:43.000Z</time>
      </trkpt>
      <trkpt lat="46.13171" lon="6.76172">
        <ele>1679</ele>
        <time>2016-07-04T13:11:51.000Z</time>
      </trkpt>
      <trkpt lat="46.1317" lon="6.76171">
        <ele>1679</ele>
        <time>2016-07-04T13:11:52.000Z</time>
      </trkpt>
      <trkpt lat="46.13167" lon="6.76159">
        <ele>1682</ele>
        <time>2016-07-04T13:12:02.000Z</time>
      </trkpt>
      <trkpt lat="46.13167" lon="6.76158">
        <ele>1682</ele>
        <time>2016-07-04T13:12:03.000Z</time>
      </trkpt>
      <trkpt lat="46.13164" lon="6.76146">
        <ele>1677</ele>
        <time>2016-07-04T13:12:11.000Z</time>
      </trkpt>
      <trkpt lat="46.13164" lon="6.76144">
        <ele>1676</ele>
        <time>2016-07-04T13:12:12.000Z</time>
      </trkpt>
      <trkpt lat="46.13159" lon="6.76134">
        <ele>1673</ele>
        <time>2016-07-04T13:12:20.000Z</time>
      </trkpt>
      <trkpt lat="46.13159" lon="6.76133">
        <ele>1672</ele>
        <time>2016-07-04T13:12:21.000Z</time>
      </trkpt>
      <trkpt lat="46.13153" lon="6.76125">
        <ele>1677</ele>
        <time>2016-07-04T13:12:31.000Z</time>
      </trkpt>
      <trkpt lat="46.13152" lon="6.76124">
        <ele>1676</ele>
        <time>2016-07-04T13:12:32.000Z</time>
      </trkpt>
      <trkpt lat="46.13147" lon="6.76112">
        <ele>1677</ele>
        <time>2016-07-04T13:12:43.000Z</time>
      </trkpt>
      <trkpt lat="46.13147" lon="6.76111">
        <ele>1678</ele>
        <time>2016-07-04T13:12:44.000Z</time>
      </trkpt>
      <trkpt lat="46.13142" lon="6.76102">
        <ele>1678</ele>
        <time>2016-07-04T13:12:53.000Z</time>
      </trkpt>
      <trkpt lat="46.13141" lon="6.76101">
        <ele>1677</ele>
        <time>2016-07-04T13:12:54.000Z</time>
      </trkpt>
      <trkpt lat="46.13134" lon="6.76095">
        <ele>1681</ele>
        <time>2016-07-04T13:13:04.000Z</time>
      </trkpt>
      <trkpt lat="46.13133" lon="6.76095">
        <ele>1680</ele>
        <time>2016-07-04T13:13:05.000Z</time>
      </trkpt>
      <trkpt lat="46.13125" lon="6.76089">
        <ele>1685</ele>
        <time>2016-07-04T13:13:11.000Z</time>
      </trkpt>
      <trkpt lat="46.13125" lon="6.76088">
        <ele>1684</ele>
        <time>2016-07-04T13:13:12.000Z</time>
      </trkpt>
      <trkpt lat="46.13116" lon="6.76086">
        <ele>1688</ele>
        <time>2016-07-04T13:13:22.000Z</time>
      </trkpt>
      <trkpt lat="46.13115" lon="6.76086">
        <ele>1688</ele>
        <time>2016-07-04T13:13:23.000Z</time>
      </trkpt>
      <trkpt lat="46.13107" lon="6.76087">
        <ele>1693</ele>
        <time>2016-07-04T13:13:30.000Z</time>
      </trkpt>
      <trkpt lat="46.13106" lon="6.76087">
        <ele>1693</ele>
        <time>2016-07-04T13:13:31.000Z</time>
      </trkpt>
      <trkpt lat="46.13098" lon="6.76085">
        <ele>1699</ele>
        <time>2016-07-04T13:13:39.000Z</time>
      </trkpt>
      <trkpt lat="46.13097" lon="6.76085">
        <ele>1699</ele>
        <time>2016-07-04T13:13:40.000Z</time>
      </trkpt>
      <trkpt lat="46.13089" lon="6.76085">
        <ele>1701</ele>
        <time>2016-07-04T13:13:48.000Z</time>
      </trkpt>
      <trkpt lat="46.13088" lon="6.76083">
        <ele>1703</ele>
        <time>2016-07-04T13:13:49.000Z</time>
      </trkpt>
      <trkpt lat="46.1308" lon="6.76082">
        <ele>1702</ele>
        <time>2016-07-04T13:13:57.000Z</time>
      </trkpt>
      <trkpt lat="46.13079" lon="6.76082">
        <ele>1701</ele>
        <time>2016-07-04T13:13:58.000Z</time>
      </trkpt>
      <trkpt lat="46.13071" lon="6.76085">
        <ele>1701</ele>
        <time>2016-07-04T13:14:05.000Z</time>
      </trkpt>
      <trkpt lat="46.1307" lon="6.76086">
        <ele>1702</ele>
        <time>2016-07-04T13:14:06.000Z</time>
      </trkpt>
      <trkpt lat="46.13062" lon="6.76086">
        <ele>1703</ele>
        <time>2016-07-04T13:14:17.000Z</time>
      </trkpt>
      <trkpt lat="46.13061" lon="6.76086">
        <ele>1703</ele>
        <time>2016-07-04T13:14:18.000Z</time>
      </trkpt>
      <trkpt lat="46.13053" lon="6.76089">
        <ele>1705</ele>
        <time>2016-07-04T13:15:15.000Z</time>
      </trkpt>
      <trkpt lat="46.13052" lon="6.76089">
        <ele>1706</ele>
        <time>2016-07-04T13:15:16.000Z</time>
      </trkpt>
      <trkpt lat="46.13043" lon="6.76092">
        <ele>1708</ele>
        <time>2016-07-04T13:15:24.000Z</time>
      </trkpt>
      <trkpt lat="46.13043" lon="6.76093">
        <ele>1707</ele>
        <time>2016-07-04T13:15:25.000Z</time>
      </trkpt>
      <trkpt lat="46.13034" lon="6.76095">
        <ele>1709</ele>
        <time>2016-07-04T13:15:35.000Z</time>
      </trkpt>
      <trkpt lat="46.13033" lon="6.76095">
        <ele>1710</ele>
        <time>2016-07-04T13:15:36.000Z</time>
      </trkpt>
      <trkpt lat="46.13025" lon="6.76099">
        <ele>1707</ele>
        <time>2016-07-04T13:15:49.000Z</time>
      </trkpt>
      <trkpt lat="46.13023" lon="6.76098">
        <ele>1706</ele>
        <time>2016-07-04T13:15:50.000Z</time>
      </trkpt>
      <trkpt lat="46.13015" lon="6.76096">
        <ele>1709</ele>
        <time>2016-07-04T13:15:57.000Z</time>
      </trkpt>
      <trkpt lat="46.13014" lon="6.76097">
        <ele>1709</ele>
        <time>2016-07-04T13:15:58.000Z</time>
      </trkpt>
      <trkpt lat="46.13006" lon="6.76098">
        <ele>1712</ele>
        <time>2016-07-04T13:16:36.000Z</time>
      </trkpt>
      <trkpt lat="46.13005" lon="6.76098">
        <ele>1712</ele>
        <time>2016-07-04T13:16:37.000Z</time>
      </trkpt>
      <trkpt lat="46.12997" lon="6.76094">
        <ele>1711</ele>
        <time>2016-07-04T13:16:43.000Z</time>
      </trkpt>
      <trkpt lat="46.12996" lon="6.76093">
        <ele>1712</ele>
        <time>2016-07-04T13:16:44.000Z</time>
      </trkpt>
      <trkpt lat="46.12988" lon="6.7609">
        <ele>1712</ele>
        <time>2016-07-04T13:16:51.000Z</time>
      </trkpt>
      <trkpt lat="46.12987" lon="6.76089">
        <ele>1712</ele>
        <time>2016-07-04T13:16:52.000Z</time>
      </trkpt>
      <trkpt lat="46.12978" lon="6.76087">
        <ele>1714</ele>
        <time>2016-07-04T13:17:00.000Z</time>
      </trkpt>
      <trkpt lat="46.12977" lon="6.76088">
        <ele>1714</ele>
        <time>2016-07-04T13:17:01.000Z</time>
      </trkpt>
      <trkpt lat="46.12969" lon="6.76087">
        <ele>1713</ele>
        <time>2016-07-04T13:17:07.000Z</time>
      </trkpt>
      <trkpt lat="46.12968" lon="6.76086">
        <ele>1713</ele>
        <time>2016-07-04T13:17:08.000Z</time>
      </trkpt>
      <trkpt lat="46.12959" lon="6.76088">
        <ele>1707</ele>
        <time>2016-07-04T13:17:18.000Z</time>
      </trkpt>
      <trkpt lat="46.12959" lon="6.76088">
        <ele>1706</ele>
        <time>2016-07-04T13:17:19.000Z</time>
      </trkpt>
      <trkpt lat="46.1295" lon="6.76085">
        <ele>1704</ele>
        <time>2016-07-04T13:17:36.000Z</time>
      </trkpt>
      <trkpt lat="46.12949" lon="6.76084">
        <ele>1704</ele>
        <time>2016-07-04T13:17:37.000Z</time>
      </trkpt>
      <trkpt lat="46.12942" lon="6.76079">
        <ele>1703</ele>
        <time>2016-07-04T13:17:44.000Z</time>
      </trkpt>
      <trkpt lat="46.1294" lon="6.76078">
        <ele>1704</ele>
        <time>2016-07-04T13:17:45.000Z</time>
      </trkpt>
      <trkpt lat="46.12932" lon="6.76077">
        <ele>1698</ele>
        <time>2016-07-04T13:17:54.000Z</time>
      </trkpt>
      <trkpt lat="46.12931" lon="6.76076">
        <ele>1697</ele>
        <time>2016-07-04T13:17:55.000Z</time>
      </trkpt>
      <trkpt lat="46.12923" lon="6.76072">
        <ele>1698</ele>
        <time>2016-07-04T13:18:08.000Z</time>
      </trkpt>
      <trkpt lat="46.12922" lon="6.76071">
        <ele>1698</ele>
        <time>2016-07-04T13:18:09.000Z</time>
      </trkpt>
      <trkpt lat="46.12916" lon="6.76061">
        <ele>1698</ele>
        <time>2016-07-04T13:18:26.000Z</time>
      </trkpt>
      <trkpt lat="46.12915" lon="6.7606">
        <ele>1698</ele>
        <time>2016-07-04T13:18:27.000Z</time>
      </trkpt>
      <trkpt lat="46.12909" lon="6.76052">
        <ele>1699</ele>
        <time>2016-07-04T13:18:34.000Z</time>
      </trkpt>
      <trkpt lat="46.12907" lon="6.76051">
        <ele>1698</ele>
        <time>2016-07-04T13:18:35.000Z</time>
      </trkpt>
      <trkpt lat="46.129" lon="6.76045">
        <ele>1688</ele>
        <time>2016-07-04T13:18:45.000Z</time>
      </trkpt>
      <trkpt lat="46.12898" lon="6.76044">
        <ele>1688</ele>
        <time>2016-07-04T13:18:46.000Z</time>
      </trkpt>
      <trkpt lat="46.12892" lon="6.76035">
        <ele>1689</ele>
        <time>2016-07-04T13:18:53.000Z</time>
      </trkpt>
      <trkpt lat="46.12891" lon="6.76034">
        <ele>1689</ele>
        <time>2016-07-04T13:18:54.000Z</time>
      </trkpt>
      <trkpt lat="46.12884" lon="6.76026">
        <ele>1685</ele>
        <time>2016-07-04T13:19:02.000Z</time>
      </trkpt>
      <trkpt lat="46.12883" lon="6.76025">
        <ele>1684</ele>
        <time>2016-07-04T13:19:03.000Z</time>
      </trkpt>
      <trkpt lat="46.12878" lon="6.76017">
        <ele>1684</ele>
        <time>2016-07-04T13:19:08.000Z</time>
      </trkpt>
      <trkpt lat="46.12877" lon="6.76015">
        <ele>1685</ele>
        <time>2016-07-04T13:19:09.000Z</time>
      </trkpt>
      <trkpt lat="46.12873" lon="6.76006">
        <ele>1685</ele>
        <time>2016-07-04T13:19:15.000Z</time>
      </trkpt>
      <trkpt lat="46.12872" lon="6.76003">
        <ele>1686</ele>
        <time>2016-07-04T13:19:16.000Z</time>
      </trkpt>
      <trkpt lat="46.12866" lon="6.75996">
        <ele>1686</ele>
        <time>2016-07-04T13:19:23.000Z</time>
      </trkpt>
      <trkpt lat="46.12865" lon="6.75995">
        <ele>1685</ele>
        <time>2016-07-04T13:19:24.000Z</time>
      </trkpt>
      <trkpt lat="46.12858" lon="6.75989">
        <ele>1683</ele>
        <time>2016-07-04T13:19:32.000Z</time>
      </trkpt>
      <trkpt lat="46.12857" lon="6.75988">
        <ele>1691</ele>
        <time>2016-07-04T13:19:33.000Z</time>
      </trkpt>
      <trkpt lat="46.1285" lon="6.75982">
        <ele>1687</ele>
        <time>2016-07-04T13:19:39.000Z</time>
      </trkpt>
      <trkpt lat="46.12849" lon="6.75981">
        <ele>1687</ele>
        <time>2016-07-04T13:19:40.000Z</time>
      </trkpt>
      <trkpt lat="46.12842" lon="6.75973">
        <ele>1689</ele>
        <time>2016-07-04T13:19:47.000Z</time>
      </trkpt>
      <trkpt lat="46.12841" lon="6.75973">
        <ele>1689</ele>
        <time>2016-07-04T13:19:48.000Z</time>
      </trkpt>
      <trkpt lat="46.12834" lon="6.75968">
        <ele>1688</ele>
        <time>2016-07-04T13:19:55.000Z</time>
      </trkpt>
      <trkpt lat="46.12832" lon="6.75967">
        <ele>1688</ele>
        <time>2016-07-04T13:19:56.000Z</time>
      </trkpt>
      <trkpt lat="46.12825" lon="6.75961">
        <ele>1689</ele>
        <time>2016-07-04T13:20:02.000Z</time>
      </trkpt>
      <trkpt lat="46.12824" lon="6.7596">
        <ele>1689</ele>
        <time>2016-07-04T13:20:03.000Z</time>
      </trkpt>
      <trkpt lat="46.12815" lon="6.75957">
        <ele>1689</ele>
        <time>2016-07-04T13:20:10.000Z</time>
      </trkpt>
      <trkpt lat="46.12815" lon="6.75955">
        <ele>1689</ele>
        <time>2016-07-04T13:20:11.000Z</time>
      </trkpt>
      <trkpt lat="46.12806" lon="6.75954">
        <ele>1682</ele>
        <time>2016-07-04T13:20:20.000Z</time>
      </trkpt>
      <trkpt lat="46.12805" lon="6.75953">
        <ele>1682</ele>
        <time>2016-07-04T13:20:21.000Z</time>
      </trkpt>
      <trkpt lat="46.12798" lon="6.75946">
        <ele>1680</ele>
        <time>2016-07-04T13:20:28.000Z</time>
      </trkpt>
      <trkpt lat="46.12797" lon="6.75945">
        <ele>1680</ele>
        <time>2016-07-04T13:20:29.000Z</time>
      </trkpt>
      <trkpt lat="46.12791" lon="6.75938">
        <ele>1673</ele>
        <time>2016-07-04T13:20:38.000Z</time>
      </trkpt>
      <trkpt lat="46.12789" lon="6.75937">
        <ele>1673</ele>
        <time>2016-07-04T13:20:39.000Z</time>
      </trkpt>
      <trkpt lat="46.12785" lon="6.75925">
        <ele>1675</ele>
        <time>2016-07-04T13:20:45.000Z</time>
      </trkpt>
      <trkpt lat="46.12785" lon="6.75924">
        <ele>1675</ele>
        <time>2016-07-04T13:20:46.000Z</time>
      </trkpt>
      <trkpt lat="46.12781" lon="6.75913">
        <ele>1675</ele>
        <time>2016-07-04T13:21:24.000Z</time>
      </trkpt>
      <trkpt lat="46.1278" lon="6.75911">
        <ele>1674</ele>
        <time>2016-07-04T13:21:25.000Z</time>
      </trkpt>
      <trkpt lat="46.12777" lon="6.75902">
        <ele>1670</ele>
        <time>2016-07-04T13:21:33.000Z</time>
      </trkpt>
      <trkpt lat="46.12775" lon="6.759">
        <ele>1669</ele>
        <time>2016-07-04T13:21:34.000Z</time>
      </trkpt>
      <trkpt lat="46.12772" lon="6.75889">
        <ele>1669</ele>
        <time>2016-07-04T13:21:42.000Z</time>
      </trkpt>
      <trkpt lat="46.12771" lon="6.75887">
        <ele>1667</ele>
        <time>2016-07-04T13:21:43.000Z</time>
      </trkpt>
      <trkpt lat="46.12767" lon="6.75877">
        <ele>1669</ele>
        <time>2016-07-04T13:21:51.000Z</time>
      </trkpt>
      <trkpt lat="46.12766" lon="6.75875">
        <ele>1669</ele>
        <time>2016-07-04T13:21:52.000Z</time>
      </trkpt>
      <trkpt lat="46.12758" lon="6.75871">
        <ele>1666</ele>
        <time>2016-07-04T13:22:02.000Z</time>
      </trkpt>
      <trkpt lat="46.12757" lon="6.75871">
        <ele>1666</ele>
        <time>2016-07-04T13:22:03.000Z</time>
      </trkpt>
      <trkpt lat="46.1275" lon="6.75865">
        <ele>1666</ele>
        <time>2016-07-04T13:22:10.000Z</time>
      </trkpt>
      <trkpt lat="46.12749" lon="6.75863">
        <ele>1666</ele>
        <time>2016-07-04T13:22:11.000Z</time>
      </trkpt>
      <trkpt lat="46.12744" lon="6.75853">
        <ele>1663</ele>
        <time>2016-07-04T13:22:18.000Z</time>
      </trkpt>
      <trkpt lat="46.12743" lon="6.75852">
        <ele>1663</ele>
        <time>2016-07-04T13:22:19.000Z</time>
      </trkpt>
      <trkpt lat="46.12736" lon="6.75844">
        <ele>1666</ele>
        <time>2016-07-04T13:22:32.000Z</time>
      </trkpt>
      <trkpt lat="46.12735" lon="6.75843">
        <ele>1664</ele>
        <time>2016-07-04T13:22:33.000Z</time>
      </trkpt>
      <trkpt lat="46.12729" lon="6.75835">
        <ele>1658</ele>
        <time>2016-07-04T13:22:44.000Z</time>
      </trkpt>
      <trkpt lat="46.12728" lon="6.75835">
        <ele>1659</ele>
        <time>2016-07-04T13:22:45.000Z</time>
      </trkpt>
      <trkpt lat="46.12721" lon="6.75826">
        <ele>1659</ele>
        <time>2016-07-04T13:22:53.000Z</time>
      </trkpt>
      <trkpt lat="46.1272" lon="6.75824">
        <ele>1659</ele>
        <time>2016-07-04T13:22:54.000Z</time>
      </trkpt>
      <trkpt lat="46.12714" lon="6.75816">
        <ele>1659</ele>
        <time>2016-07-04T13:23:01.000Z</time>
      </trkpt>
      <trkpt lat="46.12713" lon="6.75815">
        <ele>1660</ele>
        <time>2016-07-04T13:23:02.000Z</time>
      </trkpt>
      <trkpt lat="46.12705" lon="6.7581">
        <ele>1660</ele>
        <time>2016-07-04T13:23:10.000Z</time>
      </trkpt>
      <trkpt lat="46.12704" lon="6.75808">
        <ele>1659</ele>
        <time>2016-07-04T13:23:11.000Z</time>
      </trkpt>
      <trkpt lat="46.12697" lon="6.75802">
        <ele>1654</ele>
        <time>2016-07-04T13:23:20.000Z</time>
      </trkpt>
      <trkpt lat="46.12695" lon="6.75802">
        <ele>1655</ele>
        <time>2016-07-04T13:23:21.000Z</time>
      </trkpt>
      <trkpt lat="46.12687" lon="6.758">
        <ele>1654</ele>
        <time>2016-07-04T13:23:27.000Z</time>
      </trkpt>
      <trkpt lat="46.12686" lon="6.758">
        <ele>1655</ele>
        <time>2016-07-04T13:23:28.000Z</time>
      </trkpt>
      <trkpt lat="46.12678" lon="6.75793">
        <ele>1658</ele>
        <time>2016-07-04T13:23:35.000Z</time>
      </trkpt>
      <trkpt lat="46.12677" lon="6.75792">
        <ele>1658</ele>
        <time>2016-07-04T13:23:36.000Z</time>
      </trkpt>
      <trkpt lat="46.12669" lon="6.75788">
        <ele>1654</ele>
        <time>2016-07-04T13:23:44.000Z</time>
      </trkpt>
      <trkpt lat="46.12668" lon="6.75787">
        <ele>1654</ele>
        <time>2016-07-04T13:23:45.000Z</time>
      </trkpt>
      <trkpt lat="46.12661" lon="6.75781">
        <ele>1656</ele>
        <time>2016-07-04T13:23:52.000Z</time>
      </trkpt>
      <trkpt lat="46.1266" lon="6.75779">
        <ele>1655</ele>
        <time>2016-07-04T13:23:53.000Z</time>
      </trkpt>
      <trkpt lat="46.12653" lon="6.75772">
        <ele>1656</ele>
        <time>2016-07-04T13:24:01.000Z</time>
      </trkpt>
      <trkpt lat="46.12652" lon="6.75771">
        <ele>1656</ele>
        <time>2016-07-04T13:24:02.000Z</time>
      </trkpt>
      <trkpt lat="46.12644" lon="6.75767">
        <ele>1654</ele>
        <time>2016-07-04T13:24:10.000Z</time>
      </trkpt>
      <trkpt lat="46.12643" lon="6.75766">
        <ele>1654</ele>
        <time>2016-07-04T13:24:11.000Z</time>
      </trkpt>
      <trkpt lat="46.12638" lon="6.75758">
        <ele>1651</ele>
        <time>2016-07-04T13:24:19.000Z</time>
      </trkpt>
      <trkpt lat="46.12637" lon="6.75757">
        <ele>1650</ele>
        <time>2016-07-04T13:24:20.000Z</time>
      </trkpt>
      <trkpt lat="46.12637" lon="6.75745">
        <ele>1646</ele>
        <time>2016-07-04T13:24:32.000Z</time>
      </trkpt>
      <trkpt lat="46.12636" lon="6.75743">
        <ele>1649</ele>
        <time>2016-07-04T13:24:33.000Z</time>
      </trkpt>
      <trkpt lat="46.12636" lon="6.75731">
        <ele>1647</ele>
        <time>2016-07-04T13:24:41.000Z</time>
      </trkpt>
      <trkpt lat="46.12635" lon="6.75729">
        <ele>1647</ele>
        <time>2016-07-04T13:24:42.000Z</time>
      </trkpt>
      <trkpt lat="46.12632" lon="6.75717">
        <ele>1646</ele>
        <time>2016-07-04T13:24:50.000Z</time>
      </trkpt>
      <trkpt lat="46.12632" lon="6.75716">
        <ele>1646</ele>
        <time>2016-07-04T13:24:51.000Z</time>
      </trkpt>
      <trkpt lat="46.12627" lon="6.75705">
        <ele>1645</ele>
        <time>2016-07-04T13:25:02.000Z</time>
      </trkpt>
      <trkpt lat="46.12626" lon="6.75703">
        <ele>1645</ele>
        <time>2016-07-04T13:25:03.000Z</time>
      </trkpt>
      <trkpt lat="46.12623" lon="6.75692">
        <ele>1644</ele>
        <time>2016-07-04T13:25:12.000Z</time>
      </trkpt>
      <trkpt lat="46.12622" lon="6.75691">
        <ele>1644</ele>
        <time>2016-07-04T13:25:13.000Z</time>
      </trkpt>
      <trkpt lat="46.12616" lon="6.75682">
        <ele>1639</ele>
        <time>2016-07-04T13:25:22.000Z</time>
      </trkpt>
      <trkpt lat="46.12616" lon="6.75681">
        <ele>1638</ele>
        <time>2016-07-04T13:25:23.000Z</time>
      </trkpt>
      <trkpt lat="46.12609" lon="6.75672">
        <ele>1637</ele>
        <time>2016-07-04T13:25:32.000Z</time>
      </trkpt>
      <trkpt lat="46.12609" lon="6.75671">
        <ele>1637</ele>
        <time>2016-07-04T13:25:33.000Z</time>
      </trkpt>
      <trkpt lat="46.12606" lon="6.7566">
        <ele>1637</ele>
        <time>2016-07-04T13:25:39.000Z</time>
      </trkpt>
      <trkpt lat="46.12605" lon="6.75659">
        <ele>1639</ele>
        <time>2016-07-04T13:25:40.000Z</time>
      </trkpt>
      <trkpt lat="46.126" lon="6.75649">
        <ele>1639</ele>
        <time>2016-07-04T13:25:48.000Z</time>
      </trkpt>
      <trkpt lat="46.126" lon="6.75648">
        <ele>1638</ele>
        <time>2016-07-04T13:25:49.000Z</time>
      </trkpt>
      <trkpt lat="46.12594" lon="6.7564">
        <ele>1638</ele>
        <time>2016-07-04T13:25:56.000Z</time>
      </trkpt>
      <trkpt lat="46.12593" lon="6.75637">
        <ele>1639</ele>
        <time>2016-07-04T13:25:57.000Z</time>
      </trkpt>
      <trkpt lat="46.1259" lon="6.75626">
        <ele>1637</ele>
        <time>2016-07-04T13:26:06.000Z</time>
      </trkpt>
      <trkpt lat="46.1259" lon="6.75624">
        <ele>1636</ele>
        <time>2016-07-04T13:26:07.000Z</time>
      </trkpt>
      <trkpt lat="46.12587" lon="6.75613">
        <ele>1633</ele>
        <time>2016-07-04T13:26:13.000Z</time>
      </trkpt>
      <trkpt lat="46.12586" lon="6.75611">
        <ele>1633</ele>
        <time>2016-07-04T13:26:14.000Z</time>
      </trkpt>
      <trkpt lat="46.12583" lon="6.756">
        <ele>1627</ele>
        <time>2016-07-04T13:26:20.000Z</time>
      </trkpt>
      <trkpt lat="46.12583" lon="6.75598">
        <ele>1627</ele>
        <time>2016-07-04T13:26:21.000Z</time>
      </trkpt>
      <trkpt lat="46.12578" lon="6.75587">
        <ele>1623</ele>
        <time>2016-07-04T13:26:28.000Z</time>
      </trkpt>
      <trkpt lat="46.12577" lon="6.75586">
        <ele>1623</ele>
        <time>2016-07-04T13:26:29.000Z</time>
      </trkpt>
      <trkpt lat="46.12573" lon="6.75576">
        <ele>1619</ele>
        <time>2016-07-04T13:26:35.000Z</time>
      </trkpt>
      <trkpt lat="46.12572" lon="6.75574">
        <ele>1618</ele>
        <time>2016-07-04T13:26:36.000Z</time>
      </trkpt>
      <trkpt lat="46.12564" lon="6.7557">
        <ele>1620</ele>
        <time>2016-07-04T13:26:44.000Z</time>
      </trkpt>
      <trkpt lat="46.12563" lon="6.75569">
        <ele>1620</ele>
        <time>2016-07-04T13:26:45.000Z</time>
      </trkpt>
      <trkpt lat="46.12555" lon="6.75563">
        <ele>1624</ele>
        <time>2016-07-04T13:26:52.000Z</time>
      </trkpt>
      <trkpt lat="46.12554" lon="6.75562">
        <ele>1625</ele>
        <time>2016-07-04T13:26:53.000Z</time>
      </trkpt>
      <trkpt lat="46.12547" lon="6.75554">
        <ele>1626</ele>
        <time>2016-07-04T13:27:00.000Z</time>
      </trkpt>
      <trkpt lat="46.12546" lon="6.75553">
        <ele>1625</ele>
        <time>2016-07-04T13:27:01.000Z</time>
      </trkpt>
      <trkpt lat="46.12538" lon="6.75548">
        <ele>1622</ele>
        <time>2016-07-04T13:27:10.000Z</time>
      </trkpt>
      <trkpt lat="46.12536" lon="6.75548">
        <ele>1621</ele>
        <time>2016-07-04T13:27:11.000Z</time>
      </trkpt>
      <trkpt lat="46.1253" lon="6.75541">
        <ele>1616</ele>
        <time>2016-07-04T13:27:21.000Z</time>
      </trkpt>
      <trkpt lat="46.12529" lon="6.7554">
        <ele>1616</ele>
        <time>2016-07-04T13:27:22.000Z</time>
      </trkpt>
      <trkpt lat="46.12522" lon="6.75532">
        <ele>1616</ele>
        <time>2016-07-04T13:27:32.000Z</time>
      </trkpt>
      <trkpt lat="46.12521" lon="6.75531">
        <ele>1614</ele>
        <time>2016-07-04T13:27:33.000Z</time>
      </trkpt>
      <trkpt lat="46.12514" lon="6.75526">
        <ele>1614</ele>
        <time>2016-07-04T13:27:41.000Z</time>
      </trkpt>
      <trkpt lat="46.12513" lon="6.75525">
        <ele>1613</ele>
        <time>2016-07-04T13:27:42.000Z</time>
      </trkpt>
      <trkpt lat="46.12506" lon="6.7552">
        <ele>1611</ele>
        <time>2016-07-04T13:27:48.000Z</time>
      </trkpt>
      <trkpt lat="46.12505" lon="6.75518">
        <ele>1613</ele>
        <time>2016-07-04T13:27:49.000Z</time>
      </trkpt>
      <trkpt lat="46.12497" lon="6.75515">
        <ele>1611</ele>
        <time>2016-07-04T13:27:57.000Z</time>
      </trkpt>
      <trkpt lat="46.12496" lon="6.75514">
        <ele>1611</ele>
        <time>2016-07-04T13:27:58.000Z</time>
      </trkpt>
      <trkpt lat="46.12489" lon="6.75509">
        <ele>1610</ele>
        <time>2016-07-04T13:28:04.000Z</time>
      </trkpt>
      <trkpt lat="46.12488" lon="6.75508">
        <ele>1610</ele>
        <time>2016-07-04T13:28:05.000Z</time>
      </trkpt>
      <trkpt lat="46.12483" lon="6.75499">
        <ele>1608</ele>
        <time>2016-07-04T13:28:11.000Z</time>
      </trkpt>
      <trkpt lat="46.12483" lon="6.75496">
        <ele>1608</ele>
        <time>2016-07-04T13:28:12.000Z</time>
      </trkpt>
      <trkpt lat="46.12477" lon="6.75488">
        <ele>1604</ele>
        <time>2016-07-04T13:28:19.000Z</time>
      </trkpt>
      <trkpt lat="46.12476" lon="6.75486">
        <ele>1604</ele>
        <time>2016-07-04T13:28:20.000Z</time>
      </trkpt>
      <trkpt lat="46.12469" lon="6.75478">
        <ele>1600</ele>
        <time>2016-07-04T13:28:28.000Z</time>
      </trkpt>
      <trkpt lat="46.12468" lon="6.75477">
        <ele>1600</ele>
        <time>2016-07-04T13:28:29.000Z</time>
      </trkpt>
      <trkpt lat="46.12461" lon="6.7547">
        <ele>1600</ele>
        <time>2016-07-04T13:28:36.000Z</time>
      </trkpt>
      <trkpt lat="46.1246" lon="6.75469">
        <ele>1600</ele>
        <time>2016-07-04T13:28:37.000Z</time>
      </trkpt>
      <trkpt lat="46.12452" lon="6.75464">
        <ele>1600</ele>
        <time>2016-07-04T13:28:44.000Z</time>
      </trkpt>
      <trkpt lat="46.12451" lon="6.75463">
        <ele>1600</ele>
        <time>2016-07-04T13:28:45.000Z</time>
      </trkpt>
      <trkpt lat="46.12444" lon="6.75457">
        <ele>1602</ele>
        <time>2016-07-04T13:28:51.000Z</time>
      </trkpt>
      <trkpt lat="46.12442" lon="6.75456">
        <ele>1602</ele>
        <time>2016-07-04T13:28:52.000Z</time>
      </trkpt>
      <trkpt lat="46.12435" lon="6.75451">
        <ele>1601</ele>
        <time>2016-07-04T13:29:04.000Z</time>
      </trkpt>
      <trkpt lat="46.12434" lon="6.7545">
        <ele>1601</ele>
        <time>2016-07-04T13:29:05.000Z</time>
      </trkpt>
      <trkpt lat="46.12426" lon="6.75445">
        <ele>1598</ele>
        <time>2016-07-04T13:29:13.000Z</time>
      </trkpt>
      <trkpt lat="46.12425" lon="6.75444">
        <ele>1598</ele>
        <time>2016-07-04T13:29:14.000Z</time>
      </trkpt>
      <trkpt lat="46.12416" lon="6.7544">
        <ele>1597</ele>
        <time>2016-07-04T13:29:21.000Z</time>
      </trkpt>
      <trkpt lat="46.12415" lon="6.75439">
        <ele>1597</ele>
        <time>2016-07-04T13:29:22.000Z</time>
      </trkpt>
      <trkpt lat="46.12409" lon="6.75433">
        <ele>1598</ele>
        <time>2016-07-04T13:29:28.000Z</time>
      </trkpt>
      <trkpt lat="46.12408" lon="6.75431">
        <ele>1599</ele>
        <time>2016-07-04T13:29:29.000Z</time>
      </trkpt>
      <trkpt lat="46.12401" lon="6.75424">
        <ele>1600</ele>
        <time>2016-07-04T13:29:35.000Z</time>
      </trkpt>
      <trkpt lat="46.124" lon="6.75423">
        <ele>1600</ele>
        <time>2016-07-04T13:29:36.000Z</time>
      </trkpt>
      <trkpt lat="46.12393" lon="6.75418">
        <ele>1599</ele>
        <time>2016-07-04T13:29:43.000Z</time>
      </trkpt>
      <trkpt lat="46.12391" lon="6.75416">
        <ele>1601</ele>
        <time>2016-07-04T13:29:44.000Z</time>
      </trkpt>
      <trkpt lat="46.12383" lon="6.75416">
        <ele>1591</ele>
        <time>2016-07-04T13:29:53.000Z</time>
      </trkpt>
      <trkpt lat="46.12382" lon="6.75415">
        <ele>1590</ele>
        <time>2016-07-04T13:29:54.000Z</time>
      </trkpt>
      <trkpt lat="46.12375" lon="6.75408">
        <ele>1588</ele>
        <time>2016-07-04T13:30:03.000Z</time>
      </trkpt>
      <trkpt lat="46.12374" lon="6.75407">
        <ele>1588</ele>
        <time>2016-07-04T13:30:04.000Z</time>
      </trkpt>
      <trkpt lat="46.12368" lon="6.754">
        <ele>1583</ele>
        <time>2016-07-04T13:30:13.000Z</time>
      </trkpt>
      <trkpt lat="46.12367" lon="6.75398">
        <ele>1583</ele>
        <time>2016-07-04T13:30:14.000Z</time>
      </trkpt>
      <trkpt lat="46.1236" lon="6.7539">
        <ele>1581</ele>
        <time>2016-07-04T13:30:22.000Z</time>
      </trkpt>
      <trkpt lat="46.12359" lon="6.7539">
        <ele>1581</ele>
        <time>2016-07-04T13:30:23.000Z</time>
      </trkpt>
      <trkpt lat="46.12352" lon="6.75381">
        <ele>1580</ele>
        <time>2016-07-04T13:30:31.000Z</time>
      </trkpt>
      <trkpt lat="46.12351" lon="6.75381">
        <ele>1580</ele>
        <time>2016-07-04T13:30:32.000Z</time>
      </trkpt>
      <trkpt lat="46.12344" lon="6.75373">
        <ele>1579</ele>
        <time>2016-07-04T13:30:39.000Z</time>
      </trkpt>
      <trkpt lat="46.12344" lon="6.75372">
        <ele>1579</ele>
        <time>2016-07-04T13:30:40.000Z</time>
      </trkpt>
      <trkpt lat="46.12338" lon="6.75362">
        <ele>1579</ele>
        <time>2016-07-04T13:30:49.000Z</time>
      </trkpt>
      <trkpt lat="46.12337" lon="6.75362">
        <ele>1579</ele>
        <time>2016-07-04T13:30:50.000Z</time>
      </trkpt>
      <trkpt lat="46.12329" lon="6.75359">
        <ele>1578</ele>
        <time>2016-07-04T13:30:57.000Z</time>
      </trkpt>
      <trkpt lat="46.12327" lon="6.75359">
        <ele>1577</ele>
        <time>2016-07-04T13:30:58.000Z</time>
      </trkpt>
      <trkpt lat="46.12319" lon="6.75357">
        <ele>1575</ele>
        <time>2016-07-04T13:31:05.000Z</time>
      </trkpt>
      <trkpt lat="46.12317" lon="6.75357">
        <ele>1574</ele>
        <time>2016-07-04T13:31:06.000Z</time>
      </trkpt>
      <trkpt lat="46.12309" lon="6.75352">
        <ele>1570</ele>
        <time>2016-07-04T13:31:18.000Z</time>
      </trkpt>
      <trkpt lat="46.12308" lon="6.75351">
        <ele>1571</ele>
        <time>2016-07-04T13:31:19.000Z</time>
      </trkpt>
      <trkpt lat="46.12301" lon="6.75342">
        <ele>1569</ele>
        <time>2016-07-04T13:31:26.000Z</time>
      </trkpt>
      <trkpt lat="46.123" lon="6.75341">
        <ele>1569</ele>
        <time>2016-07-04T13:31:27.000Z</time>
      </trkpt>
      <trkpt lat="46.12294" lon="6.75333">
        <ele>1572</ele>
        <time>2016-07-04T13:31:34.000Z</time>
      </trkpt>
      <trkpt lat="46.12293" lon="6.75331">
        <ele>1573</ele>
        <time>2016-07-04T13:31:35.000Z</time>
      </trkpt>
      <trkpt lat="46.12286" lon="6.75326">
        <ele>1573</ele>
        <time>2016-07-04T13:31:42.000Z</time>
      </trkpt>
      <trkpt lat="46.12285" lon="6.75325">
        <ele>1573</ele>
        <time>2016-07-04T13:31:43.000Z</time>
      </trkpt>
      <trkpt lat="46.12277" lon="6.7532">
        <ele>1575</ele>
        <time>2016-07-04T13:31:49.000Z</time>
      </trkpt>
      <trkpt lat="46.12276" lon="6.7532">
        <ele>1575</ele>
        <time>2016-07-04T13:31:50.000Z</time>
      </trkpt>
      <trkpt lat="46.12268" lon="6.75315">
        <ele>1574</ele>
        <time>2016-07-04T13:31:57.000Z</time>
      </trkpt>
      <trkpt lat="46.12267" lon="6.75314">
        <ele>1574</ele>
        <time>2016-07-04T13:31:58.000Z</time>
      </trkpt>
      <trkpt lat="46.12259" lon="6.75308">
        <ele>1573</ele>
        <time>2016-07-04T13:32:05.000Z</time>
      </trkpt>
      <trkpt lat="46.12258" lon="6.75306">
        <ele>1573</ele>
        <time>2016-07-04T13:32:06.000Z</time>
      </trkpt>
      <trkpt lat="46.12252" lon="6.75297">
        <ele>1572</ele>
        <time>2016-07-04T13:32:14.000Z</time>
      </trkpt>
      <trkpt lat="46.12251" lon="6.75296">
        <ele>1572</ele>
        <time>2016-07-04T13:32:15.000Z</time>
      </trkpt>
      <trkpt lat="46.12249" lon="6.75284">
        <ele>1565</ele>
        <time>2016-07-04T13:32:30.000Z</time>
      </trkpt>
      <trkpt lat="46.12249" lon="6.75282">
        <ele>1565</ele>
        <time>2016-07-04T13:32:31.000Z</time>
      </trkpt>
      <trkpt lat="46.12242" lon="6.75275">
        <ele>1562</ele>
        <time>2016-07-04T13:32:39.000Z</time>
      </trkpt>
      <trkpt lat="46.12241" lon="6.75275">
        <ele>1561</ele>
        <time>2016-07-04T13:32:40.000Z</time>
      </trkpt>
      <trkpt lat="46.12232" lon="6.75271">
        <ele>1560</ele>
        <time>2016-07-04T13:32:49.000Z</time>
      </trkpt>
      <trkpt lat="46.12232" lon="6.75271">
        <ele>1561</ele>
        <time>2016-07-04T13:32:50.000Z</time>
      </trkpt>
      <trkpt lat="46.12224" lon="6.75267">
        <ele>1560</ele>
        <time>2016-07-04T13:32:57.000Z</time>
      </trkpt>
      <trkpt lat="46.12222" lon="6.75268">
        <ele>1560</ele>
        <time>2016-07-04T13:32:58.000Z</time>
      </trkpt>
      <trkpt lat="46.12216" lon="6.75262">
        <ele>1558</ele>
        <time>2016-07-04T13:33:06.000Z</time>
      </trkpt>
      <trkpt lat="46.12214" lon="6.75261">
        <ele>1558</ele>
        <time>2016-07-04T13:33:07.000Z</time>
      </trkpt>
      <trkpt lat="46.12207" lon="6.75256">
        <ele>1557</ele>
        <time>2016-07-04T13:33:14.000Z</time>
      </trkpt>
      <trkpt lat="46.12206" lon="6.75255">
        <ele>1557</ele>
        <time>2016-07-04T13:33:15.000Z</time>
      </trkpt>
      <trkpt lat="46.12198" lon="6.75251">
        <ele>1555</ele>
        <time>2016-07-04T13:33:22.000Z</time>
      </trkpt>
      <trkpt lat="46.12197" lon="6.75251">
        <ele>1554</ele>
        <time>2016-07-04T13:33:23.000Z</time>
      </trkpt>
      <trkpt lat="46.12191" lon="6.75244">
        <ele>1552</ele>
        <time>2016-07-04T13:34:12.000Z</time>
      </trkpt>
      <trkpt lat="46.12189" lon="6.75242">
        <ele>1552</ele>
        <time>2016-07-04T13:34:13.000Z</time>
      </trkpt>
      <trkpt lat="46.12183" lon="6.75234">
        <ele>1549</ele>
        <time>2016-07-04T13:34:22.000Z</time>
      </trkpt>
      <trkpt lat="46.12182" lon="6.75233">
        <ele>1549</ele>
        <time>2016-07-04T13:34:23.000Z</time>
      </trkpt>
      <trkpt lat="46.12175" lon="6.75226">
        <ele>1546</ele>
        <time>2016-07-04T13:34:34.000Z</time>
      </trkpt>
      <trkpt lat="46.12174" lon="6.75225">
        <ele>1545</ele>
        <time>2016-07-04T13:34:35.000Z</time>
      </trkpt>
      <trkpt lat="46.12166" lon="6.75221">
        <ele>1542</ele>
        <time>2016-07-04T13:34:41.000Z</time>
      </trkpt>
      <trkpt lat="46.12165" lon="6.7522">
        <ele>1541</ele>
        <time>2016-07-04T13:34:42.000Z</time>
      </trkpt>
      <trkpt lat="46.12159" lon="6.75213">
        <ele>1538</ele>
        <time>2016-07-04T13:34:50.000Z</time>
      </trkpt>
      <trkpt lat="46.12158" lon="6.75212">
        <ele>1539</ele>
        <time>2016-07-04T13:34:51.000Z</time>
      </trkpt>
      <trkpt lat="46.12151" lon="6.75204">
        <ele>1536</ele>
        <time>2016-07-04T13:34:58.000Z</time>
      </trkpt>
      <trkpt lat="46.1215" lon="6.75203">
        <ele>1536</ele>
        <time>2016-07-04T13:34:59.000Z</time>
      </trkpt>
      <trkpt lat="46.12143" lon="6.75194">
        <ele>1538</ele>
        <time>2016-07-04T13:35:05.000Z</time>
      </trkpt>
      <trkpt lat="46.12143" lon="6.75193">
        <ele>1537</ele>
        <time>2016-07-04T13:35:06.000Z</time>
      </trkpt>
      <trkpt lat="46.12139" lon="6.75182">
        <ele>1536</ele>
        <time>2016-07-04T13:35:13.000Z</time>
      </trkpt>
      <trkpt lat="46.12138" lon="6.75181">
        <ele>1537</ele>
        <time>2016-07-04T13:35:14.000Z</time>
      </trkpt>
      <trkpt lat="46.12133" lon="6.75171">
        <ele>1533</ele>
        <time>2016-07-04T13:35:21.000Z</time>
      </trkpt>
      <trkpt lat="46.12132" lon="6.75169">
        <ele>1533</ele>
        <time>2016-07-04T13:35:22.000Z</time>
      </trkpt>
      <trkpt lat="46.12128" lon="6.75158">
        <ele>1530</ele>
        <time>2016-07-04T13:35:30.000Z</time>
      </trkpt>
      <trkpt lat="46.12127" lon="6.75157">
        <ele>1531</ele>
        <time>2016-07-04T13:35:31.000Z</time>
      </trkpt>
      <trkpt lat="46.12125" lon="6.75146">
        <ele>1529</ele>
        <time>2016-07-04T13:35:38.000Z</time>
      </trkpt>
      <trkpt lat="46.12125" lon="6.75144">
        <ele>1530</ele>
        <time>2016-07-04T13:35:39.000Z</time>
      </trkpt>
      <trkpt lat="46.12127" lon="6.75132">
        <ele>1525</ele>
        <time>2016-07-04T13:35:47.000Z</time>
      </trkpt>
      <trkpt lat="46.12127" lon="6.75131">
        <ele>1525</ele>
        <time>2016-07-04T13:35:48.000Z</time>
      </trkpt>
      <trkpt lat="46.12123" lon="6.7512">
        <ele>1526</ele>
        <time>2016-07-04T13:35:54.000Z</time>
      </trkpt>
      <trkpt lat="46.12123" lon="6.75117">
        <ele>1528</ele>
        <time>2016-07-04T13:35:55.000Z</time>
      </trkpt>
      <trkpt lat="46.12116" lon="6.75109">
        <ele>1526</ele>
        <time>2016-07-04T13:36:04.000Z</time>
      </trkpt>
      <trkpt lat="46.12115" lon="6.75108">
        <ele>1527</ele>
        <time>2016-07-04T13:36:05.000Z</time>
      </trkpt>
      <trkpt lat="46.12108" lon="6.75103">
        <ele>1529</ele>
        <time>2016-07-04T13:36:12.000Z</time>
      </trkpt>
      <trkpt lat="46.12107" lon="6.75102">
        <ele>1530</ele>
        <time>2016-07-04T13:36:13.000Z</time>
      </trkpt>
      <trkpt lat="46.12098" lon="6.75102">
        <ele>1526</ele>
        <time>2016-07-04T13:36:22.000Z</time>
      </trkpt>
      <trkpt lat="46.12096" lon="6.75102">
        <ele>1526</ele>
        <time>2016-07-04T13:36:23.000Z</time>
      </trkpt>
      <trkpt lat="46.12088" lon="6.75102">
        <ele>1526</ele>
        <time>2016-07-04T13:36:30.000Z</time>
      </trkpt>
      <trkpt lat="46.12086" lon="6.75102">
        <ele>1526</ele>
        <time>2016-07-04T13:36:31.000Z</time>
      </trkpt>
      <trkpt lat="46.1208" lon="6.75093">
        <ele>1528</ele>
        <time>2016-07-04T13:36:40.000Z</time>
      </trkpt>
      <trkpt lat="46.1208" lon="6.75091">
        <ele>1529</ele>
        <time>2016-07-04T13:36:41.000Z</time>
      </trkpt>
      <trkpt lat="46.12077" lon="6.75081">
        <ele>1528</ele>
        <time>2016-07-04T13:36:46.000Z</time>
      </trkpt>
      <trkpt lat="46.12076" lon="6.75079">
        <ele>1527</ele>
        <time>2016-07-04T13:36:47.000Z</time>
      </trkpt>
      <trkpt lat="46.12074" lon="6.7507">
        <ele>1525</ele>
        <time>2016-07-04T13:36:52.000Z</time>
      </trkpt>
      <trkpt lat="46.12073" lon="6.75064">
        <ele>1528</ele>
        <time>2016-07-04T13:36:53.000Z</time>
      </trkpt>
      <trkpt lat="46.12071" lon="6.75052">
        <ele>1528</ele>
        <time>2016-07-04T13:37:09.000Z</time>
      </trkpt>
      <trkpt lat="46.12071" lon="6.75052">
        <ele>1528</ele>
        <time>2016-07-04T13:37:10.000Z</time>
      </trkpt>
      <trkpt lat="46.12071" lon="6.75054">
        <ele>1527</ele>
        <time>2016-07-04T13:37:11.000Z</time>
      </trkpt>
      <trkpt lat="46.12072" lon="6.75066">
        <ele>1518</ele>
        <time>2016-07-04T13:37:12.000Z</time>
      </trkpt>
      <trkpt lat="46.12078" lon="6.75057">
        <ele>1513</ele>
        <time>2016-07-04T13:37:25.000Z</time>
      </trkpt>
      <trkpt lat="46.12079" lon="6.75054">
        <ele>1513</ele>
        <time>2016-07-04T13:37:26.000Z</time>
      </trkpt>
      <trkpt lat="46.12079" lon="6.75043">
        <ele>1512</ele>
        <time>2016-07-04T13:37:32.000Z</time>
      </trkpt>
      <trkpt lat="46.12079" lon="6.75041">
        <ele>1513</ele>
        <time>2016-07-04T13:37:33.000Z</time>
      </trkpt>
      <trkpt lat="46.1208" lon="6.75028">
        <ele>1512</ele>
        <time>2016-07-04T13:37:41.000Z</time>
      </trkpt>
      <trkpt lat="46.1208" lon="6.75027">
        <ele>1512</ele>
        <time>2016-07-04T13:37:42.000Z</time>
      </trkpt>
      <trkpt lat="46.12081" lon="6.75014">
        <ele>1504</ele>
        <time>2016-07-04T13:37:54.000Z</time>
      </trkpt>
      <trkpt lat="46.12081" lon="6.75013">
        <ele>1503</ele>
        <time>2016-07-04T13:37:55.000Z</time>
      </trkpt>
      <trkpt lat="46.12084" lon="6.75001">
        <ele>1502</ele>
        <time>2016-07-04T13:38:03.000Z</time>
      </trkpt>
      <trkpt lat="46.12084" lon="6.75">
        <ele>1502</ele>
        <time>2016-07-04T13:38:04.000Z</time>
      </trkpt>
      <trkpt lat="46.12086" lon="6.74989">
        <ele>1501</ele>
        <time>2016-07-04T13:38:11.000Z</time>
      </trkpt>
      <trkpt lat="46.12086" lon="6.74987">
        <ele>1501</ele>
        <time>2016-07-04T13:38:12.000Z</time>
      </trkpt>
      <trkpt lat="46.12087" lon="6.74975">
        <ele>1499</ele>
        <time>2016-07-04T13:38:19.000Z</time>
      </trkpt>
      <trkpt lat="46.12086" lon="6.74973">
        <ele>1498</ele>
        <time>2016-07-04T13:38:20.000Z</time>
      </trkpt>
      <trkpt lat="46.12086" lon="6.7496">
        <ele>1497</ele>
        <time>2016-07-04T13:38:28.000Z</time>
      </trkpt>
      <trkpt lat="46.12086" lon="6.74959">
        <ele>1497</ele>
        <time>2016-07-04T13:38:29.000Z</time>
      </trkpt>
      <trkpt lat="46.12088" lon="6.74949">
        <ele>1496</ele>
        <time>2016-07-04T13:38:35.000Z</time>
      </trkpt>
      <trkpt lat="46.12088" lon="6.74946">
        <ele>1497</ele>
        <time>2016-07-04T13:38:36.000Z</time>
      </trkpt>
      <trkpt lat="46.1209" lon="6.74933">
        <ele>1496</ele>
        <time>2016-07-04T13:38:44.000Z</time>
      </trkpt>
      <trkpt lat="46.1209" lon="6.74932">
        <ele>1495</ele>
        <time>2016-07-04T13:38:45.000Z</time>
      </trkpt>
      <trkpt lat="46.12085" lon="6.74924">
        <ele>1493</ele>
        <time>2016-07-04T13:38:53.000Z</time>
      </trkpt>
      <trkpt lat="46.12084" lon="6.74922">
        <ele>1493</ele>
        <time>2016-07-04T13:38:54.000Z</time>
      </trkpt>
      <trkpt lat="46.1208" lon="6.74912">
        <ele>1495</ele>
        <time>2016-07-04T13:38:58.000Z</time>
      </trkpt>
      <trkpt lat="46.12079" lon="6.7491">
        <ele>1495</ele>
        <time>2016-07-04T13:38:59.000Z</time>
      </trkpt>
      <trkpt lat="46.12076" lon="6.74899">
        <ele>1495</ele>
        <time>2016-07-04T13:39:06.000Z</time>
      </trkpt>
      <trkpt lat="46.12075" lon="6.74896">
        <ele>1496</ele>
        <time>2016-07-04T13:39:07.000Z</time>
      </trkpt>
      <trkpt lat="46.12069" lon="6.74887">
        <ele>1490</ele>
        <time>2016-07-04T13:39:17.000Z</time>
      </trkpt>
      <trkpt lat="46.12068" lon="6.74885">
        <ele>1490</ele>
        <time>2016-07-04T13:39:18.000Z</time>
      </trkpt>
      <trkpt lat="46.12065" lon="6.74874">
        <ele>1489</ele>
        <time>2016-07-04T13:39:25.000Z</time>
      </trkpt>
      <trkpt lat="46.12065" lon="6.74871">
        <ele>1489</ele>
        <time>2016-07-04T13:39:26.000Z</time>
      </trkpt>
      <trkpt lat="46.12064" lon="6.7486">
        <ele>1489</ele>
        <time>2016-07-04T13:39:33.000Z</time>
      </trkpt>
      <trkpt lat="46.12064" lon="6.74858">
        <ele>1489</ele>
        <time>2016-07-04T13:39:34.000Z</time>
      </trkpt>
      <trkpt lat="46.12064" lon="6.74846">
        <ele>1485</ele>
        <time>2016-07-04T13:39:44.000Z</time>
      </trkpt>
      <trkpt lat="46.12063" lon="6.74845">
        <ele>1485</ele>
        <time>2016-07-04T13:39:45.000Z</time>
      </trkpt>
      <trkpt lat="46.12065" lon="6.74833">
        <ele>1480</ele>
        <time>2016-07-04T13:39:55.000Z</time>
      </trkpt>
      <trkpt lat="46.12065" lon="6.74832">
        <ele>1480</ele>
        <time>2016-07-04T13:39:56.000Z</time>
      </trkpt>
      <trkpt lat="46.12061" lon="6.74821">
        <ele>1476</ele>
        <time>2016-07-04T13:40:04.000Z</time>
      </trkpt>
      <trkpt lat="46.1206" lon="6.7482">
        <ele>1476</ele>
        <time>2016-07-04T13:40:05.000Z</time>
      </trkpt>
      <trkpt lat="46.12052" lon="6.74821">
        <ele>1473</ele>
        <time>2016-07-04T13:40:13.000Z</time>
      </trkpt>
      <trkpt lat="46.12051" lon="6.74822">
        <ele>1473</ele>
        <time>2016-07-04T13:40:14.000Z</time>
      </trkpt>
      <trkpt lat="46.12042" lon="6.74824">
        <ele>1472</ele>
        <time>2016-07-04T13:40:23.000Z</time>
      </trkpt>
      <trkpt lat="46.12041" lon="6.74825">
        <ele>1471</ele>
        <time>2016-07-04T13:40:24.000Z</time>
      </trkpt>
      <trkpt lat="46.12033" lon="6.74826">
        <ele>1469</ele>
        <time>2016-07-04T13:40:33.000Z</time>
      </trkpt>
      <trkpt lat="46.12032" lon="6.74826">
        <ele>1469</ele>
        <time>2016-07-04T13:40:34.000Z</time>
      </trkpt>
      <trkpt lat="46.12023" lon="6.74824">
        <ele>1468</ele>
        <time>2016-07-04T13:40:46.000Z</time>
      </trkpt>
      <trkpt lat="46.12023" lon="6.74823">
        <ele>1468</ele>
        <time>2016-07-04T13:40:47.000Z</time>
      </trkpt>
      <trkpt lat="46.12015" lon="6.74825">
        <ele>1468</ele>
        <time>2016-07-04T13:40:55.000Z</time>
      </trkpt>
      <trkpt lat="46.12013" lon="6.74826">
        <ele>1467</ele>
        <time>2016-07-04T13:40:56.000Z</time>
      </trkpt>
      <trkpt lat="46.12008" lon="6.74834">
        <ele>1461</ele>
        <time>2016-07-04T13:41:02.000Z</time>
      </trkpt>
      <trkpt lat="46.12005" lon="6.74835">
        <ele>1461</ele>
        <time>2016-07-04T13:41:03.000Z</time>
      </trkpt>
      <trkpt lat="46.11999" lon="6.74829">
        <ele>1457</ele>
        <time>2016-07-04T13:42:37.000Z</time>
      </trkpt>
      <trkpt lat="46.11999" lon="6.74829">
        <ele>1457</ele>
        <time>2016-07-04T13:42:38.000Z</time>
      </trkpt>
      <trkpt lat="46.11999" lon="6.74829">
        <ele>1456</ele>
        <time>2016-07-04T13:42:41.000Z</time>
      </trkpt>
      <trkpt lat="46.11999" lon="6.74829">
        <ele>1456</ele>
        <time>2016-07-04T13:42:42.000Z</time>
      </trkpt>
      <trkpt lat="46.11995" lon="6.74819">
        <ele>1451</ele>
        <time>2016-07-04T13:44:19.000Z</time>
      </trkpt>
      <trkpt lat="46.11994" lon="6.74818">
        <ele>1451</ele>
        <time>2016-07-04T13:44:20.000Z</time>
      </trkpt>
      <trkpt lat="46.11987" lon="6.74812">
        <ele>1448</ele>
        <time>2016-07-04T13:44:29.000Z</time>
      </trkpt>
      <trkpt lat="46.11986" lon="6.7481">
        <ele>1448</ele>
        <time>2016-07-04T13:44:30.000Z</time>
      </trkpt>
      <trkpt lat="46.11982" lon="6.748">
        <ele>1448</ele>
        <time>2016-07-04T13:44:37.000Z</time>
      </trkpt>
      <trkpt lat="46.11981" lon="6.74797">
        <ele>1449</ele>
        <time>2016-07-04T13:44:38.000Z</time>
      </trkpt>
      <trkpt lat="46.11978" lon="6.74786">
        <ele>1448</ele>
        <time>2016-07-04T13:44:47.000Z</time>
      </trkpt>
      <trkpt lat="46.11978" lon="6.74785">
        <ele>1447</ele>
        <time>2016-07-04T13:44:48.000Z</time>
      </trkpt>
      <trkpt lat="46.11976" lon="6.74774">
        <ele>1446</ele>
        <time>2016-07-04T13:44:55.000Z</time>
      </trkpt>
      <trkpt lat="46.11976" lon="6.74772">
        <ele>1446</ele>
        <time>2016-07-04T13:44:56.000Z</time>
      </trkpt>
      <trkpt lat="46.11975" lon="6.7476">
        <ele>1443</ele>
        <time>2016-07-04T13:45:07.000Z</time>
      </trkpt>
      <trkpt lat="46.11975" lon="6.74757">
        <ele>1443</ele>
        <time>2016-07-04T13:45:08.000Z</time>
      </trkpt>
      <trkpt lat="46.11972" lon="6.74746">
        <ele>1440</ele>
        <time>2016-07-04T13:45:17.000Z</time>
      </trkpt>
      <trkpt lat="46.11972" lon="6.74744">
        <ele>1440</ele>
        <time>2016-07-04T13:45:18.000Z</time>
      </trkpt>
      <trkpt lat="46.11969" lon="6.74733">
        <ele>1441</ele>
        <time>2016-07-04T13:45:26.000Z</time>
      </trkpt>
      <trkpt lat="46.11968" lon="6.74731">
        <ele>1441</ele>
        <time>2016-07-04T13:45:27.000Z</time>
      </trkpt>
      <trkpt lat="46.11962" lon="6.74724">
        <ele>1436</ele>
        <time>2016-07-04T13:45:35.000Z</time>
      </trkpt>
      <trkpt lat="46.11961" lon="6.74721">
        <ele>1436</ele>
        <time>2016-07-04T13:45:36.000Z</time>
      </trkpt>
      <trkpt lat="46.11956" lon="6.74711">
        <ele>1433</ele>
        <time>2016-07-04T13:45:46.000Z</time>
      </trkpt>
      <trkpt lat="46.11956" lon="6.7471">
        <ele>1432</ele>
        <time>2016-07-04T13:45:47.000Z</time>
      </trkpt>
      <trkpt lat="46.11951" lon="6.747">
        <ele>1433</ele>
        <time>2016-07-04T13:45:54.000Z</time>
      </trkpt>
      <trkpt lat="46.1195" lon="6.74699">
        <ele>1434</ele>
        <time>2016-07-04T13:45:55.000Z</time>
      </trkpt>
      <trkpt lat="46.11945" lon="6.74689">
        <ele>1431</ele>
        <time>2016-07-04T13:46:04.000Z</time>
      </trkpt>
      <trkpt lat="46.11944" lon="6.74687">
        <ele>1432</ele>
        <time>2016-07-04T13:46:05.000Z</time>
      </trkpt>
      <trkpt lat="46.11944" lon="6.74676">
        <ele>1432</ele>
        <time>2016-07-04T13:46:12.000Z</time>
      </trkpt>
      <trkpt lat="46.11944" lon="6.74674">
        <ele>1431</ele>
        <time>2016-07-04T13:46:13.000Z</time>
      </trkpt>
      <trkpt lat="46.11945" lon="6.74661">
        <ele>1428</ele>
        <time>2016-07-04T13:46:21.000Z</time>
      </trkpt>
      <trkpt lat="46.11945" lon="6.7466">
        <ele>1427</ele>
        <time>2016-07-04T13:46:22.000Z</time>
      </trkpt>
      <trkpt lat="46.11947" lon="6.74648">
        <ele>1426</ele>
        <time>2016-07-04T13:46:29.000Z</time>
      </trkpt>
      <trkpt lat="46.11948" lon="6.74647">
        <ele>1426</ele>
        <time>2016-07-04T13:46:30.000Z</time>
      </trkpt>
      <trkpt lat="46.11948" lon="6.74635">
        <ele>1425</ele>
        <time>2016-07-04T13:46:38.000Z</time>
      </trkpt>
      <trkpt lat="46.11948" lon="6.74633">
        <ele>1423</ele>
        <time>2016-07-04T13:46:39.000Z</time>
      </trkpt>
      <trkpt lat="46.11946" lon="6.74621">
        <ele>1420</ele>
        <time>2016-07-04T13:46:48.000Z</time>
      </trkpt>
      <trkpt lat="46.11946" lon="6.7462">
        <ele>1420</ele>
        <time>2016-07-04T13:46:49.000Z</time>
      </trkpt>
      <trkpt lat="46.11944" lon="6.74608">
        <ele>1418</ele>
        <time>2016-07-04T13:46:56.000Z</time>
      </trkpt>
      <trkpt lat="46.11944" lon="6.74606">
        <ele>1418</ele>
        <time>2016-07-04T13:46:57.000Z</time>
      </trkpt>
      <trkpt lat="46.1194" lon="6.74596">
        <ele>1418</ele>
        <time>2016-07-04T13:47:05.000Z</time>
      </trkpt>
      <trkpt lat="46.11939" lon="6.74594">
        <ele>1419</ele>
        <time>2016-07-04T13:47:06.000Z</time>
      </trkpt>
      <trkpt lat="46.11939" lon="6.74582">
        <ele>1417</ele>
        <time>2016-07-04T13:47:13.000Z</time>
      </trkpt>
      <trkpt lat="46.11939" lon="6.7458">
        <ele>1417</ele>
        <time>2016-07-04T13:47:14.000Z</time>
      </trkpt>
      <trkpt lat="46.1194" lon="6.74569">
        <ele>1413</ele>
        <time>2016-07-04T13:47:25.000Z</time>
      </trkpt>
      <trkpt lat="46.11941" lon="6.74567">
        <ele>1412</ele>
        <time>2016-07-04T13:47:26.000Z</time>
      </trkpt>
      <trkpt lat="46.11945" lon="6.74556">
        <ele>1411</ele>
        <time>2016-07-04T13:47:32.000Z</time>
      </trkpt>
      <trkpt lat="46.11944" lon="6.74554">
        <ele>1411</ele>
        <time>2016-07-04T13:47:33.000Z</time>
      </trkpt>
      <trkpt lat="46.11948" lon="6.74544">
        <ele>1407</ele>
        <time>2016-07-04T13:47:41.000Z</time>
      </trkpt>
      <trkpt lat="46.11948" lon="6.74542">
        <ele>1407</ele>
        <time>2016-07-04T13:47:42.000Z</time>
      </trkpt>
      <trkpt lat="46.1195" lon="6.7453">
        <ele>1405</ele>
        <time>2016-07-04T13:47:48.000Z</time>
      </trkpt>
      <trkpt lat="46.11949" lon="6.74528">
        <ele>1405</ele>
        <time>2016-07-04T13:47:49.000Z</time>
      </trkpt>
      <trkpt lat="46.1195" lon="6.74516">
        <ele>1405</ele>
        <time>2016-07-04T13:47:56.000Z</time>
      </trkpt>
      <trkpt lat="46.1195" lon="6.74514">
        <ele>1405</ele>
        <time>2016-07-04T13:47:57.000Z</time>
      </trkpt>
      <trkpt lat="46.11948" lon="6.74503">
        <ele>1406</ele>
        <time>2016-07-04T13:48:03.000Z</time>
      </trkpt>
      <trkpt lat="46.11948" lon="6.74501">
        <ele>1406</ele>
        <time>2016-07-04T13:48:04.000Z</time>
      </trkpt>
      <trkpt lat="46.11946" lon="6.74489">
        <ele>1402</ele>
        <time>2016-07-04T13:48:12.000Z</time>
      </trkpt>
      <trkpt lat="46.11946" lon="6.74488">
        <ele>1403</ele>
        <time>2016-07-04T13:48:13.000Z</time>
      </trkpt>
      <trkpt lat="46.11943" lon="6.74477">
        <ele>1403</ele>
        <time>2016-07-04T13:48:20.000Z</time>
      </trkpt>
      <trkpt lat="46.11944" lon="6.74474">
        <ele>1404</ele>
        <time>2016-07-04T13:48:21.000Z</time>
      </trkpt>
      <trkpt lat="46.11941" lon="6.74463">
        <ele>1399</ele>
        <time>2016-07-04T13:48:31.000Z</time>
      </trkpt>
      <trkpt lat="46.11941" lon="6.74461">
        <ele>1398</ele>
        <time>2016-07-04T13:48:32.000Z</time>
      </trkpt>
      <trkpt lat="46.11939" lon="6.7445">
        <ele>1393</ele>
        <time>2016-07-04T13:48:39.000Z</time>
      </trkpt>
      <trkpt lat="46.11938" lon="6.74448">
        <ele>1393</ele>
        <time>2016-07-04T13:48:40.000Z</time>
      </trkpt>
      <trkpt lat="46.11931" lon="6.7444">
        <ele>1392</ele>
        <time>2016-07-04T13:48:46.000Z</time>
      </trkpt>
      <trkpt lat="46.1193" lon="6.74438">
        <ele>1391</ele>
        <time>2016-07-04T13:48:47.000Z</time>
      </trkpt>
      <trkpt lat="46.11925" lon="6.74428">
        <ele>1390</ele>
        <time>2016-07-04T13:48:55.000Z</time>
      </trkpt>
      <trkpt lat="46.11924" lon="6.74427">
        <ele>1389</ele>
        <time>2016-07-04T13:48:56.000Z</time>
      </trkpt>
      <trkpt lat="46.1192" lon="6.74416">
        <ele>1389</ele>
        <time>2016-07-04T13:49:03.000Z</time>
      </trkpt>
      <trkpt lat="46.11919" lon="6.74415">
        <ele>1389</ele>
        <time>2016-07-04T13:49:04.000Z</time>
      </trkpt>
      <trkpt lat="46.11914" lon="6.74407">
        <ele>1388</ele>
        <time>2016-07-04T13:49:09.000Z</time>
      </trkpt>
      <trkpt lat="46.11912" lon="6.74406">
        <ele>1388</ele>
        <time>2016-07-04T13:49:10.000Z</time>
      </trkpt>
      <trkpt lat="46.11907" lon="6.74399">
        <ele>1385</ele>
        <time>2016-07-04T13:49:15.000Z</time>
      </trkpt>
      <trkpt lat="46.11905" lon="6.74398">
        <ele>1384</ele>
        <time>2016-07-04T13:49:16.000Z</time>
      </trkpt>
      <trkpt lat="46.11898" lon="6.74392">
        <ele>1384</ele>
        <time>2016-07-04T13:49:22.000Z</time>
      </trkpt>
      <trkpt lat="46.11897" lon="6.74391">
        <ele>1383</ele>
        <time>2016-07-04T13:49:23.000Z</time>
      </trkpt>
      <trkpt lat="46.1189" lon="6.74384">
        <ele>1381</ele>
        <time>2016-07-04T13:49:31.000Z</time>
      </trkpt>
      <trkpt lat="46.11889" lon="6.74384">
        <ele>1381</ele>
        <time>2016-07-04T13:49:32.000Z</time>
      </trkpt>
      <trkpt lat="46.11885" lon="6.74373">
        <ele>1381</ele>
        <time>2016-07-04T13:49:42.000Z</time>
      </trkpt>
      <trkpt lat="46.11885" lon="6.74371">
        <ele>1381</ele>
        <time>2016-07-04T13:49:43.000Z</time>
      </trkpt>
      <trkpt lat="46.11888" lon="6.74359">
        <ele>1377</ele>
        <time>2016-07-04T13:49:50.000Z</time>
      </trkpt>
      <trkpt lat="46.11888" lon="6.74357">
        <ele>1378</ele>
        <time>2016-07-04T13:49:51.000Z</time>
      </trkpt>
      <trkpt lat="46.11891" lon="6.74345">
        <ele>1374</ele>
        <time>2016-07-04T13:50:36.000Z</time>
      </trkpt>
      <trkpt lat="46.11891" lon="6.74344">
        <ele>1374</ele>
        <time>2016-07-04T13:50:37.000Z</time>
      </trkpt>
      <trkpt lat="46.11894" lon="6.74333">
        <ele>1372</ele>
        <time>2016-07-04T13:50:43.000Z</time>
      </trkpt>
      <trkpt lat="46.11895" lon="6.74332">
        <ele>1372</ele>
        <time>2016-07-04T13:50:44.000Z</time>
      </trkpt>
      <trkpt lat="46.11899" lon="6.74321">
        <ele>1373</ele>
        <time>2016-07-04T13:50:51.000Z</time>
      </trkpt>
      <trkpt lat="46.119" lon="6.74319">
        <ele>1374</ele>
        <time>2016-07-04T13:50:52.000Z</time>
      </trkpt>
      <trkpt lat="46.11905" lon="6.74308">
        <ele>1372</ele>
        <time>2016-07-04T13:51:03.000Z</time>
      </trkpt>
      <trkpt lat="46.11904" lon="6.74304">
        <ele>1373</ele>
        <time>2016-07-04T13:51:04.000Z</time>
      </trkpt>
      <trkpt lat="46.11904" lon="6.74292">
        <ele>1375</ele>
        <time>2016-07-04T13:51:11.000Z</time>
      </trkpt>
      <trkpt lat="46.11904" lon="6.7429">
        <ele>1375</ele>
        <time>2016-07-04T13:51:12.000Z</time>
      </trkpt>
      <trkpt lat="46.11908" lon="6.74283">
        <ele>1372</ele>
        <time>2016-07-04T13:51:18.000Z</time>
      </trkpt>
      <trkpt lat="46.11907" lon="6.74278">
        <ele>1373</ele>
        <time>2016-07-04T13:51:19.000Z</time>
      </trkpt>
      <trkpt lat="46.11909" lon="6.74266">
        <ele>1371</ele>
        <time>2016-07-04T13:51:26.000Z</time>
      </trkpt>
      <trkpt lat="46.11909" lon="6.74265">
        <ele>1372</ele>
        <time>2016-07-04T13:51:27.000Z</time>
      </trkpt>
      <trkpt lat="46.1191" lon="6.74252">
        <ele>1370</ele>
        <time>2016-07-04T13:51:34.000Z</time>
      </trkpt>
      <trkpt lat="46.11909" lon="6.7425">
        <ele>1370</ele>
        <time>2016-07-04T13:51:35.000Z</time>
      </trkpt>
      <trkpt lat="46.11912" lon="6.7424">
        <ele>1364</ele>
        <time>2016-07-04T13:51:44.000Z</time>
      </trkpt>
      <trkpt lat="46.11912" lon="6.74237">
        <ele>1364</ele>
        <time>2016-07-04T13:51:45.000Z</time>
      </trkpt>
      <trkpt lat="46.11916" lon="6.74226">
        <ele>1364</ele>
        <time>2016-07-04T13:51:52.000Z</time>
      </trkpt>
      <trkpt lat="46.11917" lon="6.74225">
        <ele>1363</ele>
        <time>2016-07-04T13:51:53.000Z</time>
      </trkpt>
      <trkpt lat="46.11921" lon="6.74216">
        <ele>1363</ele>
        <time>2016-07-04T13:51:59.000Z</time>
      </trkpt>
      <trkpt lat="46.11921" lon="6.74213">
        <ele>1362</ele>
        <time>2016-07-04T13:52:00.000Z</time>
      </trkpt>
      <trkpt lat="46.11921" lon="6.74201">
        <ele>1358</ele>
        <time>2016-07-04T13:52:12.000Z</time>
      </trkpt>
      <trkpt lat="46.1192" lon="6.742">
        <ele>1358</ele>
        <time>2016-07-04T13:52:13.000Z</time>
      </trkpt>
      <trkpt lat="46.11915" lon="6.74191">
        <ele>1359</ele>
        <time>2016-07-04T13:52:19.000Z</time>
      </trkpt>
      <trkpt lat="46.11914" lon="6.74192">
        <ele>1358</ele>
        <time>2016-07-04T13:52:20.000Z</time>
      </trkpt>
      <trkpt lat="46.11906" lon="6.74185">
        <ele>1355</ele>
        <time>2016-07-04T13:52:29.000Z</time>
      </trkpt>
      <trkpt lat="46.11906" lon="6.74183">
        <ele>1355</ele>
        <time>2016-07-04T13:52:30.000Z</time>
      </trkpt>
      <trkpt lat="46.11902" lon="6.74172">
        <ele>1353</ele>
        <time>2016-07-04T13:52:37.000Z</time>
      </trkpt>
      <trkpt lat="46.11902" lon="6.74169">
        <ele>1353</ele>
        <time>2016-07-04T13:52:38.000Z</time>
      </trkpt>
      <trkpt lat="46.11899" lon="6.74158">
        <ele>1353</ele>
        <time>2016-07-04T13:52:45.000Z</time>
      </trkpt>
      <trkpt lat="46.11899" lon="6.74157">
        <ele>1353</ele>
        <time>2016-07-04T13:52:46.000Z</time>
      </trkpt>
      <trkpt lat="46.11895" lon="6.74146">
        <ele>1350</ele>
        <time>2016-07-04T13:52:54.000Z</time>
      </trkpt>
      <trkpt lat="46.11895" lon="6.74145">
        <ele>1350</ele>
        <time>2016-07-04T13:52:55.000Z</time>
      </trkpt>
      <trkpt lat="46.11892" lon="6.74134">
        <ele>1349</ele>
        <time>2016-07-04T13:53:02.000Z</time>
      </trkpt>
      <trkpt lat="46.11891" lon="6.74132">
        <ele>1349</ele>
        <time>2016-07-04T13:53:03.000Z</time>
      </trkpt>
      <trkpt lat="46.11889" lon="6.7412">
        <ele>1352</ele>
        <time>2016-07-04T13:53:09.000Z</time>
      </trkpt>
      <trkpt lat="46.11888" lon="6.74119">
        <ele>1351</ele>
        <time>2016-07-04T13:53:10.000Z</time>
      </trkpt>
      <trkpt lat="46.11883" lon="6.74109">
        <ele>1347</ele>
        <time>2016-07-04T13:53:20.000Z</time>
      </trkpt>
      <trkpt lat="46.11883" lon="6.74108">
        <ele>1347</ele>
        <time>2016-07-04T13:53:21.000Z</time>
      </trkpt>
      <trkpt lat="46.11882" lon="6.74095">
        <ele>1340</ele>
        <time>2016-07-04T13:53:34.000Z</time>
      </trkpt>
      <trkpt lat="46.11881" lon="6.74093">
        <ele>1340</ele>
        <time>2016-07-04T13:53:35.000Z</time>
      </trkpt>
      <trkpt lat="46.1188" lon="6.74082">
        <ele>1337</ele>
        <time>2016-07-04T13:53:45.000Z</time>
      </trkpt>
      <trkpt lat="46.1188" lon="6.7408">
        <ele>1337</ele>
        <time>2016-07-04T13:53:46.000Z</time>
      </trkpt>
      <trkpt lat="46.11878" lon="6.74068">
        <ele>1337</ele>
        <time>2016-07-04T13:53:56.000Z</time>
      </trkpt>
      <trkpt lat="46.11879" lon="6.74066">
        <ele>1336</ele>
        <time>2016-07-04T13:53:57.000Z</time>
      </trkpt>
      <trkpt lat="46.1188" lon="6.74054">
        <ele>1336</ele>
        <time>2016-07-04T13:54:08.000Z</time>
      </trkpt>
      <trkpt lat="46.1188" lon="6.74053">
        <ele>1336</ele>
        <time>2016-07-04T13:54:09.000Z</time>
      </trkpt>
      <trkpt lat="46.11879" lon="6.74041">
        <ele>1330</ele>
        <time>2016-07-04T13:54:18.000Z</time>
      </trkpt>
      <trkpt lat="46.11878" lon="6.74039">
        <ele>1330</ele>
        <time>2016-07-04T13:54:19.000Z</time>
      </trkpt>
      <trkpt lat="46.11883" lon="6.74029">
        <ele>1328</ele>
        <time>2016-07-04T13:54:28.000Z</time>
      </trkpt>
      <trkpt lat="46.11884" lon="6.74028">
        <ele>1327</ele>
        <time>2016-07-04T13:54:29.000Z</time>
      </trkpt>
      <trkpt lat="46.11887" lon="6.74016">
        <ele>1323</ele>
        <time>2016-07-04T13:54:38.000Z</time>
      </trkpt>
      <trkpt lat="46.11887" lon="6.74016">
        <ele>1323</ele>
        <time>2016-07-04T13:54:39.000Z</time>
      </trkpt>
      <trkpt lat="46.1188" lon="6.74009">
        <ele>1320</ele>
        <time>2016-07-04T13:55:17.000Z</time>
      </trkpt>
      <trkpt lat="46.11879" lon="6.74007">
        <ele>1319</ele>
        <time>2016-07-04T13:55:18.000Z</time>
      </trkpt>
      <trkpt lat="46.11871" lon="6.74009">
        <ele>1319</ele>
        <time>2016-07-04T13:55:24.000Z</time>
      </trkpt>
      <trkpt lat="46.11869" lon="6.7401">
        <ele>1319</ele>
        <time>2016-07-04T13:55:25.000Z</time>
      </trkpt>
      <trkpt lat="46.11864" lon="6.74018">
        <ele>1318</ele>
        <time>2016-07-04T13:55:32.000Z</time>
      </trkpt>
      <trkpt lat="46.11863" lon="6.7402">
        <ele>1318</ele>
        <time>2016-07-04T13:55:33.000Z</time>
      </trkpt>
      <trkpt lat="46.11856" lon="6.74028">
        <ele>1312</ele>
        <time>2016-07-04T13:55:47.000Z</time>
      </trkpt>
      <trkpt lat="46.11856" lon="6.74028">
        <ele>1312</ele>
        <time>2016-07-04T13:55:48.000Z</time>
      </trkpt>
      <trkpt lat="46.11849" lon="6.74033">
        <ele>1308</ele>
        <time>2016-07-04T13:55:59.000Z</time>
      </trkpt>
      <trkpt lat="46.11848" lon="6.74037">
        <ele>1310</ele>
        <time>2016-07-04T13:56:00.000Z</time>
      </trkpt>
      <trkpt lat="46.11841" lon="6.74041">
        <ele>1315</ele>
        <time>2016-07-04T13:56:04.000Z</time>
      </trkpt>
      <trkpt lat="46.1184" lon="6.74045">
        <ele>1315</ele>
        <time>2016-07-04T13:56:05.000Z</time>
      </trkpt>
      <trkpt lat="46.11837" lon="6.74051">
        <ele>1316</ele>
        <time>2016-07-04T13:56:09.000Z</time>
      </trkpt>
      <trkpt lat="46.11837" lon="6.74052">
        <ele>1315</ele>
        <time>2016-07-04T13:56:10.000Z</time>
      </trkpt>
      <trkpt lat="46.11836" lon="6.74053">
        <ele>1315</ele>
        <time>2016-07-04T13:56:11.000Z</time>
      </trkpt>
      <trkpt lat="46.11829" lon="6.74056">
        <ele>1314</ele>
        <time>2016-07-04T13:56:18.000Z</time>
      </trkpt>
      <trkpt lat="46.11826" lon="6.74056">
        <ele>1314</ele>
        <time>2016-07-04T13:56:19.000Z</time>
      </trkpt>
      <trkpt lat="46.11818" lon="6.74058">
        <ele>1312</ele>
        <time>2016-07-04T13:56:24.000Z</time>
      </trkpt>
      <trkpt lat="46.11816" lon="6.74059">
        <ele>1314</ele>
        <time>2016-07-04T13:56:25.000Z</time>
      </trkpt>
      <trkpt lat="46.11807" lon="6.74058">
        <ele>1314</ele>
        <time>2016-07-04T13:56:31.000Z</time>
      </trkpt>
      <trkpt lat="46.11805" lon="6.74058">
        <ele>1315</ele>
        <time>2016-07-04T13:56:32.000Z</time>
      </trkpt>
      <trkpt lat="46.11797" lon="6.74062">
        <ele>1315</ele>
        <time>2016-07-04T13:56:38.000Z</time>
      </trkpt>
      <trkpt lat="46.11795" lon="6.74062">
        <ele>1316</ele>
        <time>2016-07-04T13:56:39.000Z</time>
      </trkpt>
      <trkpt lat="46.1179" lon="6.7407">
        <ele>1311</ele>
        <time>2016-07-04T13:56:47.000Z</time>
      </trkpt>
      <trkpt lat="46.11788" lon="6.74071">
        <ele>1311</ele>
        <time>2016-07-04T13:56:48.000Z</time>
      </trkpt>
      <trkpt lat="46.11785" lon="6.74082">
        <ele>1306</ele>
        <time>2016-07-04T13:56:54.000Z</time>
      </trkpt>
      <trkpt lat="46.11784" lon="6.74084">
        <ele>1306</ele>
        <time>2016-07-04T13:56:55.000Z</time>
      </trkpt>
      <trkpt lat="46.11783" lon="6.74082">
        <ele>1308</ele>
        <time>2016-07-04T13:56:56.000Z</time>
      </trkpt>
      <trkpt lat="46.11782" lon="6.74082">
        <ele>1308</ele>
        <time>2016-07-04T13:56:57.000Z</time>
      </trkpt>
      <trkpt lat="46.11782" lon="6.74083">
        <ele>1308</ele>
        <time>2016-07-04T13:56:58.000Z</time>
      </trkpt>
      <trkpt lat="46.11781" lon="6.74083">
        <ele>1308</ele>
        <time>2016-07-04T13:56:59.000Z</time>
      </trkpt>
      <trkpt lat="46.11774" lon="6.74088">
        <ele>1310</ele>
        <time>2016-07-04T13:57:09.000Z</time>
      </trkpt>
      <trkpt lat="46.11772" lon="6.74089">
        <ele>1310</ele>
        <time>2016-07-04T13:57:10.000Z</time>
      </trkpt>
      <trkpt lat="46.11764" lon="6.7409">
        <ele>1311</ele>
        <time>2016-07-04T13:57:16.000Z</time>
      </trkpt>
      <trkpt lat="46.11762" lon="6.74089">
        <ele>1312</ele>
        <time>2016-07-04T13:57:17.000Z</time>
      </trkpt>
      <trkpt lat="46.11754" lon="6.74092">
        <ele>1313</ele>
        <time>2016-07-04T13:57:24.000Z</time>
      </trkpt>
      <trkpt lat="46.11753" lon="6.74092">
        <ele>1314</ele>
        <time>2016-07-04T13:57:25.000Z</time>
      </trkpt>
      <trkpt lat="46.11744" lon="6.74091">
        <ele>1312</ele>
        <time>2016-07-04T13:57:33.000Z</time>
      </trkpt>
      <trkpt lat="46.11745" lon="6.74091">
        <ele>1312</ele>
        <time>2016-07-04T13:57:34.000Z</time>
      </trkpt>
      <trkpt lat="46.11743" lon="6.74093">
        <ele>1313</ele>
        <time>2016-07-04T13:58:15.000Z</time>
      </trkpt>
      <trkpt lat="46.11743" lon="6.74093">
        <ele>1313</ele>
        <time>2016-07-04T13:58:16.000Z</time>
      </trkpt>
      <trkpt lat="46.11735" lon="6.74099">
        <ele>1307</ele>
        <time>2016-07-04T13:58:39.000Z</time>
      </trkpt>
      <trkpt lat="46.11735" lon="6.74099">
        <ele>1307</ele>
        <time>2016-07-04T13:58:40.000Z</time>
      </trkpt>
      <trkpt lat="46.11729" lon="6.74108">
        <ele>1301</ele>
        <time>2016-07-04T13:58:49.000Z</time>
      </trkpt>
      <trkpt lat="46.11729" lon="6.7411">
        <ele>1299</ele>
        <time>2016-07-04T13:58:50.000Z</time>
      </trkpt>
      <trkpt lat="46.11724" lon="6.7412">
        <ele>1300</ele>
        <time>2016-07-04T13:58:55.000Z</time>
      </trkpt>
      <trkpt lat="46.11724" lon="6.74121">
        <ele>1298</ele>
        <time>2016-07-04T13:58:56.000Z</time>
      </trkpt>
      <trkpt lat="46.11718" lon="6.7413">
        <ele>1295</ele>
        <time>2016-07-04T13:59:03.000Z</time>
      </trkpt>
      <trkpt lat="46.11717" lon="6.74133">
        <ele>1295</ele>
        <time>2016-07-04T13:59:04.000Z</time>
      </trkpt>
      <trkpt lat="46.11711" lon="6.74141">
        <ele>1295</ele>
        <time>2016-07-04T13:59:10.000Z</time>
      </trkpt>
      <trkpt lat="46.11711" lon="6.74143">
        <ele>1293</ele>
        <time>2016-07-04T13:59:11.000Z</time>
      </trkpt>
      <trkpt lat="46.11706" lon="6.74152">
        <ele>1293</ele>
        <time>2016-07-04T13:59:17.000Z</time>
      </trkpt>
      <trkpt lat="46.11705" lon="6.74153">
        <ele>1295</ele>
        <time>2016-07-04T13:59:18.000Z</time>
      </trkpt>
      <trkpt lat="46.11698" lon="6.7416">
        <ele>1294</ele>
        <time>2016-07-04T13:59:25.000Z</time>
      </trkpt>
      <trkpt lat="46.11697" lon="6.7416">
        <ele>1294</ele>
        <time>2016-07-04T13:59:26.000Z</time>
      </trkpt>
      <trkpt lat="46.11692" lon="6.7417">
        <ele>1295</ele>
        <time>2016-07-04T13:59:34.000Z</time>
      </trkpt>
      <trkpt lat="46.11692" lon="6.74173">
        <ele>1294</ele>
        <time>2016-07-04T13:59:35.000Z</time>
      </trkpt>
      <trkpt lat="46.11691" lon="6.74184">
        <ele>1291</ele>
        <time>2016-07-04T13:59:42.000Z</time>
      </trkpt>
      <trkpt lat="46.11691" lon="6.74186">
        <ele>1290</ele>
        <time>2016-07-04T13:59:43.000Z</time>
      </trkpt>
      <trkpt lat="46.11689" lon="6.74198">
        <ele>1286</ele>
        <time>2016-07-04T13:59:52.000Z</time>
      </trkpt>
      <trkpt lat="46.11688" lon="6.742">
        <ele>1285</ele>
        <time>2016-07-04T13:59:53.000Z</time>
      </trkpt>
      <trkpt lat="46.11687" lon="6.74212">
        <ele>1282</ele>
        <time>2016-07-04T14:00:00.000Z</time>
      </trkpt>
      <trkpt lat="46.11686" lon="6.74213">
        <ele>1282</ele>
        <time>2016-07-04T14:00:01.000Z</time>
      </trkpt>
      <trkpt lat="46.11682" lon="6.74224">
        <ele>1281</ele>
        <time>2016-07-04T14:00:09.000Z</time>
      </trkpt>
      <trkpt lat="46.11682" lon="6.74225">
        <ele>1280</ele>
        <time>2016-07-04T14:00:10.000Z</time>
      </trkpt>
      <trkpt lat="46.11674" lon="6.74233">
        <ele>1282</ele>
        <time>2016-07-04T14:00:15.000Z</time>
      </trkpt>
      <trkpt lat="46.11674" lon="6.74233">
        <ele>1281</ele>
        <time>2016-07-04T14:00:16.000Z</time>
      </trkpt>
      <trkpt lat="46.11666" lon="6.74231">
        <ele>1277</ele>
        <time>2016-07-04T14:00:25.000Z</time>
      </trkpt>
      <trkpt lat="46.11664" lon="6.74227">
        <ele>1278</ele>
        <time>2016-07-04T14:00:26.000Z</time>
      </trkpt>
      <trkpt lat="46.1166" lon="6.74217">
        <ele>1278</ele>
        <time>2016-07-04T14:00:32.000Z</time>
      </trkpt>
      <trkpt lat="46.1166" lon="6.74215">
        <ele>1277</ele>
        <time>2016-07-04T14:00:33.000Z</time>
      </trkpt>
      <trkpt lat="46.11655" lon="6.74205">
        <ele>1279</ele>
        <time>2016-07-04T14:00:38.000Z</time>
      </trkpt>
      <trkpt lat="46.11654" lon="6.74204">
        <ele>1280</ele>
        <time>2016-07-04T14:00:39.000Z</time>
      </trkpt>
      <trkpt lat="46.11646" lon="6.74199">
        <ele>1280</ele>
        <time>2016-07-04T14:00:47.000Z</time>
      </trkpt>
      <trkpt lat="46.11644" lon="6.74198">
        <ele>1280</ele>
        <time>2016-07-04T14:00:48.000Z</time>
      </trkpt>
      <trkpt lat="46.11639" lon="6.74193">
        <ele>1281</ele>
        <time>2016-07-04T14:00:52.000Z</time>
      </trkpt>
      <trkpt lat="46.11636" lon="6.7419">
        <ele>1282</ele>
        <time>2016-07-04T14:00:53.000Z</time>
      </trkpt>
      <trkpt lat="46.11628" lon="6.74193">
        <ele>1281</ele>
        <time>2016-07-04T14:01:03.000Z</time>
      </trkpt>
      <trkpt lat="46.11625" lon="6.74192">
        <ele>1282</ele>
        <time>2016-07-04T14:01:04.000Z</time>
      </trkpt>
      <trkpt lat="46.11618" lon="6.74192">
        <ele>1282</ele>
        <time>2016-07-04T14:01:09.000Z</time>
      </trkpt>
      <trkpt lat="46.11616" lon="6.74193">
        <ele>1281</ele>
        <time>2016-07-04T14:01:10.000Z</time>
      </trkpt>
      <trkpt lat="46.1161" lon="6.74199">
        <ele>1278</ele>
        <time>2016-07-04T14:01:16.000Z</time>
      </trkpt>
      <trkpt lat="46.11608" lon="6.742">
        <ele>1278</ele>
        <time>2016-07-04T14:01:17.000Z</time>
      </trkpt>
      <trkpt lat="46.11602" lon="6.74208">
        <ele>1274</ele>
        <time>2016-07-04T14:01:24.000Z</time>
      </trkpt>
      <trkpt lat="46.11601" lon="6.7421">
        <ele>1273</ele>
        <time>2016-07-04T14:01:25.000Z</time>
      </trkpt>
      <trkpt lat="46.11595" lon="6.74219">
        <ele>1272</ele>
        <time>2016-07-04T14:01:31.000Z</time>
      </trkpt>
      <trkpt lat="46.11594" lon="6.74221">
        <ele>1272</ele>
        <time>2016-07-04T14:01:32.000Z</time>
      </trkpt>
      <trkpt lat="46.1159" lon="6.74231">
        <ele>1268</ele>
        <time>2016-07-04T14:01:39.000Z</time>
      </trkpt>
      <trkpt lat="46.11589" lon="6.74232">
        <ele>1268</ele>
        <time>2016-07-04T14:01:40.000Z</time>
      </trkpt>
      <trkpt lat="46.11583" lon="6.7424">
        <ele>1266</ele>
        <time>2016-07-04T14:01:48.000Z</time>
      </trkpt>
      <trkpt lat="46.11582" lon="6.74243">
        <ele>1267</ele>
        <time>2016-07-04T14:01:49.000Z</time>
      </trkpt>
      <trkpt lat="46.1158" lon="6.74255">
        <ele>1264</ele>
        <time>2016-07-04T14:01:56.000Z</time>
      </trkpt>
      <trkpt lat="46.11578" lon="6.74257">
        <ele>1265</ele>
        <time>2016-07-04T14:01:57.000Z</time>
      </trkpt>
      <trkpt lat="46.11572" lon="6.74264">
        <ele>1266</ele>
        <time>2016-07-04T14:02:09.000Z</time>
      </trkpt>
      <trkpt lat="46.11571" lon="6.74265">
        <ele>1264</ele>
        <time>2016-07-04T14:02:10.000Z</time>
      </trkpt>
      <trkpt lat="46.11564" lon="6.74271">
        <ele>1261</ele>
        <time>2016-07-04T14:02:16.000Z</time>
      </trkpt>
      <trkpt lat="46.11562" lon="6.74272">
        <ele>1261</ele>
        <time>2016-07-04T14:02:17.000Z</time>
      </trkpt>
      <trkpt lat="46.11555" lon="6.74277">
        <ele>1261</ele>
        <time>2016-07-04T14:02:22.000Z</time>
      </trkpt>
      <trkpt lat="46.11553" lon="6.74278">
        <ele>1261</ele>
        <time>2016-07-04T14:02:23.000Z</time>
      </trkpt>
      <trkpt lat="46.11545" lon="6.74278">
        <ele>1263</ele>
        <time>2016-07-04T14:02:28.000Z</time>
      </trkpt>
      <trkpt lat="46.11544" lon="6.74275">
        <ele>1265</ele>
        <time>2016-07-04T14:02:29.000Z</time>
      </trkpt>
      <trkpt lat="46.11536" lon="6.74272">
        <ele>1266</ele>
        <time>2016-07-04T14:02:37.000Z</time>
      </trkpt>
      <trkpt lat="46.11536" lon="6.74272">
        <ele>1266</ele>
        <time>2016-07-04T14:02:38.000Z</time>
      </trkpt>
      <trkpt lat="46.11532" lon="6.74276">
        <ele>1262</ele>
        <time>2016-07-04T14:02:51.000Z</time>
      </trkpt>
      <trkpt lat="46.11532" lon="6.74275">
        <ele>1262</ele>
        <time>2016-07-04T14:02:52.000Z</time>
      </trkpt>
      <trkpt lat="46.11524" lon="6.74276">
        <ele>1261</ele>
        <time>2016-07-04T14:02:56.000Z</time>
      </trkpt>
      <trkpt lat="46.11522" lon="6.74275">
        <ele>1262</ele>
        <time>2016-07-04T14:02:57.000Z</time>
      </trkpt>
      <trkpt lat="46.11514" lon="6.74274">
        <ele>1264</ele>
        <time>2016-07-04T14:03:03.000Z</time>
      </trkpt>
      <trkpt lat="46.11513" lon="6.74276">
        <ele>1262</ele>
        <time>2016-07-04T14:03:04.000Z</time>
      </trkpt>
      <trkpt lat="46.11505" lon="6.74279">
        <ele>1259</ele>
        <time>2016-07-04T14:03:12.000Z</time>
      </trkpt>
      <trkpt lat="46.11504" lon="6.74277">
        <ele>1259</ele>
        <time>2016-07-04T14:03:13.000Z</time>
      </trkpt>
      <trkpt lat="46.11496" lon="6.74274">
        <ele>1257</ele>
        <time>2016-07-04T14:03:18.000Z</time>
      </trkpt>
      <trkpt lat="46.11494" lon="6.74275">
        <ele>1258</ele>
        <time>2016-07-04T14:03:19.000Z</time>
      </trkpt>
      <trkpt lat="46.11488" lon="6.74272">
        <ele>1258</ele>
        <time>2016-07-04T14:03:24.000Z</time>
      </trkpt>
      <trkpt lat="46.11485" lon="6.74274">
        <ele>1256</ele>
        <time>2016-07-04T14:03:25.000Z</time>
      </trkpt>
      <trkpt lat="46.11476" lon="6.74275">
        <ele>1256</ele>
        <time>2016-07-04T14:03:30.000Z</time>
      </trkpt>
      <trkpt lat="46.11475" lon="6.74276">
        <ele>1256</ele>
        <time>2016-07-04T14:03:31.000Z</time>
      </trkpt>
      <trkpt lat="46.11467" lon="6.7428">
        <ele>1248</ele>
        <time>2016-07-04T14:03:49.000Z</time>
      </trkpt>
      <trkpt lat="46.11467" lon="6.74281">
        <ele>1249</ele>
        <time>2016-07-04T14:03:50.000Z</time>
      </trkpt>
      <trkpt lat="46.11459" lon="6.74277">
        <ele>1245</ele>
        <time>2016-07-04T14:04:04.000Z</time>
      </trkpt>
      <trkpt lat="46.11457" lon="6.74276">
        <ele>1245</ele>
        <time>2016-07-04T14:04:05.000Z</time>
      </trkpt>
      <trkpt lat="46.11454" lon="6.74264">
        <ele>1250</ele>
        <time>2016-07-04T14:04:28.000Z</time>
      </trkpt>
      <trkpt lat="46.11454" lon="6.74264">
        <ele>1250</ele>
        <time>2016-07-04T14:04:29.000Z</time>
      </trkpt>
      <trkpt lat="46.11448" lon="6.74254">
        <ele>1243</ele>
        <time>2016-07-04T14:04:37.000Z</time>
      </trkpt>
      <trkpt lat="46.11446" lon="6.74254">
        <ele>1242</ele>
        <time>2016-07-04T14:04:38.000Z</time>
      </trkpt>
      <trkpt lat="46.11441" lon="6.74244">
        <ele>1243</ele>
        <time>2016-07-04T14:04:49.000Z</time>
      </trkpt>
      <trkpt lat="46.11439" lon="6.74242">
        <ele>1241</ele>
        <time>2016-07-04T14:04:50.000Z</time>
      </trkpt>
      <trkpt lat="46.11435" lon="6.74231">
        <ele>1239</ele>
        <time>2016-07-04T14:05:01.000Z</time>
      </trkpt>
      <trkpt lat="46.11435" lon="6.7423">
        <ele>1239</ele>
        <time>2016-07-04T14:05:02.000Z</time>
      </trkpt>
      <trkpt lat="46.11427" lon="6.74224">
        <ele>1239</ele>
        <time>2016-07-04T14:05:09.000Z</time>
      </trkpt>
      <trkpt lat="46.11425" lon="6.74223">
        <ele>1240</ele>
        <time>2016-07-04T14:05:10.000Z</time>
      </trkpt>
      <trkpt lat="46.11417" lon="6.74223">
        <ele>1232</ele>
        <time>2016-07-04T14:05:17.000Z</time>
      </trkpt>
      <trkpt lat="46.11415" lon="6.74222">
        <ele>1234</ele>
        <time>2016-07-04T14:05:18.000Z</time>
      </trkpt>
      <trkpt lat="46.11407" lon="6.74216">
        <ele>1231</ele>
        <time>2016-07-04T14:05:33.000Z</time>
      </trkpt>
      <trkpt lat="46.11406" lon="6.74215">
        <ele>1231</ele>
        <time>2016-07-04T14:05:34.000Z</time>
      </trkpt>
      <trkpt lat="46.114" lon="6.74206">
        <ele>1229</ele>
        <time>2016-07-04T14:05:45.000Z</time>
      </trkpt>
      <trkpt lat="46.11397" lon="6.74206">
        <ele>1227</ele>
        <time>2016-07-04T14:05:46.000Z</time>
      </trkpt>
      <trkpt lat="46.1139" lon="6.74201">
        <ele>1225</ele>
        <time>2016-07-04T14:06:05.000Z</time>
      </trkpt>
      <trkpt lat="46.11388" lon="6.742">
        <ele>1224</ele>
        <time>2016-07-04T14:06:06.000Z</time>
      </trkpt>
      <trkpt lat="46.1138" lon="6.74196">
        <ele>1223</ele>
        <time>2016-07-04T14:06:11.000Z</time>
      </trkpt>
      <trkpt lat="46.11379" lon="6.74197">
        <ele>1221</ele>
        <time>2016-07-04T14:06:12.000Z</time>
      </trkpt>
      <trkpt lat="46.1137" lon="6.74195">
        <ele>1218</ele>
        <time>2016-07-04T14:06:28.000Z</time>
      </trkpt>
      <trkpt lat="46.11369" lon="6.74196">
        <ele>1216</ele>
        <time>2016-07-04T14:06:29.000Z</time>
      </trkpt>
      <trkpt lat="46.11361" lon="6.74197">
        <ele>1215</ele>
        <time>2016-07-04T14:06:35.000Z</time>
      </trkpt>
      <trkpt lat="46.11358" lon="6.74197">
        <ele>1215</ele>
        <time>2016-07-04T14:06:36.000Z</time>
      </trkpt>
      <trkpt lat="46.1135" lon="6.74202">
        <ele>1210</ele>
        <time>2016-07-04T14:06:45.000Z</time>
      </trkpt>
      <trkpt lat="46.11349" lon="6.74202">
        <ele>1210</ele>
        <time>2016-07-04T14:06:46.000Z</time>
      </trkpt>
      <trkpt lat="46.11341" lon="6.74203">
        <ele>1215</ele>
        <time>2016-07-04T14:06:56.000Z</time>
      </trkpt>
      <trkpt lat="46.1134" lon="6.74204">
        <ele>1215</ele>
        <time>2016-07-04T14:06:57.000Z</time>
      </trkpt>
      <trkpt lat="46.11331" lon="6.74205">
        <ele>1214</ele>
        <time>2016-07-04T14:07:06.000Z</time>
      </trkpt>
      <trkpt lat="46.11331" lon="6.74205">
        <ele>1214</ele>
        <time>2016-07-04T14:07:07.000Z</time>
      </trkpt>
      <trkpt lat="46.11323" lon="6.74211">
        <ele>1206</ele>
        <time>2016-07-04T14:07:21.000Z</time>
      </trkpt>
      <trkpt lat="46.11322" lon="6.74211">
        <ele>1206</ele>
        <time>2016-07-04T14:07:22.000Z</time>
      </trkpt>
      <trkpt lat="46.11319" lon="6.74223">
        <ele>1201</ele>
        <time>2016-07-04T14:07:48.000Z</time>
      </trkpt>
      <trkpt lat="46.11319" lon="6.74223">
        <ele>1201</ele>
        <time>2016-07-04T14:07:49.000Z</time>
      </trkpt>
      <trkpt lat="46.11312" lon="6.74231">
        <ele>1194</ele>
        <time>2016-07-04T14:07:59.000Z</time>
      </trkpt>
      <trkpt lat="46.11311" lon="6.74231">
        <ele>1193</ele>
        <time>2016-07-04T14:08:00.000Z</time>
      </trkpt>
      <trkpt lat="46.11305" lon="6.74237">
        <ele>1193</ele>
        <time>2016-07-04T14:08:05.000Z</time>
      </trkpt>
      <trkpt lat="46.11303" lon="6.74238">
        <ele>1192</ele>
        <time>2016-07-04T14:08:06.000Z</time>
      </trkpt>
      <trkpt lat="46.11298" lon="6.74245">
        <ele>1190</ele>
        <time>2016-07-04T14:08:13.000Z</time>
      </trkpt>
      <trkpt lat="46.11297" lon="6.74248">
        <ele>1190</ele>
        <time>2016-07-04T14:08:14.000Z</time>
      </trkpt>
      <trkpt lat="46.11291" lon="6.74252">
        <ele>1190</ele>
        <time>2016-07-04T14:08:23.000Z</time>
      </trkpt>
      <trkpt lat="46.11289" lon="6.74252">
        <ele>1190</ele>
        <time>2016-07-04T14:08:24.000Z</time>
      </trkpt>
      <trkpt lat="46.11281" lon="6.74257">
        <ele>1187</ele>
        <time>2016-07-04T14:08:33.000Z</time>
      </trkpt>
      <trkpt lat="46.11278" lon="6.74257">
        <ele>1187</ele>
        <time>2016-07-04T14:08:34.000Z</time>
      </trkpt>
      <trkpt lat="46.11271" lon="6.74265">
        <ele>1181</ele>
        <time>2016-07-04T14:08:48.000Z</time>
      </trkpt>
      <trkpt lat="46.11271" lon="6.74266">
        <ele>1181</ele>
        <time>2016-07-04T14:08:49.000Z</time>
      </trkpt>
      <trkpt lat="46.11263" lon="6.74269">
        <ele>1177</ele>
        <time>2016-07-04T14:09:11.000Z</time>
      </trkpt>
      <trkpt lat="46.11261" lon="6.74271">
        <ele>1178</ele>
        <time>2016-07-04T14:09:12.000Z</time>
      </trkpt>
      <trkpt lat="46.11253" lon="6.74274">
        <ele>1169</ele>
        <time>2016-07-04T14:09:28.000Z</time>
      </trkpt>
      <trkpt lat="46.11251" lon="6.74274">
        <ele>1169</ele>
        <time>2016-07-04T14:09:29.000Z</time>
      </trkpt>
      <trkpt lat="46.11243" lon="6.74275">
        <ele>1171</ele>
        <time>2016-07-04T14:09:38.000Z</time>
      </trkpt>
      <trkpt lat="46.11242" lon="6.74275">
        <ele>1172</ele>
        <time>2016-07-04T14:09:39.000Z</time>
      </trkpt>
      <trkpt lat="46.11233" lon="6.74271">
        <ele>1165</ele>
        <time>2016-07-04T14:09:56.000Z</time>
      </trkpt>
      <trkpt lat="46.11232" lon="6.74271">
        <ele>1166</ele>
        <time>2016-07-04T14:09:57.000Z</time>
      </trkpt>
      <trkpt lat="46.11223" lon="6.74271">
        <ele>1156</ele>
        <time>2016-07-04T14:10:09.000Z</time>
      </trkpt>
      <trkpt lat="46.11222" lon="6.74272">
        <ele>1155</ele>
        <time>2016-07-04T14:10:10.000Z</time>
      </trkpt>
      <trkpt lat="46.11215" lon="6.74276">
        <ele>1153</ele>
        <time>2016-07-04T14:10:22.000Z</time>
      </trkpt>
      <trkpt lat="46.11213" lon="6.74276">
        <ele>1153</ele>
        <time>2016-07-04T14:10:23.000Z</time>
      </trkpt>
      <trkpt lat="46.11205" lon="6.74274">
        <ele>1151</ele>
        <time>2016-07-04T14:10:34.000Z</time>
      </trkpt>
      <trkpt lat="46.11204" lon="6.74273">
        <ele>1151</ele>
        <time>2016-07-04T14:10:35.000Z</time>
      </trkpt>
      <trkpt lat="46.11201" lon="6.74285">
        <ele>1146</ele>
        <time>2016-07-04T14:10:47.000Z</time>
      </trkpt>
      <trkpt lat="46.11201" lon="6.74286">
        <ele>1145</ele>
        <time>2016-07-04T14:10:48.000Z</time>
      </trkpt>
      <trkpt lat="46.11202" lon="6.74299">
        <ele>1144</ele>
        <time>2016-07-04T14:11:01.000Z</time>
      </trkpt>
      <trkpt lat="46.11202" lon="6.74299">
        <ele>1144</ele>
        <time>2016-07-04T14:11:02.000Z</time>
      </trkpt>
      <trkpt lat="46.11202" lon="6.74311">
        <ele>1137</ele>
        <time>2016-07-04T14:11:16.000Z</time>
      </trkpt>
      <trkpt lat="46.11201" lon="6.74314">
        <ele>1137</ele>
        <time>2016-07-04T14:11:17.000Z</time>
      </trkpt>
      <trkpt lat="46.11198" lon="6.74325">
        <ele>1139</ele>
        <time>2016-07-04T14:11:22.000Z</time>
      </trkpt>
      <trkpt lat="46.11198" lon="6.74327">
        <ele>1139</ele>
        <time>2016-07-04T14:11:23.000Z</time>
      </trkpt>
      <trkpt lat="46.11198" lon="6.7434">
        <ele>1136</ele>
        <time>2016-07-04T14:11:32.000Z</time>
      </trkpt>
      <trkpt lat="46.11198" lon="6.74341">
        <ele>1136</ele>
        <time>2016-07-04T14:11:33.000Z</time>
      </trkpt>
      <trkpt lat="46.11197" lon="6.74353">
        <ele>1138</ele>
        <time>2016-07-04T14:11:45.000Z</time>
      </trkpt>
      <trkpt lat="46.11197" lon="6.74354">
        <ele>1139</ele>
        <time>2016-07-04T14:11:46.000Z</time>
      </trkpt>
      <trkpt lat="46.11193" lon="6.74365">
        <ele>1140</ele>
        <time>2016-07-04T14:12:03.000Z</time>
      </trkpt>
      <trkpt lat="46.11192" lon="6.74365">
        <ele>1139</ele>
        <time>2016-07-04T14:12:04.000Z</time>
      </trkpt>
      <trkpt lat="46.11184" lon="6.74367">
        <ele>1142</ele>
        <time>2016-07-04T14:12:13.000Z</time>
      </trkpt>
      <trkpt lat="46.11182" lon="6.74366">
        <ele>1141</ele>
        <time>2016-07-04T14:12:14.000Z</time>
      </trkpt>
      <trkpt lat="46.11178" lon="6.74357">
        <ele>1141</ele>
        <time>2016-07-04T14:12:20.000Z</time>
      </trkpt>
      <trkpt lat="46.11176" lon="6.74356">
        <ele>1141</ele>
        <time>2016-07-04T14:12:21.000Z</time>
      </trkpt>
      <trkpt lat="46.11168" lon="6.7435">
        <ele>1145</ele>
        <time>2016-07-04T14:12:26.000Z</time>
      </trkpt>
      <trkpt lat="46.11167" lon="6.74351">
        <ele>1144</ele>
        <time>2016-07-04T14:12:27.000Z</time>
      </trkpt>
      <trkpt lat="46.11161" lon="6.74343">
        <ele>1145</ele>
        <time>2016-07-04T14:12:31.000Z</time>
      </trkpt>
      <trkpt lat="46.1116" lon="6.74342">
        <ele>1146</ele>
        <time>2016-07-04T14:12:32.000Z</time>
      </trkpt>
      <trkpt lat="46.11153" lon="6.74333">
        <ele>1142</ele>
        <time>2016-07-04T14:12:40.000Z</time>
      </trkpt>
      <trkpt lat="46.11153" lon="6.74331">
        <ele>1141</ele>
        <time>2016-07-04T14:12:41.000Z</time>
      </trkpt>
      <trkpt lat="46.11146" lon="6.74323">
        <ele>1140</ele>
        <time>2016-07-04T14:12:55.000Z</time>
      </trkpt>
      <trkpt lat="46.11146" lon="6.74322">
        <ele>1142</ele>
        <time>2016-07-04T14:12:56.000Z</time>
      </trkpt>
      <trkpt lat="46.11144" lon="6.74309">
        <ele>1135</ele>
        <time>2016-07-04T14:13:18.000Z</time>
      </trkpt>
      <trkpt lat="46.11144" lon="6.74306">
        <ele>1132</ele>
        <time>2016-07-04T14:13:19.000Z</time>
      </trkpt>
      <trkpt lat="46.1114" lon="6.74295">
        <ele>1127</ele>
        <time>2016-07-04T14:13:30.000Z</time>
      </trkpt>
      <trkpt lat="46.1114" lon="6.74294">
        <ele>1126</ele>
        <time>2016-07-04T14:13:31.000Z</time>
      </trkpt>
      <trkpt lat="46.11137" lon="6.74283">
        <ele>1123</ele>
        <time>2016-07-04T14:13:45.000Z</time>
      </trkpt>
      <trkpt lat="46.11136" lon="6.74282">
        <ele>1124</ele>
        <time>2016-07-04T14:13:46.000Z</time>
      </trkpt>
      <trkpt lat="46.11137" lon="6.74278">
        <ele>1125</ele>
        <time>2016-07-04T14:13:51.000Z</time>
      </trkpt>
      <trkpt lat="46.11137" lon="6.74279">
        <ele>1125</ele>
        <time>2016-07-04T14:13:52.000Z</time>
      </trkpt>
      <trkpt lat="46.11135" lon="6.74274">
        <ele>1125</ele>
        <time>2016-07-04T14:13:53.000Z</time>
      </trkpt>
      <trkpt lat="46.11132" lon="6.74263">
        <ele>1122</ele>
        <time>2016-07-04T14:14:04.000Z</time>
      </trkpt>
      <trkpt lat="46.11132" lon="6.74261">
        <ele>1123</ele>
        <time>2016-07-04T14:14:05.000Z</time>
      </trkpt>
      <trkpt lat="46.11129" lon="6.74249">
        <ele>1119</ele>
        <time>2016-07-04T14:14:14.000Z</time>
      </trkpt>
      <trkpt lat="46.11129" lon="6.74247">
        <ele>1118</ele>
        <time>2016-07-04T14:14:15.000Z</time>
      </trkpt>
      <trkpt lat="46.11126" lon="6.74237">
        <ele>1118</ele>
        <time>2016-07-04T14:14:21.000Z</time>
      </trkpt>
      <trkpt lat="46.11125" lon="6.74236">
        <ele>1119</ele>
        <time>2016-07-04T14:14:22.000Z</time>
      </trkpt>
      <trkpt lat="46.11123" lon="6.74225">
        <ele>1122</ele>
        <time>2016-07-04T14:14:27.000Z</time>
      </trkpt>
      <trkpt lat="46.11121" lon="6.74224">
        <ele>1123</ele>
        <time>2016-07-04T14:14:28.000Z</time>
      </trkpt>
      <trkpt lat="46.11116" lon="6.74213">
        <ele>1126</ele>
        <time>2016-07-04T14:14:35.000Z</time>
      </trkpt>
      <trkpt lat="46.11115" lon="6.74213">
        <ele>1125</ele>
        <time>2016-07-04T14:14:36.000Z</time>
      </trkpt>
      <trkpt lat="46.11112" lon="6.74218">
        <ele>1115</ele>
        <time>2016-07-04T14:14:49.000Z</time>
      </trkpt>
      <trkpt lat="46.11112" lon="6.74218">
        <ele>1115</ele>
        <time>2016-07-04T14:14:50.000Z</time>
      </trkpt>
      <trkpt lat="46.11113" lon="6.74216">
        <ele>1116</ele>
        <time>2016-07-04T14:14:51.000Z</time>
      </trkpt>
      <trkpt lat="46.11113" lon="6.74216">
        <ele>1116</ele>
        <time>2016-07-04T14:14:52.000Z</time>
      </trkpt>
      <trkpt lat="46.11104" lon="6.74213">
        <ele>1111</ele>
        <time>2016-07-04T14:15:20.000Z</time>
      </trkpt>
      <trkpt lat="46.11103" lon="6.74213">
        <ele>1111</ele>
        <time>2016-07-04T14:15:21.000Z</time>
      </trkpt>
      <trkpt lat="46.11095" lon="6.74211">
        <ele>1108</ele>
        <time>2016-07-04T14:15:28.000Z</time>
      </trkpt>
      <trkpt lat="46.11093" lon="6.74211">
        <ele>1108</ele>
        <time>2016-07-04T14:15:29.000Z</time>
      </trkpt>
      <trkpt lat="46.11085" lon="6.74206">
        <ele>1107</ele>
        <time>2016-07-04T14:15:49.000Z</time>
      </trkpt>
      <trkpt lat="46.11083" lon="6.74205">
        <ele>1106</ele>
        <time>2016-07-04T14:15:50.000Z</time>
      </trkpt>
      <trkpt lat="46.11075" lon="6.74202">
        <ele>1105</ele>
        <time>2016-07-04T14:15:58.000Z</time>
      </trkpt>
      <trkpt lat="46.11074" lon="6.74202">
        <ele>1105</ele>
        <time>2016-07-04T14:15:59.000Z</time>
      </trkpt>
      <trkpt lat="46.11065" lon="6.74203">
        <ele>1103</ele>
        <time>2016-07-04T14:16:09.000Z</time>
      </trkpt>
      <trkpt lat="46.11064" lon="6.74203">
        <ele>1102</ele>
        <time>2016-07-04T14:16:10.000Z</time>
      </trkpt>
      <trkpt lat="46.11056" lon="6.74204">
        <ele>1099</ele>
        <time>2016-07-04T14:16:19.000Z</time>
      </trkpt>
      <trkpt lat="46.11055" lon="6.74204">
        <ele>1098</ele>
        <time>2016-07-04T14:16:20.000Z</time>
      </trkpt>
      <trkpt lat="46.11047" lon="6.7421">
        <ele>1097</ele>
        <time>2016-07-04T14:16:29.000Z</time>
      </trkpt>
      <trkpt lat="46.11046" lon="6.7421">
        <ele>1098</ele>
        <time>2016-07-04T14:16:30.000Z</time>
      </trkpt>
      <trkpt lat="46.11039" lon="6.74213">
        <ele>1100</ele>
        <time>2016-07-04T14:16:36.000Z</time>
      </trkpt>
      <trkpt lat="46.11038" lon="6.74215">
        <ele>1100</ele>
        <time>2016-07-04T14:16:37.000Z</time>
      </trkpt>
      <trkpt lat="46.11032" lon="6.74223">
        <ele>1100</ele>
        <time>2016-07-04T14:16:44.000Z</time>
      </trkpt>
      <trkpt lat="46.11031" lon="6.74224">
        <ele>1101</ele>
        <time>2016-07-04T14:16:45.000Z</time>
      </trkpt>
      <trkpt lat="46.11025" lon="6.74233">
        <ele>1102</ele>
        <time>2016-07-04T14:16:52.000Z</time>
      </trkpt>
      <trkpt lat="46.11025" lon="6.74234">
        <ele>1103</ele>
        <time>2016-07-04T14:16:53.000Z</time>
      </trkpt>
      <trkpt lat="46.11018" lon="6.74243">
        <ele>1103</ele>
        <time>2016-07-04T14:17:00.000Z</time>
      </trkpt>
      <trkpt lat="46.11018" lon="6.74243">
        <ele>1103</ele>
        <time>2016-07-04T14:17:01.000Z</time>
      </trkpt>
      <trkpt lat="46.11017" lon="6.74256">
        <ele>1097</ele>
        <time>2016-07-04T14:17:10.000Z</time>
      </trkpt>
      <trkpt lat="46.11017" lon="6.74257">
        <ele>1096</ele>
        <time>2016-07-04T14:17:11.000Z</time>
      </trkpt>
      <trkpt lat="46.11012" lon="6.74266">
        <ele>1097</ele>
        <time>2016-07-04T14:17:18.000Z</time>
      </trkpt>
      <trkpt lat="46.1101" lon="6.74266">
        <ele>1097</ele>
        <time>2016-07-04T14:17:19.000Z</time>
      </trkpt>
      <trkpt lat="46.11005" lon="6.74277">
        <ele>1094</ele>
        <time>2016-07-04T14:17:28.000Z</time>
      </trkpt>
      <trkpt lat="46.11005" lon="6.74279">
        <ele>1092</ele>
        <time>2016-07-04T14:17:29.000Z</time>
      </trkpt>
      <trkpt lat="46.10999" lon="6.74285">
        <ele>1093</ele>
        <time>2016-07-04T14:17:36.000Z</time>
      </trkpt>
      <trkpt lat="46.10998" lon="6.74286">
        <ele>1093</ele>
        <time>2016-07-04T14:17:37.000Z</time>
      </trkpt>
      <trkpt lat="46.10992" lon="6.74292">
        <ele>1089</ele>
        <time>2016-07-04T14:17:45.000Z</time>
      </trkpt>
      <trkpt lat="46.10991" lon="6.74294">
        <ele>1089</ele>
        <time>2016-07-04T14:17:46.000Z</time>
      </trkpt>
      <trkpt lat="46.10983" lon="6.74301">
        <ele>1082</ele>
        <time>2016-07-04T14:17:56.000Z</time>
      </trkpt>
      <trkpt lat="46.10982" lon="6.74302">
        <ele>1082</ele>
        <time>2016-07-04T14:17:57.000Z</time>
      </trkpt>
      <trkpt lat="46.10976" lon="6.74307">
        <ele>1079</ele>
        <time>2016-07-04T14:18:08.000Z</time>
      </trkpt>
      <trkpt lat="46.10974" lon="6.74308">
        <ele>1080</ele>
        <time>2016-07-04T14:18:09.000Z</time>
      </trkpt>
      <trkpt lat="46.10966" lon="6.74312">
        <ele>1079</ele>
        <time>2016-07-04T14:18:16.000Z</time>
      </trkpt>
      <trkpt lat="46.10963" lon="6.74312">
        <ele>1080</ele>
        <time>2016-07-04T14:18:17.000Z</time>
      </trkpt>
      <trkpt lat="46.10956" lon="6.74316">
        <ele>1077</ele>
        <time>2016-07-04T14:18:25.000Z</time>
      </trkpt>
      <trkpt lat="46.10955" lon="6.74317">
        <ele>1077</ele>
        <time>2016-07-04T14:18:26.000Z</time>
      </trkpt>
      <trkpt lat="46.10947" lon="6.74323">
        <ele>1078</ele>
        <time>2016-07-04T14:18:33.000Z</time>
      </trkpt>
      <trkpt lat="46.10947" lon="6.74324">
        <ele>1077</ele>
        <time>2016-07-04T14:18:34.000Z</time>
      </trkpt>
      <trkpt lat="46.10939" lon="6.74327">
        <ele>1077</ele>
        <time>2016-07-04T14:18:40.000Z</time>
      </trkpt>
      <trkpt lat="46.10938" lon="6.74328">
        <ele>1077</ele>
        <time>2016-07-04T14:18:41.000Z</time>
      </trkpt>
      <trkpt lat="46.10933" lon="6.74336">
        <ele>1075</ele>
        <time>2016-07-04T14:18:48.000Z</time>
      </trkpt>
      <trkpt lat="46.10931" lon="6.74337">
        <ele>1074</ele>
        <time>2016-07-04T14:18:49.000Z</time>
      </trkpt>
      <trkpt lat="46.10924" lon="6.74343">
        <ele>1071</ele>
        <time>2016-07-04T14:18:58.000Z</time>
      </trkpt>
      <trkpt lat="46.10922" lon="6.74344">
        <ele>1072</ele>
        <time>2016-07-04T14:18:59.000Z</time>
      </trkpt>
      <trkpt lat="46.10914" lon="6.74345">
        <ele>1069</ele>
        <time>2016-07-04T14:19:09.000Z</time>
      </trkpt>
      <trkpt lat="46.10913" lon="6.74346">
        <ele>1068</ele>
        <time>2016-07-04T14:19:10.000Z</time>
      </trkpt>
      <trkpt lat="46.10905" lon="6.74351">
        <ele>1065</ele>
        <time>2016-07-04T14:19:23.000Z</time>
      </trkpt>
      <trkpt lat="46.10904" lon="6.74351">
        <ele>1065</ele>
        <time>2016-07-04T14:19:24.000Z</time>
      </trkpt>
      <trkpt lat="46.10896" lon="6.74353">
        <ele>1063</ele>
        <time>2016-07-04T14:19:30.000Z</time>
      </trkpt>
      <trkpt lat="46.10892" lon="6.74354">
        <ele>1065</ele>
        <time>2016-07-04T14:19:31.000Z</time>
      </trkpt>
      <trkpt lat="46.10883" lon="6.74354">
        <ele>1067</ele>
        <time>2016-07-04T14:19:39.000Z</time>
      </trkpt>
      <trkpt lat="46.10882" lon="6.74354">
        <ele>1067</ele>
        <time>2016-07-04T14:19:40.000Z</time>
      </trkpt>
      <trkpt lat="46.10874" lon="6.7436">
        <ele>1065</ele>
        <time>2016-07-04T14:19:53.000Z</time>
      </trkpt>
      <trkpt lat="46.10873" lon="6.74359">
        <ele>1065</ele>
        <time>2016-07-04T14:19:54.000Z</time>
      </trkpt>
      <trkpt lat="46.10865" lon="6.74364">
        <ele>1065</ele>
        <time>2016-07-04T14:20:03.000Z</time>
      </trkpt>
      <trkpt lat="46.10863" lon="6.74366">
        <ele>1065</ele>
        <time>2016-07-04T14:20:04.000Z</time>
      </trkpt>
      <trkpt lat="46.10856" lon="6.74371">
        <ele>1060</ele>
        <time>2016-07-04T14:20:15.000Z</time>
      </trkpt>
      <trkpt lat="46.10855" lon="6.74371">
        <ele>1060</ele>
        <time>2016-07-04T14:20:16.000Z</time>
      </trkpt>
      <trkpt lat="46.10847" lon="6.74375">
        <ele>1058</ele>
        <time>2016-07-04T14:20:22.000Z</time>
      </trkpt>
      <trkpt lat="46.10845" lon="6.74375">
        <ele>1059</ele>
        <time>2016-07-04T14:20:23.000Z</time>
      </trkpt>
      <trkpt lat="46.10837" lon="6.74378">
        <ele>1061</ele>
        <time>2016-07-04T14:20:34.000Z</time>
      </trkpt>
      <trkpt lat="46.10836" lon="6.74379">
        <ele>1060</ele>
        <time>2016-07-04T14:20:35.000Z</time>
      </trkpt>
      <trkpt lat="46.1083" lon="6.74389">
        <ele>1062</ele>
        <time>2016-07-04T14:20:43.000Z</time>
      </trkpt>
      <trkpt lat="46.1083" lon="6.7439">
        <ele>1061</ele>
        <time>2016-07-04T14:20:44.000Z</time>
      </trkpt>
      <trkpt lat="46.10827" lon="6.74402">
        <ele>1062</ele>
        <time>2016-07-04T14:20:51.000Z</time>
      </trkpt>
      <trkpt lat="46.10827" lon="6.74404">
        <ele>1062</ele>
        <time>2016-07-04T14:20:52.000Z</time>
      </trkpt>
      <trkpt lat="46.10827" lon="6.74406">
        <ele>1063</ele>
        <time>2016-07-04T14:20:55.000Z</time>
      </trkpt>
      <trkpt lat="46.10827" lon="6.74406">
        <ele>1063</ele>
        <time>2016-07-04T14:20:56.000Z</time>
      </trkpt>
      <trkpt lat="46.10828" lon="6.7441">
        <ele>1063</ele>
        <time>2016-07-04T14:20:57.000Z</time>
      </trkpt>
      <trkpt lat="46.1083" lon="6.74422">
        <ele>1061</ele>
        <time>2016-07-04T14:21:06.000Z</time>
      </trkpt>
      <trkpt lat="46.10831" lon="6.74425">
        <ele>1061</ele>
        <time>2016-07-04T14:21:07.000Z</time>
      </trkpt>
      <trkpt lat="46.10831" lon="6.74437">
        <ele>1059</ele>
        <time>2016-07-04T14:21:15.000Z</time>
      </trkpt>
      <trkpt lat="46.1083" lon="6.74439">
        <ele>1059</ele>
        <time>2016-07-04T14:21:16.000Z</time>
      </trkpt>
      <trkpt lat="46.10825" lon="6.74448">
        <ele>1057</ele>
        <time>2016-07-04T14:21:23.000Z</time>
      </trkpt>
      <trkpt lat="46.10824" lon="6.74449">
        <ele>1056</ele>
        <time>2016-07-04T14:21:24.000Z</time>
      </trkpt>
      <trkpt lat="46.10816" lon="6.74455">
        <ele>1058</ele>
        <time>2016-07-04T14:21:31.000Z</time>
      </trkpt>
      <trkpt lat="46.10815" lon="6.74457">
        <ele>1057</ele>
        <time>2016-07-04T14:21:32.000Z</time>
      </trkpt>
      <trkpt lat="46.10808" lon="6.74461">
        <ele>1054</ele>
        <time>2016-07-04T14:21:39.000Z</time>
      </trkpt>
      <trkpt lat="46.10806" lon="6.7446">
        <ele>1054</ele>
        <time>2016-07-04T14:21:40.000Z</time>
      </trkpt>
      <trkpt lat="46.10798" lon="6.7446">
        <ele>1054</ele>
        <time>2016-07-04T14:21:47.000Z</time>
      </trkpt>
      <trkpt lat="46.10797" lon="6.7446">
        <ele>1053</ele>
        <time>2016-07-04T14:21:48.000Z</time>
      </trkpt>
      <trkpt lat="46.10788" lon="6.74463">
        <ele>1050</ele>
        <time>2016-07-04T14:21:57.000Z</time>
      </trkpt>
      <trkpt lat="46.10787" lon="6.74463">
        <ele>1051</ele>
        <time>2016-07-04T14:21:58.000Z</time>
      </trkpt>
      <trkpt lat="46.10779" lon="6.74461">
        <ele>1049</ele>
        <time>2016-07-04T14:22:05.000Z</time>
      </trkpt>
      <trkpt lat="46.10777" lon="6.74461">
        <ele>1048</ele>
        <time>2016-07-04T14:22:06.000Z</time>
      </trkpt>
      <trkpt lat="46.10769" lon="6.74459">
        <ele>1048</ele>
        <time>2016-07-04T14:22:12.000Z</time>
      </trkpt>
      <trkpt lat="46.10768" lon="6.74459">
        <ele>1047</ele>
        <time>2016-07-04T14:22:13.000Z</time>
      </trkpt>
      <trkpt lat="46.10762" lon="6.74454">
        <ele>1051</ele>
        <time>2016-07-04T14:22:19.000Z</time>
      </trkpt>
      <trkpt lat="46.1076" lon="6.74454">
        <ele>1050</ele>
        <time>2016-07-04T14:22:20.000Z</time>
      </trkpt>
      <trkpt lat="46.10751" lon="6.74454">
        <ele>1052</ele>
        <time>2016-07-04T14:22:31.000Z</time>
      </trkpt>
      <trkpt lat="46.10751" lon="6.74456">
        <ele>1052</ele>
        <time>2016-07-04T14:22:32.000Z</time>
      </trkpt>
      <trkpt lat="46.10743" lon="6.74453">
        <ele>1056</ele>
        <time>2016-07-04T14:22:39.000Z</time>
      </trkpt>
      <trkpt lat="46.10742" lon="6.74452">
        <ele>1056</ele>
        <time>2016-07-04T14:22:40.000Z</time>
      </trkpt>
      <trkpt lat="46.10735" lon="6.74458">
        <ele>1056</ele>
        <time>2016-07-04T14:22:46.000Z</time>
      </trkpt>
      <trkpt lat="46.10733" lon="6.74459">
        <ele>1055</ele>
        <time>2016-07-04T14:22:47.000Z</time>
      </trkpt>
      <trkpt lat="46.10727" lon="6.74465">
        <ele>1053</ele>
        <time>2016-07-04T14:22:57.000Z</time>
      </trkpt>
      <trkpt lat="46.10726" lon="6.74467">
        <ele>1052</ele>
        <time>2016-07-04T14:22:58.000Z</time>
      </trkpt>
      <trkpt lat="46.10718" lon="6.74466">
        <ele>1051</ele>
        <time>2016-07-04T14:23:08.000Z</time>
      </trkpt>
      <trkpt lat="46.10716" lon="6.74466">
        <ele>1050</ele>
        <time>2016-07-04T14:23:09.000Z</time>
      </trkpt>
      <trkpt lat="46.10716" lon="6.74466">
        <ele>1051</ele>
        <time>2016-07-04T14:23:10.000Z</time>
      </trkpt>
      <trkpt lat="46.10716" lon="6.74465">
        <ele>1053</ele>
        <time>2016-07-04T14:23:11.000Z</time>
      </trkpt>
      <trkpt lat="46.10715" lon="6.7446">
        <ele>1059</ele>
        <time>2016-07-04T14:23:45.000Z</time>
      </trkpt>
      <trkpt lat="46.10715" lon="6.7446">
        <ele>1059</ele>
        <time>2016-07-04T14:23:46.000Z</time>
      </trkpt>
      <trkpt lat="46.10722" lon="6.74456">
        <ele>1053</ele>
        <time>2016-07-04T14:23:55.000Z</time>
      </trkpt>
      <trkpt lat="46.10723" lon="6.74453">
        <ele>1055</ele>
        <time>2016-07-04T14:23:56.000Z</time>
      </trkpt>
      <trkpt lat="46.10725" lon="6.74442">
        <ele>1055</ele>
        <time>2016-07-04T14:24:05.000Z</time>
      </trkpt>
      <trkpt lat="46.10726" lon="6.74441">
        <ele>1054</ele>
        <time>2016-07-04T14:24:06.000Z</time>
      </trkpt>
      <trkpt lat="46.10732" lon="6.74433">
        <ele>1057</ele>
        <time>2016-07-04T14:24:14.000Z</time>
      </trkpt>
      <trkpt lat="46.10733" lon="6.74432">
        <ele>1058</ele>
        <time>2016-07-04T14:24:15.000Z</time>
      </trkpt>
      <trkpt lat="46.10725" lon="6.74429">
        <ele>1056</ele>
        <time>2016-07-04T14:24:21.000Z</time>
      </trkpt>
      <trkpt lat="46.10723" lon="6.74429">
        <ele>1055</ele>
        <time>2016-07-04T14:24:22.000Z</time>
      </trkpt>
      <trkpt lat="46.10716" lon="6.74421">
        <ele>1050</ele>
        <time>2016-07-04T14:24:40.000Z</time>
      </trkpt>
      <trkpt lat="46.10716" lon="6.74419">
        <ele>1051</ele>
        <time>2016-07-04T14:24:41.000Z</time>
      </trkpt>
      <trkpt lat="46.10708" lon="6.74413">
        <ele>1046</ele>
        <time>2016-07-04T14:24:53.000Z</time>
      </trkpt>
      <trkpt lat="46.10707" lon="6.74413">
        <ele>1047</ele>
        <time>2016-07-04T14:24:54.000Z</time>
      </trkpt>
      <trkpt lat="46.10698" lon="6.74414">
        <ele>1042</ele>
        <time>2016-07-04T14:25:07.000Z</time>
      </trkpt>
      <trkpt lat="46.10697" lon="6.74414">
        <ele>1041</ele>
        <time>2016-07-04T14:25:08.000Z</time>
      </trkpt>
      <trkpt lat="46.10693" lon="6.74402">
        <ele>1041</ele>
        <time>2016-07-04T14:25:25.000Z</time>
      </trkpt>
      <trkpt lat="46.10692" lon="6.74401">
        <ele>1041</ele>
        <time>2016-07-04T14:25:26.000Z</time>
      </trkpt>
      <trkpt lat="46.10683" lon="6.74401">
        <ele>1042</ele>
        <time>2016-07-04T14:25:35.000Z</time>
      </trkpt>
      <trkpt lat="46.10683" lon="6.744">
        <ele>1043</ele>
        <time>2016-07-04T14:25:36.000Z</time>
      </trkpt>
      <trkpt lat="46.10674" lon="6.744">
        <ele>1045</ele>
        <time>2016-07-04T14:25:44.000Z</time>
      </trkpt>
      <trkpt lat="46.10672" lon="6.744">
        <ele>1044</ele>
        <time>2016-07-04T14:25:45.000Z</time>
      </trkpt>
      <trkpt lat="46.10664" lon="6.74395">
        <ele>1040</ele>
        <time>2016-07-04T14:25:59.000Z</time>
      </trkpt>
      <trkpt lat="46.10664" lon="6.74394">
        <ele>1040</ele>
        <time>2016-07-04T14:26:00.000Z</time>
      </trkpt>
      <trkpt lat="46.10657" lon="6.7439">
        <ele>1042</ele>
        <time>2016-07-04T14:26:08.000Z</time>
      </trkpt>
      <trkpt lat="46.10655" lon="6.74391">
        <ele>1042</ele>
        <time>2016-07-04T14:26:09.000Z</time>
      </trkpt>
      <trkpt lat="46.10647" lon="6.74387">
        <ele>1042</ele>
        <time>2016-07-04T14:26:12.000Z</time>
      </trkpt>
      <trkpt lat="46.10645" lon="6.74388">
        <ele>1040</ele>
        <time>2016-07-04T14:26:13.000Z</time>
      </trkpt>
      <trkpt lat="46.10638" lon="6.74385">
        <ele>1040</ele>
        <time>2016-07-04T14:26:19.000Z</time>
      </trkpt>
      <trkpt lat="46.10636" lon="6.74384">
        <ele>1039</ele>
        <time>2016-07-04T14:26:20.000Z</time>
      </trkpt>
      <trkpt lat="46.10627" lon="6.74384">
        <ele>1036</ele>
        <time>2016-07-04T14:26:35.000Z</time>
      </trkpt>
      <trkpt lat="46.10626" lon="6.74384">
        <ele>1035</ele>
        <time>2016-07-04T14:26:36.000Z</time>
      </trkpt>
      <trkpt lat="46.10617" lon="6.74384">
        <ele>1037</ele>
        <time>2016-07-04T14:26:46.000Z</time>
      </trkpt>
      <trkpt lat="46.10615" lon="6.74384">
        <ele>1037</ele>
        <time>2016-07-04T14:26:47.000Z</time>
      </trkpt>
      <trkpt lat="46.10608" lon="6.74377">
        <ele>1039</ele>
        <time>2016-07-04T14:26:59.000Z</time>
      </trkpt>
      <trkpt lat="46.10606" lon="6.74376">
        <ele>1038</ele>
        <time>2016-07-04T14:27:00.000Z</time>
      </trkpt>
      <trkpt lat="46.106" lon="6.74371">
        <ele>1038</ele>
        <time>2016-07-04T14:27:14.000Z</time>
      </trkpt>
      <trkpt lat="46.10597" lon="6.74371">
        <ele>1037</ele>
        <time>2016-07-04T14:27:15.000Z</time>
      </trkpt>
      <trkpt lat="46.1059" lon="6.74365">
        <ele>1036</ele>
        <time>2016-07-04T14:27:26.000Z</time>
      </trkpt>
      <trkpt lat="46.10589" lon="6.74364">
        <ele>1036</ele>
        <time>2016-07-04T14:27:27.000Z</time>
      </trkpt>
      <trkpt lat="46.1058" lon="6.74365">
        <ele>1030</ele>
        <time>2016-07-04T14:27:43.000Z</time>
      </trkpt>
      <trkpt lat="46.10579" lon="6.74365">
        <ele>1030</ele>
        <time>2016-07-04T14:27:44.000Z</time>
      </trkpt>
      <trkpt lat="46.10572" lon="6.74365">
        <ele>1027</ele>
        <time>2016-07-04T14:27:47.000Z</time>
      </trkpt>
      <trkpt lat="46.1057" lon="6.74364">
        <ele>1026</ele>
        <time>2016-07-04T14:27:48.000Z</time>
      </trkpt>
      <trkpt lat="46.10563" lon="6.74362">
        <ele>1027</ele>
        <time>2016-07-04T14:27:52.000Z</time>
      </trkpt>
      <trkpt lat="46.10561" lon="6.74366">
        <ele>1026</ele>
        <time>2016-07-04T14:27:53.000Z</time>
      </trkpt>
      <trkpt lat="46.10552" lon="6.74363">
        <ele>1030</ele>
        <time>2016-07-04T14:28:02.000Z</time>
      </trkpt>
      <trkpt lat="46.1055" lon="6.74362">
        <ele>1030</ele>
        <time>2016-07-04T14:28:03.000Z</time>
      </trkpt>
      <trkpt lat="46.10542" lon="6.74362">
        <ele>1029</ele>
        <time>2016-07-04T14:28:24.000Z</time>
      </trkpt>
      <trkpt lat="46.1054" lon="6.74363">
        <ele>1028</ele>
        <time>2016-07-04T14:28:25.000Z</time>
      </trkpt>
      <trkpt lat="46.10532" lon="6.74368">
        <ele>1025</ele>
        <time>2016-07-04T14:28:31.000Z</time>
      </trkpt>
      <trkpt lat="46.10531" lon="6.74366">
        <ele>1027</ele>
        <time>2016-07-04T14:28:32.000Z</time>
      </trkpt>
      <trkpt lat="46.10523" lon="6.74371">
        <ele>1025</ele>
        <time>2016-07-04T14:28:42.000Z</time>
      </trkpt>
      <trkpt lat="46.10521" lon="6.74371">
        <ele>1024</ele>
        <time>2016-07-04T14:28:43.000Z</time>
      </trkpt>
      <trkpt lat="46.10513" lon="6.74373">
        <ele>1022</ele>
        <time>2016-07-04T14:28:50.000Z</time>
      </trkpt>
      <trkpt lat="46.10511" lon="6.74374">
        <ele>1022</ele>
        <time>2016-07-04T14:28:51.000Z</time>
      </trkpt>
      <trkpt lat="46.10503" lon="6.74374">
        <ele>1023</ele>
        <time>2016-07-04T14:28:58.000Z</time>
      </trkpt>
      <trkpt lat="46.10501" lon="6.74372">
        <ele>1025</ele>
        <time>2016-07-04T14:28:59.000Z</time>
      </trkpt>
      <trkpt lat="46.10493" lon="6.74374">
        <ele>1025</ele>
        <time>2016-07-04T14:29:05.000Z</time>
      </trkpt>
      <trkpt lat="46.10492" lon="6.74374">
        <ele>1024</ele>
        <time>2016-07-04T14:29:06.000Z</time>
      </trkpt>
      <trkpt lat="46.10484" lon="6.74373">
        <ele>1024</ele>
        <time>2016-07-04T14:29:18.000Z</time>
      </trkpt>
      <trkpt lat="46.10483" lon="6.74374">
        <ele>1024</ele>
        <time>2016-07-04T14:29:19.000Z</time>
      </trkpt>
      <trkpt lat="46.10474" lon="6.74369">
        <ele>1025</ele>
        <time>2016-07-04T14:29:24.000Z</time>
      </trkpt>
      <trkpt lat="46.10473" lon="6.74369">
        <ele>1025</ele>
        <time>2016-07-04T14:29:25.000Z</time>
      </trkpt>
      <trkpt lat="46.10465" lon="6.7437">
        <ele>1021</ele>
        <time>2016-07-04T14:29:33.000Z</time>
      </trkpt>
      <trkpt lat="46.10464" lon="6.74371">
        <ele>1021</ele>
        <time>2016-07-04T14:29:34.000Z</time>
      </trkpt>
      <trkpt lat="46.10457" lon="6.74373">
        <ele>1021</ele>
        <time>2016-07-04T14:29:41.000Z</time>
      </trkpt>
      <trkpt lat="46.10454" lon="6.74372">
        <ele>1021</ele>
        <time>2016-07-04T14:29:42.000Z</time>
      </trkpt>
      <trkpt lat="46.10447" lon="6.74371">
        <ele>1019</ele>
        <time>2016-07-04T14:29:47.000Z</time>
      </trkpt>
      <trkpt lat="46.10445" lon="6.7437">
        <ele>1020</ele>
        <time>2016-07-04T14:29:48.000Z</time>
      </trkpt>
      <trkpt lat="46.10437" lon="6.74367">
        <ele>1018</ele>
        <time>2016-07-04T14:30:09.000Z</time>
      </trkpt>
      <trkpt lat="46.10435" lon="6.74367">
        <ele>1016</ele>
        <time>2016-07-04T14:30:10.000Z</time>
      </trkpt>
      <trkpt lat="46.10426" lon="6.74367">
        <ele>1012</ele>
        <time>2016-07-04T14:30:22.000Z</time>
      </trkpt>
      <trkpt lat="46.10426" lon="6.74367">
        <ele>1012</ele>
        <time>2016-07-04T14:30:23.000Z</time>
      </trkpt>
      <trkpt lat="46.10419" lon="6.74364">
        <ele>1007</ele>
        <time>2016-07-04T14:30:29.000Z</time>
      </trkpt>
      <trkpt lat="46.10416" lon="6.74364">
        <ele>1008</ele>
        <time>2016-07-04T14:30:30.000Z</time>
      </trkpt>
      <trkpt lat="46.10407" lon="6.74365">
        <ele>1006</ele>
        <time>2016-07-04T14:30:40.000Z</time>
      </trkpt>
      <trkpt lat="46.10407" lon="6.74363">
        <ele>1005</ele>
        <time>2016-07-04T14:30:41.000Z</time>
      </trkpt>
      <trkpt lat="46.10398" lon="6.74362">
        <ele>1004</ele>
        <time>2016-07-04T14:30:59.000Z</time>
      </trkpt>
      <trkpt lat="46.10397" lon="6.74363">
        <ele>1003</ele>
        <time>2016-07-04T14:31:00.000Z</time>
      </trkpt>
      <trkpt lat="46.10392" lon="6.74353">
        <ele>1000</ele>
        <time>2016-07-04T14:31:15.000Z</time>
      </trkpt>
      <trkpt lat="46.10389" lon="6.74348">
        <ele>1000</ele>
        <time>2016-07-04T14:31:16.000Z</time>
      </trkpt>
      <trkpt lat="46.10383" lon="6.74338">
        <ele>999</ele>
        <time>2016-07-04T14:31:27.000Z</time>
      </trkpt>
      <trkpt lat="46.10383" lon="6.74338">
        <ele>999</ele>
        <time>2016-07-04T14:31:28.000Z</time>
      </trkpt>
      <trkpt lat="46.10386" lon="6.74325">
        <ele>996</ele>
        <time>2016-07-04T14:31:57.000Z</time>
      </trkpt>
      <trkpt lat="46.10385" lon="6.74325">
        <ele>994</ele>
        <time>2016-07-04T14:31:58.000Z</time>
      </trkpt>
      <trkpt lat="46.10383" lon="6.74313">
        <ele>991</ele>
        <time>2016-07-04T14:32:21.000Z</time>
      </trkpt>
      <trkpt lat="46.10383" lon="6.74312">
        <ele>991</ele>
        <time>2016-07-04T14:32:22.000Z</time>
      </trkpt>
      <trkpt lat="46.10378" lon="6.74301">
        <ele>986</ele>
        <time>2016-07-04T14:32:44.000Z</time>
      </trkpt>
      <trkpt lat="46.10378" lon="6.743">
        <ele>986</ele>
        <time>2016-07-04T14:32:45.000Z</time>
      </trkpt>
      <trkpt lat="46.10371" lon="6.74295">
        <ele>978</ele>
        <time>2016-07-04T14:33:00.000Z</time>
      </trkpt>
      <trkpt lat="46.1037" lon="6.74294">
        <ele>977</ele>
        <time>2016-07-04T14:33:01.000Z</time>
      </trkpt>
      <trkpt lat="46.10362" lon="6.74296">
        <ele>972</ele>
        <time>2016-07-04T14:33:14.000Z</time>
      </trkpt>
      <trkpt lat="46.1036" lon="6.74295">
        <ele>971</ele>
        <time>2016-07-04T14:33:15.000Z</time>
      </trkpt>
      <trkpt lat="46.10358" lon="6.74295">
        <ele>969</ele>
        <time>2016-07-04T14:33:18.000Z</time>
      </trkpt>
      <trkpt lat="46.10357" lon="6.74296">
        <ele>969</ele>
        <time>2016-07-04T14:33:19.000Z</time>
      </trkpt>
      <trkpt lat="46.10356" lon="6.74295">
        <ele>971</ele>
        <time>2016-07-04T14:33:21.000Z</time>
      </trkpt>
      <trkpt lat="46.10356" lon="6.74294">
        <ele>970</ele>
        <time>2016-07-04T14:33:22.000Z</time>
      </trkpt>
      <trkpt lat="46.10351" lon="6.74284">
        <ele>966</ele>
        <time>2016-07-04T14:33:36.000Z</time>
      </trkpt>
      <trkpt lat="46.10351" lon="6.74284">
        <ele>966</ele>
        <time>2016-07-04T14:33:37.000Z</time>
      </trkpt>
      <trkpt lat="46.10342" lon="6.7428">
        <ele>962</ele>
        <time>2016-07-04T14:33:54.000Z</time>
      </trkpt>
      <trkpt lat="46.10339" lon="6.74278">
        <ele>960</ele>
        <time>2016-07-04T14:33:55.000Z</time>
      </trkpt>
      <trkpt lat="46.10333" lon="6.74283">
        <ele>957</ele>
        <time>2016-07-04T14:34:07.000Z</time>
      </trkpt>
      <trkpt lat="46.10332" lon="6.74285">
        <ele>957</ele>
        <time>2016-07-04T14:34:08.000Z</time>
      </trkpt>
      <trkpt lat="46.10328" lon="6.74289">
        <ele>957</ele>
        <time>2016-07-04T14:34:56.000Z</time>
      </trkpt>
      <trkpt lat="46.10322" lon="6.74284">
        <ele>956</ele>
        <time>2016-07-04T14:34:57.000Z</time>
      </trkpt>
      <trkpt lat="46.10317" lon="6.7428">
        <ele>956</ele>
        <time>2016-07-04T14:35:00.000Z</time>
      </trkpt>
      <trkpt lat="46.10314" lon="6.74278">
        <ele>956</ele>
        <time>2016-07-04T14:35:01.000Z</time>
      </trkpt>
      <trkpt lat="46.10314" lon="6.74278">
        <ele>960</ele>
        <time>2016-07-04T14:35:02.000Z</time>
      </trkpt>
      <trkpt lat="46.10313" lon="6.74276">
        <ele>959</ele>
        <time>2016-07-04T14:35:03.000Z</time>
      </trkpt>
      <trkpt lat="46.10308" lon="6.74271">
        <ele>953</ele>
        <time>2016-07-04T14:35:04.000Z</time>
      </trkpt>
      <trkpt lat="46.10302" lon="6.74272">
        <ele>953</ele>
        <time>2016-07-04T14:35:13.000Z</time>
      </trkpt>
      <trkpt lat="46.10303" lon="6.74273">
        <ele>951</ele>
        <time>2016-07-04T14:35:14.000Z</time>
      </trkpt>
      <trkpt lat="46.10303" lon="6.74276">
        <ele>950</ele>
        <time>2016-07-04T14:35:21.000Z</time>
      </trkpt>
      <trkpt lat="46.10303" lon="6.74276">
        <ele>950</ele>
        <time>2016-07-04T14:35:22.000Z</time>
      </trkpt>
      <trkpt lat="46.10295" lon="6.74279">
        <ele>952</ele>
        <time>2016-07-04T14:35:30.000Z</time>
      </trkpt>
      <trkpt lat="46.10291" lon="6.74276">
        <ele>948</ele>
        <time>2016-07-04T14:35:31.000Z</time>
      </trkpt>
      <trkpt lat="46.10283" lon="6.74275">
        <ele>945</ele>
        <time>2016-07-04T14:35:36.000Z</time>
      </trkpt>
      <trkpt lat="46.10281" lon="6.74273">
        <ele>946</ele>
        <time>2016-07-04T14:35:37.000Z</time>
      </trkpt>
      <trkpt lat="46.10272" lon="6.7427">
        <ele>946</ele>
        <time>2016-07-04T14:35:47.000Z</time>
      </trkpt>
      <trkpt lat="46.1027" lon="6.74269">
        <ele>947</ele>
        <time>2016-07-04T14:35:48.000Z</time>
      </trkpt>
      <trkpt lat="46.10262" lon="6.74269">
        <ele>949</ele>
        <time>2016-07-04T14:36:06.000Z</time>
      </trkpt>
      <trkpt lat="46.10262" lon="6.74269">
        <ele>950</ele>
        <time>2016-07-04T14:36:07.000Z</time>
      </trkpt>
      <trkpt lat="46.1026" lon="6.74268">
        <ele>949</ele>
        <time>2016-07-04T14:36:08.000Z</time>
      </trkpt>
      <trkpt lat="46.10251" lon="6.74268">
        <ele>944</ele>
        <time>2016-07-04T14:36:14.000Z</time>
      </trkpt>
      <trkpt lat="46.10249" lon="6.74268">
        <ele>942</ele>
        <time>2016-07-04T14:36:15.000Z</time>
      </trkpt>
      <trkpt lat="46.10241" lon="6.74265">
        <ele>939</ele>
        <time>2016-07-04T14:36:20.000Z</time>
      </trkpt>
      <trkpt lat="46.1024" lon="6.74265">
        <ele>940</ele>
        <time>2016-07-04T14:36:21.000Z</time>
      </trkpt>
      <trkpt lat="46.10231" lon="6.74264">
        <ele>940</ele>
        <time>2016-07-04T14:36:27.000Z</time>
      </trkpt>
      <trkpt lat="46.10229" lon="6.74262">
        <ele>939</ele>
        <time>2016-07-04T14:36:28.000Z</time>
      </trkpt>
      <trkpt lat="46.10223" lon="6.74256">
        <ele>936</ele>
        <time>2016-07-04T14:36:34.000Z</time>
      </trkpt>
      <trkpt lat="46.10221" lon="6.74255">
        <ele>936</ele>
        <time>2016-07-04T14:36:35.000Z</time>
      </trkpt>
      <trkpt lat="46.10215" lon="6.74255">
        <ele>934</ele>
        <time>2016-07-04T14:37:02.000Z</time>
      </trkpt>
      <trkpt lat="46.10212" lon="6.74253">
        <ele>932</ele>
        <time>2016-07-04T14:37:03.000Z</time>
      </trkpt>
      <trkpt lat="46.10205" lon="6.74251">
        <ele>928</ele>
        <time>2016-07-04T14:37:06.000Z</time>
      </trkpt>
      <trkpt lat="46.10203" lon="6.74252">
        <ele>927</ele>
        <time>2016-07-04T14:37:07.000Z</time>
      </trkpt>
      <trkpt lat="46.10195" lon="6.74249">
        <ele>930</ele>
        <time>2016-07-04T14:37:13.000Z</time>
      </trkpt>
      <trkpt lat="46.10193" lon="6.7425">
        <ele>930</ele>
        <time>2016-07-04T14:37:14.000Z</time>
      </trkpt>
      <trkpt lat="46.10185" lon="6.74251">
        <ele>933</ele>
        <time>2016-07-04T14:37:22.000Z</time>
      </trkpt>
      <trkpt lat="46.10184" lon="6.7425">
        <ele>933</ele>
        <time>2016-07-04T14:37:23.000Z</time>
      </trkpt>
      <trkpt lat="46.10176" lon="6.74244">
        <ele>932</ele>
        <time>2016-07-04T14:37:40.000Z</time>
      </trkpt>
      <trkpt lat="46.10175" lon="6.74243">
        <ele>932</ele>
        <time>2016-07-04T14:37:41.000Z</time>
      </trkpt>
      <trkpt lat="46.10167" lon="6.7424">
        <ele>933</ele>
        <time>2016-07-04T14:37:46.000Z</time>
      </trkpt>
      <trkpt lat="46.10165" lon="6.74239">
        <ele>933</ele>
        <time>2016-07-04T14:37:47.000Z</time>
      </trkpt>
      <trkpt lat="46.10157" lon="6.7424">
        <ele>934</ele>
        <time>2016-07-04T14:37:54.000Z</time>
      </trkpt>
      <trkpt lat="46.10155" lon="6.7424">
        <ele>934</ele>
        <time>2016-07-04T14:37:55.000Z</time>
      </trkpt>
      <trkpt lat="46.10152" lon="6.7424">
        <ele>938</ele>
        <time>2016-07-04T14:37:58.000Z</time>
      </trkpt>
      <trkpt lat="46.10152" lon="6.7424">
        <ele>936</ele>
        <time>2016-07-04T14:37:59.000Z</time>
      </trkpt>
      <trkpt lat="46.1015" lon="6.74238">
        <ele>936</ele>
        <time>2016-07-04T14:38:00.000Z</time>
      </trkpt>
      <trkpt lat="46.10142" lon="6.74236">
        <ele>937</ele>
        <time>2016-07-04T14:38:05.000Z</time>
      </trkpt>
      <trkpt lat="46.1014" lon="6.74237">
        <ele>937</ele>
        <time>2016-07-04T14:38:06.000Z</time>
      </trkpt>
      <trkpt lat="46.10133" lon="6.74233">
        <ele>934</ele>
        <time>2016-07-04T14:38:12.000Z</time>
      </trkpt>
      <trkpt lat="46.10131" lon="6.74233">
        <ele>934</ele>
        <time>2016-07-04T14:38:13.000Z</time>
      </trkpt>
      <trkpt lat="46.10123" lon="6.74237">
        <ele>935</ele>
        <time>2016-07-04T14:38:19.000Z</time>
      </trkpt>
      <trkpt lat="46.10122" lon="6.74238">
        <ele>936</ele>
        <time>2016-07-04T14:38:20.000Z</time>
      </trkpt>
      <trkpt lat="46.10123" lon="6.7425">
        <ele>926</ele>
        <time>2016-07-04T14:38:33.000Z</time>
      </trkpt>
      <trkpt lat="46.10122" lon="6.74252">
        <ele>926</ele>
        <time>2016-07-04T14:38:34.000Z</time>
      </trkpt>
      <trkpt lat="46.10123" lon="6.74263">
        <ele>925</ele>
        <time>2016-07-04T14:38:45.000Z</time>
      </trkpt>
      <trkpt lat="46.10123" lon="6.74266">
        <ele>926</ele>
        <time>2016-07-04T14:38:46.000Z</time>
      </trkpt>
      <trkpt lat="46.10127" lon="6.74275">
        <ele>923</ele>
        <time>2016-07-04T14:38:54.000Z</time>
      </trkpt>
      <trkpt lat="46.10127" lon="6.74278">
        <ele>924</ele>
        <time>2016-07-04T14:38:55.000Z</time>
      </trkpt>
      <trkpt lat="46.10131" lon="6.74287">
        <ele>928</ele>
        <time>2016-07-04T14:39:35.000Z</time>
      </trkpt>
      <trkpt lat="46.10133" lon="6.7429">
        <ele>929</ele>
        <time>2016-07-04T14:39:36.000Z</time>
      </trkpt>
      <trkpt lat="46.1014" lon="6.74299">
        <ele>928</ele>
        <time>2016-07-04T14:39:46.000Z</time>
      </trkpt>
      <trkpt lat="46.10142" lon="6.74299">
        <ele>927</ele>
        <time>2016-07-04T14:39:47.000Z</time>
      </trkpt>
      <trkpt lat="46.10145" lon="6.74307">
        <ele>927</ele>
        <time>2016-07-04T14:39:49.000Z</time>
      </trkpt>
      <trkpt lat="46.10147" lon="6.74311">
        <ele>927</ele>
        <time>2016-07-04T14:39:50.000Z</time>
      </trkpt>
      <trkpt lat="46.1014" lon="6.74309">
        <ele>928</ele>
        <time>2016-07-04T14:40:10.000Z</time>
      </trkpt>
      <trkpt lat="46.10138" lon="6.74307">
        <ele>925</ele>
        <time>2016-07-04T14:40:11.000Z</time>
      </trkpt>
      <trkpt lat="46.1013" lon="6.74308">
        <ele>917</ele>
        <time>2016-07-04T14:40:26.000Z</time>
      </trkpt>
      <trkpt lat="46.10128" lon="6.74309">
        <ele>917</ele>
        <time>2016-07-04T14:40:27.000Z</time>
      </trkpt>
      <trkpt lat="46.10121" lon="6.74315">
        <ele>924</ele>
        <time>2016-07-04T14:40:47.000Z</time>
      </trkpt>
      <trkpt lat="46.10119" lon="6.74315">
        <ele>923</ele>
        <time>2016-07-04T14:40:48.000Z</time>
      </trkpt>
      <trkpt lat="46.1011" lon="6.74315">
        <ele>927</ele>
        <time>2016-07-04T14:40:58.000Z</time>
      </trkpt>
      <trkpt lat="46.10109" lon="6.74316">
        <ele>927</ele>
        <time>2016-07-04T14:40:59.000Z</time>
      </trkpt>
      <trkpt lat="46.10102" lon="6.74312">
        <ele>926</ele>
        <time>2016-07-04T14:41:09.000Z</time>
      </trkpt>
      <trkpt lat="46.101" lon="6.74311">
        <ele>925</ele>
        <time>2016-07-04T14:41:10.000Z</time>
      </trkpt>
      <trkpt lat="46.10092" lon="6.74311">
        <ele>922</ele>
        <time>2016-07-04T14:41:30.000Z</time>
      </trkpt>
      <trkpt lat="46.10091" lon="6.74312">
        <ele>922</ele>
        <time>2016-07-04T14:41:31.000Z</time>
      </trkpt>
      <trkpt lat="46.10083" lon="6.74311">
        <ele>918</ele>
        <time>2016-07-04T14:41:39.000Z</time>
      </trkpt>
      <trkpt lat="46.10081" lon="6.74312">
        <ele>919</ele>
        <time>2016-07-04T14:41:40.000Z</time>
      </trkpt>
      <trkpt lat="46.10073" lon="6.74312">
        <ele>919</ele>
        <time>2016-07-04T14:41:45.000Z</time>
      </trkpt>
      <trkpt lat="46.1007" lon="6.74312">
        <ele>916</ele>
        <time>2016-07-04T14:41:46.000Z</time>
      </trkpt>
      <trkpt lat="46.10061" lon="6.74312">
        <ele>920</ele>
        <time>2016-07-04T14:41:55.000Z</time>
      </trkpt>
      <trkpt lat="46.10059" lon="6.74312">
        <ele>919</ele>
        <time>2016-07-04T14:41:56.000Z</time>
      </trkpt>
      <trkpt lat="46.10051" lon="6.74313">
        <ele>921</ele>
        <time>2016-07-04T14:42:06.000Z</time>
      </trkpt>
      <trkpt lat="46.1005" lon="6.74313">
        <ele>922</ele>
        <time>2016-07-04T14:42:07.000Z</time>
      </trkpt>
      <trkpt lat="46.10042" lon="6.7431">
        <ele>919</ele>
        <time>2016-07-04T14:42:15.000Z</time>
      </trkpt>
      <trkpt lat="46.1004" lon="6.74311">
        <ele>920</ele>
        <time>2016-07-04T14:42:16.000Z</time>
      </trkpt>
      <trkpt lat="46.10032" lon="6.7431">
        <ele>917</ele>
        <time>2016-07-04T14:42:23.000Z</time>
      </trkpt>
      <trkpt lat="46.1003" lon="6.74309">
        <ele>916</ele>
        <time>2016-07-04T14:42:24.000Z</time>
      </trkpt>
      <trkpt lat="46.10021" lon="6.74308">
        <ele>912</ele>
        <time>2016-07-04T14:42:29.000Z</time>
      </trkpt>
      <trkpt lat="46.10019" lon="6.74309">
        <ele>912</ele>
        <time>2016-07-04T14:42:30.000Z</time>
      </trkpt>
      <trkpt lat="46.10011" lon="6.74311">
        <ele>908</ele>
        <time>2016-07-04T14:42:37.000Z</time>
      </trkpt>
      <trkpt lat="46.10008" lon="6.74309">
        <ele>908</ele>
        <time>2016-07-04T14:42:38.000Z</time>
      </trkpt>
      <trkpt lat="46.10003" lon="6.74301">
        <ele>909</ele>
        <time>2016-07-04T14:42:47.000Z</time>
      </trkpt>
      <trkpt lat="46.10001" lon="6.743">
        <ele>909</ele>
        <time>2016-07-04T14:42:48.000Z</time>
      </trkpt>
      <trkpt lat="46.09995" lon="6.74295">
        <ele>907</ele>
        <time>2016-07-04T14:42:54.000Z</time>
      </trkpt>
      <trkpt lat="46.09993" lon="6.74293">
        <ele>906</ele>
        <time>2016-07-04T14:42:55.000Z</time>
      </trkpt>
      <trkpt lat="46.09986" lon="6.74286">
        <ele>902</ele>
        <time>2016-07-04T14:43:03.000Z</time>
      </trkpt>
      <trkpt lat="46.09984" lon="6.74286">
        <ele>902</ele>
        <time>2016-07-04T14:43:04.000Z</time>
      </trkpt>
      <trkpt lat="46.09978" lon="6.74278">
        <ele>902</ele>
        <time>2016-07-04T14:43:13.000Z</time>
      </trkpt>
      <trkpt lat="46.09977" lon="6.74277">
        <ele>901</ele>
        <time>2016-07-04T14:43:14.000Z</time>
      </trkpt>
      <trkpt lat="46.09968" lon="6.74273">
        <ele>904</ele>
        <time>2016-07-04T14:43:24.000Z</time>
      </trkpt>
      <trkpt lat="46.09967" lon="6.74272">
        <ele>903</ele>
        <time>2016-07-04T14:43:25.000Z</time>
      </trkpt>
      <trkpt lat="46.0996" lon="6.74268">
        <ele>909</ele>
        <time>2016-07-04T14:43:38.000Z</time>
      </trkpt>
      <trkpt lat="46.09959" lon="6.74266">
        <ele>909</ele>
        <time>2016-07-04T14:43:39.000Z</time>
      </trkpt>
      <trkpt lat="46.09951" lon="6.74262">
        <ele>905</ele>
        <time>2016-07-04T14:43:49.000Z</time>
      </trkpt>
      <trkpt lat="46.09949" lon="6.74261">
        <ele>903</ele>
        <time>2016-07-04T14:43:50.000Z</time>
      </trkpt>
      <trkpt lat="46.09941" lon="6.74257">
        <ele>904</ele>
        <time>2016-07-04T14:44:01.000Z</time>
      </trkpt>
      <trkpt lat="46.09941" lon="6.74256">
        <ele>905</ele>
        <time>2016-07-04T14:44:02.000Z</time>
      </trkpt>
      <trkpt lat="46.09933" lon="6.74251">
        <ele>904</ele>
        <time>2016-07-04T14:44:14.000Z</time>
      </trkpt>
      <trkpt lat="46.09931" lon="6.7425">
        <ele>903</ele>
        <time>2016-07-04T14:44:15.000Z</time>
      </trkpt>
      <trkpt lat="46.09924" lon="6.74246">
        <ele>905</ele>
        <time>2016-07-04T14:44:18.000Z</time>
      </trkpt>
      <trkpt lat="46.09921" lon="6.74246">
        <ele>905</ele>
        <time>2016-07-04T14:44:19.000Z</time>
      </trkpt>
      <trkpt lat="46.09913" lon="6.74244">
        <ele>909</ele>
        <time>2016-07-04T14:44:29.000Z</time>
      </trkpt>
      <trkpt lat="46.09911" lon="6.74242">
        <ele>907</ele>
        <time>2016-07-04T14:44:30.000Z</time>
      </trkpt>
      <trkpt lat="46.09903" lon="6.74241">
        <ele>905</ele>
        <time>2016-07-04T14:44:35.000Z</time>
      </trkpt>
      <trkpt lat="46.09902" lon="6.74241">
        <ele>904</ele>
        <time>2016-07-04T14:44:36.000Z</time>
      </trkpt>
      <trkpt lat="46.09893" lon="6.74241">
        <ele>903</ele>
        <time>2016-07-04T14:44:46.000Z</time>
      </trkpt>
      <trkpt lat="46.09892" lon="6.74241">
        <ele>904</ele>
        <time>2016-07-04T14:44:47.000Z</time>
      </trkpt>
      <trkpt lat="46.09885" lon="6.74245">
        <ele>903</ele>
        <time>2016-07-04T14:44:54.000Z</time>
      </trkpt>
      <trkpt lat="46.09884" lon="6.74245">
        <ele>903</ele>
        <time>2016-07-04T14:44:55.000Z</time>
      </trkpt>
      <trkpt lat="46.09875" lon="6.74244">
        <ele>898</ele>
        <time>2016-07-04T14:45:02.000Z</time>
      </trkpt>
      <trkpt lat="46.09874" lon="6.74244">
        <ele>898</ele>
        <time>2016-07-04T14:45:03.000Z</time>
      </trkpt>
      <trkpt lat="46.09867" lon="6.74247">
        <ele>900</ele>
        <time>2016-07-04T14:45:09.000Z</time>
      </trkpt>
      <trkpt lat="46.09866" lon="6.74249">
        <ele>901</ele>
        <time>2016-07-04T14:45:10.000Z</time>
      </trkpt>
      <trkpt lat="46.09857" lon="6.74249">
        <ele>896</ele>
        <time>2016-07-04T14:45:20.000Z</time>
      </trkpt>
      <trkpt lat="46.09856" lon="6.74249">
        <ele>896</ele>
        <time>2016-07-04T14:45:21.000Z</time>
      </trkpt>
      <trkpt lat="46.09851" lon="6.74244">
        <ele>896</ele>
        <time>2016-07-04T14:45:27.000Z</time>
      </trkpt>
      <trkpt lat="46.09849" lon="6.74241">
        <ele>897</ele>
        <time>2016-07-04T14:45:28.000Z</time>
      </trkpt>
      <trkpt lat="46.09841" lon="6.74248">
        <ele>896</ele>
        <time>2016-07-04T14:45:34.000Z</time>
      </trkpt>
      <trkpt lat="46.0984" lon="6.74248">
        <ele>897</ele>
        <time>2016-07-04T14:45:35.000Z</time>
      </trkpt>
      <trkpt lat="46.09835" lon="6.74241">
        <ele>895</ele>
        <time>2016-07-04T14:45:50.000Z</time>
      </trkpt>
      <trkpt lat="46.09833" lon="6.74239">
        <ele>894</ele>
        <time>2016-07-04T14:45:51.000Z</time>
      </trkpt>
      <trkpt lat="46.09832" lon="6.74241">
        <ele>896</ele>
        <time>2016-07-04T14:45:56.000Z</time>
      </trkpt>
      <trkpt lat="46.09831" lon="6.7424">
        <ele>895</ele>
        <time>2016-07-04T14:45:57.000Z</time>
      </trkpt>
      <trkpt lat="46.09829" lon="6.74238">
        <ele>895</ele>
        <time>2016-07-04T14:45:58.000Z</time>
      </trkpt>
      <trkpt lat="46.09823" lon="6.74232">
        <ele>890</ele>
        <time>2016-07-04T14:46:03.000Z</time>
      </trkpt>
      <trkpt lat="46.09822" lon="6.74231">
        <ele>891</ele>
        <time>2016-07-04T14:46:04.000Z</time>
      </trkpt>
      <trkpt lat="46.09818" lon="6.74222">
        <ele>890</ele>
        <time>2016-07-04T14:46:09.000Z</time>
      </trkpt>
      <trkpt lat="46.09816" lon="6.7422">
        <ele>889</ele>
        <time>2016-07-04T14:46:10.000Z</time>
      </trkpt>
      <trkpt lat="46.09812" lon="6.74209">
        <ele>890</ele>
        <time>2016-07-04T14:46:20.000Z</time>
      </trkpt>
      <trkpt lat="46.09812" lon="6.74208">
        <ele>890</ele>
        <time>2016-07-04T14:46:21.000Z</time>
      </trkpt>
      <trkpt lat="46.09804" lon="6.74203">
        <ele>889</ele>
        <time>2016-07-04T14:46:34.000Z</time>
      </trkpt>
      <trkpt lat="46.09802" lon="6.74203">
        <ele>884</ele>
        <time>2016-07-04T14:46:35.000Z</time>
      </trkpt>
      <trkpt lat="46.09794" lon="6.74199">
        <ele>881</ele>
        <time>2016-07-04T14:46:39.000Z</time>
      </trkpt>
      <trkpt lat="46.09793" lon="6.74199">
        <ele>880</ele>
        <time>2016-07-04T14:46:40.000Z</time>
      </trkpt>
      <trkpt lat="46.09784" lon="6.74197">
        <ele>878</ele>
        <time>2016-07-04T14:46:43.000Z</time>
      </trkpt>
      <trkpt lat="46.09782" lon="6.74196">
        <ele>877</ele>
        <time>2016-07-04T14:46:44.000Z</time>
      </trkpt>
      <trkpt lat="46.09776" lon="6.74203">
        <ele>878</ele>
        <time>2016-07-04T14:46:53.000Z</time>
      </trkpt>
      <trkpt lat="46.09775" lon="6.74203">
        <ele>880</ele>
        <time>2016-07-04T14:46:54.000Z</time>
      </trkpt>
      <trkpt lat="46.09767" lon="6.74205">
        <ele>881</ele>
        <time>2016-07-04T14:47:00.000Z</time>
      </trkpt>
      <trkpt lat="46.09766" lon="6.74205">
        <ele>881</ele>
        <time>2016-07-04T14:47:01.000Z</time>
      </trkpt>
      <trkpt lat="46.09758" lon="6.74206">
        <ele>877</ele>
        <time>2016-07-04T14:47:07.000Z</time>
      </trkpt>
      <trkpt lat="46.09758" lon="6.74206">
        <ele>878</ele>
        <time>2016-07-04T14:47:08.000Z</time>
      </trkpt>
      <trkpt lat="46.09756" lon="6.74207">
        <ele>876</ele>
        <time>2016-07-04T14:47:09.000Z</time>
      </trkpt>
      <trkpt lat="46.09749" lon="6.74212">
        <ele>875</ele>
        <time>2016-07-04T14:47:18.000Z</time>
      </trkpt>
      <trkpt lat="46.09747" lon="6.74212">
        <ele>872</ele>
        <time>2016-07-04T14:47:19.000Z</time>
      </trkpt>
      <trkpt lat="46.09742" lon="6.74222">
        <ele>875</ele>
        <time>2016-07-04T14:47:27.000Z</time>
      </trkpt>
      <trkpt lat="46.0974" lon="6.74224">
        <ele>877</ele>
        <time>2016-07-04T14:47:28.000Z</time>
      </trkpt>
      <trkpt lat="46.09742" lon="6.74234">
        <ele>873</ele>
        <time>2016-07-04T14:47:36.000Z</time>
      </trkpt>
      <trkpt lat="46.09743" lon="6.74237">
        <ele>871</ele>
        <time>2016-07-04T14:47:37.000Z</time>
      </trkpt>
      <trkpt lat="46.09737" lon="6.74245">
        <ele>873</ele>
        <time>2016-07-04T14:47:42.000Z</time>
      </trkpt>
      <trkpt lat="46.09737" lon="6.74248">
        <ele>874</ele>
        <time>2016-07-04T14:47:43.000Z</time>
      </trkpt>
      <trkpt lat="46.09737" lon="6.7426">
        <ele>871</ele>
        <time>2016-07-04T14:47:53.000Z</time>
      </trkpt>
      <trkpt lat="46.09736" lon="6.74262">
        <ele>872</ele>
        <time>2016-07-04T14:47:54.000Z</time>
      </trkpt>
      <trkpt lat="46.09728" lon="6.74266">
        <ele>871</ele>
        <time>2016-07-04T14:48:05.000Z</time>
      </trkpt>
      <trkpt lat="46.09726" lon="6.74266">
        <ele>871</ele>
        <time>2016-07-04T14:48:06.000Z</time>
      </trkpt>
      <trkpt lat="46.09719" lon="6.74271">
        <ele>870</ele>
        <time>2016-07-04T14:48:11.000Z</time>
      </trkpt>
      <trkpt lat="46.09716" lon="6.74271">
        <ele>866</ele>
        <time>2016-07-04T14:48:12.000Z</time>
      </trkpt>
      <trkpt lat="46.09709" lon="6.74277">
        <ele>871</ele>
        <time>2016-07-04T14:48:20.000Z</time>
      </trkpt>
      <trkpt lat="46.09708" lon="6.74277">
        <ele>871</ele>
        <time>2016-07-04T14:48:21.000Z</time>
      </trkpt>
      <trkpt lat="46.09703" lon="6.74274">
        <ele>879</ele>
        <time>2016-07-04T14:48:35.000Z</time>
      </trkpt>
      <trkpt lat="46.09699" lon="6.74271">
        <ele>878</ele>
        <time>2016-07-04T14:48:36.000Z</time>
      </trkpt>
      <trkpt lat="46.09692" lon="6.74268">
        <ele>877</ele>
        <time>2016-07-04T14:48:42.000Z</time>
      </trkpt>
      <trkpt lat="46.0969" lon="6.74267">
        <ele>874</ele>
        <time>2016-07-04T14:48:43.000Z</time>
      </trkpt>
      <trkpt lat="46.09682" lon="6.74263">
        <ele>873</ele>
        <time>2016-07-04T14:48:54.000Z</time>
      </trkpt>
      <trkpt lat="46.09682" lon="6.74263">
        <ele>873</ele>
        <time>2016-07-04T14:48:55.000Z</time>
      </trkpt>
      <trkpt lat="46.09673" lon="6.74268">
        <ele>875</ele>
        <time>2016-07-04T14:49:02.000Z</time>
      </trkpt>
      <trkpt lat="46.09673" lon="6.74269">
        <ele>876</ele>
        <time>2016-07-04T14:49:03.000Z</time>
      </trkpt>
      <trkpt lat="46.09664" lon="6.7427">
        <ele>875</ele>
        <time>2016-07-04T14:49:27.000Z</time>
      </trkpt>
      <trkpt lat="46.09663" lon="6.74269">
        <ele>874</ele>
        <time>2016-07-04T14:49:28.000Z</time>
      </trkpt>
      <trkpt lat="46.09658" lon="6.7426">
        <ele>874</ele>
        <time>2016-07-04T14:49:33.000Z</time>
      </trkpt>
      <trkpt lat="46.09657" lon="6.74258">
        <ele>876</ele>
        <time>2016-07-04T14:49:34.000Z</time>
      </trkpt>
      <trkpt lat="46.0965" lon="6.74256">
        <ele>867</ele>
        <time>2016-07-04T14:50:14.000Z</time>
      </trkpt>
      <trkpt lat="46.09648" lon="6.74253">
        <ele>866</ele>
        <time>2016-07-04T14:50:15.000Z</time>
      </trkpt>
      <trkpt lat="46.09643" lon="6.74246">
        <ele>867</ele>
        <time>2016-07-04T14:50:21.000Z</time>
      </trkpt>
      <trkpt lat="46.09641" lon="6.74245">
        <ele>868</ele>
        <time>2016-07-04T14:50:22.000Z</time>
      </trkpt>
      <trkpt lat="46.09638" lon="6.74235">
        <ele>871</ele>
        <time>2016-07-04T14:50:28.000Z</time>
      </trkpt>
      <trkpt lat="46.09637" lon="6.74234">
        <ele>872</ele>
        <time>2016-07-04T14:50:29.000Z</time>
      </trkpt>
      <trkpt lat="46.09635" lon="6.74222">
        <ele>871</ele>
        <time>2016-07-04T14:50:35.000Z</time>
      </trkpt>
      <trkpt lat="46.09634" lon="6.74219">
        <ele>870</ele>
        <time>2016-07-04T14:50:36.000Z</time>
      </trkpt>
      <trkpt lat="46.09633" lon="6.74207">
        <ele>872</ele>
        <time>2016-07-04T14:50:43.000Z</time>
      </trkpt>
      <trkpt lat="46.09634" lon="6.74205">
        <ele>872</ele>
        <time>2016-07-04T14:50:44.000Z</time>
      </trkpt>
      <trkpt lat="46.09629" lon="6.74195">
        <ele>874</ele>
        <time>2016-07-04T14:50:52.000Z</time>
      </trkpt>
      <trkpt lat="46.09628" lon="6.74194">
        <ele>874</ele>
        <time>2016-07-04T14:50:53.000Z</time>
      </trkpt>
      <trkpt lat="46.0962" lon="6.74191">
        <ele>877</ele>
        <time>2016-07-04T14:51:01.000Z</time>
      </trkpt>
      <trkpt lat="46.09619" lon="6.74191">
        <ele>876</ele>
        <time>2016-07-04T14:51:02.000Z</time>
      </trkpt>
      <trkpt lat="46.09612" lon="6.74187">
        <ele>871</ele>
        <time>2016-07-04T14:51:16.000Z</time>
      </trkpt>
      <trkpt lat="46.09611" lon="6.74185">
        <ele>871</ele>
        <time>2016-07-04T14:51:17.000Z</time>
      </trkpt>
      <trkpt lat="46.09604" lon="6.74177">
        <ele>871</ele>
        <time>2016-07-04T14:51:22.000Z</time>
      </trkpt>
      <trkpt lat="46.09602" lon="6.74176">
        <ele>872</ele>
        <time>2016-07-04T14:51:23.000Z</time>
      </trkpt>
      <trkpt lat="46.09594" lon="6.74171">
        <ele>871</ele>
        <time>2016-07-04T14:51:37.000Z</time>
      </trkpt>
      <trkpt lat="46.09592" lon="6.7417">
        <ele>869</ele>
        <time>2016-07-04T14:51:38.000Z</time>
      </trkpt>
      <trkpt lat="46.09585" lon="6.74163">
        <ele>868</ele>
        <time>2016-07-04T14:51:46.000Z</time>
      </trkpt>
      <trkpt lat="46.09583" lon="6.74164">
        <ele>867</ele>
        <time>2016-07-04T14:51:47.000Z</time>
      </trkpt>
      <trkpt lat="46.09576" lon="6.7417">
        <ele>865</ele>
        <time>2016-07-04T14:51:54.000Z</time>
      </trkpt>
      <trkpt lat="46.09576" lon="6.7417">
        <ele>864</ele>
        <time>2016-07-04T14:51:55.000Z</time>
      </trkpt>
      <trkpt lat="46.09567" lon="6.74174">
        <ele>861</ele>
        <time>2016-07-04T14:52:03.000Z</time>
      </trkpt>
      <trkpt lat="46.09565" lon="6.74173">
        <ele>861</ele>
        <time>2016-07-04T14:52:04.000Z</time>
      </trkpt>
      <trkpt lat="46.09557" lon="6.74172">
        <ele>863</ele>
        <time>2016-07-04T14:52:13.000Z</time>
      </trkpt>
      <trkpt lat="46.09555" lon="6.74171">
        <ele>864</ele>
        <time>2016-07-04T14:52:14.000Z</time>
      </trkpt>
      <trkpt lat="46.09547" lon="6.74165">
        <ele>860</ele>
        <time>2016-07-04T14:52:23.000Z</time>
      </trkpt>
      <trkpt lat="46.09546" lon="6.74164">
        <ele>861</ele>
        <time>2016-07-04T14:52:24.000Z</time>
      </trkpt>
      <trkpt lat="46.09539" lon="6.74157">
        <ele>863</ele>
        <time>2016-07-04T14:52:36.000Z</time>
      </trkpt>
      <trkpt lat="46.09538" lon="6.74156">
        <ele>864</ele>
        <time>2016-07-04T14:52:37.000Z</time>
      </trkpt>
      <trkpt lat="46.0953" lon="6.74151">
        <ele>860</ele>
        <time>2016-07-04T14:52:46.000Z</time>
      </trkpt>
      <trkpt lat="46.09528" lon="6.7415">
        <ele>860</ele>
        <time>2016-07-04T14:52:47.000Z</time>
      </trkpt>
      <trkpt lat="46.09521" lon="6.74149">
        <ele>856</ele>
        <time>2016-07-04T14:52:53.000Z</time>
      </trkpt>
      <trkpt lat="46.09517" lon="6.74149">
        <ele>856</ele>
        <time>2016-07-04T14:52:54.000Z</time>
      </trkpt>
      <trkpt lat="46.0951" lon="6.74143">
        <ele>856</ele>
        <time>2016-07-04T14:53:00.000Z</time>
      </trkpt>
      <trkpt lat="46.09509" lon="6.74142">
        <ele>855</ele>
        <time>2016-07-04T14:53:01.000Z</time>
      </trkpt>
      <trkpt lat="46.09501" lon="6.74137">
        <ele>849</ele>
        <time>2016-07-04T14:53:12.000Z</time>
      </trkpt>
      <trkpt lat="46.095" lon="6.74136">
        <ele>849</ele>
        <time>2016-07-04T14:53:13.000Z</time>
      </trkpt>
      <trkpt lat="46.09492" lon="6.74131">
        <ele>851</ele>
        <time>2016-07-04T14:53:25.000Z</time>
      </trkpt>
      <trkpt lat="46.09491" lon="6.74131">
        <ele>850</ele>
        <time>2016-07-04T14:53:26.000Z</time>
      </trkpt>
      <trkpt lat="46.09484" lon="6.74125">
        <ele>850</ele>
        <time>2016-07-04T14:53:32.000Z</time>
      </trkpt>
      <trkpt lat="46.09482" lon="6.74125">
        <ele>850</ele>
        <time>2016-07-04T14:53:33.000Z</time>
      </trkpt>
      <trkpt lat="46.09474" lon="6.74124">
        <ele>852</ele>
        <time>2016-07-04T14:53:50.000Z</time>
      </trkpt>
      <trkpt lat="46.0947" lon="6.74124">
        <ele>852</ele>
        <time>2016-07-04T14:53:51.000Z</time>
      </trkpt>
      <trkpt lat="46.09463" lon="6.74127">
        <ele>848</ele>
        <time>2016-07-04T14:53:56.000Z</time>
      </trkpt>
      <trkpt lat="46.09461" lon="6.74128">
        <ele>848</ele>
        <time>2016-07-04T14:53:57.000Z</time>
      </trkpt>
      <trkpt lat="46.0946" lon="6.74139">
        <ele>853</ele>
        <time>2016-07-04T14:54:09.000Z</time>
      </trkpt>
      <trkpt lat="46.0946" lon="6.74141">
        <ele>853</ele>
        <time>2016-07-04T14:54:10.000Z</time>
      </trkpt>
      <trkpt lat="46.09451" lon="6.74146">
        <ele>862</ele>
        <time>2016-07-04T14:54:26.000Z</time>
      </trkpt>
      <trkpt lat="46.0945" lon="6.74147">
        <ele>863</ele>
        <time>2016-07-04T14:54:27.000Z</time>
      </trkpt>
      <trkpt lat="46.09441" lon="6.74144">
        <ele>864</ele>
        <time>2016-07-04T14:54:34.000Z</time>
      </trkpt>
      <trkpt lat="46.09439" lon="6.74144">
        <ele>864</ele>
        <time>2016-07-04T14:54:35.000Z</time>
      </trkpt>
      <trkpt lat="46.0943" lon="6.74144">
        <ele>867</ele>
        <time>2016-07-04T14:55:07.000Z</time>
      </trkpt>
      <trkpt lat="46.0943" lon="6.74142">
        <ele>865</ele>
        <time>2016-07-04T14:55:08.000Z</time>
      </trkpt>
      <trkpt lat="46.09422" lon="6.74139">
        <ele>863</ele>
        <time>2016-07-04T14:55:13.000Z</time>
      </trkpt>
      <trkpt lat="46.0942" lon="6.74139">
        <ele>863</ele>
        <time>2016-07-04T14:55:14.000Z</time>
      </trkpt>
      <trkpt lat="46.09411" lon="6.74135">
        <ele>861</ele>
        <time>2016-07-04T14:55:20.000Z</time>
      </trkpt>
      <trkpt lat="46.09409" lon="6.74136">
        <ele>861</ele>
        <time>2016-07-04T14:55:21.000Z</time>
      </trkpt>
      <trkpt lat="46.09402" lon="6.74129">
        <ele>857</ele>
        <time>2016-07-04T14:55:25.000Z</time>
      </trkpt>
      <trkpt lat="46.094" lon="6.74128">
        <ele>858</ele>
        <time>2016-07-04T14:55:26.000Z</time>
      </trkpt>
      <trkpt lat="46.09394" lon="6.74122">
        <ele>857</ele>
        <time>2016-07-04T14:55:29.000Z</time>
      </trkpt>
      <trkpt lat="46.0939" lon="6.74118">
        <ele>858</ele>
        <time>2016-07-04T14:55:30.000Z</time>
      </trkpt>
      <trkpt lat="46.09383" lon="6.74114">
        <ele>860</ele>
        <time>2016-07-04T14:55:36.000Z</time>
      </trkpt>
      <trkpt lat="46.09381" lon="6.74114">
        <ele>860</ele>
        <time>2016-07-04T14:55:37.000Z</time>
      </trkpt>
      <trkpt lat="46.09373" lon="6.74116">
        <ele>864</ele>
        <time>2016-07-04T14:55:42.000Z</time>
      </trkpt>
      <trkpt lat="46.09371" lon="6.74114">
        <ele>865</ele>
        <time>2016-07-04T14:55:43.000Z</time>
      </trkpt>
      <trkpt lat="46.09363" lon="6.74109">
        <ele>865</ele>
        <time>2016-07-04T14:55:50.000Z</time>
      </trkpt>
      <trkpt lat="46.09362" lon="6.74108">
        <ele>864</ele>
        <time>2016-07-04T14:55:51.000Z</time>
      </trkpt>
      <trkpt lat="46.09354" lon="6.74107">
        <ele>869</ele>
        <time>2016-07-04T14:55:57.000Z</time>
      </trkpt>
      <trkpt lat="46.09352" lon="6.74105">
        <ele>868</ele>
        <time>2016-07-04T14:55:58.000Z</time>
      </trkpt>
      <trkpt lat="46.09343" lon="6.74106">
        <ele>871</ele>
        <time>2016-07-04T14:56:15.000Z</time>
      </trkpt>
      <trkpt lat="46.09341" lon="6.74105">
        <ele>870</ele>
        <time>2016-07-04T14:56:16.000Z</time>
      </trkpt>
      <trkpt lat="46.09333" lon="6.74103">
        <ele>869</ele>
        <time>2016-07-04T14:56:20.000Z</time>
      </trkpt>
      <trkpt lat="46.09332" lon="6.74102">
        <ele>872</ele>
        <time>2016-07-04T14:56:21.000Z</time>
      </trkpt>
      <trkpt lat="46.09325" lon="6.74094">
        <ele>870</ele>
        <time>2016-07-04T14:56:27.000Z</time>
      </trkpt>
      <trkpt lat="46.09323" lon="6.74094">
        <ele>869</ele>
        <time>2016-07-04T14:56:28.000Z</time>
      </trkpt>
      <trkpt lat="46.09315" lon="6.74095">
        <ele>867</ele>
        <time>2016-07-04T14:56:37.000Z</time>
      </trkpt>
      <trkpt lat="46.09313" lon="6.74095">
        <ele>866</ele>
        <time>2016-07-04T14:56:38.000Z</time>
      </trkpt>
      <trkpt lat="46.09305" lon="6.74095">
        <ele>863</ele>
        <time>2016-07-04T14:56:57.000Z</time>
      </trkpt>
      <trkpt lat="46.09302" lon="6.74096">
        <ele>862</ele>
        <time>2016-07-04T14:56:58.000Z</time>
      </trkpt>
      <trkpt lat="46.09294" lon="6.74098">
        <ele>863</ele>
        <time>2016-07-04T14:57:04.000Z</time>
      </trkpt>
      <trkpt lat="46.09293" lon="6.74097">
        <ele>865</ele>
        <time>2016-07-04T14:57:05.000Z</time>
      </trkpt>
      <trkpt lat="46.09286" lon="6.74094">
        <ele>867</ele>
        <time>2016-07-04T14:57:12.000Z</time>
      </trkpt>
      <trkpt lat="46.09283" lon="6.74094">
        <ele>867</ele>
        <time>2016-07-04T14:57:13.000Z</time>
      </trkpt>
      <trkpt lat="46.09276" lon="6.74088">
        <ele>864</ele>
        <time>2016-07-04T14:57:20.000Z</time>
      </trkpt>
      <trkpt lat="46.09275" lon="6.74088">
        <ele>865</ele>
        <time>2016-07-04T14:57:21.000Z</time>
      </trkpt>
      <trkpt lat="46.09268" lon="6.74085">
        <ele>858</ele>
        <time>2016-07-04T14:57:32.000Z</time>
      </trkpt>
      <trkpt lat="46.09266" lon="6.74084">
        <ele>857</ele>
        <time>2016-07-04T14:57:33.000Z</time>
      </trkpt>
      <trkpt lat="46.0926" lon="6.74075">
        <ele>851</ele>
        <time>2016-07-04T14:57:45.000Z</time>
      </trkpt>
      <trkpt lat="46.09258" lon="6.74074">
        <ele>849</ele>
        <time>2016-07-04T14:57:46.000Z</time>
      </trkpt>
      <trkpt lat="46.0925" lon="6.7407">
        <ele>841</ele>
        <time>2016-07-04T14:57:54.000Z</time>
      </trkpt>
      <trkpt lat="46.09249" lon="6.7407">
        <ele>840</ele>
        <time>2016-07-04T14:57:55.000Z</time>
      </trkpt>
      <trkpt lat="46.09241" lon="6.74063">
        <ele>844</ele>
        <time>2016-07-04T14:58:01.000Z</time>
      </trkpt>
      <trkpt lat="46.09241" lon="6.74063">
        <ele>842</ele>
        <time>2016-07-04T14:58:02.000Z</time>
      </trkpt>
      <trkpt lat="46.09232" lon="6.74059">
        <ele>842</ele>
        <time>2016-07-04T14:58:14.000Z</time>
      </trkpt>
      <trkpt lat="46.09232" lon="6.74059">
        <ele>843</ele>
        <time>2016-07-04T14:58:15.000Z</time>
      </trkpt>
      <trkpt lat="46.09225" lon="6.74053">
        <ele>838</ele>
        <time>2016-07-04T14:58:24.000Z</time>
      </trkpt>
      <trkpt lat="46.09224" lon="6.74052">
        <ele>837</ele>
        <time>2016-07-04T14:58:25.000Z</time>
      </trkpt>
      <trkpt lat="46.0922" lon="6.74043">
        <ele>838</ele>
        <time>2016-07-04T14:58:31.000Z</time>
      </trkpt>
      <trkpt lat="46.09219" lon="6.74041">
        <ele>837</ele>
        <time>2016-07-04T14:58:32.000Z</time>
      </trkpt>
      <trkpt lat="46.09214" lon="6.74032">
        <ele>834</ele>
        <time>2016-07-04T14:58:38.000Z</time>
      </trkpt>
      <trkpt lat="46.09213" lon="6.74031">
        <ele>834</ele>
        <time>2016-07-04T14:58:39.000Z</time>
      </trkpt>
      <trkpt lat="46.09209" lon="6.74021">
        <ele>832</ele>
        <time>2016-07-04T14:58:47.000Z</time>
      </trkpt>
      <trkpt lat="46.09208" lon="6.7402">
        <ele>833</ele>
        <time>2016-07-04T14:58:48.000Z</time>
      </trkpt>
      <trkpt lat="46.09203" lon="6.74009">
        <ele>832</ele>
        <time>2016-07-04T14:58:56.000Z</time>
      </trkpt>
      <trkpt lat="46.09201" lon="6.74009">
        <ele>832</ele>
        <time>2016-07-04T14:58:57.000Z</time>
      </trkpt>
      <trkpt lat="46.09194" lon="6.74002">
        <ele>828</ele>
        <time>2016-07-04T14:59:06.000Z</time>
      </trkpt>
      <trkpt lat="46.09194" lon="6.74">
        <ele>828</ele>
        <time>2016-07-04T14:59:07.000Z</time>
      </trkpt>
      <trkpt lat="46.09187" lon="6.73993">
        <ele>830</ele>
        <time>2016-07-04T14:59:15.000Z</time>
      </trkpt>
      <trkpt lat="46.09186" lon="6.73991">
        <ele>829</ele>
        <time>2016-07-04T14:59:16.000Z</time>
      </trkpt>
      <trkpt lat="46.0918" lon="6.73984">
        <ele>827</ele>
        <time>2016-07-04T14:59:24.000Z</time>
      </trkpt>
      <trkpt lat="46.09179" lon="6.73983">
        <ele>825</ele>
        <time>2016-07-04T14:59:25.000Z</time>
      </trkpt>
      <trkpt lat="46.09172" lon="6.73975">
        <ele>827</ele>
        <time>2016-07-04T14:59:31.000Z</time>
      </trkpt>
      <trkpt lat="46.09169" lon="6.73974">
        <ele>829</ele>
        <time>2016-07-04T14:59:32.000Z</time>
      </trkpt>
      <trkpt lat="46.09161" lon="6.73969">
        <ele>825</ele>
        <time>2016-07-04T14:59:38.000Z</time>
      </trkpt>
      <trkpt lat="46.0916" lon="6.73969">
        <ele>826</ele>
        <time>2016-07-04T14:59:39.000Z</time>
      </trkpt>
      <trkpt lat="46.09152" lon="6.73967">
        <ele>827</ele>
        <time>2016-07-04T14:59:45.000Z</time>
      </trkpt>
      <trkpt lat="46.0915" lon="6.73968">
        <ele>828</ele>
        <time>2016-07-04T14:59:46.000Z</time>
      </trkpt>
      <trkpt lat="46.09142" lon="6.73968">
        <ele>822</ele>
        <time>2016-07-04T14:59:55.000Z</time>
      </trkpt>
      <trkpt lat="46.09141" lon="6.73969">
        <ele>821</ele>
        <time>2016-07-04T14:59:56.000Z</time>
      </trkpt>
      <trkpt lat="46.09133" lon="6.73967">
        <ele>818</ele>
        <time>2016-07-04T15:00:04.000Z</time>
      </trkpt>
      <trkpt lat="46.09132" lon="6.73968">
        <ele>819</ele>
        <time>2016-07-04T15:00:05.000Z</time>
      </trkpt>
      <trkpt lat="46.09123" lon="6.7397">
        <ele>815</ele>
        <time>2016-07-04T15:00:14.000Z</time>
      </trkpt>
      <trkpt lat="46.09122" lon="6.7397">
        <ele>815</ele>
        <time>2016-07-04T15:00:15.000Z</time>
      </trkpt>
      <trkpt lat="46.09113" lon="6.73972">
        <ele>813</ele>
        <time>2016-07-04T15:00:26.000Z</time>
      </trkpt>
      <trkpt lat="46.09112" lon="6.73971">
        <ele>813</ele>
        <time>2016-07-04T15:00:27.000Z</time>
      </trkpt>
      <trkpt lat="46.09103" lon="6.73969">
        <ele>813</ele>
        <time>2016-07-04T15:00:35.000Z</time>
      </trkpt>
      <trkpt lat="46.09103" lon="6.73968">
        <ele>812</ele>
        <time>2016-07-04T15:00:36.000Z</time>
      </trkpt>
      <trkpt lat="46.09097" lon="6.73958">
        <ele>809</ele>
        <time>2016-07-04T15:00:46.000Z</time>
      </trkpt>
      <trkpt lat="46.09096" lon="6.73958">
        <ele>810</ele>
        <time>2016-07-04T15:00:47.000Z</time>
      </trkpt>
      <trkpt lat="46.0909" lon="6.73952">
        <ele>811</ele>
        <time>2016-07-04T15:00:51.000Z</time>
      </trkpt>
      <trkpt lat="46.09089" lon="6.73951">
        <ele>811</ele>
        <time>2016-07-04T15:00:52.000Z</time>
      </trkpt>
      <trkpt lat="46.09082" lon="6.73945">
        <ele>811</ele>
        <time>2016-07-04T15:00:59.000Z</time>
      </trkpt>
      <trkpt lat="46.0908" lon="6.73942">
        <ele>812</ele>
        <time>2016-07-04T15:01:00.000Z</time>
      </trkpt>
      <trkpt lat="46.09073" lon="6.73937">
        <ele>814</ele>
        <time>2016-07-04T15:01:06.000Z</time>
      </trkpt>
      <trkpt lat="46.09071" lon="6.73937">
        <ele>814</ele>
        <time>2016-07-04T15:01:07.000Z</time>
      </trkpt>
      <trkpt lat="46.09064" lon="6.7393">
        <ele>809</ele>
        <time>2016-07-04T15:01:18.000Z</time>
      </trkpt>
      <trkpt lat="46.09063" lon="6.73928">
        <ele>808</ele>
        <time>2016-07-04T15:01:19.000Z</time>
      </trkpt>
      <trkpt lat="46.09057" lon="6.7392">
        <ele>811</ele>
        <time>2016-07-04T15:01:29.000Z</time>
      </trkpt>
      <trkpt lat="46.09055" lon="6.73919">
        <ele>812</ele>
        <time>2016-07-04T15:01:30.000Z</time>
      </trkpt>
      <trkpt lat="46.09049" lon="6.7391">
        <ele>814</ele>
        <time>2016-07-04T15:01:35.000Z</time>
      </trkpt>
      <trkpt lat="46.09048" lon="6.73908">
        <ele>814</ele>
        <time>2016-07-04T15:01:36.000Z</time>
      </trkpt>
      <trkpt lat="46.09042" lon="6.73899">
        <ele>812</ele>
        <time>2016-07-04T15:01:43.000Z</time>
      </trkpt>
      <trkpt lat="46.09041" lon="6.73897">
        <ele>813</ele>
        <time>2016-07-04T15:01:44.000Z</time>
      </trkpt>
      <trkpt lat="46.09036" lon="6.73888">
        <ele>814</ele>
        <time>2016-07-04T15:01:50.000Z</time>
      </trkpt>
      <trkpt lat="46.09034" lon="6.73886">
        <ele>814</ele>
        <time>2016-07-04T15:01:51.000Z</time>
      </trkpt>
      <trkpt lat="46.0903" lon="6.73876">
        <ele>815</ele>
        <time>2016-07-04T15:02:00.000Z</time>
      </trkpt>
      <trkpt lat="46.0903" lon="6.73874">
        <ele>815</ele>
        <time>2016-07-04T15:02:01.000Z</time>
      </trkpt>
      <trkpt lat="46.09023" lon="6.73867">
        <ele>808</ele>
        <time>2016-07-04T15:02:06.000Z</time>
      </trkpt>
      <trkpt lat="46.09022" lon="6.73865">
        <ele>809</ele>
        <time>2016-07-04T15:02:07.000Z</time>
      </trkpt>
      <trkpt lat="46.09016" lon="6.73858">
        <ele>806</ele>
        <time>2016-07-04T15:02:13.000Z</time>
      </trkpt>
      <trkpt lat="46.09014" lon="6.73857">
        <ele>807</ele>
        <time>2016-07-04T15:02:14.000Z</time>
      </trkpt>
      <trkpt lat="46.09023" lon="6.73855">
        <ele>809</ele>
        <time>2016-07-04T15:02:57.000Z</time>
      </trkpt>
      <trkpt lat="46.09023" lon="6.73854">
        <ele>809</ele>
        <time>2016-07-04T15:02:58.000Z</time>
      </trkpt>
      <trkpt lat="46.09028" lon="6.73843">
        <ele>807</ele>
        <time>2016-07-04T15:03:05.000Z</time>
      </trkpt>
      <trkpt lat="46.09029" lon="6.73843">
        <ele>808</ele>
        <time>2016-07-04T15:03:06.000Z</time>
      </trkpt>
      <trkpt lat="46.09032" lon="6.73831">
        <ele>810</ele>
        <time>2016-07-04T15:03:14.000Z</time>
      </trkpt>
      <trkpt lat="46.09032" lon="6.7383">
        <ele>809</ele>
        <time>2016-07-04T15:03:15.000Z</time>
      </trkpt>
      <trkpt lat="46.09033" lon="6.73818">
        <ele>807</ele>
        <time>2016-07-04T15:03:27.000Z</time>
      </trkpt>
      <trkpt lat="46.09033" lon="6.73817">
        <ele>808</ele>
        <time>2016-07-04T15:03:28.000Z</time>
      </trkpt>
      <trkpt lat="46.09031" lon="6.73805">
        <ele>813</ele>
        <time>2016-07-04T15:03:40.000Z</time>
      </trkpt>
      <trkpt lat="46.0903" lon="6.73802">
        <ele>813</ele>
        <time>2016-07-04T15:03:41.000Z</time>
      </trkpt>
      <trkpt lat="46.09026" lon="6.73794">
        <ele>811</ele>
        <time>2016-07-04T15:03:52.000Z</time>
      </trkpt>
      <trkpt lat="46.09024" lon="6.73788">
        <ele>812</ele>
        <time>2016-07-04T15:03:53.000Z</time>
      </trkpt>
      <trkpt lat="46.09021" lon="6.73779">
        <ele>812</ele>
        <time>2016-07-04T15:04:08.000Z</time>
      </trkpt>
      <trkpt lat="46.09019" lon="6.73777">
        <ele>812</ele>
        <time>2016-07-04T15:04:09.000Z</time>
      </trkpt>
      <trkpt lat="46.09013" lon="6.73767">
        <ele>811</ele>
        <time>2016-07-04T15:04:14.000Z</time>
      </trkpt>
      <trkpt lat="46.09013" lon="6.73767">
        <ele>811</ele>
        <time>2016-07-04T15:04:15.000Z</time>
      </trkpt>
      <trkpt lat="46.09014" lon="6.73765">
        <ele>812</ele>
        <time>2016-07-04T15:04:17.000Z</time>
      </trkpt>
      <trkpt lat="46.09013" lon="6.73766">
        <ele>813</ele>
        <time>2016-07-04T15:04:18.000Z</time>
      </trkpt>
      <trkpt lat="46.09012" lon="6.73765">
        <ele>813</ele>
        <time>2016-07-04T15:04:19.000Z</time>
      </trkpt>
      <trkpt lat="46.09006" lon="6.73757">
        <ele>814</ele>
        <time>2016-07-04T15:04:25.000Z</time>
      </trkpt>
      <trkpt lat="46.09004" lon="6.73758">
        <ele>815</ele>
        <time>2016-07-04T15:04:26.000Z</time>
      </trkpt>
      <trkpt lat="46.09" lon="6.73747">
        <ele>813</ele>
        <time>2016-07-04T15:04:55.000Z</time>
      </trkpt>
      <trkpt lat="46.08999" lon="6.73746">
        <ele>815</ele>
        <time>2016-07-04T15:04:56.000Z</time>
      </trkpt>
      <trkpt lat="46.08992" lon="6.73739">
        <ele>816</ele>
        <time>2016-07-04T15:05:00.000Z</time>
      </trkpt>
      <trkpt lat="46.08991" lon="6.73738">
        <ele>817</ele>
        <time>2016-07-04T15:05:01.000Z</time>
      </trkpt>
      <trkpt lat="46.08985" lon="6.7373">
        <ele>818</ele>
        <time>2016-07-04T15:05:10.000Z</time>
      </trkpt>
      <trkpt lat="46.08984" lon="6.73729">
        <ele>818</ele>
        <time>2016-07-04T15:05:11.000Z</time>
      </trkpt>
      <trkpt lat="46.08979" lon="6.7372">
        <ele>817</ele>
        <time>2016-07-04T15:05:19.000Z</time>
      </trkpt>
      <trkpt lat="46.08977" lon="6.7372">
        <ele>817</ele>
        <time>2016-07-04T15:05:20.000Z</time>
      </trkpt>
      <trkpt lat="46.08969" lon="6.73714">
        <ele>822</ele>
        <time>2016-07-04T15:05:27.000Z</time>
      </trkpt>
      <trkpt lat="46.08969" lon="6.73714">
        <ele>821</ele>
        <time>2016-07-04T15:05:28.000Z</time>
      </trkpt>
      <trkpt lat="46.08961" lon="6.73707">
        <ele>819</ele>
        <time>2016-07-04T15:05:34.000Z</time>
      </trkpt>
      <trkpt lat="46.0896" lon="6.73705">
        <ele>818</ele>
        <time>2016-07-04T15:05:35.000Z</time>
      </trkpt>
      <trkpt lat="46.08954" lon="6.73695">
        <ele>824</ele>
        <time>2016-07-04T15:05:40.000Z</time>
      </trkpt>
      <trkpt lat="46.08954" lon="6.73695">
        <ele>825</ele>
        <time>2016-07-04T15:05:41.000Z</time>
      </trkpt>
      <trkpt lat="46.08948" lon="6.73686">
        <ele>825</ele>
        <time>2016-07-04T15:05:48.000Z</time>
      </trkpt>
      <trkpt lat="46.08947" lon="6.73685">
        <ele>825</ele>
        <time>2016-07-04T15:05:49.000Z</time>
      </trkpt>
      <trkpt lat="46.08943" lon="6.73675">
        <ele>829</ele>
        <time>2016-07-04T15:06:00.000Z</time>
      </trkpt>
      <trkpt lat="46.08942" lon="6.73673">
        <ele>829</ele>
        <time>2016-07-04T15:06:01.000Z</time>
      </trkpt>
      <trkpt lat="46.08937" lon="6.73663">
        <ele>831</ele>
        <time>2016-07-04T15:06:07.000Z</time>
      </trkpt>
      <trkpt lat="46.08936" lon="6.73661">
        <ele>830</ele>
        <time>2016-07-04T15:06:08.000Z</time>
      </trkpt>
      <trkpt lat="46.0894" lon="6.7365">
        <ele>830</ele>
        <time>2016-07-04T15:06:23.000Z</time>
      </trkpt>
      <trkpt lat="46.08941" lon="6.7365">
        <ele>830</ele>
        <time>2016-07-04T15:06:24.000Z</time>
      </trkpt>
      <trkpt lat="46.08942" lon="6.73642">
        <ele>834</ele>
        <time>2016-07-04T15:07:36.000Z</time>
      </trkpt>
      <trkpt lat="46.08942" lon="6.73642">
        <ele>834</ele>
        <time>2016-07-04T15:07:37.000Z</time>
      </trkpt>
      <trkpt lat="46.08941" lon="6.73642">
        <ele>833</ele>
        <time>2016-07-04T15:07:38.000Z</time>
      </trkpt>
      <trkpt lat="46.08941" lon="6.73642">
        <ele>833</ele>
        <time>2016-07-04T15:07:39.000Z</time>
      </trkpt>
      <trkpt lat="46.08935" lon="6.73652">
        <ele>828</ele>
        <time>2016-07-04T15:07:52.000Z</time>
      </trkpt>
      <trkpt lat="46.08935" lon="6.73654">
        <ele>827</ele>
        <time>2016-07-04T15:07:53.000Z</time>
      </trkpt>
      <trkpt lat="46.08932" lon="6.73666">
        <ele>825</ele>
        <time>2016-07-04T15:08:01.000Z</time>
      </trkpt>
      <trkpt lat="46.08931" lon="6.73667">
        <ele>824</ele>
        <time>2016-07-04T15:08:02.000Z</time>
      </trkpt>
      <trkpt lat="46.08931" lon="6.73667">
        <ele>824</ele>
        <time>2016-07-04T15:08:03.000Z</time>
      </trkpt>
      <trkpt lat="46.08931" lon="6.73667">
        <ele>825</ele>
        <time>2016-07-04T15:08:04.000Z</time>
      </trkpt>
      <trkpt lat="46.08931" lon="6.73666">
        <ele>826</ele>
        <time>2016-07-04T15:08:05.000Z</time>
      </trkpt>
      <trkpt lat="46.08925" lon="6.73657">
        <ele>827</ele>
        <time>2016-07-04T15:08:13.000Z</time>
      </trkpt>
      <trkpt lat="46.08925" lon="6.73655">
        <ele>829</ele>
        <time>2016-07-04T15:08:14.000Z</time>
      </trkpt>
      <trkpt lat="46.08919" lon="6.73647">
        <ele>831</ele>
        <time>2016-07-04T15:08:37.000Z</time>
      </trkpt>
      <trkpt lat="46.08918" lon="6.73645">
        <ele>830</ele>
        <time>2016-07-04T15:08:38.000Z</time>
      </trkpt>
      <trkpt lat="46.08911" lon="6.73638">
        <ele>832</ele>
        <time>2016-07-04T15:08:42.000Z</time>
      </trkpt>
      <trkpt lat="46.08908" lon="6.73634">
        <ele>832</ele>
        <time>2016-07-04T15:08:43.000Z</time>
      </trkpt>
      <trkpt lat="46.08903" lon="6.73627">
        <ele>832</ele>
        <time>2016-07-04T15:08:46.000Z</time>
      </trkpt>
      <trkpt lat="46.08903" lon="6.73625">
        <ele>831</ele>
        <time>2016-07-04T15:08:47.000Z</time>
      </trkpt>
      <trkpt lat="46.08902" lon="6.73623">
        <ele>831</ele>
        <time>2016-07-04T15:08:48.000Z</time>
      </trkpt>
      <trkpt lat="46.08895" lon="6.73617">
        <ele>835</ele>
        <time>2016-07-04T15:08:55.000Z</time>
      </trkpt>
      <trkpt lat="46.08893" lon="6.73616">
        <ele>834</ele>
        <time>2016-07-04T15:08:56.000Z</time>
      </trkpt>
      <trkpt lat="46.08891" lon="6.73608">
        <ele>835</ele>
        <time>2016-07-04T15:09:01.000Z</time>
      </trkpt>
      <trkpt lat="46.0889" lon="6.73606">
        <ele>837</ele>
        <time>2016-07-04T15:09:02.000Z</time>
      </trkpt>
      <trkpt lat="46.08889" lon="6.73605">
        <ele>836</ele>
        <time>2016-07-04T15:09:03.000Z</time>
      </trkpt>
      <trkpt lat="46.08881" lon="6.73601">
        <ele>835</ele>
        <time>2016-07-04T15:09:11.000Z</time>
      </trkpt>
      <trkpt lat="46.0888" lon="6.73601">
        <ele>836</ele>
        <time>2016-07-04T15:09:12.000Z</time>
      </trkpt>
      <trkpt lat="46.08873" lon="6.73594">
        <ele>834</ele>
        <time>2016-07-04T15:09:18.000Z</time>
      </trkpt>
      <trkpt lat="46.08872" lon="6.73594">
        <ele>836</ele>
        <time>2016-07-04T15:09:19.000Z</time>
      </trkpt>
      <trkpt lat="46.08866" lon="6.73586">
        <ele>836</ele>
        <time>2016-07-04T15:09:51.000Z</time>
      </trkpt>
      <trkpt lat="46.08866" lon="6.73586">
        <ele>837</ele>
        <time>2016-07-04T15:09:52.000Z</time>
      </trkpt>
      <trkpt lat="46.08865" lon="6.7358">
        <ele>841</ele>
        <time>2016-07-04T15:10:08.000Z</time>
      </trkpt>
      <trkpt lat="46.08865" lon="6.7358">
        <ele>841</ele>
        <time>2016-07-04T15:10:09.000Z</time>
      </trkpt>
      <trkpt lat="46.08864" lon="6.73578">
        <ele>841</ele>
        <time>2016-07-04T15:10:10.000Z</time>
      </trkpt>
      <trkpt lat="46.08862" lon="6.73578">
        <ele>843</ele>
        <time>2016-07-04T15:10:11.000Z</time>
      </trkpt>
      <trkpt lat="46.08855" lon="6.7357">
        <ele>838</ele>
        <time>2016-07-04T15:10:34.000Z</time>
      </trkpt>
      <trkpt lat="46.08854" lon="6.73569">
        <ele>839</ele>
        <time>2016-07-04T15:10:35.000Z</time>
      </trkpt>
      <trkpt lat="46.08846" lon="6.73569">
        <ele>839</ele>
        <time>2016-07-04T15:10:49.000Z</time>
      </trkpt>
      <trkpt lat="46.08845" lon="6.73568">
        <ele>837</ele>
        <time>2016-07-04T15:10:50.000Z</time>
      </trkpt>
      <trkpt lat="46.08836" lon="6.73568">
        <ele>834</ele>
        <time>2016-07-04T15:10:57.000Z</time>
      </trkpt>
      <trkpt lat="46.08834" lon="6.73568">
        <ele>834</ele>
        <time>2016-07-04T15:10:58.000Z</time>
      </trkpt>
      <trkpt lat="46.08826" lon="6.73571">
        <ele>837</ele>
        <time>2016-07-04T15:11:03.000Z</time>
      </trkpt>
      <trkpt lat="46.08824" lon="6.73573">
        <ele>837</ele>
        <time>2016-07-04T15:11:04.000Z</time>
      </trkpt>
      <trkpt lat="46.08817" lon="6.73579">
        <ele>840</ele>
        <time>2016-07-04T15:11:12.000Z</time>
      </trkpt>
      <trkpt lat="46.08815" lon="6.7358">
        <ele>840</ele>
        <time>2016-07-04T15:11:13.000Z</time>
      </trkpt>
      <trkpt lat="46.08808" lon="6.73586">
        <ele>836</ele>
        <time>2016-07-04T15:11:24.000Z</time>
      </trkpt>
      <trkpt lat="46.08807" lon="6.73588">
        <ele>836</ele>
        <time>2016-07-04T15:11:25.000Z</time>
      </trkpt>
      <trkpt lat="46.08799" lon="6.7359">
        <ele>829</ele>
        <time>2016-07-04T15:11:36.000Z</time>
      </trkpt>
      <trkpt lat="46.08798" lon="6.73591">
        <ele>830</ele>
        <time>2016-07-04T15:11:37.000Z</time>
      </trkpt>
      <trkpt lat="46.0879" lon="6.73595">
        <ele>826</ele>
        <time>2016-07-04T15:11:49.000Z</time>
      </trkpt>
      <trkpt lat="46.08789" lon="6.73595">
        <ele>825</ele>
        <time>2016-07-04T15:11:50.000Z</time>
      </trkpt>
      <trkpt lat="46.08781" lon="6.73598">
        <ele>824</ele>
        <time>2016-07-04T15:12:07.000Z</time>
      </trkpt>
      <trkpt lat="46.0878" lon="6.73598">
        <ele>824</ele>
        <time>2016-07-04T15:12:08.000Z</time>
      </trkpt>
      <trkpt lat="46.08773" lon="6.73592">
        <ele>819</ele>
        <time>2016-07-04T15:12:23.000Z</time>
      </trkpt>
      <trkpt lat="46.08772" lon="6.73592">
        <ele>818</ele>
        <time>2016-07-04T15:12:24.000Z</time>
      </trkpt>
      <trkpt lat="46.08763" lon="6.73595">
        <ele>813</ele>
        <time>2016-07-04T15:12:45.000Z</time>
      </trkpt>
      <trkpt lat="46.08762" lon="6.73595">
        <ele>813</ele>
        <time>2016-07-04T15:12:46.000Z</time>
      </trkpt>
      <trkpt lat="46.08753" lon="6.73598">
        <ele>812</ele>
        <time>2016-07-04T15:12:53.000Z</time>
      </trkpt>
      <trkpt lat="46.08752" lon="6.73599">
        <ele>810</ele>
        <time>2016-07-04T15:12:54.000Z</time>
      </trkpt>
      <trkpt lat="46.08744" lon="6.73602">
        <ele>808</ele>
        <time>2016-07-04T15:13:02.000Z</time>
      </trkpt>
      <trkpt lat="46.08742" lon="6.73602">
        <ele>808</ele>
        <time>2016-07-04T15:13:03.000Z</time>
      </trkpt>
      <trkpt lat="46.08734" lon="6.73602">
        <ele>809</ele>
        <time>2016-07-04T15:13:08.000Z</time>
      </trkpt>
      <trkpt lat="46.08733" lon="6.73602">
        <ele>809</ele>
        <time>2016-07-04T15:13:09.000Z</time>
      </trkpt>
      <trkpt lat="46.08726" lon="6.73609">
        <ele>807</ele>
        <time>2016-07-04T15:13:16.000Z</time>
      </trkpt>
      <trkpt lat="46.08724" lon="6.7361">
        <ele>808</ele>
        <time>2016-07-04T15:13:17.000Z</time>
      </trkpt>
      <trkpt lat="46.08717" lon="6.73612">
        <ele>805</ele>
        <time>2016-07-04T15:13:25.000Z</time>
      </trkpt>
      <trkpt lat="46.08715" lon="6.73612">
        <ele>804</ele>
        <time>2016-07-04T15:13:26.000Z</time>
      </trkpt>
      <trkpt lat="46.08708" lon="6.73617">
        <ele>803</ele>
        <time>2016-07-04T15:13:32.000Z</time>
      </trkpt>
      <trkpt lat="46.08705" lon="6.73617">
        <ele>801</ele>
        <time>2016-07-04T15:13:33.000Z</time>
      </trkpt>
      <trkpt lat="46.08697" lon="6.73621">
        <ele>802</ele>
        <time>2016-07-04T15:13:40.000Z</time>
      </trkpt>
      <trkpt lat="46.08695" lon="6.7362">
        <ele>803</ele>
        <time>2016-07-04T15:13:41.000Z</time>
      </trkpt>
      <trkpt lat="46.08687" lon="6.73617">
        <ele>805</ele>
        <time>2016-07-04T15:13:54.000Z</time>
      </trkpt>
      <trkpt lat="46.08686" lon="6.73616">
        <ele>804</ele>
        <time>2016-07-04T15:13:55.000Z</time>
      </trkpt>
      <trkpt lat="46.08683" lon="6.73604">
        <ele>799</ele>
        <time>2016-07-04T15:14:07.000Z</time>
      </trkpt>
      <trkpt lat="46.08683" lon="6.73602">
        <ele>799</ele>
        <time>2016-07-04T15:14:08.000Z</time>
      </trkpt>
      <trkpt lat="46.08676" lon="6.73595">
        <ele>796</ele>
        <time>2016-07-04T15:14:18.000Z</time>
      </trkpt>
      <trkpt lat="46.08675" lon="6.73593">
        <ele>798</ele>
        <time>2016-07-04T15:14:19.000Z</time>
      </trkpt>
      <trkpt lat="46.08669" lon="6.73585">
        <ele>800</ele>
        <time>2016-07-04T15:14:36.000Z</time>
      </trkpt>
      <trkpt lat="46.08667" lon="6.73579">
        <ele>798</ele>
        <time>2016-07-04T15:14:37.000Z</time>
      </trkpt>
      <trkpt lat="46.08663" lon="6.73569">
        <ele>800</ele>
        <time>2016-07-04T15:14:46.000Z</time>
      </trkpt>
      <trkpt lat="46.08662" lon="6.73567">
        <ele>799</ele>
        <time>2016-07-04T15:14:47.000Z</time>
      </trkpt>
      <trkpt lat="46.08655" lon="6.73558">
        <ele>795</ele>
        <time>2016-07-04T15:14:55.000Z</time>
      </trkpt>
      <trkpt lat="46.08654" lon="6.73558">
        <ele>796</ele>
        <time>2016-07-04T15:14:56.000Z</time>
      </trkpt>
      <trkpt lat="46.08649" lon="6.73548">
        <ele>797</ele>
        <time>2016-07-04T15:15:03.000Z</time>
      </trkpt>
      <trkpt lat="46.08648" lon="6.73547">
        <ele>797</ele>
        <time>2016-07-04T15:15:04.000Z</time>
      </trkpt>
      <trkpt lat="46.08644" lon="6.7354">
        <ele>799</ele>
        <time>2016-07-04T15:15:08.000Z</time>
      </trkpt>
      <trkpt lat="46.08642" lon="6.73538">
        <ele>797</ele>
        <time>2016-07-04T15:15:09.000Z</time>
      </trkpt>
      <trkpt lat="46.08637" lon="6.73531">
        <ele>797</ele>
        <time>2016-07-04T15:15:12.000Z</time>
      </trkpt>
      <trkpt lat="46.08635" lon="6.73528">
        <ele>797</ele>
        <time>2016-07-04T15:15:13.000Z</time>
      </trkpt>
      <trkpt lat="46.08629" lon="6.73518">
        <ele>796</ele>
        <time>2016-07-04T15:15:18.000Z</time>
      </trkpt>
      <trkpt lat="46.08628" lon="6.73517">
        <ele>797</ele>
        <time>2016-07-04T15:15:19.000Z</time>
      </trkpt>
      <trkpt lat="46.08623" lon="6.73507">
        <ele>793</ele>
        <time>2016-07-04T15:15:24.000Z</time>
      </trkpt>
      <trkpt lat="46.08623" lon="6.73505">
        <ele>791</ele>
        <time>2016-07-04T15:15:25.000Z</time>
      </trkpt>
      <trkpt lat="46.08617" lon="6.73497">
        <ele>789</ele>
        <time>2016-07-04T15:15:31.000Z</time>
      </trkpt>
      <trkpt lat="46.08615" lon="6.73497">
        <ele>790</ele>
        <time>2016-07-04T15:15:32.000Z</time>
      </trkpt>
      <trkpt lat="46.08611" lon="6.73489">
        <ele>790</ele>
        <time>2016-07-04T15:15:37.000Z</time>
      </trkpt>
      <trkpt lat="46.08608" lon="6.73488">
        <ele>791</ele>
        <time>2016-07-04T15:15:38.000Z</time>
      </trkpt>
      <trkpt lat="46.08602" lon="6.73481">
        <ele>794</ele>
        <time>2016-07-04T15:15:44.000Z</time>
      </trkpt>
      <trkpt lat="46.08601" lon="6.73479">
        <ele>794</ele>
        <time>2016-07-04T15:15:45.000Z</time>
      </trkpt>
      <trkpt lat="46.08594" lon="6.73472">
        <ele>794</ele>
        <time>2016-07-04T15:15:50.000Z</time>
      </trkpt>
      <trkpt lat="46.08593" lon="6.73471">
        <ele>795</ele>
        <time>2016-07-04T15:15:51.000Z</time>
      </trkpt>
      <trkpt lat="46.08586" lon="6.73464">
        <ele>799</ele>
        <time>2016-07-04T15:15:58.000Z</time>
      </trkpt>
      <trkpt lat="46.08585" lon="6.73463">
        <ele>799</ele>
        <time>2016-07-04T15:15:59.000Z</time>
      </trkpt>
      <trkpt lat="46.08578" lon="6.73457">
        <ele>802</ele>
        <time>2016-07-04T15:16:08.000Z</time>
      </trkpt>
      <trkpt lat="46.08577" lon="6.73456">
        <ele>802</ele>
        <time>2016-07-04T15:16:09.000Z</time>
      </trkpt>
      <trkpt lat="46.08571" lon="6.73448">
        <ele>799</ele>
        <time>2016-07-04T15:16:14.000Z</time>
      </trkpt>
      <trkpt lat="46.0857" lon="6.73447">
        <ele>799</ele>
        <time>2016-07-04T15:16:15.000Z</time>
      </trkpt>
      <trkpt lat="46.08562" lon="6.73441">
        <ele>797</ele>
        <time>2016-07-04T15:16:24.000Z</time>
      </trkpt>
      <trkpt lat="46.08561" lon="6.7344">
        <ele>798</ele>
        <time>2016-07-04T15:16:25.000Z</time>
      </trkpt>
      <trkpt lat="46.08554" lon="6.73435">
        <ele>798</ele>
        <time>2016-07-04T15:16:30.000Z</time>
      </trkpt>
      <trkpt lat="46.08553" lon="6.73434">
        <ele>799</ele>
        <time>2016-07-04T15:16:31.000Z</time>
      </trkpt>
      <trkpt lat="46.08546" lon="6.73427">
        <ele>796</ele>
        <time>2016-07-04T15:16:39.000Z</time>
      </trkpt>
      <trkpt lat="46.08545" lon="6.73426">
        <ele>797</ele>
        <time>2016-07-04T15:16:40.000Z</time>
      </trkpt>
      <trkpt lat="46.08537" lon="6.73422">
        <ele>798</ele>
        <time>2016-07-04T15:16:53.000Z</time>
      </trkpt>
      <trkpt lat="46.08536" lon="6.73421">
        <ele>798</ele>
        <time>2016-07-04T15:16:54.000Z</time>
      </trkpt>
      <trkpt lat="46.08528" lon="6.73419">
        <ele>797</ele>
        <time>2016-07-04T15:17:02.000Z</time>
      </trkpt>
      <trkpt lat="46.08527" lon="6.73418">
        <ele>797</ele>
        <time>2016-07-04T15:17:03.000Z</time>
      </trkpt>
      <trkpt lat="46.08521" lon="6.73413">
        <ele>796</ele>
        <time>2016-07-04T15:17:09.000Z</time>
      </trkpt>
      <trkpt lat="46.08519" lon="6.73412">
        <ele>794</ele>
        <time>2016-07-04T15:17:10.000Z</time>
      </trkpt>
      <trkpt lat="46.08515" lon="6.73401">
        <ele>797</ele>
        <time>2016-07-04T15:17:20.000Z</time>
      </trkpt>
      <trkpt lat="46.08515" lon="6.73399">
        <ele>797</ele>
        <time>2016-07-04T15:17:21.000Z</time>
      </trkpt>
      <trkpt lat="46.08512" lon="6.73389">
        <ele>797</ele>
        <time>2016-07-04T15:17:32.000Z</time>
      </trkpt>
      <trkpt lat="46.08511" lon="6.73386">
        <ele>797</ele>
        <time>2016-07-04T15:17:33.000Z</time>
      </trkpt>
      <trkpt lat="46.08506" lon="6.73378">
        <ele>794</ele>
        <time>2016-07-04T15:17:40.000Z</time>
      </trkpt>
      <trkpt lat="46.08505" lon="6.73373">
        <ele>794</ele>
        <time>2016-07-04T15:17:41.000Z</time>
      </trkpt>
      <trkpt lat="46.08501" lon="6.73362">
        <ele>795</ele>
        <time>2016-07-04T15:17:45.000Z</time>
      </trkpt>
      <trkpt lat="46.085" lon="6.7336">
        <ele>795</ele>
        <time>2016-07-04T15:17:46.000Z</time>
      </trkpt>
      <trkpt lat="46.08498" lon="6.73349">
        <ele>794</ele>
        <time>2016-07-04T15:17:52.000Z</time>
      </trkpt>
      <trkpt lat="46.08499" lon="6.73346">
        <ele>793</ele>
        <time>2016-07-04T15:17:53.000Z</time>
      </trkpt>
      <trkpt lat="46.08498" lon="6.73336">
        <ele>793</ele>
        <time>2016-07-04T15:17:59.000Z</time>
      </trkpt>
      <trkpt lat="46.08498" lon="6.73333">
        <ele>793</ele>
        <time>2016-07-04T15:18:00.000Z</time>
      </trkpt>
      <trkpt lat="46.08499" lon="6.73321">
        <ele>791</ele>
        <time>2016-07-04T15:18:06.000Z</time>
      </trkpt>
      <trkpt lat="46.08499" lon="6.7332">
        <ele>790</ele>
        <time>2016-07-04T15:18:07.000Z</time>
      </trkpt>
      <trkpt lat="46.085" lon="6.73308">
        <ele>789</ele>
        <time>2016-07-04T15:18:12.000Z</time>
      </trkpt>
      <trkpt lat="46.085" lon="6.73306">
        <ele>788</ele>
        <time>2016-07-04T15:18:13.000Z</time>
      </trkpt>
      <trkpt lat="46.08502" lon="6.73294">
        <ele>787</ele>
        <time>2016-07-04T15:18:20.000Z</time>
      </trkpt>
      <trkpt lat="46.08502" lon="6.73292">
        <ele>789</ele>
        <time>2016-07-04T15:18:21.000Z</time>
      </trkpt>
      <trkpt lat="46.08504" lon="6.73281">
        <ele>789</ele>
        <time>2016-07-04T15:18:27.000Z</time>
      </trkpt>
      <trkpt lat="46.08502" lon="6.73279">
        <ele>789</ele>
        <time>2016-07-04T15:18:28.000Z</time>
      </trkpt>
      <trkpt lat="46.08499" lon="6.73268">
        <ele>787</ele>
        <time>2016-07-04T15:18:36.000Z</time>
      </trkpt>
      <trkpt lat="46.08498" lon="6.73267">
        <ele>787</ele>
        <time>2016-07-04T15:18:37.000Z</time>
      </trkpt>
      <trkpt lat="46.08492" lon="6.73261">
        <ele>784</ele>
        <time>2016-07-04T15:18:44.000Z</time>
      </trkpt>
      <trkpt lat="46.0849" lon="6.7326">
        <ele>785</ele>
        <time>2016-07-04T15:18:45.000Z</time>
      </trkpt>
      <trkpt lat="46.08483" lon="6.73262">
        <ele>788</ele>
        <time>2016-07-04T15:18:51.000Z</time>
      </trkpt>
      <trkpt lat="46.08481" lon="6.73262">
        <ele>788</ele>
        <time>2016-07-04T15:18:52.000Z</time>
      </trkpt>
      <trkpt lat="46.08473" lon="6.73266">
        <ele>788</ele>
        <time>2016-07-04T15:18:59.000Z</time>
      </trkpt>
      <trkpt lat="46.08472" lon="6.73268">
        <ele>788</ele>
        <time>2016-07-04T15:19:00.000Z</time>
      </trkpt>
      <trkpt lat="46.0847" lon="6.73279">
        <ele>783</ele>
        <time>2016-07-04T15:19:08.000Z</time>
      </trkpt>
      <trkpt lat="46.08469" lon="6.73281">
        <ele>783</ele>
        <time>2016-07-04T15:19:09.000Z</time>
      </trkpt>
      <trkpt lat="46.08469" lon="6.73293">
        <ele>786</ele>
        <time>2016-07-04T15:19:15.000Z</time>
      </trkpt>
      <trkpt lat="46.08469" lon="6.73295">
        <ele>787</ele>
        <time>2016-07-04T15:19:16.000Z</time>
      </trkpt>
      <trkpt lat="46.08469" lon="6.73307">
        <ele>784</ele>
        <time>2016-07-04T15:19:24.000Z</time>
      </trkpt>
      <trkpt lat="46.08469" lon="6.73308">
        <ele>783</ele>
        <time>2016-07-04T15:19:25.000Z</time>
      </trkpt>
      <trkpt lat="46.08466" lon="6.7332">
        <ele>783</ele>
        <time>2016-07-04T15:19:31.000Z</time>
      </trkpt>
      <trkpt lat="46.08465" lon="6.73321">
        <ele>783</ele>
        <time>2016-07-04T15:19:32.000Z</time>
      </trkpt>
      <trkpt lat="46.08459" lon="6.7333">
        <ele>783</ele>
        <time>2016-07-04T15:19:38.000Z</time>
      </trkpt>
      <trkpt lat="46.08459" lon="6.73331">
        <ele>783</ele>
        <time>2016-07-04T15:19:39.000Z</time>
      </trkpt>
      <trkpt lat="46.08452" lon="6.73334">
        <ele>780</ele>
        <time>2016-07-04T15:19:47.000Z</time>
      </trkpt>
      <trkpt lat="46.08451" lon="6.73335">
        <ele>781</ele>
        <time>2016-07-04T15:19:48.000Z</time>
      </trkpt>
      <trkpt lat="46.08444" lon="6.73342">
        <ele>782</ele>
        <time>2016-07-04T15:19:54.000Z</time>
      </trkpt>
      <trkpt lat="46.08443" lon="6.73344">
        <ele>782</ele>
        <time>2016-07-04T15:19:55.000Z</time>
      </trkpt>
      <trkpt lat="46.08435" lon="6.73346">
        <ele>779</ele>
        <time>2016-07-04T15:20:01.000Z</time>
      </trkpt>
      <trkpt lat="46.08434" lon="6.73347">
        <ele>779</ele>
        <time>2016-07-04T15:20:02.000Z</time>
      </trkpt>
      <trkpt lat="46.08427" lon="6.73353">
        <ele>777</ele>
        <time>2016-07-04T15:20:10.000Z</time>
      </trkpt>
      <trkpt lat="46.08425" lon="6.73354">
        <ele>776</ele>
        <time>2016-07-04T15:20:11.000Z</time>
      </trkpt>
      <trkpt lat="46.08419" lon="6.7336">
        <ele>773</ele>
        <time>2016-07-04T15:20:17.000Z</time>
      </trkpt>
      <trkpt lat="46.08418" lon="6.73361">
        <ele>774</ele>
        <time>2016-07-04T15:20:18.000Z</time>
      </trkpt>
      <trkpt lat="46.08412" lon="6.73369">
        <ele>773</ele>
        <time>2016-07-04T15:20:25.000Z</time>
      </trkpt>
      <trkpt lat="46.08411" lon="6.7337">
        <ele>773</ele>
        <time>2016-07-04T15:20:26.000Z</time>
      </trkpt>
      <trkpt lat="46.08406" lon="6.7338">
        <ele>771</ele>
        <time>2016-07-04T15:20:34.000Z</time>
      </trkpt>
      <trkpt lat="46.08405" lon="6.73381">
        <ele>771</ele>
        <time>2016-07-04T15:20:35.000Z</time>
      </trkpt>
      <trkpt lat="46.08399" lon="6.73389">
        <ele>767</ele>
        <time>2016-07-04T15:20:45.000Z</time>
      </trkpt>
      <trkpt lat="46.08398" lon="6.73389">
        <ele>767</ele>
        <time>2016-07-04T15:20:46.000Z</time>
      </trkpt>
      <trkpt lat="46.08389" lon="6.73387">
        <ele>767</ele>
        <time>2016-07-04T15:20:55.000Z</time>
      </trkpt>
      <trkpt lat="46.08389" lon="6.73387">
        <ele>769</ele>
        <time>2016-07-04T15:20:56.000Z</time>
      </trkpt>
      <trkpt lat="46.08384" lon="6.73377">
        <ele>771</ele>
        <time>2016-07-04T15:21:05.000Z</time>
      </trkpt>
      <trkpt lat="46.08383" lon="6.73375">
        <ele>771</ele>
        <time>2016-07-04T15:21:06.000Z</time>
      </trkpt>
      <trkpt lat="46.08379" lon="6.73364">
        <ele>769</ele>
        <time>2016-07-04T15:21:19.000Z</time>
      </trkpt>
      <trkpt lat="46.08378" lon="6.73363">
        <ele>769</ele>
        <time>2016-07-04T15:21:20.000Z</time>
      </trkpt>
      <trkpt lat="46.08373" lon="6.73352">
        <ele>768</ele>
        <time>2016-07-04T15:21:25.000Z</time>
      </trkpt>
      <trkpt lat="46.08372" lon="6.7335">
        <ele>767</ele>
        <time>2016-07-04T15:21:26.000Z</time>
      </trkpt>
      <trkpt lat="46.08371" lon="6.73339">
        <ele>769</ele>
        <time>2016-07-04T15:21:33.000Z</time>
      </trkpt>
      <trkpt lat="46.08371" lon="6.73337">
        <ele>769</ele>
        <time>2016-07-04T15:21:34.000Z</time>
      </trkpt>
      <trkpt lat="46.08366" lon="6.73327">
        <ele>769</ele>
        <time>2016-07-04T15:21:41.000Z</time>
      </trkpt>
      <trkpt lat="46.08365" lon="6.73325">
        <ele>770</ele>
        <time>2016-07-04T15:21:42.000Z</time>
      </trkpt>
      <trkpt lat="46.08362" lon="6.73313">
        <ele>773</ele>
        <time>2016-07-04T15:21:49.000Z</time>
      </trkpt>
      <trkpt lat="46.08361" lon="6.73312">
        <ele>772</ele>
        <time>2016-07-04T15:21:50.000Z</time>
      </trkpt>
      <trkpt lat="46.08357" lon="6.73302">
        <ele>772</ele>
        <time>2016-07-04T15:21:55.000Z</time>
      </trkpt>
      <trkpt lat="46.08356" lon="6.73299">
        <ele>772</ele>
        <time>2016-07-04T15:21:56.000Z</time>
      </trkpt>
      <trkpt lat="46.08353" lon="6.73287">
        <ele>771</ele>
        <time>2016-07-04T15:22:07.000Z</time>
      </trkpt>
      <trkpt lat="46.08353" lon="6.73286">
        <ele>771</ele>
        <time>2016-07-04T15:22:08.000Z</time>
      </trkpt>
      <trkpt lat="46.0835" lon="6.73275">
        <ele>769</ele>
        <time>2016-07-04T15:22:15.000Z</time>
      </trkpt>
      <trkpt lat="46.08349" lon="6.73272">
        <ele>769</ele>
        <time>2016-07-04T15:22:16.000Z</time>
      </trkpt>
      <trkpt lat="46.08346" lon="6.73261">
        <ele>770</ele>
        <time>2016-07-04T15:22:22.000Z</time>
      </trkpt>
      <trkpt lat="46.08346" lon="6.73259">
        <ele>771</ele>
        <time>2016-07-04T15:22:23.000Z</time>
      </trkpt>
      <trkpt lat="46.08344" lon="6.73248">
        <ele>770</ele>
        <time>2016-07-04T15:22:31.000Z</time>
      </trkpt>
      <trkpt lat="46.08345" lon="6.73245">
        <ele>769</ele>
        <time>2016-07-04T15:22:32.000Z</time>
      </trkpt>
      <trkpt lat="46.08344" lon="6.73235">
        <ele>767</ele>
        <time>2016-07-04T15:22:41.000Z</time>
      </trkpt>
      <trkpt lat="46.08344" lon="6.73231">
        <ele>766</ele>
        <time>2016-07-04T15:22:42.000Z</time>
      </trkpt>
      <trkpt lat="46.08343" lon="6.7322">
        <ele>768</ele>
        <time>2016-07-04T15:22:46.000Z</time>
      </trkpt>
      <trkpt lat="46.08342" lon="6.73218">
        <ele>768</ele>
        <time>2016-07-04T15:22:47.000Z</time>
      </trkpt>
      <trkpt lat="46.08341" lon="6.73206">
        <ele>768</ele>
        <time>2016-07-04T15:22:54.000Z</time>
      </trkpt>
      <trkpt lat="46.0834" lon="6.73205">
        <ele>768</ele>
        <time>2016-07-04T15:22:55.000Z</time>
      </trkpt>
      <trkpt lat="46.08341" lon="6.73193">
        <ele>769</ele>
        <time>2016-07-04T15:23:01.000Z</time>
      </trkpt>
      <trkpt lat="46.08339" lon="6.73191">
        <ele>769</ele>
        <time>2016-07-04T15:23:02.000Z</time>
      </trkpt>
      <trkpt lat="46.08339" lon="6.73181">
        <ele>770</ele>
        <time>2016-07-04T15:23:10.000Z</time>
      </trkpt>
      <trkpt lat="46.08339" lon="6.73178">
        <ele>770</ele>
        <time>2016-07-04T15:23:11.000Z</time>
      </trkpt>
      <trkpt lat="46.08339" lon="6.73167">
        <ele>769</ele>
        <time>2016-07-04T15:23:19.000Z</time>
      </trkpt>
      <trkpt lat="46.0834" lon="6.73164">
        <ele>770</ele>
        <time>2016-07-04T15:23:20.000Z</time>
      </trkpt>
      <trkpt lat="46.08338" lon="6.73153">
        <ele>770</ele>
        <time>2016-07-04T15:23:26.000Z</time>
      </trkpt>
      <trkpt lat="46.08338" lon="6.7315">
        <ele>771</ele>
        <time>2016-07-04T15:23:27.000Z</time>
      </trkpt>
      <trkpt lat="46.08337" lon="6.73139">
        <ele>771</ele>
        <time>2016-07-04T15:23:32.000Z</time>
      </trkpt>
      <trkpt lat="46.08335" lon="6.73136">
        <ele>772</ele>
        <time>2016-07-04T15:23:33.000Z</time>
      </trkpt>
      <trkpt lat="46.08336" lon="6.73124">
        <ele>770</ele>
        <time>2016-07-04T15:23:43.000Z</time>
      </trkpt>
      <trkpt lat="46.08335" lon="6.73121">
        <ele>768</ele>
        <time>2016-07-04T15:23:44.000Z</time>
      </trkpt>
      <trkpt lat="46.08337" lon="6.73109">
        <ele>766</ele>
        <time>2016-07-04T15:23:57.000Z</time>
      </trkpt>
      <trkpt lat="46.08335" lon="6.73106">
        <ele>764</ele>
        <time>2016-07-04T15:23:58.000Z</time>
      </trkpt>
      <trkpt lat="46.08334" lon="6.73094">
        <ele>765</ele>
        <time>2016-07-04T15:24:05.000Z</time>
      </trkpt>
      <trkpt lat="46.08334" lon="6.73093">
        <ele>764</ele>
        <time>2016-07-04T15:24:06.000Z</time>
      </trkpt>
      <trkpt lat="46.08334" lon="6.7308">
        <ele>764</ele>
        <time>2016-07-04T15:24:11.000Z</time>
      </trkpt>
      <trkpt lat="46.08334" lon="6.73079">
        <ele>766</ele>
        <time>2016-07-04T15:24:12.000Z</time>
      </trkpt>
      <trkpt lat="46.08331" lon="6.73067">
        <ele>768</ele>
        <time>2016-07-04T15:24:17.000Z</time>
      </trkpt>
      <trkpt lat="46.08332" lon="6.73064">
        <ele>767</ele>
        <time>2016-07-04T15:24:18.000Z</time>
      </trkpt>
      <trkpt lat="46.08335" lon="6.73053">
        <ele>765</ele>
        <time>2016-07-04T15:24:26.000Z</time>
      </trkpt>
      <trkpt lat="46.08336" lon="6.7305">
        <ele>765</ele>
        <time>2016-07-04T15:24:27.000Z</time>
      </trkpt>
      <trkpt lat="46.08336" lon="6.73038">
        <ele>764</ele>
        <time>2016-07-04T15:24:34.000Z</time>
      </trkpt>
      <trkpt lat="46.08337" lon="6.73035">
        <ele>765</ele>
        <time>2016-07-04T15:24:35.000Z</time>
      </trkpt>
      <trkpt lat="46.08334" lon="6.73025">
        <ele>764</ele>
        <time>2016-07-04T15:24:42.000Z</time>
      </trkpt>
      <trkpt lat="46.08333" lon="6.73024">
        <ele>764</ele>
        <time>2016-07-04T15:24:43.000Z</time>
      </trkpt>
      <trkpt lat="46.08333" lon="6.73021">
        <ele>762</ele>
        <time>2016-07-04T15:24:46.000Z</time>
      </trkpt>
      <trkpt lat="46.08342" lon="6.73018">
        <ele>763</ele>
        <time>2016-07-04T15:24:47.000Z</time>
      </trkpt>
      <trkpt lat="46.08338" lon="6.73008">
        <ele>761</ele>
        <time>2016-07-04T15:24:53.000Z</time>
      </trkpt>
      <trkpt lat="46.08338" lon="6.73007">
        <ele>761</ele>
        <time>2016-07-04T15:24:54.000Z</time>
      </trkpt>
      <trkpt lat="46.08339" lon="6.72996">
        <ele>761</ele>
        <time>2016-07-04T15:25:00.000Z</time>
      </trkpt>
      <trkpt lat="46.0834" lon="6.72994">
        <ele>761</ele>
        <time>2016-07-04T15:25:01.000Z</time>
      </trkpt>
      <trkpt lat="46.08338" lon="6.72981">
        <ele>760</ele>
        <time>2016-07-04T15:25:09.000Z</time>
      </trkpt>
      <trkpt lat="46.08339" lon="6.7298">
        <ele>760</ele>
        <time>2016-07-04T15:25:10.000Z</time>
      </trkpt>
      <trkpt lat="46.08341" lon="6.72968">
        <ele>760</ele>
        <time>2016-07-04T15:25:17.000Z</time>
      </trkpt>
      <trkpt lat="46.08341" lon="6.72967">
        <ele>763</ele>
        <time>2016-07-04T15:25:18.000Z</time>
      </trkpt>
      <trkpt lat="46.08343" lon="6.72956">
        <ele>761</ele>
        <time>2016-07-04T15:25:23.000Z</time>
      </trkpt>
      <trkpt lat="46.08344" lon="6.72954">
        <ele>761</ele>
        <time>2016-07-04T15:25:24.000Z</time>
      </trkpt>
      <trkpt lat="46.08344" lon="6.72942">
        <ele>760</ele>
        <time>2016-07-04T15:25:31.000Z</time>
      </trkpt>
      <trkpt lat="46.08345" lon="6.7294">
        <ele>760</ele>
        <time>2016-07-04T15:25:32.000Z</time>
      </trkpt>
      <trkpt lat="46.08342" lon="6.7293">
        <ele>756</ele>
        <time>2016-07-04T15:25:38.000Z</time>
      </trkpt>
      <trkpt lat="46.08342" lon="6.72928">
        <ele>756</ele>
        <time>2016-07-04T15:25:39.000Z</time>
      </trkpt>
      <trkpt lat="46.08341" lon="6.72918">
        <ele>758</ele>
        <time>2016-07-04T15:25:45.000Z</time>
      </trkpt>
      <trkpt lat="46.0834" lon="6.72914">
        <ele>758</ele>
        <time>2016-07-04T15:25:46.000Z</time>
      </trkpt>
      <trkpt lat="46.08342" lon="6.72902">
        <ele>759</ele>
        <time>2016-07-04T15:25:53.000Z</time>
      </trkpt>
      <trkpt lat="46.08342" lon="6.729">
        <ele>760</ele>
        <time>2016-07-04T15:25:54.000Z</time>
      </trkpt>
      <trkpt lat="46.08345" lon="6.72888">
        <ele>759</ele>
        <time>2016-07-04T15:26:02.000Z</time>
      </trkpt>
      <trkpt lat="46.08345" lon="6.72886">
        <ele>759</ele>
        <time>2016-07-04T15:26:05.000Z</time>
      </trkpt>
      <trkpt lat="46.08351" lon="6.72877">
        <ele>759</ele>
        <time>2016-07-04T15:26:12.000Z</time>
      </trkpt>
      <trkpt lat="46.08351" lon="6.72875">
        <ele>759</ele>
        <time>2016-07-04T15:26:13.000Z</time>
      </trkpt>
      <trkpt lat="46.08357" lon="6.72867">
        <ele>759</ele>
        <time>2016-07-04T15:26:19.000Z</time>
      </trkpt>
      <trkpt lat="46.08358" lon="6.72865">
        <ele>760</ele>
        <time>2016-07-04T15:26:20.000Z</time>
      </trkpt>
      <trkpt lat="46.08362" lon="6.72855">
        <ele>762</ele>
        <time>2016-07-04T15:26:27.000Z</time>
      </trkpt>
      <trkpt lat="46.08363" lon="6.72854">
        <ele>760</ele>
        <time>2016-07-04T15:26:28.000Z</time>
      </trkpt>
      <trkpt lat="46.08368" lon="6.72843">
        <ele>757</ele>
        <time>2016-07-04T15:26:36.000Z</time>
      </trkpt>
      <trkpt lat="46.08367" lon="6.72842">
        <ele>757</ele>
        <time>2016-07-04T15:26:37.000Z</time>
      </trkpt>
      <trkpt lat="46.0836" lon="6.72835">
        <ele>754</ele>
        <time>2016-07-04T15:26:42.000Z</time>
      </trkpt>
      <trkpt lat="46.08357" lon="6.72836">
        <ele>752</ele>
        <time>2016-07-04T15:26:43.000Z</time>
      </trkpt>
      <trkpt lat="46.08355" lon="6.72823">
        <ele>752</ele>
        <time>2016-07-04T15:26:51.000Z</time>
      </trkpt>
      <trkpt lat="46.08354" lon="6.72823">
        <ele>752</ele>
        <time>2016-07-04T15:26:52.000Z</time>
      </trkpt>
      <trkpt lat="46.0835" lon="6.72812">
        <ele>750</ele>
        <time>2016-07-04T15:27:01.000Z</time>
      </trkpt>
      <trkpt lat="46.0835" lon="6.72811">
        <ele>751</ele>
        <time>2016-07-04T15:27:02.000Z</time>
      </trkpt>
      <trkpt lat="46.0835" lon="6.728">
        <ele>753</ele>
        <time>2016-07-04T15:27:08.000Z</time>
      </trkpt>
      <trkpt lat="46.0835" lon="6.72798">
        <ele>753</ele>
        <time>2016-07-04T15:27:09.000Z</time>
      </trkpt>
      <trkpt lat="46.08346" lon="6.72787">
        <ele>751</ele>
        <time>2016-07-04T15:27:15.000Z</time>
      </trkpt>
      <trkpt lat="46.08345" lon="6.72785">
        <ele>751</ele>
        <time>2016-07-04T15:27:16.000Z</time>
      </trkpt>
      <trkpt lat="46.08343" lon="6.72774">
        <ele>751</ele>
        <time>2016-07-04T15:27:23.000Z</time>
      </trkpt>
      <trkpt lat="46.08343" lon="6.72772">
        <ele>752</ele>
        <time>2016-07-04T15:27:24.000Z</time>
      </trkpt>
      <trkpt lat="46.08342" lon="6.72759">
        <ele>752</ele>
        <time>2016-07-04T15:27:31.000Z</time>
      </trkpt>
      <trkpt lat="46.08343" lon="6.72759">
        <ele>753</ele>
        <time>2016-07-04T15:27:32.000Z</time>
      </trkpt>
      <trkpt lat="46.08338" lon="6.72748">
        <ele>749</ele>
        <time>2016-07-04T15:27:43.000Z</time>
      </trkpt>
      <trkpt lat="46.08337" lon="6.72747">
        <ele>749</ele>
        <time>2016-07-04T15:27:44.000Z</time>
      </trkpt>
      <trkpt lat="46.08334" lon="6.72735">
        <ele>750</ele>
        <time>2016-07-04T15:27:54.000Z</time>
      </trkpt>
      <trkpt lat="46.08334" lon="6.72733">
        <ele>750</ele>
        <time>2016-07-04T15:27:55.000Z</time>
      </trkpt>
      <trkpt lat="46.08332" lon="6.72721">
        <ele>750</ele>
        <time>2016-07-04T15:28:06.000Z</time>
      </trkpt>
      <trkpt lat="46.08332" lon="6.72718">
        <ele>750</ele>
        <time>2016-07-04T15:28:07.000Z</time>
      </trkpt>
      <trkpt lat="46.0833" lon="6.72708">
        <ele>750</ele>
        <time>2016-07-04T15:28:14.000Z</time>
      </trkpt>
      <trkpt lat="46.0833" lon="6.72705">
        <ele>750</ele>
        <time>2016-07-04T15:28:15.000Z</time>
      </trkpt>
      <trkpt lat="46.08329" lon="6.72693">
        <ele>752</ele>
        <time>2016-07-04T15:28:21.000Z</time>
      </trkpt>
      <trkpt lat="46.08329" lon="6.72691">
        <ele>752</ele>
        <time>2016-07-04T15:28:22.000Z</time>
      </trkpt>
      <trkpt lat="46.08328" lon="6.72679">
        <ele>755</ele>
        <time>2016-07-04T15:28:30.000Z</time>
      </trkpt>
      <trkpt lat="46.08328" lon="6.72678">
        <ele>755</ele>
        <time>2016-07-04T15:28:31.000Z</time>
      </trkpt>
      <trkpt lat="46.08324" lon="6.72671">
        <ele>756</ele>
        <time>2016-07-04T15:29:15.000Z</time>
      </trkpt>
      <trkpt lat="46.08324" lon="6.72671">
        <ele>756</ele>
        <time>2016-07-04T15:29:16.000Z</time>
      </trkpt>
      <trkpt lat="46.08328" lon="6.72667">
        <ele>759</ele>
        <time>2016-07-04T15:29:22.000Z</time>
      </trkpt>
      <trkpt lat="46.08328" lon="6.72667">
        <ele>759</ele>
        <time>2016-07-04T15:29:23.000Z</time>
      </trkpt>
      <trkpt lat="46.08332" lon="6.72662">
        <ele>761</ele>
        <time>2016-07-04T15:31:45.000Z</time>
      </trkpt>
      <trkpt lat="46.08332" lon="6.72662">
        <ele>761</ele>
        <time>2016-07-04T15:31:46.000Z</time>
      </trkpt>
      <trkpt lat="46.08332" lon="6.72662">
        <ele>758</ele>
        <time>2016-07-04T15:34:09.000Z</time>
      </trkpt>
      <trkpt lat="46.08332" lon="6.72663">
        <ele>758</ele>
        <time>2016-07-04T15:34:10.000Z</time>
      </trkpt>
      <trkpt lat="46.08335" lon="6.7266">
        <ele>760</ele>
        <time>2016-07-04T15:34:43.000Z</time>
      </trkpt>
      <trkpt lat="46.08335" lon="6.7266">
        <ele>760</ele>
        <time>2016-07-04T15:34:44.000Z</time>
      </trkpt>
      <trkpt lat="46.08332" lon="6.72662">
        <ele>759</ele>
        <time>2016-07-04T15:41:42.000Z</time>
      </trkpt>
      <trkpt lat="46.08332" lon="6.72662">
        <ele>759</ele>
        <time>2016-07-04T15:41:43.000Z</time>
      </trkpt>
      <trkpt lat="46.08324" lon="6.72668">
        <ele>758</ele>
        <time>2016-07-04T15:41:58.000Z</time>
      </trkpt>
      <trkpt lat="46.08324" lon="6.72668">
        <ele>758</ele>
        <time>2016-07-04T15:41:59.000Z</time>
      </trkpt>
      <trkpt lat="46.08324" lon="6.72671">
        <ele>758</ele>
        <time>2016-07-04T15:42:00.000Z</time>
      </trkpt>
      <trkpt lat="46.08341" lon="6.7266">
        <ele>773</ele>
        <time>2016-07-04T15:46:40.000Z</time>
      </trkpt>
      <trkpt lat="46.08339" lon="6.72659">
        <ele>765</ele>
        <time>2016-07-04T15:46:44.000Z</time>
      </trkpt>
      <trkpt lat="46.08337" lon="6.72659">
        <ele>764</ele>
        <time>2016-07-04T15:46:45.000Z</time>
      </trkpt>
      <trkpt lat="46.08337" lon="6.72661">
        <ele>763</ele>
        <time>2016-07-04T15:46:46.000Z</time>
      </trkpt>
      <trkpt lat="46.08337" lon="6.72662">
        <ele>763</ele>
        <time>2016-07-04T15:46:47.000Z</time>
      </trkpt>
      <trkpt lat="46.08337" lon="6.72661">
        <ele>762</ele>
        <time>2016-07-04T15:46:48.000Z</time>
      </trkpt>
      <trkpt lat="46.08336" lon="6.72661">
        <ele>761</ele>
        <time>2016-07-04T15:47:45.000Z</time>
      </trkpt>
      <trkpt lat="46.08336" lon="6.7266">
        <ele>761</ele>
        <time>2016-07-04T15:47:46.000Z</time>
      </trkpt>
      <trkpt lat="46.08333" lon="6.7266">
        <ele>761</ele>
        <time>2016-07-04T16:06:07.000Z</time>
      </trkpt>
      <trkpt lat="46.08333" lon="6.7266">
        <ele>761</ele>
        <time>2016-07-04T16:06:08.000Z</time>
      </trkpt>
      <trkpt lat="46.08337" lon="6.72664">
        <ele>762</ele>
        <time>2016-07-04T16:07:15.000Z</time>
      </trkpt>
      <trkpt lat="46.08337" lon="6.72663">
        <ele>761</ele>
        <time>2016-07-04T16:07:16.000Z</time>
      </trkpt>
      <trkpt lat="46.08335" lon="6.72663">
        <ele>760</ele>
        <time>2016-07-04T16:10:47.000Z</time>
      </trkpt>
      <trkpt lat="46.08335" lon="6.72664">
        <ele>760</ele>
        <time>2016-07-04T16:10:48.000Z</time>
      </trkpt>
      <trkpt lat="46.08334" lon="6.72661">
        <ele>763</ele>
        <time>2016-07-04T16:13:36.000Z</time>
      </trkpt>
      <trkpt lat="46.08334" lon="6.72661">
        <ele>763</ele>
        <time>2016-07-04T16:13:37.000Z</time>
      </trkpt>
      <trkpt lat="46.08329" lon="6.72664">
        <ele>766</ele>
        <time>2016-07-04T16:15:33.000Z</time>
      </trkpt>
      <trkpt lat="46.08324" lon="6.72669">
        <ele>768</ele>
        <time>2016-07-04T16:15:34.000Z</time>
      </trkpt>
      <trkpt lat="46.08322" lon="6.7268">
        <ele>765</ele>
        <time>2016-07-04T16:15:41.000Z</time>
      </trkpt>
      <trkpt lat="46.0832" lon="6.72681">
        <ele>765</ele>
        <time>2016-07-04T16:15:42.000Z</time>
      </trkpt>
      <trkpt lat="46.08316" lon="6.72691">
        <ele>762</ele>
        <time>2016-07-04T16:15:54.000Z</time>
      </trkpt>
      <trkpt lat="46.08314" lon="6.72696">
        <ele>762</ele>
        <time>2016-07-04T16:15:55.000Z</time>
      </trkpt>
      <trkpt lat="46.08311" lon="6.72703">
        <ele>763</ele>
        <time>2016-07-04T16:16:14.000Z</time>
      </trkpt>
      <trkpt lat="46.08307" lon="6.72711">
        <ele>761</ele>
        <time>2016-07-04T16:16:15.000Z</time>
      </trkpt>
      <trkpt lat="46.08303" lon="6.72711">
        <ele>760</ele>
        <time>2016-07-04T16:16:17.000Z</time>
      </trkpt>
      <trkpt lat="46.08297" lon="6.72712">
        <ele>764</ele>
        <time>2016-07-04T16:16:18.000Z</time>
      </trkpt>
      <trkpt lat="46.08291" lon="6.72716">
        <ele>767</ele>
        <time>2016-07-04T16:16:19.000Z</time>
      </trkpt>
      <trkpt lat="46.08288" lon="6.72717">
        <ele>766</ele>
        <time>2016-07-04T16:16:20.000Z</time>
      </trkpt>
      <trkpt lat="46.08283" lon="6.72721">
        <ele>767</ele>
        <time>2016-07-04T16:16:21.000Z</time>
      </trkpt>
      <trkpt lat="46.08279" lon="6.72723">
        <ele>767</ele>
        <time>2016-07-04T16:16:22.000Z</time>
      </trkpt>
      <trkpt lat="46.08277" lon="6.72712">
        <ele>750</ele>
        <time>2016-07-04T16:16:31.000Z</time>
      </trkpt>
      <trkpt lat="46.08276" lon="6.7271">
        <ele>751</ele>
        <time>2016-07-04T16:16:32.000Z</time>
      </trkpt>
      <trkpt lat="46.08268" lon="6.72705">
        <ele>747</ele>
        <time>2016-07-04T16:16:39.000Z</time>
      </trkpt>
      <trkpt lat="46.08265" lon="6.72704">
        <ele>749</ele>
        <time>2016-07-04T16:16:40.000Z</time>
      </trkpt>
      <trkpt lat="46.08257" lon="6.72703">
        <ele>755</ele>
        <time>2016-07-04T16:16:43.000Z</time>
      </trkpt>
      <trkpt lat="46.08255" lon="6.727">
        <ele>755</ele>
        <time>2016-07-04T16:16:44.000Z</time>
      </trkpt>
      <trkpt lat="46.08248" lon="6.72704">
        <ele>754</ele>
        <time>2016-07-04T16:16:54.000Z</time>
      </trkpt>
      <trkpt lat="46.08246" lon="6.72707">
        <ele>756</ele>
        <time>2016-07-04T16:16:55.000Z</time>
      </trkpt>
      <trkpt lat="46.08239" lon="6.72712">
        <ele>753</ele>
        <time>2016-07-04T16:17:05.000Z</time>
      </trkpt>
      <trkpt lat="46.08237" lon="6.72712">
        <ele>754</ele>
        <time>2016-07-04T16:17:06.000Z</time>
      </trkpt>
      <trkpt lat="46.08229" lon="6.72717">
        <ele>752</ele>
        <time>2016-07-04T16:17:14.000Z</time>
      </trkpt>
      <trkpt lat="46.08227" lon="6.72717">
        <ele>753</ele>
        <time>2016-07-04T16:17:15.000Z</time>
      </trkpt>
      <trkpt lat="46.08219" lon="6.72722">
        <ele>747</ele>
        <time>2016-07-04T16:17:25.000Z</time>
      </trkpt>
      <trkpt lat="46.08217" lon="6.72722">
        <ele>747</ele>
        <time>2016-07-04T16:17:26.000Z</time>
      </trkpt>
      <trkpt lat="46.0821" lon="6.7272">
        <ele>749</ele>
        <time>2016-07-04T16:17:33.000Z</time>
      </trkpt>
      <trkpt lat="46.08207" lon="6.7272">
        <ele>750</ele>
        <time>2016-07-04T16:17:34.000Z</time>
      </trkpt>
      <trkpt lat="46.08199" lon="6.7272">
        <ele>743</ele>
        <time>2016-07-04T16:17:42.000Z</time>
      </trkpt>
      <trkpt lat="46.08196" lon="6.7272">
        <ele>744</ele>
        <time>2016-07-04T16:17:43.000Z</time>
      </trkpt>
      <trkpt lat="46.08188" lon="6.72717">
        <ele>748</ele>
        <time>2016-07-04T16:17:49.000Z</time>
      </trkpt>
      <trkpt lat="46.08186" lon="6.72716">
        <ele>749</ele>
        <time>2016-07-04T16:17:50.000Z</time>
      </trkpt>
      <trkpt lat="46.08177" lon="6.72719">
        <ele>750</ele>
        <time>2016-07-04T16:17:58.000Z</time>
      </trkpt>
      <trkpt lat="46.08177" lon="6.72721">
        <ele>749</ele>
        <time>2016-07-04T16:17:59.000Z</time>
      </trkpt>
      <trkpt lat="46.08168" lon="6.72719">
        <ele>751</ele>
        <time>2016-07-04T16:18:06.000Z</time>
      </trkpt>
      <trkpt lat="46.08166" lon="6.7272">
        <ele>751</ele>
        <time>2016-07-04T16:18:07.000Z</time>
      </trkpt>
      <trkpt lat="46.08159" lon="6.72722">
        <ele>755</ele>
        <time>2016-07-04T16:18:13.000Z</time>
      </trkpt>
      <trkpt lat="46.08157" lon="6.72723">
        <ele>755</ele>
        <time>2016-07-04T16:18:14.000Z</time>
      </trkpt>
      <trkpt lat="46.08151" lon="6.72718">
        <ele>748</ele>
        <time>2016-07-04T16:18:26.000Z</time>
      </trkpt>
      <trkpt lat="46.08148" lon="6.72714">
        <ele>749</ele>
        <time>2016-07-04T16:18:27.000Z</time>
      </trkpt>
      <trkpt lat="46.08139" lon="6.72717">
        <ele>751</ele>
        <time>2016-07-04T16:18:33.000Z</time>
      </trkpt>
      <trkpt lat="46.08137" lon="6.72719">
        <ele>751</ele>
        <time>2016-07-04T16:18:34.000Z</time>
      </trkpt>
      <trkpt lat="46.08129" lon="6.72722">
        <ele>750</ele>
        <time>2016-07-04T16:18:44.000Z</time>
      </trkpt>
      <trkpt lat="46.08127" lon="6.72721">
        <ele>750</ele>
        <time>2016-07-04T16:18:45.000Z</time>
      </trkpt>
      <trkpt lat="46.08119" lon="6.72717">
        <ele>749</ele>
        <time>2016-07-04T16:18:54.000Z</time>
      </trkpt>
      <trkpt lat="46.08119" lon="6.72717">
        <ele>749</ele>
        <time>2016-07-04T16:18:55.000Z</time>
      </trkpt>
      <trkpt lat="46.0811" lon="6.72715">
        <ele>743</ele>
        <time>2016-07-04T16:19:05.000Z</time>
      </trkpt>
      <trkpt lat="46.0811" lon="6.72715">
        <ele>743</ele>
        <time>2016-07-04T16:19:06.000Z</time>
      </trkpt>
      <trkpt lat="46.08103" lon="6.72706">
        <ele>744</ele>
        <time>2016-07-04T16:19:12.000Z</time>
      </trkpt>
      <trkpt lat="46.08102" lon="6.72705">
        <ele>744</ele>
        <time>2016-07-04T16:19:13.000Z</time>
      </trkpt>
      <trkpt lat="46.08101" lon="6.72697">
        <ele>741</ele>
        <time>2016-07-04T16:19:20.000Z</time>
      </trkpt>
      <trkpt lat="46.08099" lon="6.72693">
        <ele>742</ele>
        <time>2016-07-04T16:19:21.000Z</time>
      </trkpt>
      <trkpt lat="46.081" lon="6.72691">
        <ele>743</ele>
        <time>2016-07-04T16:19:30.000Z</time>
      </trkpt>
      <trkpt lat="46.081" lon="6.7269">
        <ele>744</ele>
        <time>2016-07-04T16:19:31.000Z</time>
      </trkpt>
      <trkpt lat="46.08101" lon="6.72689">
        <ele>744</ele>
        <time>2016-07-04T16:19:33.000Z</time>
      </trkpt>
      <trkpt lat="46.08101" lon="6.72687">
        <ele>746</ele>
        <time>2016-07-04T16:19:34.000Z</time>
      </trkpt>
      <trkpt lat="46.08095" lon="6.72689">
        <ele>753</ele>
        <time>2016-07-04T16:28:55.000Z</time>
      </trkpt>
      <trkpt lat="46.08091" lon="6.72687">
        <ele>753</ele>
        <time>2016-07-04T16:28:56.000Z</time>
      </trkpt>
      <trkpt lat="46.08083" lon="6.72686">
        <ele>753</ele>
        <time>2016-07-04T16:28:59.000Z</time>
      </trkpt>
      <trkpt lat="46.08081" lon="6.72688">
        <ele>753</ele>
        <time>2016-07-04T16:29:00.000Z</time>
      </trkpt>
      <trkpt lat="46.08072" lon="6.72691">
        <ele>753</ele>
        <time>2016-07-04T16:29:03.000Z</time>
      </trkpt>
      <trkpt lat="46.08071" lon="6.72695">
        <ele>752</ele>
        <time>2016-07-04T16:29:04.000Z</time>
      </trkpt>
      <trkpt lat="46.08063" lon="6.72689">
        <ele>747</ele>
        <time>2016-07-04T16:29:10.000Z</time>
      </trkpt>
      <trkpt lat="46.08059" lon="6.72679">
        <ele>748</ele>
        <time>2016-07-04T16:29:11.000Z</time>
      </trkpt>
      <trkpt lat="46.0806" lon="6.72681">
        <ele>750</ele>
        <time>2016-07-04T16:29:17.000Z</time>
      </trkpt>
      <trkpt lat="46.08058" lon="6.72683">
        <ele>751</ele>
        <time>2016-07-04T16:29:18.000Z</time>
      </trkpt>
      <trkpt lat="46.08059" lon="6.72675">
        <ele>751</ele>
        <time>2016-07-04T16:29:19.000Z</time>
      </trkpt>
      <trkpt lat="46.08054" lon="6.72681">
        <ele>751</ele>
        <time>2016-07-04T16:29:20.000Z</time>
      </trkpt>
      <trkpt lat="46.0805" lon="6.7269">
        <ele>751</ele>
        <time>2016-07-04T16:29:21.000Z</time>
      </trkpt>
      <trkpt lat="46.08049" lon="6.72702">
        <ele>746</ele>
        <time>2016-07-04T16:29:29.000Z</time>
      </trkpt>
      <trkpt lat="46.08048" lon="6.72704">
        <ele>745</ele>
        <time>2016-07-04T16:29:30.000Z</time>
      </trkpt>
      <trkpt lat="46.08047" lon="6.72715">
        <ele>750</ele>
        <time>2016-07-04T16:29:35.000Z</time>
      </trkpt>
      <trkpt lat="46.08046" lon="6.72717">
        <ele>752</ele>
        <time>2016-07-04T16:29:36.000Z</time>
      </trkpt>
      <trkpt lat="46.08045" lon="6.72727">
        <ele>755</ele>
        <time>2016-07-04T16:29:41.000Z</time>
      </trkpt>
      <trkpt lat="46.08044" lon="6.7273">
        <ele>755</ele>
        <time>2016-07-04T16:29:42.000Z</time>
      </trkpt>
      <trkpt lat="46.08045" lon="6.7274">
        <ele>755</ele>
        <time>2016-07-04T16:29:47.000Z</time>
      </trkpt>
      <trkpt lat="46.08042" lon="6.72746">
        <ele>754</ele>
        <time>2016-07-04T16:29:48.000Z</time>
      </trkpt>
      <trkpt lat="46.08045" lon="6.72734">
        <ele>754</ele>
        <time>2016-07-04T16:29:54.000Z</time>
      </trkpt>
      <trkpt lat="46.08044" lon="6.72733">
        <ele>754</ele>
        <time>2016-07-04T16:29:55.000Z</time>
      </trkpt>
      <trkpt lat="46.08042" lon="6.72743">
        <ele>761</ele>
        <time>2016-07-04T16:30:00.000Z</time>
      </trkpt>
      <trkpt lat="46.08041" lon="6.72745">
        <ele>762</ele>
        <time>2016-07-04T16:30:01.000Z</time>
      </trkpt>
      <trkpt lat="46.08036" lon="6.72754">
        <ele>761</ele>
        <time>2016-07-04T16:30:06.000Z</time>
      </trkpt>
      <trkpt lat="46.08035" lon="6.72756">
        <ele>760</ele>
        <time>2016-07-04T16:30:07.000Z</time>
      </trkpt>
      <trkpt lat="46.08029" lon="6.72766">
        <ele>765</ele>
        <time>2016-07-04T16:30:13.000Z</time>
      </trkpt>
      <trkpt lat="46.08029" lon="6.72768">
        <ele>766</ele>
        <time>2016-07-04T16:30:14.000Z</time>
      </trkpt>
      <trkpt lat="46.08026" lon="6.72768">
        <ele>765</ele>
        <time>2016-07-04T16:30:18.000Z</time>
      </trkpt>
      <trkpt lat="46.0802" lon="6.72777">
        <ele>763</ele>
        <time>2016-07-04T16:30:19.000Z</time>
      </trkpt>
      <trkpt lat="46.08018" lon="6.72785">
        <ele>766</ele>
        <time>2016-07-04T16:30:26.000Z</time>
      </trkpt>
      <trkpt lat="46.08016" lon="6.72789">
        <ele>766</ele>
        <time>2016-07-04T16:30:27.000Z</time>
      </trkpt>
      <trkpt lat="46.08012" lon="6.728">
        <ele>762</ele>
        <time>2016-07-04T16:30:41.000Z</time>
      </trkpt>
      <trkpt lat="46.08011" lon="6.72801">
        <ele>763</ele>
        <time>2016-07-04T16:30:42.000Z</time>
      </trkpt>
      <trkpt lat="46.08006" lon="6.72809">
        <ele>768</ele>
        <time>2016-07-04T16:30:49.000Z</time>
      </trkpt>
      <trkpt lat="46.08004" lon="6.72812">
        <ele>768</ele>
        <time>2016-07-04T16:30:50.000Z</time>
      </trkpt>
      <trkpt lat="46.07999" lon="6.72821">
        <ele>762</ele>
        <time>2016-07-04T16:31:01.000Z</time>
      </trkpt>
      <trkpt lat="46.07997" lon="6.72823">
        <ele>762</ele>
        <time>2016-07-04T16:31:02.000Z</time>
      </trkpt>
      <trkpt lat="46.07994" lon="6.72833">
        <ele>757</ele>
        <time>2016-07-04T16:31:06.000Z</time>
      </trkpt>
      <trkpt lat="46.07993" lon="6.72834">
        <ele>756</ele>
        <time>2016-07-04T16:31:07.000Z</time>
      </trkpt>
      <trkpt lat="46.07987" lon="6.72842">
        <ele>754</ele>
        <time>2016-07-04T16:31:13.000Z</time>
      </trkpt>
      <trkpt lat="46.07985" lon="6.72845">
        <ele>754</ele>
        <time>2016-07-04T16:31:14.000Z</time>
      </trkpt>
      <trkpt lat="46.07981" lon="6.72856">
        <ele>754</ele>
        <time>2016-07-04T16:31:21.000Z</time>
      </trkpt>
      <trkpt lat="46.0798" lon="6.72858">
        <ele>752</ele>
        <time>2016-07-04T16:31:22.000Z</time>
      </trkpt>
      <trkpt lat="46.07976" lon="6.72867">
        <ele>755</ele>
        <time>2016-07-04T16:31:26.000Z</time>
      </trkpt>
      <trkpt lat="46.07975" lon="6.72869">
        <ele>756</ele>
        <time>2016-07-04T16:31:27.000Z</time>
      </trkpt>
      <trkpt lat="46.07969" lon="6.72875">
        <ele>753</ele>
        <time>2016-07-04T16:31:38.000Z</time>
      </trkpt>
      <trkpt lat="46.07968" lon="6.72878">
        <ele>754</ele>
        <time>2016-07-04T16:31:39.000Z</time>
      </trkpt>
      <trkpt lat="46.07961" lon="6.72885">
        <ele>759</ele>
        <time>2016-07-04T16:31:50.000Z</time>
      </trkpt>
      <trkpt lat="46.07959" lon="6.72889">
        <ele>758</ele>
        <time>2016-07-04T16:31:51.000Z</time>
      </trkpt>
      <trkpt lat="46.07955" lon="6.72893">
        <ele>760</ele>
        <time>2016-07-04T16:31:53.000Z</time>
      </trkpt>
      <trkpt lat="46.07952" lon="6.72898">
        <ele>759</ele>
        <time>2016-07-04T16:31:54.000Z</time>
      </trkpt>
      <trkpt lat="46.07949" lon="6.72909">
        <ele>760</ele>
        <time>2016-07-04T16:31:59.000Z</time>
      </trkpt>
      <trkpt lat="46.0795" lon="6.72912">
        <ele>759</ele>
        <time>2016-07-04T16:32:00.000Z</time>
      </trkpt>
      <trkpt lat="46.07946" lon="6.72919">
        <ele>756</ele>
        <time>2016-07-04T16:32:10.000Z</time>
      </trkpt>
      <trkpt lat="46.07944" lon="6.72924">
        <ele>756</ele>
        <time>2016-07-04T16:32:11.000Z</time>
      </trkpt>
      <trkpt lat="46.0794" lon="6.72931">
        <ele>761</ele>
        <time>2016-07-04T16:32:17.000Z</time>
      </trkpt>
      <trkpt lat="46.07937" lon="6.72934">
        <ele>761</ele>
        <time>2016-07-04T16:32:18.000Z</time>
      </trkpt>
      <trkpt lat="46.07933" lon="6.72943">
        <ele>762</ele>
        <time>2016-07-04T16:32:25.000Z</time>
      </trkpt>
      <trkpt lat="46.07933" lon="6.72947">
        <ele>759</ele>
        <time>2016-07-04T16:32:26.000Z</time>
      </trkpt>
      <trkpt lat="46.07929" lon="6.72956">
        <ele>766</ele>
        <time>2016-07-04T16:32:34.000Z</time>
      </trkpt>
      <trkpt lat="46.07927" lon="6.72962">
        <ele>767</ele>
        <time>2016-07-04T16:32:35.000Z</time>
      </trkpt>
      <trkpt lat="46.07925" lon="6.7296">
        <ele>769</ele>
        <time>2016-07-04T16:32:38.000Z</time>
      </trkpt>
      <trkpt lat="46.07919" lon="6.7297">
        <ele>768</ele>
        <time>2016-07-04T16:32:39.000Z</time>
      </trkpt>
      <trkpt lat="46.07913" lon="6.7298">
        <ele>760</ele>
        <time>2016-07-04T16:32:52.000Z</time>
      </trkpt>
      <trkpt lat="46.07911" lon="6.72983">
        <ele>763</ele>
        <time>2016-07-04T16:32:53.000Z</time>
      </trkpt>
      <trkpt lat="46.07903" lon="6.72977">
        <ele>761</ele>
        <time>2016-07-04T16:33:02.000Z</time>
      </trkpt>
      <trkpt lat="46.07902" lon="6.72974">
        <ele>760</ele>
        <time>2016-07-04T16:33:03.000Z</time>
      </trkpt>
      <trkpt lat="46.07895" lon="6.72968">
        <ele>759</ele>
        <time>2016-07-04T16:33:10.000Z</time>
      </trkpt>
      <trkpt lat="46.07894" lon="6.72967">
        <ele>757</ele>
        <time>2016-07-04T16:33:11.000Z</time>
      </trkpt>
      <trkpt lat="46.07894" lon="6.72955">
        <ele>761</ele>
        <time>2016-07-04T16:33:19.000Z</time>
      </trkpt>
      <trkpt lat="46.07893" lon="6.72954">
        <ele>761</ele>
        <time>2016-07-04T16:33:20.000Z</time>
      </trkpt>
      <trkpt lat="46.07886" lon="6.72949">
        <ele>763</ele>
        <time>2016-07-04T16:33:26.000Z</time>
      </trkpt>
      <trkpt lat="46.07885" lon="6.72946">
        <ele>763</ele>
        <time>2016-07-04T16:33:27.000Z</time>
      </trkpt>
      <trkpt lat="46.07879" lon="6.72936">
        <ele>761</ele>
        <time>2016-07-04T16:33:33.000Z</time>
      </trkpt>
      <trkpt lat="46.07877" lon="6.72938">
        <ele>761</ele>
        <time>2016-07-04T16:33:34.000Z</time>
      </trkpt>
      <trkpt lat="46.07871" lon="6.72932">
        <ele>759</ele>
        <time>2016-07-04T16:33:40.000Z</time>
      </trkpt>
      <trkpt lat="46.07869" lon="6.72933">
        <ele>757</ele>
        <time>2016-07-04T16:33:41.000Z</time>
      </trkpt>
      <trkpt lat="46.07863" lon="6.72926">
        <ele>757</ele>
        <time>2016-07-04T16:33:45.000Z</time>
      </trkpt>
      <trkpt lat="46.07863" lon="6.72923">
        <ele>759</ele>
        <time>2016-07-04T16:33:46.000Z</time>
      </trkpt>
      <trkpt lat="46.07857" lon="6.72917">
        <ele>761</ele>
        <time>2016-07-04T16:33:52.000Z</time>
      </trkpt>
      <trkpt lat="46.07855" lon="6.72913">
        <ele>762</ele>
        <time>2016-07-04T16:33:53.000Z</time>
      </trkpt>
      <trkpt lat="46.07849" lon="6.72905">
        <ele>766</ele>
        <time>2016-07-04T16:33:58.000Z</time>
      </trkpt>
      <trkpt lat="46.07848" lon="6.72903">
        <ele>768</ele>
        <time>2016-07-04T16:33:59.000Z</time>
      </trkpt>
      <trkpt lat="46.07839" lon="6.72899">
        <ele>766</ele>
        <time>2016-07-04T16:34:09.000Z</time>
      </trkpt>
      <trkpt lat="46.07837" lon="6.72897">
        <ele>766</ele>
        <time>2016-07-04T16:34:10.000Z</time>
      </trkpt>
      <trkpt lat="46.07831" lon="6.7289">
        <ele>765</ele>
        <time>2016-07-04T16:34:16.000Z</time>
      </trkpt>
      <trkpt lat="46.07829" lon="6.72889">
        <ele>763</ele>
        <time>2016-07-04T16:34:17.000Z</time>
      </trkpt>
      <trkpt lat="46.07821" lon="6.72885">
        <ele>763</ele>
        <time>2016-07-04T16:34:24.000Z</time>
      </trkpt>
      <trkpt lat="46.07819" lon="6.72884">
        <ele>762</ele>
        <time>2016-07-04T16:34:25.000Z</time>
      </trkpt>
      <trkpt lat="46.07812" lon="6.72877">
        <ele>761</ele>
        <time>2016-07-04T16:34:34.000Z</time>
      </trkpt>
      <trkpt lat="46.0781" lon="6.72876">
        <ele>759</ele>
        <time>2016-07-04T16:34:35.000Z</time>
      </trkpt>
      <trkpt lat="46.07803" lon="6.7287">
        <ele>756</ele>
        <time>2016-07-04T16:34:44.000Z</time>
      </trkpt>
      <trkpt lat="46.07801" lon="6.72869">
        <ele>756</ele>
        <time>2016-07-04T16:34:45.000Z</time>
      </trkpt>
      <trkpt lat="46.07794" lon="6.72862">
        <ele>755</ele>
        <time>2016-07-04T16:34:53.000Z</time>
      </trkpt>
      <trkpt lat="46.07793" lon="6.72862">
        <ele>756</ele>
        <time>2016-07-04T16:34:54.000Z</time>
      </trkpt>
      <trkpt lat="46.07788" lon="6.72853">
        <ele>760</ele>
        <time>2016-07-04T16:34:59.000Z</time>
      </trkpt>
      <trkpt lat="46.07786" lon="6.7285">
        <ele>760</ele>
        <time>2016-07-04T16:35:00.000Z</time>
      </trkpt>
      <trkpt lat="46.07784" lon="6.72846">
        <ele>762</ele>
        <time>2016-07-04T16:35:02.000Z</time>
      </trkpt>
      <trkpt lat="46.07782" lon="6.72838">
        <ele>765</ele>
        <time>2016-07-04T16:35:03.000Z</time>
      </trkpt>
      <trkpt lat="46.07775" lon="6.7283">
        <ele>762</ele>
        <time>2016-07-04T16:35:11.000Z</time>
      </trkpt>
      <trkpt lat="46.07774" lon="6.72829">
        <ele>764</ele>
        <time>2016-07-04T16:35:12.000Z</time>
      </trkpt>
      <trkpt lat="46.0777" lon="6.72819">
        <ele>767</ele>
        <time>2016-07-04T16:35:16.000Z</time>
      </trkpt>
      <trkpt lat="46.07768" lon="6.72817">
        <ele>768</ele>
        <time>2016-07-04T16:35:17.000Z</time>
      </trkpt>
      <trkpt lat="46.07764" lon="6.72807">
        <ele>769</ele>
        <time>2016-07-04T16:35:24.000Z</time>
      </trkpt>
      <trkpt lat="46.07763" lon="6.72805">
        <ele>769</ele>
        <time>2016-07-04T16:35:25.000Z</time>
      </trkpt>
      <trkpt lat="46.07756" lon="6.72804">
        <ele>759</ele>
        <time>2016-07-04T16:35:36.000Z</time>
      </trkpt>
      <trkpt lat="46.07754" lon="6.72804">
        <ele>759</ele>
        <time>2016-07-04T16:35:37.000Z</time>
      </trkpt>
      <trkpt lat="46.07748" lon="6.72799">
        <ele>759</ele>
        <time>2016-07-04T16:35:42.000Z</time>
      </trkpt>
      <trkpt lat="46.07745" lon="6.72799">
        <ele>759</ele>
        <time>2016-07-04T16:35:43.000Z</time>
      </trkpt>
      <trkpt lat="46.07737" lon="6.72794">
        <ele>758</ele>
        <time>2016-07-04T16:35:48.000Z</time>
      </trkpt>
      <trkpt lat="46.07736" lon="6.72794">
        <ele>757</ele>
        <time>2016-07-04T16:35:49.000Z</time>
      </trkpt>
      <trkpt lat="46.07729" lon="6.72786">
        <ele>760</ele>
        <time>2016-07-04T16:35:55.000Z</time>
      </trkpt>
      <trkpt lat="46.07726" lon="6.72779">
        <ele>764</ele>
        <time>2016-07-04T16:35:56.000Z</time>
      </trkpt>
      <trkpt lat="46.07721" lon="6.72772">
        <ele>765</ele>
        <time>2016-07-04T16:36:03.000Z</time>
      </trkpt>
      <trkpt lat="46.07719" lon="6.72768">
        <ele>766</ele>
        <time>2016-07-04T16:36:04.000Z</time>
      </trkpt>
      <trkpt lat="46.07712" lon="6.72761">
        <ele>764</ele>
        <time>2016-07-04T16:36:13.000Z</time>
      </trkpt>
      <trkpt lat="46.07712" lon="6.72759">
        <ele>766</ele>
        <time>2016-07-04T16:36:14.000Z</time>
      </trkpt>
      <trkpt lat="46.07708" lon="6.72751">
        <ele>768</ele>
        <time>2016-07-04T16:36:18.000Z</time>
      </trkpt>
      <trkpt lat="46.07706" lon="6.72748">
        <ele>768</ele>
        <time>2016-07-04T16:36:19.000Z</time>
      </trkpt>
      <trkpt lat="46.07698" lon="6.7275">
        <ele>770</ele>
        <time>2016-07-04T16:36:28.000Z</time>
      </trkpt>
      <trkpt lat="46.07696" lon="6.72747">
        <ele>769</ele>
        <time>2016-07-04T16:36:29.000Z</time>
      </trkpt>
      <trkpt lat="46.07689" lon="6.72739">
        <ele>769</ele>
        <time>2016-07-04T16:36:36.000Z</time>
      </trkpt>
      <trkpt lat="46.07687" lon="6.72736">
        <ele>771</ele>
        <time>2016-07-04T16:36:37.000Z</time>
      </trkpt>
      <trkpt lat="46.0768" lon="6.72731">
        <ele>764</ele>
        <time>2016-07-04T16:36:45.000Z</time>
      </trkpt>
      <trkpt lat="46.07679" lon="6.72727">
        <ele>765</ele>
        <time>2016-07-04T16:36:46.000Z</time>
      </trkpt>
      <trkpt lat="46.07671" lon="6.72723">
        <ele>767</ele>
        <time>2016-07-04T16:36:54.000Z</time>
      </trkpt>
      <trkpt lat="46.07668" lon="6.7272">
        <ele>766</ele>
        <time>2016-07-04T16:36:55.000Z</time>
      </trkpt>
      <trkpt lat="46.07661" lon="6.72722">
        <ele>765</ele>
        <time>2016-07-04T16:36:59.000Z</time>
      </trkpt>
      <trkpt lat="46.07659" lon="6.72718">
        <ele>763</ele>
        <time>2016-07-04T16:37:00.000Z</time>
      </trkpt>
      <trkpt lat="46.07652" lon="6.72713">
        <ele>756</ele>
        <time>2016-07-04T16:37:09.000Z</time>
      </trkpt>
      <trkpt lat="46.0765" lon="6.72713">
        <ele>758</ele>
        <time>2016-07-04T16:37:10.000Z</time>
      </trkpt>
      <trkpt lat="46.07642" lon="6.72714">
        <ele>753</ele>
        <time>2016-07-04T16:37:20.000Z</time>
      </trkpt>
      <trkpt lat="46.0764" lon="6.72713">
        <ele>754</ele>
        <time>2016-07-04T16:37:21.000Z</time>
      </trkpt>
      <trkpt lat="46.07636" lon="6.72703">
        <ele>751</ele>
        <time>2016-07-04T16:37:35.000Z</time>
      </trkpt>
      <trkpt lat="46.07637" lon="6.72701">
        <ele>753</ele>
        <time>2016-07-04T16:37:36.000Z</time>
      </trkpt>
      <trkpt lat="46.07635" lon="6.72711">
        <ele>755</ele>
        <time>2016-07-04T16:38:28.000Z</time>
      </trkpt>
      <trkpt lat="46.07634" lon="6.72714">
        <ele>755</ele>
        <time>2016-07-04T16:38:29.000Z</time>
      </trkpt>
      <trkpt lat="46.07632" lon="6.72726">
        <ele>757</ele>
        <time>2016-07-04T16:38:40.000Z</time>
      </trkpt>
      <trkpt lat="46.0763" lon="6.72729">
        <ele>759</ele>
        <time>2016-07-04T16:38:41.000Z</time>
      </trkpt>
      <trkpt lat="46.0763" lon="6.72741">
        <ele>762</ele>
        <time>2016-07-04T16:38:49.000Z</time>
      </trkpt>
      <trkpt lat="46.07629" lon="6.72744">
        <ele>761</ele>
        <time>2016-07-04T16:38:50.000Z</time>
      </trkpt>
      <trkpt lat="46.0763" lon="6.72756">
        <ele>754</ele>
        <time>2016-07-04T16:39:01.000Z</time>
      </trkpt>
      <trkpt lat="46.07629" lon="6.72758">
        <ele>754</ele>
        <time>2016-07-04T16:39:02.000Z</time>
      </trkpt>
      <trkpt lat="46.07627" lon="6.7277">
        <ele>749</ele>
        <time>2016-07-04T16:39:09.000Z</time>
      </trkpt>
      <trkpt lat="46.07627" lon="6.72771">
        <ele>749</ele>
        <time>2016-07-04T16:39:10.000Z</time>
      </trkpt>
      <trkpt lat="46.07626" lon="6.72782">
        <ele>746</ele>
        <time>2016-07-04T16:39:15.000Z</time>
      </trkpt>
      <trkpt lat="46.07626" lon="6.72784">
        <ele>746</ele>
        <time>2016-07-04T16:39:16.000Z</time>
      </trkpt>
      <trkpt lat="46.07624" lon="6.72796">
        <ele>745</ele>
        <time>2016-07-04T16:39:24.000Z</time>
      </trkpt>
      <trkpt lat="46.07624" lon="6.72798">
        <ele>746</ele>
        <time>2016-07-04T16:39:25.000Z</time>
      </trkpt>
      <trkpt lat="46.07625" lon="6.7281">
        <ele>749</ele>
        <time>2016-07-04T16:39:35.000Z</time>
      </trkpt>
      <trkpt lat="46.07626" lon="6.72812">
        <ele>750</ele>
        <time>2016-07-04T16:39:36.000Z</time>
      </trkpt>
      <trkpt lat="46.07627" lon="6.72824">
        <ele>751</ele>
        <time>2016-07-04T16:39:40.000Z</time>
      </trkpt>
      <trkpt lat="46.07628" lon="6.72826">
        <ele>753</ele>
        <time>2016-07-04T16:39:41.000Z</time>
      </trkpt>
      <trkpt lat="46.07632" lon="6.72835">
        <ele>756</ele>
        <time>2016-07-04T16:39:47.000Z</time>
      </trkpt>
      <trkpt lat="46.07633" lon="6.72837">
        <ele>757</ele>
        <time>2016-07-04T16:39:48.000Z</time>
      </trkpt>
      <trkpt lat="46.07631" lon="6.72848">
        <ele>757</ele>
        <time>2016-07-04T16:39:56.000Z</time>
      </trkpt>
      <trkpt lat="46.0763" lon="6.7285">
        <ele>759</ele>
        <time>2016-07-04T16:39:57.000Z</time>
      </trkpt>
      <trkpt lat="46.07627" lon="6.72862">
        <ele>760</ele>
        <time>2016-07-04T16:40:04.000Z</time>
      </trkpt>
      <trkpt lat="46.07627" lon="6.72864">
        <ele>759</ele>
        <time>2016-07-04T16:40:05.000Z</time>
      </trkpt>
      <trkpt lat="46.07627" lon="6.72875">
        <ele>762</ele>
        <time>2016-07-04T16:40:12.000Z</time>
      </trkpt>
      <trkpt lat="46.07627" lon="6.72878">
        <ele>761</ele>
        <time>2016-07-04T16:40:13.000Z</time>
      </trkpt>
      <trkpt lat="46.07625" lon="6.7289">
        <ele>765</ele>
        <time>2016-07-04T16:40:25.000Z</time>
      </trkpt>
      <trkpt lat="46.07625" lon="6.72891">
        <ele>765</ele>
        <time>2016-07-04T16:40:26.000Z</time>
      </trkpt>
      <trkpt lat="46.07622" lon="6.72901">
        <ele>764</ele>
        <time>2016-07-04T16:40:31.000Z</time>
      </trkpt>
      <trkpt lat="46.07622" lon="6.72903">
        <ele>764</ele>
        <time>2016-07-04T16:40:32.000Z</time>
      </trkpt>
      <trkpt lat="46.07619" lon="6.72915">
        <ele>763</ele>
        <time>2016-07-04T16:40:37.000Z</time>
      </trkpt>
      <trkpt lat="46.07618" lon="6.72916">
        <ele>765</ele>
        <time>2016-07-04T16:40:38.000Z</time>
      </trkpt>
      <trkpt lat="46.07616" lon="6.72928">
        <ele>766</ele>
        <time>2016-07-04T16:40:49.000Z</time>
      </trkpt>
      <trkpt lat="46.07615" lon="6.7293">
        <ele>766</ele>
        <time>2016-07-04T16:40:50.000Z</time>
      </trkpt>
      <trkpt lat="46.07611" lon="6.72942">
        <ele>769</ele>
        <time>2016-07-04T16:40:55.000Z</time>
      </trkpt>
      <trkpt lat="46.0761" lon="6.72944">
        <ele>769</ele>
        <time>2016-07-04T16:40:56.000Z</time>
      </trkpt>
      <trkpt lat="46.07607" lon="6.72956">
        <ele>769</ele>
        <time>2016-07-04T16:41:03.000Z</time>
      </trkpt>
      <trkpt lat="46.07606" lon="6.72958">
        <ele>769</ele>
        <time>2016-07-04T16:41:04.000Z</time>
      </trkpt>
      <trkpt lat="46.07602" lon="6.72968">
        <ele>772</ele>
        <time>2016-07-04T16:41:09.000Z</time>
      </trkpt>
      <trkpt lat="46.07601" lon="6.7297">
        <ele>773</ele>
        <time>2016-07-04T16:41:10.000Z</time>
      </trkpt>
      <trkpt lat="46.07598" lon="6.72981">
        <ele>769</ele>
        <time>2016-07-04T16:41:20.000Z</time>
      </trkpt>
      <trkpt lat="46.07597" lon="6.72982">
        <ele>768</ele>
        <time>2016-07-04T16:41:21.000Z</time>
      </trkpt>
      <trkpt lat="46.07593" lon="6.72993">
        <ele>764</ele>
        <time>2016-07-04T16:41:29.000Z</time>
      </trkpt>
      <trkpt lat="46.07593" lon="6.72995">
        <ele>765</ele>
        <time>2016-07-04T16:41:30.000Z</time>
      </trkpt>
      <trkpt lat="46.07586" lon="6.73002">
        <ele>764</ele>
        <time>2016-07-04T16:41:42.000Z</time>
      </trkpt>
      <trkpt lat="46.07584" lon="6.73003">
        <ele>765</ele>
        <time>2016-07-04T16:41:43.000Z</time>
      </trkpt>
      <trkpt lat="46.07578" lon="6.73011">
        <ele>762</ele>
        <time>2016-07-04T16:41:51.000Z</time>
      </trkpt>
      <trkpt lat="46.07577" lon="6.73012">
        <ele>762</ele>
        <time>2016-07-04T16:41:52.000Z</time>
      </trkpt>
      <trkpt lat="46.0757" lon="6.7302">
        <ele>765</ele>
        <time>2016-07-04T16:41:59.000Z</time>
      </trkpt>
      <trkpt lat="46.0757" lon="6.73021">
        <ele>764</ele>
        <time>2016-07-04T16:42:00.000Z</time>
      </trkpt>
      <trkpt lat="46.07564" lon="6.7303">
        <ele>764</ele>
        <time>2016-07-04T16:42:12.000Z</time>
      </trkpt>
      <trkpt lat="46.07563" lon="6.73031">
        <ele>764</ele>
        <time>2016-07-04T16:42:13.000Z</time>
      </trkpt>
      <trkpt lat="46.07556" lon="6.73036">
        <ele>763</ele>
        <time>2016-07-04T16:42:19.000Z</time>
      </trkpt>
      <trkpt lat="46.07555" lon="6.73036">
        <ele>764</ele>
        <time>2016-07-04T16:42:20.000Z</time>
      </trkpt>
      <trkpt lat="46.07549" lon="6.73044">
        <ele>764</ele>
        <time>2016-07-04T16:42:28.000Z</time>
      </trkpt>
      <trkpt lat="46.07548" lon="6.73046">
        <ele>764</ele>
        <time>2016-07-04T16:42:29.000Z</time>
      </trkpt>
      <trkpt lat="46.07541" lon="6.73052">
        <ele>760</ele>
        <time>2016-07-04T16:42:35.000Z</time>
      </trkpt>
      <trkpt lat="46.07541" lon="6.73054">
        <ele>762</ele>
        <time>2016-07-04T16:42:36.000Z</time>
      </trkpt>
      <trkpt lat="46.07533" lon="6.73058">
        <ele>763</ele>
        <time>2016-07-04T16:42:45.000Z</time>
      </trkpt>
      <trkpt lat="46.07531" lon="6.73061">
        <ele>762</ele>
        <time>2016-07-04T16:42:46.000Z</time>
      </trkpt>
      <trkpt lat="46.07526" lon="6.73069">
        <ele>764</ele>
        <time>2016-07-04T16:42:49.000Z</time>
      </trkpt>
      <trkpt lat="46.07525" lon="6.73071">
        <ele>765</ele>
        <time>2016-07-04T16:42:50.000Z</time>
      </trkpt>
      <trkpt lat="46.07516" lon="6.73072">
        <ele>758</ele>
        <time>2016-07-04T16:43:02.000Z</time>
      </trkpt>
      <trkpt lat="46.07514" lon="6.73072">
        <ele>758</ele>
        <time>2016-07-04T16:43:03.000Z</time>
      </trkpt>
      <trkpt lat="46.07507" lon="6.73077">
        <ele>760</ele>
        <time>2016-07-04T16:43:11.000Z</time>
      </trkpt>
      <trkpt lat="46.07506" lon="6.73077">
        <ele>761</ele>
        <time>2016-07-04T16:43:12.000Z</time>
      </trkpt>
      <trkpt lat="46.07498" lon="6.73082">
        <ele>767</ele>
        <time>2016-07-04T16:43:22.000Z</time>
      </trkpt>
      <trkpt lat="46.07497" lon="6.73083">
        <ele>767</ele>
        <time>2016-07-04T16:43:23.000Z</time>
      </trkpt>
      <trkpt lat="46.07489" lon="6.73086">
        <ele>766</ele>
        <time>2016-07-04T16:43:29.000Z</time>
      </trkpt>
      <trkpt lat="46.07488" lon="6.73088">
        <ele>766</ele>
        <time>2016-07-04T16:43:30.000Z</time>
      </trkpt>
      <trkpt lat="46.07479" lon="6.73091">
        <ele>766</ele>
        <time>2016-07-04T16:43:39.000Z</time>
      </trkpt>
      <trkpt lat="46.07478" lon="6.73091">
        <ele>767</ele>
        <time>2016-07-04T16:43:40.000Z</time>
      </trkpt>
      <trkpt lat="46.0747" lon="6.73094">
        <ele>768</ele>
        <time>2016-07-04T16:43:50.000Z</time>
      </trkpt>
      <trkpt lat="46.07468" lon="6.73095">
        <ele>769</ele>
        <time>2016-07-04T16:43:51.000Z</time>
      </trkpt>
      <trkpt lat="46.07461" lon="6.731">
        <ele>768</ele>
        <time>2016-07-04T16:43:57.000Z</time>
      </trkpt>
      <trkpt lat="46.07459" lon="6.73101">
        <ele>768</ele>
        <time>2016-07-04T16:43:58.000Z</time>
      </trkpt>
      <trkpt lat="46.07451" lon="6.73107">
        <ele>765</ele>
        <time>2016-07-04T16:44:05.000Z</time>
      </trkpt>
      <trkpt lat="46.0745" lon="6.73107">
        <ele>765</ele>
        <time>2016-07-04T16:44:06.000Z</time>
      </trkpt>
      <trkpt lat="46.07443" lon="6.73112">
        <ele>762</ele>
        <time>2016-07-04T16:44:14.000Z</time>
      </trkpt>
      <trkpt lat="46.07441" lon="6.73112">
        <ele>762</ele>
        <time>2016-07-04T16:44:15.000Z</time>
      </trkpt>
      <trkpt lat="46.07432" lon="6.73114">
        <ele>763</ele>
        <time>2016-07-04T16:44:22.000Z</time>
      </trkpt>
      <trkpt lat="46.07432" lon="6.73114">
        <ele>764</ele>
        <time>2016-07-04T16:44:23.000Z</time>
      </trkpt>
      <trkpt lat="46.07424" lon="6.73117">
        <ele>763</ele>
        <time>2016-07-04T16:44:30.000Z</time>
      </trkpt>
      <trkpt lat="46.07423" lon="6.73118">
        <ele>765</ele>
        <time>2016-07-04T16:44:31.000Z</time>
      </trkpt>
      <trkpt lat="46.07416" lon="6.73121">
        <ele>764</ele>
        <time>2016-07-04T16:44:37.000Z</time>
      </trkpt>
      <trkpt lat="46.07414" lon="6.73121">
        <ele>766</ele>
        <time>2016-07-04T16:44:38.000Z</time>
      </trkpt>
      <trkpt lat="46.07407" lon="6.73125">
        <ele>768</ele>
        <time>2016-07-04T16:44:44.000Z</time>
      </trkpt>
      <trkpt lat="46.07405" lon="6.73126">
        <ele>768</ele>
        <time>2016-07-04T16:44:45.000Z</time>
      </trkpt>
      <trkpt lat="46.07397" lon="6.7313">
        <ele>768</ele>
        <time>2016-07-04T16:44:54.000Z</time>
      </trkpt>
      <trkpt lat="46.07396" lon="6.73131">
        <ele>767</ele>
        <time>2016-07-04T16:44:55.000Z</time>
      </trkpt>
      <trkpt lat="46.07388" lon="6.73134">
        <ele>769</ele>
        <time>2016-07-04T16:45:05.000Z</time>
      </trkpt>
      <trkpt lat="46.07386" lon="6.73134">
        <ele>770</ele>
        <time>2016-07-04T16:45:06.000Z</time>
      </trkpt>
      <trkpt lat="46.0738" lon="6.7314">
        <ele>765</ele>
        <time>2016-07-04T16:45:13.000Z</time>
      </trkpt>
      <trkpt lat="46.07378" lon="6.73141">
        <ele>763</ele>
        <time>2016-07-04T16:45:14.000Z</time>
      </trkpt>
      <trkpt lat="46.0737" lon="6.73147">
        <ele>760</ele>
        <time>2016-07-04T16:45:24.000Z</time>
      </trkpt>
      <trkpt lat="46.07369" lon="6.73147">
        <ele>758</ele>
        <time>2016-07-04T16:45:25.000Z</time>
      </trkpt>
      <trkpt lat="46.0736" lon="6.73149">
        <ele>757</ele>
        <time>2016-07-04T16:45:30.000Z</time>
      </trkpt>
      <trkpt lat="46.07359" lon="6.7315">
        <ele>757</ele>
        <time>2016-07-04T16:45:31.000Z</time>
      </trkpt>
      <trkpt lat="46.07352" lon="6.73155">
        <ele>756</ele>
        <time>2016-07-04T16:45:41.000Z</time>
      </trkpt>
      <trkpt lat="46.0735" lon="6.73155">
        <ele>757</ele>
        <time>2016-07-04T16:45:42.000Z</time>
      </trkpt>
      <trkpt lat="46.07348" lon="6.73154">
        <ele>758</ele>
        <time>2016-07-04T16:45:45.000Z</time>
      </trkpt>
      <trkpt lat="46.07347" lon="6.73154">
        <ele>758</ele>
        <time>2016-07-04T16:45:46.000Z</time>
      </trkpt>
      <trkpt lat="46.07345" lon="6.73153">
        <ele>758</ele>
        <time>2016-07-04T16:45:47.000Z</time>
      </trkpt>
      <trkpt lat="46.07341" lon="6.73155">
        <ele>760</ele>
        <time>2016-07-04T16:45:53.000Z</time>
      </trkpt>
      <trkpt lat="46.0734" lon="6.73154">
        <ele>760</ele>
        <time>2016-07-04T16:45:54.000Z</time>
      </trkpt>
      <trkpt lat="46.07339" lon="6.73155">
        <ele>759</ele>
        <time>2016-07-04T16:45:55.000Z</time>
      </trkpt>
      <trkpt lat="46.07334" lon="6.73165">
        <ele>750</ele>
        <time>2016-07-04T16:46:04.000Z</time>
      </trkpt>
      <trkpt lat="46.07334" lon="6.73166">
        <ele>749</ele>
        <time>2016-07-04T16:46:05.000Z</time>
      </trkpt>
      <trkpt lat="46.07326" lon="6.73168">
        <ele>745</ele>
        <time>2016-07-04T16:46:12.000Z</time>
      </trkpt>
      <trkpt lat="46.07324" lon="6.73168">
        <ele>744</ele>
        <time>2016-07-04T16:46:13.000Z</time>
      </trkpt>
      <trkpt lat="46.07318" lon="6.73174">
        <ele>745</ele>
        <time>2016-07-04T16:46:22.000Z</time>
      </trkpt>
      <trkpt lat="46.07316" lon="6.73175">
        <ele>746</ele>
        <time>2016-07-04T16:46:23.000Z</time>
      </trkpt>
      <trkpt lat="46.07307" lon="6.73175">
        <ele>742</ele>
        <time>2016-07-04T16:46:29.000Z</time>
      </trkpt>
      <trkpt lat="46.07307" lon="6.73176">
        <ele>744</ele>
        <time>2016-07-04T16:46:30.000Z</time>
      </trkpt>
      <trkpt lat="46.07298" lon="6.73177">
        <ele>742</ele>
        <time>2016-07-04T16:46:34.000Z</time>
      </trkpt>
      <trkpt lat="46.07295" lon="6.73177">
        <ele>742</ele>
        <time>2016-07-04T16:46:35.000Z</time>
      </trkpt>
      <trkpt lat="46.07289" lon="6.73185">
        <ele>743</ele>
        <time>2016-07-04T16:46:40.000Z</time>
      </trkpt>
      <trkpt lat="46.07287" lon="6.73185">
        <ele>743</ele>
        <time>2016-07-04T16:46:41.000Z</time>
      </trkpt>
      <trkpt lat="46.0728" lon="6.73189">
        <ele>739</ele>
        <time>2016-07-04T16:46:45.000Z</time>
      </trkpt>
      <trkpt lat="46.07278" lon="6.73189">
        <ele>740</ele>
        <time>2016-07-04T16:46:46.000Z</time>
      </trkpt>
      <trkpt lat="46.07276" lon="6.73196">
        <ele>734</ele>
        <time>2016-07-04T16:46:51.000Z</time>
      </trkpt>
      <trkpt lat="46.07272" lon="6.73199">
        <ele>734</ele>
        <time>2016-07-04T16:46:52.000Z</time>
      </trkpt>
      <trkpt lat="46.07267" lon="6.73206">
        <ele>739</ele>
        <time>2016-07-04T16:47:04.000Z</time>
      </trkpt>
      <trkpt lat="46.07265" lon="6.73209">
        <ele>737</ele>
        <time>2016-07-04T16:47:05.000Z</time>
      </trkpt>
      <trkpt lat="46.07258" lon="6.73212">
        <ele>735</ele>
        <time>2016-07-04T16:47:08.000Z</time>
      </trkpt>
      <trkpt lat="46.07256" lon="6.73211">
        <ele>736</ele>
        <time>2016-07-04T16:47:09.000Z</time>
      </trkpt>
      <trkpt lat="46.07247" lon="6.73208">
        <ele>741</ele>
        <time>2016-07-04T16:47:17.000Z</time>
      </trkpt>
      <trkpt lat="46.07243" lon="6.73209">
        <ele>740</ele>
        <time>2016-07-04T16:47:18.000Z</time>
      </trkpt>
      <trkpt lat="46.07237" lon="6.7321">
        <ele>739</ele>
        <time>2016-07-04T16:47:22.000Z</time>
      </trkpt>
      <trkpt lat="46.07234" lon="6.73212">
        <ele>738</ele>
        <time>2016-07-04T16:47:23.000Z</time>
      </trkpt>
      <trkpt lat="46.07228" lon="6.73216">
        <ele>744</ele>
        <time>2016-07-04T16:47:33.000Z</time>
      </trkpt>
      <trkpt lat="46.07228" lon="6.73216">
        <ele>744</ele>
        <time>2016-07-04T16:47:34.000Z</time>
      </trkpt>
      <trkpt lat="46.07228" lon="6.73215">
        <ele>745</ele>
        <time>2016-07-04T16:47:35.000Z</time>
      </trkpt>
      <trkpt lat="46.07221" lon="6.7322">
        <ele>744</ele>
        <time>2016-07-04T16:47:42.000Z</time>
      </trkpt>
      <trkpt lat="46.0722" lon="6.73222">
        <ele>744</ele>
        <time>2016-07-04T16:47:43.000Z</time>
      </trkpt>
      <trkpt lat="46.07212" lon="6.73227">
        <ele>741</ele>
        <time>2016-07-04T16:47:50.000Z</time>
      </trkpt>
      <trkpt lat="46.0721" lon="6.73227">
        <ele>742</ele>
        <time>2016-07-04T16:47:51.000Z</time>
      </trkpt>
      <trkpt lat="46.07207" lon="6.73226">
        <ele>741</ele>
        <time>2016-07-04T16:47:56.000Z</time>
      </trkpt>
      <trkpt lat="46.07207" lon="6.73225">
        <ele>741</ele>
        <time>2016-07-04T16:47:57.000Z</time>
      </trkpt>
      <trkpt lat="46.07206" lon="6.73225">
        <ele>741</ele>
        <time>2016-07-04T16:47:58.000Z</time>
      </trkpt>
      <trkpt lat="46.07199" lon="6.73227">
        <ele>746</ele>
        <time>2016-07-04T16:48:05.000Z</time>
      </trkpt>
      <trkpt lat="46.07199" lon="6.73228">
        <ele>745</ele>
        <time>2016-07-04T16:48:06.000Z</time>
      </trkpt>
      <trkpt lat="46.07199" lon="6.73228">
        <ele>744</ele>
        <time>2016-07-04T16:48:07.000Z</time>
      </trkpt>
      <trkpt lat="46.07197" lon="6.73226">
        <ele>741</ele>
        <time>2016-07-04T16:48:15.000Z</time>
      </trkpt>
      <trkpt lat="46.07195" lon="6.73226">
        <ele>740</ele>
        <time>2016-07-04T16:48:16.000Z</time>
      </trkpt>
      <trkpt lat="46.07194" lon="6.73225">
        <ele>742</ele>
        <time>2016-07-04T16:48:17.000Z</time>
      </trkpt>
      <trkpt lat="46.07187" lon="6.73229">
        <ele>741</ele>
        <time>2016-07-04T16:48:29.000Z</time>
      </trkpt>
      <trkpt lat="46.07185" lon="6.73229">
        <ele>739</ele>
        <time>2016-07-04T16:48:30.000Z</time>
      </trkpt>
      <trkpt lat="46.07176" lon="6.73228">
        <ele>745</ele>
        <time>2016-07-04T16:48:38.000Z</time>
      </trkpt>
      <trkpt lat="46.07175" lon="6.73226">
        <ele>746</ele>
        <time>2016-07-04T16:48:39.000Z</time>
      </trkpt>
      <trkpt lat="46.07168" lon="6.7322">
        <ele>751</ele>
        <time>2016-07-04T16:48:48.000Z</time>
      </trkpt>
      <trkpt lat="46.07163" lon="6.73218">
        <ele>750</ele>
        <time>2016-07-04T16:48:49.000Z</time>
      </trkpt>
      <trkpt lat="46.07155" lon="6.73213">
        <ele>752</ele>
        <time>2016-07-04T16:48:54.000Z</time>
      </trkpt>
      <trkpt lat="46.07154" lon="6.73212">
        <ele>752</ele>
        <time>2016-07-04T16:48:55.000Z</time>
      </trkpt>
      <trkpt lat="46.07147" lon="6.73204">
        <ele>753</ele>
        <time>2016-07-04T16:49:02.000Z</time>
      </trkpt>
      <trkpt lat="46.07147" lon="6.732">
        <ele>751</ele>
        <time>2016-07-04T16:49:03.000Z</time>
      </trkpt>
      <trkpt lat="46.07148" lon="6.73199">
        <ele>752</ele>
        <time>2016-07-04T16:49:04.000Z</time>
      </trkpt>
      <trkpt lat="46.07146" lon="6.73197">
        <ele>752</ele>
        <time>2016-07-04T16:49:05.000Z</time>
      </trkpt>
      <trkpt lat="46.07138" lon="6.732">
        <ele>747</ele>
        <time>2016-07-04T16:49:13.000Z</time>
      </trkpt>
      <trkpt lat="46.07135" lon="6.73202">
        <ele>748</ele>
        <time>2016-07-04T16:49:14.000Z</time>
      </trkpt>
      <trkpt lat="46.0713" lon="6.73195">
        <ele>749</ele>
        <time>2016-07-04T16:49:17.000Z</time>
      </trkpt>
      <trkpt lat="46.07129" lon="6.7319">
        <ele>750</ele>
        <time>2016-07-04T16:49:18.000Z</time>
      </trkpt>
      <trkpt lat="46.07125" lon="6.732">
        <ele>755</ele>
        <time>2016-07-04T16:49:23.000Z</time>
      </trkpt>
      <trkpt lat="46.07124" lon="6.73202">
        <ele>756</ele>
        <time>2016-07-04T16:49:24.000Z</time>
      </trkpt>
      <trkpt lat="46.07122" lon="6.73209">
        <ele>746</ele>
        <time>2016-07-04T16:49:30.000Z</time>
      </trkpt>
      <trkpt lat="46.0712" lon="6.73214">
        <ele>746</ele>
        <time>2016-07-04T16:49:31.000Z</time>
      </trkpt>
      <trkpt lat="46.07115" lon="6.73223">
        <ele>745</ele>
        <time>2016-07-04T16:49:33.000Z</time>
      </trkpt>
      <trkpt lat="46.07114" lon="6.73225">
        <ele>746</ele>
        <time>2016-07-04T16:49:34.000Z</time>
      </trkpt>
      <trkpt lat="46.07115" lon="6.73227">
        <ele>745</ele>
        <time>2016-07-04T16:49:39.000Z</time>
      </trkpt>
      <trkpt lat="46.07116" lon="6.73222">
        <ele>745</ele>
        <time>2016-07-04T16:49:40.000Z</time>
      </trkpt>
      <trkpt lat="46.07113" lon="6.73223">
        <ele>745</ele>
        <time>2016-07-04T16:49:41.000Z</time>
      </trkpt>
      <trkpt lat="46.07108" lon="6.73226">
        <ele>746</ele>
        <time>2016-07-04T16:49:44.000Z</time>
      </trkpt>
      <trkpt lat="46.07105" lon="6.73233">
        <ele>746</ele>
        <time>2016-07-04T16:49:45.000Z</time>
      </trkpt>
      <trkpt lat="46.07101" lon="6.73224">
        <ele>743</ele>
        <time>2016-07-04T16:49:53.000Z</time>
      </trkpt>
      <trkpt lat="46.07101" lon="6.7322">
        <ele>742</ele>
        <time>2016-07-04T16:49:54.000Z</time>
      </trkpt>
      <trkpt lat="46.07097" lon="6.73229">
        <ele>743</ele>
        <time>2016-07-04T16:49:56.000Z</time>
      </trkpt>
      <trkpt lat="46.07095" lon="6.73236">
        <ele>742</ele>
        <time>2016-07-04T16:49:57.000Z</time>
      </trkpt>
      <trkpt lat="46.07089" lon="6.73245">
        <ele>741</ele>
        <time>2016-07-04T16:50:10.000Z</time>
      </trkpt>
      <trkpt lat="46.07088" lon="6.73245">
        <ele>741</ele>
        <time>2016-07-04T16:50:11.000Z</time>
      </trkpt>
      <trkpt lat="46.07082" lon="6.73252">
        <ele>740</ele>
        <time>2016-07-04T16:50:21.000Z</time>
      </trkpt>
      <trkpt lat="46.07079" lon="6.73253">
        <ele>740</ele>
        <time>2016-07-04T16:50:22.000Z</time>
      </trkpt>
      <trkpt lat="46.07072" lon="6.73258">
        <ele>740</ele>
        <time>2016-07-04T16:50:28.000Z</time>
      </trkpt>
      <trkpt lat="46.07071" lon="6.73259">
        <ele>741</ele>
        <time>2016-07-04T16:50:29.000Z</time>
      </trkpt>
      <trkpt lat="46.07067" lon="6.73269">
        <ele>743</ele>
        <time>2016-07-04T16:50:33.000Z</time>
      </trkpt>
      <trkpt lat="46.07066" lon="6.73271">
        <ele>744</ele>
        <time>2016-07-04T16:50:34.000Z</time>
      </trkpt>
      <trkpt lat="46.07057" lon="6.73272">
        <ele>751</ele>
        <time>2016-07-04T16:50:39.000Z</time>
      </trkpt>
      <trkpt lat="46.07056" lon="6.73274">
        <ele>751</ele>
        <time>2016-07-04T16:50:40.000Z</time>
      </trkpt>
      <trkpt lat="46.07051" lon="6.73283">
        <ele>758</ele>
        <time>2016-07-04T16:50:46.000Z</time>
      </trkpt>
      <trkpt lat="46.0705" lon="6.73285">
        <ele>758</ele>
        <time>2016-07-04T16:50:47.000Z</time>
      </trkpt>
      <trkpt lat="46.07042" lon="6.73288">
        <ele>757</ele>
        <time>2016-07-04T16:50:56.000Z</time>
      </trkpt>
      <trkpt lat="46.07042" lon="6.73294">
        <ele>757</ele>
        <time>2016-07-04T16:50:57.000Z</time>
      </trkpt>
      <trkpt lat="46.07036" lon="6.73292">
        <ele>762</ele>
        <time>2016-07-04T16:51:04.000Z</time>
      </trkpt>
      <trkpt lat="46.0703" lon="6.73289">
        <ele>761</ele>
        <time>2016-07-04T16:51:05.000Z</time>
      </trkpt>
      <trkpt lat="46.07028" lon="6.73299">
        <ele>763</ele>
        <time>2016-07-04T16:51:10.000Z</time>
      </trkpt>
      <trkpt lat="46.07027" lon="6.73304">
        <ele>764</ele>
        <time>2016-07-04T16:51:11.000Z</time>
      </trkpt>
      <trkpt lat="46.07023" lon="6.73314">
        <ele>767</ele>
        <time>2016-07-04T16:51:17.000Z</time>
      </trkpt>
      <trkpt lat="46.07023" lon="6.73315">
        <ele>767</ele>
        <time>2016-07-04T16:51:18.000Z</time>
      </trkpt>
      <trkpt lat="46.07022" lon="6.73323">
        <ele>765</ele>
        <time>2016-07-04T16:51:22.000Z</time>
      </trkpt>
      <trkpt lat="46.07024" lon="6.73332">
        <ele>758</ele>
        <time>2016-07-04T16:51:23.000Z</time>
      </trkpt>
      <trkpt lat="46.07017" lon="6.73338">
        <ele>762</ele>
        <time>2016-07-04T16:51:32.000Z</time>
      </trkpt>
      <trkpt lat="46.07016" lon="6.7334">
        <ele>761</ele>
        <time>2016-07-04T16:51:33.000Z</time>
      </trkpt>
      <trkpt lat="46.0701" lon="6.73346">
        <ele>754</ele>
        <time>2016-07-04T16:51:45.000Z</time>
      </trkpt>
      <trkpt lat="46.07009" lon="6.73348">
        <ele>754</ele>
        <time>2016-07-04T16:51:46.000Z</time>
      </trkpt>
      <trkpt lat="46.07001" lon="6.73352">
        <ele>761</ele>
        <time>2016-07-04T16:51:58.000Z</time>
      </trkpt>
      <trkpt lat="46.07" lon="6.73355">
        <ele>760</ele>
        <time>2016-07-04T16:51:59.000Z</time>
      </trkpt>
      <trkpt lat="46.06993" lon="6.73362">
        <ele>762</ele>
        <time>2016-07-04T16:52:05.000Z</time>
      </trkpt>
      <trkpt lat="46.06991" lon="6.73364">
        <ele>763</ele>
        <time>2016-07-04T16:52:06.000Z</time>
      </trkpt>
      <trkpt lat="46.06986" lon="6.73374">
        <ele>763</ele>
        <time>2016-07-04T16:52:12.000Z</time>
      </trkpt>
      <trkpt lat="46.06984" lon="6.73374">
        <ele>764</ele>
        <time>2016-07-04T16:52:13.000Z</time>
      </trkpt>
      <trkpt lat="46.06977" lon="6.73381">
        <ele>765</ele>
        <time>2016-07-04T16:52:20.000Z</time>
      </trkpt>
      <trkpt lat="46.06976" lon="6.73381">
        <ele>766</ele>
        <time>2016-07-04T16:52:21.000Z</time>
      </trkpt>
      <trkpt lat="46.06972" lon="6.73391">
        <ele>765</ele>
        <time>2016-07-04T16:52:28.000Z</time>
      </trkpt>
      <trkpt lat="46.06971" lon="6.73393">
        <ele>766</ele>
        <time>2016-07-04T16:52:29.000Z</time>
      </trkpt>
      <trkpt lat="46.06964" lon="6.734">
        <ele>763</ele>
        <time>2016-07-04T16:52:38.000Z</time>
      </trkpt>
      <trkpt lat="46.06963" lon="6.73401">
        <ele>763</ele>
        <time>2016-07-04T16:52:39.000Z</time>
      </trkpt>
      <trkpt lat="46.06961" lon="6.73412">
        <ele>759</ele>
        <time>2016-07-04T16:52:49.000Z</time>
      </trkpt>
      <trkpt lat="46.06961" lon="6.73414">
        <ele>760</ele>
        <time>2016-07-04T16:52:50.000Z</time>
      </trkpt>
      <trkpt lat="46.06953" lon="6.73419">
        <ele>766</ele>
        <time>2016-07-04T16:53:01.000Z</time>
      </trkpt>
      <trkpt lat="46.06952" lon="6.7342">
        <ele>766</ele>
        <time>2016-07-04T16:53:02.000Z</time>
      </trkpt>
      <trkpt lat="46.06947" lon="6.7343">
        <ele>762</ele>
        <time>2016-07-04T16:53:09.000Z</time>
      </trkpt>
      <trkpt lat="46.06945" lon="6.73433">
        <ele>761</ele>
        <time>2016-07-04T16:53:10.000Z</time>
      </trkpt>
      <trkpt lat="46.06939" lon="6.73442">
        <ele>764</ele>
        <time>2016-07-04T16:53:17.000Z</time>
      </trkpt>
      <trkpt lat="46.06941" lon="6.73444">
        <ele>763</ele>
        <time>2016-07-04T16:53:18.000Z</time>
      </trkpt>
      <trkpt lat="46.06932" lon="6.73449">
        <ele>767</ele>
        <time>2016-07-04T16:53:25.000Z</time>
      </trkpt>
      <trkpt lat="46.06932" lon="6.73449">
        <ele>770</ele>
        <time>2016-07-04T16:53:26.000Z</time>
      </trkpt>
      <trkpt lat="46.06926" lon="6.73458">
        <ele>762</ele>
        <time>2016-07-04T16:53:37.000Z</time>
      </trkpt>
      <trkpt lat="46.06923" lon="6.73458">
        <ele>762</ele>
        <time>2016-07-04T16:53:38.000Z</time>
      </trkpt>
      <trkpt lat="46.06919" lon="6.73469">
        <ele>763</ele>
        <time>2016-07-04T16:53:48.000Z</time>
      </trkpt>
      <trkpt lat="46.06918" lon="6.73469">
        <ele>763</ele>
        <time>2016-07-04T16:53:49.000Z</time>
      </trkpt>
      <trkpt lat="46.06914" lon="6.7348">
        <ele>762</ele>
        <time>2016-07-04T16:53:57.000Z</time>
      </trkpt>
      <trkpt lat="46.06914" lon="6.73482">
        <ele>761</ele>
        <time>2016-07-04T16:53:58.000Z</time>
      </trkpt>
      <trkpt lat="46.06909" lon="6.73488">
        <ele>762</ele>
        <time>2016-07-04T16:54:02.000Z</time>
      </trkpt>
      <trkpt lat="46.06909" lon="6.73493">
        <ele>762</ele>
        <time>2016-07-04T16:54:03.000Z</time>
      </trkpt>
      <trkpt lat="46.06903" lon="6.73503">
        <ele>761</ele>
        <time>2016-07-04T16:54:11.000Z</time>
      </trkpt>
      <trkpt lat="46.06902" lon="6.73504">
        <ele>761</ele>
        <time>2016-07-04T16:54:12.000Z</time>
      </trkpt>
      <trkpt lat="46.06895" lon="6.73506">
        <ele>753</ele>
        <time>2016-07-04T16:54:22.000Z</time>
      </trkpt>
      <trkpt lat="46.06894" lon="6.73511">
        <ele>754</ele>
        <time>2016-07-04T16:54:23.000Z</time>
      </trkpt>
      <trkpt lat="46.06891" lon="6.73523">
        <ele>756</ele>
        <time>2016-07-04T16:54:28.000Z</time>
      </trkpt>
      <trkpt lat="46.06892" lon="6.73526">
        <ele>753</ele>
        <time>2016-07-04T16:54:29.000Z</time>
      </trkpt>
      <trkpt lat="46.06884" lon="6.73533">
        <ele>760</ele>
        <time>2016-07-04T16:54:40.000Z</time>
      </trkpt>
      <trkpt lat="46.06884" lon="6.73537">
        <ele>760</ele>
        <time>2016-07-04T16:54:41.000Z</time>
      </trkpt>
      <trkpt lat="46.06884" lon="6.73541">
        <ele>760</ele>
        <time>2016-07-04T16:54:44.000Z</time>
      </trkpt>
      <trkpt lat="46.06884" lon="6.73539">
        <ele>762</ele>
        <time>2016-07-04T16:54:45.000Z</time>
      </trkpt>
      <trkpt lat="46.06883" lon="6.73539">
        <ele>763</ele>
        <time>2016-07-04T16:54:46.000Z</time>
      </trkpt>
      <trkpt lat="46.06881" lon="6.7354">
        <ele>766</ele>
        <time>2016-07-04T16:54:49.000Z</time>
      </trkpt>
      <trkpt lat="46.0688" lon="6.73541">
        <ele>768</ele>
        <time>2016-07-04T16:54:50.000Z</time>
      </trkpt>
      <trkpt lat="46.06879" lon="6.73543">
        <ele>770</ele>
        <time>2016-07-04T16:54:51.000Z</time>
      </trkpt>
      <trkpt lat="46.06882" lon="6.73547">
        <ele>763</ele>
        <time>2016-07-04T16:54:54.000Z</time>
      </trkpt>
      <trkpt lat="46.06882" lon="6.73549">
        <ele>763</ele>
        <time>2016-07-04T16:54:55.000Z</time>
      </trkpt>
      <trkpt lat="46.06882" lon="6.73549">
        <ele>764</ele>
        <time>2016-07-04T16:54:56.000Z</time>
      </trkpt>
      <trkpt lat="46.06877" lon="6.73559">
        <ele>771</ele>
        <time>2016-07-04T16:55:31.000Z</time>
      </trkpt>
      <trkpt lat="46.06875" lon="6.73562">
        <ele>769</ele>
        <time>2016-07-04T16:55:32.000Z</time>
      </trkpt>
      <trkpt lat="46.06868" lon="6.73569">
        <ele>770</ele>
        <time>2016-07-04T16:55:37.000Z</time>
      </trkpt>
      <trkpt lat="46.06867" lon="6.73569">
        <ele>770</ele>
        <time>2016-07-04T16:55:38.000Z</time>
      </trkpt>
      <trkpt lat="46.0686" lon="6.73576">
        <ele>771</ele>
        <time>2016-07-04T16:55:43.000Z</time>
      </trkpt>
      <trkpt lat="46.06858" lon="6.73577">
        <ele>771</ele>
        <time>2016-07-04T16:55:44.000Z</time>
      </trkpt>
      <trkpt lat="46.06852" lon="6.73586">
        <ele>768</ele>
        <time>2016-07-04T16:55:50.000Z</time>
      </trkpt>
      <trkpt lat="46.06851" lon="6.73586">
        <ele>767</ele>
        <time>2016-07-04T16:55:51.000Z</time>
      </trkpt>
      <trkpt lat="46.06842" lon="6.7359">
        <ele>765</ele>
        <time>2016-07-04T16:55:59.000Z</time>
      </trkpt>
      <trkpt lat="46.0684" lon="6.73595">
        <ele>765</ele>
        <time>2016-07-04T16:56:00.000Z</time>
      </trkpt>
      <trkpt lat="46.06844" lon="6.73602">
        <ele>767</ele>
        <time>2016-07-04T16:56:03.000Z</time>
      </trkpt>
      <trkpt lat="46.06847" lon="6.73595">
        <ele>768</ele>
        <time>2016-07-04T16:56:04.000Z</time>
      </trkpt>
      <trkpt lat="46.06844" lon="6.73594">
        <ele>766</ele>
        <time>2016-07-04T16:56:05.000Z</time>
      </trkpt>
      <trkpt lat="46.06839" lon="6.73605">
        <ele>769</ele>
        <time>2016-07-04T16:56:29.000Z</time>
      </trkpt>
      <trkpt lat="46.06836" lon="6.73604">
        <ele>769</ele>
        <time>2016-07-04T16:56:30.000Z</time>
      </trkpt>
      <trkpt lat="46.06828" lon="6.73602">
        <ele>773</ele>
        <time>2016-07-04T16:56:37.000Z</time>
      </trkpt>
      <trkpt lat="46.06827" lon="6.73598">
        <ele>773</ele>
        <time>2016-07-04T16:56:38.000Z</time>
      </trkpt>
      <trkpt lat="46.06819" lon="6.73604">
        <ele>775</ele>
        <time>2016-07-04T16:56:46.000Z</time>
      </trkpt>
      <trkpt lat="46.06819" lon="6.73605">
        <ele>775</ele>
        <time>2016-07-04T16:56:47.000Z</time>
      </trkpt>
      <trkpt lat="46.06811" lon="6.73607">
        <ele>772</ele>
        <time>2016-07-04T16:56:55.000Z</time>
      </trkpt>
      <trkpt lat="46.0681" lon="6.73607">
        <ele>773</ele>
        <time>2016-07-04T16:56:56.000Z</time>
      </trkpt>
      <trkpt lat="46.06802" lon="6.73606">
        <ele>775</ele>
        <time>2016-07-04T16:57:03.000Z</time>
      </trkpt>
      <trkpt lat="46.068" lon="6.73605">
        <ele>775</ele>
        <time>2016-07-04T16:57:04.000Z</time>
      </trkpt>
      <trkpt lat="46.06795" lon="6.73612">
        <ele>775</ele>
        <time>2016-07-04T16:57:08.000Z</time>
      </trkpt>
      <trkpt lat="46.06793" lon="6.73614">
        <ele>775</ele>
        <time>2016-07-04T16:57:09.000Z</time>
      </trkpt>
      <trkpt lat="46.06786" lon="6.73614">
        <ele>768</ele>
        <time>2016-07-04T16:57:19.000Z</time>
      </trkpt>
      <trkpt lat="46.06782" lon="6.73615">
        <ele>768</ele>
        <time>2016-07-04T16:57:20.000Z</time>
      </trkpt>
      <trkpt lat="46.06774" lon="6.73616">
        <ele>772</ele>
        <time>2016-07-04T16:57:28.000Z</time>
      </trkpt>
      <trkpt lat="46.06772" lon="6.73616">
        <ele>773</ele>
        <time>2016-07-04T16:57:29.000Z</time>
      </trkpt>
      <trkpt lat="46.06766" lon="6.73613">
        <ele>778</ele>
        <time>2016-07-04T16:57:32.000Z</time>
      </trkpt>
      <trkpt lat="46.06763" lon="6.73612">
        <ele>779</ele>
        <time>2016-07-04T16:57:33.000Z</time>
      </trkpt>
      <trkpt lat="46.06757" lon="6.73616">
        <ele>784</ele>
        <time>2016-07-04T16:57:40.000Z</time>
      </trkpt>
      <trkpt lat="46.06754" lon="6.73617">
        <ele>784</ele>
        <time>2016-07-04T16:57:41.000Z</time>
      </trkpt>
      <trkpt lat="46.06749" lon="6.73626">
        <ele>779</ele>
        <time>2016-07-04T16:57:55.000Z</time>
      </trkpt>
      <trkpt lat="46.06748" lon="6.73627">
        <ele>777</ele>
        <time>2016-07-04T16:57:56.000Z</time>
      </trkpt>
      <trkpt lat="46.0674" lon="6.73632">
        <ele>770</ele>
        <time>2016-07-04T16:58:15.000Z</time>
      </trkpt>
      <trkpt lat="46.06739" lon="6.73632">
        <ele>769</ele>
        <time>2016-07-04T16:58:16.000Z</time>
      </trkpt>
      <trkpt lat="46.06731" lon="6.73634">
        <ele>772</ele>
        <time>2016-07-04T16:58:23.000Z</time>
      </trkpt>
      <trkpt lat="46.06727" lon="6.73636">
        <ele>772</ele>
        <time>2016-07-04T16:58:24.000Z</time>
      </trkpt>
      <trkpt lat="46.06721" lon="6.73643">
        <ele>770</ele>
        <time>2016-07-04T16:58:28.000Z</time>
      </trkpt>
      <trkpt lat="46.0672" lon="6.73645">
        <ele>770</ele>
        <time>2016-07-04T16:58:29.000Z</time>
      </trkpt>
      <trkpt lat="46.06714" lon="6.73638">
        <ele>769</ele>
        <time>2016-07-04T16:58:34.000Z</time>
      </trkpt>
      <trkpt lat="46.06712" lon="6.73633">
        <ele>769</ele>
        <time>2016-07-04T16:58:35.000Z</time>
      </trkpt>
      <trkpt lat="46.06703" lon="6.73633">
        <ele>770</ele>
        <time>2016-07-04T16:58:39.000Z</time>
      </trkpt>
      <trkpt lat="46.06701" lon="6.73634">
        <ele>772</ele>
        <time>2016-07-04T16:58:40.000Z</time>
      </trkpt>
      <trkpt lat="46.06698" lon="6.73643">
        <ele>767</ele>
        <time>2016-07-04T16:58:45.000Z</time>
      </trkpt>
      <trkpt lat="46.06699" lon="6.73647">
        <ele>763</ele>
        <time>2016-07-04T16:58:46.000Z</time>
      </trkpt>
      <trkpt lat="46.06691" lon="6.73653">
        <ele>758</ele>
        <time>2016-07-04T16:58:55.000Z</time>
      </trkpt>
      <trkpt lat="46.06691" lon="6.73654">
        <ele>758</ele>
        <time>2016-07-04T16:58:56.000Z</time>
      </trkpt>
      <trkpt lat="46.06686" lon="6.73648">
        <ele>758</ele>
        <time>2016-07-04T16:59:02.000Z</time>
      </trkpt>
      <trkpt lat="46.06681" lon="6.73652">
        <ele>760</ele>
        <time>2016-07-04T16:59:03.000Z</time>
      </trkpt>
      <trkpt lat="46.06672" lon="6.73654">
        <ele>765</ele>
        <time>2016-07-04T16:59:09.000Z</time>
      </trkpt>
      <trkpt lat="46.06671" lon="6.73654">
        <ele>763</ele>
        <time>2016-07-04T16:59:10.000Z</time>
      </trkpt>
      <trkpt lat="46.06668" lon="6.73648">
        <ele>764</ele>
        <time>2016-07-04T16:59:12.000Z</time>
      </trkpt>
      <trkpt lat="46.06667" lon="6.73642">
        <ele>765</ele>
        <time>2016-07-04T16:59:13.000Z</time>
      </trkpt>
      <trkpt lat="46.06666" lon="6.73655">
        <ele>761</ele>
        <time>2016-07-04T16:59:17.000Z</time>
      </trkpt>
      <trkpt lat="46.06664" lon="6.73659">
        <ele>763</ele>
        <time>2016-07-04T16:59:18.000Z</time>
      </trkpt>
      <trkpt lat="46.0666" lon="6.73666">
        <ele>766</ele>
        <time>2016-07-04T16:59:23.000Z</time>
      </trkpt>
      <trkpt lat="46.06658" lon="6.73669">
        <ele>767</ele>
        <time>2016-07-04T16:59:24.000Z</time>
      </trkpt>
      <trkpt lat="46.06651" lon="6.73671">
        <ele>768</ele>
        <time>2016-07-04T16:59:32.000Z</time>
      </trkpt>
      <trkpt lat="46.06649" lon="6.73668">
        <ele>771</ele>
        <time>2016-07-04T16:59:33.000Z</time>
      </trkpt>
      <trkpt lat="46.06643" lon="6.73678">
        <ele>772</ele>
        <time>2016-07-04T16:59:40.000Z</time>
      </trkpt>
      <trkpt lat="46.06642" lon="6.73677">
        <ele>771</ele>
        <time>2016-07-04T16:59:41.000Z</time>
      </trkpt>
      <trkpt lat="46.06635" lon="6.7368">
        <ele>769</ele>
        <time>2016-07-04T16:59:47.000Z</time>
      </trkpt>
      <trkpt lat="46.06633" lon="6.73683">
        <ele>770</ele>
        <time>2016-07-04T16:59:48.000Z</time>
      </trkpt>
      <trkpt lat="46.06627" lon="6.73687">
        <ele>763</ele>
        <time>2016-07-04T16:59:56.000Z</time>
      </trkpt>
      <trkpt lat="46.06625" lon="6.73689">
        <ele>764</ele>
        <time>2016-07-04T16:59:57.000Z</time>
      </trkpt>
      <trkpt lat="46.0662" lon="6.73698">
        <ele>764</ele>
        <time>2016-07-04T17:00:45.000Z</time>
      </trkpt>
      <trkpt lat="46.06618" lon="6.73699">
        <ele>765</ele>
        <time>2016-07-04T17:00:46.000Z</time>
      </trkpt>
      <trkpt lat="46.06612" lon="6.73707">
        <ele>762</ele>
        <time>2016-07-04T17:00:51.000Z</time>
      </trkpt>
      <trkpt lat="46.0661" lon="6.73707">
        <ele>762</ele>
        <time>2016-07-04T17:00:52.000Z</time>
      </trkpt>
      <trkpt lat="46.06602" lon="6.73708">
        <ele>766</ele>
        <time>2016-07-04T17:00:58.000Z</time>
      </trkpt>
      <trkpt lat="46.06601" lon="6.73709">
        <ele>768</ele>
        <time>2016-07-04T17:00:59.000Z</time>
      </trkpt>
      <trkpt lat="46.06592" lon="6.73709">
        <ele>769</ele>
        <time>2016-07-04T17:01:07.000Z</time>
      </trkpt>
      <trkpt lat="46.06591" lon="6.7371">
        <ele>770</ele>
        <time>2016-07-04T17:01:08.000Z</time>
      </trkpt>
      <trkpt lat="46.06585" lon="6.73704">
        <ele>771</ele>
        <time>2016-07-04T17:01:12.000Z</time>
      </trkpt>
      <trkpt lat="46.06583" lon="6.73702">
        <ele>772</ele>
        <time>2016-07-04T17:01:13.000Z</time>
      </trkpt>
      <trkpt lat="46.06576" lon="6.7371">
        <ele>774</ele>
        <time>2016-07-04T17:01:21.000Z</time>
      </trkpt>
      <trkpt lat="46.06576" lon="6.73712">
        <ele>772</ele>
        <time>2016-07-04T17:01:22.000Z</time>
      </trkpt>
      <trkpt lat="46.06568" lon="6.73718">
        <ele>767</ele>
        <time>2016-07-04T17:01:29.000Z</time>
      </trkpt>
      <trkpt lat="46.06567" lon="6.73718">
        <ele>769</ele>
        <time>2016-07-04T17:01:30.000Z</time>
      </trkpt>
      <trkpt lat="46.06559" lon="6.7372">
        <ele>769</ele>
        <time>2016-07-04T17:01:38.000Z</time>
      </trkpt>
      <trkpt lat="46.06558" lon="6.73723">
        <ele>768</ele>
        <time>2016-07-04T17:01:39.000Z</time>
      </trkpt>
      <trkpt lat="46.06551" lon="6.73725">
        <ele>772</ele>
        <time>2016-07-04T17:01:42.000Z</time>
      </trkpt>
      <trkpt lat="46.06549" lon="6.7373">
        <ele>771</ele>
        <time>2016-07-04T17:01:43.000Z</time>
      </trkpt>
      <trkpt lat="46.06541" lon="6.73735">
        <ele>773</ele>
        <time>2016-07-04T17:01:51.000Z</time>
      </trkpt>
      <trkpt lat="46.06539" lon="6.73733">
        <ele>773</ele>
        <time>2016-07-04T17:01:52.000Z</time>
      </trkpt>
      <trkpt lat="46.06532" lon="6.73727">
        <ele>779</ele>
        <time>2016-07-04T17:02:00.000Z</time>
      </trkpt>
      <trkpt lat="46.06531" lon="6.73728">
        <ele>777</ele>
        <time>2016-07-04T17:02:01.000Z</time>
      </trkpt>
      <trkpt lat="46.06523" lon="6.7373">
        <ele>776</ele>
        <time>2016-07-04T17:02:07.000Z</time>
      </trkpt>
      <trkpt lat="46.06522" lon="6.73732">
        <ele>777</ele>
        <time>2016-07-04T17:02:08.000Z</time>
      </trkpt>
      <trkpt lat="46.06515" lon="6.73737">
        <ele>777</ele>
        <time>2016-07-04T17:02:13.000Z</time>
      </trkpt>
      <trkpt lat="46.06514" lon="6.73741">
        <ele>774</ele>
        <time>2016-07-04T17:02:14.000Z</time>
      </trkpt>
      <trkpt lat="46.06507" lon="6.7374">
        <ele>772</ele>
        <time>2016-07-04T17:02:22.000Z</time>
      </trkpt>
      <trkpt lat="46.06504" lon="6.73739">
        <ele>775</ele>
        <time>2016-07-04T17:02:23.000Z</time>
      </trkpt>
      <trkpt lat="46.06496" lon="6.73736">
        <ele>778</ele>
        <time>2016-07-04T17:02:30.000Z</time>
      </trkpt>
      <trkpt lat="46.06494" lon="6.73736">
        <ele>778</ele>
        <time>2016-07-04T17:02:31.000Z</time>
      </trkpt>
      <trkpt lat="46.06493" lon="6.73748">
        <ele>773</ele>
        <time>2016-07-04T17:02:35.000Z</time>
      </trkpt>
      <trkpt lat="46.06491" lon="6.73749">
        <ele>773</ele>
        <time>2016-07-04T17:02:36.000Z</time>
      </trkpt>
      <trkpt lat="46.06485" lon="6.73752">
        <ele>773</ele>
        <time>2016-07-04T17:02:45.000Z</time>
      </trkpt>
      <trkpt lat="46.06483" lon="6.73756">
        <ele>774</ele>
        <time>2016-07-04T17:02:46.000Z</time>
      </trkpt>
      <trkpt lat="46.06475" lon="6.73759">
        <ele>779</ele>
        <time>2016-07-04T17:02:51.000Z</time>
      </trkpt>
      <trkpt lat="46.06475" lon="6.73761">
        <ele>779</ele>
        <time>2016-07-04T17:02:52.000Z</time>
      </trkpt>
      <trkpt lat="46.06466" lon="6.7376">
        <ele>784</ele>
        <time>2016-07-04T17:03:00.000Z</time>
      </trkpt>
      <trkpt lat="46.06464" lon="6.73763">
        <ele>783</ele>
        <time>2016-07-04T17:03:01.000Z</time>
      </trkpt>
      <trkpt lat="46.06457" lon="6.73768">
        <ele>774</ele>
        <time>2016-07-04T17:03:11.000Z</time>
      </trkpt>
      <trkpt lat="46.06456" lon="6.73773">
        <ele>773</ele>
        <time>2016-07-04T17:03:12.000Z</time>
      </trkpt>
      <trkpt lat="46.06447" lon="6.73771">
        <ele>775</ele>
        <time>2016-07-04T17:03:20.000Z</time>
      </trkpt>
      <trkpt lat="46.06446" lon="6.73772">
        <ele>775</ele>
        <time>2016-07-04T17:03:21.000Z</time>
      </trkpt>
      <trkpt lat="46.0644" lon="6.73777">
        <ele>777</ele>
        <time>2016-07-04T17:03:27.000Z</time>
      </trkpt>
      <trkpt lat="46.06436" lon="6.73776">
        <ele>778</ele>
        <time>2016-07-04T17:03:28.000Z</time>
      </trkpt>
      <trkpt lat="46.06428" lon="6.73775">
        <ele>775</ele>
        <time>2016-07-04T17:03:37.000Z</time>
      </trkpt>
      <trkpt lat="46.06426" lon="6.73777">
        <ele>773</ele>
        <time>2016-07-04T17:03:38.000Z</time>
      </trkpt>
      <trkpt lat="46.0642" lon="6.73784">
        <ele>774</ele>
        <time>2016-07-04T17:03:45.000Z</time>
      </trkpt>
      <trkpt lat="46.06418" lon="6.73784">
        <ele>773</ele>
        <time>2016-07-04T17:03:46.000Z</time>
      </trkpt>
      <trkpt lat="46.06411" lon="6.73789">
        <ele>772</ele>
        <time>2016-07-04T17:03:54.000Z</time>
      </trkpt>
      <trkpt lat="46.0641" lon="6.7379">
        <ele>772</ele>
        <time>2016-07-04T17:03:55.000Z</time>
      </trkpt>
      <trkpt lat="46.06402" lon="6.73795">
        <ele>770</ele>
        <time>2016-07-04T17:04:02.000Z</time>
      </trkpt>
      <trkpt lat="46.06402" lon="6.73797">
        <ele>770</ele>
        <time>2016-07-04T17:04:03.000Z</time>
      </trkpt>
      <trkpt lat="46.06393" lon="6.73799">
        <ele>769</ele>
        <time>2016-07-04T17:04:10.000Z</time>
      </trkpt>
      <trkpt lat="46.06393" lon="6.73798">
        <ele>769</ele>
        <time>2016-07-04T17:04:11.000Z</time>
      </trkpt>
      <trkpt lat="46.06385" lon="6.73793">
        <ele>771</ele>
        <time>2016-07-04T17:04:42.000Z</time>
      </trkpt>
      <trkpt lat="46.06383" lon="6.73792">
        <ele>770</ele>
        <time>2016-07-04T17:04:43.000Z</time>
      </trkpt>
      <trkpt lat="46.06376" lon="6.73787">
        <ele>768</ele>
        <time>2016-07-04T17:04:49.000Z</time>
      </trkpt>
      <trkpt lat="46.06375" lon="6.73786">
        <ele>768</ele>
        <time>2016-07-04T17:04:50.000Z</time>
      </trkpt>
      <trkpt lat="46.06368" lon="6.73786">
        <ele>769</ele>
        <time>2016-07-04T17:04:54.000Z</time>
      </trkpt>
      <trkpt lat="46.06365" lon="6.73786">
        <ele>767</ele>
        <time>2016-07-04T17:04:55.000Z</time>
      </trkpt>
      <trkpt lat="46.06358" lon="6.73786">
        <ele>771</ele>
        <time>2016-07-04T17:05:00.000Z</time>
      </trkpt>
      <trkpt lat="46.06355" lon="6.73786">
        <ele>772</ele>
        <time>2016-07-04T17:05:01.000Z</time>
      </trkpt>
      <trkpt lat="46.06347" lon="6.7379">
        <ele>774</ele>
        <time>2016-07-04T17:05:08.000Z</time>
      </trkpt>
      <trkpt lat="46.06345" lon="6.73792">
        <ele>774</ele>
        <time>2016-07-04T17:05:09.000Z</time>
      </trkpt>
      <trkpt lat="46.06336" lon="6.7379">
        <ele>778</ele>
        <time>2016-07-04T17:05:16.000Z</time>
      </trkpt>
      <trkpt lat="46.06334" lon="6.7379">
        <ele>779</ele>
        <time>2016-07-04T17:05:17.000Z</time>
      </trkpt>
      <trkpt lat="46.06328" lon="6.73799">
        <ele>780</ele>
        <time>2016-07-04T17:05:21.000Z</time>
      </trkpt>
      <trkpt lat="46.06327" lon="6.73799">
        <ele>781</ele>
        <time>2016-07-04T17:05:22.000Z</time>
      </trkpt>
      <trkpt lat="46.06319" lon="6.73797">
        <ele>779</ele>
        <time>2016-07-04T17:05:31.000Z</time>
      </trkpt>
      <trkpt lat="46.06318" lon="6.73797">
        <ele>778</ele>
        <time>2016-07-04T17:05:32.000Z</time>
      </trkpt>
      <trkpt lat="46.06312" lon="6.738">
        <ele>782</ele>
        <time>2016-07-04T17:05:38.000Z</time>
      </trkpt>
      <trkpt lat="46.06309" lon="6.73803">
        <ele>784</ele>
        <time>2016-07-04T17:05:39.000Z</time>
      </trkpt>
      <trkpt lat="46.06302" lon="6.73809">
        <ele>789</ele>
        <time>2016-07-04T17:05:46.000Z</time>
      </trkpt>
      <trkpt lat="46.06301" lon="6.7381">
        <ele>789</ele>
        <time>2016-07-04T17:05:47.000Z</time>
      </trkpt>
      <trkpt lat="46.06293" lon="6.73814">
        <ele>784</ele>
        <time>2016-07-04T17:05:56.000Z</time>
      </trkpt>
      <trkpt lat="46.06291" lon="6.73817">
        <ele>784</ele>
        <time>2016-07-04T17:05:57.000Z</time>
      </trkpt>
      <trkpt lat="46.0629" lon="6.73827">
        <ele>778</ele>
        <time>2016-07-04T17:06:00.000Z</time>
      </trkpt>
      <trkpt lat="46.06288" lon="6.73831">
        <ele>777</ele>
        <time>2016-07-04T17:06:01.000Z</time>
      </trkpt>
      <trkpt lat="46.06285" lon="6.7384">
        <ele>774</ele>
        <time>2016-07-04T17:06:05.000Z</time>
      </trkpt>
      <trkpt lat="46.06283" lon="6.73843">
        <ele>775</ele>
        <time>2016-07-04T17:06:06.000Z</time>
      </trkpt>
      <trkpt lat="46.06281" lon="6.73854">
        <ele>766</ele>
        <time>2016-07-04T17:06:16.000Z</time>
      </trkpt>
      <trkpt lat="46.0628" lon="6.73855">
        <ele>766</ele>
        <time>2016-07-04T17:06:17.000Z</time>
      </trkpt>
      <trkpt lat="46.06273" lon="6.73863">
        <ele>760</ele>
        <time>2016-07-04T17:06:26.000Z</time>
      </trkpt>
      <trkpt lat="46.06272" lon="6.73865">
        <ele>762</ele>
        <time>2016-07-04T17:06:27.000Z</time>
      </trkpt>
      <trkpt lat="46.06271" lon="6.73876">
        <ele>760</ele>
        <time>2016-07-04T17:06:34.000Z</time>
      </trkpt>
      <trkpt lat="46.06269" lon="6.73878">
        <ele>760</ele>
        <time>2016-07-04T17:06:35.000Z</time>
      </trkpt>
      <trkpt lat="46.06266" lon="6.73886">
        <ele>761</ele>
        <time>2016-07-04T17:06:40.000Z</time>
      </trkpt>
      <trkpt lat="46.06263" lon="6.73889">
        <ele>762</ele>
        <time>2016-07-04T17:06:41.000Z</time>
      </trkpt>
      <trkpt lat="46.06258" lon="6.73897">
        <ele>767</ele>
        <time>2016-07-04T17:06:45.000Z</time>
      </trkpt>
      <trkpt lat="46.06256" lon="6.739">
        <ele>768</ele>
        <time>2016-07-04T17:06:46.000Z</time>
      </trkpt>
      <trkpt lat="46.06252" lon="6.7391">
        <ele>778</ele>
        <time>2016-07-04T17:06:50.000Z</time>
      </trkpt>
      <trkpt lat="46.06252" lon="6.73914">
        <ele>779</ele>
        <time>2016-07-04T17:06:51.000Z</time>
      </trkpt>
      <trkpt lat="46.06252" lon="6.73926">
        <ele>778</ele>
        <time>2016-07-04T17:07:00.000Z</time>
      </trkpt>
      <trkpt lat="46.06251" lon="6.73929">
        <ele>779</ele>
        <time>2016-07-04T17:07:01.000Z</time>
      </trkpt>
      <trkpt lat="46.06248" lon="6.73939">
        <ele>784</ele>
        <time>2016-07-04T17:07:05.000Z</time>
      </trkpt>
      <trkpt lat="46.06247" lon="6.73941">
        <ele>787</ele>
        <time>2016-07-04T17:07:06.000Z</time>
      </trkpt>
      <trkpt lat="46.06238" lon="6.73943">
        <ele>791</ele>
        <time>2016-07-04T17:07:17.000Z</time>
      </trkpt>
      <trkpt lat="46.06237" lon="6.73944">
        <ele>791</ele>
        <time>2016-07-04T17:07:18.000Z</time>
      </trkpt>
      <trkpt lat="46.06238" lon="6.73954">
        <ele>785</ele>
        <time>2016-07-04T17:07:28.000Z</time>
      </trkpt>
      <trkpt lat="46.06237" lon="6.73957">
        <ele>785</ele>
        <time>2016-07-04T17:07:29.000Z</time>
      </trkpt>
      <trkpt lat="46.06232" lon="6.73965">
        <ele>783</ele>
        <time>2016-07-04T17:07:44.000Z</time>
      </trkpt>
      <trkpt lat="46.0623" lon="6.73968">
        <ele>785</ele>
        <time>2016-07-04T17:07:45.000Z</time>
      </trkpt>
      <trkpt lat="46.06225" lon="6.73977">
        <ele>786</ele>
        <time>2016-07-04T17:07:50.000Z</time>
      </trkpt>
      <trkpt lat="46.06225" lon="6.73979">
        <ele>786</ele>
        <time>2016-07-04T17:07:51.000Z</time>
      </trkpt>
      <trkpt lat="46.06223" lon="6.73991">
        <ele>787</ele>
        <time>2016-07-04T17:08:01.000Z</time>
      </trkpt>
      <trkpt lat="46.06223" lon="6.73992">
        <ele>787</ele>
        <time>2016-07-04T17:08:02.000Z</time>
      </trkpt>
      <trkpt lat="46.06218" lon="6.73991">
        <ele>789</ele>
        <time>2016-07-04T17:08:11.000Z</time>
      </trkpt>
      <trkpt lat="46.0622" lon="6.73993">
        <ele>787</ele>
        <time>2016-07-04T17:08:12.000Z</time>
      </trkpt>
      <trkpt lat="46.06222" lon="6.73996">
        <ele>784</ele>
        <time>2016-07-04T17:08:36.000Z</time>
      </trkpt>
      <trkpt lat="46.06221" lon="6.73997">
        <ele>784</ele>
        <time>2016-07-04T17:08:37.000Z</time>
      </trkpt>
      <trkpt lat="46.06214" lon="6.74003">
        <ele>784</ele>
        <time>2016-07-04T17:08:38.000Z</time>
      </trkpt>
      <trkpt lat="46.06212" lon="6.74012">
        <ele>781</ele>
        <time>2016-07-04T17:08:39.000Z</time>
      </trkpt>
      <trkpt lat="46.06207" lon="6.74018">
        <ele>780</ele>
        <time>2016-07-04T17:08:40.000Z</time>
      </trkpt>
      <trkpt lat="46.06198" lon="6.74025">
        <ele>783</ele>
        <time>2016-07-04T17:08:41.000Z</time>
      </trkpt>
      <trkpt lat="46.06198" lon="6.74035">
        <ele>777</ele>
        <time>2016-07-04T17:08:46.000Z</time>
      </trkpt>
      <trkpt lat="46.06198" lon="6.7404">
        <ele>779</ele>
        <time>2016-07-04T17:08:47.000Z</time>
      </trkpt>
      <trkpt lat="46.06194" lon="6.74048">
        <ele>773</ele>
        <time>2016-07-04T17:09:41.000Z</time>
      </trkpt>
      <trkpt lat="46.06192" lon="6.7405">
        <ele>776</ele>
        <time>2016-07-04T17:09:42.000Z</time>
      </trkpt>
      <trkpt lat="46.06186" lon="6.74057">
        <ele>775</ele>
        <time>2016-07-04T17:09:46.000Z</time>
      </trkpt>
      <trkpt lat="46.06185" lon="6.7406">
        <ele>773</ele>
        <time>2016-07-04T17:09:47.000Z</time>
      </trkpt>
      <trkpt lat="46.06181" lon="6.74069">
        <ele>777</ele>
        <time>2016-07-04T17:09:53.000Z</time>
      </trkpt>
      <trkpt lat="46.0618" lon="6.74072">
        <ele>778</ele>
        <time>2016-07-04T17:09:54.000Z</time>
      </trkpt>
      <trkpt lat="46.0618" lon="6.74073">
        <ele>777</ele>
        <time>2016-07-04T17:09:55.000Z</time>
      </trkpt>
      <trkpt lat="46.0618" lon="6.74073">
        <ele>776</ele>
        <time>2016-07-04T17:09:56.000Z</time>
      </trkpt>
      <trkpt lat="46.06179" lon="6.74073">
        <ele>776</ele>
        <time>2016-07-04T17:09:57.000Z</time>
      </trkpt>
      <trkpt lat="46.06173" lon="6.74083">
        <ele>772</ele>
        <time>2016-07-04T17:10:06.000Z</time>
      </trkpt>
      <trkpt lat="46.06173" lon="6.74086">
        <ele>770</ele>
        <time>2016-07-04T17:10:07.000Z</time>
      </trkpt>
      <trkpt lat="46.0617" lon="6.74097">
        <ele>765</ele>
        <time>2016-07-04T17:10:17.000Z</time>
      </trkpt>
      <trkpt lat="46.06168" lon="6.74098">
        <ele>765</ele>
        <time>2016-07-04T17:10:18.000Z</time>
      </trkpt>
      <trkpt lat="46.06163" lon="6.74107">
        <ele>769</ele>
        <time>2016-07-04T17:10:27.000Z</time>
      </trkpt>
      <trkpt lat="46.06161" lon="6.74107">
        <ele>769</ele>
        <time>2016-07-04T17:10:28.000Z</time>
      </trkpt>
      <trkpt lat="46.06157" lon="6.74118">
        <ele>773</ele>
        <time>2016-07-04T17:10:38.000Z</time>
      </trkpt>
      <trkpt lat="46.06156" lon="6.7412">
        <ele>771</ele>
        <time>2016-07-04T17:10:39.000Z</time>
      </trkpt>
      <trkpt lat="46.06152" lon="6.7413">
        <ele>774</ele>
        <time>2016-07-04T17:10:53.000Z</time>
      </trkpt>
      <trkpt lat="46.06151" lon="6.74132">
        <ele>773</ele>
        <time>2016-07-04T17:10:54.000Z</time>
      </trkpt>
      <trkpt lat="46.06143" lon="6.74135">
        <ele>771</ele>
        <time>2016-07-04T17:10:58.000Z</time>
      </trkpt>
      <trkpt lat="46.06141" lon="6.74135">
        <ele>770</ele>
        <time>2016-07-04T17:10:59.000Z</time>
      </trkpt>
      <trkpt lat="46.06135" lon="6.74141">
        <ele>771</ele>
        <time>2016-07-04T17:11:06.000Z</time>
      </trkpt>
      <trkpt lat="46.06134" lon="6.74144">
        <ele>770</ele>
        <time>2016-07-04T17:11:07.000Z</time>
      </trkpt>
      <trkpt lat="46.06126" lon="6.74142">
        <ele>773</ele>
        <time>2016-07-04T17:11:11.000Z</time>
      </trkpt>
      <trkpt lat="46.06123" lon="6.74147">
        <ele>772</ele>
        <time>2016-07-04T17:11:12.000Z</time>
      </trkpt>
      <trkpt lat="46.06121" lon="6.74154">
        <ele>764</ele>
        <time>2016-07-04T17:11:21.000Z</time>
      </trkpt>
      <trkpt lat="46.06122" lon="6.7416">
        <ele>761</ele>
        <time>2016-07-04T17:11:22.000Z</time>
      </trkpt>
      <trkpt lat="46.06115" lon="6.74167">
        <ele>760</ele>
        <time>2016-07-04T17:11:31.000Z</time>
      </trkpt>
      <trkpt lat="46.06113" lon="6.74166">
        <ele>761</ele>
        <time>2016-07-04T17:11:32.000Z</time>
      </trkpt>
      <trkpt lat="46.06108" lon="6.74176">
        <ele>770</ele>
        <time>2016-07-04T17:11:40.000Z</time>
      </trkpt>
      <trkpt lat="46.06106" lon="6.74177">
        <ele>770</ele>
        <time>2016-07-04T17:11:41.000Z</time>
      </trkpt>
      <trkpt lat="46.06103" lon="6.74187">
        <ele>770</ele>
        <time>2016-07-04T17:11:42.000Z</time>
      </trkpt>
      <trkpt lat="46.06098" lon="6.74186">
        <ele>771</ele>
        <time>2016-07-04T17:11:43.000Z</time>
      </trkpt>
      <trkpt lat="46.06094" lon="6.74196">
        <ele>777</ele>
        <time>2016-07-04T17:12:00.000Z</time>
      </trkpt>
      <trkpt lat="46.0609" lon="6.74197">
        <ele>777</ele>
        <time>2016-07-04T17:12:01.000Z</time>
      </trkpt>
      <trkpt lat="46.06083" lon="6.74202">
        <ele>775</ele>
        <time>2016-07-04T17:12:04.000Z</time>
      </trkpt>
      <trkpt lat="46.0608" lon="6.74203">
        <ele>773</ele>
        <time>2016-07-04T17:12:05.000Z</time>
      </trkpt>
      <trkpt lat="46.06078" lon="6.74211">
        <ele>766</ele>
        <time>2016-07-04T17:12:10.000Z</time>
      </trkpt>
      <trkpt lat="46.06075" lon="6.74213">
        <ele>764</ele>
        <time>2016-07-04T17:12:11.000Z</time>
      </trkpt>
      <trkpt lat="46.06071" lon="6.74223">
        <ele>764</ele>
        <time>2016-07-04T17:12:22.000Z</time>
      </trkpt>
      <trkpt lat="46.06069" lon="6.74225">
        <ele>764</ele>
        <time>2016-07-04T17:12:23.000Z</time>
      </trkpt>
      <trkpt lat="46.06069" lon="6.74238">
        <ele>763</ele>
        <time>2016-07-04T17:12:31.000Z</time>
      </trkpt>
      <trkpt lat="46.06068" lon="6.74239">
        <ele>762</ele>
        <time>2016-07-04T17:12:32.000Z</time>
      </trkpt>
      <trkpt lat="46.06074" lon="6.74249">
        <ele>765</ele>
        <time>2016-07-04T17:12:50.000Z</time>
      </trkpt>
      <trkpt lat="46.06074" lon="6.74249">
        <ele>763</ele>
        <time>2016-07-04T17:12:51.000Z</time>
      </trkpt>
      <trkpt lat="46.06078" lon="6.7426">
        <ele>767</ele>
        <time>2016-07-04T17:13:02.000Z</time>
      </trkpt>
      <trkpt lat="46.06079" lon="6.7426">
        <ele>768</ele>
        <time>2016-07-04T17:13:03.000Z</time>
      </trkpt>
      <trkpt lat="46.06083" lon="6.74271">
        <ele>778</ele>
        <time>2016-07-04T17:14:12.000Z</time>
      </trkpt>
      <trkpt lat="46.06083" lon="6.7427">
        <ele>778</ele>
        <time>2016-07-04T17:14:13.000Z</time>
      </trkpt>
      <trkpt lat="46.06082" lon="6.74267">
        <ele>775</ele>
        <time>2016-07-04T17:15:13.000Z</time>
      </trkpt>
      <trkpt lat="46.06081" lon="6.74268">
        <ele>775</ele>
        <time>2016-07-04T17:15:14.000Z</time>
      </trkpt>
      <trkpt lat="46.06074" lon="6.74275">
        <ele>778</ele>
        <time>2016-07-04T17:15:15.000Z</time>
      </trkpt>
      <trkpt lat="46.0607" lon="6.74281">
        <ele>776</ele>
        <time>2016-07-04T17:15:16.000Z</time>
      </trkpt>
      <trkpt lat="46.06067" lon="6.7429">
        <ele>775</ele>
        <time>2016-07-04T17:15:18.000Z</time>
      </trkpt>
      <trkpt lat="46.06066" lon="6.74294">
        <ele>774</ele>
        <time>2016-07-04T17:15:19.000Z</time>
      </trkpt>
      <trkpt lat="46.0606" lon="6.74301">
        <ele>773</ele>
        <time>2016-07-04T17:15:22.000Z</time>
      </trkpt>
      <trkpt lat="46.06059" lon="6.74306">
        <ele>775</ele>
        <time>2016-07-04T17:15:23.000Z</time>
      </trkpt>
      <trkpt lat="46.06061" lon="6.74314">
        <ele>774</ele>
        <time>2016-07-04T17:15:24.000Z</time>
      </trkpt>
      <trkpt lat="46.06062" lon="6.7432">
        <ele>774</ele>
        <time>2016-07-04T17:15:25.000Z</time>
      </trkpt>
      <trkpt lat="46.06058" lon="6.74327">
        <ele>775</ele>
        <time>2016-07-04T17:15:28.000Z</time>
      </trkpt>
      <trkpt lat="46.06056" lon="6.74332">
        <ele>777</ele>
        <time>2016-07-04T17:15:29.000Z</time>
      </trkpt>
      <trkpt lat="46.06049" lon="6.74331">
        <ele>773</ele>
        <time>2016-07-04T17:15:36.000Z</time>
      </trkpt>
      <trkpt lat="46.06047" lon="6.74333">
        <ele>774</ele>
        <time>2016-07-04T17:15:37.000Z</time>
      </trkpt>
      <trkpt lat="46.06043" lon="6.74342">
        <ele>773</ele>
        <time>2016-07-04T17:15:44.000Z</time>
      </trkpt>
      <trkpt lat="46.06042" lon="6.74345">
        <ele>774</ele>
        <time>2016-07-04T17:15:45.000Z</time>
      </trkpt>
      <trkpt lat="46.06039" lon="6.74352">
        <ele>776</ele>
        <time>2016-07-04T17:15:47.000Z</time>
      </trkpt>
      <trkpt lat="46.06039" lon="6.74357">
        <ele>778</ele>
        <time>2016-07-04T17:15:48.000Z</time>
      </trkpt>
      <trkpt lat="46.06034" lon="6.74368">
        <ele>782</ele>
        <time>2016-07-04T17:15:53.000Z</time>
      </trkpt>
      <trkpt lat="46.06033" lon="6.74373">
        <ele>783</ele>
        <time>2016-07-04T17:15:54.000Z</time>
      </trkpt>
      <trkpt lat="46.06026" lon="6.74378">
        <ele>780</ele>
        <time>2016-07-04T17:16:03.000Z</time>
      </trkpt>
      <trkpt lat="46.06026" lon="6.74382">
        <ele>780</ele>
        <time>2016-07-04T17:16:04.000Z</time>
      </trkpt>
      <trkpt lat="46.0602" lon="6.74391">
        <ele>781</ele>
        <time>2016-07-04T17:16:17.000Z</time>
      </trkpt>
      <trkpt lat="46.0602" lon="6.74392">
        <ele>781</ele>
        <time>2016-07-04T17:16:18.000Z</time>
      </trkpt>
      <trkpt lat="46.06014" lon="6.744">
        <ele>781</ele>
        <time>2016-07-04T17:16:31.000Z</time>
      </trkpt>
      <trkpt lat="46.06013" lon="6.74403">
        <ele>782</ele>
        <time>2016-07-04T17:16:32.000Z</time>
      </trkpt>
      <trkpt lat="46.06011" lon="6.74414">
        <ele>779</ele>
        <time>2016-07-04T17:16:40.000Z</time>
      </trkpt>
      <trkpt lat="46.0601" lon="6.74415">
        <ele>779</ele>
        <time>2016-07-04T17:16:41.000Z</time>
      </trkpt>
      <trkpt lat="46.06006" lon="6.74424">
        <ele>778</ele>
        <time>2016-07-04T17:16:48.000Z</time>
      </trkpt>
      <trkpt lat="46.06006" lon="6.74429">
        <ele>779</ele>
        <time>2016-07-04T17:16:49.000Z</time>
      </trkpt>
      <trkpt lat="46.05998" lon="6.74436">
        <ele>781</ele>
        <time>2016-07-04T17:16:57.000Z</time>
      </trkpt>
      <trkpt lat="46.05997" lon="6.74438">
        <ele>780</ele>
        <time>2016-07-04T17:16:58.000Z</time>
      </trkpt>
      <trkpt lat="46.05992" lon="6.74447">
        <ele>778</ele>
        <time>2016-07-04T17:17:09.000Z</time>
      </trkpt>
      <trkpt lat="46.0599" lon="6.74449">
        <ele>779</ele>
        <time>2016-07-04T17:17:10.000Z</time>
      </trkpt>
      <trkpt lat="46.05985" lon="6.74459">
        <ele>776</ele>
        <time>2016-07-04T17:17:21.000Z</time>
      </trkpt>
      <trkpt lat="46.05984" lon="6.74461">
        <ele>778</ele>
        <time>2016-07-04T17:17:22.000Z</time>
      </trkpt>
      <trkpt lat="46.05976" lon="6.74465">
        <ele>777</ele>
        <time>2016-07-04T17:17:26.000Z</time>
      </trkpt>
      <trkpt lat="46.05975" lon="6.74467">
        <ele>777</ele>
        <time>2016-07-04T17:17:27.000Z</time>
      </trkpt>
      <trkpt lat="46.05968" lon="6.74472">
        <ele>777</ele>
        <time>2016-07-04T17:17:33.000Z</time>
      </trkpt>
      <trkpt lat="46.05965" lon="6.7447">
        <ele>777</ele>
        <time>2016-07-04T17:17:34.000Z</time>
      </trkpt>
      <trkpt lat="46.05964" lon="6.7448">
        <ele>775</ele>
        <time>2016-07-04T17:17:42.000Z</time>
      </trkpt>
      <trkpt lat="46.05963" lon="6.74483">
        <ele>775</ele>
        <time>2016-07-04T17:17:43.000Z</time>
      </trkpt>
      <trkpt lat="46.0596" lon="6.74491">
        <ele>776</ele>
        <time>2016-07-04T17:17:48.000Z</time>
      </trkpt>
      <trkpt lat="46.05958" lon="6.74495">
        <ele>776</ele>
        <time>2016-07-04T17:17:49.000Z</time>
      </trkpt>
      <trkpt lat="46.05952" lon="6.74503">
        <ele>778</ele>
        <time>2016-07-04T17:17:56.000Z</time>
      </trkpt>
      <trkpt lat="46.05951" lon="6.74505">
        <ele>777</ele>
        <time>2016-07-04T17:17:57.000Z</time>
      </trkpt>
      <trkpt lat="46.05947" lon="6.74516">
        <ele>778</ele>
        <time>2016-07-04T17:18:04.000Z</time>
      </trkpt>
      <trkpt lat="46.05946" lon="6.74517">
        <ele>777</ele>
        <time>2016-07-04T17:18:05.000Z</time>
      </trkpt>
      <trkpt lat="46.05943" lon="6.74528">
        <ele>774</ele>
        <time>2016-07-04T17:18:12.000Z</time>
      </trkpt>
      <trkpt lat="46.05941" lon="6.7453">
        <ele>773</ele>
        <time>2016-07-04T17:18:13.000Z</time>
      </trkpt>
      <trkpt lat="46.05935" lon="6.74533">
        <ele>773</ele>
        <time>2016-07-04T17:18:17.000Z</time>
      </trkpt>
      <trkpt lat="46.05934" lon="6.74536">
        <ele>772</ele>
        <time>2016-07-04T17:18:18.000Z</time>
      </trkpt>
      <trkpt lat="46.05931" lon="6.74548">
        <ele>772</ele>
        <time>2016-07-04T17:18:25.000Z</time>
      </trkpt>
      <trkpt lat="46.0593" lon="6.74551">
        <ele>772</ele>
        <time>2016-07-04T17:18:26.000Z</time>
      </trkpt>
      <trkpt lat="46.05926" lon="6.74563">
        <ele>779</ele>
        <time>2016-07-04T17:18:34.000Z</time>
      </trkpt>
      <trkpt lat="46.05925" lon="6.74566">
        <ele>778</ele>
        <time>2016-07-04T17:18:35.000Z</time>
      </trkpt>
      <trkpt lat="46.05921" lon="6.74569">
        <ele>777</ele>
        <time>2016-07-04T17:19:06.000Z</time>
      </trkpt>
      <trkpt lat="46.05916" lon="6.74568">
        <ele>778</ele>
        <time>2016-07-04T17:19:07.000Z</time>
      </trkpt>
      <trkpt lat="46.05909" lon="6.74562">
        <ele>774</ele>
        <time>2016-07-04T17:19:14.000Z</time>
      </trkpt>
      <trkpt lat="46.05908" lon="6.74561">
        <ele>773</ele>
        <time>2016-07-04T17:19:15.000Z</time>
      </trkpt>
      <trkpt lat="46.059" lon="6.74553">
        <ele>777</ele>
        <time>2016-07-04T17:19:22.000Z</time>
      </trkpt>
      <trkpt lat="46.059" lon="6.74553">
        <ele>777</ele>
        <time>2016-07-04T17:19:23.000Z</time>
      </trkpt>
      <trkpt lat="46.05896" lon="6.74542">
        <ele>776</ele>
        <time>2016-07-04T17:19:37.000Z</time>
      </trkpt>
      <trkpt lat="46.05893" lon="6.74538">
        <ele>779</ele>
        <time>2016-07-04T17:19:38.000Z</time>
      </trkpt>
      <trkpt lat="46.05893" lon="6.74526">
        <ele>782</ele>
        <time>2016-07-04T17:19:42.000Z</time>
      </trkpt>
      <trkpt lat="46.05892" lon="6.74523">
        <ele>782</ele>
        <time>2016-07-04T17:19:43.000Z</time>
      </trkpt>
      <trkpt lat="46.05896" lon="6.74515">
        <ele>783</ele>
        <time>2016-07-04T17:19:46.000Z</time>
      </trkpt>
      <trkpt lat="46.05896" lon="6.74511">
        <ele>785</ele>
        <time>2016-07-04T17:19:47.000Z</time>
      </trkpt>
      <trkpt lat="46.05893" lon="6.745">
        <ele>787</ele>
        <time>2016-07-04T17:19:56.000Z</time>
      </trkpt>
      <trkpt lat="46.05894" lon="6.74498">
        <ele>788</ele>
        <time>2016-07-04T17:19:57.000Z</time>
      </trkpt>
      <trkpt lat="46.05898" lon="6.74487">
        <ele>785</ele>
        <time>2016-07-04T17:20:05.000Z</time>
      </trkpt>
      <trkpt lat="46.05897" lon="6.74485">
        <ele>786</ele>
        <time>2016-07-04T17:20:06.000Z</time>
      </trkpt>
      <trkpt lat="46.05897" lon="6.74474">
        <ele>788</ele>
        <time>2016-07-04T17:20:12.000Z</time>
      </trkpt>
      <trkpt lat="46.05891" lon="6.74475">
        <ele>788</ele>
        <time>2016-07-04T17:20:13.000Z</time>
      </trkpt>
      <trkpt lat="46.05892" lon="6.74463">
        <ele>790</ele>
        <time>2016-07-04T17:20:20.000Z</time>
      </trkpt>
      <trkpt lat="46.0589" lon="6.74461">
        <ele>790</ele>
        <time>2016-07-04T17:20:21.000Z</time>
      </trkpt>
      <trkpt lat="46.05888" lon="6.74451">
        <ele>791</ele>
        <time>2016-07-04T17:20:28.000Z</time>
      </trkpt>
      <trkpt lat="46.05889" lon="6.74448">
        <ele>792</ele>
        <time>2016-07-04T17:20:29.000Z</time>
      </trkpt>
      <trkpt lat="46.05886" lon="6.74438">
        <ele>792</ele>
        <time>2016-07-04T17:20:35.000Z</time>
      </trkpt>
      <trkpt lat="46.05885" lon="6.74436">
        <ele>793</ele>
        <time>2016-07-04T17:20:36.000Z</time>
      </trkpt>
      <trkpt lat="46.05877" lon="6.74433">
        <ele>792</ele>
        <time>2016-07-04T17:20:43.000Z</time>
      </trkpt>
      <trkpt lat="46.05875" lon="6.74434">
        <ele>792</ele>
        <time>2016-07-04T17:20:44.000Z</time>
      </trkpt>
      <trkpt lat="46.05875" lon="6.74423">
        <ele>792</ele>
        <time>2016-07-04T17:20:53.000Z</time>
      </trkpt>
      <trkpt lat="46.05877" lon="6.74421">
        <ele>792</ele>
        <time>2016-07-04T17:20:54.000Z</time>
      </trkpt>
      <trkpt lat="46.0588" lon="6.74412">
        <ele>793</ele>
        <time>2016-07-04T17:21:00.000Z</time>
      </trkpt>
      <trkpt lat="46.05881" lon="6.74409">
        <ele>794</ele>
        <time>2016-07-04T17:21:01.000Z</time>
      </trkpt>
      <trkpt lat="46.05882" lon="6.74398">
        <ele>794</ele>
        <time>2016-07-04T17:21:09.000Z</time>
      </trkpt>
      <trkpt lat="46.05883" lon="6.74396">
        <ele>795</ele>
        <time>2016-07-04T17:21:10.000Z</time>
      </trkpt>
      <trkpt lat="46.05882" lon="6.74383">
        <ele>792</ele>
        <time>2016-07-04T17:21:19.000Z</time>
      </trkpt>
      <trkpt lat="46.05882" lon="6.74381">
        <ele>792</ele>
        <time>2016-07-04T17:21:20.000Z</time>
      </trkpt>
      <trkpt lat="46.05884" lon="6.74369">
        <ele>794</ele>
        <time>2016-07-04T17:21:24.000Z</time>
      </trkpt>
      <trkpt lat="46.05882" lon="6.74365">
        <ele>794</ele>
        <time>2016-07-04T17:21:25.000Z</time>
      </trkpt>
      <trkpt lat="46.05877" lon="6.74354">
        <ele>795</ele>
        <time>2016-07-04T17:21:39.000Z</time>
      </trkpt>
      <trkpt lat="46.05876" lon="6.74354">
        <ele>796</ele>
        <time>2016-07-04T17:21:40.000Z</time>
      </trkpt>
      <trkpt lat="46.05868" lon="6.74353">
        <ele>798</ele>
        <time>2016-07-04T17:21:47.000Z</time>
      </trkpt>
      <trkpt lat="46.05864" lon="6.74354">
        <ele>797</ele>
        <time>2016-07-04T17:21:48.000Z</time>
      </trkpt>
      <trkpt lat="46.05857" lon="6.74357">
        <ele>794</ele>
        <time>2016-07-04T17:21:51.000Z</time>
      </trkpt>
      <trkpt lat="46.05855" lon="6.74357">
        <ele>793</ele>
        <time>2016-07-04T17:21:52.000Z</time>
      </trkpt>
      <trkpt lat="46.05848" lon="6.74354">
        <ele>789</ele>
        <time>2016-07-04T17:21:56.000Z</time>
      </trkpt>
      <trkpt lat="46.05846" lon="6.74371">
        <ele>790</ele>
        <time>2016-07-04T17:21:57.000Z</time>
      </trkpt>
      <trkpt lat="46.0584" lon="6.74363">
        <ele>791</ele>
        <time>2016-07-04T17:22:00.000Z</time>
      </trkpt>
      <trkpt lat="46.05837" lon="6.74365">
        <ele>792</ele>
        <time>2016-07-04T17:22:01.000Z</time>
      </trkpt>
      <trkpt lat="46.0583" lon="6.74364">
        <ele>791</ele>
        <time>2016-07-04T17:22:08.000Z</time>
      </trkpt>
      <trkpt lat="46.05826" lon="6.7436">
        <ele>792</ele>
        <time>2016-07-04T17:22:09.000Z</time>
      </trkpt>
      <trkpt lat="46.05825" lon="6.74372">
        <ele>793</ele>
        <time>2016-07-04T17:22:15.000Z</time>
      </trkpt>
      <trkpt lat="46.05826" lon="6.74379">
        <ele>795</ele>
        <time>2016-07-04T17:22:16.000Z</time>
      </trkpt>
      <trkpt lat="46.05824" lon="6.74389">
        <ele>796</ele>
        <time>2016-07-04T17:22:21.000Z</time>
      </trkpt>
      <trkpt lat="46.05824" lon="6.74393">
        <ele>797</ele>
        <time>2016-07-04T17:22:22.000Z</time>
      </trkpt>
      <trkpt lat="46.05817" lon="6.74398">
        <ele>802</ele>
        <time>2016-07-04T17:22:25.000Z</time>
      </trkpt>
      <trkpt lat="46.05816" lon="6.74401">
        <ele>803</ele>
        <time>2016-07-04T17:22:26.000Z</time>
      </trkpt>
      <trkpt lat="46.05809" lon="6.74403">
        <ele>799</ele>
        <time>2016-07-04T17:22:37.000Z</time>
      </trkpt>
      <trkpt lat="46.05807" lon="6.74404">
        <ele>799</ele>
        <time>2016-07-04T17:22:38.000Z</time>
      </trkpt>
      <trkpt lat="46.058" lon="6.74409">
        <ele>800</ele>
        <time>2016-07-04T17:22:43.000Z</time>
      </trkpt>
      <trkpt lat="46.05799" lon="6.7441">
        <ele>800</ele>
        <time>2016-07-04T17:22:44.000Z</time>
      </trkpt>
      <trkpt lat="46.05796" lon="6.7442">
        <ele>797</ele>
        <time>2016-07-04T17:22:52.000Z</time>
      </trkpt>
      <trkpt lat="46.05795" lon="6.74423">
        <ele>798</ele>
        <time>2016-07-04T17:22:53.000Z</time>
      </trkpt>
      <trkpt lat="46.05786" lon="6.74428">
        <ele>801</ele>
        <time>2016-07-04T17:22:58.000Z</time>
      </trkpt>
      <trkpt lat="46.05785" lon="6.7443">
        <ele>802</ele>
        <time>2016-07-04T17:22:59.000Z</time>
      </trkpt>
      <trkpt lat="46.05779" lon="6.74434">
        <ele>808</ele>
        <time>2016-07-04T17:23:09.000Z</time>
      </trkpt>
      <trkpt lat="46.05775" lon="6.74436">
        <ele>806</ele>
        <time>2016-07-04T17:23:10.000Z</time>
      </trkpt>
      <trkpt lat="46.05771" lon="6.74438">
        <ele>809</ele>
        <time>2016-07-04T17:23:14.000Z</time>
      </trkpt>
      <trkpt lat="46.05765" lon="6.74435">
        <ele>809</ele>
        <time>2016-07-04T17:23:15.000Z</time>
      </trkpt>
      <trkpt lat="46.05758" lon="6.74443">
        <ele>806</ele>
        <time>2016-07-04T17:23:23.000Z</time>
      </trkpt>
      <trkpt lat="46.05757" lon="6.74446">
        <ele>807</ele>
        <time>2016-07-04T17:23:24.000Z</time>
      </trkpt>
      <trkpt lat="46.05758" lon="6.74458">
        <ele>809</ele>
        <time>2016-07-04T17:23:29.000Z</time>
      </trkpt>
      <trkpt lat="46.05757" lon="6.7446">
        <ele>809</ele>
        <time>2016-07-04T17:23:30.000Z</time>
      </trkpt>
      <trkpt lat="46.05758" lon="6.74472">
        <ele>808</ele>
        <time>2016-07-04T17:23:36.000Z</time>
      </trkpt>
      <trkpt lat="46.05757" lon="6.74474">
        <ele>809</ele>
        <time>2016-07-04T17:23:37.000Z</time>
      </trkpt>
      <trkpt lat="46.05755" lon="6.74484">
        <ele>811</ele>
        <time>2016-07-04T17:23:42.000Z</time>
      </trkpt>
      <trkpt lat="46.05754" lon="6.74487">
        <ele>812</ele>
        <time>2016-07-04T17:23:43.000Z</time>
      </trkpt>
      <trkpt lat="46.05749" lon="6.74496">
        <ele>811</ele>
        <time>2016-07-04T17:23:53.000Z</time>
      </trkpt>
      <trkpt lat="46.05748" lon="6.74497">
        <ele>811</ele>
        <time>2016-07-04T17:23:54.000Z</time>
      </trkpt>
      <trkpt lat="46.05749" lon="6.7451">
        <ele>808</ele>
        <time>2016-07-04T17:24:00.000Z</time>
      </trkpt>
      <trkpt lat="46.05749" lon="6.74512">
        <ele>809</ele>
        <time>2016-07-04T17:24:01.000Z</time>
      </trkpt>
      <trkpt lat="46.05744" lon="6.74521">
        <ele>806</ele>
        <time>2016-07-04T17:24:12.000Z</time>
      </trkpt>
      <trkpt lat="46.05743" lon="6.74522">
        <ele>806</ele>
        <time>2016-07-04T17:24:13.000Z</time>
      </trkpt>
      <trkpt lat="46.05739" lon="6.7453">
        <ele>805</ele>
        <time>2016-07-04T17:24:19.000Z</time>
      </trkpt>
      <trkpt lat="46.05741" lon="6.74537">
        <ele>805</ele>
        <time>2016-07-04T17:24:20.000Z</time>
      </trkpt>
      <trkpt lat="46.05735" lon="6.74544">
        <ele>807</ele>
        <time>2016-07-04T17:24:25.000Z</time>
      </trkpt>
      <trkpt lat="46.05732" lon="6.74544">
        <ele>807</ele>
        <time>2016-07-04T17:24:26.000Z</time>
      </trkpt>
      <trkpt lat="46.05726" lon="6.74548">
        <ele>809</ele>
        <time>2016-07-04T17:24:33.000Z</time>
      </trkpt>
      <trkpt lat="46.05722" lon="6.7455">
        <ele>811</ele>
        <time>2016-07-04T17:24:34.000Z</time>
      </trkpt>
      <trkpt lat="46.05713" lon="6.74553">
        <ele>811</ele>
        <time>2016-07-04T17:24:41.000Z</time>
      </trkpt>
      <trkpt lat="46.05712" lon="6.74555">
        <ele>813</ele>
        <time>2016-07-04T17:24:42.000Z</time>
      </trkpt>
      <trkpt lat="46.05714" lon="6.74567">
        <ele>814</ele>
        <time>2016-07-04T17:24:48.000Z</time>
      </trkpt>
      <trkpt lat="46.05714" lon="6.7457">
        <ele>815</ele>
        <time>2016-07-04T17:24:49.000Z</time>
      </trkpt>
      <trkpt lat="46.05712" lon="6.74582">
        <ele>813</ele>
        <time>2016-07-04T17:24:54.000Z</time>
      </trkpt>
      <trkpt lat="46.05708" lon="6.7458">
        <ele>814</ele>
        <time>2016-07-04T17:24:55.000Z</time>
      </trkpt>
      <trkpt lat="46.05706" lon="6.74591">
        <ele>817</ele>
        <time>2016-07-04T17:25:00.000Z</time>
      </trkpt>
      <trkpt lat="46.05703" lon="6.74591">
        <ele>818</ele>
        <time>2016-07-04T17:25:01.000Z</time>
      </trkpt>
      <trkpt lat="46.05697" lon="6.746">
        <ele>810</ele>
        <time>2016-07-04T17:25:13.000Z</time>
      </trkpt>
      <trkpt lat="46.05694" lon="6.746">
        <ele>811</ele>
        <time>2016-07-04T17:25:14.000Z</time>
      </trkpt>
      <trkpt lat="46.05692" lon="6.74613">
        <ele>807</ele>
        <time>2016-07-04T17:25:22.000Z</time>
      </trkpt>
      <trkpt lat="46.05691" lon="6.74615">
        <ele>808</ele>
        <time>2016-07-04T17:25:23.000Z</time>
      </trkpt>
      <trkpt lat="46.05686" lon="6.74625">
        <ele>800</ele>
        <time>2016-07-04T17:25:34.000Z</time>
      </trkpt>
      <trkpt lat="46.05686" lon="6.7463">
        <ele>801</ele>
        <time>2016-07-04T17:25:35.000Z</time>
      </trkpt>
      <trkpt lat="46.0568" lon="6.74635">
        <ele>806</ele>
        <time>2016-07-04T17:25:38.000Z</time>
      </trkpt>
      <trkpt lat="46.05677" lon="6.74638">
        <ele>807</ele>
        <time>2016-07-04T17:25:39.000Z</time>
      </trkpt>
      <trkpt lat="46.05674" lon="6.74648">
        <ele>809</ele>
        <time>2016-07-04T17:25:45.000Z</time>
      </trkpt>
      <trkpt lat="46.05672" lon="6.7465">
        <ele>809</ele>
        <time>2016-07-04T17:25:46.000Z</time>
      </trkpt>
      <trkpt lat="46.05665" lon="6.74655">
        <ele>813</ele>
        <time>2016-07-04T17:25:52.000Z</time>
      </trkpt>
      <trkpt lat="46.05663" lon="6.74657">
        <ele>815</ele>
        <time>2016-07-04T17:25:53.000Z</time>
      </trkpt>
      <trkpt lat="46.05661" lon="6.74666">
        <ele>811</ele>
        <time>2016-07-04T17:26:01.000Z</time>
      </trkpt>
      <trkpt lat="46.05659" lon="6.7467">
        <ele>812</ele>
        <time>2016-07-04T17:26:02.000Z</time>
      </trkpt>
      <trkpt lat="46.05653" lon="6.74678">
        <ele>815</ele>
        <time>2016-07-04T17:26:07.000Z</time>
      </trkpt>
      <trkpt lat="46.05651" lon="6.74678">
        <ele>816</ele>
        <time>2016-07-04T17:26:08.000Z</time>
      </trkpt>
      <trkpt lat="46.05649" lon="6.7469">
        <ele>819</ele>
        <time>2016-07-04T17:26:14.000Z</time>
      </trkpt>
      <trkpt lat="46.05649" lon="6.74693">
        <ele>819</ele>
        <time>2016-07-04T17:26:15.000Z</time>
      </trkpt>
      <trkpt lat="46.05644" lon="6.74703">
        <ele>822</ele>
        <time>2016-07-04T17:26:19.000Z</time>
      </trkpt>
      <trkpt lat="46.05644" lon="6.74706">
        <ele>824</ele>
        <time>2016-07-04T17:26:20.000Z</time>
      </trkpt>
      <trkpt lat="46.05643" lon="6.74719">
        <ele>832</ele>
        <time>2016-07-04T17:26:31.000Z</time>
      </trkpt>
      <trkpt lat="46.05642" lon="6.74722">
        <ele>834</ele>
        <time>2016-07-04T17:26:32.000Z</time>
      </trkpt>
      <trkpt lat="46.05642" lon="6.74723">
        <ele>825</ele>
        <time>2016-07-04T17:26:37.000Z</time>
      </trkpt>
      <trkpt lat="46.05643" lon="6.74723">
        <ele>826</ele>
        <time>2016-07-04T17:26:39.000Z</time>
      </trkpt>
      <trkpt lat="46.05643" lon="6.74725">
        <ele>826</ele>
        <time>2016-07-04T17:26:40.000Z</time>
      </trkpt>
      <trkpt lat="46.05651" lon="6.74728">
        <ele>833</ele>
        <time>2016-07-04T17:26:47.000Z</time>
      </trkpt>
      <trkpt lat="46.05651" lon="6.74728">
        <ele>832</ele>
        <time>2016-07-04T17:26:48.000Z</time>
      </trkpt>
      <trkpt lat="46.05652" lon="6.74727">
        <ele>829</ele>
        <time>2016-07-04T17:26:50.000Z</time>
      </trkpt>
      <trkpt lat="46.05652" lon="6.74727">
        <ele>829</ele>
        <time>2016-07-04T17:26:51.000Z</time>
      </trkpt>
      <trkpt lat="46.05646" lon="6.74735">
        <ele>819</ele>
        <time>2016-07-04T17:27:29.000Z</time>
      </trkpt>
      <trkpt lat="46.05644" lon="6.74737">
        <ele>819</ele>
        <time>2016-07-04T17:27:30.000Z</time>
      </trkpt>
      <trkpt lat="46.05638" lon="6.74744">
        <ele>817</ele>
        <time>2016-07-04T17:27:34.000Z</time>
      </trkpt>
      <trkpt lat="46.05635" lon="6.74752">
        <ele>816</ele>
        <time>2016-07-04T17:27:35.000Z</time>
      </trkpt>
      <trkpt lat="46.05627" lon="6.74759">
        <ele>816</ele>
        <time>2016-07-04T17:27:36.000Z</time>
      </trkpt>
      <trkpt lat="46.05633" lon="6.74765">
        <ele>812</ele>
        <time>2016-07-04T17:27:40.000Z</time>
      </trkpt>
      <trkpt lat="46.05632" lon="6.7477">
        <ele>812</ele>
        <time>2016-07-04T17:27:41.000Z</time>
      </trkpt>
      <trkpt lat="46.05629" lon="6.74779">
        <ele>810</ele>
        <time>2016-07-04T17:27:51.000Z</time>
      </trkpt>
      <trkpt lat="46.05626" lon="6.74783">
        <ele>810</ele>
        <time>2016-07-04T17:27:52.000Z</time>
      </trkpt>
      <trkpt lat="46.05623" lon="6.74794">
        <ele>806</ele>
        <time>2016-07-04T17:27:57.000Z</time>
      </trkpt>
      <trkpt lat="46.05618" lon="6.74798">
        <ele>805</ele>
        <time>2016-07-04T17:27:58.000Z</time>
      </trkpt>
      <trkpt lat="46.05619" lon="6.74808">
        <ele>805</ele>
        <time>2016-07-04T17:28:03.000Z</time>
      </trkpt>
      <trkpt lat="46.05617" lon="6.74813">
        <ele>805</ele>
        <time>2016-07-04T17:28:04.000Z</time>
      </trkpt>
      <trkpt lat="46.05617" lon="6.74819">
        <ele>805</ele>
        <time>2016-07-04T17:28:06.000Z</time>
      </trkpt>
      <trkpt lat="46.05618" lon="6.74826">
        <ele>804</ele>
        <time>2016-07-04T17:28:07.000Z</time>
      </trkpt>
      <trkpt lat="46.05622" lon="6.74837">
        <ele>813</ele>
        <time>2016-07-04T17:28:36.000Z</time>
      </trkpt>
      <trkpt lat="46.05622" lon="6.74839">
        <ele>814</ele>
        <time>2016-07-04T17:28:37.000Z</time>
      </trkpt>
      <trkpt lat="46.05623" lon="6.74848">
        <ele>811</ele>
        <time>2016-07-04T17:28:41.000Z</time>
      </trkpt>
      <trkpt lat="46.05624" lon="6.74857">
        <ele>811</ele>
        <time>2016-07-04T17:28:42.000Z</time>
      </trkpt>
      <trkpt lat="46.05625" lon="6.74865">
        <ele>811</ele>
        <time>2016-07-04T17:28:43.000Z</time>
      </trkpt>
      <trkpt lat="46.0562" lon="6.74874">
        <ele>809</ele>
        <time>2016-07-04T17:28:44.000Z</time>
      </trkpt>
      <trkpt lat="46.05618" lon="6.74882">
        <ele>809</ele>
        <time>2016-07-04T17:28:48.000Z</time>
      </trkpt>
      <trkpt lat="46.05617" lon="6.74888">
        <ele>809</ele>
        <time>2016-07-04T17:28:49.000Z</time>
      </trkpt>
      <trkpt lat="46.05617" lon="6.749">
        <ele>812</ele>
        <time>2016-07-04T17:28:55.000Z</time>
      </trkpt>
      <trkpt lat="46.05615" lon="6.74901">
        <ele>810</ele>
        <time>2016-07-04T17:28:56.000Z</time>
      </trkpt>
      <trkpt lat="46.05609" lon="6.74911">
        <ele>811</ele>
        <time>2016-07-04T17:29:08.000Z</time>
      </trkpt>
      <trkpt lat="46.05608" lon="6.74913">
        <ele>812</ele>
        <time>2016-07-04T17:29:09.000Z</time>
      </trkpt>
      <trkpt lat="46.05607" lon="6.74923">
        <ele>811</ele>
        <time>2016-07-04T17:29:18.000Z</time>
      </trkpt>
      <trkpt lat="46.05603" lon="6.74927">
        <ele>811</ele>
        <time>2016-07-04T17:29:19.000Z</time>
      </trkpt>
      <trkpt lat="46.05598" lon="6.74931">
        <ele>809</ele>
        <time>2016-07-04T17:29:20.000Z</time>
      </trkpt>
      <trkpt lat="46.05594" lon="6.74924">
        <ele>809</ele>
        <time>2016-07-04T17:29:21.000Z</time>
      </trkpt>
      <trkpt lat="46.05588" lon="6.74927">
        <ele>803</ele>
        <time>2016-07-04T17:29:28.000Z</time>
      </trkpt>
      <trkpt lat="46.05585" lon="6.74927">
        <ele>803</ele>
        <time>2016-07-04T17:29:29.000Z</time>
      </trkpt>
      <trkpt lat="46.05582" lon="6.74938">
        <ele>801</ele>
        <time>2016-07-04T17:29:44.000Z</time>
      </trkpt>
      <trkpt lat="46.05581" lon="6.7494">
        <ele>802</ele>
        <time>2016-07-04T17:29:45.000Z</time>
      </trkpt>
      <trkpt lat="46.05576" lon="6.74948">
        <ele>803</ele>
        <time>2016-07-04T17:29:51.000Z</time>
      </trkpt>
      <trkpt lat="46.05575" lon="6.74951">
        <ele>805</ele>
        <time>2016-07-04T17:29:52.000Z</time>
      </trkpt>
      <trkpt lat="46.0557" lon="6.74957">
        <ele>807</ele>
        <time>2016-07-04T17:29:56.000Z</time>
      </trkpt>
      <trkpt lat="46.05568" lon="6.74959">
        <ele>805</ele>
        <time>2016-07-04T17:29:57.000Z</time>
      </trkpt>
      <trkpt lat="46.05562" lon="6.74966">
        <ele>807</ele>
        <time>2016-07-04T17:30:00.000Z</time>
      </trkpt>
      <trkpt lat="46.05563" lon="6.74974">
        <ele>807</ele>
        <time>2016-07-04T17:30:01.000Z</time>
      </trkpt>
      <trkpt lat="46.0556" lon="6.74982">
        <ele>811</ele>
        <time>2016-07-04T17:30:09.000Z</time>
      </trkpt>
      <trkpt lat="46.0556" lon="6.74987">
        <ele>814</ele>
        <time>2016-07-04T17:30:10.000Z</time>
      </trkpt>
      <trkpt lat="46.05552" lon="6.74986">
        <ele>813</ele>
        <time>2016-07-04T17:30:17.000Z</time>
      </trkpt>
      <trkpt lat="46.05551" lon="6.74986">
        <ele>812</ele>
        <time>2016-07-04T17:30:18.000Z</time>
      </trkpt>
      <trkpt lat="46.05546" lon="6.74995">
        <ele>810</ele>
        <time>2016-07-04T17:30:28.000Z</time>
      </trkpt>
      <trkpt lat="46.05543" lon="6.74996">
        <ele>808</ele>
        <time>2016-07-04T17:30:29.000Z</time>
      </trkpt>
      <trkpt lat="46.05536" lon="6.75004">
        <ele>801</ele>
        <time>2016-07-04T17:30:35.000Z</time>
      </trkpt>
      <trkpt lat="46.05534" lon="6.75003">
        <ele>799</ele>
        <time>2016-07-04T17:30:36.000Z</time>
      </trkpt>
      <trkpt lat="46.0553" lon="6.75011">
        <ele>793</ele>
        <time>2016-07-04T17:30:41.000Z</time>
      </trkpt>
      <trkpt lat="46.05528" lon="6.75013">
        <ele>793</ele>
        <time>2016-07-04T17:30:42.000Z</time>
      </trkpt>
      <trkpt lat="46.05526" lon="6.75023">
        <ele>795</ele>
        <time>2016-07-04T17:30:49.000Z</time>
      </trkpt>
      <trkpt lat="46.05525" lon="6.75027">
        <ele>796</ele>
        <time>2016-07-04T17:30:50.000Z</time>
      </trkpt>
      <trkpt lat="46.05521" lon="6.75036">
        <ele>802</ele>
        <time>2016-07-04T17:30:56.000Z</time>
      </trkpt>
      <trkpt lat="46.05519" lon="6.75037">
        <ele>801</ele>
        <time>2016-07-04T17:30:57.000Z</time>
      </trkpt>
      <trkpt lat="46.05511" lon="6.7504">
        <ele>802</ele>
        <time>2016-07-04T17:31:03.000Z</time>
      </trkpt>
      <trkpt lat="46.05508" lon="6.75044">
        <ele>802</ele>
        <time>2016-07-04T17:31:04.000Z</time>
      </trkpt>
      <trkpt lat="46.05509" lon="6.75056">
        <ele>803</ele>
        <time>2016-07-04T17:31:08.000Z</time>
      </trkpt>
      <trkpt lat="46.05507" lon="6.75059">
        <ele>803</ele>
        <time>2016-07-04T17:31:09.000Z</time>
      </trkpt>
      <trkpt lat="46.05501" lon="6.75067">
        <ele>800</ele>
        <time>2016-07-04T17:31:16.000Z</time>
      </trkpt>
      <trkpt lat="46.05503" lon="6.7507">
        <ele>799</ele>
        <time>2016-07-04T17:31:17.000Z</time>
      </trkpt>
      <trkpt lat="46.05498" lon="6.75078">
        <ele>796</ele>
        <time>2016-07-04T17:31:24.000Z</time>
      </trkpt>
      <trkpt lat="46.05496" lon="6.75081">
        <ele>797</ele>
        <time>2016-07-04T17:31:25.000Z</time>
      </trkpt>
      <trkpt lat="46.05494" lon="6.75093">
        <ele>797</ele>
        <time>2016-07-04T17:31:34.000Z</time>
      </trkpt>
      <trkpt lat="46.05494" lon="6.75094">
        <ele>797</ele>
        <time>2016-07-04T17:31:35.000Z</time>
      </trkpt>
      <trkpt lat="46.05497" lon="6.75104">
        <ele>796</ele>
        <time>2016-07-04T17:31:49.000Z</time>
      </trkpt>
      <trkpt lat="46.05496" lon="6.75107">
        <ele>796</ele>
        <time>2016-07-04T17:31:50.000Z</time>
      </trkpt>
      <trkpt lat="46.05494" lon="6.75116">
        <ele>794</ele>
        <time>2016-07-04T17:32:07.000Z</time>
      </trkpt>
      <trkpt lat="46.05494" lon="6.7512">
        <ele>793</ele>
        <time>2016-07-04T17:32:08.000Z</time>
      </trkpt>
      <trkpt lat="46.05493" lon="6.75131">
        <ele>794</ele>
        <time>2016-07-04T17:32:10.000Z</time>
      </trkpt>
      <trkpt lat="46.05492" lon="6.75134">
        <ele>795</ele>
        <time>2016-07-04T17:32:11.000Z</time>
      </trkpt>
      <trkpt lat="46.05493" lon="6.75146">
        <ele>799</ele>
        <time>2016-07-04T17:32:15.000Z</time>
      </trkpt>
      <trkpt lat="46.05492" lon="6.75151">
        <ele>799</ele>
        <time>2016-07-04T17:32:16.000Z</time>
      </trkpt>
      <trkpt lat="46.05492" lon="6.7516">
        <ele>796</ele>
        <time>2016-07-04T17:32:19.000Z</time>
      </trkpt>
      <trkpt lat="46.05491" lon="6.75164">
        <ele>796</ele>
        <time>2016-07-04T17:32:20.000Z</time>
      </trkpt>
      <trkpt lat="46.05496" lon="6.75175">
        <ele>798</ele>
        <time>2016-07-04T17:32:27.000Z</time>
      </trkpt>
      <trkpt lat="46.05496" lon="6.75177">
        <ele>797</ele>
        <time>2016-07-04T17:32:28.000Z</time>
      </trkpt>
      <trkpt lat="46.05501" lon="6.75187">
        <ele>796</ele>
        <time>2016-07-04T17:32:36.000Z</time>
      </trkpt>
      <trkpt lat="46.055" lon="6.75188">
        <ele>794</ele>
        <time>2016-07-04T17:32:37.000Z</time>
      </trkpt>
      <trkpt lat="46.05503" lon="6.75197">
        <ele>793</ele>
        <time>2016-07-04T17:32:44.000Z</time>
      </trkpt>
      <trkpt lat="46.05503" lon="6.75196">
        <ele>793</ele>
        <time>2016-07-04T17:32:45.000Z</time>
      </trkpt>
      <trkpt lat="46.05504" lon="6.7519">
        <ele>787</ele>
        <time>2016-07-04T17:33:07.000Z</time>
      </trkpt>
      <trkpt lat="46.05503" lon="6.7519">
        <ele>787</ele>
        <time>2016-07-04T17:33:08.000Z</time>
      </trkpt>
      <trkpt lat="46.05495" lon="6.75192">
        <ele>790</ele>
        <time>2016-07-04T17:33:18.000Z</time>
      </trkpt>
      <trkpt lat="46.05494" lon="6.75192">
        <ele>790</ele>
        <time>2016-07-04T17:33:19.000Z</time>
      </trkpt>
      <trkpt lat="46.0549" lon="6.75203">
        <ele>789</ele>
        <time>2016-07-04T17:33:47.000Z</time>
      </trkpt>
      <trkpt lat="46.05489" lon="6.75206">
        <ele>788</ele>
        <time>2016-07-04T17:33:48.000Z</time>
      </trkpt>
      <trkpt lat="46.05485" lon="6.75215">
        <ele>786</ele>
        <time>2016-07-04T17:34:22.000Z</time>
      </trkpt>
      <trkpt lat="46.05485" lon="6.75215">
        <ele>786</ele>
        <time>2016-07-04T17:34:23.000Z</time>
      </trkpt>
      <trkpt lat="46.05486" lon="6.75215">
        <ele>785</ele>
        <time>2016-07-04T17:34:24.000Z</time>
      </trkpt>
      <trkpt lat="46.0549" lon="6.75217">
        <ele>784</ele>
        <time>2016-07-04T17:34:33.000Z</time>
      </trkpt>
      <trkpt lat="46.0549" lon="6.75217">
        <ele>784</ele>
        <time>2016-07-04T17:34:34.000Z</time>
      </trkpt>
      <trkpt lat="46.05487" lon="6.75215">
        <ele>778</ele>
        <time>2016-07-04T17:34:50.000Z</time>
      </trkpt>
      <trkpt lat="46.05486" lon="6.75215">
        <ele>778</ele>
        <time>2016-07-04T17:34:51.000Z</time>
      </trkpt>
      <trkpt lat="46.05487" lon="6.75215">
        <ele>777</ele>
        <time>2016-07-04T17:35:34.000Z</time>
      </trkpt>
      <trkpt lat="46.05487" lon="6.75215">
        <ele>777</ele>
        <time>2016-07-04T17:35:35.000Z</time>
      </trkpt>
      <trkpt lat="46.05489" lon="6.75214">
        <ele>779</ele>
        <time>2016-07-04T17:35:38.000Z</time>
      </trkpt>
      <trkpt lat="46.05489" lon="6.75214">
        <ele>779</ele>
        <time>2016-07-04T17:35:39.000Z</time>
      </trkpt>
      <trkpt lat="46.05496" lon="6.75217">
        <ele>785</ele>
        <time>2016-07-04T17:40:53.386Z</time>
      </trkpt>
      <trkpt lat="46.05496" lon="6.75217">
        <ele>785</ele>
        <time>2016-07-04T17:41:21.184Z</time>
      </trkpt>
    </trkseg>
  </trk>
</gpx>